<?xml version="1.0" encoding="UTF-8" standalone="no" ?>
<gpx xmlns="http://www.topografix.com/GPX/1/1" xmlns:xsi="http://www.w3.org/2001/XMLSchema-instance" xsi:schemaLocation="http://www.topografix.com/GPX/1/1 http://www.topografix.com/GPX/1/1/gpx.xsd" version="1.1" creator="VisuGPX - https://www.visugpx.com">
  <metadata>
    <name>Pussemange</name>
  </metadata>
  <trk>
    <name><![CDATA[Pussemange_1]]></name>
    <trkseg>
      <trkpt lat="49.75377" lon="4.82164">
        <ele>215</ele>
        <time>2021-07-31T06:53:35.000Z</time>
      </trkpt>
      <trkpt lat="49.75377" lon="4.82164">
        <ele>215</ele>
        <time>2021-07-31T06:53:36.000Z</time>
      </trkpt>
      <trkpt lat="49.75377" lon="4.82164">
        <ele>215</ele>
        <time>2021-07-31T06:53:37.000Z</time>
      </trkpt>
      <trkpt lat="49.75377" lon="4.82163">
        <ele>216</ele>
        <time>2021-07-31T06:53:38.000Z</time>
      </trkpt>
      <trkpt lat="49.75378" lon="4.82162">
        <ele>216</ele>
        <time>2021-07-31T06:53:39.000Z</time>
      </trkpt>
      <trkpt lat="49.75379" lon="4.8216">
        <ele>216</ele>
        <time>2021-07-31T06:53:40.000Z</time>
      </trkpt>
      <trkpt lat="49.75381" lon="4.82159">
        <ele>216</ele>
        <time>2021-07-31T06:53:41.000Z</time>
      </trkpt>
      <trkpt lat="49.75384" lon="4.82158">
        <ele>215</ele>
        <time>2021-07-31T06:53:42.000Z</time>
      </trkpt>
      <trkpt lat="49.75388" lon="4.82158">
        <ele>215</ele>
        <time>2021-07-31T06:53:43.000Z</time>
      </trkpt>
      <trkpt lat="49.75392" lon="4.82159">
        <ele>214</ele>
        <time>2021-07-31T06:53:44.000Z</time>
      </trkpt>
      <trkpt lat="49.75396" lon="4.82161">
        <ele>213</ele>
        <time>2021-07-31T06:53:45.000Z</time>
      </trkpt>
      <trkpt lat="49.754" lon="4.82163">
        <ele>212</ele>
        <time>2021-07-31T06:53:46.000Z</time>
      </trkpt>
      <trkpt lat="49.75405" lon="4.82167">
        <ele>211</ele>
        <time>2021-07-31T06:53:47.000Z</time>
      </trkpt>
      <trkpt lat="49.75409" lon="4.82171">
        <ele>210</ele>
        <time>2021-07-31T06:53:48.000Z</time>
      </trkpt>
      <trkpt lat="49.75413" lon="4.82175">
        <ele>208</ele>
        <time>2021-07-31T06:53:49.000Z</time>
      </trkpt>
      <trkpt lat="49.75417" lon="4.82179">
        <ele>207</ele>
        <time>2021-07-31T06:53:50.000Z</time>
      </trkpt>
      <trkpt lat="49.75422" lon="4.82182">
        <ele>206</ele>
        <time>2021-07-31T06:53:51.000Z</time>
      </trkpt>
      <trkpt lat="49.75426" lon="4.82186">
        <ele>205</ele>
        <time>2021-07-31T06:53:52.000Z</time>
      </trkpt>
      <trkpt lat="49.7543" lon="4.82191">
        <ele>204</ele>
        <time>2021-07-31T06:53:53.000Z</time>
      </trkpt>
      <trkpt lat="49.75433" lon="4.82197">
        <ele>203</ele>
        <time>2021-07-31T06:53:54.000Z</time>
      </trkpt>
      <trkpt lat="49.75436" lon="4.82202">
        <ele>202</ele>
        <time>2021-07-31T06:53:55.000Z</time>
      </trkpt>
      <trkpt lat="49.75441" lon="4.82206">
        <ele>201</ele>
        <time>2021-07-31T06:53:56.000Z</time>
      </trkpt>
      <trkpt lat="49.75445" lon="4.82207">
        <ele>200</ele>
        <time>2021-07-31T06:53:57.000Z</time>
      </trkpt>
      <trkpt lat="49.7545" lon="4.82209">
        <ele>200</ele>
        <time>2021-07-31T06:53:58.000Z</time>
      </trkpt>
      <trkpt lat="49.75455" lon="4.82211">
        <ele>199</ele>
        <time>2021-07-31T06:53:59.000Z</time>
      </trkpt>
      <trkpt lat="49.7546" lon="4.82215">
        <ele>198</ele>
        <time>2021-07-31T06:54:00.000Z</time>
      </trkpt>
      <trkpt lat="49.75465" lon="4.82221">
        <ele>198</ele>
        <time>2021-07-31T06:54:01.000Z</time>
      </trkpt>
      <trkpt lat="49.75469" lon="4.82227">
        <ele>197</ele>
        <time>2021-07-31T06:54:02.000Z</time>
      </trkpt>
      <trkpt lat="49.75473" lon="4.82233">
        <ele>196</ele>
        <time>2021-07-31T06:54:03.000Z</time>
      </trkpt>
      <trkpt lat="49.75478" lon="4.82239">
        <ele>196</ele>
        <time>2021-07-31T06:54:04.000Z</time>
      </trkpt>
      <trkpt lat="49.75483" lon="4.82244">
        <ele>196</ele>
        <time>2021-07-31T06:54:05.000Z</time>
      </trkpt>
      <trkpt lat="49.75488" lon="4.82248">
        <ele>195</ele>
        <time>2021-07-31T06:54:06.000Z</time>
      </trkpt>
      <trkpt lat="49.75493" lon="4.82252">
        <ele>195</ele>
        <time>2021-07-31T06:54:07.000Z</time>
      </trkpt>
      <trkpt lat="49.75499" lon="4.82256">
        <ele>195</ele>
        <time>2021-07-31T06:54:08.000Z</time>
      </trkpt>
      <trkpt lat="49.75504" lon="4.82259">
        <ele>194</ele>
        <time>2021-07-31T06:54:09.000Z</time>
      </trkpt>
      <trkpt lat="49.75509" lon="4.82262">
        <ele>194</ele>
        <time>2021-07-31T06:54:10.000Z</time>
      </trkpt>
      <trkpt lat="49.75514" lon="4.82265">
        <ele>194</ele>
        <time>2021-07-31T06:54:11.000Z</time>
      </trkpt>
      <trkpt lat="49.75519" lon="4.82268">
        <ele>194</ele>
        <time>2021-07-31T06:54:12.000Z</time>
      </trkpt>
      <trkpt lat="49.75524" lon="4.82271">
        <ele>194</ele>
        <time>2021-07-31T06:54:13.000Z</time>
      </trkpt>
      <trkpt lat="49.75529" lon="4.82273">
        <ele>193</ele>
        <time>2021-07-31T06:54:14.000Z</time>
      </trkpt>
      <trkpt lat="49.75534" lon="4.82274">
        <ele>193</ele>
        <time>2021-07-31T06:54:15.000Z</time>
      </trkpt>
      <trkpt lat="49.75539" lon="4.82274">
        <ele>193</ele>
        <time>2021-07-31T06:54:16.000Z</time>
      </trkpt>
      <trkpt lat="49.75543" lon="4.8227">
        <ele>193</ele>
        <time>2021-07-31T06:54:17.000Z</time>
      </trkpt>
      <trkpt lat="49.75546" lon="4.82266">
        <ele>193</ele>
        <time>2021-07-31T06:54:18.000Z</time>
      </trkpt>
      <trkpt lat="49.75549" lon="4.82261">
        <ele>193</ele>
        <time>2021-07-31T06:54:19.000Z</time>
      </trkpt>
      <trkpt lat="49.75551" lon="4.82257">
        <ele>193</ele>
        <time>2021-07-31T06:54:20.000Z</time>
      </trkpt>
      <trkpt lat="49.75553" lon="4.82254">
        <ele>193</ele>
        <time>2021-07-31T06:54:21.000Z</time>
      </trkpt>
      <trkpt lat="49.75553" lon="4.82251">
        <ele>193</ele>
        <time>2021-07-31T06:54:22.000Z</time>
      </trkpt>
      <trkpt lat="49.75551" lon="4.82246">
        <ele>193</ele>
        <time>2021-07-31T06:54:23.000Z</time>
      </trkpt>
      <trkpt lat="49.75547" lon="4.8224">
        <ele>193</ele>
        <time>2021-07-31T06:54:24.000Z</time>
      </trkpt>
      <trkpt lat="49.75544" lon="4.82233">
        <ele>193</ele>
        <time>2021-07-31T06:54:25.000Z</time>
      </trkpt>
      <trkpt lat="49.75541" lon="4.82227">
        <ele>193</ele>
        <time>2021-07-31T06:54:26.000Z</time>
      </trkpt>
      <trkpt lat="49.75537" lon="4.8222">
        <ele>193</ele>
        <time>2021-07-31T06:54:27.000Z</time>
      </trkpt>
      <trkpt lat="49.75533" lon="4.82214">
        <ele>193</ele>
        <time>2021-07-31T06:54:28.000Z</time>
      </trkpt>
      <trkpt lat="49.7553" lon="4.82207">
        <ele>193</ele>
        <time>2021-07-31T06:54:29.000Z</time>
      </trkpt>
      <trkpt lat="49.75526" lon="4.822">
        <ele>193</ele>
        <time>2021-07-31T06:54:30.000Z</time>
      </trkpt>
      <trkpt lat="49.75523" lon="4.82193">
        <ele>193</ele>
        <time>2021-07-31T06:54:31.000Z</time>
      </trkpt>
      <trkpt lat="49.75519" lon="4.82187">
        <ele>193</ele>
        <time>2021-07-31T06:54:32.000Z</time>
      </trkpt>
      <trkpt lat="49.75516" lon="4.82181">
        <ele>193</ele>
        <time>2021-07-31T06:54:33.000Z</time>
      </trkpt>
      <trkpt lat="49.75513" lon="4.82175">
        <ele>193</ele>
        <time>2021-07-31T06:54:34.000Z</time>
      </trkpt>
      <trkpt lat="49.7551" lon="4.8217">
        <ele>193</ele>
        <time>2021-07-31T06:54:35.000Z</time>
      </trkpt>
      <trkpt lat="49.75506" lon="4.82165">
        <ele>193</ele>
        <time>2021-07-31T06:54:36.000Z</time>
      </trkpt>
      <trkpt lat="49.75503" lon="4.82159">
        <ele>193</ele>
        <time>2021-07-31T06:54:37.000Z</time>
      </trkpt>
      <trkpt lat="49.75499" lon="4.82154">
        <ele>193</ele>
        <time>2021-07-31T06:54:38.000Z</time>
      </trkpt>
      <trkpt lat="49.75496" lon="4.82149">
        <ele>193</ele>
        <time>2021-07-31T06:54:39.000Z</time>
      </trkpt>
      <trkpt lat="49.75492" lon="4.82143">
        <ele>193</ele>
        <time>2021-07-31T06:54:40.000Z</time>
      </trkpt>
      <trkpt lat="49.75489" lon="4.82138">
        <ele>193</ele>
        <time>2021-07-31T06:54:41.000Z</time>
      </trkpt>
      <trkpt lat="49.75485" lon="4.82132">
        <ele>192</ele>
        <time>2021-07-31T06:54:42.000Z</time>
      </trkpt>
      <trkpt lat="49.75482" lon="4.82127">
        <ele>192</ele>
        <time>2021-07-31T06:54:43.000Z</time>
      </trkpt>
      <trkpt lat="49.75478" lon="4.82122">
        <ele>192</ele>
        <time>2021-07-31T06:54:44.000Z</time>
      </trkpt>
      <trkpt lat="49.75475" lon="4.82117">
        <ele>192</ele>
        <time>2021-07-31T06:54:45.000Z</time>
      </trkpt>
      <trkpt lat="49.75472" lon="4.82112">
        <ele>192</ele>
        <time>2021-07-31T06:54:46.000Z</time>
      </trkpt>
      <trkpt lat="49.75469" lon="4.82108">
        <ele>193</ele>
        <time>2021-07-31T06:54:47.000Z</time>
      </trkpt>
      <trkpt lat="49.75466" lon="4.82104">
        <ele>193</ele>
        <time>2021-07-31T06:54:48.000Z</time>
      </trkpt>
      <trkpt lat="49.75463" lon="4.82101">
        <ele>193</ele>
        <time>2021-07-31T06:54:49.000Z</time>
      </trkpt>
      <trkpt lat="49.7546" lon="4.82098">
        <ele>193</ele>
        <time>2021-07-31T06:54:50.000Z</time>
      </trkpt>
      <trkpt lat="49.75457" lon="4.82096">
        <ele>193</ele>
        <time>2021-07-31T06:54:51.000Z</time>
      </trkpt>
      <trkpt lat="49.75453" lon="4.82093">
        <ele>193</ele>
        <time>2021-07-31T06:54:52.000Z</time>
      </trkpt>
      <trkpt lat="49.7545" lon="4.8209">
        <ele>193</ele>
        <time>2021-07-31T06:54:53.000Z</time>
      </trkpt>
      <trkpt lat="49.75446" lon="4.82086">
        <ele>193</ele>
        <time>2021-07-31T06:54:54.000Z</time>
      </trkpt>
      <trkpt lat="49.75442" lon="4.82082">
        <ele>192</ele>
        <time>2021-07-31T06:54:55.000Z</time>
      </trkpt>
      <trkpt lat="49.75438" lon="4.82079">
        <ele>192</ele>
        <time>2021-07-31T06:54:56.000Z</time>
      </trkpt>
      <trkpt lat="49.75434" lon="4.82074">
        <ele>192</ele>
        <time>2021-07-31T06:54:57.000Z</time>
      </trkpt>
      <trkpt lat="49.7543" lon="4.8207">
        <ele>192</ele>
        <time>2021-07-31T06:54:58.000Z</time>
      </trkpt>
      <trkpt lat="49.75426" lon="4.82066">
        <ele>192</ele>
        <time>2021-07-31T06:54:59.000Z</time>
      </trkpt>
      <trkpt lat="49.75422" lon="4.82062">
        <ele>192</ele>
        <time>2021-07-31T06:55:00.000Z</time>
      </trkpt>
      <trkpt lat="49.75418" lon="4.82058">
        <ele>192</ele>
        <time>2021-07-31T06:55:01.000Z</time>
      </trkpt>
      <trkpt lat="49.75415" lon="4.82054">
        <ele>192</ele>
        <time>2021-07-31T06:55:02.000Z</time>
      </trkpt>
      <trkpt lat="49.75411" lon="4.82051">
        <ele>192</ele>
        <time>2021-07-31T06:55:03.000Z</time>
      </trkpt>
      <trkpt lat="49.75408" lon="4.82048">
        <ele>192</ele>
        <time>2021-07-31T06:55:04.000Z</time>
      </trkpt>
      <trkpt lat="49.75405" lon="4.82045">
        <ele>192</ele>
        <time>2021-07-31T06:55:05.000Z</time>
      </trkpt>
      <trkpt lat="49.75401" lon="4.82042">
        <ele>192</ele>
        <time>2021-07-31T06:55:06.000Z</time>
      </trkpt>
      <trkpt lat="49.75397" lon="4.82038">
        <ele>192</ele>
        <time>2021-07-31T06:55:07.000Z</time>
      </trkpt>
      <trkpt lat="49.75392" lon="4.82035">
        <ele>192</ele>
        <time>2021-07-31T06:55:08.000Z</time>
      </trkpt>
      <trkpt lat="49.75388" lon="4.82032">
        <ele>193</ele>
        <time>2021-07-31T06:55:09.000Z</time>
      </trkpt>
      <trkpt lat="49.75383" lon="4.82028">
        <ele>192</ele>
        <time>2021-07-31T06:55:10.000Z</time>
      </trkpt>
      <trkpt lat="49.75379" lon="4.82025">
        <ele>193</ele>
        <time>2021-07-31T06:55:11.000Z</time>
      </trkpt>
      <trkpt lat="49.75374" lon="4.82022">
        <ele>193</ele>
        <time>2021-07-31T06:55:12.000Z</time>
      </trkpt>
      <trkpt lat="49.75369" lon="4.8202">
        <ele>193</ele>
        <time>2021-07-31T06:55:13.000Z</time>
      </trkpt>
      <trkpt lat="49.75365" lon="4.82018">
        <ele>193</ele>
        <time>2021-07-31T06:55:14.000Z</time>
      </trkpt>
      <trkpt lat="49.7536" lon="4.82016">
        <ele>193</ele>
        <time>2021-07-31T06:55:15.000Z</time>
      </trkpt>
      <trkpt lat="49.75355" lon="4.82013">
        <ele>193</ele>
        <time>2021-07-31T06:55:16.000Z</time>
      </trkpt>
      <trkpt lat="49.75351" lon="4.8201">
        <ele>193</ele>
        <time>2021-07-31T06:55:17.000Z</time>
      </trkpt>
      <trkpt lat="49.75346" lon="4.82008">
        <ele>193</ele>
        <time>2021-07-31T06:55:18.000Z</time>
      </trkpt>
      <trkpt lat="49.75342" lon="4.82005">
        <ele>193</ele>
        <time>2021-07-31T06:55:19.000Z</time>
      </trkpt>
      <trkpt lat="49.75338" lon="4.82002">
        <ele>193</ele>
        <time>2021-07-31T06:55:20.000Z</time>
      </trkpt>
      <trkpt lat="49.75334" lon="4.82">
        <ele>193</ele>
        <time>2021-07-31T06:55:21.000Z</time>
      </trkpt>
      <trkpt lat="49.7533" lon="4.81997">
        <ele>193</ele>
        <time>2021-07-31T06:55:22.000Z</time>
      </trkpt>
      <trkpt lat="49.75325" lon="4.81994">
        <ele>193</ele>
        <time>2021-07-31T06:55:23.000Z</time>
      </trkpt>
      <trkpt lat="49.75321" lon="4.81991">
        <ele>193</ele>
        <time>2021-07-31T06:55:24.000Z</time>
      </trkpt>
      <trkpt lat="49.75317" lon="4.81989">
        <ele>193</ele>
        <time>2021-07-31T06:55:25.000Z</time>
      </trkpt>
      <trkpt lat="49.75313" lon="4.81986">
        <ele>193</ele>
        <time>2021-07-31T06:55:26.000Z</time>
      </trkpt>
      <trkpt lat="49.75309" lon="4.81983">
        <ele>193</ele>
        <time>2021-07-31T06:55:27.000Z</time>
      </trkpt>
      <trkpt lat="49.75306" lon="4.81981">
        <ele>194</ele>
        <time>2021-07-31T06:55:28.000Z</time>
      </trkpt>
      <trkpt lat="49.75303" lon="4.81978">
        <ele>194</ele>
        <time>2021-07-31T06:55:29.000Z</time>
      </trkpt>
      <trkpt lat="49.75299" lon="4.81976">
        <ele>194</ele>
        <time>2021-07-31T06:55:30.000Z</time>
      </trkpt>
      <trkpt lat="49.75296" lon="4.81973">
        <ele>194</ele>
        <time>2021-07-31T06:55:31.000Z</time>
      </trkpt>
      <trkpt lat="49.75293" lon="4.8197">
        <ele>194</ele>
        <time>2021-07-31T06:55:32.000Z</time>
      </trkpt>
      <trkpt lat="49.7529" lon="4.81968">
        <ele>194</ele>
        <time>2021-07-31T06:55:33.000Z</time>
      </trkpt>
      <trkpt lat="49.75286" lon="4.81965">
        <ele>194</ele>
        <time>2021-07-31T06:55:34.000Z</time>
      </trkpt>
      <trkpt lat="49.75283" lon="4.81962">
        <ele>194</ele>
        <time>2021-07-31T06:55:35.000Z</time>
      </trkpt>
      <trkpt lat="49.75279" lon="4.81959">
        <ele>194</ele>
        <time>2021-07-31T06:55:36.000Z</time>
      </trkpt>
      <trkpt lat="49.75276" lon="4.81956">
        <ele>194</ele>
        <time>2021-07-31T06:55:37.000Z</time>
      </trkpt>
      <trkpt lat="49.75272" lon="4.81953">
        <ele>195</ele>
        <time>2021-07-31T06:55:38.000Z</time>
      </trkpt>
      <trkpt lat="49.75268" lon="4.8195">
        <ele>195</ele>
        <time>2021-07-31T06:55:39.000Z</time>
      </trkpt>
      <trkpt lat="49.75265" lon="4.81946">
        <ele>195</ele>
        <time>2021-07-31T06:55:40.000Z</time>
      </trkpt>
      <trkpt lat="49.75261" lon="4.81942">
        <ele>195</ele>
        <time>2021-07-31T06:55:41.000Z</time>
      </trkpt>
      <trkpt lat="49.75258" lon="4.81938">
        <ele>195</ele>
        <time>2021-07-31T06:55:42.000Z</time>
      </trkpt>
      <trkpt lat="49.75255" lon="4.81934">
        <ele>195</ele>
        <time>2021-07-31T06:55:43.000Z</time>
      </trkpt>
      <trkpt lat="49.75252" lon="4.81929">
        <ele>196</ele>
        <time>2021-07-31T06:55:44.000Z</time>
      </trkpt>
      <trkpt lat="49.75249" lon="4.81924">
        <ele>196</ele>
        <time>2021-07-31T06:55:45.000Z</time>
      </trkpt>
      <trkpt lat="49.75246" lon="4.8192">
        <ele>196</ele>
        <time>2021-07-31T06:55:46.000Z</time>
      </trkpt>
      <trkpt lat="49.75242" lon="4.81916">
        <ele>196</ele>
        <time>2021-07-31T06:55:47.000Z</time>
      </trkpt>
      <trkpt lat="49.75239" lon="4.81912">
        <ele>197</ele>
        <time>2021-07-31T06:55:48.000Z</time>
      </trkpt>
      <trkpt lat="49.75235" lon="4.81908">
        <ele>197</ele>
        <time>2021-07-31T06:55:49.000Z</time>
      </trkpt>
      <trkpt lat="49.75232" lon="4.81905">
        <ele>197</ele>
        <time>2021-07-31T06:55:50.000Z</time>
      </trkpt>
      <trkpt lat="49.75228" lon="4.81901">
        <ele>197</ele>
        <time>2021-07-31T06:55:51.000Z</time>
      </trkpt>
      <trkpt lat="49.75225" lon="4.81898">
        <ele>197</ele>
        <time>2021-07-31T06:55:52.000Z</time>
      </trkpt>
      <trkpt lat="49.75221" lon="4.81894">
        <ele>197</ele>
        <time>2021-07-31T06:55:53.000Z</time>
      </trkpt>
      <trkpt lat="49.75218" lon="4.8189">
        <ele>197</ele>
        <time>2021-07-31T06:55:54.000Z</time>
      </trkpt>
      <trkpt lat="49.75215" lon="4.81886">
        <ele>198</ele>
        <time>2021-07-31T06:55:55.000Z</time>
      </trkpt>
      <trkpt lat="49.75211" lon="4.81881">
        <ele>198</ele>
        <time>2021-07-31T06:55:56.000Z</time>
      </trkpt>
      <trkpt lat="49.75208" lon="4.81877">
        <ele>198</ele>
        <time>2021-07-31T06:55:57.000Z</time>
      </trkpt>
      <trkpt lat="49.75205" lon="4.81873">
        <ele>198</ele>
        <time>2021-07-31T06:55:58.000Z</time>
      </trkpt>
      <trkpt lat="49.75201" lon="4.81868">
        <ele>198</ele>
        <time>2021-07-31T06:55:59.000Z</time>
      </trkpt>
      <trkpt lat="49.75198" lon="4.81863">
        <ele>198</ele>
        <time>2021-07-31T06:56:00.000Z</time>
      </trkpt>
      <trkpt lat="49.75195" lon="4.81859">
        <ele>199</ele>
        <time>2021-07-31T06:56:01.000Z</time>
      </trkpt>
      <trkpt lat="49.75192" lon="4.81854">
        <ele>199</ele>
        <time>2021-07-31T06:56:02.000Z</time>
      </trkpt>
      <trkpt lat="49.75189" lon="4.81849">
        <ele>199</ele>
        <time>2021-07-31T06:56:03.000Z</time>
      </trkpt>
      <trkpt lat="49.75186" lon="4.81844">
        <ele>199</ele>
        <time>2021-07-31T06:56:04.000Z</time>
      </trkpt>
      <trkpt lat="49.75183" lon="4.81839">
        <ele>199</ele>
        <time>2021-07-31T06:56:05.000Z</time>
      </trkpt>
      <trkpt lat="49.75181" lon="4.81835">
        <ele>199</ele>
        <time>2021-07-31T06:56:06.000Z</time>
      </trkpt>
      <trkpt lat="49.75178" lon="4.8183">
        <ele>199</ele>
        <time>2021-07-31T06:56:07.000Z</time>
      </trkpt>
      <trkpt lat="49.75175" lon="4.81825">
        <ele>199</ele>
        <time>2021-07-31T06:56:08.000Z</time>
      </trkpt>
      <trkpt lat="49.75172" lon="4.81819">
        <ele>199</ele>
        <time>2021-07-31T06:56:09.000Z</time>
      </trkpt>
      <trkpt lat="49.75169" lon="4.81814">
        <ele>199</ele>
        <time>2021-07-31T06:56:10.000Z</time>
      </trkpt>
      <trkpt lat="49.75166" lon="4.8181">
        <ele>200</ele>
        <time>2021-07-31T06:56:11.000Z</time>
      </trkpt>
      <trkpt lat="49.75163" lon="4.81805">
        <ele>200</ele>
        <time>2021-07-31T06:56:12.000Z</time>
      </trkpt>
      <trkpt lat="49.7516" lon="4.81801">
        <ele>200</ele>
        <time>2021-07-31T06:56:13.000Z</time>
      </trkpt>
      <trkpt lat="49.75157" lon="4.81796">
        <ele>200</ele>
        <time>2021-07-31T06:56:14.000Z</time>
      </trkpt>
      <trkpt lat="49.75154" lon="4.81791">
        <ele>200</ele>
        <time>2021-07-31T06:56:15.000Z</time>
      </trkpt>
      <trkpt lat="49.75151" lon="4.81785">
        <ele>200</ele>
        <time>2021-07-31T06:56:16.000Z</time>
      </trkpt>
      <trkpt lat="49.75148" lon="4.8178">
        <ele>200</ele>
        <time>2021-07-31T06:56:17.000Z</time>
      </trkpt>
      <trkpt lat="49.75145" lon="4.81774">
        <ele>200</ele>
        <time>2021-07-31T06:56:18.000Z</time>
      </trkpt>
      <trkpt lat="49.75142" lon="4.81768">
        <ele>200</ele>
        <time>2021-07-31T06:56:19.000Z</time>
      </trkpt>
      <trkpt lat="49.75139" lon="4.81762">
        <ele>199</ele>
        <time>2021-07-31T06:56:20.000Z</time>
      </trkpt>
      <trkpt lat="49.75136" lon="4.81756">
        <ele>199</ele>
        <time>2021-07-31T06:56:21.000Z</time>
      </trkpt>
      <trkpt lat="49.75134" lon="4.81748">
        <ele>199</ele>
        <time>2021-07-31T06:56:22.000Z</time>
      </trkpt>
      <trkpt lat="49.75132" lon="4.81741">
        <ele>200</ele>
        <time>2021-07-31T06:56:23.000Z</time>
      </trkpt>
      <trkpt lat="49.7513" lon="4.81735">
        <ele>200</ele>
        <time>2021-07-31T06:56:24.000Z</time>
      </trkpt>
      <trkpt lat="49.75127" lon="4.81728">
        <ele>200</ele>
        <time>2021-07-31T06:56:25.000Z</time>
      </trkpt>
      <trkpt lat="49.75125" lon="4.81722">
        <ele>200</ele>
        <time>2021-07-31T06:56:26.000Z</time>
      </trkpt>
      <trkpt lat="49.75123" lon="4.81715">
        <ele>200</ele>
        <time>2021-07-31T06:56:27.000Z</time>
      </trkpt>
      <trkpt lat="49.75121" lon="4.81709">
        <ele>201</ele>
        <time>2021-07-31T06:56:28.000Z</time>
      </trkpt>
      <trkpt lat="49.75118" lon="4.81702">
        <ele>201</ele>
        <time>2021-07-31T06:56:29.000Z</time>
      </trkpt>
      <trkpt lat="49.75116" lon="4.81695">
        <ele>201</ele>
        <time>2021-07-31T06:56:30.000Z</time>
      </trkpt>
      <trkpt lat="49.75115" lon="4.81688">
        <ele>201</ele>
        <time>2021-07-31T06:56:31.000Z</time>
      </trkpt>
      <trkpt lat="49.75114" lon="4.81681">
        <ele>202</ele>
        <time>2021-07-31T06:56:32.000Z</time>
      </trkpt>
      <trkpt lat="49.75113" lon="4.81674">
        <ele>202</ele>
        <time>2021-07-31T06:56:33.000Z</time>
      </trkpt>
      <trkpt lat="49.75112" lon="4.81667">
        <ele>202</ele>
        <time>2021-07-31T06:56:34.000Z</time>
      </trkpt>
      <trkpt lat="49.75112" lon="4.81659">
        <ele>202</ele>
        <time>2021-07-31T06:56:35.000Z</time>
      </trkpt>
      <trkpt lat="49.75112" lon="4.81652">
        <ele>202</ele>
        <time>2021-07-31T06:56:36.000Z</time>
      </trkpt>
      <trkpt lat="49.75111" lon="4.81644">
        <ele>203</ele>
        <time>2021-07-31T06:56:37.000Z</time>
      </trkpt>
      <trkpt lat="49.75111" lon="4.81636">
        <ele>203</ele>
        <time>2021-07-31T06:56:38.000Z</time>
      </trkpt>
      <trkpt lat="49.75111" lon="4.81629">
        <ele>203</ele>
        <time>2021-07-31T06:56:39.000Z</time>
      </trkpt>
      <trkpt lat="49.75111" lon="4.81621">
        <ele>203</ele>
        <time>2021-07-31T06:56:40.000Z</time>
      </trkpt>
      <trkpt lat="49.7511" lon="4.81613">
        <ele>203</ele>
        <time>2021-07-31T06:56:41.000Z</time>
      </trkpt>
      <trkpt lat="49.7511" lon="4.81605">
        <ele>204</ele>
        <time>2021-07-31T06:56:42.000Z</time>
      </trkpt>
      <trkpt lat="49.75111" lon="4.81597">
        <ele>204</ele>
        <time>2021-07-31T06:56:43.000Z</time>
      </trkpt>
      <trkpt lat="49.75111" lon="4.8159">
        <ele>204</ele>
        <time>2021-07-31T06:56:44.000Z</time>
      </trkpt>
      <trkpt lat="49.75111" lon="4.81582">
        <ele>204</ele>
        <time>2021-07-31T06:56:45.000Z</time>
      </trkpt>
      <trkpt lat="49.75111" lon="4.81575">
        <ele>204</ele>
        <time>2021-07-31T06:56:46.000Z</time>
      </trkpt>
      <trkpt lat="49.75112" lon="4.81567">
        <ele>205</ele>
        <time>2021-07-31T06:56:47.000Z</time>
      </trkpt>
      <trkpt lat="49.75112" lon="4.81559">
        <ele>205</ele>
        <time>2021-07-31T06:56:48.000Z</time>
      </trkpt>
      <trkpt lat="49.75113" lon="4.81552">
        <ele>205</ele>
        <time>2021-07-31T06:56:49.000Z</time>
      </trkpt>
      <trkpt lat="49.75115" lon="4.81544">
        <ele>205</ele>
        <time>2021-07-31T06:56:50.000Z</time>
      </trkpt>
      <trkpt lat="49.75116" lon="4.81536">
        <ele>205</ele>
        <time>2021-07-31T06:56:51.000Z</time>
      </trkpt>
      <trkpt lat="49.75117" lon="4.81529">
        <ele>205</ele>
        <time>2021-07-31T06:56:52.000Z</time>
      </trkpt>
      <trkpt lat="49.75119" lon="4.81522">
        <ele>205</ele>
        <time>2021-07-31T06:56:53.000Z</time>
      </trkpt>
      <trkpt lat="49.7512" lon="4.81515">
        <ele>205</ele>
        <time>2021-07-31T06:56:54.000Z</time>
      </trkpt>
      <trkpt lat="49.75122" lon="4.81508">
        <ele>205</ele>
        <time>2021-07-31T06:56:55.000Z</time>
      </trkpt>
      <trkpt lat="49.75123" lon="4.81501">
        <ele>206</ele>
        <time>2021-07-31T06:56:56.000Z</time>
      </trkpt>
      <trkpt lat="49.75125" lon="4.81494">
        <ele>206</ele>
        <time>2021-07-31T06:56:57.000Z</time>
      </trkpt>
      <trkpt lat="49.75127" lon="4.81486">
        <ele>206</ele>
        <time>2021-07-31T06:56:58.000Z</time>
      </trkpt>
      <trkpt lat="49.75129" lon="4.8148">
        <ele>206</ele>
        <time>2021-07-31T06:56:59.000Z</time>
      </trkpt>
      <trkpt lat="49.75131" lon="4.81473">
        <ele>206</ele>
        <time>2021-07-31T06:57:00.000Z</time>
      </trkpt>
      <trkpt lat="49.75132" lon="4.81466">
        <ele>206</ele>
        <time>2021-07-31T06:57:01.000Z</time>
      </trkpt>
      <trkpt lat="49.75134" lon="4.8146">
        <ele>206</ele>
        <time>2021-07-31T06:57:02.000Z</time>
      </trkpt>
      <trkpt lat="49.75135" lon="4.81453">
        <ele>206</ele>
        <time>2021-07-31T06:57:03.000Z</time>
      </trkpt>
      <trkpt lat="49.75136" lon="4.81447">
        <ele>207</ele>
        <time>2021-07-31T06:57:04.000Z</time>
      </trkpt>
      <trkpt lat="49.75137" lon="4.81441">
        <ele>207</ele>
        <time>2021-07-31T06:57:05.000Z</time>
      </trkpt>
      <trkpt lat="49.75138" lon="4.81435">
        <ele>207</ele>
        <time>2021-07-31T06:57:06.000Z</time>
      </trkpt>
      <trkpt lat="49.75138" lon="4.8143">
        <ele>207</ele>
        <time>2021-07-31T06:57:07.000Z</time>
      </trkpt>
      <trkpt lat="49.75139" lon="4.81425">
        <ele>207</ele>
        <time>2021-07-31T06:57:08.000Z</time>
      </trkpt>
      <trkpt lat="49.75139" lon="4.81419">
        <ele>207</ele>
        <time>2021-07-31T06:57:09.000Z</time>
      </trkpt>
      <trkpt lat="49.7514" lon="4.81414">
        <ele>207</ele>
        <time>2021-07-31T06:57:10.000Z</time>
      </trkpt>
      <trkpt lat="49.75141" lon="4.81409">
        <ele>207</ele>
        <time>2021-07-31T06:57:11.000Z</time>
      </trkpt>
      <trkpt lat="49.75142" lon="4.81404">
        <ele>207</ele>
        <time>2021-07-31T06:57:12.000Z</time>
      </trkpt>
      <trkpt lat="49.75142" lon="4.814">
        <ele>207</ele>
        <time>2021-07-31T06:57:13.000Z</time>
      </trkpt>
      <trkpt lat="49.75143" lon="4.81395">
        <ele>207</ele>
        <time>2021-07-31T06:57:14.000Z</time>
      </trkpt>
      <trkpt lat="49.75144" lon="4.8139">
        <ele>208</ele>
        <time>2021-07-31T06:57:15.000Z</time>
      </trkpt>
      <trkpt lat="49.75144" lon="4.81386">
        <ele>208</ele>
        <time>2021-07-31T06:57:16.000Z</time>
      </trkpt>
      <trkpt lat="49.75144" lon="4.81381">
        <ele>208</ele>
        <time>2021-07-31T06:57:17.000Z</time>
      </trkpt>
      <trkpt lat="49.75144" lon="4.81377">
        <ele>208</ele>
        <time>2021-07-31T06:57:18.000Z</time>
      </trkpt>
      <trkpt lat="49.75144" lon="4.81373">
        <ele>208</ele>
        <time>2021-07-31T06:57:19.000Z</time>
      </trkpt>
      <trkpt lat="49.75145" lon="4.81368">
        <ele>208</ele>
        <time>2021-07-31T06:57:20.000Z</time>
      </trkpt>
      <trkpt lat="49.75145" lon="4.81364">
        <ele>209</ele>
        <time>2021-07-31T06:57:21.000Z</time>
      </trkpt>
      <trkpt lat="49.75145" lon="4.81359">
        <ele>209</ele>
        <time>2021-07-31T06:57:22.000Z</time>
      </trkpt>
      <trkpt lat="49.75145" lon="4.81354">
        <ele>209</ele>
        <time>2021-07-31T06:57:23.000Z</time>
      </trkpt>
      <trkpt lat="49.75145" lon="4.8135">
        <ele>209</ele>
        <time>2021-07-31T06:57:24.000Z</time>
      </trkpt>
      <trkpt lat="49.75145" lon="4.81345">
        <ele>209</ele>
        <time>2021-07-31T06:57:25.000Z</time>
      </trkpt>
      <trkpt lat="49.75145" lon="4.81341">
        <ele>209</ele>
        <time>2021-07-31T06:57:26.000Z</time>
      </trkpt>
      <trkpt lat="49.75145" lon="4.81336">
        <ele>210</ele>
        <time>2021-07-31T06:57:27.000Z</time>
      </trkpt>
      <trkpt lat="49.75144" lon="4.81332">
        <ele>210</ele>
        <time>2021-07-31T06:57:28.000Z</time>
      </trkpt>
      <trkpt lat="49.75144" lon="4.81327">
        <ele>210</ele>
        <time>2021-07-31T06:57:29.000Z</time>
      </trkpt>
      <trkpt lat="49.75144" lon="4.81322">
        <ele>210</ele>
        <time>2021-07-31T06:57:30.000Z</time>
      </trkpt>
      <trkpt lat="49.75144" lon="4.81318">
        <ele>210</ele>
        <time>2021-07-31T06:57:31.000Z</time>
      </trkpt>
      <trkpt lat="49.75144" lon="4.81313">
        <ele>210</ele>
        <time>2021-07-31T06:57:32.000Z</time>
      </trkpt>
      <trkpt lat="49.75144" lon="4.81308">
        <ele>210</ele>
        <time>2021-07-31T06:57:33.000Z</time>
      </trkpt>
      <trkpt lat="49.75143" lon="4.81304">
        <ele>211</ele>
        <time>2021-07-31T06:57:34.000Z</time>
      </trkpt>
      <trkpt lat="49.75143" lon="4.81299">
        <ele>211</ele>
        <time>2021-07-31T06:57:35.000Z</time>
      </trkpt>
      <trkpt lat="49.75142" lon="4.81294">
        <ele>211</ele>
        <time>2021-07-31T06:57:36.000Z</time>
      </trkpt>
      <trkpt lat="49.75141" lon="4.8129">
        <ele>212</ele>
        <time>2021-07-31T06:57:37.000Z</time>
      </trkpt>
      <trkpt lat="49.7514" lon="4.81285">
        <ele>212</ele>
        <time>2021-07-31T06:57:38.000Z</time>
      </trkpt>
      <trkpt lat="49.75139" lon="4.81281">
        <ele>212</ele>
        <time>2021-07-31T06:57:39.000Z</time>
      </trkpt>
      <trkpt lat="49.75138" lon="4.81276">
        <ele>212</ele>
        <time>2021-07-31T06:57:40.000Z</time>
      </trkpt>
      <trkpt lat="49.75138" lon="4.81271">
        <ele>212</ele>
        <time>2021-07-31T06:57:41.000Z</time>
      </trkpt>
      <trkpt lat="49.75137" lon="4.81267">
        <ele>212</ele>
        <time>2021-07-31T06:57:42.000Z</time>
      </trkpt>
      <trkpt lat="49.75136" lon="4.81263">
        <ele>213</ele>
        <time>2021-07-31T06:57:43.000Z</time>
      </trkpt>
      <trkpt lat="49.75135" lon="4.81258">
        <ele>213</ele>
        <time>2021-07-31T06:57:44.000Z</time>
      </trkpt>
      <trkpt lat="49.75134" lon="4.81254">
        <ele>213</ele>
        <time>2021-07-31T06:57:45.000Z</time>
      </trkpt>
      <trkpt lat="49.75133" lon="4.8125">
        <ele>213</ele>
        <time>2021-07-31T06:57:46.000Z</time>
      </trkpt>
      <trkpt lat="49.75132" lon="4.81246">
        <ele>213</ele>
        <time>2021-07-31T06:57:47.000Z</time>
      </trkpt>
      <trkpt lat="49.75131" lon="4.81242">
        <ele>214</ele>
        <time>2021-07-31T06:57:48.000Z</time>
      </trkpt>
      <trkpt lat="49.75129" lon="4.81237">
        <ele>214</ele>
        <time>2021-07-31T06:57:49.000Z</time>
      </trkpt>
      <trkpt lat="49.75128" lon="4.81233">
        <ele>214</ele>
        <time>2021-07-31T06:57:50.000Z</time>
      </trkpt>
      <trkpt lat="49.75127" lon="4.81229">
        <ele>214</ele>
        <time>2021-07-31T06:57:51.000Z</time>
      </trkpt>
      <trkpt lat="49.75126" lon="4.81226">
        <ele>214</ele>
        <time>2021-07-31T06:57:52.000Z</time>
      </trkpt>
      <trkpt lat="49.75125" lon="4.81223">
        <ele>214</ele>
        <time>2021-07-31T06:57:53.000Z</time>
      </trkpt>
      <trkpt lat="49.75125" lon="4.8122">
        <ele>214</ele>
        <time>2021-07-31T06:57:54.000Z</time>
      </trkpt>
      <trkpt lat="49.75124" lon="4.81217">
        <ele>214</ele>
        <time>2021-07-31T06:57:55.000Z</time>
      </trkpt>
      <trkpt lat="49.75124" lon="4.81213">
        <ele>214</ele>
        <time>2021-07-31T06:57:56.000Z</time>
      </trkpt>
      <trkpt lat="49.75124" lon="4.8121">
        <ele>214</ele>
        <time>2021-07-31T06:57:57.000Z</time>
      </trkpt>
      <trkpt lat="49.75123" lon="4.81206">
        <ele>214</ele>
        <time>2021-07-31T06:57:58.000Z</time>
      </trkpt>
      <trkpt lat="49.75123" lon="4.81203">
        <ele>215</ele>
        <time>2021-07-31T06:57:59.000Z</time>
      </trkpt>
      <trkpt lat="49.75123" lon="4.81199">
        <ele>215</ele>
        <time>2021-07-31T06:58:00.000Z</time>
      </trkpt>
      <trkpt lat="49.75123" lon="4.81195">
        <ele>215</ele>
        <time>2021-07-31T06:58:01.000Z</time>
      </trkpt>
      <trkpt lat="49.75123" lon="4.8119">
        <ele>215</ele>
        <time>2021-07-31T06:58:02.000Z</time>
      </trkpt>
      <trkpt lat="49.75122" lon="4.81186">
        <ele>215</ele>
        <time>2021-07-31T06:58:03.000Z</time>
      </trkpt>
      <trkpt lat="49.75122" lon="4.81181">
        <ele>215</ele>
        <time>2021-07-31T06:58:04.000Z</time>
      </trkpt>
      <trkpt lat="49.75121" lon="4.81177">
        <ele>215</ele>
        <time>2021-07-31T06:58:05.000Z</time>
      </trkpt>
      <trkpt lat="49.75121" lon="4.81173">
        <ele>215</ele>
        <time>2021-07-31T06:58:06.000Z</time>
      </trkpt>
      <trkpt lat="49.75121" lon="4.81169">
        <ele>216</ele>
        <time>2021-07-31T06:58:07.000Z</time>
      </trkpt>
      <trkpt lat="49.7512" lon="4.81165">
        <ele>216</ele>
        <time>2021-07-31T06:58:08.000Z</time>
      </trkpt>
      <trkpt lat="49.75119" lon="4.8116">
        <ele>216</ele>
        <time>2021-07-31T06:58:09.000Z</time>
      </trkpt>
      <trkpt lat="49.75118" lon="4.81155">
        <ele>216</ele>
        <time>2021-07-31T06:58:10.000Z</time>
      </trkpt>
      <trkpt lat="49.75116" lon="4.8115">
        <ele>217</ele>
        <time>2021-07-31T06:58:11.000Z</time>
      </trkpt>
      <trkpt lat="49.75115" lon="4.81145">
        <ele>217</ele>
        <time>2021-07-31T06:58:12.000Z</time>
      </trkpt>
      <trkpt lat="49.75114" lon="4.8114">
        <ele>217</ele>
        <time>2021-07-31T06:58:13.000Z</time>
      </trkpt>
      <trkpt lat="49.75112" lon="4.81135">
        <ele>217</ele>
        <time>2021-07-31T06:58:14.000Z</time>
      </trkpt>
      <trkpt lat="49.75111" lon="4.8113">
        <ele>218</ele>
        <time>2021-07-31T06:58:15.000Z</time>
      </trkpt>
      <trkpt lat="49.75109" lon="4.81125">
        <ele>218</ele>
        <time>2021-07-31T06:58:16.000Z</time>
      </trkpt>
      <trkpt lat="49.75107" lon="4.8112">
        <ele>218</ele>
        <time>2021-07-31T06:58:17.000Z</time>
      </trkpt>
      <trkpt lat="49.75106" lon="4.81114">
        <ele>218</ele>
        <time>2021-07-31T06:58:18.000Z</time>
      </trkpt>
      <trkpt lat="49.75104" lon="4.81108">
        <ele>218</ele>
        <time>2021-07-31T06:58:19.000Z</time>
      </trkpt>
      <trkpt lat="49.75103" lon="4.81103">
        <ele>218</ele>
        <time>2021-07-31T06:58:20.000Z</time>
      </trkpt>
      <trkpt lat="49.75101" lon="4.81097">
        <ele>219</ele>
        <time>2021-07-31T06:58:21.000Z</time>
      </trkpt>
      <trkpt lat="49.751" lon="4.81092">
        <ele>219</ele>
        <time>2021-07-31T06:58:22.000Z</time>
      </trkpt>
      <trkpt lat="49.75098" lon="4.81087">
        <ele>219</ele>
        <time>2021-07-31T06:58:23.000Z</time>
      </trkpt>
      <trkpt lat="49.75097" lon="4.81082">
        <ele>219</ele>
        <time>2021-07-31T06:58:24.000Z</time>
      </trkpt>
      <trkpt lat="49.75095" lon="4.81076">
        <ele>219</ele>
        <time>2021-07-31T06:58:25.000Z</time>
      </trkpt>
      <trkpt lat="49.75094" lon="4.81071">
        <ele>219</ele>
        <time>2021-07-31T06:58:26.000Z</time>
      </trkpt>
      <trkpt lat="49.75092" lon="4.81065">
        <ele>219</ele>
        <time>2021-07-31T06:58:27.000Z</time>
      </trkpt>
      <trkpt lat="49.75091" lon="4.81059">
        <ele>219</ele>
        <time>2021-07-31T06:58:28.000Z</time>
      </trkpt>
      <trkpt lat="49.7509" lon="4.81053">
        <ele>219</ele>
        <time>2021-07-31T06:58:29.000Z</time>
      </trkpt>
      <trkpt lat="49.75088" lon="4.81047">
        <ele>219</ele>
        <time>2021-07-31T06:58:30.000Z</time>
      </trkpt>
      <trkpt lat="49.75087" lon="4.8104">
        <ele>219</ele>
        <time>2021-07-31T06:58:31.000Z</time>
      </trkpt>
      <trkpt lat="49.75085" lon="4.81034">
        <ele>220</ele>
        <time>2021-07-31T06:58:32.000Z</time>
      </trkpt>
      <trkpt lat="49.75083" lon="4.81028">
        <ele>220</ele>
        <time>2021-07-31T06:58:33.000Z</time>
      </trkpt>
      <trkpt lat="49.75081" lon="4.81021">
        <ele>220</ele>
        <time>2021-07-31T06:58:34.000Z</time>
      </trkpt>
      <trkpt lat="49.75079" lon="4.81015">
        <ele>220</ele>
        <time>2021-07-31T06:58:35.000Z</time>
      </trkpt>
      <trkpt lat="49.75077" lon="4.81009">
        <ele>220</ele>
        <time>2021-07-31T06:58:36.000Z</time>
      </trkpt>
      <trkpt lat="49.75075" lon="4.81002">
        <ele>220</ele>
        <time>2021-07-31T06:58:37.000Z</time>
      </trkpt>
      <trkpt lat="49.75074" lon="4.80996">
        <ele>220</ele>
        <time>2021-07-31T06:58:38.000Z</time>
      </trkpt>
      <trkpt lat="49.75073" lon="4.8099">
        <ele>220</ele>
        <time>2021-07-31T06:58:39.000Z</time>
      </trkpt>
      <trkpt lat="49.75073" lon="4.80984">
        <ele>221</ele>
        <time>2021-07-31T06:58:40.000Z</time>
      </trkpt>
      <trkpt lat="49.75071" lon="4.80977">
        <ele>221</ele>
        <time>2021-07-31T06:58:41.000Z</time>
      </trkpt>
      <trkpt lat="49.7507" lon="4.8097">
        <ele>221</ele>
        <time>2021-07-31T06:58:42.000Z</time>
      </trkpt>
      <trkpt lat="49.75069" lon="4.80962">
        <ele>221</ele>
        <time>2021-07-31T06:58:43.000Z</time>
      </trkpt>
      <trkpt lat="49.75067" lon="4.80954">
        <ele>221</ele>
        <time>2021-07-31T06:58:44.000Z</time>
      </trkpt>
      <trkpt lat="49.75066" lon="4.80945">
        <ele>221</ele>
        <time>2021-07-31T06:58:45.000Z</time>
      </trkpt>
      <trkpt lat="49.75064" lon="4.80936">
        <ele>221</ele>
        <time>2021-07-31T06:58:46.000Z</time>
      </trkpt>
      <trkpt lat="49.75062" lon="4.80925">
        <ele>221</ele>
        <time>2021-07-31T06:58:47.000Z</time>
      </trkpt>
      <trkpt lat="49.75061" lon="4.80914">
        <ele>221</ele>
        <time>2021-07-31T06:58:48.000Z</time>
      </trkpt>
      <trkpt lat="49.7506" lon="4.80903">
        <ele>221</ele>
        <time>2021-07-31T06:58:49.000Z</time>
      </trkpt>
      <trkpt lat="49.7506" lon="4.80891">
        <ele>221</ele>
        <time>2021-07-31T06:58:50.000Z</time>
      </trkpt>
      <trkpt lat="49.7506" lon="4.80878">
        <ele>221</ele>
        <time>2021-07-31T06:58:51.000Z</time>
      </trkpt>
      <trkpt lat="49.7506" lon="4.80865">
        <ele>221</ele>
        <time>2021-07-31T06:58:52.000Z</time>
      </trkpt>
      <trkpt lat="49.75061" lon="4.8085">
        <ele>220</ele>
        <time>2021-07-31T06:58:53.000Z</time>
      </trkpt>
      <trkpt lat="49.75063" lon="4.80835">
        <ele>220</ele>
        <time>2021-07-31T06:58:54.000Z</time>
      </trkpt>
      <trkpt lat="49.75066" lon="4.80818">
        <ele>220</ele>
        <time>2021-07-31T06:58:55.000Z</time>
      </trkpt>
      <trkpt lat="49.75068" lon="4.808">
        <ele>220</ele>
        <time>2021-07-31T06:58:56.000Z</time>
      </trkpt>
      <trkpt lat="49.75071" lon="4.80783">
        <ele>219</ele>
        <time>2021-07-31T06:58:57.000Z</time>
      </trkpt>
      <trkpt lat="49.75075" lon="4.80765">
        <ele>219</ele>
        <time>2021-07-31T06:58:58.000Z</time>
      </trkpt>
      <trkpt lat="49.7508" lon="4.80749">
        <ele>218</ele>
        <time>2021-07-31T06:58:59.000Z</time>
      </trkpt>
      <trkpt lat="49.75086" lon="4.80735">
        <ele>218</ele>
        <time>2021-07-31T06:59:00.000Z</time>
      </trkpt>
      <trkpt lat="49.75095" lon="4.80725">
        <ele>217</ele>
        <time>2021-07-31T06:59:01.000Z</time>
      </trkpt>
      <trkpt lat="49.75104" lon="4.80717">
        <ele>216</ele>
        <time>2021-07-31T06:59:02.000Z</time>
      </trkpt>
      <trkpt lat="49.75114" lon="4.8071">
        <ele>216</ele>
        <time>2021-07-31T06:59:03.000Z</time>
      </trkpt>
      <trkpt lat="49.75123" lon="4.80704">
        <ele>215</ele>
        <time>2021-07-31T06:59:04.000Z</time>
      </trkpt>
      <trkpt lat="49.75131" lon="4.807">
        <ele>215</ele>
        <time>2021-07-31T06:59:05.000Z</time>
      </trkpt>
      <trkpt lat="49.75139" lon="4.80699">
        <ele>214</ele>
        <time>2021-07-31T06:59:06.000Z</time>
      </trkpt>
      <trkpt lat="49.75147" lon="4.80699">
        <ele>214</ele>
        <time>2021-07-31T06:59:07.000Z</time>
      </trkpt>
      <trkpt lat="49.75155" lon="4.80698">
        <ele>213</ele>
        <time>2021-07-31T06:59:08.000Z</time>
      </trkpt>
      <trkpt lat="49.75163" lon="4.80697">
        <ele>213</ele>
        <time>2021-07-31T06:59:09.000Z</time>
      </trkpt>
      <trkpt lat="49.7517" lon="4.80696">
        <ele>212</ele>
        <time>2021-07-31T06:59:10.000Z</time>
      </trkpt>
      <trkpt lat="49.75178" lon="4.80695">
        <ele>212</ele>
        <time>2021-07-31T06:59:11.000Z</time>
      </trkpt>
      <trkpt lat="49.75185" lon="4.80695">
        <ele>211</ele>
        <time>2021-07-31T06:59:12.000Z</time>
      </trkpt>
      <trkpt lat="49.75192" lon="4.80694">
        <ele>211</ele>
        <time>2021-07-31T06:59:13.000Z</time>
      </trkpt>
      <trkpt lat="49.752" lon="4.80693">
        <ele>211</ele>
        <time>2021-07-31T06:59:14.000Z</time>
      </trkpt>
      <trkpt lat="49.75207" lon="4.80693">
        <ele>211</ele>
        <time>2021-07-31T06:59:15.000Z</time>
      </trkpt>
      <trkpt lat="49.75214" lon="4.80693">
        <ele>210</ele>
        <time>2021-07-31T06:59:16.000Z</time>
      </trkpt>
      <trkpt lat="49.7522" lon="4.80693">
        <ele>210</ele>
        <time>2021-07-31T06:59:17.000Z</time>
      </trkpt>
      <trkpt lat="49.75227" lon="4.80693">
        <ele>210</ele>
        <time>2021-07-31T06:59:18.000Z</time>
      </trkpt>
      <trkpt lat="49.75233" lon="4.80695">
        <ele>210</ele>
        <time>2021-07-31T06:59:19.000Z</time>
      </trkpt>
      <trkpt lat="49.75238" lon="4.80697">
        <ele>209</ele>
        <time>2021-07-31T06:59:20.000Z</time>
      </trkpt>
      <trkpt lat="49.75244" lon="4.80698">
        <ele>209</ele>
        <time>2021-07-31T06:59:21.000Z</time>
      </trkpt>
      <trkpt lat="49.75249" lon="4.80699">
        <ele>209</ele>
        <time>2021-07-31T06:59:22.000Z</time>
      </trkpt>
      <trkpt lat="49.75255" lon="4.80699">
        <ele>209</ele>
        <time>2021-07-31T06:59:23.000Z</time>
      </trkpt>
      <trkpt lat="49.7526" lon="4.80698">
        <ele>208</ele>
        <time>2021-07-31T06:59:24.000Z</time>
      </trkpt>
      <trkpt lat="49.75264" lon="4.80697">
        <ele>208</ele>
        <time>2021-07-31T06:59:25.000Z</time>
      </trkpt>
      <trkpt lat="49.75267" lon="4.80694">
        <ele>208</ele>
        <time>2021-07-31T06:59:26.000Z</time>
      </trkpt>
      <trkpt lat="49.75271" lon="4.80692">
        <ele>208</ele>
        <time>2021-07-31T06:59:27.000Z</time>
      </trkpt>
      <trkpt lat="49.75274" lon="4.8069">
        <ele>208</ele>
        <time>2021-07-31T06:59:28.000Z</time>
      </trkpt>
      <trkpt lat="49.75278" lon="4.80687">
        <ele>208</ele>
        <time>2021-07-31T06:59:29.000Z</time>
      </trkpt>
      <trkpt lat="49.75282" lon="4.80686">
        <ele>208</ele>
        <time>2021-07-31T06:59:30.000Z</time>
      </trkpt>
      <trkpt lat="49.75285" lon="4.80683">
        <ele>208</ele>
        <time>2021-07-31T06:59:31.000Z</time>
      </trkpt>
      <trkpt lat="49.75288" lon="4.80681">
        <ele>208</ele>
        <time>2021-07-31T06:59:32.000Z</time>
      </trkpt>
      <trkpt lat="49.75291" lon="4.80679">
        <ele>208</ele>
        <time>2021-07-31T06:59:33.000Z</time>
      </trkpt>
      <trkpt lat="49.75293" lon="4.80677">
        <ele>208</ele>
        <time>2021-07-31T06:59:34.000Z</time>
      </trkpt>
      <trkpt lat="49.75296" lon="4.80676">
        <ele>208</ele>
        <time>2021-07-31T06:59:35.000Z</time>
      </trkpt>
      <trkpt lat="49.75298" lon="4.80675">
        <ele>208</ele>
        <time>2021-07-31T06:59:36.000Z</time>
      </trkpt>
      <trkpt lat="49.75302" lon="4.80674">
        <ele>208</ele>
        <time>2021-07-31T06:59:37.000Z</time>
      </trkpt>
      <trkpt lat="49.75305" lon="4.80674">
        <ele>208</ele>
        <time>2021-07-31T06:59:38.000Z</time>
      </trkpt>
      <trkpt lat="49.75308" lon="4.80673">
        <ele>208</ele>
        <time>2021-07-31T06:59:39.000Z</time>
      </trkpt>
      <trkpt lat="49.75311" lon="4.80671">
        <ele>208</ele>
        <time>2021-07-31T06:59:40.000Z</time>
      </trkpt>
      <trkpt lat="49.75314" lon="4.80671">
        <ele>208</ele>
        <time>2021-07-31T06:59:41.000Z</time>
      </trkpt>
      <trkpt lat="49.75317" lon="4.8067">
        <ele>208</ele>
        <time>2021-07-31T06:59:42.000Z</time>
      </trkpt>
      <trkpt lat="49.7532" lon="4.80669">
        <ele>208</ele>
        <time>2021-07-31T06:59:43.000Z</time>
      </trkpt>
      <trkpt lat="49.75322" lon="4.80668">
        <ele>207</ele>
        <time>2021-07-31T06:59:44.000Z</time>
      </trkpt>
      <trkpt lat="49.75325" lon="4.80668">
        <ele>207</ele>
        <time>2021-07-31T06:59:45.000Z</time>
      </trkpt>
      <trkpt lat="49.75328" lon="4.80669">
        <ele>207</ele>
        <time>2021-07-31T06:59:46.000Z</time>
      </trkpt>
      <trkpt lat="49.75331" lon="4.80669">
        <ele>207</ele>
        <time>2021-07-31T06:59:47.000Z</time>
      </trkpt>
      <trkpt lat="49.75335" lon="4.8067">
        <ele>207</ele>
        <time>2021-07-31T06:59:48.000Z</time>
      </trkpt>
      <trkpt lat="49.75338" lon="4.8067">
        <ele>207</ele>
        <time>2021-07-31T06:59:49.000Z</time>
      </trkpt>
      <trkpt lat="49.75341" lon="4.80671">
        <ele>207</ele>
        <time>2021-07-31T06:59:50.000Z</time>
      </trkpt>
      <trkpt lat="49.75344" lon="4.80673">
        <ele>207</ele>
        <time>2021-07-31T06:59:51.000Z</time>
      </trkpt>
      <trkpt lat="49.75348" lon="4.80675">
        <ele>208</ele>
        <time>2021-07-31T06:59:52.000Z</time>
      </trkpt>
      <trkpt lat="49.75351" lon="4.80676">
        <ele>208</ele>
        <time>2021-07-31T06:59:53.000Z</time>
      </trkpt>
      <trkpt lat="49.75353" lon="4.80676">
        <ele>208</ele>
        <time>2021-07-31T06:59:54.000Z</time>
      </trkpt>
      <trkpt lat="49.75356" lon="4.80677">
        <ele>208</ele>
        <time>2021-07-31T06:59:55.000Z</time>
      </trkpt>
      <trkpt lat="49.75359" lon="4.80678">
        <ele>208</ele>
        <time>2021-07-31T06:59:56.000Z</time>
      </trkpt>
      <trkpt lat="49.75363" lon="4.80679">
        <ele>208</ele>
        <time>2021-07-31T06:59:57.000Z</time>
      </trkpt>
      <trkpt lat="49.75366" lon="4.80681">
        <ele>208</ele>
        <time>2021-07-31T06:59:58.000Z</time>
      </trkpt>
      <trkpt lat="49.75368" lon="4.80682">
        <ele>208</ele>
        <time>2021-07-31T06:59:59.000Z</time>
      </trkpt>
      <trkpt lat="49.75371" lon="4.80684">
        <ele>208</ele>
        <time>2021-07-31T07:00:00.000Z</time>
      </trkpt>
      <trkpt lat="49.75374" lon="4.80685">
        <ele>208</ele>
        <time>2021-07-31T07:00:01.000Z</time>
      </trkpt>
      <trkpt lat="49.75377" lon="4.80686">
        <ele>208</ele>
        <time>2021-07-31T07:00:02.000Z</time>
      </trkpt>
      <trkpt lat="49.75381" lon="4.80687">
        <ele>208</ele>
        <time>2021-07-31T07:00:03.000Z</time>
      </trkpt>
      <trkpt lat="49.75383" lon="4.80688">
        <ele>209</ele>
        <time>2021-07-31T07:00:04.000Z</time>
      </trkpt>
      <trkpt lat="49.75385" lon="4.80688">
        <ele>209</ele>
        <time>2021-07-31T07:00:05.000Z</time>
      </trkpt>
      <trkpt lat="49.75387" lon="4.80689">
        <ele>209</ele>
        <time>2021-07-31T07:00:06.000Z</time>
      </trkpt>
      <trkpt lat="49.75388" lon="4.80689">
        <ele>209</ele>
        <time>2021-07-31T07:00:07.000Z</time>
      </trkpt>
      <trkpt lat="49.75391" lon="4.8069">
        <ele>210</ele>
        <time>2021-07-31T07:00:08.000Z</time>
      </trkpt>
      <trkpt lat="49.75393" lon="4.80691">
        <ele>210</ele>
        <time>2021-07-31T07:00:09.000Z</time>
      </trkpt>
      <trkpt lat="49.75395" lon="4.80693">
        <ele>210</ele>
        <time>2021-07-31T07:00:10.000Z</time>
      </trkpt>
      <trkpt lat="49.75398" lon="4.80694">
        <ele>211</ele>
        <time>2021-07-31T07:00:11.000Z</time>
      </trkpt>
      <trkpt lat="49.754" lon="4.80695">
        <ele>211</ele>
        <time>2021-07-31T07:00:12.000Z</time>
      </trkpt>
      <trkpt lat="49.75403" lon="4.80695">
        <ele>211</ele>
        <time>2021-07-31T07:00:13.000Z</time>
      </trkpt>
      <trkpt lat="49.75406" lon="4.80696">
        <ele>211</ele>
        <time>2021-07-31T07:00:14.000Z</time>
      </trkpt>
      <trkpt lat="49.75409" lon="4.80697">
        <ele>212</ele>
        <time>2021-07-31T07:00:15.000Z</time>
      </trkpt>
      <trkpt lat="49.75411" lon="4.80698">
        <ele>212</ele>
        <time>2021-07-31T07:00:16.000Z</time>
      </trkpt>
      <trkpt lat="49.75414" lon="4.80699">
        <ele>212</ele>
        <time>2021-07-31T07:00:17.000Z</time>
      </trkpt>
      <trkpt lat="49.75418" lon="4.807">
        <ele>212</ele>
        <time>2021-07-31T07:00:18.000Z</time>
      </trkpt>
      <trkpt lat="49.75421" lon="4.80701">
        <ele>212</ele>
        <time>2021-07-31T07:00:19.000Z</time>
      </trkpt>
      <trkpt lat="49.75424" lon="4.80702">
        <ele>213</ele>
        <time>2021-07-31T07:00:20.000Z</time>
      </trkpt>
      <trkpt lat="49.75427" lon="4.80705">
        <ele>213</ele>
        <time>2021-07-31T07:00:21.000Z</time>
      </trkpt>
      <trkpt lat="49.7543" lon="4.80707">
        <ele>213</ele>
        <time>2021-07-31T07:00:22.000Z</time>
      </trkpt>
      <trkpt lat="49.75433" lon="4.80709">
        <ele>213</ele>
        <time>2021-07-31T07:00:23.000Z</time>
      </trkpt>
      <trkpt lat="49.75436" lon="4.80711">
        <ele>214</ele>
        <time>2021-07-31T07:00:24.000Z</time>
      </trkpt>
      <trkpt lat="49.75439" lon="4.80714">
        <ele>214</ele>
        <time>2021-07-31T07:00:25.000Z</time>
      </trkpt>
      <trkpt lat="49.75442" lon="4.80716">
        <ele>214</ele>
        <time>2021-07-31T07:00:26.000Z</time>
      </trkpt>
      <trkpt lat="49.75445" lon="4.80719">
        <ele>214</ele>
        <time>2021-07-31T07:00:27.000Z</time>
      </trkpt>
      <trkpt lat="49.75448" lon="4.8072">
        <ele>214</ele>
        <time>2021-07-31T07:00:28.000Z</time>
      </trkpt>
      <trkpt lat="49.75451" lon="4.80722">
        <ele>214</ele>
        <time>2021-07-31T07:00:29.000Z</time>
      </trkpt>
      <trkpt lat="49.75453" lon="4.80724">
        <ele>214</ele>
        <time>2021-07-31T07:00:30.000Z</time>
      </trkpt>
      <trkpt lat="49.75456" lon="4.80726">
        <ele>214</ele>
        <time>2021-07-31T07:00:31.000Z</time>
      </trkpt>
      <trkpt lat="49.75458" lon="4.80728">
        <ele>214</ele>
        <time>2021-07-31T07:00:32.000Z</time>
      </trkpt>
      <trkpt lat="49.75461" lon="4.8073">
        <ele>214</ele>
        <time>2021-07-31T07:00:33.000Z</time>
      </trkpt>
      <trkpt lat="49.75464" lon="4.80732">
        <ele>214</ele>
        <time>2021-07-31T07:00:34.000Z</time>
      </trkpt>
      <trkpt lat="49.75467" lon="4.80734">
        <ele>214</ele>
        <time>2021-07-31T07:00:35.000Z</time>
      </trkpt>
      <trkpt lat="49.7547" lon="4.80736">
        <ele>214</ele>
        <time>2021-07-31T07:00:36.000Z</time>
      </trkpt>
      <trkpt lat="49.75473" lon="4.80738">
        <ele>214</ele>
        <time>2021-07-31T07:00:37.000Z</time>
      </trkpt>
      <trkpt lat="49.75476" lon="4.80741">
        <ele>214</ele>
        <time>2021-07-31T07:00:38.000Z</time>
      </trkpt>
      <trkpt lat="49.75478" lon="4.80744">
        <ele>214</ele>
        <time>2021-07-31T07:00:39.000Z</time>
      </trkpt>
      <trkpt lat="49.75481" lon="4.80747">
        <ele>214</ele>
        <time>2021-07-31T07:00:40.000Z</time>
      </trkpt>
      <trkpt lat="49.75484" lon="4.80751">
        <ele>214</ele>
        <time>2021-07-31T07:00:41.000Z</time>
      </trkpt>
      <trkpt lat="49.75487" lon="4.80753">
        <ele>214</ele>
        <time>2021-07-31T07:00:42.000Z</time>
      </trkpt>
      <trkpt lat="49.7549" lon="4.80757">
        <ele>214</ele>
        <time>2021-07-31T07:00:43.000Z</time>
      </trkpt>
      <trkpt lat="49.75493" lon="4.80759">
        <ele>214</ele>
        <time>2021-07-31T07:00:44.000Z</time>
      </trkpt>
      <trkpt lat="49.75495" lon="4.80761">
        <ele>214</ele>
        <time>2021-07-31T07:00:45.000Z</time>
      </trkpt>
      <trkpt lat="49.75498" lon="4.80764">
        <ele>214</ele>
        <time>2021-07-31T07:00:46.000Z</time>
      </trkpt>
      <trkpt lat="49.75501" lon="4.80766">
        <ele>215</ele>
        <time>2021-07-31T07:00:47.000Z</time>
      </trkpt>
      <trkpt lat="49.75503" lon="4.80767">
        <ele>215</ele>
        <time>2021-07-31T07:00:48.000Z</time>
      </trkpt>
      <trkpt lat="49.75505" lon="4.80769">
        <ele>215</ele>
        <time>2021-07-31T07:00:49.000Z</time>
      </trkpt>
      <trkpt lat="49.75508" lon="4.80771">
        <ele>215</ele>
        <time>2021-07-31T07:00:50.000Z</time>
      </trkpt>
      <trkpt lat="49.75512" lon="4.80773">
        <ele>215</ele>
        <time>2021-07-31T07:00:51.000Z</time>
      </trkpt>
      <trkpt lat="49.75515" lon="4.80775">
        <ele>216</ele>
        <time>2021-07-31T07:00:52.000Z</time>
      </trkpt>
      <trkpt lat="49.75518" lon="4.80777">
        <ele>216</ele>
        <time>2021-07-31T07:00:53.000Z</time>
      </trkpt>
      <trkpt lat="49.7552" lon="4.80779">
        <ele>216</ele>
        <time>2021-07-31T07:00:54.000Z</time>
      </trkpt>
      <trkpt lat="49.75523" lon="4.80781">
        <ele>216</ele>
        <time>2021-07-31T07:00:55.000Z</time>
      </trkpt>
      <trkpt lat="49.75525" lon="4.80784">
        <ele>216</ele>
        <time>2021-07-31T07:00:56.000Z</time>
      </trkpt>
      <trkpt lat="49.75528" lon="4.80787">
        <ele>217</ele>
        <time>2021-07-31T07:00:57.000Z</time>
      </trkpt>
      <trkpt lat="49.7553" lon="4.80791">
        <ele>217</ele>
        <time>2021-07-31T07:00:58.000Z</time>
      </trkpt>
      <trkpt lat="49.75532" lon="4.80794">
        <ele>217</ele>
        <time>2021-07-31T07:00:59.000Z</time>
      </trkpt>
      <trkpt lat="49.75535" lon="4.80797">
        <ele>217</ele>
        <time>2021-07-31T07:01:00.000Z</time>
      </trkpt>
      <trkpt lat="49.75537" lon="4.80801">
        <ele>218</ele>
        <time>2021-07-31T07:01:01.000Z</time>
      </trkpt>
      <trkpt lat="49.75539" lon="4.80804">
        <ele>218</ele>
        <time>2021-07-31T07:01:02.000Z</time>
      </trkpt>
      <trkpt lat="49.75542" lon="4.80807">
        <ele>218</ele>
        <time>2021-07-31T07:01:03.000Z</time>
      </trkpt>
      <trkpt lat="49.75545" lon="4.80809">
        <ele>218</ele>
        <time>2021-07-31T07:01:04.000Z</time>
      </trkpt>
      <trkpt lat="49.75548" lon="4.80811">
        <ele>219</ele>
        <time>2021-07-31T07:01:05.000Z</time>
      </trkpt>
      <trkpt lat="49.75552" lon="4.80814">
        <ele>219</ele>
        <time>2021-07-31T07:01:06.000Z</time>
      </trkpt>
      <trkpt lat="49.75554" lon="4.80816">
        <ele>219</ele>
        <time>2021-07-31T07:01:07.000Z</time>
      </trkpt>
      <trkpt lat="49.75556" lon="4.80819">
        <ele>219</ele>
        <time>2021-07-31T07:01:08.000Z</time>
      </trkpt>
      <trkpt lat="49.75558" lon="4.80822">
        <ele>220</ele>
        <time>2021-07-31T07:01:09.000Z</time>
      </trkpt>
      <trkpt lat="49.75561" lon="4.80824">
        <ele>220</ele>
        <time>2021-07-31T07:01:10.000Z</time>
      </trkpt>
      <trkpt lat="49.75563" lon="4.80825">
        <ele>220</ele>
        <time>2021-07-31T07:01:11.000Z</time>
      </trkpt>
      <trkpt lat="49.75566" lon="4.80827">
        <ele>220</ele>
        <time>2021-07-31T07:01:12.000Z</time>
      </trkpt>
      <trkpt lat="49.75569" lon="4.80829">
        <ele>221</ele>
        <time>2021-07-31T07:01:13.000Z</time>
      </trkpt>
      <trkpt lat="49.75572" lon="4.80831">
        <ele>221</ele>
        <time>2021-07-31T07:01:14.000Z</time>
      </trkpt>
      <trkpt lat="49.75575" lon="4.80832">
        <ele>221</ele>
        <time>2021-07-31T07:01:15.000Z</time>
      </trkpt>
      <trkpt lat="49.75579" lon="4.80832">
        <ele>221</ele>
        <time>2021-07-31T07:01:16.000Z</time>
      </trkpt>
      <trkpt lat="49.75582" lon="4.80833">
        <ele>222</ele>
        <time>2021-07-31T07:01:17.000Z</time>
      </trkpt>
      <trkpt lat="49.75586" lon="4.80834">
        <ele>222</ele>
        <time>2021-07-31T07:01:18.000Z</time>
      </trkpt>
      <trkpt lat="49.75589" lon="4.80836">
        <ele>222</ele>
        <time>2021-07-31T07:01:19.000Z</time>
      </trkpt>
      <trkpt lat="49.75592" lon="4.80837">
        <ele>223</ele>
        <time>2021-07-31T07:01:20.000Z</time>
      </trkpt>
      <trkpt lat="49.75596" lon="4.80838">
        <ele>223</ele>
        <time>2021-07-31T07:01:21.000Z</time>
      </trkpt>
      <trkpt lat="49.75599" lon="4.8084">
        <ele>223</ele>
        <time>2021-07-31T07:01:22.000Z</time>
      </trkpt>
      <trkpt lat="49.75602" lon="4.80842">
        <ele>224</ele>
        <time>2021-07-31T07:01:23.000Z</time>
      </trkpt>
      <trkpt lat="49.75606" lon="4.80843">
        <ele>224</ele>
        <time>2021-07-31T07:01:24.000Z</time>
      </trkpt>
      <trkpt lat="49.75609" lon="4.80844">
        <ele>224</ele>
        <time>2021-07-31T07:01:25.000Z</time>
      </trkpt>
      <trkpt lat="49.75612" lon="4.80844">
        <ele>225</ele>
        <time>2021-07-31T07:01:26.000Z</time>
      </trkpt>
      <trkpt lat="49.75615" lon="4.80845">
        <ele>225</ele>
        <time>2021-07-31T07:01:27.000Z</time>
      </trkpt>
      <trkpt lat="49.75617" lon="4.80846">
        <ele>225</ele>
        <time>2021-07-31T07:01:28.000Z</time>
      </trkpt>
      <trkpt lat="49.7562" lon="4.80848">
        <ele>226</ele>
        <time>2021-07-31T07:01:29.000Z</time>
      </trkpt>
      <trkpt lat="49.75623" lon="4.80849">
        <ele>226</ele>
        <time>2021-07-31T07:01:30.000Z</time>
      </trkpt>
      <trkpt lat="49.75626" lon="4.8085">
        <ele>226</ele>
        <time>2021-07-31T07:01:31.000Z</time>
      </trkpt>
      <trkpt lat="49.75629" lon="4.80851">
        <ele>226</ele>
        <time>2021-07-31T07:01:32.000Z</time>
      </trkpt>
      <trkpt lat="49.75633" lon="4.80853">
        <ele>226</ele>
        <time>2021-07-31T07:01:33.000Z</time>
      </trkpt>
      <trkpt lat="49.75637" lon="4.80855">
        <ele>227</ele>
        <time>2021-07-31T07:01:34.000Z</time>
      </trkpt>
      <trkpt lat="49.75641" lon="4.80856">
        <ele>227</ele>
        <time>2021-07-31T07:01:35.000Z</time>
      </trkpt>
      <trkpt lat="49.75644" lon="4.80857">
        <ele>227</ele>
        <time>2021-07-31T07:01:36.000Z</time>
      </trkpt>
      <trkpt lat="49.75648" lon="4.80859">
        <ele>227</ele>
        <time>2021-07-31T07:01:37.000Z</time>
      </trkpt>
      <trkpt lat="49.75651" lon="4.8086">
        <ele>227</ele>
        <time>2021-07-31T07:01:38.000Z</time>
      </trkpt>
      <trkpt lat="49.75654" lon="4.80861">
        <ele>227</ele>
        <time>2021-07-31T07:01:39.000Z</time>
      </trkpt>
      <trkpt lat="49.75657" lon="4.80862">
        <ele>227</ele>
        <time>2021-07-31T07:01:40.000Z</time>
      </trkpt>
      <trkpt lat="49.75659" lon="4.80863">
        <ele>228</ele>
        <time>2021-07-31T07:01:41.000Z</time>
      </trkpt>
      <trkpt lat="49.75662" lon="4.80865">
        <ele>228</ele>
        <time>2021-07-31T07:01:42.000Z</time>
      </trkpt>
      <trkpt lat="49.75665" lon="4.80866">
        <ele>228</ele>
        <time>2021-07-31T07:01:43.000Z</time>
      </trkpt>
      <trkpt lat="49.75668" lon="4.80867">
        <ele>228</ele>
        <time>2021-07-31T07:01:44.000Z</time>
      </trkpt>
      <trkpt lat="49.75671" lon="4.80868">
        <ele>228</ele>
        <time>2021-07-31T07:01:45.000Z</time>
      </trkpt>
      <trkpt lat="49.75674" lon="4.80869">
        <ele>228</ele>
        <time>2021-07-31T07:01:46.000Z</time>
      </trkpt>
      <trkpt lat="49.75677" lon="4.80871">
        <ele>228</ele>
        <time>2021-07-31T07:01:47.000Z</time>
      </trkpt>
      <trkpt lat="49.75681" lon="4.80871">
        <ele>229</ele>
        <time>2021-07-31T07:01:48.000Z</time>
      </trkpt>
      <trkpt lat="49.75684" lon="4.80873">
        <ele>229</ele>
        <time>2021-07-31T07:01:49.000Z</time>
      </trkpt>
      <trkpt lat="49.75688" lon="4.80873">
        <ele>229</ele>
        <time>2021-07-31T07:01:50.000Z</time>
      </trkpt>
      <trkpt lat="49.75691" lon="4.80873">
        <ele>229</ele>
        <time>2021-07-31T07:01:51.000Z</time>
      </trkpt>
      <trkpt lat="49.75694" lon="4.80874">
        <ele>229</ele>
        <time>2021-07-31T07:01:52.000Z</time>
      </trkpt>
      <trkpt lat="49.75698" lon="4.80875">
        <ele>230</ele>
        <time>2021-07-31T07:01:53.000Z</time>
      </trkpt>
      <trkpt lat="49.757" lon="4.80876">
        <ele>230</ele>
        <time>2021-07-31T07:01:54.000Z</time>
      </trkpt>
      <trkpt lat="49.75703" lon="4.80878">
        <ele>230</ele>
        <time>2021-07-31T07:01:55.000Z</time>
      </trkpt>
      <trkpt lat="49.75707" lon="4.8088">
        <ele>230</ele>
        <time>2021-07-31T07:01:56.000Z</time>
      </trkpt>
      <trkpt lat="49.75711" lon="4.80881">
        <ele>230</ele>
        <time>2021-07-31T07:01:57.000Z</time>
      </trkpt>
      <trkpt lat="49.75715" lon="4.80882">
        <ele>231</ele>
        <time>2021-07-31T07:01:58.000Z</time>
      </trkpt>
      <trkpt lat="49.75719" lon="4.80883">
        <ele>231</ele>
        <time>2021-07-31T07:01:59.000Z</time>
      </trkpt>
      <trkpt lat="49.75722" lon="4.80884">
        <ele>231</ele>
        <time>2021-07-31T07:02:00.000Z</time>
      </trkpt>
      <trkpt lat="49.75726" lon="4.80885">
        <ele>232</ele>
        <time>2021-07-31T07:02:01.000Z</time>
      </trkpt>
      <trkpt lat="49.75729" lon="4.80886">
        <ele>232</ele>
        <time>2021-07-31T07:02:02.000Z</time>
      </trkpt>
      <trkpt lat="49.75733" lon="4.80887">
        <ele>232</ele>
        <time>2021-07-31T07:02:03.000Z</time>
      </trkpt>
      <trkpt lat="49.75737" lon="4.80888">
        <ele>233</ele>
        <time>2021-07-31T07:02:04.000Z</time>
      </trkpt>
      <trkpt lat="49.75741" lon="4.80889">
        <ele>233</ele>
        <time>2021-07-31T07:02:05.000Z</time>
      </trkpt>
      <trkpt lat="49.75745" lon="4.8089">
        <ele>233</ele>
        <time>2021-07-31T07:02:06.000Z</time>
      </trkpt>
      <trkpt lat="49.75749" lon="4.8089">
        <ele>233</ele>
        <time>2021-07-31T07:02:07.000Z</time>
      </trkpt>
      <trkpt lat="49.75752" lon="4.80891">
        <ele>234</ele>
        <time>2021-07-31T07:02:08.000Z</time>
      </trkpt>
      <trkpt lat="49.75755" lon="4.80891">
        <ele>234</ele>
        <time>2021-07-31T07:02:09.000Z</time>
      </trkpt>
      <trkpt lat="49.75758" lon="4.80891">
        <ele>234</ele>
        <time>2021-07-31T07:02:10.000Z</time>
      </trkpt>
      <trkpt lat="49.75761" lon="4.80891">
        <ele>234</ele>
        <time>2021-07-31T07:02:11.000Z</time>
      </trkpt>
      <trkpt lat="49.75764" lon="4.80892">
        <ele>235</ele>
        <time>2021-07-31T07:02:12.000Z</time>
      </trkpt>
      <trkpt lat="49.75768" lon="4.80892">
        <ele>235</ele>
        <time>2021-07-31T07:02:13.000Z</time>
      </trkpt>
      <trkpt lat="49.75771" lon="4.80892">
        <ele>235</ele>
        <time>2021-07-31T07:02:14.000Z</time>
      </trkpt>
      <trkpt lat="49.75774" lon="4.80893">
        <ele>235</ele>
        <time>2021-07-31T07:02:15.000Z</time>
      </trkpt>
      <trkpt lat="49.75777" lon="4.80893">
        <ele>235</ele>
        <time>2021-07-31T07:02:16.000Z</time>
      </trkpt>
      <trkpt lat="49.7578" lon="4.80893">
        <ele>236</ele>
        <time>2021-07-31T07:02:17.000Z</time>
      </trkpt>
      <trkpt lat="49.75783" lon="4.80894">
        <ele>236</ele>
        <time>2021-07-31T07:02:18.000Z</time>
      </trkpt>
      <trkpt lat="49.75787" lon="4.80895">
        <ele>236</ele>
        <time>2021-07-31T07:02:19.000Z</time>
      </trkpt>
      <trkpt lat="49.75791" lon="4.80895">
        <ele>236</ele>
        <time>2021-07-31T07:02:20.000Z</time>
      </trkpt>
      <trkpt lat="49.75794" lon="4.80896">
        <ele>236</ele>
        <time>2021-07-31T07:02:21.000Z</time>
      </trkpt>
      <trkpt lat="49.75797" lon="4.80897">
        <ele>237</ele>
        <time>2021-07-31T07:02:22.000Z</time>
      </trkpt>
      <trkpt lat="49.758" lon="4.80898">
        <ele>237</ele>
        <time>2021-07-31T07:02:23.000Z</time>
      </trkpt>
      <trkpt lat="49.75804" lon="4.80899">
        <ele>237</ele>
        <time>2021-07-31T07:02:24.000Z</time>
      </trkpt>
      <trkpt lat="49.75807" lon="4.809">
        <ele>237</ele>
        <time>2021-07-31T07:02:25.000Z</time>
      </trkpt>
      <trkpt lat="49.75809" lon="4.80901">
        <ele>237</ele>
        <time>2021-07-31T07:02:26.000Z</time>
      </trkpt>
      <trkpt lat="49.75812" lon="4.80902">
        <ele>238</ele>
        <time>2021-07-31T07:02:27.000Z</time>
      </trkpt>
      <trkpt lat="49.75814" lon="4.80904">
        <ele>238</ele>
        <time>2021-07-31T07:02:28.000Z</time>
      </trkpt>
      <trkpt lat="49.75817" lon="4.80905">
        <ele>238</ele>
        <time>2021-07-31T07:02:29.000Z</time>
      </trkpt>
      <trkpt lat="49.7582" lon="4.80906">
        <ele>238</ele>
        <time>2021-07-31T07:02:30.000Z</time>
      </trkpt>
      <trkpt lat="49.75822" lon="4.80908">
        <ele>238</ele>
        <time>2021-07-31T07:02:31.000Z</time>
      </trkpt>
      <trkpt lat="49.75825" lon="4.80909">
        <ele>238</ele>
        <time>2021-07-31T07:02:32.000Z</time>
      </trkpt>
      <trkpt lat="49.75828" lon="4.80911">
        <ele>238</ele>
        <time>2021-07-31T07:02:33.000Z</time>
      </trkpt>
      <trkpt lat="49.75831" lon="4.80913">
        <ele>238</ele>
        <time>2021-07-31T07:02:34.000Z</time>
      </trkpt>
      <trkpt lat="49.75834" lon="4.80915">
        <ele>238</ele>
        <time>2021-07-31T07:02:35.000Z</time>
      </trkpt>
      <trkpt lat="49.75837" lon="4.80917">
        <ele>238</ele>
        <time>2021-07-31T07:02:36.000Z</time>
      </trkpt>
      <trkpt lat="49.7584" lon="4.80921">
        <ele>238</ele>
        <time>2021-07-31T07:02:37.000Z</time>
      </trkpt>
      <trkpt lat="49.75843" lon="4.80924">
        <ele>238</ele>
        <time>2021-07-31T07:02:38.000Z</time>
      </trkpt>
      <trkpt lat="49.75846" lon="4.80927">
        <ele>238</ele>
        <time>2021-07-31T07:02:39.000Z</time>
      </trkpt>
      <trkpt lat="49.75848" lon="4.8093">
        <ele>238</ele>
        <time>2021-07-31T07:02:40.000Z</time>
      </trkpt>
      <trkpt lat="49.7585" lon="4.80933">
        <ele>238</ele>
        <time>2021-07-31T07:02:41.000Z</time>
      </trkpt>
      <trkpt lat="49.75852" lon="4.80936">
        <ele>238</ele>
        <time>2021-07-31T07:02:42.000Z</time>
      </trkpt>
      <trkpt lat="49.75854" lon="4.80939">
        <ele>238</ele>
        <time>2021-07-31T07:02:43.000Z</time>
      </trkpt>
      <trkpt lat="49.75856" lon="4.80941">
        <ele>238</ele>
        <time>2021-07-31T07:02:44.000Z</time>
      </trkpt>
      <trkpt lat="49.75858" lon="4.80944">
        <ele>238</ele>
        <time>2021-07-31T07:02:45.000Z</time>
      </trkpt>
      <trkpt lat="49.7586" lon="4.80947">
        <ele>238</ele>
        <time>2021-07-31T07:02:46.000Z</time>
      </trkpt>
      <trkpt lat="49.75864" lon="4.80949">
        <ele>238</ele>
        <time>2021-07-31T07:02:47.000Z</time>
      </trkpt>
      <trkpt lat="49.75867" lon="4.80953">
        <ele>238</ele>
        <time>2021-07-31T07:02:48.000Z</time>
      </trkpt>
      <trkpt lat="49.7587" lon="4.80956">
        <ele>238</ele>
        <time>2021-07-31T07:02:49.000Z</time>
      </trkpt>
      <trkpt lat="49.75874" lon="4.80959">
        <ele>238</ele>
        <time>2021-07-31T07:02:50.000Z</time>
      </trkpt>
      <trkpt lat="49.75877" lon="4.80962">
        <ele>239</ele>
        <time>2021-07-31T07:02:51.000Z</time>
      </trkpt>
      <trkpt lat="49.75879" lon="4.80964">
        <ele>239</ele>
        <time>2021-07-31T07:02:52.000Z</time>
      </trkpt>
      <trkpt lat="49.75882" lon="4.80967">
        <ele>239</ele>
        <time>2021-07-31T07:02:53.000Z</time>
      </trkpt>
      <trkpt lat="49.75884" lon="4.8097">
        <ele>239</ele>
        <time>2021-07-31T07:02:54.000Z</time>
      </trkpt>
      <trkpt lat="49.75887" lon="4.80973">
        <ele>239</ele>
        <time>2021-07-31T07:02:55.000Z</time>
      </trkpt>
      <trkpt lat="49.75889" lon="4.80976">
        <ele>239</ele>
        <time>2021-07-31T07:02:56.000Z</time>
      </trkpt>
      <trkpt lat="49.75891" lon="4.80979">
        <ele>239</ele>
        <time>2021-07-31T07:02:57.000Z</time>
      </trkpt>
      <trkpt lat="49.75894" lon="4.80982">
        <ele>239</ele>
        <time>2021-07-31T07:02:58.000Z</time>
      </trkpt>
      <trkpt lat="49.75895" lon="4.80985">
        <ele>239</ele>
        <time>2021-07-31T07:02:59.000Z</time>
      </trkpt>
      <trkpt lat="49.75897" lon="4.80987">
        <ele>239</ele>
        <time>2021-07-31T07:03:00.000Z</time>
      </trkpt>
      <trkpt lat="49.75898" lon="4.8099">
        <ele>240</ele>
        <time>2021-07-31T07:03:01.000Z</time>
      </trkpt>
      <trkpt lat="49.759" lon="4.80993">
        <ele>240</ele>
        <time>2021-07-31T07:03:02.000Z</time>
      </trkpt>
      <trkpt lat="49.75901" lon="4.80995">
        <ele>240</ele>
        <time>2021-07-31T07:03:03.000Z</time>
      </trkpt>
      <trkpt lat="49.75903" lon="4.80998">
        <ele>240</ele>
        <time>2021-07-31T07:03:04.000Z</time>
      </trkpt>
      <trkpt lat="49.75904" lon="4.81001">
        <ele>240</ele>
        <time>2021-07-31T07:03:05.000Z</time>
      </trkpt>
      <trkpt lat="49.75906" lon="4.81005">
        <ele>240</ele>
        <time>2021-07-31T07:03:06.000Z</time>
      </trkpt>
      <trkpt lat="49.75907" lon="4.81009">
        <ele>240</ele>
        <time>2021-07-31T07:03:07.000Z</time>
      </trkpt>
      <trkpt lat="49.75909" lon="4.81012">
        <ele>240</ele>
        <time>2021-07-31T07:03:08.000Z</time>
      </trkpt>
      <trkpt lat="49.7591" lon="4.81015">
        <ele>240</ele>
        <time>2021-07-31T07:03:09.000Z</time>
      </trkpt>
      <trkpt lat="49.75912" lon="4.81017">
        <ele>240</ele>
        <time>2021-07-31T07:03:10.000Z</time>
      </trkpt>
      <trkpt lat="49.75914" lon="4.81021">
        <ele>240</ele>
        <time>2021-07-31T07:03:11.000Z</time>
      </trkpt>
      <trkpt lat="49.75915" lon="4.81024">
        <ele>241</ele>
        <time>2021-07-31T07:03:12.000Z</time>
      </trkpt>
      <trkpt lat="49.75916" lon="4.81028">
        <ele>241</ele>
        <time>2021-07-31T07:03:13.000Z</time>
      </trkpt>
      <trkpt lat="49.75918" lon="4.81031">
        <ele>241</ele>
        <time>2021-07-31T07:03:14.000Z</time>
      </trkpt>
      <trkpt lat="49.7592" lon="4.81035">
        <ele>241</ele>
        <time>2021-07-31T07:03:15.000Z</time>
      </trkpt>
      <trkpt lat="49.75922" lon="4.81038">
        <ele>241</ele>
        <time>2021-07-31T07:03:16.000Z</time>
      </trkpt>
      <trkpt lat="49.75924" lon="4.8104">
        <ele>241</ele>
        <time>2021-07-31T07:03:17.000Z</time>
      </trkpt>
      <trkpt lat="49.75926" lon="4.81042">
        <ele>242</ele>
        <time>2021-07-31T07:03:18.000Z</time>
      </trkpt>
      <trkpt lat="49.75928" lon="4.81045">
        <ele>242</ele>
        <time>2021-07-31T07:03:19.000Z</time>
      </trkpt>
      <trkpt lat="49.7593" lon="4.81048">
        <ele>242</ele>
        <time>2021-07-31T07:03:20.000Z</time>
      </trkpt>
      <trkpt lat="49.75933" lon="4.81051">
        <ele>242</ele>
        <time>2021-07-31T07:03:21.000Z</time>
      </trkpt>
      <trkpt lat="49.75935" lon="4.81054">
        <ele>243</ele>
        <time>2021-07-31T07:03:22.000Z</time>
      </trkpt>
      <trkpt lat="49.75938" lon="4.81058">
        <ele>243</ele>
        <time>2021-07-31T07:03:23.000Z</time>
      </trkpt>
      <trkpt lat="49.7594" lon="4.81061">
        <ele>243</ele>
        <time>2021-07-31T07:03:24.000Z</time>
      </trkpt>
      <trkpt lat="49.75943" lon="4.81064">
        <ele>244</ele>
        <time>2021-07-31T07:03:25.000Z</time>
      </trkpt>
      <trkpt lat="49.75945" lon="4.81067">
        <ele>244</ele>
        <time>2021-07-31T07:03:26.000Z</time>
      </trkpt>
      <trkpt lat="49.75947" lon="4.8107">
        <ele>244</ele>
        <time>2021-07-31T07:03:27.000Z</time>
      </trkpt>
      <trkpt lat="49.75949" lon="4.81075">
        <ele>244</ele>
        <time>2021-07-31T07:03:28.000Z</time>
      </trkpt>
      <trkpt lat="49.75951" lon="4.81078">
        <ele>245</ele>
        <time>2021-07-31T07:03:29.000Z</time>
      </trkpt>
      <trkpt lat="49.75952" lon="4.81082">
        <ele>245</ele>
        <time>2021-07-31T07:03:30.000Z</time>
      </trkpt>
      <trkpt lat="49.75953" lon="4.81085">
        <ele>245</ele>
        <time>2021-07-31T07:03:31.000Z</time>
      </trkpt>
      <trkpt lat="49.75954" lon="4.81088">
        <ele>245</ele>
        <time>2021-07-31T07:03:32.000Z</time>
      </trkpt>
      <trkpt lat="49.75955" lon="4.8109">
        <ele>245</ele>
        <time>2021-07-31T07:03:33.000Z</time>
      </trkpt>
      <trkpt lat="49.75956" lon="4.81093">
        <ele>246</ele>
        <time>2021-07-31T07:03:34.000Z</time>
      </trkpt>
      <trkpt lat="49.75957" lon="4.81095">
        <ele>246</ele>
        <time>2021-07-31T07:03:35.000Z</time>
      </trkpt>
      <trkpt lat="49.75959" lon="4.81098">
        <ele>246</ele>
        <time>2021-07-31T07:03:36.000Z</time>
      </trkpt>
      <trkpt lat="49.7596" lon="4.811">
        <ele>246</ele>
        <time>2021-07-31T07:03:37.000Z</time>
      </trkpt>
      <trkpt lat="49.75962" lon="4.81103">
        <ele>246</ele>
        <time>2021-07-31T07:03:38.000Z</time>
      </trkpt>
      <trkpt lat="49.75963" lon="4.81106">
        <ele>246</ele>
        <time>2021-07-31T07:03:39.000Z</time>
      </trkpt>
      <trkpt lat="49.75964" lon="4.81108">
        <ele>246</ele>
        <time>2021-07-31T07:03:40.000Z</time>
      </trkpt>
      <trkpt lat="49.75966" lon="4.81111">
        <ele>247</ele>
        <time>2021-07-31T07:03:41.000Z</time>
      </trkpt>
      <trkpt lat="49.75968" lon="4.81114">
        <ele>247</ele>
        <time>2021-07-31T07:03:42.000Z</time>
      </trkpt>
      <trkpt lat="49.7597" lon="4.81117">
        <ele>247</ele>
        <time>2021-07-31T07:03:43.000Z</time>
      </trkpt>
      <trkpt lat="49.75971" lon="4.81119">
        <ele>247</ele>
        <time>2021-07-31T07:03:44.000Z</time>
      </trkpt>
      <trkpt lat="49.75974" lon="4.81122">
        <ele>247</ele>
        <time>2021-07-31T07:03:45.000Z</time>
      </trkpt>
      <trkpt lat="49.75976" lon="4.81125">
        <ele>247</ele>
        <time>2021-07-31T07:03:46.000Z</time>
      </trkpt>
      <trkpt lat="49.75977" lon="4.81127">
        <ele>248</ele>
        <time>2021-07-31T07:03:47.000Z</time>
      </trkpt>
      <trkpt lat="49.75979" lon="4.81128">
        <ele>248</ele>
        <time>2021-07-31T07:03:48.000Z</time>
      </trkpt>
      <trkpt lat="49.7598" lon="4.81129">
        <ele>248</ele>
        <time>2021-07-31T07:03:49.000Z</time>
      </trkpt>
      <trkpt lat="49.75981" lon="4.81131">
        <ele>248</ele>
        <time>2021-07-31T07:03:50.000Z</time>
      </trkpt>
      <trkpt lat="49.75982" lon="4.81132">
        <ele>249</ele>
        <time>2021-07-31T07:03:51.000Z</time>
      </trkpt>
      <trkpt lat="49.75984" lon="4.81134">
        <ele>249</ele>
        <time>2021-07-31T07:03:52.000Z</time>
      </trkpt>
      <trkpt lat="49.75986" lon="4.81137">
        <ele>249</ele>
        <time>2021-07-31T07:03:53.000Z</time>
      </trkpt>
      <trkpt lat="49.75988" lon="4.81138">
        <ele>249</ele>
        <time>2021-07-31T07:03:54.000Z</time>
      </trkpt>
      <trkpt lat="49.7599" lon="4.81141">
        <ele>249</ele>
        <time>2021-07-31T07:03:55.000Z</time>
      </trkpt>
      <trkpt lat="49.75992" lon="4.81142">
        <ele>249</ele>
        <time>2021-07-31T07:03:56.000Z</time>
      </trkpt>
      <trkpt lat="49.75995" lon="4.81145">
        <ele>250</ele>
        <time>2021-07-31T07:03:57.000Z</time>
      </trkpt>
      <trkpt lat="49.75996" lon="4.81148">
        <ele>250</ele>
        <time>2021-07-31T07:03:58.000Z</time>
      </trkpt>
      <trkpt lat="49.75998" lon="4.81151">
        <ele>250</ele>
        <time>2021-07-31T07:03:59.000Z</time>
      </trkpt>
      <trkpt lat="49.76001" lon="4.81155">
        <ele>250</ele>
        <time>2021-07-31T07:04:00.000Z</time>
      </trkpt>
      <trkpt lat="49.76003" lon="4.81158">
        <ele>250</ele>
        <time>2021-07-31T07:04:01.000Z</time>
      </trkpt>
      <trkpt lat="49.76005" lon="4.81161">
        <ele>250</ele>
        <time>2021-07-31T07:04:02.000Z</time>
      </trkpt>
      <trkpt lat="49.76008" lon="4.81164">
        <ele>250</ele>
        <time>2021-07-31T07:04:03.000Z</time>
      </trkpt>
      <trkpt lat="49.7601" lon="4.81168">
        <ele>250</ele>
        <time>2021-07-31T07:04:04.000Z</time>
      </trkpt>
      <trkpt lat="49.76012" lon="4.81172">
        <ele>250</ele>
        <time>2021-07-31T07:04:05.000Z</time>
      </trkpt>
      <trkpt lat="49.76013" lon="4.81175">
        <ele>250</ele>
        <time>2021-07-31T07:04:06.000Z</time>
      </trkpt>
      <trkpt lat="49.76015" lon="4.81178">
        <ele>250</ele>
        <time>2021-07-31T07:04:07.000Z</time>
      </trkpt>
      <trkpt lat="49.76017" lon="4.8118">
        <ele>250</ele>
        <time>2021-07-31T07:04:08.000Z</time>
      </trkpt>
      <trkpt lat="49.76019" lon="4.81184">
        <ele>251</ele>
        <time>2021-07-31T07:04:09.000Z</time>
      </trkpt>
      <trkpt lat="49.76021" lon="4.81187">
        <ele>251</ele>
        <time>2021-07-31T07:04:10.000Z</time>
      </trkpt>
      <trkpt lat="49.76024" lon="4.8119">
        <ele>251</ele>
        <time>2021-07-31T07:04:11.000Z</time>
      </trkpt>
      <trkpt lat="49.76028" lon="4.81192">
        <ele>251</ele>
        <time>2021-07-31T07:04:12.000Z</time>
      </trkpt>
      <trkpt lat="49.7603" lon="4.81195">
        <ele>252</ele>
        <time>2021-07-31T07:04:13.000Z</time>
      </trkpt>
      <trkpt lat="49.76033" lon="4.81198">
        <ele>252</ele>
        <time>2021-07-31T07:04:14.000Z</time>
      </trkpt>
      <trkpt lat="49.76035" lon="4.81201">
        <ele>252</ele>
        <time>2021-07-31T07:04:15.000Z</time>
      </trkpt>
      <trkpt lat="49.76038" lon="4.81203">
        <ele>252</ele>
        <time>2021-07-31T07:04:16.000Z</time>
      </trkpt>
      <trkpt lat="49.7604" lon="4.81206">
        <ele>252</ele>
        <time>2021-07-31T07:04:17.000Z</time>
      </trkpt>
      <trkpt lat="49.76042" lon="4.81209">
        <ele>252</ele>
        <time>2021-07-31T07:04:18.000Z</time>
      </trkpt>
      <trkpt lat="49.76044" lon="4.81213">
        <ele>252</ele>
        <time>2021-07-31T07:04:19.000Z</time>
      </trkpt>
      <trkpt lat="49.76047" lon="4.81217">
        <ele>253</ele>
        <time>2021-07-31T07:04:20.000Z</time>
      </trkpt>
      <trkpt lat="49.76049" lon="4.8122">
        <ele>253</ele>
        <time>2021-07-31T07:04:21.000Z</time>
      </trkpt>
      <trkpt lat="49.76051" lon="4.81223">
        <ele>253</ele>
        <time>2021-07-31T07:04:22.000Z</time>
      </trkpt>
      <trkpt lat="49.76055" lon="4.81225">
        <ele>253</ele>
        <time>2021-07-31T07:04:23.000Z</time>
      </trkpt>
      <trkpt lat="49.76058" lon="4.81228">
        <ele>253</ele>
        <time>2021-07-31T07:04:24.000Z</time>
      </trkpt>
      <trkpt lat="49.7606" lon="4.81232">
        <ele>253</ele>
        <time>2021-07-31T07:04:25.000Z</time>
      </trkpt>
      <trkpt lat="49.76062" lon="4.81235">
        <ele>253</ele>
        <time>2021-07-31T07:04:26.000Z</time>
      </trkpt>
      <trkpt lat="49.76064" lon="4.81238">
        <ele>253</ele>
        <time>2021-07-31T07:04:27.000Z</time>
      </trkpt>
      <trkpt lat="49.76066" lon="4.81242">
        <ele>253</ele>
        <time>2021-07-31T07:04:28.000Z</time>
      </trkpt>
      <trkpt lat="49.76068" lon="4.81245">
        <ele>253</ele>
        <time>2021-07-31T07:04:29.000Z</time>
      </trkpt>
      <trkpt lat="49.76071" lon="4.81248">
        <ele>253</ele>
        <time>2021-07-31T07:04:30.000Z</time>
      </trkpt>
      <trkpt lat="49.76072" lon="4.81251">
        <ele>253</ele>
        <time>2021-07-31T07:04:31.000Z</time>
      </trkpt>
      <trkpt lat="49.76074" lon="4.81254">
        <ele>253</ele>
        <time>2021-07-31T07:04:32.000Z</time>
      </trkpt>
      <trkpt lat="49.76075" lon="4.81257">
        <ele>253</ele>
        <time>2021-07-31T07:04:33.000Z</time>
      </trkpt>
      <trkpt lat="49.76078" lon="4.81259">
        <ele>253</ele>
        <time>2021-07-31T07:04:34.000Z</time>
      </trkpt>
      <trkpt lat="49.76081" lon="4.81261">
        <ele>254</ele>
        <time>2021-07-31T07:04:35.000Z</time>
      </trkpt>
      <trkpt lat="49.76084" lon="4.81265">
        <ele>254</ele>
        <time>2021-07-31T07:04:36.000Z</time>
      </trkpt>
      <trkpt lat="49.76087" lon="4.81267">
        <ele>254</ele>
        <time>2021-07-31T07:04:37.000Z</time>
      </trkpt>
      <trkpt lat="49.76089" lon="4.81269">
        <ele>254</ele>
        <time>2021-07-31T07:04:38.000Z</time>
      </trkpt>
      <trkpt lat="49.76092" lon="4.8127">
        <ele>254</ele>
        <time>2021-07-31T07:04:39.000Z</time>
      </trkpt>
      <trkpt lat="49.76094" lon="4.81272">
        <ele>255</ele>
        <time>2021-07-31T07:04:40.000Z</time>
      </trkpt>
      <trkpt lat="49.76096" lon="4.81274">
        <ele>255</ele>
        <time>2021-07-31T07:04:41.000Z</time>
      </trkpt>
      <trkpt lat="49.76098" lon="4.81277">
        <ele>255</ele>
        <time>2021-07-31T07:04:42.000Z</time>
      </trkpt>
      <trkpt lat="49.76099" lon="4.8128">
        <ele>255</ele>
        <time>2021-07-31T07:04:43.000Z</time>
      </trkpt>
      <trkpt lat="49.76101" lon="4.81282">
        <ele>255</ele>
        <time>2021-07-31T07:04:44.000Z</time>
      </trkpt>
      <trkpt lat="49.76103" lon="4.81283">
        <ele>255</ele>
        <time>2021-07-31T07:04:45.000Z</time>
      </trkpt>
      <trkpt lat="49.76106" lon="4.81285">
        <ele>255</ele>
        <time>2021-07-31T07:04:46.000Z</time>
      </trkpt>
      <trkpt lat="49.76108" lon="4.81287">
        <ele>255</ele>
        <time>2021-07-31T07:04:47.000Z</time>
      </trkpt>
      <trkpt lat="49.7611" lon="4.81289">
        <ele>255</ele>
        <time>2021-07-31T07:04:48.000Z</time>
      </trkpt>
      <trkpt lat="49.76112" lon="4.8129">
        <ele>255</ele>
        <time>2021-07-31T07:04:49.000Z</time>
      </trkpt>
      <trkpt lat="49.76115" lon="4.81291">
        <ele>255</ele>
        <time>2021-07-31T07:04:50.000Z</time>
      </trkpt>
      <trkpt lat="49.76118" lon="4.81293">
        <ele>255</ele>
        <time>2021-07-31T07:04:51.000Z</time>
      </trkpt>
      <trkpt lat="49.7612" lon="4.81295">
        <ele>256</ele>
        <time>2021-07-31T07:04:52.000Z</time>
      </trkpt>
      <trkpt lat="49.76122" lon="4.81298">
        <ele>256</ele>
        <time>2021-07-31T07:04:53.000Z</time>
      </trkpt>
      <trkpt lat="49.76125" lon="4.81301">
        <ele>256</ele>
        <time>2021-07-31T07:04:54.000Z</time>
      </trkpt>
      <trkpt lat="49.76127" lon="4.81305">
        <ele>256</ele>
        <time>2021-07-31T07:04:55.000Z</time>
      </trkpt>
      <trkpt lat="49.76128" lon="4.81308">
        <ele>256</ele>
        <time>2021-07-31T07:04:56.000Z</time>
      </trkpt>
      <trkpt lat="49.7613" lon="4.81313">
        <ele>257</ele>
        <time>2021-07-31T07:04:57.000Z</time>
      </trkpt>
      <trkpt lat="49.7613" lon="4.81317">
        <ele>257</ele>
        <time>2021-07-31T07:04:58.000Z</time>
      </trkpt>
      <trkpt lat="49.7613" lon="4.81321">
        <ele>257</ele>
        <time>2021-07-31T07:04:59.000Z</time>
      </trkpt>
      <trkpt lat="49.7613" lon="4.81324">
        <ele>257</ele>
        <time>2021-07-31T07:05:00.000Z</time>
      </trkpt>
      <trkpt lat="49.7613" lon="4.81327">
        <ele>258</ele>
        <time>2021-07-31T07:05:01.000Z</time>
      </trkpt>
      <trkpt lat="49.76129" lon="4.81331">
        <ele>258</ele>
        <time>2021-07-31T07:05:02.000Z</time>
      </trkpt>
      <trkpt lat="49.76128" lon="4.81334">
        <ele>258</ele>
        <time>2021-07-31T07:05:03.000Z</time>
      </trkpt>
      <trkpt lat="49.76127" lon="4.81336">
        <ele>259</ele>
        <time>2021-07-31T07:05:04.000Z</time>
      </trkpt>
      <trkpt lat="49.76127" lon="4.81339">
        <ele>259</ele>
        <time>2021-07-31T07:05:05.000Z</time>
      </trkpt>
      <trkpt lat="49.76127" lon="4.81341">
        <ele>260</ele>
        <time>2021-07-31T07:05:06.000Z</time>
      </trkpt>
      <trkpt lat="49.76127" lon="4.81344">
        <ele>260</ele>
        <time>2021-07-31T07:05:07.000Z</time>
      </trkpt>
      <trkpt lat="49.76127" lon="4.81346">
        <ele>260</ele>
        <time>2021-07-31T07:05:08.000Z</time>
      </trkpt>
      <trkpt lat="49.76127" lon="4.81348">
        <ele>261</ele>
        <time>2021-07-31T07:05:09.000Z</time>
      </trkpt>
      <trkpt lat="49.76127" lon="4.81351">
        <ele>261</ele>
        <time>2021-07-31T07:05:10.000Z</time>
      </trkpt>
      <trkpt lat="49.76127" lon="4.81353">
        <ele>261</ele>
        <time>2021-07-31T07:05:11.000Z</time>
      </trkpt>
      <trkpt lat="49.76127" lon="4.81355">
        <ele>262</ele>
        <time>2021-07-31T07:05:12.000Z</time>
      </trkpt>
      <trkpt lat="49.76126" lon="4.81357">
        <ele>262</ele>
        <time>2021-07-31T07:05:13.000Z</time>
      </trkpt>
      <trkpt lat="49.76126" lon="4.8136">
        <ele>262</ele>
        <time>2021-07-31T07:05:14.000Z</time>
      </trkpt>
      <trkpt lat="49.76126" lon="4.81363">
        <ele>263</ele>
        <time>2021-07-31T07:05:15.000Z</time>
      </trkpt>
      <trkpt lat="49.76126" lon="4.81366">
        <ele>263</ele>
        <time>2021-07-31T07:05:16.000Z</time>
      </trkpt>
      <trkpt lat="49.76127" lon="4.81369">
        <ele>263</ele>
        <time>2021-07-31T07:05:17.000Z</time>
      </trkpt>
      <trkpt lat="49.76127" lon="4.81371">
        <ele>263</ele>
        <time>2021-07-31T07:05:18.000Z</time>
      </trkpt>
      <trkpt lat="49.76126" lon="4.81374">
        <ele>264</ele>
        <time>2021-07-31T07:05:19.000Z</time>
      </trkpt>
      <trkpt lat="49.76126" lon="4.81376">
        <ele>264</ele>
        <time>2021-07-31T07:05:20.000Z</time>
      </trkpt>
      <trkpt lat="49.76127" lon="4.81379">
        <ele>264</ele>
        <time>2021-07-31T07:05:21.000Z</time>
      </trkpt>
      <trkpt lat="49.76127" lon="4.81381">
        <ele>265</ele>
        <time>2021-07-31T07:05:22.000Z</time>
      </trkpt>
      <trkpt lat="49.76127" lon="4.81385">
        <ele>265</ele>
        <time>2021-07-31T07:05:23.000Z</time>
      </trkpt>
      <trkpt lat="49.76128" lon="4.81388">
        <ele>265</ele>
        <time>2021-07-31T07:05:24.000Z</time>
      </trkpt>
      <trkpt lat="49.76128" lon="4.81392">
        <ele>265</ele>
        <time>2021-07-31T07:05:25.000Z</time>
      </trkpt>
      <trkpt lat="49.76127" lon="4.81395">
        <ele>266</ele>
        <time>2021-07-31T07:05:26.000Z</time>
      </trkpt>
      <trkpt lat="49.76127" lon="4.81399">
        <ele>266</ele>
        <time>2021-07-31T07:05:27.000Z</time>
      </trkpt>
      <trkpt lat="49.76127" lon="4.81402">
        <ele>266</ele>
        <time>2021-07-31T07:05:28.000Z</time>
      </trkpt>
      <trkpt lat="49.76127" lon="4.81406">
        <ele>267</ele>
        <time>2021-07-31T07:05:29.000Z</time>
      </trkpt>
      <trkpt lat="49.76128" lon="4.8141">
        <ele>267</ele>
        <time>2021-07-31T07:05:30.000Z</time>
      </trkpt>
      <trkpt lat="49.76129" lon="4.81414">
        <ele>267</ele>
        <time>2021-07-31T07:05:31.000Z</time>
      </trkpt>
      <trkpt lat="49.7613" lon="4.81418">
        <ele>267</ele>
        <time>2021-07-31T07:05:32.000Z</time>
      </trkpt>
      <trkpt lat="49.76132" lon="4.81421">
        <ele>267</ele>
        <time>2021-07-31T07:05:33.000Z</time>
      </trkpt>
      <trkpt lat="49.76134" lon="4.81424">
        <ele>268</ele>
        <time>2021-07-31T07:05:34.000Z</time>
      </trkpt>
      <trkpt lat="49.76136" lon="4.81425">
        <ele>268</ele>
        <time>2021-07-31T07:05:35.000Z</time>
      </trkpt>
      <trkpt lat="49.76139" lon="4.81426">
        <ele>268</ele>
        <time>2021-07-31T07:05:36.000Z</time>
      </trkpt>
      <trkpt lat="49.76142" lon="4.81428">
        <ele>268</ele>
        <time>2021-07-31T07:05:37.000Z</time>
      </trkpt>
      <trkpt lat="49.76145" lon="4.81429">
        <ele>268</ele>
        <time>2021-07-31T07:05:38.000Z</time>
      </trkpt>
      <trkpt lat="49.76148" lon="4.8143">
        <ele>268</ele>
        <time>2021-07-31T07:05:39.000Z</time>
      </trkpt>
      <trkpt lat="49.7615" lon="4.8143">
        <ele>268</ele>
        <time>2021-07-31T07:05:40.000Z</time>
      </trkpt>
      <trkpt lat="49.76153" lon="4.81431">
        <ele>268</ele>
        <time>2021-07-31T07:05:41.000Z</time>
      </trkpt>
      <trkpt lat="49.76156" lon="4.81432">
        <ele>268</ele>
        <time>2021-07-31T07:05:42.000Z</time>
      </trkpt>
      <trkpt lat="49.7616" lon="4.81433">
        <ele>268</ele>
        <time>2021-07-31T07:05:43.000Z</time>
      </trkpt>
      <trkpt lat="49.76163" lon="4.81434">
        <ele>269</ele>
        <time>2021-07-31T07:05:44.000Z</time>
      </trkpt>
      <trkpt lat="49.76167" lon="4.81436">
        <ele>269</ele>
        <time>2021-07-31T07:05:45.000Z</time>
      </trkpt>
      <trkpt lat="49.7617" lon="4.81438">
        <ele>269</ele>
        <time>2021-07-31T07:05:46.000Z</time>
      </trkpt>
      <trkpt lat="49.76173" lon="4.81439">
        <ele>269</ele>
        <time>2021-07-31T07:05:47.000Z</time>
      </trkpt>
      <trkpt lat="49.76174" lon="4.81438">
        <ele>269</ele>
        <time>2021-07-31T07:05:48.000Z</time>
      </trkpt>
      <trkpt lat="49.76176" lon="4.81437">
        <ele>269</ele>
        <time>2021-07-31T07:05:49.000Z</time>
      </trkpt>
      <trkpt lat="49.76176" lon="4.81433">
        <ele>269</ele>
        <time>2021-07-31T07:05:50.000Z</time>
      </trkpt>
      <trkpt lat="49.76177" lon="4.81427">
        <ele>269</ele>
        <time>2021-07-31T07:05:51.000Z</time>
      </trkpt>
      <trkpt lat="49.76177" lon="4.8142">
        <ele>269</ele>
        <time>2021-07-31T07:05:52.000Z</time>
      </trkpt>
      <trkpt lat="49.76177" lon="4.81411">
        <ele>269</ele>
        <time>2021-07-31T07:05:53.000Z</time>
      </trkpt>
      <trkpt lat="49.76177" lon="4.81402">
        <ele>269</ele>
        <time>2021-07-31T07:05:54.000Z</time>
      </trkpt>
      <trkpt lat="49.76177" lon="4.81392">
        <ele>269</ele>
        <time>2021-07-31T07:05:55.000Z</time>
      </trkpt>
      <trkpt lat="49.76177" lon="4.81382">
        <ele>269</ele>
        <time>2021-07-31T07:05:56.000Z</time>
      </trkpt>
      <trkpt lat="49.76176" lon="4.81372">
        <ele>269</ele>
        <time>2021-07-31T07:05:57.000Z</time>
      </trkpt>
      <trkpt lat="49.76176" lon="4.81361">
        <ele>268</ele>
        <time>2021-07-31T07:05:58.000Z</time>
      </trkpt>
      <trkpt lat="49.76176" lon="4.81351">
        <ele>269</ele>
        <time>2021-07-31T07:05:59.000Z</time>
      </trkpt>
      <trkpt lat="49.76176" lon="4.8134">
        <ele>269</ele>
        <time>2021-07-31T07:06:00.000Z</time>
      </trkpt>
      <trkpt lat="49.76177" lon="4.81329">
        <ele>269</ele>
        <time>2021-07-31T07:06:01.000Z</time>
      </trkpt>
      <trkpt lat="49.76179" lon="4.81319">
        <ele>269</ele>
        <time>2021-07-31T07:06:02.000Z</time>
      </trkpt>
      <trkpt lat="49.76179" lon="4.8131">
        <ele>269</ele>
        <time>2021-07-31T07:06:03.000Z</time>
      </trkpt>
      <trkpt lat="49.7618" lon="4.81302">
        <ele>269</ele>
        <time>2021-07-31T07:06:04.000Z</time>
      </trkpt>
      <trkpt lat="49.76181" lon="4.81294">
        <ele>269</ele>
        <time>2021-07-31T07:06:05.000Z</time>
      </trkpt>
      <trkpt lat="49.76182" lon="4.81288">
        <ele>269</ele>
        <time>2021-07-31T07:06:06.000Z</time>
      </trkpt>
      <trkpt lat="49.76182" lon="4.81282">
        <ele>269</ele>
        <time>2021-07-31T07:06:07.000Z</time>
      </trkpt>
      <trkpt lat="49.76182" lon="4.81277">
        <ele>269</ele>
        <time>2021-07-31T07:06:08.000Z</time>
      </trkpt>
      <trkpt lat="49.76182" lon="4.81272">
        <ele>269</ele>
        <time>2021-07-31T07:06:09.000Z</time>
      </trkpt>
      <trkpt lat="49.76183" lon="4.81267">
        <ele>269</ele>
        <time>2021-07-31T07:06:10.000Z</time>
      </trkpt>
      <trkpt lat="49.76183" lon="4.81262">
        <ele>269</ele>
        <time>2021-07-31T07:06:11.000Z</time>
      </trkpt>
      <trkpt lat="49.76184" lon="4.81256">
        <ele>269</ele>
        <time>2021-07-31T07:06:12.000Z</time>
      </trkpt>
      <trkpt lat="49.76184" lon="4.8125">
        <ele>268</ele>
        <time>2021-07-31T07:06:13.000Z</time>
      </trkpt>
      <trkpt lat="49.76185" lon="4.81244">
        <ele>268</ele>
        <time>2021-07-31T07:06:14.000Z</time>
      </trkpt>
      <trkpt lat="49.76185" lon="4.81238">
        <ele>268</ele>
        <time>2021-07-31T07:06:15.000Z</time>
      </trkpt>
      <trkpt lat="49.76186" lon="4.81231">
        <ele>268</ele>
        <time>2021-07-31T07:06:16.000Z</time>
      </trkpt>
      <trkpt lat="49.76186" lon="4.81224">
        <ele>269</ele>
        <time>2021-07-31T07:06:17.000Z</time>
      </trkpt>
      <trkpt lat="49.76187" lon="4.81218">
        <ele>269</ele>
        <time>2021-07-31T07:06:18.000Z</time>
      </trkpt>
      <trkpt lat="49.76187" lon="4.81212">
        <ele>269</ele>
        <time>2021-07-31T07:06:19.000Z</time>
      </trkpt>
      <trkpt lat="49.76188" lon="4.81207">
        <ele>269</ele>
        <time>2021-07-31T07:06:20.000Z</time>
      </trkpt>
      <trkpt lat="49.76188" lon="4.81201">
        <ele>269</ele>
        <time>2021-07-31T07:06:21.000Z</time>
      </trkpt>
      <trkpt lat="49.76188" lon="4.81195">
        <ele>269</ele>
        <time>2021-07-31T07:06:22.000Z</time>
      </trkpt>
      <trkpt lat="49.76189" lon="4.81189">
        <ele>269</ele>
        <time>2021-07-31T07:06:23.000Z</time>
      </trkpt>
      <trkpt lat="49.7619" lon="4.81183">
        <ele>269</ele>
        <time>2021-07-31T07:06:24.000Z</time>
      </trkpt>
      <trkpt lat="49.7619" lon="4.81177">
        <ele>269</ele>
        <time>2021-07-31T07:06:25.000Z</time>
      </trkpt>
      <trkpt lat="49.7619" lon="4.81171">
        <ele>269</ele>
        <time>2021-07-31T07:06:26.000Z</time>
      </trkpt>
      <trkpt lat="49.7619" lon="4.81164">
        <ele>269</ele>
        <time>2021-07-31T07:06:27.000Z</time>
      </trkpt>
      <trkpt lat="49.7619" lon="4.81157">
        <ele>269</ele>
        <time>2021-07-31T07:06:28.000Z</time>
      </trkpt>
      <trkpt lat="49.76191" lon="4.8115">
        <ele>269</ele>
        <time>2021-07-31T07:06:29.000Z</time>
      </trkpt>
      <trkpt lat="49.76192" lon="4.81143">
        <ele>269</ele>
        <time>2021-07-31T07:06:30.000Z</time>
      </trkpt>
      <trkpt lat="49.76193" lon="4.81136">
        <ele>269</ele>
        <time>2021-07-31T07:06:31.000Z</time>
      </trkpt>
      <trkpt lat="49.76193" lon="4.81129">
        <ele>269</ele>
        <time>2021-07-31T07:06:32.000Z</time>
      </trkpt>
      <trkpt lat="49.76193" lon="4.81121">
        <ele>269</ele>
        <time>2021-07-31T07:06:33.000Z</time>
      </trkpt>
      <trkpt lat="49.76193" lon="4.81114">
        <ele>269</ele>
        <time>2021-07-31T07:06:34.000Z</time>
      </trkpt>
      <trkpt lat="49.76194" lon="4.81106">
        <ele>269</ele>
        <time>2021-07-31T07:06:35.000Z</time>
      </trkpt>
      <trkpt lat="49.76194" lon="4.81099">
        <ele>269</ele>
        <time>2021-07-31T07:06:36.000Z</time>
      </trkpt>
      <trkpt lat="49.76194" lon="4.8109">
        <ele>269</ele>
        <time>2021-07-31T07:06:37.000Z</time>
      </trkpt>
      <trkpt lat="49.76195" lon="4.81083">
        <ele>269</ele>
        <time>2021-07-31T07:06:38.000Z</time>
      </trkpt>
      <trkpt lat="49.76195" lon="4.81074">
        <ele>269</ele>
        <time>2021-07-31T07:06:39.000Z</time>
      </trkpt>
      <trkpt lat="49.76196" lon="4.81064">
        <ele>269</ele>
        <time>2021-07-31T07:06:40.000Z</time>
      </trkpt>
      <trkpt lat="49.76197" lon="4.81056">
        <ele>268</ele>
        <time>2021-07-31T07:06:41.000Z</time>
      </trkpt>
      <trkpt lat="49.76198" lon="4.81048">
        <ele>268</ele>
        <time>2021-07-31T07:06:42.000Z</time>
      </trkpt>
      <trkpt lat="49.76198" lon="4.8104">
        <ele>268</ele>
        <time>2021-07-31T07:06:43.000Z</time>
      </trkpt>
      <trkpt lat="49.76198" lon="4.81033">
        <ele>268</ele>
        <time>2021-07-31T07:06:44.000Z</time>
      </trkpt>
      <trkpt lat="49.76199" lon="4.81025">
        <ele>268</ele>
        <time>2021-07-31T07:06:45.000Z</time>
      </trkpt>
      <trkpt lat="49.762" lon="4.81018">
        <ele>268</ele>
        <time>2021-07-31T07:06:46.000Z</time>
      </trkpt>
      <trkpt lat="49.76201" lon="4.81011">
        <ele>268</ele>
        <time>2021-07-31T07:06:47.000Z</time>
      </trkpt>
      <trkpt lat="49.76201" lon="4.81004">
        <ele>268</ele>
        <time>2021-07-31T07:06:48.000Z</time>
      </trkpt>
      <trkpt lat="49.76202" lon="4.80996">
        <ele>268</ele>
        <time>2021-07-31T07:06:49.000Z</time>
      </trkpt>
      <trkpt lat="49.76202" lon="4.80989">
        <ele>268</ele>
        <time>2021-07-31T07:06:50.000Z</time>
      </trkpt>
      <trkpt lat="49.76202" lon="4.80982">
        <ele>268</ele>
        <time>2021-07-31T07:06:51.000Z</time>
      </trkpt>
      <trkpt lat="49.76202" lon="4.80976">
        <ele>268</ele>
        <time>2021-07-31T07:06:52.000Z</time>
      </trkpt>
      <trkpt lat="49.76202" lon="4.80969">
        <ele>268</ele>
        <time>2021-07-31T07:06:53.000Z</time>
      </trkpt>
      <trkpt lat="49.76202" lon="4.80962">
        <ele>268</ele>
        <time>2021-07-31T07:06:54.000Z</time>
      </trkpt>
      <trkpt lat="49.76201" lon="4.80956">
        <ele>269</ele>
        <time>2021-07-31T07:06:55.000Z</time>
      </trkpt>
      <trkpt lat="49.76201" lon="4.80949">
        <ele>268</ele>
        <time>2021-07-31T07:06:56.000Z</time>
      </trkpt>
      <trkpt lat="49.762" lon="4.80942">
        <ele>268</ele>
        <time>2021-07-31T07:06:57.000Z</time>
      </trkpt>
      <trkpt lat="49.76199" lon="4.80934">
        <ele>268</ele>
        <time>2021-07-31T07:06:58.000Z</time>
      </trkpt>
      <trkpt lat="49.76201" lon="4.80925">
        <ele>268</ele>
        <time>2021-07-31T07:06:59.000Z</time>
      </trkpt>
      <trkpt lat="49.76203" lon="4.80918">
        <ele>268</ele>
        <time>2021-07-31T07:07:00.000Z</time>
      </trkpt>
      <trkpt lat="49.76207" lon="4.80914">
        <ele>268</ele>
        <time>2021-07-31T07:07:01.000Z</time>
      </trkpt>
      <trkpt lat="49.76211" lon="4.80912">
        <ele>268</ele>
        <time>2021-07-31T07:07:02.000Z</time>
      </trkpt>
      <trkpt lat="49.76215" lon="4.80911">
        <ele>268</ele>
        <time>2021-07-31T07:07:03.000Z</time>
      </trkpt>
      <trkpt lat="49.7622" lon="4.80911">
        <ele>268</ele>
        <time>2021-07-31T07:07:04.000Z</time>
      </trkpt>
      <trkpt lat="49.76223" lon="4.80912">
        <ele>268</ele>
        <time>2021-07-31T07:07:05.000Z</time>
      </trkpt>
      <trkpt lat="49.76227" lon="4.80913">
        <ele>268</ele>
        <time>2021-07-31T07:07:06.000Z</time>
      </trkpt>
      <trkpt lat="49.7623" lon="4.80914">
        <ele>268</ele>
        <time>2021-07-31T07:07:07.000Z</time>
      </trkpt>
      <trkpt lat="49.76233" lon="4.80915">
        <ele>268</ele>
        <time>2021-07-31T07:07:08.000Z</time>
      </trkpt>
      <trkpt lat="49.76236" lon="4.80916">
        <ele>268</ele>
        <time>2021-07-31T07:07:09.000Z</time>
      </trkpt>
      <trkpt lat="49.76239" lon="4.80918">
        <ele>268</ele>
        <time>2021-07-31T07:07:10.000Z</time>
      </trkpt>
      <trkpt lat="49.76242" lon="4.80919">
        <ele>268</ele>
        <time>2021-07-31T07:07:11.000Z</time>
      </trkpt>
      <trkpt lat="49.76245" lon="4.8092">
        <ele>269</ele>
        <time>2021-07-31T07:07:12.000Z</time>
      </trkpt>
      <trkpt lat="49.76248" lon="4.80921">
        <ele>269</ele>
        <time>2021-07-31T07:07:13.000Z</time>
      </trkpt>
      <trkpt lat="49.76251" lon="4.80922">
        <ele>269</ele>
        <time>2021-07-31T07:07:14.000Z</time>
      </trkpt>
      <trkpt lat="49.76254" lon="4.80923">
        <ele>269</ele>
        <time>2021-07-31T07:07:15.000Z</time>
      </trkpt>
      <trkpt lat="49.76256" lon="4.80924">
        <ele>269</ele>
        <time>2021-07-31T07:07:16.000Z</time>
      </trkpt>
      <trkpt lat="49.76259" lon="4.80925">
        <ele>269</ele>
        <time>2021-07-31T07:07:17.000Z</time>
      </trkpt>
      <trkpt lat="49.76262" lon="4.80926">
        <ele>269</ele>
        <time>2021-07-31T07:07:18.000Z</time>
      </trkpt>
      <trkpt lat="49.76265" lon="4.80928">
        <ele>269</ele>
        <time>2021-07-31T07:07:19.000Z</time>
      </trkpt>
      <trkpt lat="49.76267" lon="4.80929">
        <ele>269</ele>
        <time>2021-07-31T07:07:20.000Z</time>
      </trkpt>
      <trkpt lat="49.7627" lon="4.8093">
        <ele>269</ele>
        <time>2021-07-31T07:07:21.000Z</time>
      </trkpt>
      <trkpt lat="49.76273" lon="4.80931">
        <ele>269</ele>
        <time>2021-07-31T07:07:22.000Z</time>
      </trkpt>
      <trkpt lat="49.76275" lon="4.80932">
        <ele>269</ele>
        <time>2021-07-31T07:07:23.000Z</time>
      </trkpt>
      <trkpt lat="49.76278" lon="4.80933">
        <ele>269</ele>
        <time>2021-07-31T07:07:24.000Z</time>
      </trkpt>
      <trkpt lat="49.76281" lon="4.80934">
        <ele>269</ele>
        <time>2021-07-31T07:07:25.000Z</time>
      </trkpt>
      <trkpt lat="49.76284" lon="4.80936">
        <ele>269</ele>
        <time>2021-07-31T07:07:26.000Z</time>
      </trkpt>
      <trkpt lat="49.76287" lon="4.80937">
        <ele>269</ele>
        <time>2021-07-31T07:07:27.000Z</time>
      </trkpt>
      <trkpt lat="49.7629" lon="4.80938">
        <ele>269</ele>
        <time>2021-07-31T07:07:28.000Z</time>
      </trkpt>
      <trkpt lat="49.76292" lon="4.80939">
        <ele>270</ele>
        <time>2021-07-31T07:07:29.000Z</time>
      </trkpt>
      <trkpt lat="49.76295" lon="4.8094">
        <ele>270</ele>
        <time>2021-07-31T07:07:30.000Z</time>
      </trkpt>
      <trkpt lat="49.76298" lon="4.80941">
        <ele>270</ele>
        <time>2021-07-31T07:07:31.000Z</time>
      </trkpt>
      <trkpt lat="49.76301" lon="4.8094">
        <ele>270</ele>
        <time>2021-07-31T07:07:32.000Z</time>
      </trkpt>
      <trkpt lat="49.76303" lon="4.80938">
        <ele>270</ele>
        <time>2021-07-31T07:07:33.000Z</time>
      </trkpt>
      <trkpt lat="49.76305" lon="4.80935">
        <ele>270</ele>
        <time>2021-07-31T07:07:34.000Z</time>
      </trkpt>
      <trkpt lat="49.76306" lon="4.80929">
        <ele>270</ele>
        <time>2021-07-31T07:07:35.000Z</time>
      </trkpt>
      <trkpt lat="49.76307" lon="4.80924">
        <ele>270</ele>
        <time>2021-07-31T07:07:36.000Z</time>
      </trkpt>
      <trkpt lat="49.76307" lon="4.80918">
        <ele>271</ele>
        <time>2021-07-31T07:07:37.000Z</time>
      </trkpt>
      <trkpt lat="49.76308" lon="4.80912">
        <ele>271</ele>
        <time>2021-07-31T07:07:38.000Z</time>
      </trkpt>
      <trkpt lat="49.76309" lon="4.80907">
        <ele>271</ele>
        <time>2021-07-31T07:07:39.000Z</time>
      </trkpt>
      <trkpt lat="49.7631" lon="4.80901">
        <ele>271</ele>
        <time>2021-07-31T07:07:40.000Z</time>
      </trkpt>
      <trkpt lat="49.7631" lon="4.80896">
        <ele>271</ele>
        <time>2021-07-31T07:07:41.000Z</time>
      </trkpt>
      <trkpt lat="49.76311" lon="4.8089">
        <ele>271</ele>
        <time>2021-07-31T07:07:42.000Z</time>
      </trkpt>
      <trkpt lat="49.76311" lon="4.80883">
        <ele>271</ele>
        <time>2021-07-31T07:07:43.000Z</time>
      </trkpt>
      <trkpt lat="49.76312" lon="4.80876">
        <ele>272</ele>
        <time>2021-07-31T07:07:44.000Z</time>
      </trkpt>
      <trkpt lat="49.76312" lon="4.8087">
        <ele>272</ele>
        <time>2021-07-31T07:07:45.000Z</time>
      </trkpt>
      <trkpt lat="49.76313" lon="4.80865">
        <ele>272</ele>
        <time>2021-07-31T07:07:46.000Z</time>
      </trkpt>
      <trkpt lat="49.76314" lon="4.80859">
        <ele>272</ele>
        <time>2021-07-31T07:07:47.000Z</time>
      </trkpt>
      <trkpt lat="49.76314" lon="4.80853">
        <ele>272</ele>
        <time>2021-07-31T07:07:48.000Z</time>
      </trkpt>
      <trkpt lat="49.76314" lon="4.80847">
        <ele>272</ele>
        <time>2021-07-31T07:07:49.000Z</time>
      </trkpt>
      <trkpt lat="49.76314" lon="4.8084">
        <ele>272</ele>
        <time>2021-07-31T07:07:50.000Z</time>
      </trkpt>
      <trkpt lat="49.76313" lon="4.80832">
        <ele>272</ele>
        <time>2021-07-31T07:07:51.000Z</time>
      </trkpt>
      <trkpt lat="49.76313" lon="4.80825">
        <ele>273</ele>
        <time>2021-07-31T07:07:52.000Z</time>
      </trkpt>
      <trkpt lat="49.76313" lon="4.80818">
        <ele>273</ele>
        <time>2021-07-31T07:07:53.000Z</time>
      </trkpt>
      <trkpt lat="49.76312" lon="4.80811">
        <ele>273</ele>
        <time>2021-07-31T07:07:54.000Z</time>
      </trkpt>
      <trkpt lat="49.76311" lon="4.80804">
        <ele>273</ele>
        <time>2021-07-31T07:07:55.000Z</time>
      </trkpt>
      <trkpt lat="49.76311" lon="4.80797">
        <ele>273</ele>
        <time>2021-07-31T07:07:56.000Z</time>
      </trkpt>
      <trkpt lat="49.7631" lon="4.8079">
        <ele>273</ele>
        <time>2021-07-31T07:07:57.000Z</time>
      </trkpt>
      <trkpt lat="49.7631" lon="4.80783">
        <ele>273</ele>
        <time>2021-07-31T07:07:58.000Z</time>
      </trkpt>
      <trkpt lat="49.76311" lon="4.80776">
        <ele>273</ele>
        <time>2021-07-31T07:07:59.000Z</time>
      </trkpt>
      <trkpt lat="49.76311" lon="4.80769">
        <ele>273</ele>
        <time>2021-07-31T07:08:00.000Z</time>
      </trkpt>
      <trkpt lat="49.76311" lon="4.80763">
        <ele>273</ele>
        <time>2021-07-31T07:08:01.000Z</time>
      </trkpt>
      <trkpt lat="49.76312" lon="4.80756">
        <ele>273</ele>
        <time>2021-07-31T07:08:02.000Z</time>
      </trkpt>
      <trkpt lat="49.76313" lon="4.8075">
        <ele>273</ele>
        <time>2021-07-31T07:08:03.000Z</time>
      </trkpt>
      <trkpt lat="49.76315" lon="4.80745">
        <ele>273</ele>
        <time>2021-07-31T07:08:04.000Z</time>
      </trkpt>
      <trkpt lat="49.76316" lon="4.80739">
        <ele>273</ele>
        <time>2021-07-31T07:08:05.000Z</time>
      </trkpt>
      <trkpt lat="49.76319" lon="4.80734">
        <ele>274</ele>
        <time>2021-07-31T07:08:06.000Z</time>
      </trkpt>
      <trkpt lat="49.76321" lon="4.80728">
        <ele>274</ele>
        <time>2021-07-31T07:08:07.000Z</time>
      </trkpt>
      <trkpt lat="49.76323" lon="4.80723">
        <ele>274</ele>
        <time>2021-07-31T07:08:08.000Z</time>
      </trkpt>
      <trkpt lat="49.76325" lon="4.80718">
        <ele>274</ele>
        <time>2021-07-31T07:08:09.000Z</time>
      </trkpt>
      <trkpt lat="49.76328" lon="4.80713">
        <ele>274</ele>
        <time>2021-07-31T07:08:10.000Z</time>
      </trkpt>
      <trkpt lat="49.7633" lon="4.80708">
        <ele>274</ele>
        <time>2021-07-31T07:08:11.000Z</time>
      </trkpt>
      <trkpt lat="49.76333" lon="4.80703">
        <ele>274</ele>
        <time>2021-07-31T07:08:12.000Z</time>
      </trkpt>
      <trkpt lat="49.76335" lon="4.80698">
        <ele>274</ele>
        <time>2021-07-31T07:08:13.000Z</time>
      </trkpt>
      <trkpt lat="49.76338" lon="4.80694">
        <ele>274</ele>
        <time>2021-07-31T07:08:14.000Z</time>
      </trkpt>
      <trkpt lat="49.7634" lon="4.80689">
        <ele>274</ele>
        <time>2021-07-31T07:08:15.000Z</time>
      </trkpt>
      <trkpt lat="49.76343" lon="4.80684">
        <ele>274</ele>
        <time>2021-07-31T07:08:16.000Z</time>
      </trkpt>
      <trkpt lat="49.76346" lon="4.80679">
        <ele>274</ele>
        <time>2021-07-31T07:08:17.000Z</time>
      </trkpt>
      <trkpt lat="49.76349" lon="4.80674">
        <ele>274</ele>
        <time>2021-07-31T07:08:18.000Z</time>
      </trkpt>
      <trkpt lat="49.76353" lon="4.80668">
        <ele>274</ele>
        <time>2021-07-31T07:08:19.000Z</time>
      </trkpt>
      <trkpt lat="49.76357" lon="4.80662">
        <ele>274</ele>
        <time>2021-07-31T07:08:20.000Z</time>
      </trkpt>
      <trkpt lat="49.76361" lon="4.80657">
        <ele>274</ele>
        <time>2021-07-31T07:08:21.000Z</time>
      </trkpt>
      <trkpt lat="49.76366" lon="4.80652">
        <ele>274</ele>
        <time>2021-07-31T07:08:22.000Z</time>
      </trkpt>
      <trkpt lat="49.7637" lon="4.80648">
        <ele>274</ele>
        <time>2021-07-31T07:08:23.000Z</time>
      </trkpt>
      <trkpt lat="49.76375" lon="4.80644">
        <ele>274</ele>
        <time>2021-07-31T07:08:24.000Z</time>
      </trkpt>
      <trkpt lat="49.76379" lon="4.8064">
        <ele>274</ele>
        <time>2021-07-31T07:08:25.000Z</time>
      </trkpt>
      <trkpt lat="49.76384" lon="4.80637">
        <ele>274</ele>
        <time>2021-07-31T07:08:26.000Z</time>
      </trkpt>
      <trkpt lat="49.76388" lon="4.80633">
        <ele>274</ele>
        <time>2021-07-31T07:08:27.000Z</time>
      </trkpt>
      <trkpt lat="49.76393" lon="4.8063">
        <ele>274</ele>
        <time>2021-07-31T07:08:28.000Z</time>
      </trkpt>
      <trkpt lat="49.76398" lon="4.80626">
        <ele>274</ele>
        <time>2021-07-31T07:08:29.000Z</time>
      </trkpt>
      <trkpt lat="49.76404" lon="4.80622">
        <ele>274</ele>
        <time>2021-07-31T07:08:30.000Z</time>
      </trkpt>
      <trkpt lat="49.76409" lon="4.80619">
        <ele>274</ele>
        <time>2021-07-31T07:08:31.000Z</time>
      </trkpt>
      <trkpt lat="49.76414" lon="4.80615">
        <ele>274</ele>
        <time>2021-07-31T07:08:32.000Z</time>
      </trkpt>
      <trkpt lat="49.76419" lon="4.80612">
        <ele>274</ele>
        <time>2021-07-31T07:08:33.000Z</time>
      </trkpt>
      <trkpt lat="49.76425" lon="4.80608">
        <ele>274</ele>
        <time>2021-07-31T07:08:34.000Z</time>
      </trkpt>
      <trkpt lat="49.7643" lon="4.80605">
        <ele>274</ele>
        <time>2021-07-31T07:08:35.000Z</time>
      </trkpt>
      <trkpt lat="49.76435" lon="4.80601">
        <ele>274</ele>
        <time>2021-07-31T07:08:36.000Z</time>
      </trkpt>
      <trkpt lat="49.7644" lon="4.80597">
        <ele>274</ele>
        <time>2021-07-31T07:08:37.000Z</time>
      </trkpt>
      <trkpt lat="49.76445" lon="4.80594">
        <ele>273</ele>
        <time>2021-07-31T07:08:38.000Z</time>
      </trkpt>
      <trkpt lat="49.7645" lon="4.8059">
        <ele>274</ele>
        <time>2021-07-31T07:08:39.000Z</time>
      </trkpt>
      <trkpt lat="49.76455" lon="4.80585">
        <ele>273</ele>
        <time>2021-07-31T07:08:40.000Z</time>
      </trkpt>
      <trkpt lat="49.7646" lon="4.80581">
        <ele>273</ele>
        <time>2021-07-31T07:08:41.000Z</time>
      </trkpt>
      <trkpt lat="49.76466" lon="4.80577">
        <ele>273</ele>
        <time>2021-07-31T07:08:42.000Z</time>
      </trkpt>
      <trkpt lat="49.76471" lon="4.80573">
        <ele>273</ele>
        <time>2021-07-31T07:08:43.000Z</time>
      </trkpt>
      <trkpt lat="49.76476" lon="4.80568">
        <ele>273</ele>
        <time>2021-07-31T07:08:44.000Z</time>
      </trkpt>
      <trkpt lat="49.76481" lon="4.80564">
        <ele>274</ele>
        <time>2021-07-31T07:08:45.000Z</time>
      </trkpt>
      <trkpt lat="49.76486" lon="4.8056">
        <ele>274</ele>
        <time>2021-07-31T07:08:46.000Z</time>
      </trkpt>
      <trkpt lat="49.7649" lon="4.80556">
        <ele>274</ele>
        <time>2021-07-31T07:08:47.000Z</time>
      </trkpt>
      <trkpt lat="49.76495" lon="4.80552">
        <ele>274</ele>
        <time>2021-07-31T07:08:48.000Z</time>
      </trkpt>
      <trkpt lat="49.76499" lon="4.80548">
        <ele>274</ele>
        <time>2021-07-31T07:08:49.000Z</time>
      </trkpt>
      <trkpt lat="49.76503" lon="4.80544">
        <ele>274</ele>
        <time>2021-07-31T07:08:50.000Z</time>
      </trkpt>
      <trkpt lat="49.76508" lon="4.8054">
        <ele>274</ele>
        <time>2021-07-31T07:08:51.000Z</time>
      </trkpt>
      <trkpt lat="49.76512" lon="4.80536">
        <ele>274</ele>
        <time>2021-07-31T07:08:52.000Z</time>
      </trkpt>
      <trkpt lat="49.76516" lon="4.80532">
        <ele>274</ele>
        <time>2021-07-31T07:08:53.000Z</time>
      </trkpt>
      <trkpt lat="49.76521" lon="4.80528">
        <ele>274</ele>
        <time>2021-07-31T07:08:54.000Z</time>
      </trkpt>
      <trkpt lat="49.76525" lon="4.80524">
        <ele>274</ele>
        <time>2021-07-31T07:08:55.000Z</time>
      </trkpt>
      <trkpt lat="49.76529" lon="4.80521">
        <ele>274</ele>
        <time>2021-07-31T07:08:56.000Z</time>
      </trkpt>
      <trkpt lat="49.76533" lon="4.8052">
        <ele>274</ele>
        <time>2021-07-31T07:08:57.000Z</time>
      </trkpt>
      <trkpt lat="49.76537" lon="4.80519">
        <ele>274</ele>
        <time>2021-07-31T07:08:58.000Z</time>
      </trkpt>
      <trkpt lat="49.76542" lon="4.80517">
        <ele>274</ele>
        <time>2021-07-31T07:08:59.000Z</time>
      </trkpt>
      <trkpt lat="49.76546" lon="4.80516">
        <ele>274</ele>
        <time>2021-07-31T07:09:00.000Z</time>
      </trkpt>
      <trkpt lat="49.7655" lon="4.80514">
        <ele>274</ele>
        <time>2021-07-31T07:09:01.000Z</time>
      </trkpt>
      <trkpt lat="49.76554" lon="4.80513">
        <ele>275</ele>
        <time>2021-07-31T07:09:02.000Z</time>
      </trkpt>
      <trkpt lat="49.76558" lon="4.80511">
        <ele>275</ele>
        <time>2021-07-31T07:09:03.000Z</time>
      </trkpt>
      <trkpt lat="49.76562" lon="4.8051">
        <ele>275</ele>
        <time>2021-07-31T07:09:04.000Z</time>
      </trkpt>
      <trkpt lat="49.76566" lon="4.80508">
        <ele>275</ele>
        <time>2021-07-31T07:09:05.000Z</time>
      </trkpt>
      <trkpt lat="49.76569" lon="4.80507">
        <ele>275</ele>
        <time>2021-07-31T07:09:06.000Z</time>
      </trkpt>
      <trkpt lat="49.76572" lon="4.80506">
        <ele>275</ele>
        <time>2021-07-31T07:09:07.000Z</time>
      </trkpt>
      <trkpt lat="49.76576" lon="4.80504">
        <ele>275</ele>
        <time>2021-07-31T07:09:08.000Z</time>
      </trkpt>
      <trkpt lat="49.7658" lon="4.80503">
        <ele>275</ele>
        <time>2021-07-31T07:09:09.000Z</time>
      </trkpt>
      <trkpt lat="49.76584" lon="4.80502">
        <ele>275</ele>
        <time>2021-07-31T07:09:10.000Z</time>
      </trkpt>
      <trkpt lat="49.76588" lon="4.80501">
        <ele>275</ele>
        <time>2021-07-31T07:09:11.000Z</time>
      </trkpt>
      <trkpt lat="49.76592" lon="4.80499">
        <ele>275</ele>
        <time>2021-07-31T07:09:12.000Z</time>
      </trkpt>
      <trkpt lat="49.76596" lon="4.80498">
        <ele>275</ele>
        <time>2021-07-31T07:09:13.000Z</time>
      </trkpt>
      <trkpt lat="49.766" lon="4.80497">
        <ele>276</ele>
        <time>2021-07-31T07:09:14.000Z</time>
      </trkpt>
      <trkpt lat="49.76604" lon="4.80495">
        <ele>276</ele>
        <time>2021-07-31T07:09:15.000Z</time>
      </trkpt>
      <trkpt lat="49.76608" lon="4.80494">
        <ele>276</ele>
        <time>2021-07-31T07:09:16.000Z</time>
      </trkpt>
      <trkpt lat="49.76612" lon="4.80492">
        <ele>276</ele>
        <time>2021-07-31T07:09:17.000Z</time>
      </trkpt>
      <trkpt lat="49.76615" lon="4.80491">
        <ele>276</ele>
        <time>2021-07-31T07:09:18.000Z</time>
      </trkpt>
      <trkpt lat="49.76618" lon="4.8049">
        <ele>277</ele>
        <time>2021-07-31T07:09:19.000Z</time>
      </trkpt>
      <trkpt lat="49.76621" lon="4.80488">
        <ele>277</ele>
        <time>2021-07-31T07:09:20.000Z</time>
      </trkpt>
      <trkpt lat="49.76625" lon="4.80487">
        <ele>277</ele>
        <time>2021-07-31T07:09:21.000Z</time>
      </trkpt>
      <trkpt lat="49.76629" lon="4.80486">
        <ele>277</ele>
        <time>2021-07-31T07:09:22.000Z</time>
      </trkpt>
      <trkpt lat="49.76632" lon="4.80484">
        <ele>277</ele>
        <time>2021-07-31T07:09:23.000Z</time>
      </trkpt>
      <trkpt lat="49.76636" lon="4.80483">
        <ele>278</ele>
        <time>2021-07-31T07:09:24.000Z</time>
      </trkpt>
      <trkpt lat="49.76639" lon="4.80482">
        <ele>278</ele>
        <time>2021-07-31T07:09:25.000Z</time>
      </trkpt>
      <trkpt lat="49.76643" lon="4.8048">
        <ele>278</ele>
        <time>2021-07-31T07:09:26.000Z</time>
      </trkpt>
      <trkpt lat="49.76647" lon="4.80479">
        <ele>279</ele>
        <time>2021-07-31T07:09:27.000Z</time>
      </trkpt>
      <trkpt lat="49.76651" lon="4.80479">
        <ele>279</ele>
        <time>2021-07-31T07:09:28.000Z</time>
      </trkpt>
      <trkpt lat="49.76656" lon="4.80479">
        <ele>279</ele>
        <time>2021-07-31T07:09:29.000Z</time>
      </trkpt>
      <trkpt lat="49.76661" lon="4.8048">
        <ele>279</ele>
        <time>2021-07-31T07:09:30.000Z</time>
      </trkpt>
      <trkpt lat="49.76667" lon="4.80481">
        <ele>280</ele>
        <time>2021-07-31T07:09:31.000Z</time>
      </trkpt>
      <trkpt lat="49.76672" lon="4.80481">
        <ele>280</ele>
        <time>2021-07-31T07:09:32.000Z</time>
      </trkpt>
      <trkpt lat="49.76678" lon="4.8048">
        <ele>280</ele>
        <time>2021-07-31T07:09:33.000Z</time>
      </trkpt>
      <trkpt lat="49.76683" lon="4.80479">
        <ele>280</ele>
        <time>2021-07-31T07:09:34.000Z</time>
      </trkpt>
      <trkpt lat="49.76688" lon="4.80478">
        <ele>280</ele>
        <time>2021-07-31T07:09:35.000Z</time>
      </trkpt>
      <trkpt lat="49.76693" lon="4.80476">
        <ele>281</ele>
        <time>2021-07-31T07:09:36.000Z</time>
      </trkpt>
      <trkpt lat="49.76699" lon="4.80474">
        <ele>281</ele>
        <time>2021-07-31T07:09:37.000Z</time>
      </trkpt>
      <trkpt lat="49.76704" lon="4.80473">
        <ele>281</ele>
        <time>2021-07-31T07:09:38.000Z</time>
      </trkpt>
      <trkpt lat="49.76709" lon="4.80471">
        <ele>281</ele>
        <time>2021-07-31T07:09:39.000Z</time>
      </trkpt>
      <trkpt lat="49.76714" lon="4.80469">
        <ele>281</ele>
        <time>2021-07-31T07:09:40.000Z</time>
      </trkpt>
      <trkpt lat="49.7672" lon="4.80468">
        <ele>281</ele>
        <time>2021-07-31T07:09:41.000Z</time>
      </trkpt>
      <trkpt lat="49.76725" lon="4.80467">
        <ele>281</ele>
        <time>2021-07-31T07:09:42.000Z</time>
      </trkpt>
      <trkpt lat="49.76731" lon="4.80465">
        <ele>281</ele>
        <time>2021-07-31T07:09:43.000Z</time>
      </trkpt>
      <trkpt lat="49.76736" lon="4.80463">
        <ele>281</ele>
        <time>2021-07-31T07:09:44.000Z</time>
      </trkpt>
      <trkpt lat="49.76741" lon="4.80462">
        <ele>281</ele>
        <time>2021-07-31T07:09:45.000Z</time>
      </trkpt>
      <trkpt lat="49.76746" lon="4.8046">
        <ele>281</ele>
        <time>2021-07-31T07:09:46.000Z</time>
      </trkpt>
      <trkpt lat="49.76751" lon="4.80459">
        <ele>281</ele>
        <time>2021-07-31T07:09:47.000Z</time>
      </trkpt>
      <trkpt lat="49.76756" lon="4.80458">
        <ele>281</ele>
        <time>2021-07-31T07:09:48.000Z</time>
      </trkpt>
      <trkpt lat="49.76762" lon="4.80457">
        <ele>280</ele>
        <time>2021-07-31T07:09:49.000Z</time>
      </trkpt>
      <trkpt lat="49.76767" lon="4.80456">
        <ele>280</ele>
        <time>2021-07-31T07:09:50.000Z</time>
      </trkpt>
      <trkpt lat="49.76772" lon="4.80455">
        <ele>280</ele>
        <time>2021-07-31T07:09:51.000Z</time>
      </trkpt>
      <trkpt lat="49.76776" lon="4.80454">
        <ele>280</ele>
        <time>2021-07-31T07:09:52.000Z</time>
      </trkpt>
      <trkpt lat="49.76781" lon="4.80452">
        <ele>280</ele>
        <time>2021-07-31T07:09:53.000Z</time>
      </trkpt>
      <trkpt lat="49.76786" lon="4.8045">
        <ele>279</ele>
        <time>2021-07-31T07:09:54.000Z</time>
      </trkpt>
      <trkpt lat="49.76791" lon="4.80448">
        <ele>279</ele>
        <time>2021-07-31T07:09:55.000Z</time>
      </trkpt>
      <trkpt lat="49.76796" lon="4.80446">
        <ele>279</ele>
        <time>2021-07-31T07:09:56.000Z</time>
      </trkpt>
      <trkpt lat="49.76801" lon="4.80444">
        <ele>279</ele>
        <time>2021-07-31T07:09:57.000Z</time>
      </trkpt>
      <trkpt lat="49.76806" lon="4.80441">
        <ele>279</ele>
        <time>2021-07-31T07:09:58.000Z</time>
      </trkpt>
      <trkpt lat="49.7681" lon="4.80438">
        <ele>279</ele>
        <time>2021-07-31T07:09:59.000Z</time>
      </trkpt>
      <trkpt lat="49.76815" lon="4.80435">
        <ele>279</ele>
        <time>2021-07-31T07:10:00.000Z</time>
      </trkpt>
      <trkpt lat="49.76819" lon="4.80431">
        <ele>279</ele>
        <time>2021-07-31T07:10:01.000Z</time>
      </trkpt>
      <trkpt lat="49.76824" lon="4.80428">
        <ele>279</ele>
        <time>2021-07-31T07:10:02.000Z</time>
      </trkpt>
      <trkpt lat="49.76829" lon="4.80426">
        <ele>279</ele>
        <time>2021-07-31T07:10:03.000Z</time>
      </trkpt>
      <trkpt lat="49.76832" lon="4.80423">
        <ele>280</ele>
        <time>2021-07-31T07:10:04.000Z</time>
      </trkpt>
      <trkpt lat="49.76836" lon="4.80419">
        <ele>280</ele>
        <time>2021-07-31T07:10:05.000Z</time>
      </trkpt>
      <trkpt lat="49.7684" lon="4.80414">
        <ele>280</ele>
        <time>2021-07-31T07:10:06.000Z</time>
      </trkpt>
      <trkpt lat="49.76844" lon="4.8041">
        <ele>280</ele>
        <time>2021-07-31T07:10:07.000Z</time>
      </trkpt>
      <trkpt lat="49.76848" lon="4.80406">
        <ele>280</ele>
        <time>2021-07-31T07:10:08.000Z</time>
      </trkpt>
      <trkpt lat="49.76853" lon="4.80403">
        <ele>280</ele>
        <time>2021-07-31T07:10:09.000Z</time>
      </trkpt>
      <trkpt lat="49.76857" lon="4.80401">
        <ele>281</ele>
        <time>2021-07-31T07:10:10.000Z</time>
      </trkpt>
      <trkpt lat="49.76862" lon="4.80399">
        <ele>281</ele>
        <time>2021-07-31T07:10:11.000Z</time>
      </trkpt>
      <trkpt lat="49.76866" lon="4.80397">
        <ele>281</ele>
        <time>2021-07-31T07:10:12.000Z</time>
      </trkpt>
      <trkpt lat="49.76871" lon="4.80395">
        <ele>281</ele>
        <time>2021-07-31T07:10:13.000Z</time>
      </trkpt>
      <trkpt lat="49.76875" lon="4.80393">
        <ele>281</ele>
        <time>2021-07-31T07:10:14.000Z</time>
      </trkpt>
      <trkpt lat="49.76879" lon="4.80391">
        <ele>281</ele>
        <time>2021-07-31T07:10:15.000Z</time>
      </trkpt>
      <trkpt lat="49.76883" lon="4.80389">
        <ele>281</ele>
        <time>2021-07-31T07:10:16.000Z</time>
      </trkpt>
      <trkpt lat="49.76886" lon="4.80387">
        <ele>281</ele>
        <time>2021-07-31T07:10:17.000Z</time>
      </trkpt>
      <trkpt lat="49.7689" lon="4.80384">
        <ele>282</ele>
        <time>2021-07-31T07:10:18.000Z</time>
      </trkpt>
      <trkpt lat="49.76894" lon="4.8038">
        <ele>282</ele>
        <time>2021-07-31T07:10:19.000Z</time>
      </trkpt>
      <trkpt lat="49.76897" lon="4.80376">
        <ele>282</ele>
        <time>2021-07-31T07:10:20.000Z</time>
      </trkpt>
      <trkpt lat="49.76901" lon="4.80372">
        <ele>282</ele>
        <time>2021-07-31T07:10:21.000Z</time>
      </trkpt>
      <trkpt lat="49.76905" lon="4.80367">
        <ele>282</ele>
        <time>2021-07-31T07:10:22.000Z</time>
      </trkpt>
      <trkpt lat="49.76908" lon="4.80362">
        <ele>282</ele>
        <time>2021-07-31T07:10:23.000Z</time>
      </trkpt>
      <trkpt lat="49.76912" lon="4.80357">
        <ele>282</ele>
        <time>2021-07-31T07:10:24.000Z</time>
      </trkpt>
      <trkpt lat="49.76915" lon="4.80351">
        <ele>282</ele>
        <time>2021-07-31T07:10:25.000Z</time>
      </trkpt>
      <trkpt lat="49.76919" lon="4.80346">
        <ele>283</ele>
        <time>2021-07-31T07:10:26.000Z</time>
      </trkpt>
      <trkpt lat="49.76923" lon="4.80341">
        <ele>283</ele>
        <time>2021-07-31T07:10:27.000Z</time>
      </trkpt>
      <trkpt lat="49.76927" lon="4.80337">
        <ele>283</ele>
        <time>2021-07-31T07:10:28.000Z</time>
      </trkpt>
      <trkpt lat="49.7693" lon="4.80334">
        <ele>283</ele>
        <time>2021-07-31T07:10:29.000Z</time>
      </trkpt>
      <trkpt lat="49.76933" lon="4.80331">
        <ele>284</ele>
        <time>2021-07-31T07:10:30.000Z</time>
      </trkpt>
      <trkpt lat="49.76936" lon="4.80329">
        <ele>284</ele>
        <time>2021-07-31T07:10:31.000Z</time>
      </trkpt>
      <trkpt lat="49.76939" lon="4.80327">
        <ele>284</ele>
        <time>2021-07-31T07:10:32.000Z</time>
      </trkpt>
      <trkpt lat="49.76942" lon="4.80325">
        <ele>284</ele>
        <time>2021-07-31T07:10:33.000Z</time>
      </trkpt>
      <trkpt lat="49.76944" lon="4.80323">
        <ele>284</ele>
        <time>2021-07-31T07:10:34.000Z</time>
      </trkpt>
      <trkpt lat="49.76946" lon="4.80321">
        <ele>284</ele>
        <time>2021-07-31T07:10:35.000Z</time>
      </trkpt>
      <trkpt lat="49.76949" lon="4.80318">
        <ele>285</ele>
        <time>2021-07-31T07:10:36.000Z</time>
      </trkpt>
      <trkpt lat="49.76951" lon="4.80316">
        <ele>285</ele>
        <time>2021-07-31T07:10:37.000Z</time>
      </trkpt>
      <trkpt lat="49.76953" lon="4.80313">
        <ele>285</ele>
        <time>2021-07-31T07:10:38.000Z</time>
      </trkpt>
      <trkpt lat="49.76955" lon="4.8031">
        <ele>285</ele>
        <time>2021-07-31T07:10:39.000Z</time>
      </trkpt>
      <trkpt lat="49.76958" lon="4.80307">
        <ele>286</ele>
        <time>2021-07-31T07:10:40.000Z</time>
      </trkpt>
      <trkpt lat="49.76959" lon="4.80305">
        <ele>286</ele>
        <time>2021-07-31T07:10:41.000Z</time>
      </trkpt>
      <trkpt lat="49.76961" lon="4.80302">
        <ele>286</ele>
        <time>2021-07-31T07:10:42.000Z</time>
      </trkpt>
      <trkpt lat="49.76963" lon="4.803">
        <ele>286</ele>
        <time>2021-07-31T07:10:43.000Z</time>
      </trkpt>
      <trkpt lat="49.76965" lon="4.80296">
        <ele>287</ele>
        <time>2021-07-31T07:10:44.000Z</time>
      </trkpt>
      <trkpt lat="49.76967" lon="4.80293">
        <ele>287</ele>
        <time>2021-07-31T07:10:45.000Z</time>
      </trkpt>
      <trkpt lat="49.76969" lon="4.80289">
        <ele>288</ele>
        <time>2021-07-31T07:10:46.000Z</time>
      </trkpt>
      <trkpt lat="49.76971" lon="4.80286">
        <ele>288</ele>
        <time>2021-07-31T07:10:47.000Z</time>
      </trkpt>
      <trkpt lat="49.76974" lon="4.80283">
        <ele>288</ele>
        <time>2021-07-31T07:10:48.000Z</time>
      </trkpt>
      <trkpt lat="49.76976" lon="4.8028">
        <ele>288</ele>
        <time>2021-07-31T07:10:49.000Z</time>
      </trkpt>
      <trkpt lat="49.76978" lon="4.80277">
        <ele>289</ele>
        <time>2021-07-31T07:10:50.000Z</time>
      </trkpt>
      <trkpt lat="49.7698" lon="4.80274">
        <ele>289</ele>
        <time>2021-07-31T07:10:51.000Z</time>
      </trkpt>
      <trkpt lat="49.76983" lon="4.80272">
        <ele>289</ele>
        <time>2021-07-31T07:10:52.000Z</time>
      </trkpt>
      <trkpt lat="49.76986" lon="4.80269">
        <ele>289</ele>
        <time>2021-07-31T07:10:53.000Z</time>
      </trkpt>
      <trkpt lat="49.76988" lon="4.80266">
        <ele>289</ele>
        <time>2021-07-31T07:10:54.000Z</time>
      </trkpt>
      <trkpt lat="49.7699" lon="4.80263">
        <ele>290</ele>
        <time>2021-07-31T07:10:55.000Z</time>
      </trkpt>
      <trkpt lat="49.76993" lon="4.8026">
        <ele>290</ele>
        <time>2021-07-31T07:10:56.000Z</time>
      </trkpt>
      <trkpt lat="49.76995" lon="4.80257">
        <ele>290</ele>
        <time>2021-07-31T07:10:57.000Z</time>
      </trkpt>
      <trkpt lat="49.76997" lon="4.80254">
        <ele>290</ele>
        <time>2021-07-31T07:10:58.000Z</time>
      </trkpt>
      <trkpt lat="49.76999" lon="4.80251">
        <ele>291</ele>
        <time>2021-07-31T07:10:59.000Z</time>
      </trkpt>
      <trkpt lat="49.77001" lon="4.80248">
        <ele>291</ele>
        <time>2021-07-31T07:11:00.000Z</time>
      </trkpt>
      <trkpt lat="49.77003" lon="4.80244">
        <ele>291</ele>
        <time>2021-07-31T07:11:01.000Z</time>
      </trkpt>
      <trkpt lat="49.77005" lon="4.80241">
        <ele>292</ele>
        <time>2021-07-31T07:11:02.000Z</time>
      </trkpt>
      <trkpt lat="49.77007" lon="4.80238">
        <ele>292</ele>
        <time>2021-07-31T07:11:03.000Z</time>
      </trkpt>
      <trkpt lat="49.77009" lon="4.80236">
        <ele>292</ele>
        <time>2021-07-31T07:11:04.000Z</time>
      </trkpt>
      <trkpt lat="49.77011" lon="4.80233">
        <ele>293</ele>
        <time>2021-07-31T07:11:05.000Z</time>
      </trkpt>
      <trkpt lat="49.77014" lon="4.80229">
        <ele>293</ele>
        <time>2021-07-31T07:11:06.000Z</time>
      </trkpt>
      <trkpt lat="49.77016" lon="4.80226">
        <ele>293</ele>
        <time>2021-07-31T07:11:07.000Z</time>
      </trkpt>
      <trkpt lat="49.77019" lon="4.80223">
        <ele>294</ele>
        <time>2021-07-31T07:11:08.000Z</time>
      </trkpt>
      <trkpt lat="49.77021" lon="4.8022">
        <ele>294</ele>
        <time>2021-07-31T07:11:09.000Z</time>
      </trkpt>
      <trkpt lat="49.77023" lon="4.80218">
        <ele>294</ele>
        <time>2021-07-31T07:11:10.000Z</time>
      </trkpt>
      <trkpt lat="49.77025" lon="4.80215">
        <ele>295</ele>
        <time>2021-07-31T07:11:11.000Z</time>
      </trkpt>
      <trkpt lat="49.77028" lon="4.80213">
        <ele>295</ele>
        <time>2021-07-31T07:11:12.000Z</time>
      </trkpt>
      <trkpt lat="49.77031" lon="4.8021">
        <ele>296</ele>
        <time>2021-07-31T07:11:13.000Z</time>
      </trkpt>
      <trkpt lat="49.77034" lon="4.80208">
        <ele>296</ele>
        <time>2021-07-31T07:11:14.000Z</time>
      </trkpt>
      <trkpt lat="49.77036" lon="4.80205">
        <ele>296</ele>
        <time>2021-07-31T07:11:15.000Z</time>
      </trkpt>
      <trkpt lat="49.77038" lon="4.80202">
        <ele>297</ele>
        <time>2021-07-31T07:11:16.000Z</time>
      </trkpt>
      <trkpt lat="49.77041" lon="4.80199">
        <ele>297</ele>
        <time>2021-07-31T07:11:17.000Z</time>
      </trkpt>
      <trkpt lat="49.77044" lon="4.80195">
        <ele>297</ele>
        <time>2021-07-31T07:11:18.000Z</time>
      </trkpt>
      <trkpt lat="49.77046" lon="4.80192">
        <ele>297</ele>
        <time>2021-07-31T07:11:19.000Z</time>
      </trkpt>
      <trkpt lat="49.77048" lon="4.80189">
        <ele>298</ele>
        <time>2021-07-31T07:11:20.000Z</time>
      </trkpt>
      <trkpt lat="49.77051" lon="4.80186">
        <ele>298</ele>
        <time>2021-07-31T07:11:21.000Z</time>
      </trkpt>
      <trkpt lat="49.77053" lon="4.80183">
        <ele>298</ele>
        <time>2021-07-31T07:11:22.000Z</time>
      </trkpt>
      <trkpt lat="49.77055" lon="4.80179">
        <ele>299</ele>
        <time>2021-07-31T07:11:23.000Z</time>
      </trkpt>
      <trkpt lat="49.77058" lon="4.80174">
        <ele>299</ele>
        <time>2021-07-31T07:11:24.000Z</time>
      </trkpt>
      <trkpt lat="49.7706" lon="4.8017">
        <ele>299</ele>
        <time>2021-07-31T07:11:25.000Z</time>
      </trkpt>
      <trkpt lat="49.77063" lon="4.80166">
        <ele>300</ele>
        <time>2021-07-31T07:11:26.000Z</time>
      </trkpt>
      <trkpt lat="49.77066" lon="4.80162">
        <ele>300</ele>
        <time>2021-07-31T07:11:27.000Z</time>
      </trkpt>
      <trkpt lat="49.77069" lon="4.80159">
        <ele>300</ele>
        <time>2021-07-31T07:11:28.000Z</time>
      </trkpt>
      <trkpt lat="49.77073" lon="4.80158">
        <ele>300</ele>
        <time>2021-07-31T07:11:29.000Z</time>
      </trkpt>
      <trkpt lat="49.77076" lon="4.80159">
        <ele>300</ele>
        <time>2021-07-31T07:11:30.000Z</time>
      </trkpt>
      <trkpt lat="49.77079" lon="4.80162">
        <ele>301</ele>
        <time>2021-07-31T07:11:31.000Z</time>
      </trkpt>
      <trkpt lat="49.77082" lon="4.80165">
        <ele>301</ele>
        <time>2021-07-31T07:11:32.000Z</time>
      </trkpt>
      <trkpt lat="49.77087" lon="4.80168">
        <ele>301</ele>
        <time>2021-07-31T07:11:33.000Z</time>
      </trkpt>
      <trkpt lat="49.77091" lon="4.80171">
        <ele>301</ele>
        <time>2021-07-31T07:11:34.000Z</time>
      </trkpt>
      <trkpt lat="49.77094" lon="4.80174">
        <ele>300</ele>
        <time>2021-07-31T07:11:35.000Z</time>
      </trkpt>
      <trkpt lat="49.77098" lon="4.80176">
        <ele>300</ele>
        <time>2021-07-31T07:11:36.000Z</time>
      </trkpt>
      <trkpt lat="49.77103" lon="4.8018">
        <ele>300</ele>
        <time>2021-07-31T07:11:37.000Z</time>
      </trkpt>
      <trkpt lat="49.77107" lon="4.80181">
        <ele>300</ele>
        <time>2021-07-31T07:11:38.000Z</time>
      </trkpt>
      <trkpt lat="49.77111" lon="4.80182">
        <ele>300</ele>
        <time>2021-07-31T07:11:39.000Z</time>
      </trkpt>
      <trkpt lat="49.77115" lon="4.80181">
        <ele>300</ele>
        <time>2021-07-31T07:11:40.000Z</time>
      </trkpt>
      <trkpt lat="49.77119" lon="4.80179">
        <ele>300</ele>
        <time>2021-07-31T07:11:41.000Z</time>
      </trkpt>
      <trkpt lat="49.77124" lon="4.80177">
        <ele>300</ele>
        <time>2021-07-31T07:11:42.000Z</time>
      </trkpt>
      <trkpt lat="49.77128" lon="4.80175">
        <ele>300</ele>
        <time>2021-07-31T07:11:43.000Z</time>
      </trkpt>
      <trkpt lat="49.77133" lon="4.80173">
        <ele>300</ele>
        <time>2021-07-31T07:11:44.000Z</time>
      </trkpt>
      <trkpt lat="49.77137" lon="4.80171">
        <ele>300</ele>
        <time>2021-07-31T07:11:45.000Z</time>
      </trkpt>
      <trkpt lat="49.77142" lon="4.80169">
        <ele>300</ele>
        <time>2021-07-31T07:11:46.000Z</time>
      </trkpt>
      <trkpt lat="49.77146" lon="4.80169">
        <ele>300</ele>
        <time>2021-07-31T07:11:47.000Z</time>
      </trkpt>
      <trkpt lat="49.77151" lon="4.8017">
        <ele>300</ele>
        <time>2021-07-31T07:11:48.000Z</time>
      </trkpt>
      <trkpt lat="49.77157" lon="4.80171">
        <ele>299</ele>
        <time>2021-07-31T07:11:49.000Z</time>
      </trkpt>
      <trkpt lat="49.77162" lon="4.80171">
        <ele>299</ele>
        <time>2021-07-31T07:11:50.000Z</time>
      </trkpt>
      <trkpt lat="49.77168" lon="4.8017">
        <ele>299</ele>
        <time>2021-07-31T07:11:51.000Z</time>
      </trkpt>
      <trkpt lat="49.77173" lon="4.8017">
        <ele>299</ele>
        <time>2021-07-31T07:11:52.000Z</time>
      </trkpt>
      <trkpt lat="49.77179" lon="4.8017">
        <ele>298</ele>
        <time>2021-07-31T07:11:53.000Z</time>
      </trkpt>
      <trkpt lat="49.77184" lon="4.80169">
        <ele>298</ele>
        <time>2021-07-31T07:11:54.000Z</time>
      </trkpt>
      <trkpt lat="49.77189" lon="4.80169">
        <ele>298</ele>
        <time>2021-07-31T07:11:55.000Z</time>
      </trkpt>
      <trkpt lat="49.77195" lon="4.80169">
        <ele>298</ele>
        <time>2021-07-31T07:11:56.000Z</time>
      </trkpt>
      <trkpt lat="49.772" lon="4.80168">
        <ele>298</ele>
        <time>2021-07-31T07:11:57.000Z</time>
      </trkpt>
      <trkpt lat="49.77206" lon="4.80168">
        <ele>297</ele>
        <time>2021-07-31T07:11:58.000Z</time>
      </trkpt>
      <trkpt lat="49.77212" lon="4.80167">
        <ele>297</ele>
        <time>2021-07-31T07:11:59.000Z</time>
      </trkpt>
      <trkpt lat="49.77218" lon="4.80166">
        <ele>297</ele>
        <time>2021-07-31T07:12:00.000Z</time>
      </trkpt>
      <trkpt lat="49.77225" lon="4.80165">
        <ele>297</ele>
        <time>2021-07-31T07:12:01.000Z</time>
      </trkpt>
      <trkpt lat="49.77231" lon="4.80165">
        <ele>296</ele>
        <time>2021-07-31T07:12:02.000Z</time>
      </trkpt>
      <trkpt lat="49.77237" lon="4.80164">
        <ele>296</ele>
        <time>2021-07-31T07:12:03.000Z</time>
      </trkpt>
      <trkpt lat="49.77244" lon="4.80163">
        <ele>296</ele>
        <time>2021-07-31T07:12:04.000Z</time>
      </trkpt>
      <trkpt lat="49.7725" lon="4.80162">
        <ele>296</ele>
        <time>2021-07-31T07:12:05.000Z</time>
      </trkpt>
      <trkpt lat="49.77257" lon="4.80161">
        <ele>295</ele>
        <time>2021-07-31T07:12:06.000Z</time>
      </trkpt>
      <trkpt lat="49.77263" lon="4.8016">
        <ele>295</ele>
        <time>2021-07-31T07:12:07.000Z</time>
      </trkpt>
      <trkpt lat="49.7727" lon="4.80159">
        <ele>295</ele>
        <time>2021-07-31T07:12:08.000Z</time>
      </trkpt>
      <trkpt lat="49.77277" lon="4.80158">
        <ele>295</ele>
        <time>2021-07-31T07:12:09.000Z</time>
      </trkpt>
      <trkpt lat="49.77284" lon="4.80156">
        <ele>294</ele>
        <time>2021-07-31T07:12:10.000Z</time>
      </trkpt>
      <trkpt lat="49.77292" lon="4.80155">
        <ele>294</ele>
        <time>2021-07-31T07:12:11.000Z</time>
      </trkpt>
      <trkpt lat="49.77299" lon="4.80153">
        <ele>293</ele>
        <time>2021-07-31T07:12:12.000Z</time>
      </trkpt>
      <trkpt lat="49.77306" lon="4.80152">
        <ele>293</ele>
        <time>2021-07-31T07:12:13.000Z</time>
      </trkpt>
      <trkpt lat="49.77313" lon="4.80149">
        <ele>293</ele>
        <time>2021-07-31T07:12:14.000Z</time>
      </trkpt>
      <trkpt lat="49.77321" lon="4.80147">
        <ele>292</ele>
        <time>2021-07-31T07:12:15.000Z</time>
      </trkpt>
      <trkpt lat="49.77328" lon="4.80145">
        <ele>292</ele>
        <time>2021-07-31T07:12:16.000Z</time>
      </trkpt>
      <trkpt lat="49.77334" lon="4.80141">
        <ele>292</ele>
        <time>2021-07-31T07:12:17.000Z</time>
      </trkpt>
      <trkpt lat="49.7734" lon="4.80138">
        <ele>292</ele>
        <time>2021-07-31T07:12:18.000Z</time>
      </trkpt>
      <trkpt lat="49.77346" lon="4.80133">
        <ele>291</ele>
        <time>2021-07-31T07:12:19.000Z</time>
      </trkpt>
      <trkpt lat="49.77353" lon="4.80128">
        <ele>291</ele>
        <time>2021-07-31T07:12:20.000Z</time>
      </trkpt>
      <trkpt lat="49.77358" lon="4.80121">
        <ele>291</ele>
        <time>2021-07-31T07:12:21.000Z</time>
      </trkpt>
      <trkpt lat="49.77363" lon="4.80115">
        <ele>291</ele>
        <time>2021-07-31T07:12:22.000Z</time>
      </trkpt>
      <trkpt lat="49.77369" lon="4.80108">
        <ele>291</ele>
        <time>2021-07-31T07:12:23.000Z</time>
      </trkpt>
      <trkpt lat="49.77374" lon="4.80101">
        <ele>291</ele>
        <time>2021-07-31T07:12:24.000Z</time>
      </trkpt>
      <trkpt lat="49.77379" lon="4.80093">
        <ele>290</ele>
        <time>2021-07-31T07:12:25.000Z</time>
      </trkpt>
      <trkpt lat="49.77384" lon="4.80085">
        <ele>290</ele>
        <time>2021-07-31T07:12:26.000Z</time>
      </trkpt>
      <trkpt lat="49.77389" lon="4.80076">
        <ele>290</ele>
        <time>2021-07-31T07:12:27.000Z</time>
      </trkpt>
      <trkpt lat="49.77394" lon="4.80066">
        <ele>290</ele>
        <time>2021-07-31T07:12:28.000Z</time>
      </trkpt>
      <trkpt lat="49.77399" lon="4.80056">
        <ele>290</ele>
        <time>2021-07-31T07:12:29.000Z</time>
      </trkpt>
      <trkpt lat="49.77405" lon="4.80047">
        <ele>290</ele>
        <time>2021-07-31T07:12:30.000Z</time>
      </trkpt>
      <trkpt lat="49.77411" lon="4.80041">
        <ele>289</ele>
        <time>2021-07-31T07:12:31.000Z</time>
      </trkpt>
      <trkpt lat="49.77418" lon="4.80038">
        <ele>289</ele>
        <time>2021-07-31T07:12:32.000Z</time>
      </trkpt>
      <trkpt lat="49.77427" lon="4.80038">
        <ele>289</ele>
        <time>2021-07-31T07:12:33.000Z</time>
      </trkpt>
      <trkpt lat="49.77435" lon="4.80039">
        <ele>289</ele>
        <time>2021-07-31T07:12:34.000Z</time>
      </trkpt>
      <trkpt lat="49.77443" lon="4.80038">
        <ele>289</ele>
        <time>2021-07-31T07:12:35.000Z</time>
      </trkpt>
      <trkpt lat="49.77452" lon="4.80036">
        <ele>288</ele>
        <time>2021-07-31T07:12:36.000Z</time>
      </trkpt>
      <trkpt lat="49.77461" lon="4.80032">
        <ele>288</ele>
        <time>2021-07-31T07:12:37.000Z</time>
      </trkpt>
      <trkpt lat="49.77469" lon="4.80027">
        <ele>287</ele>
        <time>2021-07-31T07:12:38.000Z</time>
      </trkpt>
      <trkpt lat="49.77477" lon="4.80021">
        <ele>286</ele>
        <time>2021-07-31T07:12:39.000Z</time>
      </trkpt>
      <trkpt lat="49.77483" lon="4.80015">
        <ele>285</ele>
        <time>2021-07-31T07:12:40.000Z</time>
      </trkpt>
      <trkpt lat="49.7749" lon="4.8001">
        <ele>284</ele>
        <time>2021-07-31T07:12:41.000Z</time>
      </trkpt>
      <trkpt lat="49.77496" lon="4.80007">
        <ele>283</ele>
        <time>2021-07-31T07:12:42.000Z</time>
      </trkpt>
      <trkpt lat="49.77502" lon="4.80002">
        <ele>281</ele>
        <time>2021-07-31T07:12:43.000Z</time>
      </trkpt>
      <trkpt lat="49.7751" lon="4.79998">
        <ele>280</ele>
        <time>2021-07-31T07:12:44.000Z</time>
      </trkpt>
      <trkpt lat="49.77518" lon="4.79995">
        <ele>279</ele>
        <time>2021-07-31T07:12:45.000Z</time>
      </trkpt>
      <trkpt lat="49.77527" lon="4.79993">
        <ele>277</ele>
        <time>2021-07-31T07:12:46.000Z</time>
      </trkpt>
      <trkpt lat="49.77536" lon="4.79991">
        <ele>276</ele>
        <time>2021-07-31T07:12:47.000Z</time>
      </trkpt>
      <trkpt lat="49.77544" lon="4.7999">
        <ele>274</ele>
        <time>2021-07-31T07:12:48.000Z</time>
      </trkpt>
      <trkpt lat="49.77553" lon="4.79988">
        <ele>273</ele>
        <time>2021-07-31T07:12:49.000Z</time>
      </trkpt>
      <trkpt lat="49.77563" lon="4.79987">
        <ele>272</ele>
        <time>2021-07-31T07:12:50.000Z</time>
      </trkpt>
      <trkpt lat="49.77572" lon="4.79986">
        <ele>271</ele>
        <time>2021-07-31T07:12:51.000Z</time>
      </trkpt>
      <trkpt lat="49.77581" lon="4.79985">
        <ele>270</ele>
        <time>2021-07-31T07:12:52.000Z</time>
      </trkpt>
      <trkpt lat="49.7759" lon="4.79983">
        <ele>269</ele>
        <time>2021-07-31T07:12:53.000Z</time>
      </trkpt>
      <trkpt lat="49.77599" lon="4.79982">
        <ele>268</ele>
        <time>2021-07-31T07:12:54.000Z</time>
      </trkpt>
      <trkpt lat="49.77608" lon="4.79981">
        <ele>267</ele>
        <time>2021-07-31T07:12:55.000Z</time>
      </trkpt>
      <trkpt lat="49.77617" lon="4.79979">
        <ele>267</ele>
        <time>2021-07-31T07:12:56.000Z</time>
      </trkpt>
      <trkpt lat="49.77625" lon="4.79977">
        <ele>266</ele>
        <time>2021-07-31T07:12:57.000Z</time>
      </trkpt>
      <trkpt lat="49.77634" lon="4.79974">
        <ele>266</ele>
        <time>2021-07-31T07:12:58.000Z</time>
      </trkpt>
      <trkpt lat="49.77641" lon="4.7997">
        <ele>266</ele>
        <time>2021-07-31T07:12:59.000Z</time>
      </trkpt>
      <trkpt lat="49.77649" lon="4.79965">
        <ele>265</ele>
        <time>2021-07-31T07:13:00.000Z</time>
      </trkpt>
      <trkpt lat="49.77656" lon="4.79959">
        <ele>265</ele>
        <time>2021-07-31T07:13:01.000Z</time>
      </trkpt>
      <trkpt lat="49.77663" lon="4.79953">
        <ele>264</ele>
        <time>2021-07-31T07:13:02.000Z</time>
      </trkpt>
      <trkpt lat="49.7767" lon="4.79946">
        <ele>264</ele>
        <time>2021-07-31T07:13:03.000Z</time>
      </trkpt>
      <trkpt lat="49.77676" lon="4.79939">
        <ele>264</ele>
        <time>2021-07-31T07:13:04.000Z</time>
      </trkpt>
      <trkpt lat="49.77682" lon="4.79932">
        <ele>263</ele>
        <time>2021-07-31T07:13:05.000Z</time>
      </trkpt>
      <trkpt lat="49.77689" lon="4.79924">
        <ele>263</ele>
        <time>2021-07-31T07:13:06.000Z</time>
      </trkpt>
      <trkpt lat="49.77695" lon="4.79917">
        <ele>262</ele>
        <time>2021-07-31T07:13:07.000Z</time>
      </trkpt>
      <trkpt lat="49.77702" lon="4.79909">
        <ele>262</ele>
        <time>2021-07-31T07:13:08.000Z</time>
      </trkpt>
      <trkpt lat="49.77708" lon="4.79902">
        <ele>261</ele>
        <time>2021-07-31T07:13:09.000Z</time>
      </trkpt>
      <trkpt lat="49.77715" lon="4.79896">
        <ele>261</ele>
        <time>2021-07-31T07:13:10.000Z</time>
      </trkpt>
      <trkpt lat="49.77721" lon="4.7989">
        <ele>261</ele>
        <time>2021-07-31T07:13:11.000Z</time>
      </trkpt>
      <trkpt lat="49.77728" lon="4.79885">
        <ele>260</ele>
        <time>2021-07-31T07:13:12.000Z</time>
      </trkpt>
      <trkpt lat="49.77734" lon="4.7988">
        <ele>260</ele>
        <time>2021-07-31T07:13:13.000Z</time>
      </trkpt>
      <trkpt lat="49.77741" lon="4.79875">
        <ele>260</ele>
        <time>2021-07-31T07:13:14.000Z</time>
      </trkpt>
      <trkpt lat="49.77747" lon="4.7987">
        <ele>260</ele>
        <time>2021-07-31T07:13:15.000Z</time>
      </trkpt>
      <trkpt lat="49.77752" lon="4.79865">
        <ele>259</ele>
        <time>2021-07-31T07:13:16.000Z</time>
      </trkpt>
      <trkpt lat="49.77758" lon="4.7986">
        <ele>259</ele>
        <time>2021-07-31T07:13:17.000Z</time>
      </trkpt>
      <trkpt lat="49.77764" lon="4.79856">
        <ele>259</ele>
        <time>2021-07-31T07:13:18.000Z</time>
      </trkpt>
      <trkpt lat="49.7777" lon="4.79851">
        <ele>259</ele>
        <time>2021-07-31T07:13:19.000Z</time>
      </trkpt>
      <trkpt lat="49.77775" lon="4.79846">
        <ele>259</ele>
        <time>2021-07-31T07:13:20.000Z</time>
      </trkpt>
      <trkpt lat="49.7778" lon="4.7984">
        <ele>258</ele>
        <time>2021-07-31T07:13:21.000Z</time>
      </trkpt>
      <trkpt lat="49.77784" lon="4.79834">
        <ele>258</ele>
        <time>2021-07-31T07:13:22.000Z</time>
      </trkpt>
      <trkpt lat="49.77789" lon="4.79828">
        <ele>258</ele>
        <time>2021-07-31T07:13:23.000Z</time>
      </trkpt>
      <trkpt lat="49.77793" lon="4.79824">
        <ele>258</ele>
        <time>2021-07-31T07:13:24.000Z</time>
      </trkpt>
      <trkpt lat="49.77798" lon="4.79819">
        <ele>258</ele>
        <time>2021-07-31T07:13:25.000Z</time>
      </trkpt>
      <trkpt lat="49.77803" lon="4.79815">
        <ele>258</ele>
        <time>2021-07-31T07:13:26.000Z</time>
      </trkpt>
      <trkpt lat="49.77808" lon="4.79811">
        <ele>258</ele>
        <time>2021-07-31T07:13:27.000Z</time>
      </trkpt>
      <trkpt lat="49.77813" lon="4.79808">
        <ele>258</ele>
        <time>2021-07-31T07:13:28.000Z</time>
      </trkpt>
      <trkpt lat="49.77818" lon="4.79806">
        <ele>258</ele>
        <time>2021-07-31T07:13:29.000Z</time>
      </trkpt>
      <trkpt lat="49.77823" lon="4.79805">
        <ele>258</ele>
        <time>2021-07-31T07:13:30.000Z</time>
      </trkpt>
      <trkpt lat="49.77828" lon="4.79804">
        <ele>258</ele>
        <time>2021-07-31T07:13:31.000Z</time>
      </trkpt>
      <trkpt lat="49.77832" lon="4.79805">
        <ele>258</ele>
        <time>2021-07-31T07:13:32.000Z</time>
      </trkpt>
      <trkpt lat="49.77836" lon="4.79805">
        <ele>257</ele>
        <time>2021-07-31T07:13:33.000Z</time>
      </trkpt>
      <trkpt lat="49.77841" lon="4.79802">
        <ele>257</ele>
        <time>2021-07-31T07:13:34.000Z</time>
      </trkpt>
      <trkpt lat="49.77846" lon="4.79796">
        <ele>257</ele>
        <time>2021-07-31T07:13:35.000Z</time>
      </trkpt>
      <trkpt lat="49.77852" lon="4.7979">
        <ele>257</ele>
        <time>2021-07-31T07:13:36.000Z</time>
      </trkpt>
      <trkpt lat="49.77858" lon="4.79784">
        <ele>257</ele>
        <time>2021-07-31T07:13:37.000Z</time>
      </trkpt>
      <trkpt lat="49.77864" lon="4.79778">
        <ele>257</ele>
        <time>2021-07-31T07:13:38.000Z</time>
      </trkpt>
      <trkpt lat="49.77871" lon="4.79773">
        <ele>257</ele>
        <time>2021-07-31T07:13:39.000Z</time>
      </trkpt>
      <trkpt lat="49.77878" lon="4.79767">
        <ele>257</ele>
        <time>2021-07-31T07:13:40.000Z</time>
      </trkpt>
      <trkpt lat="49.77884" lon="4.79762">
        <ele>257</ele>
        <time>2021-07-31T07:13:41.000Z</time>
      </trkpt>
      <trkpt lat="49.77891" lon="4.79756">
        <ele>257</ele>
        <time>2021-07-31T07:13:42.000Z</time>
      </trkpt>
      <trkpt lat="49.77897" lon="4.7975">
        <ele>257</ele>
        <time>2021-07-31T07:13:43.000Z</time>
      </trkpt>
      <trkpt lat="49.77904" lon="4.79744">
        <ele>257</ele>
        <time>2021-07-31T07:13:44.000Z</time>
      </trkpt>
      <trkpt lat="49.77911" lon="4.79739">
        <ele>257</ele>
        <time>2021-07-31T07:13:45.000Z</time>
      </trkpt>
      <trkpt lat="49.77918" lon="4.79735">
        <ele>256</ele>
        <time>2021-07-31T07:13:46.000Z</time>
      </trkpt>
      <trkpt lat="49.77926" lon="4.79732">
        <ele>256</ele>
        <time>2021-07-31T07:13:47.000Z</time>
      </trkpt>
      <trkpt lat="49.77934" lon="4.79729">
        <ele>256</ele>
        <time>2021-07-31T07:13:48.000Z</time>
      </trkpt>
      <trkpt lat="49.77943" lon="4.79727">
        <ele>256</ele>
        <time>2021-07-31T07:13:49.000Z</time>
      </trkpt>
      <trkpt lat="49.77951" lon="4.79726">
        <ele>255</ele>
        <time>2021-07-31T07:13:50.000Z</time>
      </trkpt>
      <trkpt lat="49.77959" lon="4.79725">
        <ele>255</ele>
        <time>2021-07-31T07:13:51.000Z</time>
      </trkpt>
      <trkpt lat="49.77966" lon="4.79727">
        <ele>254</ele>
        <time>2021-07-31T07:13:52.000Z</time>
      </trkpt>
      <trkpt lat="49.77971" lon="4.79734">
        <ele>254</ele>
        <time>2021-07-31T07:13:53.000Z</time>
      </trkpt>
      <trkpt lat="49.77975" lon="4.79742">
        <ele>254</ele>
        <time>2021-07-31T07:13:54.000Z</time>
      </trkpt>
      <trkpt lat="49.77977" lon="4.79751">
        <ele>254</ele>
        <time>2021-07-31T07:13:55.000Z</time>
      </trkpt>
      <trkpt lat="49.7798" lon="4.79759">
        <ele>254</ele>
        <time>2021-07-31T07:13:56.000Z</time>
      </trkpt>
      <trkpt lat="49.77984" lon="4.79765">
        <ele>254</ele>
        <time>2021-07-31T07:13:57.000Z</time>
      </trkpt>
      <trkpt lat="49.77988" lon="4.7977">
        <ele>254</ele>
        <time>2021-07-31T07:13:58.000Z</time>
      </trkpt>
      <trkpt lat="49.77992" lon="4.79774">
        <ele>254</ele>
        <time>2021-07-31T07:13:59.000Z</time>
      </trkpt>
      <trkpt lat="49.77997" lon="4.79777">
        <ele>254</ele>
        <time>2021-07-31T07:14:00.000Z</time>
      </trkpt>
      <trkpt lat="49.78002" lon="4.79779">
        <ele>254</ele>
        <time>2021-07-31T07:14:01.000Z</time>
      </trkpt>
      <trkpt lat="49.78007" lon="4.79782">
        <ele>254</ele>
        <time>2021-07-31T07:14:02.000Z</time>
      </trkpt>
      <trkpt lat="49.78012" lon="4.79783">
        <ele>254</ele>
        <time>2021-07-31T07:14:03.000Z</time>
      </trkpt>
      <trkpt lat="49.78017" lon="4.79784">
        <ele>254</ele>
        <time>2021-07-31T07:14:04.000Z</time>
      </trkpt>
      <trkpt lat="49.78023" lon="4.79785">
        <ele>254</ele>
        <time>2021-07-31T07:14:05.000Z</time>
      </trkpt>
      <trkpt lat="49.78028" lon="4.79785">
        <ele>254</ele>
        <time>2021-07-31T07:14:06.000Z</time>
      </trkpt>
      <trkpt lat="49.78033" lon="4.79785">
        <ele>254</ele>
        <time>2021-07-31T07:14:07.000Z</time>
      </trkpt>
      <trkpt lat="49.78038" lon="4.79784">
        <ele>254</ele>
        <time>2021-07-31T07:14:08.000Z</time>
      </trkpt>
      <trkpt lat="49.78042" lon="4.79784">
        <ele>253</ele>
        <time>2021-07-31T07:14:09.000Z</time>
      </trkpt>
      <trkpt lat="49.78046" lon="4.79784">
        <ele>253</ele>
        <time>2021-07-31T07:14:10.000Z</time>
      </trkpt>
      <trkpt lat="49.78049" lon="4.79784">
        <ele>253</ele>
        <time>2021-07-31T07:14:11.000Z</time>
      </trkpt>
      <trkpt lat="49.7805" lon="4.79785">
        <ele>253</ele>
        <time>2021-07-31T07:14:12.000Z</time>
      </trkpt>
      <trkpt lat="49.7805" lon="4.79785">
        <ele>253</ele>
        <time>2021-07-31T07:14:13.000Z</time>
      </trkpt>
      <trkpt lat="49.7805" lon="4.79785">
        <ele>253</ele>
        <time>2021-07-31T07:14:14.000Z</time>
      </trkpt>
      <trkpt lat="49.78051" lon="4.79784">
        <ele>253</ele>
        <time>2021-07-31T07:14:15.000Z</time>
      </trkpt>
      <trkpt lat="49.78052" lon="4.79783">
        <ele>253</ele>
        <time>2021-07-31T07:14:16.000Z</time>
      </trkpt>
      <trkpt lat="49.78055" lon="4.79782">
        <ele>253</ele>
        <time>2021-07-31T07:14:17.000Z</time>
      </trkpt>
      <trkpt lat="49.78058" lon="4.79781">
        <ele>253</ele>
        <time>2021-07-31T07:14:18.000Z</time>
      </trkpt>
      <trkpt lat="49.78061" lon="4.7978">
        <ele>253</ele>
        <time>2021-07-31T07:14:19.000Z</time>
      </trkpt>
      <trkpt lat="49.78064" lon="4.79778">
        <ele>253</ele>
        <time>2021-07-31T07:14:20.000Z</time>
      </trkpt>
      <trkpt lat="49.78069" lon="4.79775">
        <ele>253</ele>
        <time>2021-07-31T07:14:21.000Z</time>
      </trkpt>
      <trkpt lat="49.78073" lon="4.79771">
        <ele>253</ele>
        <time>2021-07-31T07:14:22.000Z</time>
      </trkpt>
      <trkpt lat="49.78076" lon="4.79766">
        <ele>252</ele>
        <time>2021-07-31T07:14:23.000Z</time>
      </trkpt>
      <trkpt lat="49.78081" lon="4.79762">
        <ele>252</ele>
        <time>2021-07-31T07:14:24.000Z</time>
      </trkpt>
      <trkpt lat="49.78086" lon="4.79756">
        <ele>252</ele>
        <time>2021-07-31T07:14:25.000Z</time>
      </trkpt>
      <trkpt lat="49.7809" lon="4.79749">
        <ele>252</ele>
        <time>2021-07-31T07:14:26.000Z</time>
      </trkpt>
      <trkpt lat="49.78094" lon="4.79741">
        <ele>252</ele>
        <time>2021-07-31T07:14:27.000Z</time>
      </trkpt>
      <trkpt lat="49.78098" lon="4.79734">
        <ele>252</ele>
        <time>2021-07-31T07:14:28.000Z</time>
      </trkpt>
      <trkpt lat="49.78102" lon="4.79727">
        <ele>252</ele>
        <time>2021-07-31T07:14:29.000Z</time>
      </trkpt>
      <trkpt lat="49.78105" lon="4.79721">
        <ele>253</ele>
        <time>2021-07-31T07:14:30.000Z</time>
      </trkpt>
      <trkpt lat="49.78108" lon="4.79715">
        <ele>253</ele>
        <time>2021-07-31T07:14:31.000Z</time>
      </trkpt>
      <trkpt lat="49.78111" lon="4.79709">
        <ele>253</ele>
        <time>2021-07-31T07:14:32.000Z</time>
      </trkpt>
      <trkpt lat="49.78115" lon="4.79704">
        <ele>254</ele>
        <time>2021-07-31T07:14:33.000Z</time>
      </trkpt>
      <trkpt lat="49.7812" lon="4.797">
        <ele>254</ele>
        <time>2021-07-31T07:14:34.000Z</time>
      </trkpt>
      <trkpt lat="49.78124" lon="4.79697">
        <ele>254</ele>
        <time>2021-07-31T07:14:35.000Z</time>
      </trkpt>
      <trkpt lat="49.78129" lon="4.79694">
        <ele>254</ele>
        <time>2021-07-31T07:14:36.000Z</time>
      </trkpt>
      <trkpt lat="49.78133" lon="4.79692">
        <ele>255</ele>
        <time>2021-07-31T07:14:37.000Z</time>
      </trkpt>
      <trkpt lat="49.78138" lon="4.79689">
        <ele>255</ele>
        <time>2021-07-31T07:14:38.000Z</time>
      </trkpt>
      <trkpt lat="49.78143" lon="4.79686">
        <ele>255</ele>
        <time>2021-07-31T07:14:39.000Z</time>
      </trkpt>
      <trkpt lat="49.78147" lon="4.79683">
        <ele>255</ele>
        <time>2021-07-31T07:14:40.000Z</time>
      </trkpt>
      <trkpt lat="49.78152" lon="4.79679">
        <ele>255</ele>
        <time>2021-07-31T07:14:41.000Z</time>
      </trkpt>
      <trkpt lat="49.78157" lon="4.79676">
        <ele>255</ele>
        <time>2021-07-31T07:14:42.000Z</time>
      </trkpt>
      <trkpt lat="49.78162" lon="4.79672">
        <ele>255</ele>
        <time>2021-07-31T07:14:43.000Z</time>
      </trkpt>
      <trkpt lat="49.78167" lon="4.79669">
        <ele>255</ele>
        <time>2021-07-31T07:14:44.000Z</time>
      </trkpt>
      <trkpt lat="49.78172" lon="4.79665">
        <ele>255</ele>
        <time>2021-07-31T07:14:45.000Z</time>
      </trkpt>
      <trkpt lat="49.78177" lon="4.79661">
        <ele>255</ele>
        <time>2021-07-31T07:14:46.000Z</time>
      </trkpt>
      <trkpt lat="49.78182" lon="4.79656">
        <ele>255</ele>
        <time>2021-07-31T07:14:47.000Z</time>
      </trkpt>
      <trkpt lat="49.78187" lon="4.79652">
        <ele>255</ele>
        <time>2021-07-31T07:14:48.000Z</time>
      </trkpt>
      <trkpt lat="49.78192" lon="4.79648">
        <ele>255</ele>
        <time>2021-07-31T07:14:49.000Z</time>
      </trkpt>
      <trkpt lat="49.78197" lon="4.79643">
        <ele>255</ele>
        <time>2021-07-31T07:14:50.000Z</time>
      </trkpt>
      <trkpt lat="49.78202" lon="4.79639">
        <ele>255</ele>
        <time>2021-07-31T07:14:51.000Z</time>
      </trkpt>
      <trkpt lat="49.78207" lon="4.79634">
        <ele>255</ele>
        <time>2021-07-31T07:14:52.000Z</time>
      </trkpt>
      <trkpt lat="49.78213" lon="4.7963">
        <ele>255</ele>
        <time>2021-07-31T07:14:53.000Z</time>
      </trkpt>
      <trkpt lat="49.78218" lon="4.79626">
        <ele>255</ele>
        <time>2021-07-31T07:14:54.000Z</time>
      </trkpt>
      <trkpt lat="49.78224" lon="4.79622">
        <ele>255</ele>
        <time>2021-07-31T07:14:55.000Z</time>
      </trkpt>
      <trkpt lat="49.78229" lon="4.79618">
        <ele>255</ele>
        <time>2021-07-31T07:14:56.000Z</time>
      </trkpt>
      <trkpt lat="49.78236" lon="4.79615">
        <ele>254</ele>
        <time>2021-07-31T07:14:57.000Z</time>
      </trkpt>
      <trkpt lat="49.78243" lon="4.79612">
        <ele>254</ele>
        <time>2021-07-31T07:14:58.000Z</time>
      </trkpt>
      <trkpt lat="49.7825" lon="4.79609">
        <ele>254</ele>
        <time>2021-07-31T07:14:59.000Z</time>
      </trkpt>
      <trkpt lat="49.78257" lon="4.79606">
        <ele>254</ele>
        <time>2021-07-31T07:15:00.000Z</time>
      </trkpt>
      <trkpt lat="49.78264" lon="4.79603">
        <ele>253</ele>
        <time>2021-07-31T07:15:01.000Z</time>
      </trkpt>
      <trkpt lat="49.78271" lon="4.79601">
        <ele>253</ele>
        <time>2021-07-31T07:15:02.000Z</time>
      </trkpt>
      <trkpt lat="49.78278" lon="4.79599">
        <ele>253</ele>
        <time>2021-07-31T07:15:03.000Z</time>
      </trkpt>
      <trkpt lat="49.78285" lon="4.79596">
        <ele>253</ele>
        <time>2021-07-31T07:15:04.000Z</time>
      </trkpt>
      <trkpt lat="49.78293" lon="4.79595">
        <ele>252</ele>
        <time>2021-07-31T07:15:05.000Z</time>
      </trkpt>
      <trkpt lat="49.78301" lon="4.79595">
        <ele>252</ele>
        <time>2021-07-31T07:15:06.000Z</time>
      </trkpt>
      <trkpt lat="49.78308" lon="4.79597">
        <ele>252</ele>
        <time>2021-07-31T07:15:07.000Z</time>
      </trkpt>
      <trkpt lat="49.78315" lon="4.79601">
        <ele>252</ele>
        <time>2021-07-31T07:15:08.000Z</time>
      </trkpt>
      <trkpt lat="49.78321" lon="4.79605">
        <ele>252</ele>
        <time>2021-07-31T07:15:09.000Z</time>
      </trkpt>
      <trkpt lat="49.78328" lon="4.79609">
        <ele>252</ele>
        <time>2021-07-31T07:15:10.000Z</time>
      </trkpt>
      <trkpt lat="49.78334" lon="4.79613">
        <ele>252</ele>
        <time>2021-07-31T07:15:11.000Z</time>
      </trkpt>
      <trkpt lat="49.7834" lon="4.79617">
        <ele>252</ele>
        <time>2021-07-31T07:15:12.000Z</time>
      </trkpt>
      <trkpt lat="49.78346" lon="4.79621">
        <ele>252</ele>
        <time>2021-07-31T07:15:13.000Z</time>
      </trkpt>
      <trkpt lat="49.78352" lon="4.79625">
        <ele>252</ele>
        <time>2021-07-31T07:15:14.000Z</time>
      </trkpt>
      <trkpt lat="49.78358" lon="4.79629">
        <ele>252</ele>
        <time>2021-07-31T07:15:15.000Z</time>
      </trkpt>
      <trkpt lat="49.78364" lon="4.79633">
        <ele>253</ele>
        <time>2021-07-31T07:15:16.000Z</time>
      </trkpt>
      <trkpt lat="49.78369" lon="4.79636">
        <ele>253</ele>
        <time>2021-07-31T07:15:17.000Z</time>
      </trkpt>
      <trkpt lat="49.78375" lon="4.79639">
        <ele>253</ele>
        <time>2021-07-31T07:15:18.000Z</time>
      </trkpt>
      <trkpt lat="49.78381" lon="4.79643">
        <ele>253</ele>
        <time>2021-07-31T07:15:19.000Z</time>
      </trkpt>
      <trkpt lat="49.78386" lon="4.79646">
        <ele>253</ele>
        <time>2021-07-31T07:15:20.000Z</time>
      </trkpt>
      <trkpt lat="49.78392" lon="4.79648">
        <ele>253</ele>
        <time>2021-07-31T07:15:21.000Z</time>
      </trkpt>
      <trkpt lat="49.78397" lon="4.79651">
        <ele>253</ele>
        <time>2021-07-31T07:15:22.000Z</time>
      </trkpt>
      <trkpt lat="49.78402" lon="4.79653">
        <ele>253</ele>
        <time>2021-07-31T07:15:23.000Z</time>
      </trkpt>
      <trkpt lat="49.78407" lon="4.79656">
        <ele>254</ele>
        <time>2021-07-31T07:15:24.000Z</time>
      </trkpt>
      <trkpt lat="49.78412" lon="4.79658">
        <ele>254</ele>
        <time>2021-07-31T07:15:25.000Z</time>
      </trkpt>
      <trkpt lat="49.78417" lon="4.7966">
        <ele>254</ele>
        <time>2021-07-31T07:15:26.000Z</time>
      </trkpt>
      <trkpt lat="49.78422" lon="4.79663">
        <ele>254</ele>
        <time>2021-07-31T07:15:27.000Z</time>
      </trkpt>
      <trkpt lat="49.78426" lon="4.79665">
        <ele>254</ele>
        <time>2021-07-31T07:15:28.000Z</time>
      </trkpt>
      <trkpt lat="49.78431" lon="4.79667">
        <ele>254</ele>
        <time>2021-07-31T07:15:29.000Z</time>
      </trkpt>
      <trkpt lat="49.78436" lon="4.79669">
        <ele>254</ele>
        <time>2021-07-31T07:15:30.000Z</time>
      </trkpt>
      <trkpt lat="49.78441" lon="4.7967">
        <ele>255</ele>
        <time>2021-07-31T07:15:31.000Z</time>
      </trkpt>
      <trkpt lat="49.78446" lon="4.79673">
        <ele>255</ele>
        <time>2021-07-31T07:15:32.000Z</time>
      </trkpt>
      <trkpt lat="49.78451" lon="4.79674">
        <ele>255</ele>
        <time>2021-07-31T07:15:33.000Z</time>
      </trkpt>
      <trkpt lat="49.78455" lon="4.79676">
        <ele>255</ele>
        <time>2021-07-31T07:15:34.000Z</time>
      </trkpt>
      <trkpt lat="49.7846" lon="4.79678">
        <ele>255</ele>
        <time>2021-07-31T07:15:35.000Z</time>
      </trkpt>
      <trkpt lat="49.78465" lon="4.7968">
        <ele>255</ele>
        <time>2021-07-31T07:15:36.000Z</time>
      </trkpt>
      <trkpt lat="49.7847" lon="4.79682">
        <ele>255</ele>
        <time>2021-07-31T07:15:37.000Z</time>
      </trkpt>
      <trkpt lat="49.78475" lon="4.79684">
        <ele>256</ele>
        <time>2021-07-31T07:15:38.000Z</time>
      </trkpt>
      <trkpt lat="49.7848" lon="4.79686">
        <ele>256</ele>
        <time>2021-07-31T07:15:39.000Z</time>
      </trkpt>
      <trkpt lat="49.78485" lon="4.79688">
        <ele>256</ele>
        <time>2021-07-31T07:15:40.000Z</time>
      </trkpt>
      <trkpt lat="49.7849" lon="4.79689">
        <ele>256</ele>
        <time>2021-07-31T07:15:41.000Z</time>
      </trkpt>
      <trkpt lat="49.78495" lon="4.79691">
        <ele>256</ele>
        <time>2021-07-31T07:15:42.000Z</time>
      </trkpt>
      <trkpt lat="49.785" lon="4.79693">
        <ele>256</ele>
        <time>2021-07-31T07:15:43.000Z</time>
      </trkpt>
      <trkpt lat="49.78504" lon="4.79695">
        <ele>257</ele>
        <time>2021-07-31T07:15:44.000Z</time>
      </trkpt>
      <trkpt lat="49.78509" lon="4.79697">
        <ele>257</ele>
        <time>2021-07-31T07:15:45.000Z</time>
      </trkpt>
      <trkpt lat="49.78514" lon="4.79699">
        <ele>257</ele>
        <time>2021-07-31T07:15:46.000Z</time>
      </trkpt>
      <trkpt lat="49.78519" lon="4.79701">
        <ele>257</ele>
        <time>2021-07-31T07:15:47.000Z</time>
      </trkpt>
      <trkpt lat="49.78523" lon="4.79703">
        <ele>258</ele>
        <time>2021-07-31T07:15:48.000Z</time>
      </trkpt>
      <trkpt lat="49.78528" lon="4.79704">
        <ele>258</ele>
        <time>2021-07-31T07:15:49.000Z</time>
      </trkpt>
      <trkpt lat="49.78533" lon="4.79705">
        <ele>258</ele>
        <time>2021-07-31T07:15:50.000Z</time>
      </trkpt>
      <trkpt lat="49.78537" lon="4.79707">
        <ele>258</ele>
        <time>2021-07-31T07:15:51.000Z</time>
      </trkpt>
      <trkpt lat="49.78542" lon="4.79708">
        <ele>258</ele>
        <time>2021-07-31T07:15:52.000Z</time>
      </trkpt>
      <trkpt lat="49.78547" lon="4.7971">
        <ele>259</ele>
        <time>2021-07-31T07:15:53.000Z</time>
      </trkpt>
      <trkpt lat="49.78551" lon="4.79712">
        <ele>259</ele>
        <time>2021-07-31T07:15:54.000Z</time>
      </trkpt>
      <trkpt lat="49.78556" lon="4.79713">
        <ele>259</ele>
        <time>2021-07-31T07:15:55.000Z</time>
      </trkpt>
      <trkpt lat="49.78561" lon="4.79715">
        <ele>259</ele>
        <time>2021-07-31T07:15:56.000Z</time>
      </trkpt>
      <trkpt lat="49.78565" lon="4.79717">
        <ele>260</ele>
        <time>2021-07-31T07:15:57.000Z</time>
      </trkpt>
      <trkpt lat="49.7857" lon="4.79718">
        <ele>260</ele>
        <time>2021-07-31T07:15:58.000Z</time>
      </trkpt>
      <trkpt lat="49.78575" lon="4.7972">
        <ele>260</ele>
        <time>2021-07-31T07:15:59.000Z</time>
      </trkpt>
      <trkpt lat="49.78579" lon="4.79722">
        <ele>260</ele>
        <time>2021-07-31T07:16:00.000Z</time>
      </trkpt>
      <trkpt lat="49.78584" lon="4.79723">
        <ele>260</ele>
        <time>2021-07-31T07:16:01.000Z</time>
      </trkpt>
      <trkpt lat="49.78589" lon="4.79725">
        <ele>261</ele>
        <time>2021-07-31T07:16:02.000Z</time>
      </trkpt>
      <trkpt lat="49.78593" lon="4.79727">
        <ele>261</ele>
        <time>2021-07-31T07:16:03.000Z</time>
      </trkpt>
      <trkpt lat="49.78598" lon="4.79728">
        <ele>261</ele>
        <time>2021-07-31T07:16:04.000Z</time>
      </trkpt>
      <trkpt lat="49.78603" lon="4.7973">
        <ele>261</ele>
        <time>2021-07-31T07:16:05.000Z</time>
      </trkpt>
      <trkpt lat="49.78607" lon="4.79732">
        <ele>261</ele>
        <time>2021-07-31T07:16:06.000Z</time>
      </trkpt>
      <trkpt lat="49.78612" lon="4.79733">
        <ele>262</ele>
        <time>2021-07-31T07:16:07.000Z</time>
      </trkpt>
      <trkpt lat="49.78616" lon="4.79735">
        <ele>262</ele>
        <time>2021-07-31T07:16:08.000Z</time>
      </trkpt>
      <trkpt lat="49.78621" lon="4.79737">
        <ele>262</ele>
        <time>2021-07-31T07:16:09.000Z</time>
      </trkpt>
      <trkpt lat="49.78626" lon="4.79739">
        <ele>262</ele>
        <time>2021-07-31T07:16:10.000Z</time>
      </trkpt>
      <trkpt lat="49.78631" lon="4.79741">
        <ele>262</ele>
        <time>2021-07-31T07:16:11.000Z</time>
      </trkpt>
      <trkpt lat="49.78635" lon="4.79742">
        <ele>262</ele>
        <time>2021-07-31T07:16:12.000Z</time>
      </trkpt>
      <trkpt lat="49.7864" lon="4.79744">
        <ele>263</ele>
        <time>2021-07-31T07:16:13.000Z</time>
      </trkpt>
      <trkpt lat="49.78645" lon="4.79745">
        <ele>263</ele>
        <time>2021-07-31T07:16:14.000Z</time>
      </trkpt>
      <trkpt lat="49.78649" lon="4.79747">
        <ele>263</ele>
        <time>2021-07-31T07:16:15.000Z</time>
      </trkpt>
      <trkpt lat="49.78654" lon="4.79749">
        <ele>263</ele>
        <time>2021-07-31T07:16:16.000Z</time>
      </trkpt>
      <trkpt lat="49.78659" lon="4.79751">
        <ele>263</ele>
        <time>2021-07-31T07:16:17.000Z</time>
      </trkpt>
      <trkpt lat="49.78664" lon="4.79752">
        <ele>263</ele>
        <time>2021-07-31T07:16:18.000Z</time>
      </trkpt>
      <trkpt lat="49.78668" lon="4.79754">
        <ele>263</ele>
        <time>2021-07-31T07:16:19.000Z</time>
      </trkpt>
      <trkpt lat="49.78673" lon="4.79756">
        <ele>264</ele>
        <time>2021-07-31T07:16:20.000Z</time>
      </trkpt>
      <trkpt lat="49.78678" lon="4.79758">
        <ele>264</ele>
        <time>2021-07-31T07:16:21.000Z</time>
      </trkpt>
      <trkpt lat="49.78683" lon="4.7976">
        <ele>264</ele>
        <time>2021-07-31T07:16:22.000Z</time>
      </trkpt>
      <trkpt lat="49.78688" lon="4.79761">
        <ele>264</ele>
        <time>2021-07-31T07:16:23.000Z</time>
      </trkpt>
      <trkpt lat="49.78693" lon="4.79763">
        <ele>264</ele>
        <time>2021-07-31T07:16:24.000Z</time>
      </trkpt>
      <trkpt lat="49.78698" lon="4.79765">
        <ele>264</ele>
        <time>2021-07-31T07:16:25.000Z</time>
      </trkpt>
      <trkpt lat="49.78703" lon="4.79766">
        <ele>265</ele>
        <time>2021-07-31T07:16:26.000Z</time>
      </trkpt>
      <trkpt lat="49.78708" lon="4.79768">
        <ele>265</ele>
        <time>2021-07-31T07:16:27.000Z</time>
      </trkpt>
      <trkpt lat="49.78714" lon="4.79769">
        <ele>265</ele>
        <time>2021-07-31T07:16:28.000Z</time>
      </trkpt>
      <trkpt lat="49.78719" lon="4.7977">
        <ele>265</ele>
        <time>2021-07-31T07:16:29.000Z</time>
      </trkpt>
      <trkpt lat="49.78725" lon="4.79771">
        <ele>265</ele>
        <time>2021-07-31T07:16:30.000Z</time>
      </trkpt>
      <trkpt lat="49.7873" lon="4.79773">
        <ele>265</ele>
        <time>2021-07-31T07:16:31.000Z</time>
      </trkpt>
      <trkpt lat="49.78736" lon="4.79775">
        <ele>265</ele>
        <time>2021-07-31T07:16:32.000Z</time>
      </trkpt>
      <trkpt lat="49.78741" lon="4.79777">
        <ele>266</ele>
        <time>2021-07-31T07:16:33.000Z</time>
      </trkpt>
      <trkpt lat="49.78747" lon="4.79779">
        <ele>266</ele>
        <time>2021-07-31T07:16:34.000Z</time>
      </trkpt>
      <trkpt lat="49.78753" lon="4.79781">
        <ele>266</ele>
        <time>2021-07-31T07:16:35.000Z</time>
      </trkpt>
      <trkpt lat="49.78758" lon="4.79783">
        <ele>266</ele>
        <time>2021-07-31T07:16:36.000Z</time>
      </trkpt>
      <trkpt lat="49.78764" lon="4.79786">
        <ele>266</ele>
        <time>2021-07-31T07:16:37.000Z</time>
      </trkpt>
      <trkpt lat="49.7877" lon="4.79788">
        <ele>267</ele>
        <time>2021-07-31T07:16:38.000Z</time>
      </trkpt>
      <trkpt lat="49.78775" lon="4.79791">
        <ele>267</ele>
        <time>2021-07-31T07:16:39.000Z</time>
      </trkpt>
      <trkpt lat="49.78781" lon="4.79793">
        <ele>267</ele>
        <time>2021-07-31T07:16:40.000Z</time>
      </trkpt>
      <trkpt lat="49.78787" lon="4.79796">
        <ele>267</ele>
        <time>2021-07-31T07:16:41.000Z</time>
      </trkpt>
      <trkpt lat="49.78793" lon="4.79799">
        <ele>268</ele>
        <time>2021-07-31T07:16:42.000Z</time>
      </trkpt>
      <trkpt lat="49.78798" lon="4.79802">
        <ele>268</ele>
        <time>2021-07-31T07:16:43.000Z</time>
      </trkpt>
      <trkpt lat="49.78805" lon="4.79804">
        <ele>268</ele>
        <time>2021-07-31T07:16:44.000Z</time>
      </trkpt>
      <trkpt lat="49.78811" lon="4.79807">
        <ele>268</ele>
        <time>2021-07-31T07:16:45.000Z</time>
      </trkpt>
      <trkpt lat="49.78817" lon="4.7981">
        <ele>268</ele>
        <time>2021-07-31T07:16:46.000Z</time>
      </trkpt>
      <trkpt lat="49.78823" lon="4.79814">
        <ele>269</ele>
        <time>2021-07-31T07:16:47.000Z</time>
      </trkpt>
      <trkpt lat="49.78829" lon="4.79818">
        <ele>269</ele>
        <time>2021-07-31T07:16:48.000Z</time>
      </trkpt>
      <trkpt lat="49.78835" lon="4.79821">
        <ele>269</ele>
        <time>2021-07-31T07:16:49.000Z</time>
      </trkpt>
      <trkpt lat="49.78841" lon="4.79825">
        <ele>269</ele>
        <time>2021-07-31T07:16:50.000Z</time>
      </trkpt>
      <trkpt lat="49.78847" lon="4.79829">
        <ele>269</ele>
        <time>2021-07-31T07:16:51.000Z</time>
      </trkpt>
      <trkpt lat="49.78853" lon="4.79833">
        <ele>269</ele>
        <time>2021-07-31T07:16:52.000Z</time>
      </trkpt>
      <trkpt lat="49.78859" lon="4.79837">
        <ele>269</ele>
        <time>2021-07-31T07:16:53.000Z</time>
      </trkpt>
      <trkpt lat="49.78865" lon="4.79842">
        <ele>269</ele>
        <time>2021-07-31T07:16:54.000Z</time>
      </trkpt>
      <trkpt lat="49.78871" lon="4.79846">
        <ele>269</ele>
        <time>2021-07-31T07:16:55.000Z</time>
      </trkpt>
      <trkpt lat="49.78877" lon="4.7985">
        <ele>269</ele>
        <time>2021-07-31T07:16:56.000Z</time>
      </trkpt>
      <trkpt lat="49.78884" lon="4.79855">
        <ele>269</ele>
        <time>2021-07-31T07:16:57.000Z</time>
      </trkpt>
      <trkpt lat="49.7889" lon="4.7986">
        <ele>269</ele>
        <time>2021-07-31T07:16:58.000Z</time>
      </trkpt>
      <trkpt lat="49.78896" lon="4.79864">
        <ele>269</ele>
        <time>2021-07-31T07:16:59.000Z</time>
      </trkpt>
      <trkpt lat="49.78903" lon="4.79869">
        <ele>268</ele>
        <time>2021-07-31T07:17:00.000Z</time>
      </trkpt>
      <trkpt lat="49.78909" lon="4.79874">
        <ele>268</ele>
        <time>2021-07-31T07:17:01.000Z</time>
      </trkpt>
      <trkpt lat="49.78915" lon="4.7988">
        <ele>268</ele>
        <time>2021-07-31T07:17:02.000Z</time>
      </trkpt>
      <trkpt lat="49.78921" lon="4.79885">
        <ele>268</ele>
        <time>2021-07-31T07:17:03.000Z</time>
      </trkpt>
      <trkpt lat="49.78928" lon="4.79891">
        <ele>268</ele>
        <time>2021-07-31T07:17:04.000Z</time>
      </trkpt>
      <trkpt lat="49.78934" lon="4.79896">
        <ele>267</ele>
        <time>2021-07-31T07:17:05.000Z</time>
      </trkpt>
      <trkpt lat="49.7894" lon="4.79902">
        <ele>267</ele>
        <time>2021-07-31T07:17:06.000Z</time>
      </trkpt>
      <trkpt lat="49.78947" lon="4.79908">
        <ele>267</ele>
        <time>2021-07-31T07:17:07.000Z</time>
      </trkpt>
      <trkpt lat="49.78953" lon="4.79913">
        <ele>267</ele>
        <time>2021-07-31T07:17:08.000Z</time>
      </trkpt>
      <trkpt lat="49.7896" lon="4.79919">
        <ele>266</ele>
        <time>2021-07-31T07:17:09.000Z</time>
      </trkpt>
      <trkpt lat="49.78966" lon="4.79925">
        <ele>266</ele>
        <time>2021-07-31T07:17:10.000Z</time>
      </trkpt>
      <trkpt lat="49.78972" lon="4.79931">
        <ele>266</ele>
        <time>2021-07-31T07:17:11.000Z</time>
      </trkpt>
      <trkpt lat="49.78979" lon="4.79937">
        <ele>265</ele>
        <time>2021-07-31T07:17:12.000Z</time>
      </trkpt>
      <trkpt lat="49.78985" lon="4.79942">
        <ele>265</ele>
        <time>2021-07-31T07:17:13.000Z</time>
      </trkpt>
      <trkpt lat="49.78992" lon="4.79948">
        <ele>265</ele>
        <time>2021-07-31T07:17:14.000Z</time>
      </trkpt>
      <trkpt lat="49.78998" lon="4.79954">
        <ele>265</ele>
        <time>2021-07-31T07:17:15.000Z</time>
      </trkpt>
      <trkpt lat="49.79004" lon="4.7996">
        <ele>265</ele>
        <time>2021-07-31T07:17:16.000Z</time>
      </trkpt>
      <trkpt lat="49.79011" lon="4.79966">
        <ele>264</ele>
        <time>2021-07-31T07:17:17.000Z</time>
      </trkpt>
      <trkpt lat="49.79017" lon="4.79972">
        <ele>264</ele>
        <time>2021-07-31T07:17:18.000Z</time>
      </trkpt>
      <trkpt lat="49.79024" lon="4.79978">
        <ele>264</ele>
        <time>2021-07-31T07:17:19.000Z</time>
      </trkpt>
      <trkpt lat="49.7903" lon="4.79984">
        <ele>264</ele>
        <time>2021-07-31T07:17:20.000Z</time>
      </trkpt>
      <trkpt lat="49.79036" lon="4.79989">
        <ele>264</ele>
        <time>2021-07-31T07:17:21.000Z</time>
      </trkpt>
      <trkpt lat="49.79043" lon="4.79995">
        <ele>264</ele>
        <time>2021-07-31T07:17:22.000Z</time>
      </trkpt>
      <trkpt lat="49.79049" lon="4.80002">
        <ele>264</ele>
        <time>2021-07-31T07:17:23.000Z</time>
      </trkpt>
      <trkpt lat="49.79056" lon="4.80008">
        <ele>264</ele>
        <time>2021-07-31T07:17:24.000Z</time>
      </trkpt>
      <trkpt lat="49.79062" lon="4.80014">
        <ele>264</ele>
        <time>2021-07-31T07:17:25.000Z</time>
      </trkpt>
      <trkpt lat="49.79069" lon="4.80019">
        <ele>264</ele>
        <time>2021-07-31T07:17:26.000Z</time>
      </trkpt>
      <trkpt lat="49.79075" lon="4.80025">
        <ele>264</ele>
        <time>2021-07-31T07:17:27.000Z</time>
      </trkpt>
      <trkpt lat="49.79082" lon="4.8003">
        <ele>264</ele>
        <time>2021-07-31T07:17:28.000Z</time>
      </trkpt>
      <trkpt lat="49.79088" lon="4.80036">
        <ele>264</ele>
        <time>2021-07-31T07:17:29.000Z</time>
      </trkpt>
      <trkpt lat="49.79094" lon="4.80041">
        <ele>264</ele>
        <time>2021-07-31T07:17:30.000Z</time>
      </trkpt>
      <trkpt lat="49.791" lon="4.80047">
        <ele>264</ele>
        <time>2021-07-31T07:17:31.000Z</time>
      </trkpt>
      <trkpt lat="49.79106" lon="4.80052">
        <ele>264</ele>
        <time>2021-07-31T07:17:32.000Z</time>
      </trkpt>
      <trkpt lat="49.79112" lon="4.80057">
        <ele>265</ele>
        <time>2021-07-31T07:17:33.000Z</time>
      </trkpt>
      <trkpt lat="49.79118" lon="4.80062">
        <ele>265</ele>
        <time>2021-07-31T07:17:34.000Z</time>
      </trkpt>
      <trkpt lat="49.79124" lon="4.80065">
        <ele>265</ele>
        <time>2021-07-31T07:17:35.000Z</time>
      </trkpt>
      <trkpt lat="49.79131" lon="4.80067">
        <ele>265</ele>
        <time>2021-07-31T07:17:36.000Z</time>
      </trkpt>
      <trkpt lat="49.79137" lon="4.80069">
        <ele>265</ele>
        <time>2021-07-31T07:17:37.000Z</time>
      </trkpt>
      <trkpt lat="49.79143" lon="4.8007">
        <ele>265</ele>
        <time>2021-07-31T07:17:38.000Z</time>
      </trkpt>
      <trkpt lat="49.79149" lon="4.8007">
        <ele>265</ele>
        <time>2021-07-31T07:17:39.000Z</time>
      </trkpt>
      <trkpt lat="49.79155" lon="4.80069">
        <ele>265</ele>
        <time>2021-07-31T07:17:40.000Z</time>
      </trkpt>
      <trkpt lat="49.79161" lon="4.80068">
        <ele>265</ele>
        <time>2021-07-31T07:17:41.000Z</time>
      </trkpt>
      <trkpt lat="49.79167" lon="4.80066">
        <ele>265</ele>
        <time>2021-07-31T07:17:42.000Z</time>
      </trkpt>
      <trkpt lat="49.79173" lon="4.80065">
        <ele>264</ele>
        <time>2021-07-31T07:17:43.000Z</time>
      </trkpt>
      <trkpt lat="49.79179" lon="4.80065">
        <ele>264</ele>
        <time>2021-07-31T07:17:44.000Z</time>
      </trkpt>
      <trkpt lat="49.79184" lon="4.80063">
        <ele>264</ele>
        <time>2021-07-31T07:17:45.000Z</time>
      </trkpt>
      <trkpt lat="49.79189" lon="4.80061">
        <ele>264</ele>
        <time>2021-07-31T07:17:46.000Z</time>
      </trkpt>
      <trkpt lat="49.79194" lon="4.80061">
        <ele>264</ele>
        <time>2021-07-31T07:17:47.000Z</time>
      </trkpt>
      <trkpt lat="49.79199" lon="4.80061">
        <ele>265</ele>
        <time>2021-07-31T07:17:48.000Z</time>
      </trkpt>
      <trkpt lat="49.79204" lon="4.80061">
        <ele>265</ele>
        <time>2021-07-31T07:17:49.000Z</time>
      </trkpt>
      <trkpt lat="49.79209" lon="4.8006">
        <ele>265</ele>
        <time>2021-07-31T07:17:50.000Z</time>
      </trkpt>
      <trkpt lat="49.79212" lon="4.8006">
        <ele>265</ele>
        <time>2021-07-31T07:17:51.000Z</time>
      </trkpt>
      <trkpt lat="49.79215" lon="4.80061">
        <ele>265</ele>
        <time>2021-07-31T07:17:52.000Z</time>
      </trkpt>
      <trkpt lat="49.79219" lon="4.8006">
        <ele>265</ele>
        <time>2021-07-31T07:17:53.000Z</time>
      </trkpt>
      <trkpt lat="49.79222" lon="4.80059">
        <ele>266</ele>
        <time>2021-07-31T07:17:54.000Z</time>
      </trkpt>
      <trkpt lat="49.79225" lon="4.80058">
        <ele>266</ele>
        <time>2021-07-31T07:17:55.000Z</time>
      </trkpt>
      <trkpt lat="49.79228" lon="4.80057">
        <ele>266</ele>
        <time>2021-07-31T07:17:56.000Z</time>
      </trkpt>
      <trkpt lat="49.79231" lon="4.80056">
        <ele>266</ele>
        <time>2021-07-31T07:17:57.000Z</time>
      </trkpt>
      <trkpt lat="49.79233" lon="4.80055">
        <ele>266</ele>
        <time>2021-07-31T07:17:58.000Z</time>
      </trkpt>
      <trkpt lat="49.79236" lon="4.80055">
        <ele>266</ele>
        <time>2021-07-31T07:17:59.000Z</time>
      </trkpt>
      <trkpt lat="49.79239" lon="4.80054">
        <ele>267</ele>
        <time>2021-07-31T07:18:00.000Z</time>
      </trkpt>
      <trkpt lat="49.79242" lon="4.80053">
        <ele>267</ele>
        <time>2021-07-31T07:18:01.000Z</time>
      </trkpt>
      <trkpt lat="49.79244" lon="4.80052">
        <ele>267</ele>
        <time>2021-07-31T07:18:02.000Z</time>
      </trkpt>
      <trkpt lat="49.79247" lon="4.80051">
        <ele>267</ele>
        <time>2021-07-31T07:18:03.000Z</time>
      </trkpt>
      <trkpt lat="49.79249" lon="4.8005">
        <ele>268</ele>
        <time>2021-07-31T07:18:04.000Z</time>
      </trkpt>
      <trkpt lat="49.79252" lon="4.80049">
        <ele>268</ele>
        <time>2021-07-31T07:18:05.000Z</time>
      </trkpt>
      <trkpt lat="49.79255" lon="4.80048">
        <ele>268</ele>
        <time>2021-07-31T07:18:06.000Z</time>
      </trkpt>
      <trkpt lat="49.79258" lon="4.80047">
        <ele>269</ele>
        <time>2021-07-31T07:18:07.000Z</time>
      </trkpt>
      <trkpt lat="49.79261" lon="4.80045">
        <ele>269</ele>
        <time>2021-07-31T07:18:08.000Z</time>
      </trkpt>
      <trkpt lat="49.79264" lon="4.80045">
        <ele>269</ele>
        <time>2021-07-31T07:18:09.000Z</time>
      </trkpt>
      <trkpt lat="49.79267" lon="4.80044">
        <ele>269</ele>
        <time>2021-07-31T07:18:10.000Z</time>
      </trkpt>
      <trkpt lat="49.7927" lon="4.80043">
        <ele>270</ele>
        <time>2021-07-31T07:18:11.000Z</time>
      </trkpt>
      <trkpt lat="49.79273" lon="4.80042">
        <ele>270</ele>
        <time>2021-07-31T07:18:12.000Z</time>
      </trkpt>
      <trkpt lat="49.79276" lon="4.80042">
        <ele>270</ele>
        <time>2021-07-31T07:18:13.000Z</time>
      </trkpt>
      <trkpt lat="49.79278" lon="4.80042">
        <ele>270</ele>
        <time>2021-07-31T07:18:14.000Z</time>
      </trkpt>
      <trkpt lat="49.7928" lon="4.80042">
        <ele>271</ele>
        <time>2021-07-31T07:18:15.000Z</time>
      </trkpt>
      <trkpt lat="49.79283" lon="4.80041">
        <ele>271</ele>
        <time>2021-07-31T07:18:16.000Z</time>
      </trkpt>
      <trkpt lat="49.79286" lon="4.80041">
        <ele>271</ele>
        <time>2021-07-31T07:18:17.000Z</time>
      </trkpt>
      <trkpt lat="49.79289" lon="4.8004">
        <ele>271</ele>
        <time>2021-07-31T07:18:18.000Z</time>
      </trkpt>
      <trkpt lat="49.79292" lon="4.80038">
        <ele>272</ele>
        <time>2021-07-31T07:18:19.000Z</time>
      </trkpt>
      <trkpt lat="49.79295" lon="4.80038">
        <ele>272</ele>
        <time>2021-07-31T07:18:20.000Z</time>
      </trkpt>
      <trkpt lat="49.79298" lon="4.80037">
        <ele>272</ele>
        <time>2021-07-31T07:18:21.000Z</time>
      </trkpt>
      <trkpt lat="49.793" lon="4.80035">
        <ele>272</ele>
        <time>2021-07-31T07:18:22.000Z</time>
      </trkpt>
      <trkpt lat="49.79302" lon="4.80033">
        <ele>273</ele>
        <time>2021-07-31T07:18:23.000Z</time>
      </trkpt>
      <trkpt lat="49.79305" lon="4.8003">
        <ele>273</ele>
        <time>2021-07-31T07:18:24.000Z</time>
      </trkpt>
      <trkpt lat="49.79308" lon="4.80026">
        <ele>273</ele>
        <time>2021-07-31T07:18:25.000Z</time>
      </trkpt>
      <trkpt lat="49.7931" lon="4.80022">
        <ele>273</ele>
        <time>2021-07-31T07:18:26.000Z</time>
      </trkpt>
      <trkpt lat="49.79313" lon="4.80017">
        <ele>274</ele>
        <time>2021-07-31T07:18:27.000Z</time>
      </trkpt>
      <trkpt lat="49.79315" lon="4.80012">
        <ele>274</ele>
        <time>2021-07-31T07:18:28.000Z</time>
      </trkpt>
      <trkpt lat="49.79318" lon="4.80008">
        <ele>274</ele>
        <time>2021-07-31T07:18:29.000Z</time>
      </trkpt>
      <trkpt lat="49.79321" lon="4.80003">
        <ele>274</ele>
        <time>2021-07-31T07:18:30.000Z</time>
      </trkpt>
      <trkpt lat="49.79323" lon="4.79998">
        <ele>275</ele>
        <time>2021-07-31T07:18:31.000Z</time>
      </trkpt>
      <trkpt lat="49.79324" lon="4.79992">
        <ele>275</ele>
        <time>2021-07-31T07:18:32.000Z</time>
      </trkpt>
      <trkpt lat="49.79326" lon="4.79986">
        <ele>275</ele>
        <time>2021-07-31T07:18:33.000Z</time>
      </trkpt>
      <trkpt lat="49.79328" lon="4.7998">
        <ele>275</ele>
        <time>2021-07-31T07:18:34.000Z</time>
      </trkpt>
      <trkpt lat="49.7933" lon="4.79975">
        <ele>275</ele>
        <time>2021-07-31T07:18:35.000Z</time>
      </trkpt>
      <trkpt lat="49.79332" lon="4.7997">
        <ele>276</ele>
        <time>2021-07-31T07:18:36.000Z</time>
      </trkpt>
      <trkpt lat="49.79334" lon="4.79964">
        <ele>276</ele>
        <time>2021-07-31T07:18:37.000Z</time>
      </trkpt>
      <trkpt lat="49.79336" lon="4.79959">
        <ele>276</ele>
        <time>2021-07-31T07:18:38.000Z</time>
      </trkpt>
      <trkpt lat="49.79337" lon="4.79952">
        <ele>276</ele>
        <time>2021-07-31T07:18:39.000Z</time>
      </trkpt>
      <trkpt lat="49.79339" lon="4.79945">
        <ele>277</ele>
        <time>2021-07-31T07:18:40.000Z</time>
      </trkpt>
      <trkpt lat="49.79341" lon="4.79938">
        <ele>277</ele>
        <time>2021-07-31T07:18:41.000Z</time>
      </trkpt>
      <trkpt lat="49.79343" lon="4.79933">
        <ele>277</ele>
        <time>2021-07-31T07:18:42.000Z</time>
      </trkpt>
      <trkpt lat="49.79346" lon="4.79927">
        <ele>277</ele>
        <time>2021-07-31T07:18:43.000Z</time>
      </trkpt>
      <trkpt lat="49.79348" lon="4.79922">
        <ele>278</ele>
        <time>2021-07-31T07:18:44.000Z</time>
      </trkpt>
      <trkpt lat="49.7935" lon="4.79916">
        <ele>278</ele>
        <time>2021-07-31T07:18:45.000Z</time>
      </trkpt>
      <trkpt lat="49.79351" lon="4.7991">
        <ele>278</ele>
        <time>2021-07-31T07:18:46.000Z</time>
      </trkpt>
      <trkpt lat="49.79353" lon="4.79906">
        <ele>278</ele>
        <time>2021-07-31T07:18:47.000Z</time>
      </trkpt>
      <trkpt lat="49.79355" lon="4.79902">
        <ele>279</ele>
        <time>2021-07-31T07:18:48.000Z</time>
      </trkpt>
      <trkpt lat="49.79357" lon="4.79898">
        <ele>279</ele>
        <time>2021-07-31T07:18:49.000Z</time>
      </trkpt>
      <trkpt lat="49.79359" lon="4.79893">
        <ele>279</ele>
        <time>2021-07-31T07:18:50.000Z</time>
      </trkpt>
      <trkpt lat="49.79362" lon="4.7989">
        <ele>279</ele>
        <time>2021-07-31T07:18:51.000Z</time>
      </trkpt>
      <trkpt lat="49.79363" lon="4.79886">
        <ele>279</ele>
        <time>2021-07-31T07:18:52.000Z</time>
      </trkpt>
      <trkpt lat="49.79365" lon="4.79882">
        <ele>279</ele>
        <time>2021-07-31T07:18:53.000Z</time>
      </trkpt>
      <trkpt lat="49.79367" lon="4.79878">
        <ele>279</ele>
        <time>2021-07-31T07:18:54.000Z</time>
      </trkpt>
      <trkpt lat="49.79369" lon="4.79875">
        <ele>279</ele>
        <time>2021-07-31T07:18:55.000Z</time>
      </trkpt>
      <trkpt lat="49.79371" lon="4.79873">
        <ele>280</ele>
        <time>2021-07-31T07:18:56.000Z</time>
      </trkpt>
      <trkpt lat="49.79373" lon="4.79871">
        <ele>280</ele>
        <time>2021-07-31T07:18:57.000Z</time>
      </trkpt>
      <trkpt lat="49.79375" lon="4.79868">
        <ele>280</ele>
        <time>2021-07-31T07:18:58.000Z</time>
      </trkpt>
      <trkpt lat="49.79376" lon="4.79864">
        <ele>280</ele>
        <time>2021-07-31T07:18:59.000Z</time>
      </trkpt>
      <trkpt lat="49.79378" lon="4.79861">
        <ele>280</ele>
        <time>2021-07-31T07:19:00.000Z</time>
      </trkpt>
      <trkpt lat="49.79379" lon="4.79857">
        <ele>281</ele>
        <time>2021-07-31T07:19:01.000Z</time>
      </trkpt>
      <trkpt lat="49.7938" lon="4.79853">
        <ele>281</ele>
        <time>2021-07-31T07:19:02.000Z</time>
      </trkpt>
      <trkpt lat="49.79381" lon="4.79848">
        <ele>281</ele>
        <time>2021-07-31T07:19:03.000Z</time>
      </trkpt>
      <trkpt lat="49.79383" lon="4.79846">
        <ele>281</ele>
        <time>2021-07-31T07:19:04.000Z</time>
      </trkpt>
      <trkpt lat="49.79385" lon="4.79844">
        <ele>282</ele>
        <time>2021-07-31T07:19:05.000Z</time>
      </trkpt>
      <trkpt lat="49.79388" lon="4.79844">
        <ele>282</ele>
        <time>2021-07-31T07:19:06.000Z</time>
      </trkpt>
      <trkpt lat="49.79391" lon="4.79844">
        <ele>282</ele>
        <time>2021-07-31T07:19:07.000Z</time>
      </trkpt>
      <trkpt lat="49.79394" lon="4.79844">
        <ele>282</ele>
        <time>2021-07-31T07:19:08.000Z</time>
      </trkpt>
      <trkpt lat="49.79397" lon="4.79843">
        <ele>281</ele>
        <time>2021-07-31T07:19:09.000Z</time>
      </trkpt>
      <trkpt lat="49.794" lon="4.79843">
        <ele>281</ele>
        <time>2021-07-31T07:19:10.000Z</time>
      </trkpt>
      <trkpt lat="49.79403" lon="4.79843">
        <ele>281</ele>
        <time>2021-07-31T07:19:11.000Z</time>
      </trkpt>
      <trkpt lat="49.79406" lon="4.79842">
        <ele>281</ele>
        <time>2021-07-31T07:19:12.000Z</time>
      </trkpt>
      <trkpt lat="49.79409" lon="4.79842">
        <ele>281</ele>
        <time>2021-07-31T07:19:13.000Z</time>
      </trkpt>
      <trkpt lat="49.79411" lon="4.79842">
        <ele>281</ele>
        <time>2021-07-31T07:19:14.000Z</time>
      </trkpt>
      <trkpt lat="49.79413" lon="4.79841">
        <ele>281</ele>
        <time>2021-07-31T07:19:15.000Z</time>
      </trkpt>
      <trkpt lat="49.79416" lon="4.79841">
        <ele>282</ele>
        <time>2021-07-31T07:19:16.000Z</time>
      </trkpt>
      <trkpt lat="49.79418" lon="4.7984">
        <ele>282</ele>
        <time>2021-07-31T07:19:17.000Z</time>
      </trkpt>
      <trkpt lat="49.79421" lon="4.7984">
        <ele>282</ele>
        <time>2021-07-31T07:19:18.000Z</time>
      </trkpt>
      <trkpt lat="49.79423" lon="4.79839">
        <ele>282</ele>
        <time>2021-07-31T07:19:19.000Z</time>
      </trkpt>
      <trkpt lat="49.79426" lon="4.79838">
        <ele>282</ele>
        <time>2021-07-31T07:19:20.000Z</time>
      </trkpt>
      <trkpt lat="49.79429" lon="4.79838">
        <ele>282</ele>
        <time>2021-07-31T07:19:21.000Z</time>
      </trkpt>
      <trkpt lat="49.79432" lon="4.79838">
        <ele>282</ele>
        <time>2021-07-31T07:19:22.000Z</time>
      </trkpt>
      <trkpt lat="49.79435" lon="4.79838">
        <ele>282</ele>
        <time>2021-07-31T07:19:23.000Z</time>
      </trkpt>
      <trkpt lat="49.79437" lon="4.79839">
        <ele>282</ele>
        <time>2021-07-31T07:19:24.000Z</time>
      </trkpt>
      <trkpt lat="49.79439" lon="4.79839">
        <ele>282</ele>
        <time>2021-07-31T07:19:25.000Z</time>
      </trkpt>
      <trkpt lat="49.79442" lon="4.79839">
        <ele>282</ele>
        <time>2021-07-31T07:19:26.000Z</time>
      </trkpt>
      <trkpt lat="49.79444" lon="4.79839">
        <ele>282</ele>
        <time>2021-07-31T07:19:27.000Z</time>
      </trkpt>
      <trkpt lat="49.79447" lon="4.79838">
        <ele>283</ele>
        <time>2021-07-31T07:19:28.000Z</time>
      </trkpt>
      <trkpt lat="49.7945" lon="4.79837">
        <ele>283</ele>
        <time>2021-07-31T07:19:29.000Z</time>
      </trkpt>
      <trkpt lat="49.79453" lon="4.79837">
        <ele>283</ele>
        <time>2021-07-31T07:19:30.000Z</time>
      </trkpt>
      <trkpt lat="49.79456" lon="4.79837">
        <ele>283</ele>
        <time>2021-07-31T07:19:31.000Z</time>
      </trkpt>
      <trkpt lat="49.7946" lon="4.79836">
        <ele>283</ele>
        <time>2021-07-31T07:19:32.000Z</time>
      </trkpt>
      <trkpt lat="49.79463" lon="4.79837">
        <ele>283</ele>
        <time>2021-07-31T07:19:33.000Z</time>
      </trkpt>
      <trkpt lat="49.79466" lon="4.79837">
        <ele>284</ele>
        <time>2021-07-31T07:19:34.000Z</time>
      </trkpt>
      <trkpt lat="49.79468" lon="4.79836">
        <ele>284</ele>
        <time>2021-07-31T07:19:35.000Z</time>
      </trkpt>
      <trkpt lat="49.7947" lon="4.79836">
        <ele>284</ele>
        <time>2021-07-31T07:19:36.000Z</time>
      </trkpt>
      <trkpt lat="49.79473" lon="4.79836">
        <ele>285</ele>
        <time>2021-07-31T07:19:37.000Z</time>
      </trkpt>
      <trkpt lat="49.79476" lon="4.79835">
        <ele>285</ele>
        <time>2021-07-31T07:19:38.000Z</time>
      </trkpt>
      <trkpt lat="49.79479" lon="4.79835">
        <ele>285</ele>
        <time>2021-07-31T07:19:39.000Z</time>
      </trkpt>
      <trkpt lat="49.79481" lon="4.79835">
        <ele>285</ele>
        <time>2021-07-31T07:19:40.000Z</time>
      </trkpt>
      <trkpt lat="49.79484" lon="4.79835">
        <ele>285</ele>
        <time>2021-07-31T07:19:41.000Z</time>
      </trkpt>
      <trkpt lat="49.79486" lon="4.79836">
        <ele>286</ele>
        <time>2021-07-31T07:19:42.000Z</time>
      </trkpt>
      <trkpt lat="49.79488" lon="4.79836">
        <ele>286</ele>
        <time>2021-07-31T07:19:43.000Z</time>
      </trkpt>
      <trkpt lat="49.79491" lon="4.79836">
        <ele>286</ele>
        <time>2021-07-31T07:19:44.000Z</time>
      </trkpt>
      <trkpt lat="49.79493" lon="4.79836">
        <ele>286</ele>
        <time>2021-07-31T07:19:45.000Z</time>
      </trkpt>
      <trkpt lat="49.79495" lon="4.79835">
        <ele>286</ele>
        <time>2021-07-31T07:19:46.000Z</time>
      </trkpt>
      <trkpt lat="49.79499" lon="4.79835">
        <ele>286</ele>
        <time>2021-07-31T07:19:47.000Z</time>
      </trkpt>
      <trkpt lat="49.79502" lon="4.79835">
        <ele>286</ele>
        <time>2021-07-31T07:19:48.000Z</time>
      </trkpt>
      <trkpt lat="49.79505" lon="4.79835">
        <ele>287</ele>
        <time>2021-07-31T07:19:49.000Z</time>
      </trkpt>
      <trkpt lat="49.79508" lon="4.79834">
        <ele>287</ele>
        <time>2021-07-31T07:19:50.000Z</time>
      </trkpt>
      <trkpt lat="49.79511" lon="4.79833">
        <ele>287</ele>
        <time>2021-07-31T07:19:51.000Z</time>
      </trkpt>
      <trkpt lat="49.79513" lon="4.79832">
        <ele>287</ele>
        <time>2021-07-31T07:19:52.000Z</time>
      </trkpt>
      <trkpt lat="49.79516" lon="4.79832">
        <ele>288</ele>
        <time>2021-07-31T07:19:53.000Z</time>
      </trkpt>
      <trkpt lat="49.79518" lon="4.79832">
        <ele>288</ele>
        <time>2021-07-31T07:19:54.000Z</time>
      </trkpt>
      <trkpt lat="49.79521" lon="4.79832">
        <ele>288</ele>
        <time>2021-07-31T07:19:55.000Z</time>
      </trkpt>
      <trkpt lat="49.79524" lon="4.79832">
        <ele>288</ele>
        <time>2021-07-31T07:19:56.000Z</time>
      </trkpt>
      <trkpt lat="49.79527" lon="4.79831">
        <ele>288</ele>
        <time>2021-07-31T07:19:57.000Z</time>
      </trkpt>
      <trkpt lat="49.7953" lon="4.79831">
        <ele>289</ele>
        <time>2021-07-31T07:19:58.000Z</time>
      </trkpt>
      <trkpt lat="49.79533" lon="4.7983">
        <ele>289</ele>
        <time>2021-07-31T07:19:59.000Z</time>
      </trkpt>
      <trkpt lat="49.79536" lon="4.7983">
        <ele>289</ele>
        <time>2021-07-31T07:20:00.000Z</time>
      </trkpt>
      <trkpt lat="49.79539" lon="4.79829">
        <ele>289</ele>
        <time>2021-07-31T07:20:01.000Z</time>
      </trkpt>
      <trkpt lat="49.79542" lon="4.7983">
        <ele>290</ele>
        <time>2021-07-31T07:20:02.000Z</time>
      </trkpt>
      <trkpt lat="49.79544" lon="4.7983">
        <ele>290</ele>
        <time>2021-07-31T07:20:03.000Z</time>
      </trkpt>
      <trkpt lat="49.79548" lon="4.79829">
        <ele>290</ele>
        <time>2021-07-31T07:20:04.000Z</time>
      </trkpt>
      <trkpt lat="49.79551" lon="4.79829">
        <ele>290</ele>
        <time>2021-07-31T07:20:05.000Z</time>
      </trkpt>
      <trkpt lat="49.79554" lon="4.79829">
        <ele>290</ele>
        <time>2021-07-31T07:20:06.000Z</time>
      </trkpt>
      <trkpt lat="49.79557" lon="4.79829">
        <ele>290</ele>
        <time>2021-07-31T07:20:07.000Z</time>
      </trkpt>
      <trkpt lat="49.7956" lon="4.79829">
        <ele>291</ele>
        <time>2021-07-31T07:20:08.000Z</time>
      </trkpt>
      <trkpt lat="49.79563" lon="4.7983">
        <ele>291</ele>
        <time>2021-07-31T07:20:09.000Z</time>
      </trkpt>
      <trkpt lat="49.79566" lon="4.79829">
        <ele>291</ele>
        <time>2021-07-31T07:20:10.000Z</time>
      </trkpt>
      <trkpt lat="49.79569" lon="4.79829">
        <ele>291</ele>
        <time>2021-07-31T07:20:11.000Z</time>
      </trkpt>
      <trkpt lat="49.79571" lon="4.79829">
        <ele>291</ele>
        <time>2021-07-31T07:20:12.000Z</time>
      </trkpt>
      <trkpt lat="49.79574" lon="4.79828">
        <ele>292</ele>
        <time>2021-07-31T07:20:13.000Z</time>
      </trkpt>
      <trkpt lat="49.79577" lon="4.79828">
        <ele>292</ele>
        <time>2021-07-31T07:20:14.000Z</time>
      </trkpt>
      <trkpt lat="49.7958" lon="4.79828">
        <ele>292</ele>
        <time>2021-07-31T07:20:15.000Z</time>
      </trkpt>
      <trkpt lat="49.79583" lon="4.79827">
        <ele>292</ele>
        <time>2021-07-31T07:20:16.000Z</time>
      </trkpt>
      <trkpt lat="49.79586" lon="4.79826">
        <ele>292</ele>
        <time>2021-07-31T07:20:17.000Z</time>
      </trkpt>
      <trkpt lat="49.79588" lon="4.79825">
        <ele>293</ele>
        <time>2021-07-31T07:20:18.000Z</time>
      </trkpt>
      <trkpt lat="49.79591" lon="4.79825">
        <ele>293</ele>
        <time>2021-07-31T07:20:19.000Z</time>
      </trkpt>
      <trkpt lat="49.79594" lon="4.79825">
        <ele>293</ele>
        <time>2021-07-31T07:20:20.000Z</time>
      </trkpt>
      <trkpt lat="49.79596" lon="4.79825">
        <ele>293</ele>
        <time>2021-07-31T07:20:21.000Z</time>
      </trkpt>
      <trkpt lat="49.79599" lon="4.79825">
        <ele>293</ele>
        <time>2021-07-31T07:20:22.000Z</time>
      </trkpt>
      <trkpt lat="49.79601" lon="4.79825">
        <ele>294</ele>
        <time>2021-07-31T07:20:23.000Z</time>
      </trkpt>
      <trkpt lat="49.79604" lon="4.79825">
        <ele>294</ele>
        <time>2021-07-31T07:20:24.000Z</time>
      </trkpt>
      <trkpt lat="49.79607" lon="4.79825">
        <ele>294</ele>
        <time>2021-07-31T07:20:25.000Z</time>
      </trkpt>
      <trkpt lat="49.7961" lon="4.79825">
        <ele>294</ele>
        <time>2021-07-31T07:20:26.000Z</time>
      </trkpt>
      <trkpt lat="49.79612" lon="4.79825">
        <ele>295</ele>
        <time>2021-07-31T07:20:27.000Z</time>
      </trkpt>
      <trkpt lat="49.79615" lon="4.79825">
        <ele>295</ele>
        <time>2021-07-31T07:20:28.000Z</time>
      </trkpt>
      <trkpt lat="49.79617" lon="4.79824">
        <ele>295</ele>
        <time>2021-07-31T07:20:29.000Z</time>
      </trkpt>
      <trkpt lat="49.79619" lon="4.79824">
        <ele>295</ele>
        <time>2021-07-31T07:20:30.000Z</time>
      </trkpt>
      <trkpt lat="49.79622" lon="4.79824">
        <ele>296</ele>
        <time>2021-07-31T07:20:31.000Z</time>
      </trkpt>
      <trkpt lat="49.79625" lon="4.79824">
        <ele>296</ele>
        <time>2021-07-31T07:20:32.000Z</time>
      </trkpt>
      <trkpt lat="49.79628" lon="4.79824">
        <ele>296</ele>
        <time>2021-07-31T07:20:33.000Z</time>
      </trkpt>
      <trkpt lat="49.7963" lon="4.79824">
        <ele>296</ele>
        <time>2021-07-31T07:20:34.000Z</time>
      </trkpt>
      <trkpt lat="49.79633" lon="4.79823">
        <ele>296</ele>
        <time>2021-07-31T07:20:35.000Z</time>
      </trkpt>
      <trkpt lat="49.79636" lon="4.79823">
        <ele>297</ele>
        <time>2021-07-31T07:20:36.000Z</time>
      </trkpt>
      <trkpt lat="49.79639" lon="4.79822">
        <ele>297</ele>
        <time>2021-07-31T07:20:37.000Z</time>
      </trkpt>
      <trkpt lat="49.79642" lon="4.79822">
        <ele>297</ele>
        <time>2021-07-31T07:20:38.000Z</time>
      </trkpt>
      <trkpt lat="49.79645" lon="4.79823">
        <ele>297</ele>
        <time>2021-07-31T07:20:39.000Z</time>
      </trkpt>
      <trkpt lat="49.79649" lon="4.79823">
        <ele>297</ele>
        <time>2021-07-31T07:20:40.000Z</time>
      </trkpt>
      <trkpt lat="49.79652" lon="4.79824">
        <ele>297</ele>
        <time>2021-07-31T07:20:41.000Z</time>
      </trkpt>
      <trkpt lat="49.79655" lon="4.79823">
        <ele>298</ele>
        <time>2021-07-31T07:20:42.000Z</time>
      </trkpt>
      <trkpt lat="49.79658" lon="4.79823">
        <ele>298</ele>
        <time>2021-07-31T07:20:43.000Z</time>
      </trkpt>
      <trkpt lat="49.79661" lon="4.79823">
        <ele>298</ele>
        <time>2021-07-31T07:20:44.000Z</time>
      </trkpt>
      <trkpt lat="49.79664" lon="4.79823">
        <ele>298</ele>
        <time>2021-07-31T07:20:45.000Z</time>
      </trkpt>
      <trkpt lat="49.79668" lon="4.79823">
        <ele>298</ele>
        <time>2021-07-31T07:20:46.000Z</time>
      </trkpt>
      <trkpt lat="49.79671" lon="4.79824">
        <ele>298</ele>
        <time>2021-07-31T07:20:47.000Z</time>
      </trkpt>
      <trkpt lat="49.79675" lon="4.79823">
        <ele>298</ele>
        <time>2021-07-31T07:20:48.000Z</time>
      </trkpt>
      <trkpt lat="49.79679" lon="4.79822">
        <ele>298</ele>
        <time>2021-07-31T07:20:49.000Z</time>
      </trkpt>
      <trkpt lat="49.79683" lon="4.79822">
        <ele>298</ele>
        <time>2021-07-31T07:20:50.000Z</time>
      </trkpt>
      <trkpt lat="49.79688" lon="4.79822">
        <ele>298</ele>
        <time>2021-07-31T07:20:51.000Z</time>
      </trkpt>
      <trkpt lat="49.79692" lon="4.79821">
        <ele>298</ele>
        <time>2021-07-31T07:20:52.000Z</time>
      </trkpt>
      <trkpt lat="49.79697" lon="4.79821">
        <ele>298</ele>
        <time>2021-07-31T07:20:53.000Z</time>
      </trkpt>
      <trkpt lat="49.79701" lon="4.79821">
        <ele>298</ele>
        <time>2021-07-31T07:20:54.000Z</time>
      </trkpt>
      <trkpt lat="49.79705" lon="4.79821">
        <ele>298</ele>
        <time>2021-07-31T07:20:55.000Z</time>
      </trkpt>
      <trkpt lat="49.79709" lon="4.79821">
        <ele>298</ele>
        <time>2021-07-31T07:20:56.000Z</time>
      </trkpt>
      <trkpt lat="49.79714" lon="4.7982">
        <ele>298</ele>
        <time>2021-07-31T07:20:57.000Z</time>
      </trkpt>
      <trkpt lat="49.79719" lon="4.79819">
        <ele>298</ele>
        <time>2021-07-31T07:20:58.000Z</time>
      </trkpt>
      <trkpt lat="49.79725" lon="4.79818">
        <ele>298</ele>
        <time>2021-07-31T07:20:59.000Z</time>
      </trkpt>
      <trkpt lat="49.7973" lon="4.79818">
        <ele>298</ele>
        <time>2021-07-31T07:21:00.000Z</time>
      </trkpt>
      <trkpt lat="49.79736" lon="4.79817">
        <ele>298</ele>
        <time>2021-07-31T07:21:01.000Z</time>
      </trkpt>
      <trkpt lat="49.79741" lon="4.79816">
        <ele>299</ele>
        <time>2021-07-31T07:21:02.000Z</time>
      </trkpt>
      <trkpt lat="49.79747" lon="4.79815">
        <ele>299</ele>
        <time>2021-07-31T07:21:03.000Z</time>
      </trkpt>
      <trkpt lat="49.79752" lon="4.79814">
        <ele>299</ele>
        <time>2021-07-31T07:21:04.000Z</time>
      </trkpt>
      <trkpt lat="49.79757" lon="4.79814">
        <ele>299</ele>
        <time>2021-07-31T07:21:05.000Z</time>
      </trkpt>
      <trkpt lat="49.79762" lon="4.79814">
        <ele>299</ele>
        <time>2021-07-31T07:21:06.000Z</time>
      </trkpt>
      <trkpt lat="49.79766" lon="4.79815">
        <ele>299</ele>
        <time>2021-07-31T07:21:07.000Z</time>
      </trkpt>
      <trkpt lat="49.79771" lon="4.79815">
        <ele>299</ele>
        <time>2021-07-31T07:21:08.000Z</time>
      </trkpt>
      <trkpt lat="49.79776" lon="4.79815">
        <ele>299</ele>
        <time>2021-07-31T07:21:09.000Z</time>
      </trkpt>
      <trkpt lat="49.79782" lon="4.79815">
        <ele>299</ele>
        <time>2021-07-31T07:21:10.000Z</time>
      </trkpt>
      <trkpt lat="49.79788" lon="4.79815">
        <ele>299</ele>
        <time>2021-07-31T07:21:11.000Z</time>
      </trkpt>
      <trkpt lat="49.79793" lon="4.79814">
        <ele>299</ele>
        <time>2021-07-31T07:21:12.000Z</time>
      </trkpt>
      <trkpt lat="49.79799" lon="4.79814">
        <ele>299</ele>
        <time>2021-07-31T07:21:13.000Z</time>
      </trkpt>
      <trkpt lat="49.79805" lon="4.79814">
        <ele>299</ele>
        <time>2021-07-31T07:21:14.000Z</time>
      </trkpt>
      <trkpt lat="49.7981" lon="4.79815">
        <ele>299</ele>
        <time>2021-07-31T07:21:15.000Z</time>
      </trkpt>
      <trkpt lat="49.79816" lon="4.79814">
        <ele>299</ele>
        <time>2021-07-31T07:21:16.000Z</time>
      </trkpt>
      <trkpt lat="49.79822" lon="4.79814">
        <ele>298</ele>
        <time>2021-07-31T07:21:17.000Z</time>
      </trkpt>
      <trkpt lat="49.79827" lon="4.79813">
        <ele>298</ele>
        <time>2021-07-31T07:21:18.000Z</time>
      </trkpt>
      <trkpt lat="49.79832" lon="4.79812">
        <ele>298</ele>
        <time>2021-07-31T07:21:19.000Z</time>
      </trkpt>
      <trkpt lat="49.79837" lon="4.79812">
        <ele>298</ele>
        <time>2021-07-31T07:21:20.000Z</time>
      </trkpt>
      <trkpt lat="49.79842" lon="4.79812">
        <ele>298</ele>
        <time>2021-07-31T07:21:21.000Z</time>
      </trkpt>
      <trkpt lat="49.79847" lon="4.79811">
        <ele>298</ele>
        <time>2021-07-31T07:21:22.000Z</time>
      </trkpt>
      <trkpt lat="49.79852" lon="4.79811">
        <ele>298</ele>
        <time>2021-07-31T07:21:23.000Z</time>
      </trkpt>
      <trkpt lat="49.79857" lon="4.7981">
        <ele>298</ele>
        <time>2021-07-31T07:21:24.000Z</time>
      </trkpt>
      <trkpt lat="49.79862" lon="4.79809">
        <ele>298</ele>
        <time>2021-07-31T07:21:25.000Z</time>
      </trkpt>
      <trkpt lat="49.79865" lon="4.79808">
        <ele>298</ele>
        <time>2021-07-31T07:21:26.000Z</time>
      </trkpt>
      <trkpt lat="49.79869" lon="4.79809">
        <ele>298</ele>
        <time>2021-07-31T07:21:27.000Z</time>
      </trkpt>
      <trkpt lat="49.79873" lon="4.79808">
        <ele>298</ele>
        <time>2021-07-31T07:21:28.000Z</time>
      </trkpt>
      <trkpt lat="49.79877" lon="4.79807">
        <ele>298</ele>
        <time>2021-07-31T07:21:29.000Z</time>
      </trkpt>
      <trkpt lat="49.79881" lon="4.79806">
        <ele>298</ele>
        <time>2021-07-31T07:21:30.000Z</time>
      </trkpt>
      <trkpt lat="49.79885" lon="4.79805">
        <ele>298</ele>
        <time>2021-07-31T07:21:31.000Z</time>
      </trkpt>
      <trkpt lat="49.7989" lon="4.79805">
        <ele>298</ele>
        <time>2021-07-31T07:21:32.000Z</time>
      </trkpt>
      <trkpt lat="49.79895" lon="4.79805">
        <ele>298</ele>
        <time>2021-07-31T07:21:33.000Z</time>
      </trkpt>
      <trkpt lat="49.799" lon="4.79805">
        <ele>298</ele>
        <time>2021-07-31T07:21:34.000Z</time>
      </trkpt>
      <trkpt lat="49.79904" lon="4.79804">
        <ele>298</ele>
        <time>2021-07-31T07:21:35.000Z</time>
      </trkpt>
      <trkpt lat="49.79909" lon="4.79804">
        <ele>298</ele>
        <time>2021-07-31T07:21:36.000Z</time>
      </trkpt>
      <trkpt lat="49.79914" lon="4.79804">
        <ele>298</ele>
        <time>2021-07-31T07:21:37.000Z</time>
      </trkpt>
      <trkpt lat="49.79919" lon="4.79803">
        <ele>298</ele>
        <time>2021-07-31T07:21:38.000Z</time>
      </trkpt>
      <trkpt lat="49.79924" lon="4.79802">
        <ele>298</ele>
        <time>2021-07-31T07:21:39.000Z</time>
      </trkpt>
      <trkpt lat="49.79929" lon="4.79801">
        <ele>298</ele>
        <time>2021-07-31T07:21:40.000Z</time>
      </trkpt>
      <trkpt lat="49.79933" lon="4.79802">
        <ele>298</ele>
        <time>2021-07-31T07:21:41.000Z</time>
      </trkpt>
      <trkpt lat="49.79938" lon="4.79802">
        <ele>298</ele>
        <time>2021-07-31T07:21:42.000Z</time>
      </trkpt>
      <trkpt lat="49.79943" lon="4.79801">
        <ele>298</ele>
        <time>2021-07-31T07:21:43.000Z</time>
      </trkpt>
      <trkpt lat="49.79948" lon="4.79801">
        <ele>298</ele>
        <time>2021-07-31T07:21:44.000Z</time>
      </trkpt>
      <trkpt lat="49.79953" lon="4.798">
        <ele>298</ele>
        <time>2021-07-31T07:21:45.000Z</time>
      </trkpt>
      <trkpt lat="49.79958" lon="4.798">
        <ele>298</ele>
        <time>2021-07-31T07:21:46.000Z</time>
      </trkpt>
      <trkpt lat="49.79962" lon="4.798">
        <ele>298</ele>
        <time>2021-07-31T07:21:47.000Z</time>
      </trkpt>
      <trkpt lat="49.79967" lon="4.79799">
        <ele>298</ele>
        <time>2021-07-31T07:21:48.000Z</time>
      </trkpt>
      <trkpt lat="49.79971" lon="4.79799">
        <ele>298</ele>
        <time>2021-07-31T07:21:49.000Z</time>
      </trkpt>
      <trkpt lat="49.79976" lon="4.79798">
        <ele>298</ele>
        <time>2021-07-31T07:21:50.000Z</time>
      </trkpt>
      <trkpt lat="49.79981" lon="4.79798">
        <ele>298</ele>
        <time>2021-07-31T07:21:51.000Z</time>
      </trkpt>
      <trkpt lat="49.79985" lon="4.79798">
        <ele>298</ele>
        <time>2021-07-31T07:21:52.000Z</time>
      </trkpt>
      <trkpt lat="49.7999" lon="4.79797">
        <ele>298</ele>
        <time>2021-07-31T07:21:53.000Z</time>
      </trkpt>
      <trkpt lat="49.79995" lon="4.79797">
        <ele>298</ele>
        <time>2021-07-31T07:21:54.000Z</time>
      </trkpt>
      <trkpt lat="49.8" lon="4.79796">
        <ele>297</ele>
        <time>2021-07-31T07:21:55.000Z</time>
      </trkpt>
      <trkpt lat="49.80004" lon="4.79796">
        <ele>297</ele>
        <time>2021-07-31T07:21:56.000Z</time>
      </trkpt>
      <trkpt lat="49.80009" lon="4.79795">
        <ele>297</ele>
        <time>2021-07-31T07:21:57.000Z</time>
      </trkpt>
      <trkpt lat="49.80014" lon="4.79796">
        <ele>297</ele>
        <time>2021-07-31T07:21:58.000Z</time>
      </trkpt>
      <trkpt lat="49.80019" lon="4.79796">
        <ele>297</ele>
        <time>2021-07-31T07:21:59.000Z</time>
      </trkpt>
      <trkpt lat="49.80025" lon="4.79796">
        <ele>297</ele>
        <time>2021-07-31T07:22:00.000Z</time>
      </trkpt>
      <trkpt lat="49.80031" lon="4.79795">
        <ele>297</ele>
        <time>2021-07-31T07:22:01.000Z</time>
      </trkpt>
      <trkpt lat="49.80038" lon="4.79794">
        <ele>297</ele>
        <time>2021-07-31T07:22:02.000Z</time>
      </trkpt>
      <trkpt lat="49.80043" lon="4.79793">
        <ele>297</ele>
        <time>2021-07-31T07:22:03.000Z</time>
      </trkpt>
      <trkpt lat="49.8005" lon="4.79792">
        <ele>297</ele>
        <time>2021-07-31T07:22:04.000Z</time>
      </trkpt>
      <trkpt lat="49.80055" lon="4.79793">
        <ele>297</ele>
        <time>2021-07-31T07:22:05.000Z</time>
      </trkpt>
      <trkpt lat="49.8006" lon="4.79791">
        <ele>297</ele>
        <time>2021-07-31T07:22:06.000Z</time>
      </trkpt>
      <trkpt lat="49.80064" lon="4.79789">
        <ele>297</ele>
        <time>2021-07-31T07:22:07.000Z</time>
      </trkpt>
      <trkpt lat="49.80068" lon="4.79789">
        <ele>297</ele>
        <time>2021-07-31T07:22:08.000Z</time>
      </trkpt>
      <trkpt lat="49.80073" lon="4.79788">
        <ele>297</ele>
        <time>2021-07-31T07:22:09.000Z</time>
      </trkpt>
      <trkpt lat="49.80078" lon="4.79787">
        <ele>297</ele>
        <time>2021-07-31T07:22:10.000Z</time>
      </trkpt>
      <trkpt lat="49.80083" lon="4.79787">
        <ele>297</ele>
        <time>2021-07-31T07:22:11.000Z</time>
      </trkpt>
      <trkpt lat="49.80089" lon="4.79787">
        <ele>297</ele>
        <time>2021-07-31T07:22:12.000Z</time>
      </trkpt>
      <trkpt lat="49.80095" lon="4.79787">
        <ele>297</ele>
        <time>2021-07-31T07:22:13.000Z</time>
      </trkpt>
      <trkpt lat="49.80101" lon="4.79787">
        <ele>297</ele>
        <time>2021-07-31T07:22:14.000Z</time>
      </trkpt>
      <trkpt lat="49.80106" lon="4.79787">
        <ele>297</ele>
        <time>2021-07-31T07:22:15.000Z</time>
      </trkpt>
      <trkpt lat="49.80111" lon="4.79786">
        <ele>297</ele>
        <time>2021-07-31T07:22:16.000Z</time>
      </trkpt>
      <trkpt lat="49.80116" lon="4.79784">
        <ele>297</ele>
        <time>2021-07-31T07:22:17.000Z</time>
      </trkpt>
      <trkpt lat="49.80122" lon="4.79784">
        <ele>297</ele>
        <time>2021-07-31T07:22:18.000Z</time>
      </trkpt>
      <trkpt lat="49.80128" lon="4.79784">
        <ele>296</ele>
        <time>2021-07-31T07:22:19.000Z</time>
      </trkpt>
      <trkpt lat="49.80134" lon="4.79784">
        <ele>296</ele>
        <time>2021-07-31T07:22:20.000Z</time>
      </trkpt>
      <trkpt lat="49.8014" lon="4.79783">
        <ele>296</ele>
        <time>2021-07-31T07:22:21.000Z</time>
      </trkpt>
      <trkpt lat="49.80145" lon="4.79782">
        <ele>295</ele>
        <time>2021-07-31T07:22:22.000Z</time>
      </trkpt>
      <trkpt lat="49.80149" lon="4.79781">
        <ele>295</ele>
        <time>2021-07-31T07:22:23.000Z</time>
      </trkpt>
      <trkpt lat="49.80153" lon="4.79779">
        <ele>294</ele>
        <time>2021-07-31T07:22:24.000Z</time>
      </trkpt>
      <trkpt lat="49.80158" lon="4.79779">
        <ele>294</ele>
        <time>2021-07-31T07:22:25.000Z</time>
      </trkpt>
      <trkpt lat="49.80163" lon="4.79779">
        <ele>294</ele>
        <time>2021-07-31T07:22:26.000Z</time>
      </trkpt>
      <trkpt lat="49.80168" lon="4.79779">
        <ele>293</ele>
        <time>2021-07-31T07:22:27.000Z</time>
      </trkpt>
      <trkpt lat="49.80173" lon="4.79779">
        <ele>293</ele>
        <time>2021-07-31T07:22:28.000Z</time>
      </trkpt>
      <trkpt lat="49.80178" lon="4.79779">
        <ele>292</ele>
        <time>2021-07-31T07:22:29.000Z</time>
      </trkpt>
      <trkpt lat="49.80182" lon="4.79778">
        <ele>292</ele>
        <time>2021-07-31T07:22:30.000Z</time>
      </trkpt>
      <trkpt lat="49.80185" lon="4.79776">
        <ele>292</ele>
        <time>2021-07-31T07:22:31.000Z</time>
      </trkpt>
      <trkpt lat="49.80189" lon="4.79776">
        <ele>291</ele>
        <time>2021-07-31T07:22:32.000Z</time>
      </trkpt>
      <trkpt lat="49.80191" lon="4.79776">
        <ele>291</ele>
        <time>2021-07-31T07:22:33.000Z</time>
      </trkpt>
      <trkpt lat="49.80192" lon="4.79777">
        <ele>290</ele>
        <time>2021-07-31T07:22:34.000Z</time>
      </trkpt>
      <trkpt lat="49.80194" lon="4.79779">
        <ele>290</ele>
        <time>2021-07-31T07:22:35.000Z</time>
      </trkpt>
      <trkpt lat="49.80194" lon="4.79782">
        <ele>290</ele>
        <time>2021-07-31T07:22:36.000Z</time>
      </trkpt>
      <trkpt lat="49.80194" lon="4.79784">
        <ele>289</ele>
        <time>2021-07-31T07:22:37.000Z</time>
      </trkpt>
      <trkpt lat="49.80193" lon="4.79786">
        <ele>289</ele>
        <time>2021-07-31T07:22:38.000Z</time>
      </trkpt>
      <trkpt lat="49.80193" lon="4.79787">
        <ele>289</ele>
        <time>2021-07-31T07:22:39.000Z</time>
      </trkpt>
      <trkpt lat="49.80192" lon="4.79789">
        <ele>289</ele>
        <time>2021-07-31T07:22:40.000Z</time>
      </trkpt>
      <trkpt lat="49.80191" lon="4.79791">
        <ele>289</ele>
        <time>2021-07-31T07:22:41.000Z</time>
      </trkpt>
      <trkpt lat="49.8019" lon="4.79793">
        <ele>288</ele>
        <time>2021-07-31T07:22:42.000Z</time>
      </trkpt>
      <trkpt lat="49.80189" lon="4.79796">
        <ele>288</ele>
        <time>2021-07-31T07:22:43.000Z</time>
      </trkpt>
      <trkpt lat="49.80188" lon="4.79798">
        <ele>288</ele>
        <time>2021-07-31T07:22:44.000Z</time>
      </trkpt>
      <trkpt lat="49.80188" lon="4.79801">
        <ele>288</ele>
        <time>2021-07-31T07:22:45.000Z</time>
      </trkpt>
      <trkpt lat="49.80187" lon="4.79803">
        <ele>288</ele>
        <time>2021-07-31T07:22:46.000Z</time>
      </trkpt>
      <trkpt lat="49.80187" lon="4.79806">
        <ele>289</ele>
        <time>2021-07-31T07:22:47.000Z</time>
      </trkpt>
      <trkpt lat="49.80187" lon="4.79809">
        <ele>289</ele>
        <time>2021-07-31T07:22:48.000Z</time>
      </trkpt>
      <trkpt lat="49.80186" lon="4.79811">
        <ele>289</ele>
        <time>2021-07-31T07:22:49.000Z</time>
      </trkpt>
      <trkpt lat="49.80186" lon="4.79813">
        <ele>289</ele>
        <time>2021-07-31T07:22:50.000Z</time>
      </trkpt>
      <trkpt lat="49.80187" lon="4.79815">
        <ele>289</ele>
        <time>2021-07-31T07:22:51.000Z</time>
      </trkpt>
      <trkpt lat="49.80188" lon="4.79817">
        <ele>289</ele>
        <time>2021-07-31T07:22:52.000Z</time>
      </trkpt>
      <trkpt lat="49.80189" lon="4.79818">
        <ele>289</ele>
        <time>2021-07-31T07:22:53.000Z</time>
      </trkpt>
      <trkpt lat="49.80191" lon="4.79819">
        <ele>288</ele>
        <time>2021-07-31T07:22:54.000Z</time>
      </trkpt>
      <trkpt lat="49.80193" lon="4.79819">
        <ele>288</ele>
        <time>2021-07-31T07:22:55.000Z</time>
      </trkpt>
      <trkpt lat="49.80196" lon="4.79819">
        <ele>288</ele>
        <time>2021-07-31T07:22:56.000Z</time>
      </trkpt>
      <trkpt lat="49.80199" lon="4.79819">
        <ele>288</ele>
        <time>2021-07-31T07:22:57.000Z</time>
      </trkpt>
      <trkpt lat="49.80201" lon="4.7982">
        <ele>288</ele>
        <time>2021-07-31T07:22:58.000Z</time>
      </trkpt>
      <trkpt lat="49.80203" lon="4.7982">
        <ele>288</ele>
        <time>2021-07-31T07:22:59.000Z</time>
      </trkpt>
      <trkpt lat="49.80204" lon="4.79821">
        <ele>287</ele>
        <time>2021-07-31T07:23:00.000Z</time>
      </trkpt>
      <trkpt lat="49.80206" lon="4.79821">
        <ele>287</ele>
        <time>2021-07-31T07:23:01.000Z</time>
      </trkpt>
      <trkpt lat="49.80208" lon="4.79822">
        <ele>287</ele>
        <time>2021-07-31T07:23:02.000Z</time>
      </trkpt>
      <trkpt lat="49.8021" lon="4.79822">
        <ele>287</ele>
        <time>2021-07-31T07:23:03.000Z</time>
      </trkpt>
      <trkpt lat="49.80213" lon="4.79822">
        <ele>287</ele>
        <time>2021-07-31T07:23:04.000Z</time>
      </trkpt>
      <trkpt lat="49.80216" lon="4.79822">
        <ele>287</ele>
        <time>2021-07-31T07:23:05.000Z</time>
      </trkpt>
      <trkpt lat="49.80218" lon="4.79822">
        <ele>287</ele>
        <time>2021-07-31T07:23:06.000Z</time>
      </trkpt>
      <trkpt lat="49.80221" lon="4.79822">
        <ele>287</ele>
        <time>2021-07-31T07:23:07.000Z</time>
      </trkpt>
      <trkpt lat="49.80223" lon="4.79822">
        <ele>287</ele>
        <time>2021-07-31T07:23:08.000Z</time>
      </trkpt>
      <trkpt lat="49.80225" lon="4.79823">
        <ele>286</ele>
        <time>2021-07-31T07:23:09.000Z</time>
      </trkpt>
      <trkpt lat="49.80227" lon="4.79824">
        <ele>286</ele>
        <time>2021-07-31T07:23:10.000Z</time>
      </trkpt>
      <trkpt lat="49.8023" lon="4.79824">
        <ele>286</ele>
        <time>2021-07-31T07:23:11.000Z</time>
      </trkpt>
      <trkpt lat="49.80233" lon="4.79825">
        <ele>286</ele>
        <time>2021-07-31T07:23:12.000Z</time>
      </trkpt>
      <trkpt lat="49.80236" lon="4.79825">
        <ele>286</ele>
        <time>2021-07-31T07:23:13.000Z</time>
      </trkpt>
      <trkpt lat="49.80238" lon="4.79825">
        <ele>286</ele>
        <time>2021-07-31T07:23:14.000Z</time>
      </trkpt>
      <trkpt lat="49.80241" lon="4.79826">
        <ele>286</ele>
        <time>2021-07-31T07:23:15.000Z</time>
      </trkpt>
      <trkpt lat="49.80243" lon="4.79826">
        <ele>286</ele>
        <time>2021-07-31T07:23:16.000Z</time>
      </trkpt>
      <trkpt lat="49.80246" lon="4.79826">
        <ele>286</ele>
        <time>2021-07-31T07:23:17.000Z</time>
      </trkpt>
      <trkpt lat="49.80249" lon="4.79826">
        <ele>287</ele>
        <time>2021-07-31T07:23:18.000Z</time>
      </trkpt>
      <trkpt lat="49.80251" lon="4.79827">
        <ele>287</ele>
        <time>2021-07-31T07:23:19.000Z</time>
      </trkpt>
      <trkpt lat="49.80254" lon="4.79827">
        <ele>287</ele>
        <time>2021-07-31T07:23:20.000Z</time>
      </trkpt>
      <trkpt lat="49.80256" lon="4.79827">
        <ele>287</ele>
        <time>2021-07-31T07:23:21.000Z</time>
      </trkpt>
      <trkpt lat="49.80259" lon="4.79827">
        <ele>287</ele>
        <time>2021-07-31T07:23:22.000Z</time>
      </trkpt>
      <trkpt lat="49.80262" lon="4.79827">
        <ele>287</ele>
        <time>2021-07-31T07:23:23.000Z</time>
      </trkpt>
      <trkpt lat="49.80264" lon="4.79827">
        <ele>287</ele>
        <time>2021-07-31T07:23:24.000Z</time>
      </trkpt>
      <trkpt lat="49.80266" lon="4.79828">
        <ele>287</ele>
        <time>2021-07-31T07:23:25.000Z</time>
      </trkpt>
      <trkpt lat="49.80268" lon="4.79828">
        <ele>287</ele>
        <time>2021-07-31T07:23:26.000Z</time>
      </trkpt>
      <trkpt lat="49.8027" lon="4.79828">
        <ele>287</ele>
        <time>2021-07-31T07:23:27.000Z</time>
      </trkpt>
      <trkpt lat="49.80272" lon="4.79829">
        <ele>286</ele>
        <time>2021-07-31T07:23:28.000Z</time>
      </trkpt>
      <trkpt lat="49.80274" lon="4.79829">
        <ele>286</ele>
        <time>2021-07-31T07:23:29.000Z</time>
      </trkpt>
      <trkpt lat="49.80276" lon="4.7983">
        <ele>286</ele>
        <time>2021-07-31T07:23:30.000Z</time>
      </trkpt>
      <trkpt lat="49.80278" lon="4.7983">
        <ele>286</ele>
        <time>2021-07-31T07:23:31.000Z</time>
      </trkpt>
      <trkpt lat="49.80279" lon="4.7983">
        <ele>286</ele>
        <time>2021-07-31T07:23:32.000Z</time>
      </trkpt>
      <trkpt lat="49.80281" lon="4.7983">
        <ele>286</ele>
        <time>2021-07-31T07:23:33.000Z</time>
      </trkpt>
      <trkpt lat="49.80283" lon="4.7983">
        <ele>286</ele>
        <time>2021-07-31T07:23:34.000Z</time>
      </trkpt>
      <trkpt lat="49.80284" lon="4.79832">
        <ele>286</ele>
        <time>2021-07-31T07:23:35.000Z</time>
      </trkpt>
      <trkpt lat="49.80285" lon="4.79833">
        <ele>286</ele>
        <time>2021-07-31T07:23:36.000Z</time>
      </trkpt>
      <trkpt lat="49.80286" lon="4.79835">
        <ele>286</ele>
        <time>2021-07-31T07:23:37.000Z</time>
      </trkpt>
      <trkpt lat="49.80287" lon="4.79836">
        <ele>286</ele>
        <time>2021-07-31T07:23:38.000Z</time>
      </trkpt>
      <trkpt lat="49.80288" lon="4.79838">
        <ele>286</ele>
        <time>2021-07-31T07:23:39.000Z</time>
      </trkpt>
      <trkpt lat="49.80289" lon="4.7984">
        <ele>286</ele>
        <time>2021-07-31T07:23:40.000Z</time>
      </trkpt>
      <trkpt lat="49.8029" lon="4.79842">
        <ele>286</ele>
        <time>2021-07-31T07:23:41.000Z</time>
      </trkpt>
      <trkpt lat="49.80291" lon="4.79844">
        <ele>287</ele>
        <time>2021-07-31T07:23:42.000Z</time>
      </trkpt>
      <trkpt lat="49.80293" lon="4.79846">
        <ele>287</ele>
        <time>2021-07-31T07:23:43.000Z</time>
      </trkpt>
      <trkpt lat="49.80294" lon="4.79848">
        <ele>287</ele>
        <time>2021-07-31T07:23:44.000Z</time>
      </trkpt>
      <trkpt lat="49.80296" lon="4.7985">
        <ele>287</ele>
        <time>2021-07-31T07:23:45.000Z</time>
      </trkpt>
      <trkpt lat="49.80297" lon="4.79852">
        <ele>287</ele>
        <time>2021-07-31T07:23:46.000Z</time>
      </trkpt>
      <trkpt lat="49.80299" lon="4.79854">
        <ele>287</ele>
        <time>2021-07-31T07:23:47.000Z</time>
      </trkpt>
      <trkpt lat="49.80301" lon="4.79856">
        <ele>287</ele>
        <time>2021-07-31T07:23:48.000Z</time>
      </trkpt>
      <trkpt lat="49.80303" lon="4.79858">
        <ele>287</ele>
        <time>2021-07-31T07:23:49.000Z</time>
      </trkpt>
      <trkpt lat="49.80304" lon="4.7986">
        <ele>288</ele>
        <time>2021-07-31T07:23:50.000Z</time>
      </trkpt>
      <trkpt lat="49.80306" lon="4.79863">
        <ele>288</ele>
        <time>2021-07-31T07:23:51.000Z</time>
      </trkpt>
      <trkpt lat="49.80308" lon="4.79867">
        <ele>288</ele>
        <time>2021-07-31T07:23:52.000Z</time>
      </trkpt>
      <trkpt lat="49.80309" lon="4.79871">
        <ele>288</ele>
        <time>2021-07-31T07:23:53.000Z</time>
      </trkpt>
      <trkpt lat="49.8031" lon="4.79876">
        <ele>288</ele>
        <time>2021-07-31T07:23:54.000Z</time>
      </trkpt>
      <trkpt lat="49.8031" lon="4.7988">
        <ele>288</ele>
        <time>2021-07-31T07:23:55.000Z</time>
      </trkpt>
      <trkpt lat="49.80309" lon="4.79885">
        <ele>288</ele>
        <time>2021-07-31T07:23:56.000Z</time>
      </trkpt>
      <trkpt lat="49.80308" lon="4.7989">
        <ele>288</ele>
        <time>2021-07-31T07:23:57.000Z</time>
      </trkpt>
      <trkpt lat="49.80308" lon="4.79894">
        <ele>288</ele>
        <time>2021-07-31T07:23:58.000Z</time>
      </trkpt>
      <trkpt lat="49.80308" lon="4.799">
        <ele>289</ele>
        <time>2021-07-31T07:23:59.000Z</time>
      </trkpt>
      <trkpt lat="49.80308" lon="4.79905">
        <ele>289</ele>
        <time>2021-07-31T07:24:00.000Z</time>
      </trkpt>
      <trkpt lat="49.80308" lon="4.7991">
        <ele>289</ele>
        <time>2021-07-31T07:24:01.000Z</time>
      </trkpt>
      <trkpt lat="49.80307" lon="4.79915">
        <ele>289</ele>
        <time>2021-07-31T07:24:02.000Z</time>
      </trkpt>
      <trkpt lat="49.80307" lon="4.7992">
        <ele>289</ele>
        <time>2021-07-31T07:24:03.000Z</time>
      </trkpt>
      <trkpt lat="49.80307" lon="4.79924">
        <ele>289</ele>
        <time>2021-07-31T07:24:04.000Z</time>
      </trkpt>
      <trkpt lat="49.80306" lon="4.79929">
        <ele>289</ele>
        <time>2021-07-31T07:24:05.000Z</time>
      </trkpt>
      <trkpt lat="49.80305" lon="4.79933">
        <ele>289</ele>
        <time>2021-07-31T07:24:06.000Z</time>
      </trkpt>
      <trkpt lat="49.80304" lon="4.79938">
        <ele>290</ele>
        <time>2021-07-31T07:24:07.000Z</time>
      </trkpt>
      <trkpt lat="49.80304" lon="4.79944">
        <ele>290</ele>
        <time>2021-07-31T07:24:08.000Z</time>
      </trkpt>
      <trkpt lat="49.80303" lon="4.79949">
        <ele>290</ele>
        <time>2021-07-31T07:24:09.000Z</time>
      </trkpt>
      <trkpt lat="49.80303" lon="4.79955">
        <ele>290</ele>
        <time>2021-07-31T07:24:10.000Z</time>
      </trkpt>
      <trkpt lat="49.80302" lon="4.79961">
        <ele>291</ele>
        <time>2021-07-31T07:24:11.000Z</time>
      </trkpt>
      <trkpt lat="49.80301" lon="4.79969">
        <ele>291</ele>
        <time>2021-07-31T07:24:12.000Z</time>
      </trkpt>
      <trkpt lat="49.80301" lon="4.79976">
        <ele>291</ele>
        <time>2021-07-31T07:24:13.000Z</time>
      </trkpt>
      <trkpt lat="49.803" lon="4.79984">
        <ele>291</ele>
        <time>2021-07-31T07:24:14.000Z</time>
      </trkpt>
      <trkpt lat="49.803" lon="4.79991">
        <ele>291</ele>
        <time>2021-07-31T07:24:15.000Z</time>
      </trkpt>
      <trkpt lat="49.80299" lon="4.79997">
        <ele>292</ele>
        <time>2021-07-31T07:24:16.000Z</time>
      </trkpt>
      <trkpt lat="49.80298" lon="4.80003">
        <ele>292</ele>
        <time>2021-07-31T07:24:17.000Z</time>
      </trkpt>
      <trkpt lat="49.80296" lon="4.80009">
        <ele>292</ele>
        <time>2021-07-31T07:24:18.000Z</time>
      </trkpt>
      <trkpt lat="49.80295" lon="4.80015">
        <ele>292</ele>
        <time>2021-07-31T07:24:19.000Z</time>
      </trkpt>
      <trkpt lat="49.80295" lon="4.80022">
        <ele>293</ele>
        <time>2021-07-31T07:24:20.000Z</time>
      </trkpt>
      <trkpt lat="49.80296" lon="4.80028">
        <ele>293</ele>
        <time>2021-07-31T07:24:21.000Z</time>
      </trkpt>
      <trkpt lat="49.80298" lon="4.80035">
        <ele>293</ele>
        <time>2021-07-31T07:24:22.000Z</time>
      </trkpt>
      <trkpt lat="49.803" lon="4.80043">
        <ele>293</ele>
        <time>2021-07-31T07:24:23.000Z</time>
      </trkpt>
      <trkpt lat="49.80302" lon="4.80051">
        <ele>293</ele>
        <time>2021-07-31T07:24:24.000Z</time>
      </trkpt>
      <trkpt lat="49.80304" lon="4.80059">
        <ele>293</ele>
        <time>2021-07-31T07:24:25.000Z</time>
      </trkpt>
      <trkpt lat="49.80307" lon="4.80067">
        <ele>293</ele>
        <time>2021-07-31T07:24:26.000Z</time>
      </trkpt>
      <trkpt lat="49.80309" lon="4.80074">
        <ele>293</ele>
        <time>2021-07-31T07:24:27.000Z</time>
      </trkpt>
      <trkpt lat="49.80311" lon="4.80081">
        <ele>292</ele>
        <time>2021-07-31T07:24:28.000Z</time>
      </trkpt>
      <trkpt lat="49.80314" lon="4.80089">
        <ele>292</ele>
        <time>2021-07-31T07:24:29.000Z</time>
      </trkpt>
      <trkpt lat="49.80316" lon="4.80097">
        <ele>292</ele>
        <time>2021-07-31T07:24:30.000Z</time>
      </trkpt>
      <trkpt lat="49.80318" lon="4.80104">
        <ele>292</ele>
        <time>2021-07-31T07:24:31.000Z</time>
      </trkpt>
      <trkpt lat="49.8032" lon="4.80112">
        <ele>292</ele>
        <time>2021-07-31T07:24:32.000Z</time>
      </trkpt>
      <trkpt lat="49.80322" lon="4.8012">
        <ele>291</ele>
        <time>2021-07-31T07:24:33.000Z</time>
      </trkpt>
      <trkpt lat="49.80324" lon="4.80127">
        <ele>291</ele>
        <time>2021-07-31T07:24:34.000Z</time>
      </trkpt>
      <trkpt lat="49.80326" lon="4.80133">
        <ele>291</ele>
        <time>2021-07-31T07:24:35.000Z</time>
      </trkpt>
      <trkpt lat="49.80327" lon="4.80139">
        <ele>291</ele>
        <time>2021-07-31T07:24:36.000Z</time>
      </trkpt>
      <trkpt lat="49.80329" lon="4.80147">
        <ele>291</ele>
        <time>2021-07-31T07:24:37.000Z</time>
      </trkpt>
      <trkpt lat="49.8033" lon="4.80156">
        <ele>290</ele>
        <time>2021-07-31T07:24:38.000Z</time>
      </trkpt>
      <trkpt lat="49.80331" lon="4.80164">
        <ele>290</ele>
        <time>2021-07-31T07:24:39.000Z</time>
      </trkpt>
      <trkpt lat="49.80331" lon="4.80172">
        <ele>290</ele>
        <time>2021-07-31T07:24:40.000Z</time>
      </trkpt>
      <trkpt lat="49.80332" lon="4.8018">
        <ele>290</ele>
        <time>2021-07-31T07:24:41.000Z</time>
      </trkpt>
      <trkpt lat="49.80332" lon="4.80188">
        <ele>289</ele>
        <time>2021-07-31T07:24:42.000Z</time>
      </trkpt>
      <trkpt lat="49.80332" lon="4.80196">
        <ele>289</ele>
        <time>2021-07-31T07:24:43.000Z</time>
      </trkpt>
      <trkpt lat="49.80332" lon="4.80203">
        <ele>289</ele>
        <time>2021-07-31T07:24:44.000Z</time>
      </trkpt>
      <trkpt lat="49.80333" lon="4.8021">
        <ele>289</ele>
        <time>2021-07-31T07:24:45.000Z</time>
      </trkpt>
      <trkpt lat="49.80332" lon="4.80218">
        <ele>288</ele>
        <time>2021-07-31T07:24:46.000Z</time>
      </trkpt>
      <trkpt lat="49.80332" lon="4.80225">
        <ele>288</ele>
        <time>2021-07-31T07:24:47.000Z</time>
      </trkpt>
      <trkpt lat="49.80333" lon="4.80233">
        <ele>288</ele>
        <time>2021-07-31T07:24:48.000Z</time>
      </trkpt>
      <trkpt lat="49.80333" lon="4.80241">
        <ele>288</ele>
        <time>2021-07-31T07:24:49.000Z</time>
      </trkpt>
      <trkpt lat="49.80332" lon="4.80249">
        <ele>287</ele>
        <time>2021-07-31T07:24:50.000Z</time>
      </trkpt>
      <trkpt lat="49.80331" lon="4.80257">
        <ele>287</ele>
        <time>2021-07-31T07:24:51.000Z</time>
      </trkpt>
      <trkpt lat="49.80329" lon="4.80264">
        <ele>287</ele>
        <time>2021-07-31T07:24:52.000Z</time>
      </trkpt>
      <trkpt lat="49.80327" lon="4.8027">
        <ele>286</ele>
        <time>2021-07-31T07:24:53.000Z</time>
      </trkpt>
      <trkpt lat="49.80324" lon="4.80277">
        <ele>286</ele>
        <time>2021-07-31T07:24:54.000Z</time>
      </trkpt>
      <trkpt lat="49.80321" lon="4.80284">
        <ele>286</ele>
        <time>2021-07-31T07:24:55.000Z</time>
      </trkpt>
      <trkpt lat="49.80318" lon="4.80292">
        <ele>285</ele>
        <time>2021-07-31T07:24:56.000Z</time>
      </trkpt>
      <trkpt lat="49.80316" lon="4.80301">
        <ele>285</ele>
        <time>2021-07-31T07:24:57.000Z</time>
      </trkpt>
      <trkpt lat="49.80313" lon="4.8031">
        <ele>285</ele>
        <time>2021-07-31T07:24:58.000Z</time>
      </trkpt>
      <trkpt lat="49.8031" lon="4.80318">
        <ele>284</ele>
        <time>2021-07-31T07:24:59.000Z</time>
      </trkpt>
      <trkpt lat="49.80307" lon="4.80326">
        <ele>284</ele>
        <time>2021-07-31T07:25:00.000Z</time>
      </trkpt>
      <trkpt lat="49.80305" lon="4.80334">
        <ele>284</ele>
        <time>2021-07-31T07:25:01.000Z</time>
      </trkpt>
      <trkpt lat="49.80302" lon="4.80342">
        <ele>283</ele>
        <time>2021-07-31T07:25:02.000Z</time>
      </trkpt>
      <trkpt lat="49.803" lon="4.80347">
        <ele>283</ele>
        <time>2021-07-31T07:25:03.000Z</time>
      </trkpt>
      <trkpt lat="49.80297" lon="4.80351">
        <ele>283</ele>
        <time>2021-07-31T07:25:04.000Z</time>
      </trkpt>
      <trkpt lat="49.80295" lon="4.80354">
        <ele>282</ele>
        <time>2021-07-31T07:25:05.000Z</time>
      </trkpt>
      <trkpt lat="49.80295" lon="4.80356">
        <ele>282</ele>
        <time>2021-07-31T07:25:06.000Z</time>
      </trkpt>
      <trkpt lat="49.80295" lon="4.80359">
        <ele>282</ele>
        <time>2021-07-31T07:25:07.000Z</time>
      </trkpt>
      <trkpt lat="49.80295" lon="4.80363">
        <ele>281</ele>
        <time>2021-07-31T07:25:08.000Z</time>
      </trkpt>
      <trkpt lat="49.80295" lon="4.80368">
        <ele>281</ele>
        <time>2021-07-31T07:25:09.000Z</time>
      </trkpt>
      <trkpt lat="49.80294" lon="4.80375">
        <ele>281</ele>
        <time>2021-07-31T07:25:10.000Z</time>
      </trkpt>
      <trkpt lat="49.80293" lon="4.80381">
        <ele>281</ele>
        <time>2021-07-31T07:25:11.000Z</time>
      </trkpt>
      <trkpt lat="49.80291" lon="4.80386">
        <ele>280</ele>
        <time>2021-07-31T07:25:12.000Z</time>
      </trkpt>
      <trkpt lat="49.80289" lon="4.80389">
        <ele>280</ele>
        <time>2021-07-31T07:25:13.000Z</time>
      </trkpt>
      <trkpt lat="49.80287" lon="4.80392">
        <ele>280</ele>
        <time>2021-07-31T07:25:14.000Z</time>
      </trkpt>
      <trkpt lat="49.80285" lon="4.80394">
        <ele>280</ele>
        <time>2021-07-31T07:25:15.000Z</time>
      </trkpt>
      <trkpt lat="49.80284" lon="4.80396">
        <ele>280</ele>
        <time>2021-07-31T07:25:16.000Z</time>
      </trkpt>
      <trkpt lat="49.80281" lon="4.80398">
        <ele>280</ele>
        <time>2021-07-31T07:25:17.000Z</time>
      </trkpt>
      <trkpt lat="49.80279" lon="4.804">
        <ele>280</ele>
        <time>2021-07-31T07:25:18.000Z</time>
      </trkpt>
      <trkpt lat="49.80277" lon="4.80401">
        <ele>280</ele>
        <time>2021-07-31T07:25:19.000Z</time>
      </trkpt>
      <trkpt lat="49.80276" lon="4.80402">
        <ele>280</ele>
        <time>2021-07-31T07:25:20.000Z</time>
      </trkpt>
      <trkpt lat="49.80274" lon="4.80403">
        <ele>280</ele>
        <time>2021-07-31T07:25:21.000Z</time>
      </trkpt>
      <trkpt lat="49.80273" lon="4.80404">
        <ele>279</ele>
        <time>2021-07-31T07:25:22.000Z</time>
      </trkpt>
      <trkpt lat="49.80272" lon="4.80406">
        <ele>279</ele>
        <time>2021-07-31T07:25:23.000Z</time>
      </trkpt>
      <trkpt lat="49.80271" lon="4.8041">
        <ele>279</ele>
        <time>2021-07-31T07:25:24.000Z</time>
      </trkpt>
      <trkpt lat="49.80271" lon="4.80412">
        <ele>279</ele>
        <time>2021-07-31T07:25:25.000Z</time>
      </trkpt>
      <trkpt lat="49.80271" lon="4.80416">
        <ele>279</ele>
        <time>2021-07-31T07:25:26.000Z</time>
      </trkpt>
      <trkpt lat="49.80271" lon="4.80419">
        <ele>279</ele>
        <time>2021-07-31T07:25:27.000Z</time>
      </trkpt>
      <trkpt lat="49.8027" lon="4.80422">
        <ele>279</ele>
        <time>2021-07-31T07:25:28.000Z</time>
      </trkpt>
      <trkpt lat="49.80269" lon="4.80425">
        <ele>279</ele>
        <time>2021-07-31T07:25:29.000Z</time>
      </trkpt>
      <trkpt lat="49.80269" lon="4.80427">
        <ele>280</ele>
        <time>2021-07-31T07:25:30.000Z</time>
      </trkpt>
      <trkpt lat="49.80268" lon="4.8043">
        <ele>280</ele>
        <time>2021-07-31T07:25:31.000Z</time>
      </trkpt>
      <trkpt lat="49.80267" lon="4.80432">
        <ele>280</ele>
        <time>2021-07-31T07:25:32.000Z</time>
      </trkpt>
      <trkpt lat="49.80265" lon="4.80435">
        <ele>280</ele>
        <time>2021-07-31T07:25:33.000Z</time>
      </trkpt>
      <trkpt lat="49.80265" lon="4.80437">
        <ele>280</ele>
        <time>2021-07-31T07:25:34.000Z</time>
      </trkpt>
      <trkpt lat="49.80264" lon="4.80439">
        <ele>280</ele>
        <time>2021-07-31T07:25:35.000Z</time>
      </trkpt>
      <trkpt lat="49.80263" lon="4.80442">
        <ele>280</ele>
        <time>2021-07-31T07:25:36.000Z</time>
      </trkpt>
      <trkpt lat="49.80262" lon="4.80443">
        <ele>280</ele>
        <time>2021-07-31T07:25:37.000Z</time>
      </trkpt>
      <trkpt lat="49.80261" lon="4.80446">
        <ele>280</ele>
        <time>2021-07-31T07:25:38.000Z</time>
      </trkpt>
      <trkpt lat="49.80261" lon="4.80448">
        <ele>280</ele>
        <time>2021-07-31T07:25:39.000Z</time>
      </trkpt>
      <trkpt lat="49.8026" lon="4.8045">
        <ele>280</ele>
        <time>2021-07-31T07:25:40.000Z</time>
      </trkpt>
      <trkpt lat="49.80259" lon="4.80452">
        <ele>280</ele>
        <time>2021-07-31T07:25:41.000Z</time>
      </trkpt>
      <trkpt lat="49.80258" lon="4.80455">
        <ele>280</ele>
        <time>2021-07-31T07:25:42.000Z</time>
      </trkpt>
      <trkpt lat="49.80257" lon="4.80457">
        <ele>280</ele>
        <time>2021-07-31T07:25:43.000Z</time>
      </trkpt>
      <trkpt lat="49.80256" lon="4.80459">
        <ele>279</ele>
        <time>2021-07-31T07:25:44.000Z</time>
      </trkpt>
      <trkpt lat="49.80256" lon="4.80462">
        <ele>279</ele>
        <time>2021-07-31T07:25:45.000Z</time>
      </trkpt>
      <trkpt lat="49.80255" lon="4.80465">
        <ele>279</ele>
        <time>2021-07-31T07:25:46.000Z</time>
      </trkpt>
      <trkpt lat="49.80255" lon="4.80467">
        <ele>279</ele>
        <time>2021-07-31T07:25:47.000Z</time>
      </trkpt>
      <trkpt lat="49.80254" lon="4.80469">
        <ele>279</ele>
        <time>2021-07-31T07:25:48.000Z</time>
      </trkpt>
      <trkpt lat="49.80253" lon="4.80472">
        <ele>279</ele>
        <time>2021-07-31T07:25:49.000Z</time>
      </trkpt>
      <trkpt lat="49.80253" lon="4.80474">
        <ele>278</ele>
        <time>2021-07-31T07:25:50.000Z</time>
      </trkpt>
      <trkpt lat="49.80253" lon="4.80477">
        <ele>278</ele>
        <time>2021-07-31T07:25:51.000Z</time>
      </trkpt>
      <trkpt lat="49.80253" lon="4.80479">
        <ele>278</ele>
        <time>2021-07-31T07:25:52.000Z</time>
      </trkpt>
      <trkpt lat="49.80252" lon="4.80481">
        <ele>278</ele>
        <time>2021-07-31T07:25:53.000Z</time>
      </trkpt>
      <trkpt lat="49.80252" lon="4.80483">
        <ele>278</ele>
        <time>2021-07-31T07:25:54.000Z</time>
      </trkpt>
      <trkpt lat="49.80251" lon="4.80485">
        <ele>278</ele>
        <time>2021-07-31T07:25:55.000Z</time>
      </trkpt>
      <trkpt lat="49.80251" lon="4.80487">
        <ele>277</ele>
        <time>2021-07-31T07:25:56.000Z</time>
      </trkpt>
      <trkpt lat="49.80251" lon="4.8049">
        <ele>277</ele>
        <time>2021-07-31T07:25:57.000Z</time>
      </trkpt>
      <trkpt lat="49.8025" lon="4.80493">
        <ele>277</ele>
        <time>2021-07-31T07:25:58.000Z</time>
      </trkpt>
      <trkpt lat="49.80249" lon="4.80497">
        <ele>277</ele>
        <time>2021-07-31T07:25:59.000Z</time>
      </trkpt>
      <trkpt lat="49.80249" lon="4.80501">
        <ele>277</ele>
        <time>2021-07-31T07:26:00.000Z</time>
      </trkpt>
      <trkpt lat="49.8025" lon="4.80505">
        <ele>277</ele>
        <time>2021-07-31T07:26:01.000Z</time>
      </trkpt>
      <trkpt lat="49.8025" lon="4.80509">
        <ele>276</ele>
        <time>2021-07-31T07:26:02.000Z</time>
      </trkpt>
      <trkpt lat="49.8025" lon="4.80512">
        <ele>276</ele>
        <time>2021-07-31T07:26:03.000Z</time>
      </trkpt>
      <trkpt lat="49.80251" lon="4.80516">
        <ele>276</ele>
        <time>2021-07-31T07:26:04.000Z</time>
      </trkpt>
      <trkpt lat="49.80251" lon="4.8052">
        <ele>276</ele>
        <time>2021-07-31T07:26:05.000Z</time>
      </trkpt>
      <trkpt lat="49.80251" lon="4.80523">
        <ele>276</ele>
        <time>2021-07-31T07:26:06.000Z</time>
      </trkpt>
      <trkpt lat="49.80251" lon="4.80527">
        <ele>276</ele>
        <time>2021-07-31T07:26:07.000Z</time>
      </trkpt>
      <trkpt lat="49.80251" lon="4.8053">
        <ele>276</ele>
        <time>2021-07-31T07:26:08.000Z</time>
      </trkpt>
      <trkpt lat="49.80251" lon="4.80535">
        <ele>276</ele>
        <time>2021-07-31T07:26:09.000Z</time>
      </trkpt>
      <trkpt lat="49.80252" lon="4.80539">
        <ele>276</ele>
        <time>2021-07-31T07:26:10.000Z</time>
      </trkpt>
      <trkpt lat="49.80252" lon="4.80542">
        <ele>276</ele>
        <time>2021-07-31T07:26:11.000Z</time>
      </trkpt>
      <trkpt lat="49.80252" lon="4.80546">
        <ele>276</ele>
        <time>2021-07-31T07:26:12.000Z</time>
      </trkpt>
      <trkpt lat="49.80252" lon="4.80549">
        <ele>276</ele>
        <time>2021-07-31T07:26:13.000Z</time>
      </trkpt>
      <trkpt lat="49.80252" lon="4.80553">
        <ele>275</ele>
        <time>2021-07-31T07:26:14.000Z</time>
      </trkpt>
      <trkpt lat="49.80251" lon="4.80556">
        <ele>275</ele>
        <time>2021-07-31T07:26:15.000Z</time>
      </trkpt>
      <trkpt lat="49.8025" lon="4.8056">
        <ele>275</ele>
        <time>2021-07-31T07:26:16.000Z</time>
      </trkpt>
      <trkpt lat="49.8025" lon="4.80563">
        <ele>275</ele>
        <time>2021-07-31T07:26:17.000Z</time>
      </trkpt>
      <trkpt lat="49.80249" lon="4.80566">
        <ele>275</ele>
        <time>2021-07-31T07:26:18.000Z</time>
      </trkpt>
      <trkpt lat="49.80248" lon="4.80569">
        <ele>275</ele>
        <time>2021-07-31T07:26:19.000Z</time>
      </trkpt>
      <trkpt lat="49.80247" lon="4.80573">
        <ele>275</ele>
        <time>2021-07-31T07:26:20.000Z</time>
      </trkpt>
      <trkpt lat="49.80246" lon="4.80576">
        <ele>275</ele>
        <time>2021-07-31T07:26:21.000Z</time>
      </trkpt>
      <trkpt lat="49.80245" lon="4.8058">
        <ele>275</ele>
        <time>2021-07-31T07:26:22.000Z</time>
      </trkpt>
      <trkpt lat="49.80245" lon="4.80583">
        <ele>275</ele>
        <time>2021-07-31T07:26:23.000Z</time>
      </trkpt>
      <trkpt lat="49.80245" lon="4.80587">
        <ele>275</ele>
        <time>2021-07-31T07:26:24.000Z</time>
      </trkpt>
      <trkpt lat="49.80245" lon="4.80591">
        <ele>275</ele>
        <time>2021-07-31T07:26:25.000Z</time>
      </trkpt>
      <trkpt lat="49.80245" lon="4.80595">
        <ele>275</ele>
        <time>2021-07-31T07:26:26.000Z</time>
      </trkpt>
      <trkpt lat="49.80245" lon="4.806">
        <ele>275</ele>
        <time>2021-07-31T07:26:27.000Z</time>
      </trkpt>
      <trkpt lat="49.80244" lon="4.80605">
        <ele>276</ele>
        <time>2021-07-31T07:26:28.000Z</time>
      </trkpt>
      <trkpt lat="49.80243" lon="4.80609">
        <ele>276</ele>
        <time>2021-07-31T07:26:29.000Z</time>
      </trkpt>
      <trkpt lat="49.80242" lon="4.80613">
        <ele>276</ele>
        <time>2021-07-31T07:26:30.000Z</time>
      </trkpt>
      <trkpt lat="49.80241" lon="4.80618">
        <ele>276</ele>
        <time>2021-07-31T07:26:31.000Z</time>
      </trkpt>
      <trkpt lat="49.8024" lon="4.80623">
        <ele>277</ele>
        <time>2021-07-31T07:26:32.000Z</time>
      </trkpt>
      <trkpt lat="49.80239" lon="4.80627">
        <ele>277</ele>
        <time>2021-07-31T07:26:33.000Z</time>
      </trkpt>
      <trkpt lat="49.80238" lon="4.80632">
        <ele>277</ele>
        <time>2021-07-31T07:26:34.000Z</time>
      </trkpt>
      <trkpt lat="49.80238" lon="4.80636">
        <ele>277</ele>
        <time>2021-07-31T07:26:35.000Z</time>
      </trkpt>
      <trkpt lat="49.80237" lon="4.8064">
        <ele>278</ele>
        <time>2021-07-31T07:26:36.000Z</time>
      </trkpt>
      <trkpt lat="49.80237" lon="4.80644">
        <ele>278</ele>
        <time>2021-07-31T07:26:37.000Z</time>
      </trkpt>
      <trkpt lat="49.80236" lon="4.80648">
        <ele>278</ele>
        <time>2021-07-31T07:26:38.000Z</time>
      </trkpt>
      <trkpt lat="49.80236" lon="4.80653">
        <ele>278</ele>
        <time>2021-07-31T07:26:39.000Z</time>
      </trkpt>
      <trkpt lat="49.80235" lon="4.80658">
        <ele>279</ele>
        <time>2021-07-31T07:26:40.000Z</time>
      </trkpt>
      <trkpt lat="49.80235" lon="4.80662">
        <ele>279</ele>
        <time>2021-07-31T07:26:41.000Z</time>
      </trkpt>
      <trkpt lat="49.80235" lon="4.80666">
        <ele>279</ele>
        <time>2021-07-31T07:26:42.000Z</time>
      </trkpt>
      <trkpt lat="49.80235" lon="4.8067">
        <ele>279</ele>
        <time>2021-07-31T07:26:43.000Z</time>
      </trkpt>
      <trkpt lat="49.80234" lon="4.80675">
        <ele>280</ele>
        <time>2021-07-31T07:26:44.000Z</time>
      </trkpt>
      <trkpt lat="49.80233" lon="4.8068">
        <ele>280</ele>
        <time>2021-07-31T07:26:45.000Z</time>
      </trkpt>
      <trkpt lat="49.80232" lon="4.80686">
        <ele>280</ele>
        <time>2021-07-31T07:26:46.000Z</time>
      </trkpt>
      <trkpt lat="49.80231" lon="4.80692">
        <ele>280</ele>
        <time>2021-07-31T07:26:47.000Z</time>
      </trkpt>
      <trkpt lat="49.8023" lon="4.80696">
        <ele>280</ele>
        <time>2021-07-31T07:26:48.000Z</time>
      </trkpt>
      <trkpt lat="49.80229" lon="4.80702">
        <ele>281</ele>
        <time>2021-07-31T07:26:49.000Z</time>
      </trkpt>
      <trkpt lat="49.80229" lon="4.80707">
        <ele>281</ele>
        <time>2021-07-31T07:26:50.000Z</time>
      </trkpt>
      <trkpt lat="49.80228" lon="4.80711">
        <ele>281</ele>
        <time>2021-07-31T07:26:51.000Z</time>
      </trkpt>
      <trkpt lat="49.80228" lon="4.80716">
        <ele>281</ele>
        <time>2021-07-31T07:26:52.000Z</time>
      </trkpt>
      <trkpt lat="49.80229" lon="4.80721">
        <ele>281</ele>
        <time>2021-07-31T07:26:53.000Z</time>
      </trkpt>
      <trkpt lat="49.8023" lon="4.80726">
        <ele>281</ele>
        <time>2021-07-31T07:26:54.000Z</time>
      </trkpt>
      <trkpt lat="49.8023" lon="4.80732">
        <ele>281</ele>
        <time>2021-07-31T07:26:55.000Z</time>
      </trkpt>
      <trkpt lat="49.80231" lon="4.80737">
        <ele>281</ele>
        <time>2021-07-31T07:26:56.000Z</time>
      </trkpt>
      <trkpt lat="49.80231" lon="4.80742">
        <ele>282</ele>
        <time>2021-07-31T07:26:57.000Z</time>
      </trkpt>
      <trkpt lat="49.80232" lon="4.80747">
        <ele>282</ele>
        <time>2021-07-31T07:26:58.000Z</time>
      </trkpt>
      <trkpt lat="49.80233" lon="4.80752">
        <ele>282</ele>
        <time>2021-07-31T07:26:59.000Z</time>
      </trkpt>
      <trkpt lat="49.80234" lon="4.80757">
        <ele>282</ele>
        <time>2021-07-31T07:27:00.000Z</time>
      </trkpt>
      <trkpt lat="49.80235" lon="4.80763">
        <ele>282</ele>
        <time>2021-07-31T07:27:01.000Z</time>
      </trkpt>
      <trkpt lat="49.80236" lon="4.80769">
        <ele>282</ele>
        <time>2021-07-31T07:27:02.000Z</time>
      </trkpt>
      <trkpt lat="49.80237" lon="4.80775">
        <ele>282</ele>
        <time>2021-07-31T07:27:03.000Z</time>
      </trkpt>
      <trkpt lat="49.80237" lon="4.80781">
        <ele>282</ele>
        <time>2021-07-31T07:27:04.000Z</time>
      </trkpt>
      <trkpt lat="49.80238" lon="4.80786">
        <ele>282</ele>
        <time>2021-07-31T07:27:05.000Z</time>
      </trkpt>
      <trkpt lat="49.80237" lon="4.80792">
        <ele>282</ele>
        <time>2021-07-31T07:27:06.000Z</time>
      </trkpt>
      <trkpt lat="49.80237" lon="4.80798">
        <ele>281</ele>
        <time>2021-07-31T07:27:07.000Z</time>
      </trkpt>
      <trkpt lat="49.80236" lon="4.80804">
        <ele>281</ele>
        <time>2021-07-31T07:27:08.000Z</time>
      </trkpt>
      <trkpt lat="49.80237" lon="4.8081">
        <ele>281</ele>
        <time>2021-07-31T07:27:09.000Z</time>
      </trkpt>
      <trkpt lat="49.80236" lon="4.80816">
        <ele>281</ele>
        <time>2021-07-31T07:27:10.000Z</time>
      </trkpt>
      <trkpt lat="49.80236" lon="4.80823">
        <ele>281</ele>
        <time>2021-07-31T07:27:11.000Z</time>
      </trkpt>
      <trkpt lat="49.80237" lon="4.80831">
        <ele>280</ele>
        <time>2021-07-31T07:27:12.000Z</time>
      </trkpt>
      <trkpt lat="49.80237" lon="4.80839">
        <ele>280</ele>
        <time>2021-07-31T07:27:13.000Z</time>
      </trkpt>
      <trkpt lat="49.80238" lon="4.80848">
        <ele>280</ele>
        <time>2021-07-31T07:27:14.000Z</time>
      </trkpt>
      <trkpt lat="49.80239" lon="4.80858">
        <ele>279</ele>
        <time>2021-07-31T07:27:15.000Z</time>
      </trkpt>
      <trkpt lat="49.80239" lon="4.80868">
        <ele>279</ele>
        <time>2021-07-31T07:27:16.000Z</time>
      </trkpt>
      <trkpt lat="49.80238" lon="4.80878">
        <ele>279</ele>
        <time>2021-07-31T07:27:17.000Z</time>
      </trkpt>
      <trkpt lat="49.80239" lon="4.80886">
        <ele>279</ele>
        <time>2021-07-31T07:27:18.000Z</time>
      </trkpt>
      <trkpt lat="49.80239" lon="4.80892">
        <ele>278</ele>
        <time>2021-07-31T07:27:19.000Z</time>
      </trkpt>
      <trkpt lat="49.80241" lon="4.80899">
        <ele>278</ele>
        <time>2021-07-31T07:27:20.000Z</time>
      </trkpt>
      <trkpt lat="49.80242" lon="4.80905">
        <ele>278</ele>
        <time>2021-07-31T07:27:21.000Z</time>
      </trkpt>
      <trkpt lat="49.80244" lon="4.80911">
        <ele>278</ele>
        <time>2021-07-31T07:27:22.000Z</time>
      </trkpt>
      <trkpt lat="49.80246" lon="4.80917">
        <ele>278</ele>
        <time>2021-07-31T07:27:23.000Z</time>
      </trkpt>
      <trkpt lat="49.80247" lon="4.80922">
        <ele>277</ele>
        <time>2021-07-31T07:27:24.000Z</time>
      </trkpt>
      <trkpt lat="49.80249" lon="4.80926">
        <ele>277</ele>
        <time>2021-07-31T07:27:25.000Z</time>
      </trkpt>
      <trkpt lat="49.8025" lon="4.8093">
        <ele>277</ele>
        <time>2021-07-31T07:27:26.000Z</time>
      </trkpt>
      <trkpt lat="49.80251" lon="4.80933">
        <ele>277</ele>
        <time>2021-07-31T07:27:27.000Z</time>
      </trkpt>
      <trkpt lat="49.80252" lon="4.80936">
        <ele>276</ele>
        <time>2021-07-31T07:27:28.000Z</time>
      </trkpt>
      <trkpt lat="49.80253" lon="4.80938">
        <ele>276</ele>
        <time>2021-07-31T07:27:29.000Z</time>
      </trkpt>
      <trkpt lat="49.80254" lon="4.80942">
        <ele>276</ele>
        <time>2021-07-31T07:27:30.000Z</time>
      </trkpt>
      <trkpt lat="49.80256" lon="4.80945">
        <ele>276</ele>
        <time>2021-07-31T07:27:31.000Z</time>
      </trkpt>
      <trkpt lat="49.80257" lon="4.80949">
        <ele>275</ele>
        <time>2021-07-31T07:27:32.000Z</time>
      </trkpt>
      <trkpt lat="49.80258" lon="4.80952">
        <ele>275</ele>
        <time>2021-07-31T07:27:33.000Z</time>
      </trkpt>
      <trkpt lat="49.8026" lon="4.80956">
        <ele>275</ele>
        <time>2021-07-31T07:27:34.000Z</time>
      </trkpt>
      <trkpt lat="49.80261" lon="4.8096">
        <ele>275</ele>
        <time>2021-07-31T07:27:35.000Z</time>
      </trkpt>
      <trkpt lat="49.80261" lon="4.80964">
        <ele>274</ele>
        <time>2021-07-31T07:27:36.000Z</time>
      </trkpt>
      <trkpt lat="49.80262" lon="4.80967">
        <ele>274</ele>
        <time>2021-07-31T07:27:37.000Z</time>
      </trkpt>
      <trkpt lat="49.80262" lon="4.80971">
        <ele>274</ele>
        <time>2021-07-31T07:27:38.000Z</time>
      </trkpt>
      <trkpt lat="49.80263" lon="4.80974">
        <ele>273</ele>
        <time>2021-07-31T07:27:39.000Z</time>
      </trkpt>
      <trkpt lat="49.80264" lon="4.80978">
        <ele>273</ele>
        <time>2021-07-31T07:27:40.000Z</time>
      </trkpt>
      <trkpt lat="49.80265" lon="4.80981">
        <ele>273</ele>
        <time>2021-07-31T07:27:41.000Z</time>
      </trkpt>
      <trkpt lat="49.80267" lon="4.80985">
        <ele>273</ele>
        <time>2021-07-31T07:27:42.000Z</time>
      </trkpt>
      <trkpt lat="49.80268" lon="4.80989">
        <ele>273</ele>
        <time>2021-07-31T07:27:43.000Z</time>
      </trkpt>
      <trkpt lat="49.80269" lon="4.80993">
        <ele>273</ele>
        <time>2021-07-31T07:27:44.000Z</time>
      </trkpt>
      <trkpt lat="49.8027" lon="4.80997">
        <ele>272</ele>
        <time>2021-07-31T07:27:45.000Z</time>
      </trkpt>
      <trkpt lat="49.80271" lon="4.81">
        <ele>272</ele>
        <time>2021-07-31T07:27:46.000Z</time>
      </trkpt>
      <trkpt lat="49.80272" lon="4.81004">
        <ele>272</ele>
        <time>2021-07-31T07:27:47.000Z</time>
      </trkpt>
      <trkpt lat="49.80272" lon="4.81008">
        <ele>272</ele>
        <time>2021-07-31T07:27:48.000Z</time>
      </trkpt>
      <trkpt lat="49.80272" lon="4.81012">
        <ele>271</ele>
        <time>2021-07-31T07:27:49.000Z</time>
      </trkpt>
      <trkpt lat="49.80272" lon="4.81016">
        <ele>271</ele>
        <time>2021-07-31T07:27:50.000Z</time>
      </trkpt>
      <trkpt lat="49.80273" lon="4.8102">
        <ele>271</ele>
        <time>2021-07-31T07:27:51.000Z</time>
      </trkpt>
      <trkpt lat="49.80273" lon="4.81025">
        <ele>271</ele>
        <time>2021-07-31T07:27:52.000Z</time>
      </trkpt>
      <trkpt lat="49.80274" lon="4.8103">
        <ele>271</ele>
        <time>2021-07-31T07:27:53.000Z</time>
      </trkpt>
      <trkpt lat="49.80275" lon="4.81035">
        <ele>271</ele>
        <time>2021-07-31T07:27:54.000Z</time>
      </trkpt>
      <trkpt lat="49.80275" lon="4.8104">
        <ele>271</ele>
        <time>2021-07-31T07:27:55.000Z</time>
      </trkpt>
      <trkpt lat="49.80276" lon="4.81046">
        <ele>270</ele>
        <time>2021-07-31T07:27:56.000Z</time>
      </trkpt>
      <trkpt lat="49.80277" lon="4.81055">
        <ele>270</ele>
        <time>2021-07-31T07:27:57.000Z</time>
      </trkpt>
      <trkpt lat="49.80278" lon="4.81064">
        <ele>270</ele>
        <time>2021-07-31T07:27:58.000Z</time>
      </trkpt>
      <trkpt lat="49.8028" lon="4.81073">
        <ele>270</ele>
        <time>2021-07-31T07:27:59.000Z</time>
      </trkpt>
      <trkpt lat="49.80282" lon="4.81085">
        <ele>269</ele>
        <time>2021-07-31T07:28:00.000Z</time>
      </trkpt>
      <trkpt lat="49.80283" lon="4.81096">
        <ele>269</ele>
        <time>2021-07-31T07:28:01.000Z</time>
      </trkpt>
      <trkpt lat="49.80284" lon="4.81106">
        <ele>269</ele>
        <time>2021-07-31T07:28:02.000Z</time>
      </trkpt>
      <trkpt lat="49.80285" lon="4.81115">
        <ele>269</ele>
        <time>2021-07-31T07:28:03.000Z</time>
      </trkpt>
      <trkpt lat="49.80286" lon="4.81123">
        <ele>268</ele>
        <time>2021-07-31T07:28:04.000Z</time>
      </trkpt>
      <trkpt lat="49.80286" lon="4.81129">
        <ele>268</ele>
        <time>2021-07-31T07:28:05.000Z</time>
      </trkpt>
      <trkpt lat="49.80285" lon="4.81133">
        <ele>268</ele>
        <time>2021-07-31T07:28:06.000Z</time>
      </trkpt>
      <trkpt lat="49.80285" lon="4.81136">
        <ele>268</ele>
        <time>2021-07-31T07:28:07.000Z</time>
      </trkpt>
      <trkpt lat="49.80284" lon="4.81139">
        <ele>268</ele>
        <time>2021-07-31T07:28:08.000Z</time>
      </trkpt>
      <trkpt lat="49.80284" lon="4.81142">
        <ele>268</ele>
        <time>2021-07-31T07:28:09.000Z</time>
      </trkpt>
      <trkpt lat="49.80284" lon="4.81145">
        <ele>268</ele>
        <time>2021-07-31T07:28:10.000Z</time>
      </trkpt>
      <trkpt lat="49.80284" lon="4.81148">
        <ele>268</ele>
        <time>2021-07-31T07:28:11.000Z</time>
      </trkpt>
      <trkpt lat="49.80284" lon="4.81151">
        <ele>268</ele>
        <time>2021-07-31T07:28:12.000Z</time>
      </trkpt>
      <trkpt lat="49.80284" lon="4.81153">
        <ele>268</ele>
        <time>2021-07-31T07:28:13.000Z</time>
      </trkpt>
      <trkpt lat="49.80284" lon="4.81156">
        <ele>269</ele>
        <time>2021-07-31T07:28:14.000Z</time>
      </trkpt>
      <trkpt lat="49.80285" lon="4.81159">
        <ele>269</ele>
        <time>2021-07-31T07:28:15.000Z</time>
      </trkpt>
      <trkpt lat="49.80285" lon="4.81161">
        <ele>269</ele>
        <time>2021-07-31T07:28:16.000Z</time>
      </trkpt>
      <trkpt lat="49.80286" lon="4.81164">
        <ele>269</ele>
        <time>2021-07-31T07:28:17.000Z</time>
      </trkpt>
      <trkpt lat="49.80286" lon="4.81167">
        <ele>269</ele>
        <time>2021-07-31T07:28:18.000Z</time>
      </trkpt>
      <trkpt lat="49.80286" lon="4.8117">
        <ele>269</ele>
        <time>2021-07-31T07:28:19.000Z</time>
      </trkpt>
      <trkpt lat="49.80287" lon="4.81173">
        <ele>269</ele>
        <time>2021-07-31T07:28:20.000Z</time>
      </trkpt>
      <trkpt lat="49.80286" lon="4.81176">
        <ele>269</ele>
        <time>2021-07-31T07:28:21.000Z</time>
      </trkpt>
      <trkpt lat="49.80286" lon="4.81179">
        <ele>270</ele>
        <time>2021-07-31T07:28:22.000Z</time>
      </trkpt>
      <trkpt lat="49.80287" lon="4.81182">
        <ele>270</ele>
        <time>2021-07-31T07:28:23.000Z</time>
      </trkpt>
      <trkpt lat="49.80287" lon="4.81185">
        <ele>270</ele>
        <time>2021-07-31T07:28:24.000Z</time>
      </trkpt>
      <trkpt lat="49.80288" lon="4.81187">
        <ele>270</ele>
        <time>2021-07-31T07:28:25.000Z</time>
      </trkpt>
      <trkpt lat="49.80288" lon="4.8119">
        <ele>270</ele>
        <time>2021-07-31T07:28:26.000Z</time>
      </trkpt>
      <trkpt lat="49.80289" lon="4.81192">
        <ele>270</ele>
        <time>2021-07-31T07:28:27.000Z</time>
      </trkpt>
      <trkpt lat="49.80289" lon="4.81195">
        <ele>270</ele>
        <time>2021-07-31T07:28:28.000Z</time>
      </trkpt>
      <trkpt lat="49.8029" lon="4.81197">
        <ele>270</ele>
        <time>2021-07-31T07:28:29.000Z</time>
      </trkpt>
      <trkpt lat="49.8029" lon="4.812">
        <ele>270</ele>
        <time>2021-07-31T07:28:30.000Z</time>
      </trkpt>
      <trkpt lat="49.80291" lon="4.81203">
        <ele>270</ele>
        <time>2021-07-31T07:28:31.000Z</time>
      </trkpt>
      <trkpt lat="49.80291" lon="4.81206">
        <ele>271</ele>
        <time>2021-07-31T07:28:32.000Z</time>
      </trkpt>
      <trkpt lat="49.80291" lon="4.81209">
        <ele>271</ele>
        <time>2021-07-31T07:28:33.000Z</time>
      </trkpt>
      <trkpt lat="49.80292" lon="4.81212">
        <ele>271</ele>
        <time>2021-07-31T07:28:34.000Z</time>
      </trkpt>
      <trkpt lat="49.80292" lon="4.81214">
        <ele>271</ele>
        <time>2021-07-31T07:28:35.000Z</time>
      </trkpt>
      <trkpt lat="49.80291" lon="4.81217">
        <ele>272</ele>
        <time>2021-07-31T07:28:36.000Z</time>
      </trkpt>
      <trkpt lat="49.80291" lon="4.8122">
        <ele>272</ele>
        <time>2021-07-31T07:28:37.000Z</time>
      </trkpt>
      <trkpt lat="49.80292" lon="4.81222">
        <ele>272</ele>
        <time>2021-07-31T07:28:38.000Z</time>
      </trkpt>
      <trkpt lat="49.80292" lon="4.81225">
        <ele>273</ele>
        <time>2021-07-31T07:28:39.000Z</time>
      </trkpt>
      <trkpt lat="49.80292" lon="4.81228">
        <ele>273</ele>
        <time>2021-07-31T07:28:40.000Z</time>
      </trkpt>
      <trkpt lat="49.80291" lon="4.81232">
        <ele>273</ele>
        <time>2021-07-31T07:28:41.000Z</time>
      </trkpt>
      <trkpt lat="49.80292" lon="4.81235">
        <ele>273</ele>
        <time>2021-07-31T07:28:42.000Z</time>
      </trkpt>
      <trkpt lat="49.80292" lon="4.81238">
        <ele>274</ele>
        <time>2021-07-31T07:28:43.000Z</time>
      </trkpt>
      <trkpt lat="49.80292" lon="4.81241">
        <ele>274</ele>
        <time>2021-07-31T07:28:44.000Z</time>
      </trkpt>
      <trkpt lat="49.80292" lon="4.81244">
        <ele>274</ele>
        <time>2021-07-31T07:28:45.000Z</time>
      </trkpt>
      <trkpt lat="49.80291" lon="4.81247">
        <ele>274</ele>
        <time>2021-07-31T07:28:46.000Z</time>
      </trkpt>
      <trkpt lat="49.80291" lon="4.8125">
        <ele>275</ele>
        <time>2021-07-31T07:28:47.000Z</time>
      </trkpt>
      <trkpt lat="49.8029" lon="4.81253">
        <ele>275</ele>
        <time>2021-07-31T07:28:48.000Z</time>
      </trkpt>
      <trkpt lat="49.80289" lon="4.81256">
        <ele>275</ele>
        <time>2021-07-31T07:28:49.000Z</time>
      </trkpt>
      <trkpt lat="49.80289" lon="4.81259">
        <ele>275</ele>
        <time>2021-07-31T07:28:50.000Z</time>
      </trkpt>
      <trkpt lat="49.80289" lon="4.81262">
        <ele>275</ele>
        <time>2021-07-31T07:28:51.000Z</time>
      </trkpt>
      <trkpt lat="49.80289" lon="4.81266">
        <ele>276</ele>
        <time>2021-07-31T07:28:52.000Z</time>
      </trkpt>
      <trkpt lat="49.80289" lon="4.8127">
        <ele>276</ele>
        <time>2021-07-31T07:28:53.000Z</time>
      </trkpt>
      <trkpt lat="49.80289" lon="4.81274">
        <ele>276</ele>
        <time>2021-07-31T07:28:54.000Z</time>
      </trkpt>
      <trkpt lat="49.80289" lon="4.81278">
        <ele>276</ele>
        <time>2021-07-31T07:28:55.000Z</time>
      </trkpt>
      <trkpt lat="49.80289" lon="4.81282">
        <ele>276</ele>
        <time>2021-07-31T07:28:56.000Z</time>
      </trkpt>
      <trkpt lat="49.80288" lon="4.81286">
        <ele>276</ele>
        <time>2021-07-31T07:28:57.000Z</time>
      </trkpt>
      <trkpt lat="49.80287" lon="4.8129">
        <ele>277</ele>
        <time>2021-07-31T07:28:58.000Z</time>
      </trkpt>
      <trkpt lat="49.80287" lon="4.81295">
        <ele>277</ele>
        <time>2021-07-31T07:28:59.000Z</time>
      </trkpt>
      <trkpt lat="49.80286" lon="4.81299">
        <ele>277</ele>
        <time>2021-07-31T07:29:00.000Z</time>
      </trkpt>
      <trkpt lat="49.80285" lon="4.81304">
        <ele>277</ele>
        <time>2021-07-31T07:29:01.000Z</time>
      </trkpt>
      <trkpt lat="49.80284" lon="4.81309">
        <ele>277</ele>
        <time>2021-07-31T07:29:02.000Z</time>
      </trkpt>
      <trkpt lat="49.80283" lon="4.81313">
        <ele>277</ele>
        <time>2021-07-31T07:29:03.000Z</time>
      </trkpt>
      <trkpt lat="49.80283" lon="4.81318">
        <ele>277</ele>
        <time>2021-07-31T07:29:04.000Z</time>
      </trkpt>
      <trkpt lat="49.80282" lon="4.81322">
        <ele>278</ele>
        <time>2021-07-31T07:29:05.000Z</time>
      </trkpt>
      <trkpt lat="49.80281" lon="4.81326">
        <ele>278</ele>
        <time>2021-07-31T07:29:06.000Z</time>
      </trkpt>
      <trkpt lat="49.80281" lon="4.81331">
        <ele>278</ele>
        <time>2021-07-31T07:29:07.000Z</time>
      </trkpt>
      <trkpt lat="49.8028" lon="4.81335">
        <ele>278</ele>
        <time>2021-07-31T07:29:08.000Z</time>
      </trkpt>
      <trkpt lat="49.80279" lon="4.8134">
        <ele>279</ele>
        <time>2021-07-31T07:29:09.000Z</time>
      </trkpt>
      <trkpt lat="49.80278" lon="4.81344">
        <ele>279</ele>
        <time>2021-07-31T07:29:10.000Z</time>
      </trkpt>
      <trkpt lat="49.80278" lon="4.81349">
        <ele>279</ele>
        <time>2021-07-31T07:29:11.000Z</time>
      </trkpt>
      <trkpt lat="49.80277" lon="4.81353">
        <ele>279</ele>
        <time>2021-07-31T07:29:12.000Z</time>
      </trkpt>
      <trkpt lat="49.80277" lon="4.81358">
        <ele>280</ele>
        <time>2021-07-31T07:29:13.000Z</time>
      </trkpt>
      <trkpt lat="49.80276" lon="4.81363">
        <ele>280</ele>
        <time>2021-07-31T07:29:14.000Z</time>
      </trkpt>
      <trkpt lat="49.80276" lon="4.81367">
        <ele>280</ele>
        <time>2021-07-31T07:29:15.000Z</time>
      </trkpt>
      <trkpt lat="49.80275" lon="4.81372">
        <ele>280</ele>
        <time>2021-07-31T07:29:16.000Z</time>
      </trkpt>
      <trkpt lat="49.80274" lon="4.81377">
        <ele>280</ele>
        <time>2021-07-31T07:29:17.000Z</time>
      </trkpt>
      <trkpt lat="49.80272" lon="4.81381">
        <ele>280</ele>
        <time>2021-07-31T07:29:18.000Z</time>
      </trkpt>
      <trkpt lat="49.80271" lon="4.81387">
        <ele>280</ele>
        <time>2021-07-31T07:29:19.000Z</time>
      </trkpt>
      <trkpt lat="49.80271" lon="4.81392">
        <ele>280</ele>
        <time>2021-07-31T07:29:20.000Z</time>
      </trkpt>
      <trkpt lat="49.8027" lon="4.81398">
        <ele>281</ele>
        <time>2021-07-31T07:29:21.000Z</time>
      </trkpt>
      <trkpt lat="49.80269" lon="4.81403">
        <ele>281</ele>
        <time>2021-07-31T07:29:22.000Z</time>
      </trkpt>
      <trkpt lat="49.80268" lon="4.81409">
        <ele>281</ele>
        <time>2021-07-31T07:29:23.000Z</time>
      </trkpt>
      <trkpt lat="49.80267" lon="4.81415">
        <ele>281</ele>
        <time>2021-07-31T07:29:24.000Z</time>
      </trkpt>
      <trkpt lat="49.80266" lon="4.8142">
        <ele>281</ele>
        <time>2021-07-31T07:29:25.000Z</time>
      </trkpt>
      <trkpt lat="49.80264" lon="4.81425">
        <ele>281</ele>
        <time>2021-07-31T07:29:26.000Z</time>
      </trkpt>
      <trkpt lat="49.80262" lon="4.8143">
        <ele>281</ele>
        <time>2021-07-31T07:29:27.000Z</time>
      </trkpt>
      <trkpt lat="49.80261" lon="4.81434">
        <ele>282</ele>
        <time>2021-07-31T07:29:28.000Z</time>
      </trkpt>
      <trkpt lat="49.80261" lon="4.81437">
        <ele>282</ele>
        <time>2021-07-31T07:29:29.000Z</time>
      </trkpt>
      <trkpt lat="49.8026" lon="4.8144">
        <ele>282</ele>
        <time>2021-07-31T07:29:30.000Z</time>
      </trkpt>
      <trkpt lat="49.80259" lon="4.81444">
        <ele>282</ele>
        <time>2021-07-31T07:29:31.000Z</time>
      </trkpt>
      <trkpt lat="49.80258" lon="4.81447">
        <ele>282</ele>
        <time>2021-07-31T07:29:32.000Z</time>
      </trkpt>
      <trkpt lat="49.80258" lon="4.8145">
        <ele>282</ele>
        <time>2021-07-31T07:29:33.000Z</time>
      </trkpt>
      <trkpt lat="49.80257" lon="4.81453">
        <ele>282</ele>
        <time>2021-07-31T07:29:34.000Z</time>
      </trkpt>
      <trkpt lat="49.80257" lon="4.81456">
        <ele>282</ele>
        <time>2021-07-31T07:29:35.000Z</time>
      </trkpt>
      <trkpt lat="49.80257" lon="4.81459">
        <ele>282</ele>
        <time>2021-07-31T07:29:36.000Z</time>
      </trkpt>
      <trkpt lat="49.80256" lon="4.81462">
        <ele>282</ele>
        <time>2021-07-31T07:29:37.000Z</time>
      </trkpt>
      <trkpt lat="49.80255" lon="4.81466">
        <ele>282</ele>
        <time>2021-07-31T07:29:38.000Z</time>
      </trkpt>
      <trkpt lat="49.80255" lon="4.8147">
        <ele>282</ele>
        <time>2021-07-31T07:29:39.000Z</time>
      </trkpt>
      <trkpt lat="49.80254" lon="4.81474">
        <ele>282</ele>
        <time>2021-07-31T07:29:40.000Z</time>
      </trkpt>
      <trkpt lat="49.80254" lon="4.81478">
        <ele>282</ele>
        <time>2021-07-31T07:29:41.000Z</time>
      </trkpt>
      <trkpt lat="49.80253" lon="4.81482">
        <ele>282</ele>
        <time>2021-07-31T07:29:42.000Z</time>
      </trkpt>
      <trkpt lat="49.80251" lon="4.81486">
        <ele>282</ele>
        <time>2021-07-31T07:29:43.000Z</time>
      </trkpt>
      <trkpt lat="49.8025" lon="4.8149">
        <ele>282</ele>
        <time>2021-07-31T07:29:44.000Z</time>
      </trkpt>
      <trkpt lat="49.8025" lon="4.81493">
        <ele>283</ele>
        <time>2021-07-31T07:29:45.000Z</time>
      </trkpt>
      <trkpt lat="49.80249" lon="4.81497">
        <ele>283</ele>
        <time>2021-07-31T07:29:46.000Z</time>
      </trkpt>
      <trkpt lat="49.80247" lon="4.815">
        <ele>283</ele>
        <time>2021-07-31T07:29:47.000Z</time>
      </trkpt>
      <trkpt lat="49.80246" lon="4.81504">
        <ele>283</ele>
        <time>2021-07-31T07:29:48.000Z</time>
      </trkpt>
      <trkpt lat="49.80243" lon="4.81507">
        <ele>283</ele>
        <time>2021-07-31T07:29:49.000Z</time>
      </trkpt>
      <trkpt lat="49.8024" lon="4.81511">
        <ele>283</ele>
        <time>2021-07-31T07:29:50.000Z</time>
      </trkpt>
      <trkpt lat="49.80238" lon="4.81514">
        <ele>283</ele>
        <time>2021-07-31T07:29:51.000Z</time>
      </trkpt>
      <trkpt lat="49.80235" lon="4.81517">
        <ele>283</ele>
        <time>2021-07-31T07:29:52.000Z</time>
      </trkpt>
      <trkpt lat="49.80233" lon="4.8152">
        <ele>283</ele>
        <time>2021-07-31T07:29:53.000Z</time>
      </trkpt>
      <trkpt lat="49.8023" lon="4.81523">
        <ele>283</ele>
        <time>2021-07-31T07:29:54.000Z</time>
      </trkpt>
      <trkpt lat="49.80229" lon="4.81524">
        <ele>283</ele>
        <time>2021-07-31T07:29:55.000Z</time>
      </trkpt>
      <trkpt lat="49.80227" lon="4.81525">
        <ele>283</ele>
        <time>2021-07-31T07:29:56.000Z</time>
      </trkpt>
      <trkpt lat="49.80226" lon="4.81527">
        <ele>284</ele>
        <time>2021-07-31T07:29:57.000Z</time>
      </trkpt>
      <trkpt lat="49.80223" lon="4.81529">
        <ele>284</ele>
        <time>2021-07-31T07:29:58.000Z</time>
      </trkpt>
      <trkpt lat="49.80221" lon="4.81531">
        <ele>284</ele>
        <time>2021-07-31T07:29:59.000Z</time>
      </trkpt>
      <trkpt lat="49.80218" lon="4.81533">
        <ele>284</ele>
        <time>2021-07-31T07:30:00.000Z</time>
      </trkpt>
      <trkpt lat="49.80216" lon="4.81535">
        <ele>284</ele>
        <time>2021-07-31T07:30:01.000Z</time>
      </trkpt>
      <trkpt lat="49.80213" lon="4.81536">
        <ele>284</ele>
        <time>2021-07-31T07:30:02.000Z</time>
      </trkpt>
      <trkpt lat="49.80211" lon="4.81538">
        <ele>284</ele>
        <time>2021-07-31T07:30:03.000Z</time>
      </trkpt>
      <trkpt lat="49.80208" lon="4.81539">
        <ele>284</ele>
        <time>2021-07-31T07:30:04.000Z</time>
      </trkpt>
      <trkpt lat="49.80206" lon="4.81541">
        <ele>284</ele>
        <time>2021-07-31T07:30:05.000Z</time>
      </trkpt>
      <trkpt lat="49.80204" lon="4.81543">
        <ele>284</ele>
        <time>2021-07-31T07:30:06.000Z</time>
      </trkpt>
      <trkpt lat="49.80202" lon="4.81544">
        <ele>284</ele>
        <time>2021-07-31T07:30:07.000Z</time>
      </trkpt>
      <trkpt lat="49.802" lon="4.81546">
        <ele>285</ele>
        <time>2021-07-31T07:30:08.000Z</time>
      </trkpt>
      <trkpt lat="49.80198" lon="4.81548">
        <ele>285</ele>
        <time>2021-07-31T07:30:09.000Z</time>
      </trkpt>
      <trkpt lat="49.80196" lon="4.81549">
        <ele>285</ele>
        <time>2021-07-31T07:30:10.000Z</time>
      </trkpt>
      <trkpt lat="49.80195" lon="4.8155">
        <ele>285</ele>
        <time>2021-07-31T07:30:11.000Z</time>
      </trkpt>
      <trkpt lat="49.80193" lon="4.81551">
        <ele>285</ele>
        <time>2021-07-31T07:30:12.000Z</time>
      </trkpt>
      <trkpt lat="49.80192" lon="4.81553">
        <ele>285</ele>
        <time>2021-07-31T07:30:13.000Z</time>
      </trkpt>
      <trkpt lat="49.8019" lon="4.81556">
        <ele>286</ele>
        <time>2021-07-31T07:30:14.000Z</time>
      </trkpt>
      <trkpt lat="49.80189" lon="4.81557">
        <ele>286</ele>
        <time>2021-07-31T07:30:15.000Z</time>
      </trkpt>
      <trkpt lat="49.80188" lon="4.81559">
        <ele>286</ele>
        <time>2021-07-31T07:30:16.000Z</time>
      </trkpt>
      <trkpt lat="49.80186" lon="4.8156">
        <ele>286</ele>
        <time>2021-07-31T07:30:17.000Z</time>
      </trkpt>
      <trkpt lat="49.80185" lon="4.81562">
        <ele>287</ele>
        <time>2021-07-31T07:30:18.000Z</time>
      </trkpt>
      <trkpt lat="49.80184" lon="4.81564">
        <ele>287</ele>
        <time>2021-07-31T07:30:19.000Z</time>
      </trkpt>
      <trkpt lat="49.80183" lon="4.81566">
        <ele>287</ele>
        <time>2021-07-31T07:30:20.000Z</time>
      </trkpt>
      <trkpt lat="49.80181" lon="4.81567">
        <ele>287</ele>
        <time>2021-07-31T07:30:21.000Z</time>
      </trkpt>
      <trkpt lat="49.8018" lon="4.81569">
        <ele>288</ele>
        <time>2021-07-31T07:30:22.000Z</time>
      </trkpt>
      <trkpt lat="49.80178" lon="4.81571">
        <ele>288</ele>
        <time>2021-07-31T07:30:23.000Z</time>
      </trkpt>
      <trkpt lat="49.80176" lon="4.81573">
        <ele>288</ele>
        <time>2021-07-31T07:30:24.000Z</time>
      </trkpt>
      <trkpt lat="49.80174" lon="4.81575">
        <ele>289</ele>
        <time>2021-07-31T07:30:25.000Z</time>
      </trkpt>
      <trkpt lat="49.80172" lon="4.81577">
        <ele>289</ele>
        <time>2021-07-31T07:30:26.000Z</time>
      </trkpt>
      <trkpt lat="49.80171" lon="4.81579">
        <ele>290</ele>
        <time>2021-07-31T07:30:27.000Z</time>
      </trkpt>
      <trkpt lat="49.80169" lon="4.81581">
        <ele>290</ele>
        <time>2021-07-31T07:30:28.000Z</time>
      </trkpt>
      <trkpt lat="49.80168" lon="4.81583">
        <ele>291</ele>
        <time>2021-07-31T07:30:29.000Z</time>
      </trkpt>
      <trkpt lat="49.80167" lon="4.81584">
        <ele>291</ele>
        <time>2021-07-31T07:30:30.000Z</time>
      </trkpt>
      <trkpt lat="49.80166" lon="4.81586">
        <ele>292</ele>
        <time>2021-07-31T07:30:31.000Z</time>
      </trkpt>
      <trkpt lat="49.80165" lon="4.81588">
        <ele>292</ele>
        <time>2021-07-31T07:30:32.000Z</time>
      </trkpt>
      <trkpt lat="49.80163" lon="4.81591">
        <ele>293</ele>
        <time>2021-07-31T07:30:33.000Z</time>
      </trkpt>
      <trkpt lat="49.80162" lon="4.81594">
        <ele>293</ele>
        <time>2021-07-31T07:30:34.000Z</time>
      </trkpt>
      <trkpt lat="49.80161" lon="4.81595">
        <ele>293</ele>
        <time>2021-07-31T07:30:35.000Z</time>
      </trkpt>
      <trkpt lat="49.80159" lon="4.81597">
        <ele>294</ele>
        <time>2021-07-31T07:30:36.000Z</time>
      </trkpt>
      <trkpt lat="49.80158" lon="4.81598">
        <ele>294</ele>
        <time>2021-07-31T07:30:37.000Z</time>
      </trkpt>
      <trkpt lat="49.80157" lon="4.816">
        <ele>295</ele>
        <time>2021-07-31T07:30:38.000Z</time>
      </trkpt>
      <trkpt lat="49.80156" lon="4.81602">
        <ele>295</ele>
        <time>2021-07-31T07:30:39.000Z</time>
      </trkpt>
      <trkpt lat="49.80155" lon="4.81604">
        <ele>295</ele>
        <time>2021-07-31T07:30:40.000Z</time>
      </trkpt>
      <trkpt lat="49.80153" lon="4.81606">
        <ele>296</ele>
        <time>2021-07-31T07:30:41.000Z</time>
      </trkpt>
      <trkpt lat="49.80152" lon="4.81608">
        <ele>296</ele>
        <time>2021-07-31T07:30:42.000Z</time>
      </trkpt>
      <trkpt lat="49.80151" lon="4.8161">
        <ele>297</ele>
        <time>2021-07-31T07:30:43.000Z</time>
      </trkpt>
      <trkpt lat="49.80149" lon="4.81612">
        <ele>297</ele>
        <time>2021-07-31T07:30:44.000Z</time>
      </trkpt>
      <trkpt lat="49.80148" lon="4.81615">
        <ele>297</ele>
        <time>2021-07-31T07:30:45.000Z</time>
      </trkpt>
      <trkpt lat="49.80147" lon="4.81617">
        <ele>298</ele>
        <time>2021-07-31T07:30:46.000Z</time>
      </trkpt>
      <trkpt lat="49.80147" lon="4.8162">
        <ele>298</ele>
        <time>2021-07-31T07:30:47.000Z</time>
      </trkpt>
      <trkpt lat="49.80146" lon="4.81623">
        <ele>299</ele>
        <time>2021-07-31T07:30:48.000Z</time>
      </trkpt>
      <trkpt lat="49.80145" lon="4.81625">
        <ele>299</ele>
        <time>2021-07-31T07:30:49.000Z</time>
      </trkpt>
      <trkpt lat="49.80144" lon="4.81627">
        <ele>299</ele>
        <time>2021-07-31T07:30:50.000Z</time>
      </trkpt>
      <trkpt lat="49.80143" lon="4.81629">
        <ele>300</ele>
        <time>2021-07-31T07:30:51.000Z</time>
      </trkpt>
      <trkpt lat="49.80143" lon="4.81632">
        <ele>300</ele>
        <time>2021-07-31T07:30:52.000Z</time>
      </trkpt>
      <trkpt lat="49.80143" lon="4.81634">
        <ele>300</ele>
        <time>2021-07-31T07:30:53.000Z</time>
      </trkpt>
      <trkpt lat="49.80143" lon="4.81636">
        <ele>301</ele>
        <time>2021-07-31T07:30:54.000Z</time>
      </trkpt>
      <trkpt lat="49.80142" lon="4.81638">
        <ele>301</ele>
        <time>2021-07-31T07:30:55.000Z</time>
      </trkpt>
      <trkpt lat="49.80142" lon="4.8164">
        <ele>301</ele>
        <time>2021-07-31T07:30:56.000Z</time>
      </trkpt>
      <trkpt lat="49.80141" lon="4.81642">
        <ele>302</ele>
        <time>2021-07-31T07:30:57.000Z</time>
      </trkpt>
      <trkpt lat="49.8014" lon="4.81645">
        <ele>302</ele>
        <time>2021-07-31T07:30:58.000Z</time>
      </trkpt>
      <trkpt lat="49.80139" lon="4.81647">
        <ele>303</ele>
        <time>2021-07-31T07:30:59.000Z</time>
      </trkpt>
      <trkpt lat="49.80138" lon="4.8165">
        <ele>303</ele>
        <time>2021-07-31T07:31:00.000Z</time>
      </trkpt>
      <trkpt lat="49.80137" lon="4.81652">
        <ele>303</ele>
        <time>2021-07-31T07:31:01.000Z</time>
      </trkpt>
      <trkpt lat="49.80137" lon="4.81654">
        <ele>303</ele>
        <time>2021-07-31T07:31:02.000Z</time>
      </trkpt>
      <trkpt lat="49.80136" lon="4.81657">
        <ele>304</ele>
        <time>2021-07-31T07:31:03.000Z</time>
      </trkpt>
      <trkpt lat="49.80135" lon="4.81659">
        <ele>304</ele>
        <time>2021-07-31T07:31:04.000Z</time>
      </trkpt>
      <trkpt lat="49.80135" lon="4.81662">
        <ele>304</ele>
        <time>2021-07-31T07:31:05.000Z</time>
      </trkpt>
      <trkpt lat="49.80134" lon="4.81665">
        <ele>305</ele>
        <time>2021-07-31T07:31:06.000Z</time>
      </trkpt>
      <trkpt lat="49.80134" lon="4.81668">
        <ele>305</ele>
        <time>2021-07-31T07:31:07.000Z</time>
      </trkpt>
      <trkpt lat="49.80135" lon="4.8167">
        <ele>305</ele>
        <time>2021-07-31T07:31:08.000Z</time>
      </trkpt>
      <trkpt lat="49.80135" lon="4.81673">
        <ele>305</ele>
        <time>2021-07-31T07:31:09.000Z</time>
      </trkpt>
      <trkpt lat="49.80135" lon="4.81676">
        <ele>305</ele>
        <time>2021-07-31T07:31:10.000Z</time>
      </trkpt>
      <trkpt lat="49.80135" lon="4.81678">
        <ele>305</ele>
        <time>2021-07-31T07:31:11.000Z</time>
      </trkpt>
      <trkpt lat="49.80134" lon="4.8168">
        <ele>305</ele>
        <time>2021-07-31T07:31:12.000Z</time>
      </trkpt>
      <trkpt lat="49.80134" lon="4.81683">
        <ele>305</ele>
        <time>2021-07-31T07:31:13.000Z</time>
      </trkpt>
      <trkpt lat="49.80134" lon="4.81684">
        <ele>305</ele>
        <time>2021-07-31T07:31:14.000Z</time>
      </trkpt>
      <trkpt lat="49.80134" lon="4.81686">
        <ele>305</ele>
        <time>2021-07-31T07:31:15.000Z</time>
      </trkpt>
      <trkpt lat="49.80134" lon="4.81687">
        <ele>305</ele>
        <time>2021-07-31T07:31:16.000Z</time>
      </trkpt>
      <trkpt lat="49.80134" lon="4.81689">
        <ele>305</ele>
        <time>2021-07-31T07:31:17.000Z</time>
      </trkpt>
      <trkpt lat="49.80133" lon="4.81692">
        <ele>305</ele>
        <time>2021-07-31T07:31:18.000Z</time>
      </trkpt>
      <trkpt lat="49.80133" lon="4.81694">
        <ele>305</ele>
        <time>2021-07-31T07:31:19.000Z</time>
      </trkpt>
      <trkpt lat="49.80132" lon="4.81697">
        <ele>306</ele>
        <time>2021-07-31T07:31:20.000Z</time>
      </trkpt>
      <trkpt lat="49.80132" lon="4.81699">
        <ele>306</ele>
        <time>2021-07-31T07:31:21.000Z</time>
      </trkpt>
      <trkpt lat="49.80131" lon="4.81701">
        <ele>306</ele>
        <time>2021-07-31T07:31:22.000Z</time>
      </trkpt>
      <trkpt lat="49.8013" lon="4.81703">
        <ele>306</ele>
        <time>2021-07-31T07:31:23.000Z</time>
      </trkpt>
      <trkpt lat="49.8013" lon="4.81705">
        <ele>306</ele>
        <time>2021-07-31T07:31:24.000Z</time>
      </trkpt>
      <trkpt lat="49.80128" lon="4.81707">
        <ele>307</ele>
        <time>2021-07-31T07:31:25.000Z</time>
      </trkpt>
      <trkpt lat="49.80127" lon="4.81709">
        <ele>307</ele>
        <time>2021-07-31T07:31:26.000Z</time>
      </trkpt>
      <trkpt lat="49.80126" lon="4.81711">
        <ele>307</ele>
        <time>2021-07-31T07:31:27.000Z</time>
      </trkpt>
      <trkpt lat="49.80125" lon="4.81714">
        <ele>307</ele>
        <time>2021-07-31T07:31:28.000Z</time>
      </trkpt>
      <trkpt lat="49.80124" lon="4.81716">
        <ele>308</ele>
        <time>2021-07-31T07:31:29.000Z</time>
      </trkpt>
      <trkpt lat="49.80123" lon="4.81719">
        <ele>308</ele>
        <time>2021-07-31T07:31:30.000Z</time>
      </trkpt>
      <trkpt lat="49.80122" lon="4.81721">
        <ele>308</ele>
        <time>2021-07-31T07:31:31.000Z</time>
      </trkpt>
      <trkpt lat="49.80121" lon="4.81724">
        <ele>309</ele>
        <time>2021-07-31T07:31:32.000Z</time>
      </trkpt>
      <trkpt lat="49.8012" lon="4.81727">
        <ele>309</ele>
        <time>2021-07-31T07:31:33.000Z</time>
      </trkpt>
      <trkpt lat="49.80119" lon="4.8173">
        <ele>309</ele>
        <time>2021-07-31T07:31:34.000Z</time>
      </trkpt>
      <trkpt lat="49.80119" lon="4.81733">
        <ele>310</ele>
        <time>2021-07-31T07:31:35.000Z</time>
      </trkpt>
      <trkpt lat="49.80119" lon="4.81736">
        <ele>310</ele>
        <time>2021-07-31T07:31:36.000Z</time>
      </trkpt>
      <trkpt lat="49.80118" lon="4.81738">
        <ele>310</ele>
        <time>2021-07-31T07:31:37.000Z</time>
      </trkpt>
      <trkpt lat="49.80119" lon="4.8174">
        <ele>310</ele>
        <time>2021-07-31T07:31:38.000Z</time>
      </trkpt>
      <trkpt lat="49.80119" lon="4.81743">
        <ele>311</ele>
        <time>2021-07-31T07:31:39.000Z</time>
      </trkpt>
      <trkpt lat="49.80119" lon="4.81745">
        <ele>311</ele>
        <time>2021-07-31T07:31:40.000Z</time>
      </trkpt>
      <trkpt lat="49.8012" lon="4.81748">
        <ele>311</ele>
        <time>2021-07-31T07:31:41.000Z</time>
      </trkpt>
      <trkpt lat="49.8012" lon="4.81751">
        <ele>311</ele>
        <time>2021-07-31T07:31:42.000Z</time>
      </trkpt>
      <trkpt lat="49.80121" lon="4.81755">
        <ele>311</ele>
        <time>2021-07-31T07:31:43.000Z</time>
      </trkpt>
      <trkpt lat="49.80121" lon="4.81759">
        <ele>312</ele>
        <time>2021-07-31T07:31:44.000Z</time>
      </trkpt>
      <trkpt lat="49.80122" lon="4.81763">
        <ele>312</ele>
        <time>2021-07-31T07:31:45.000Z</time>
      </trkpt>
      <trkpt lat="49.80122" lon="4.81767">
        <ele>312</ele>
        <time>2021-07-31T07:31:46.000Z</time>
      </trkpt>
      <trkpt lat="49.80123" lon="4.81771">
        <ele>312</ele>
        <time>2021-07-31T07:31:47.000Z</time>
      </trkpt>
      <trkpt lat="49.80123" lon="4.81774">
        <ele>312</ele>
        <time>2021-07-31T07:31:48.000Z</time>
      </trkpt>
      <trkpt lat="49.80124" lon="4.81778">
        <ele>312</ele>
        <time>2021-07-31T07:31:49.000Z</time>
      </trkpt>
      <trkpt lat="49.80125" lon="4.8178">
        <ele>312</ele>
        <time>2021-07-31T07:31:50.000Z</time>
      </trkpt>
      <trkpt lat="49.80125" lon="4.8178">
        <ele>312</ele>
        <time>2021-07-31T07:31:51.000Z</time>
      </trkpt>
      <trkpt lat="49.80125" lon="4.81781">
        <ele>313</ele>
        <time>2021-07-31T07:31:52.000Z</time>
      </trkpt>
      <trkpt lat="49.80126" lon="4.81781">
        <ele>313</ele>
        <time>2021-07-31T07:31:53.000Z</time>
      </trkpt>
      <trkpt lat="49.80126" lon="4.81781">
        <ele>313</ele>
        <time>2021-07-31T07:31:54.000Z</time>
      </trkpt>
      <trkpt lat="49.80126" lon="4.81781">
        <ele>313</ele>
        <time>2021-07-31T07:31:55.000Z</time>
      </trkpt>
      <trkpt lat="49.80126" lon="4.81781">
        <ele>313</ele>
        <time>2021-07-31T07:31:56.000Z</time>
      </trkpt>
      <trkpt lat="49.80126" lon="4.81782">
        <ele>313</ele>
        <time>2021-07-31T07:31:57.000Z</time>
      </trkpt>
      <trkpt lat="49.80126" lon="4.81782">
        <ele>313</ele>
        <time>2021-07-31T07:31:58.000Z</time>
      </trkpt>
      <trkpt lat="49.80126" lon="4.81783">
        <ele>313</ele>
        <time>2021-07-31T07:31:59.000Z</time>
      </trkpt>
      <trkpt lat="49.80127" lon="4.81784">
        <ele>313</ele>
        <time>2021-07-31T07:32:00.000Z</time>
      </trkpt>
      <trkpt lat="49.80128" lon="4.81787">
        <ele>314</ele>
        <time>2021-07-31T07:32:01.000Z</time>
      </trkpt>
      <trkpt lat="49.80128" lon="4.8179">
        <ele>313</ele>
        <time>2021-07-31T07:32:02.000Z</time>
      </trkpt>
      <trkpt lat="49.8013" lon="4.81793">
        <ele>313</ele>
        <time>2021-07-31T07:32:03.000Z</time>
      </trkpt>
      <trkpt lat="49.80131" lon="4.81797">
        <ele>313</ele>
        <time>2021-07-31T07:32:04.000Z</time>
      </trkpt>
      <trkpt lat="49.80132" lon="4.81801">
        <ele>313</ele>
        <time>2021-07-31T07:32:05.000Z</time>
      </trkpt>
      <trkpt lat="49.80133" lon="4.81806">
        <ele>313</ele>
        <time>2021-07-31T07:32:06.000Z</time>
      </trkpt>
      <trkpt lat="49.80135" lon="4.8181">
        <ele>313</ele>
        <time>2021-07-31T07:32:07.000Z</time>
      </trkpt>
      <trkpt lat="49.80137" lon="4.81815">
        <ele>313</ele>
        <time>2021-07-31T07:32:08.000Z</time>
      </trkpt>
      <trkpt lat="49.80138" lon="4.81819">
        <ele>313</ele>
        <time>2021-07-31T07:32:09.000Z</time>
      </trkpt>
      <trkpt lat="49.80141" lon="4.81825">
        <ele>313</ele>
        <time>2021-07-31T07:32:10.000Z</time>
      </trkpt>
      <trkpt lat="49.80143" lon="4.81831">
        <ele>312</ele>
        <time>2021-07-31T07:32:11.000Z</time>
      </trkpt>
      <trkpt lat="49.80145" lon="4.81837">
        <ele>312</ele>
        <time>2021-07-31T07:32:12.000Z</time>
      </trkpt>
      <trkpt lat="49.80148" lon="4.81843">
        <ele>312</ele>
        <time>2021-07-31T07:32:13.000Z</time>
      </trkpt>
      <trkpt lat="49.80152" lon="4.81849">
        <ele>312</ele>
        <time>2021-07-31T07:32:14.000Z</time>
      </trkpt>
      <trkpt lat="49.80155" lon="4.81856">
        <ele>311</ele>
        <time>2021-07-31T07:32:15.000Z</time>
      </trkpt>
      <trkpt lat="49.80159" lon="4.81863">
        <ele>311</ele>
        <time>2021-07-31T07:32:16.000Z</time>
      </trkpt>
      <trkpt lat="49.80162" lon="4.81869">
        <ele>311</ele>
        <time>2021-07-31T07:32:17.000Z</time>
      </trkpt>
      <trkpt lat="49.80166" lon="4.81875">
        <ele>311</ele>
        <time>2021-07-31T07:32:18.000Z</time>
      </trkpt>
      <trkpt lat="49.80171" lon="4.81882">
        <ele>310</ele>
        <time>2021-07-31T07:32:19.000Z</time>
      </trkpt>
      <trkpt lat="49.80176" lon="4.81888">
        <ele>310</ele>
        <time>2021-07-31T07:32:20.000Z</time>
      </trkpt>
      <trkpt lat="49.80181" lon="4.81894">
        <ele>310</ele>
        <time>2021-07-31T07:32:21.000Z</time>
      </trkpt>
      <trkpt lat="49.80185" lon="4.81901">
        <ele>310</ele>
        <time>2021-07-31T07:32:22.000Z</time>
      </trkpt>
      <trkpt lat="49.80189" lon="4.81908">
        <ele>309</ele>
        <time>2021-07-31T07:32:23.000Z</time>
      </trkpt>
      <trkpt lat="49.80194" lon="4.81915">
        <ele>309</ele>
        <time>2021-07-31T07:32:24.000Z</time>
      </trkpt>
      <trkpt lat="49.80198" lon="4.81922">
        <ele>309</ele>
        <time>2021-07-31T07:32:25.000Z</time>
      </trkpt>
      <trkpt lat="49.80204" lon="4.81929">
        <ele>308</ele>
        <time>2021-07-31T07:32:26.000Z</time>
      </trkpt>
      <trkpt lat="49.80211" lon="4.81937">
        <ele>308</ele>
        <time>2021-07-31T07:32:27.000Z</time>
      </trkpt>
      <trkpt lat="49.80217" lon="4.81944">
        <ele>307</ele>
        <time>2021-07-31T07:32:28.000Z</time>
      </trkpt>
      <trkpt lat="49.80223" lon="4.81951">
        <ele>307</ele>
        <time>2021-07-31T07:32:29.000Z</time>
      </trkpt>
      <trkpt lat="49.8023" lon="4.81957">
        <ele>307</ele>
        <time>2021-07-31T07:32:30.000Z</time>
      </trkpt>
      <trkpt lat="49.80235" lon="4.81964">
        <ele>306</ele>
        <time>2021-07-31T07:32:31.000Z</time>
      </trkpt>
      <trkpt lat="49.80239" lon="4.81971">
        <ele>306</ele>
        <time>2021-07-31T07:32:32.000Z</time>
      </trkpt>
      <trkpt lat="49.80243" lon="4.81979">
        <ele>305</ele>
        <time>2021-07-31T07:32:33.000Z</time>
      </trkpt>
      <trkpt lat="49.80247" lon="4.81986">
        <ele>305</ele>
        <time>2021-07-31T07:32:34.000Z</time>
      </trkpt>
      <trkpt lat="49.80252" lon="4.81993">
        <ele>304</ele>
        <time>2021-07-31T07:32:35.000Z</time>
      </trkpt>
      <trkpt lat="49.80256" lon="4.81999">
        <ele>304</ele>
        <time>2021-07-31T07:32:36.000Z</time>
      </trkpt>
      <trkpt lat="49.8026" lon="4.82005">
        <ele>303</ele>
        <time>2021-07-31T07:32:37.000Z</time>
      </trkpt>
      <trkpt lat="49.80263" lon="4.8201">
        <ele>303</ele>
        <time>2021-07-31T07:32:38.000Z</time>
      </trkpt>
      <trkpt lat="49.80267" lon="4.82016">
        <ele>303</ele>
        <time>2021-07-31T07:32:39.000Z</time>
      </trkpt>
      <trkpt lat="49.80271" lon="4.82022">
        <ele>302</ele>
        <time>2021-07-31T07:32:40.000Z</time>
      </trkpt>
      <trkpt lat="49.80275" lon="4.82028">
        <ele>302</ele>
        <time>2021-07-31T07:32:41.000Z</time>
      </trkpt>
      <trkpt lat="49.80279" lon="4.82035">
        <ele>302</ele>
        <time>2021-07-31T07:32:42.000Z</time>
      </trkpt>
      <trkpt lat="49.80284" lon="4.82041">
        <ele>301</ele>
        <time>2021-07-31T07:32:43.000Z</time>
      </trkpt>
      <trkpt lat="49.80288" lon="4.82048">
        <ele>301</ele>
        <time>2021-07-31T07:32:44.000Z</time>
      </trkpt>
      <trkpt lat="49.80292" lon="4.82054">
        <ele>301</ele>
        <time>2021-07-31T07:32:45.000Z</time>
      </trkpt>
      <trkpt lat="49.80296" lon="4.8206">
        <ele>300</ele>
        <time>2021-07-31T07:32:46.000Z</time>
      </trkpt>
      <trkpt lat="49.80299" lon="4.82065">
        <ele>300</ele>
        <time>2021-07-31T07:32:47.000Z</time>
      </trkpt>
      <trkpt lat="49.80302" lon="4.82069">
        <ele>300</ele>
        <time>2021-07-31T07:32:48.000Z</time>
      </trkpt>
      <trkpt lat="49.80306" lon="4.82073">
        <ele>299</ele>
        <time>2021-07-31T07:32:49.000Z</time>
      </trkpt>
      <trkpt lat="49.80309" lon="4.82077">
        <ele>299</ele>
        <time>2021-07-31T07:32:50.000Z</time>
      </trkpt>
      <trkpt lat="49.80312" lon="4.8208">
        <ele>299</ele>
        <time>2021-07-31T07:32:51.000Z</time>
      </trkpt>
      <trkpt lat="49.80315" lon="4.82084">
        <ele>299</ele>
        <time>2021-07-31T07:32:52.000Z</time>
      </trkpt>
      <trkpt lat="49.80319" lon="4.82087">
        <ele>298</ele>
        <time>2021-07-31T07:32:53.000Z</time>
      </trkpt>
      <trkpt lat="49.80323" lon="4.8209">
        <ele>298</ele>
        <time>2021-07-31T07:32:54.000Z</time>
      </trkpt>
      <trkpt lat="49.80327" lon="4.82093">
        <ele>298</ele>
        <time>2021-07-31T07:32:55.000Z</time>
      </trkpt>
      <trkpt lat="49.8033" lon="4.82097">
        <ele>298</ele>
        <time>2021-07-31T07:32:56.000Z</time>
      </trkpt>
      <trkpt lat="49.80334" lon="4.82102">
        <ele>298</ele>
        <time>2021-07-31T07:32:57.000Z</time>
      </trkpt>
      <trkpt lat="49.80338" lon="4.82107">
        <ele>297</ele>
        <time>2021-07-31T07:32:58.000Z</time>
      </trkpt>
      <trkpt lat="49.80341" lon="4.82112">
        <ele>297</ele>
        <time>2021-07-31T07:32:59.000Z</time>
      </trkpt>
      <trkpt lat="49.80344" lon="4.82116">
        <ele>297</ele>
        <time>2021-07-31T07:33:00.000Z</time>
      </trkpt>
      <trkpt lat="49.80349" lon="4.82119">
        <ele>297</ele>
        <time>2021-07-31T07:33:01.000Z</time>
      </trkpt>
      <trkpt lat="49.80353" lon="4.82123">
        <ele>297</ele>
        <time>2021-07-31T07:33:02.000Z</time>
      </trkpt>
      <trkpt lat="49.80357" lon="4.82129">
        <ele>297</ele>
        <time>2021-07-31T07:33:03.000Z</time>
      </trkpt>
      <trkpt lat="49.80361" lon="4.82134">
        <ele>297</ele>
        <time>2021-07-31T07:33:04.000Z</time>
      </trkpt>
      <trkpt lat="49.80365" lon="4.82139">
        <ele>296</ele>
        <time>2021-07-31T07:33:05.000Z</time>
      </trkpt>
      <trkpt lat="49.80369" lon="4.82144">
        <ele>296</ele>
        <time>2021-07-31T07:33:06.000Z</time>
      </trkpt>
      <trkpt lat="49.80373" lon="4.82149">
        <ele>296</ele>
        <time>2021-07-31T07:33:07.000Z</time>
      </trkpt>
      <trkpt lat="49.80377" lon="4.82153">
        <ele>296</ele>
        <time>2021-07-31T07:33:08.000Z</time>
      </trkpt>
      <trkpt lat="49.8038" lon="4.82157">
        <ele>295</ele>
        <time>2021-07-31T07:33:09.000Z</time>
      </trkpt>
      <trkpt lat="49.80383" lon="4.82161">
        <ele>295</ele>
        <time>2021-07-31T07:33:10.000Z</time>
      </trkpt>
      <trkpt lat="49.80387" lon="4.82165">
        <ele>295</ele>
        <time>2021-07-31T07:33:11.000Z</time>
      </trkpt>
      <trkpt lat="49.80391" lon="4.82168">
        <ele>295</ele>
        <time>2021-07-31T07:33:12.000Z</time>
      </trkpt>
      <trkpt lat="49.80395" lon="4.82171">
        <ele>295</ele>
        <time>2021-07-31T07:33:13.000Z</time>
      </trkpt>
      <trkpt lat="49.80399" lon="4.82175">
        <ele>295</ele>
        <time>2021-07-31T07:33:14.000Z</time>
      </trkpt>
      <trkpt lat="49.80403" lon="4.8218">
        <ele>295</ele>
        <time>2021-07-31T07:33:15.000Z</time>
      </trkpt>
      <trkpt lat="49.80407" lon="4.82184">
        <ele>294</ele>
        <time>2021-07-31T07:33:16.000Z</time>
      </trkpt>
      <trkpt lat="49.80411" lon="4.82189">
        <ele>294</ele>
        <time>2021-07-31T07:33:17.000Z</time>
      </trkpt>
      <trkpt lat="49.80415" lon="4.82193">
        <ele>294</ele>
        <time>2021-07-31T07:33:18.000Z</time>
      </trkpt>
      <trkpt lat="49.80419" lon="4.82198">
        <ele>294</ele>
        <time>2021-07-31T07:33:19.000Z</time>
      </trkpt>
      <trkpt lat="49.80424" lon="4.82201">
        <ele>294</ele>
        <time>2021-07-31T07:33:20.000Z</time>
      </trkpt>
      <trkpt lat="49.80428" lon="4.82205">
        <ele>294</ele>
        <time>2021-07-31T07:33:21.000Z</time>
      </trkpt>
      <trkpt lat="49.80432" lon="4.82209">
        <ele>294</ele>
        <time>2021-07-31T07:33:22.000Z</time>
      </trkpt>
      <trkpt lat="49.80436" lon="4.82213">
        <ele>294</ele>
        <time>2021-07-31T07:33:23.000Z</time>
      </trkpt>
      <trkpt lat="49.8044" lon="4.82217">
        <ele>294</ele>
        <time>2021-07-31T07:33:24.000Z</time>
      </trkpt>
      <trkpt lat="49.80444" lon="4.82222">
        <ele>294</ele>
        <time>2021-07-31T07:33:25.000Z</time>
      </trkpt>
      <trkpt lat="49.80448" lon="4.82227">
        <ele>294</ele>
        <time>2021-07-31T07:33:26.000Z</time>
      </trkpt>
      <trkpt lat="49.80452" lon="4.82232">
        <ele>293</ele>
        <time>2021-07-31T07:33:27.000Z</time>
      </trkpt>
      <trkpt lat="49.80456" lon="4.82237">
        <ele>293</ele>
        <time>2021-07-31T07:33:28.000Z</time>
      </trkpt>
      <trkpt lat="49.80461" lon="4.82241">
        <ele>293</ele>
        <time>2021-07-31T07:33:29.000Z</time>
      </trkpt>
      <trkpt lat="49.80465" lon="4.82245">
        <ele>293</ele>
        <time>2021-07-31T07:33:30.000Z</time>
      </trkpt>
      <trkpt lat="49.80471" lon="4.82248">
        <ele>293</ele>
        <time>2021-07-31T07:33:31.000Z</time>
      </trkpt>
      <trkpt lat="49.80476" lon="4.82251">
        <ele>292</ele>
        <time>2021-07-31T07:33:32.000Z</time>
      </trkpt>
      <trkpt lat="49.80481" lon="4.82253">
        <ele>292</ele>
        <time>2021-07-31T07:33:33.000Z</time>
      </trkpt>
      <trkpt lat="49.80487" lon="4.82257">
        <ele>292</ele>
        <time>2021-07-31T07:33:34.000Z</time>
      </trkpt>
      <trkpt lat="49.80493" lon="4.82262">
        <ele>291</ele>
        <time>2021-07-31T07:33:35.000Z</time>
      </trkpt>
      <trkpt lat="49.80498" lon="4.82267">
        <ele>291</ele>
        <time>2021-07-31T07:33:36.000Z</time>
      </trkpt>
      <trkpt lat="49.80503" lon="4.82272">
        <ele>291</ele>
        <time>2021-07-31T07:33:37.000Z</time>
      </trkpt>
      <trkpt lat="49.80508" lon="4.82276">
        <ele>291</ele>
        <time>2021-07-31T07:33:38.000Z</time>
      </trkpt>
      <trkpt lat="49.80513" lon="4.8228">
        <ele>290</ele>
        <time>2021-07-31T07:33:39.000Z</time>
      </trkpt>
      <trkpt lat="49.80517" lon="4.82285">
        <ele>290</ele>
        <time>2021-07-31T07:33:40.000Z</time>
      </trkpt>
      <trkpt lat="49.80522" lon="4.82288">
        <ele>290</ele>
        <time>2021-07-31T07:33:41.000Z</time>
      </trkpt>
      <trkpt lat="49.80528" lon="4.82292">
        <ele>289</ele>
        <time>2021-07-31T07:33:42.000Z</time>
      </trkpt>
      <trkpt lat="49.80533" lon="4.82295">
        <ele>289</ele>
        <time>2021-07-31T07:33:43.000Z</time>
      </trkpt>
      <trkpt lat="49.80538" lon="4.82299">
        <ele>289</ele>
        <time>2021-07-31T07:33:44.000Z</time>
      </trkpt>
      <trkpt lat="49.80543" lon="4.82302">
        <ele>289</ele>
        <time>2021-07-31T07:33:45.000Z</time>
      </trkpt>
      <trkpt lat="49.80547" lon="4.82305">
        <ele>288</ele>
        <time>2021-07-31T07:33:46.000Z</time>
      </trkpt>
      <trkpt lat="49.8055" lon="4.82307">
        <ele>288</ele>
        <time>2021-07-31T07:33:47.000Z</time>
      </trkpt>
      <trkpt lat="49.80554" lon="4.8231">
        <ele>288</ele>
        <time>2021-07-31T07:33:48.000Z</time>
      </trkpt>
      <trkpt lat="49.80558" lon="4.82313">
        <ele>288</ele>
        <time>2021-07-31T07:33:49.000Z</time>
      </trkpt>
      <trkpt lat="49.80562" lon="4.82315">
        <ele>288</ele>
        <time>2021-07-31T07:33:50.000Z</time>
      </trkpt>
      <trkpt lat="49.80566" lon="4.82318">
        <ele>287</ele>
        <time>2021-07-31T07:33:51.000Z</time>
      </trkpt>
      <trkpt lat="49.80571" lon="4.82321">
        <ele>287</ele>
        <time>2021-07-31T07:33:52.000Z</time>
      </trkpt>
      <trkpt lat="49.80575" lon="4.82324">
        <ele>287</ele>
        <time>2021-07-31T07:33:53.000Z</time>
      </trkpt>
      <trkpt lat="49.8058" lon="4.82328">
        <ele>287</ele>
        <time>2021-07-31T07:33:54.000Z</time>
      </trkpt>
      <trkpt lat="49.80584" lon="4.82331">
        <ele>287</ele>
        <time>2021-07-31T07:33:55.000Z</time>
      </trkpt>
      <trkpt lat="49.80588" lon="4.82335">
        <ele>287</ele>
        <time>2021-07-31T07:33:56.000Z</time>
      </trkpt>
      <trkpt lat="49.80593" lon="4.8234">
        <ele>286</ele>
        <time>2021-07-31T07:33:57.000Z</time>
      </trkpt>
      <trkpt lat="49.80596" lon="4.82343">
        <ele>286</ele>
        <time>2021-07-31T07:33:58.000Z</time>
      </trkpt>
      <trkpt lat="49.806" lon="4.82347">
        <ele>286</ele>
        <time>2021-07-31T07:33:59.000Z</time>
      </trkpt>
      <trkpt lat="49.80604" lon="4.82352">
        <ele>286</ele>
        <time>2021-07-31T07:34:00.000Z</time>
      </trkpt>
      <trkpt lat="49.80607" lon="4.82356">
        <ele>286</ele>
        <time>2021-07-31T07:34:01.000Z</time>
      </trkpt>
      <trkpt lat="49.80612" lon="4.8236">
        <ele>286</ele>
        <time>2021-07-31T07:34:02.000Z</time>
      </trkpt>
      <trkpt lat="49.80616" lon="4.82364">
        <ele>285</ele>
        <time>2021-07-31T07:34:03.000Z</time>
      </trkpt>
      <trkpt lat="49.80621" lon="4.82367">
        <ele>285</ele>
        <time>2021-07-31T07:34:04.000Z</time>
      </trkpt>
      <trkpt lat="49.80625" lon="4.8237">
        <ele>285</ele>
        <time>2021-07-31T07:34:05.000Z</time>
      </trkpt>
      <trkpt lat="49.8063" lon="4.82374">
        <ele>285</ele>
        <time>2021-07-31T07:34:06.000Z</time>
      </trkpt>
      <trkpt lat="49.80634" lon="4.82378">
        <ele>284</ele>
        <time>2021-07-31T07:34:07.000Z</time>
      </trkpt>
      <trkpt lat="49.80637" lon="4.82383">
        <ele>284</ele>
        <time>2021-07-31T07:34:08.000Z</time>
      </trkpt>
      <trkpt lat="49.80639" lon="4.82388">
        <ele>284</ele>
        <time>2021-07-31T07:34:09.000Z</time>
      </trkpt>
      <trkpt lat="49.80641" lon="4.82392">
        <ele>284</ele>
        <time>2021-07-31T07:34:10.000Z</time>
      </trkpt>
      <trkpt lat="49.80644" lon="4.82396">
        <ele>284</ele>
        <time>2021-07-31T07:34:11.000Z</time>
      </trkpt>
      <trkpt lat="49.80648" lon="4.82398">
        <ele>283</ele>
        <time>2021-07-31T07:34:12.000Z</time>
      </trkpt>
      <trkpt lat="49.80653" lon="4.82401">
        <ele>283</ele>
        <time>2021-07-31T07:34:13.000Z</time>
      </trkpt>
      <trkpt lat="49.80657" lon="4.82403">
        <ele>283</ele>
        <time>2021-07-31T07:34:14.000Z</time>
      </trkpt>
      <trkpt lat="49.80661" lon="4.82406">
        <ele>283</ele>
        <time>2021-07-31T07:34:15.000Z</time>
      </trkpt>
      <trkpt lat="49.80664" lon="4.82409">
        <ele>283</ele>
        <time>2021-07-31T07:34:16.000Z</time>
      </trkpt>
      <trkpt lat="49.80668" lon="4.82411">
        <ele>283</ele>
        <time>2021-07-31T07:34:17.000Z</time>
      </trkpt>
      <trkpt lat="49.80673" lon="4.82413">
        <ele>283</ele>
        <time>2021-07-31T07:34:18.000Z</time>
      </trkpt>
      <trkpt lat="49.80677" lon="4.82415">
        <ele>283</ele>
        <time>2021-07-31T07:34:19.000Z</time>
      </trkpt>
      <trkpt lat="49.80682" lon="4.82416">
        <ele>283</ele>
        <time>2021-07-31T07:34:20.000Z</time>
      </trkpt>
      <trkpt lat="49.80687" lon="4.82418">
        <ele>283</ele>
        <time>2021-07-31T07:34:21.000Z</time>
      </trkpt>
      <trkpt lat="49.80691" lon="4.8242">
        <ele>283</ele>
        <time>2021-07-31T07:34:22.000Z</time>
      </trkpt>
      <trkpt lat="49.80696" lon="4.82421">
        <ele>283</ele>
        <time>2021-07-31T07:34:23.000Z</time>
      </trkpt>
      <trkpt lat="49.80701" lon="4.82423">
        <ele>283</ele>
        <time>2021-07-31T07:34:24.000Z</time>
      </trkpt>
      <trkpt lat="49.80705" lon="4.82424">
        <ele>283</ele>
        <time>2021-07-31T07:34:25.000Z</time>
      </trkpt>
      <trkpt lat="49.80709" lon="4.82425">
        <ele>283</ele>
        <time>2021-07-31T07:34:26.000Z</time>
      </trkpt>
      <trkpt lat="49.80714" lon="4.82427">
        <ele>283</ele>
        <time>2021-07-31T07:34:27.000Z</time>
      </trkpt>
      <trkpt lat="49.80718" lon="4.82428">
        <ele>283</ele>
        <time>2021-07-31T07:34:28.000Z</time>
      </trkpt>
      <trkpt lat="49.80723" lon="4.8243">
        <ele>283</ele>
        <time>2021-07-31T07:34:29.000Z</time>
      </trkpt>
      <trkpt lat="49.80728" lon="4.82432">
        <ele>284</ele>
        <time>2021-07-31T07:34:30.000Z</time>
      </trkpt>
      <trkpt lat="49.80733" lon="4.82433">
        <ele>284</ele>
        <time>2021-07-31T07:34:31.000Z</time>
      </trkpt>
      <trkpt lat="49.80737" lon="4.82434">
        <ele>284</ele>
        <time>2021-07-31T07:34:32.000Z</time>
      </trkpt>
      <trkpt lat="49.80742" lon="4.82435">
        <ele>284</ele>
        <time>2021-07-31T07:34:33.000Z</time>
      </trkpt>
      <trkpt lat="49.80747" lon="4.82437">
        <ele>284</ele>
        <time>2021-07-31T07:34:34.000Z</time>
      </trkpt>
      <trkpt lat="49.80753" lon="4.82438">
        <ele>284</ele>
        <time>2021-07-31T07:34:35.000Z</time>
      </trkpt>
      <trkpt lat="49.80757" lon="4.82439">
        <ele>284</ele>
        <time>2021-07-31T07:34:36.000Z</time>
      </trkpt>
      <trkpt lat="49.8076" lon="4.82443">
        <ele>284</ele>
        <time>2021-07-31T07:34:37.000Z</time>
      </trkpt>
      <trkpt lat="49.80763" lon="4.82447">
        <ele>284</ele>
        <time>2021-07-31T07:34:38.000Z</time>
      </trkpt>
      <trkpt lat="49.80766" lon="4.82451">
        <ele>284</ele>
        <time>2021-07-31T07:34:39.000Z</time>
      </trkpt>
      <trkpt lat="49.80769" lon="4.82455">
        <ele>284</ele>
        <time>2021-07-31T07:34:40.000Z</time>
      </trkpt>
      <trkpt lat="49.80773" lon="4.82458">
        <ele>283</ele>
        <time>2021-07-31T07:34:41.000Z</time>
      </trkpt>
      <trkpt lat="49.80778" lon="4.8246">
        <ele>283</ele>
        <time>2021-07-31T07:34:42.000Z</time>
      </trkpt>
      <trkpt lat="49.80783" lon="4.82462">
        <ele>283</ele>
        <time>2021-07-31T07:34:43.000Z</time>
      </trkpt>
      <trkpt lat="49.80788" lon="4.82463">
        <ele>283</ele>
        <time>2021-07-31T07:34:44.000Z</time>
      </trkpt>
      <trkpt lat="49.80794" lon="4.82464">
        <ele>283</ele>
        <time>2021-07-31T07:34:45.000Z</time>
      </trkpt>
      <trkpt lat="49.80802" lon="4.82466">
        <ele>283</ele>
        <time>2021-07-31T07:34:46.000Z</time>
      </trkpt>
      <trkpt lat="49.80809" lon="4.82467">
        <ele>283</ele>
        <time>2021-07-31T07:34:47.000Z</time>
      </trkpt>
      <trkpt lat="49.80816" lon="4.82468">
        <ele>282</ele>
        <time>2021-07-31T07:34:48.000Z</time>
      </trkpt>
      <trkpt lat="49.80823" lon="4.82469">
        <ele>282</ele>
        <time>2021-07-31T07:34:49.000Z</time>
      </trkpt>
      <trkpt lat="49.80831" lon="4.82471">
        <ele>282</ele>
        <time>2021-07-31T07:34:50.000Z</time>
      </trkpt>
      <trkpt lat="49.8084" lon="4.82473">
        <ele>281</ele>
        <time>2021-07-31T07:34:51.000Z</time>
      </trkpt>
      <trkpt lat="49.80848" lon="4.82475">
        <ele>281</ele>
        <time>2021-07-31T07:34:52.000Z</time>
      </trkpt>
      <trkpt lat="49.80856" lon="4.82477">
        <ele>280</ele>
        <time>2021-07-31T07:34:53.000Z</time>
      </trkpt>
      <trkpt lat="49.80865" lon="4.82479">
        <ele>280</ele>
        <time>2021-07-31T07:34:54.000Z</time>
      </trkpt>
      <trkpt lat="49.80874" lon="4.82481">
        <ele>279</ele>
        <time>2021-07-31T07:34:55.000Z</time>
      </trkpt>
      <trkpt lat="49.80884" lon="4.82483">
        <ele>279</ele>
        <time>2021-07-31T07:34:56.000Z</time>
      </trkpt>
      <trkpt lat="49.80894" lon="4.82486">
        <ele>278</ele>
        <time>2021-07-31T07:34:57.000Z</time>
      </trkpt>
      <trkpt lat="49.80904" lon="4.82488">
        <ele>277</ele>
        <time>2021-07-31T07:34:58.000Z</time>
      </trkpt>
      <trkpt lat="49.80914" lon="4.82489">
        <ele>276</ele>
        <time>2021-07-31T07:34:59.000Z</time>
      </trkpt>
      <trkpt lat="49.80924" lon="4.82491">
        <ele>276</ele>
        <time>2021-07-31T07:35:00.000Z</time>
      </trkpt>
      <trkpt lat="49.80934" lon="4.82493">
        <ele>275</ele>
        <time>2021-07-31T07:35:01.000Z</time>
      </trkpt>
      <trkpt lat="49.80944" lon="4.82494">
        <ele>274</ele>
        <time>2021-07-31T07:35:02.000Z</time>
      </trkpt>
      <trkpt lat="49.80953" lon="4.82495">
        <ele>273</ele>
        <time>2021-07-31T07:35:03.000Z</time>
      </trkpt>
      <trkpt lat="49.80963" lon="4.82497">
        <ele>272</ele>
        <time>2021-07-31T07:35:04.000Z</time>
      </trkpt>
      <trkpt lat="49.80973" lon="4.825">
        <ele>272</ele>
        <time>2021-07-31T07:35:05.000Z</time>
      </trkpt>
      <trkpt lat="49.80983" lon="4.82503">
        <ele>271</ele>
        <time>2021-07-31T07:35:06.000Z</time>
      </trkpt>
      <trkpt lat="49.80992" lon="4.82506">
        <ele>270</ele>
        <time>2021-07-31T07:35:07.000Z</time>
      </trkpt>
      <trkpt lat="49.81001" lon="4.82508">
        <ele>269</ele>
        <time>2021-07-31T07:35:08.000Z</time>
      </trkpt>
      <trkpt lat="49.81011" lon="4.8251">
        <ele>268</ele>
        <time>2021-07-31T07:35:09.000Z</time>
      </trkpt>
      <trkpt lat="49.8102" lon="4.82512">
        <ele>267</ele>
        <time>2021-07-31T07:35:10.000Z</time>
      </trkpt>
      <trkpt lat="49.81029" lon="4.82514">
        <ele>266</ele>
        <time>2021-07-31T07:35:11.000Z</time>
      </trkpt>
      <trkpt lat="49.81038" lon="4.82516">
        <ele>265</ele>
        <time>2021-07-31T07:35:12.000Z</time>
      </trkpt>
      <trkpt lat="49.81047" lon="4.82518">
        <ele>264</ele>
        <time>2021-07-31T07:35:13.000Z</time>
      </trkpt>
      <trkpt lat="49.81055" lon="4.8252">
        <ele>263</ele>
        <time>2021-07-31T07:35:14.000Z</time>
      </trkpt>
      <trkpt lat="49.81063" lon="4.82522">
        <ele>262</ele>
        <time>2021-07-31T07:35:15.000Z</time>
      </trkpt>
      <trkpt lat="49.81072" lon="4.82523">
        <ele>261</ele>
        <time>2021-07-31T07:35:16.000Z</time>
      </trkpt>
      <trkpt lat="49.81081" lon="4.82525">
        <ele>261</ele>
        <time>2021-07-31T07:35:17.000Z</time>
      </trkpt>
      <trkpt lat="49.8109" lon="4.82527">
        <ele>260</ele>
        <time>2021-07-31T07:35:18.000Z</time>
      </trkpt>
      <trkpt lat="49.81098" lon="4.82529">
        <ele>259</ele>
        <time>2021-07-31T07:35:19.000Z</time>
      </trkpt>
      <trkpt lat="49.81106" lon="4.82531">
        <ele>259</ele>
        <time>2021-07-31T07:35:20.000Z</time>
      </trkpt>
      <trkpt lat="49.81114" lon="4.82532">
        <ele>258</ele>
        <time>2021-07-31T07:35:21.000Z</time>
      </trkpt>
      <trkpt lat="49.81121" lon="4.82534">
        <ele>258</ele>
        <time>2021-07-31T07:35:22.000Z</time>
      </trkpt>
      <trkpt lat="49.81129" lon="4.82536">
        <ele>257</ele>
        <time>2021-07-31T07:35:23.000Z</time>
      </trkpt>
      <trkpt lat="49.81136" lon="4.82537">
        <ele>257</ele>
        <time>2021-07-31T07:35:24.000Z</time>
      </trkpt>
      <trkpt lat="49.81143" lon="4.82538">
        <ele>257</ele>
        <time>2021-07-31T07:35:25.000Z</time>
      </trkpt>
      <trkpt lat="49.8115" lon="4.82539">
        <ele>256</ele>
        <time>2021-07-31T07:35:26.000Z</time>
      </trkpt>
      <trkpt lat="49.81158" lon="4.8254">
        <ele>256</ele>
        <time>2021-07-31T07:35:27.000Z</time>
      </trkpt>
      <trkpt lat="49.81166" lon="4.82542">
        <ele>256</ele>
        <time>2021-07-31T07:35:28.000Z</time>
      </trkpt>
      <trkpt lat="49.81174" lon="4.82543">
        <ele>255</ele>
        <time>2021-07-31T07:35:29.000Z</time>
      </trkpt>
      <trkpt lat="49.81181" lon="4.82544">
        <ele>255</ele>
        <time>2021-07-31T07:35:30.000Z</time>
      </trkpt>
      <trkpt lat="49.81188" lon="4.82545">
        <ele>255</ele>
        <time>2021-07-31T07:35:31.000Z</time>
      </trkpt>
      <trkpt lat="49.81196" lon="4.82547">
        <ele>255</ele>
        <time>2021-07-31T07:35:32.000Z</time>
      </trkpt>
      <trkpt lat="49.81204" lon="4.82548">
        <ele>255</ele>
        <time>2021-07-31T07:35:33.000Z</time>
      </trkpt>
      <trkpt lat="49.81212" lon="4.8255">
        <ele>255</ele>
        <time>2021-07-31T07:35:34.000Z</time>
      </trkpt>
      <trkpt lat="49.8122" lon="4.82552">
        <ele>255</ele>
        <time>2021-07-31T07:35:35.000Z</time>
      </trkpt>
      <trkpt lat="49.81228" lon="4.82554">
        <ele>255</ele>
        <time>2021-07-31T07:35:36.000Z</time>
      </trkpt>
      <trkpt lat="49.81236" lon="4.82556">
        <ele>255</ele>
        <time>2021-07-31T07:35:37.000Z</time>
      </trkpt>
      <trkpt lat="49.81244" lon="4.82558">
        <ele>255</ele>
        <time>2021-07-31T07:35:38.000Z</time>
      </trkpt>
      <trkpt lat="49.81251" lon="4.82559">
        <ele>255</ele>
        <time>2021-07-31T07:35:39.000Z</time>
      </trkpt>
      <trkpt lat="49.81259" lon="4.82561">
        <ele>255</ele>
        <time>2021-07-31T07:35:40.000Z</time>
      </trkpt>
      <trkpt lat="49.81266" lon="4.82563">
        <ele>255</ele>
        <time>2021-07-31T07:35:41.000Z</time>
      </trkpt>
      <trkpt lat="49.81274" lon="4.82566">
        <ele>254</ele>
        <time>2021-07-31T07:35:42.000Z</time>
      </trkpt>
      <trkpt lat="49.81282" lon="4.82568">
        <ele>254</ele>
        <time>2021-07-31T07:35:43.000Z</time>
      </trkpt>
      <trkpt lat="49.81289" lon="4.82569">
        <ele>254</ele>
        <time>2021-07-31T07:35:44.000Z</time>
      </trkpt>
      <trkpt lat="49.81296" lon="4.82572">
        <ele>254</ele>
        <time>2021-07-31T07:35:45.000Z</time>
      </trkpt>
      <trkpt lat="49.81303" lon="4.82575">
        <ele>254</ele>
        <time>2021-07-31T07:35:46.000Z</time>
      </trkpt>
      <trkpt lat="49.81309" lon="4.82577">
        <ele>253</ele>
        <time>2021-07-31T07:35:47.000Z</time>
      </trkpt>
      <trkpt lat="49.81316" lon="4.82579">
        <ele>253</ele>
        <time>2021-07-31T07:35:48.000Z</time>
      </trkpt>
      <trkpt lat="49.81323" lon="4.82581">
        <ele>253</ele>
        <time>2021-07-31T07:35:49.000Z</time>
      </trkpt>
      <trkpt lat="49.81328" lon="4.82582">
        <ele>253</ele>
        <time>2021-07-31T07:35:50.000Z</time>
      </trkpt>
      <trkpt lat="49.81334" lon="4.82582">
        <ele>252</ele>
        <time>2021-07-31T07:35:51.000Z</time>
      </trkpt>
      <trkpt lat="49.81338" lon="4.8258">
        <ele>252</ele>
        <time>2021-07-31T07:35:52.000Z</time>
      </trkpt>
      <trkpt lat="49.81341" lon="4.82577">
        <ele>252</ele>
        <time>2021-07-31T07:35:53.000Z</time>
      </trkpt>
      <trkpt lat="49.81342" lon="4.82573">
        <ele>252</ele>
        <time>2021-07-31T07:35:54.000Z</time>
      </trkpt>
      <trkpt lat="49.81343" lon="4.8257">
        <ele>252</ele>
        <time>2021-07-31T07:35:55.000Z</time>
      </trkpt>
      <trkpt lat="49.81343" lon="4.82567">
        <ele>252</ele>
        <time>2021-07-31T07:35:56.000Z</time>
      </trkpt>
      <trkpt lat="49.81343" lon="4.82563">
        <ele>252</ele>
        <time>2021-07-31T07:35:57.000Z</time>
      </trkpt>
      <trkpt lat="49.81345" lon="4.82558">
        <ele>252</ele>
        <time>2021-07-31T07:35:58.000Z</time>
      </trkpt>
      <trkpt lat="49.81346" lon="4.82555">
        <ele>252</ele>
        <time>2021-07-31T07:35:59.000Z</time>
      </trkpt>
      <trkpt lat="49.81348" lon="4.82553">
        <ele>252</ele>
        <time>2021-07-31T07:36:00.000Z</time>
      </trkpt>
      <trkpt lat="49.81349" lon="4.82551">
        <ele>251</ele>
        <time>2021-07-31T07:36:01.000Z</time>
      </trkpt>
      <trkpt lat="49.81351" lon="4.82551">
        <ele>251</ele>
        <time>2021-07-31T07:36:02.000Z</time>
      </trkpt>
      <trkpt lat="49.81354" lon="4.82551">
        <ele>251</ele>
        <time>2021-07-31T07:36:03.000Z</time>
      </trkpt>
      <trkpt lat="49.81357" lon="4.82552">
        <ele>251</ele>
        <time>2021-07-31T07:36:04.000Z</time>
      </trkpt>
      <trkpt lat="49.81361" lon="4.82554">
        <ele>251</ele>
        <time>2021-07-31T07:36:05.000Z</time>
      </trkpt>
      <trkpt lat="49.81365" lon="4.82555">
        <ele>251</ele>
        <time>2021-07-31T07:36:06.000Z</time>
      </trkpt>
      <trkpt lat="49.81368" lon="4.82556">
        <ele>251</ele>
        <time>2021-07-31T07:36:07.000Z</time>
      </trkpt>
      <trkpt lat="49.81373" lon="4.82558">
        <ele>250</ele>
        <time>2021-07-31T07:36:08.000Z</time>
      </trkpt>
      <trkpt lat="49.81377" lon="4.8256">
        <ele>250</ele>
        <time>2021-07-31T07:36:09.000Z</time>
      </trkpt>
      <trkpt lat="49.81381" lon="4.82562">
        <ele>250</ele>
        <time>2021-07-31T07:36:10.000Z</time>
      </trkpt>
      <trkpt lat="49.81386" lon="4.82564">
        <ele>250</ele>
        <time>2021-07-31T07:36:11.000Z</time>
      </trkpt>
      <trkpt lat="49.81391" lon="4.82567">
        <ele>250</ele>
        <time>2021-07-31T07:36:12.000Z</time>
      </trkpt>
      <trkpt lat="49.81397" lon="4.8257">
        <ele>250</ele>
        <time>2021-07-31T07:36:13.000Z</time>
      </trkpt>
      <trkpt lat="49.81404" lon="4.82573">
        <ele>249</ele>
        <time>2021-07-31T07:36:14.000Z</time>
      </trkpt>
      <trkpt lat="49.81411" lon="4.82577">
        <ele>249</ele>
        <time>2021-07-31T07:36:15.000Z</time>
      </trkpt>
      <trkpt lat="49.81417" lon="4.82581">
        <ele>249</ele>
        <time>2021-07-31T07:36:16.000Z</time>
      </trkpt>
      <trkpt lat="49.81424" lon="4.82583">
        <ele>248</ele>
        <time>2021-07-31T07:36:17.000Z</time>
      </trkpt>
      <trkpt lat="49.81431" lon="4.82586">
        <ele>248</ele>
        <time>2021-07-31T07:36:18.000Z</time>
      </trkpt>
      <trkpt lat="49.81438" lon="4.82589">
        <ele>248</ele>
        <time>2021-07-31T07:36:19.000Z</time>
      </trkpt>
      <trkpt lat="49.81444" lon="4.82592">
        <ele>247</ele>
        <time>2021-07-31T07:36:20.000Z</time>
      </trkpt>
      <trkpt lat="49.81452" lon="4.82595">
        <ele>247</ele>
        <time>2021-07-31T07:36:21.000Z</time>
      </trkpt>
      <trkpt lat="49.81458" lon="4.82598">
        <ele>247</ele>
        <time>2021-07-31T07:36:22.000Z</time>
      </trkpt>
      <trkpt lat="49.81464" lon="4.826">
        <ele>246</ele>
        <time>2021-07-31T07:36:23.000Z</time>
      </trkpt>
      <trkpt lat="49.8147" lon="4.82604">
        <ele>246</ele>
        <time>2021-07-31T07:36:24.000Z</time>
      </trkpt>
      <trkpt lat="49.81475" lon="4.82607">
        <ele>246</ele>
        <time>2021-07-31T07:36:25.000Z</time>
      </trkpt>
      <trkpt lat="49.81479" lon="4.8261">
        <ele>245</ele>
        <time>2021-07-31T07:36:26.000Z</time>
      </trkpt>
      <trkpt lat="49.81482" lon="4.82612">
        <ele>245</ele>
        <time>2021-07-31T07:36:27.000Z</time>
      </trkpt>
      <trkpt lat="49.81485" lon="4.82612">
        <ele>244</ele>
        <time>2021-07-31T07:36:28.000Z</time>
      </trkpt>
      <trkpt lat="49.81488" lon="4.82613">
        <ele>244</ele>
        <time>2021-07-31T07:36:29.000Z</time>
      </trkpt>
      <trkpt lat="49.8149" lon="4.82614">
        <ele>244</ele>
        <time>2021-07-31T07:36:30.000Z</time>
      </trkpt>
      <trkpt lat="49.81492" lon="4.82615">
        <ele>243</ele>
        <time>2021-07-31T07:36:31.000Z</time>
      </trkpt>
      <trkpt lat="49.81496" lon="4.82616">
        <ele>243</ele>
        <time>2021-07-31T07:36:32.000Z</time>
      </trkpt>
      <trkpt lat="49.81501" lon="4.82616">
        <ele>243</ele>
        <time>2021-07-31T07:36:33.000Z</time>
      </trkpt>
      <trkpt lat="49.81506" lon="4.82618">
        <ele>242</ele>
        <time>2021-07-31T07:36:34.000Z</time>
      </trkpt>
      <trkpt lat="49.81512" lon="4.82619">
        <ele>242</ele>
        <time>2021-07-31T07:36:35.000Z</time>
      </trkpt>
      <trkpt lat="49.81518" lon="4.8262">
        <ele>242</ele>
        <time>2021-07-31T07:36:36.000Z</time>
      </trkpt>
      <trkpt lat="49.81524" lon="4.82621">
        <ele>241</ele>
        <time>2021-07-31T07:36:37.000Z</time>
      </trkpt>
      <trkpt lat="49.8153" lon="4.82623">
        <ele>241</ele>
        <time>2021-07-31T07:36:38.000Z</time>
      </trkpt>
      <trkpt lat="49.81536" lon="4.82625">
        <ele>240</ele>
        <time>2021-07-31T07:36:39.000Z</time>
      </trkpt>
      <trkpt lat="49.81543" lon="4.82626">
        <ele>240</ele>
        <time>2021-07-31T07:36:40.000Z</time>
      </trkpt>
      <trkpt lat="49.8155" lon="4.82628">
        <ele>239</ele>
        <time>2021-07-31T07:36:41.000Z</time>
      </trkpt>
      <trkpt lat="49.81557" lon="4.82628">
        <ele>239</ele>
        <time>2021-07-31T07:36:42.000Z</time>
      </trkpt>
      <trkpt lat="49.81564" lon="4.8263">
        <ele>238</ele>
        <time>2021-07-31T07:36:43.000Z</time>
      </trkpt>
      <trkpt lat="49.8157" lon="4.82631">
        <ele>238</ele>
        <time>2021-07-31T07:36:44.000Z</time>
      </trkpt>
      <trkpt lat="49.81575" lon="4.82632">
        <ele>237</ele>
        <time>2021-07-31T07:36:45.000Z</time>
      </trkpt>
      <trkpt lat="49.81578" lon="4.82632">
        <ele>237</ele>
        <time>2021-07-31T07:36:46.000Z</time>
      </trkpt>
      <trkpt lat="49.81579" lon="4.82631">
        <ele>236</ele>
        <time>2021-07-31T07:36:47.000Z</time>
      </trkpt>
      <trkpt lat="49.8158" lon="4.8263">
        <ele>236</ele>
        <time>2021-07-31T07:36:48.000Z</time>
      </trkpt>
      <trkpt lat="49.81581" lon="4.82628">
        <ele>236</ele>
        <time>2021-07-31T07:36:49.000Z</time>
      </trkpt>
      <trkpt lat="49.81583" lon="4.82626">
        <ele>236</ele>
        <time>2021-07-31T07:36:50.000Z</time>
      </trkpt>
      <trkpt lat="49.81584" lon="4.82623">
        <ele>235</ele>
        <time>2021-07-31T07:36:51.000Z</time>
      </trkpt>
      <trkpt lat="49.81584" lon="4.82622">
        <ele>235</ele>
        <time>2021-07-31T07:36:52.000Z</time>
      </trkpt>
      <trkpt lat="49.81585" lon="4.82621">
        <ele>234</ele>
        <time>2021-07-31T07:36:53.000Z</time>
      </trkpt>
      <trkpt lat="49.81586" lon="4.82619">
        <ele>234</ele>
        <time>2021-07-31T07:36:54.000Z</time>
      </trkpt>
      <trkpt lat="49.81586" lon="4.82618">
        <ele>233</ele>
        <time>2021-07-31T07:36:55.000Z</time>
      </trkpt>
      <trkpt lat="49.81586" lon="4.82616">
        <ele>233</ele>
        <time>2021-07-31T07:36:56.000Z</time>
      </trkpt>
      <trkpt lat="49.81586" lon="4.82613">
        <ele>233</ele>
        <time>2021-07-31T07:36:57.000Z</time>
      </trkpt>
      <trkpt lat="49.81586" lon="4.8261">
        <ele>232</ele>
        <time>2021-07-31T07:36:58.000Z</time>
      </trkpt>
      <trkpt lat="49.81587" lon="4.82606">
        <ele>232</ele>
        <time>2021-07-31T07:36:59.000Z</time>
      </trkpt>
      <trkpt lat="49.81589" lon="4.82604">
        <ele>232</ele>
        <time>2021-07-31T07:37:00.000Z</time>
      </trkpt>
      <trkpt lat="49.8159" lon="4.82604">
        <ele>231</ele>
        <time>2021-07-31T07:37:01.000Z</time>
      </trkpt>
      <trkpt lat="49.81592" lon="4.82604">
        <ele>231</ele>
        <time>2021-07-31T07:37:02.000Z</time>
      </trkpt>
      <trkpt lat="49.81592" lon="4.82604">
        <ele>231</ele>
        <time>2021-07-31T07:37:03.000Z</time>
      </trkpt>
      <trkpt lat="49.81593" lon="4.82606">
        <ele>230</ele>
        <time>2021-07-31T07:37:04.000Z</time>
      </trkpt>
      <trkpt lat="49.81594" lon="4.82608">
        <ele>230</ele>
        <time>2021-07-31T07:37:05.000Z</time>
      </trkpt>
      <trkpt lat="49.81595" lon="4.82612">
        <ele>230</ele>
        <time>2021-07-31T07:37:06.000Z</time>
      </trkpt>
      <trkpt lat="49.81597" lon="4.82614">
        <ele>229</ele>
        <time>2021-07-31T07:37:07.000Z</time>
      </trkpt>
      <trkpt lat="49.81598" lon="4.82616">
        <ele>229</ele>
        <time>2021-07-31T07:37:08.000Z</time>
      </trkpt>
      <trkpt lat="49.816" lon="4.82618">
        <ele>229</ele>
        <time>2021-07-31T07:37:09.000Z</time>
      </trkpt>
      <trkpt lat="49.81602" lon="4.8262">
        <ele>228</ele>
        <time>2021-07-31T07:37:10.000Z</time>
      </trkpt>
      <trkpt lat="49.81604" lon="4.82618">
        <ele>228</ele>
        <time>2021-07-31T07:37:11.000Z</time>
      </trkpt>
      <trkpt lat="49.81606" lon="4.82615">
        <ele>227</ele>
        <time>2021-07-31T07:37:12.000Z</time>
      </trkpt>
      <trkpt lat="49.81608" lon="4.8261">
        <ele>227</ele>
        <time>2021-07-31T07:37:13.000Z</time>
      </trkpt>
      <trkpt lat="49.8161" lon="4.82606">
        <ele>227</ele>
        <time>2021-07-31T07:37:14.000Z</time>
      </trkpt>
      <trkpt lat="49.81611" lon="4.82601">
        <ele>226</ele>
        <time>2021-07-31T07:37:15.000Z</time>
      </trkpt>
      <trkpt lat="49.81613" lon="4.82595">
        <ele>226</ele>
        <time>2021-07-31T07:37:16.000Z</time>
      </trkpt>
      <trkpt lat="49.81614" lon="4.82589">
        <ele>226</ele>
        <time>2021-07-31T07:37:17.000Z</time>
      </trkpt>
      <trkpt lat="49.81615" lon="4.82583">
        <ele>225</ele>
        <time>2021-07-31T07:37:18.000Z</time>
      </trkpt>
      <trkpt lat="49.81618" lon="4.82577">
        <ele>225</ele>
        <time>2021-07-31T07:37:19.000Z</time>
      </trkpt>
      <trkpt lat="49.8162" lon="4.82574">
        <ele>225</ele>
        <time>2021-07-31T07:37:20.000Z</time>
      </trkpt>
      <trkpt lat="49.81624" lon="4.82573">
        <ele>225</ele>
        <time>2021-07-31T07:37:21.000Z</time>
      </trkpt>
      <trkpt lat="49.8163" lon="4.82574">
        <ele>224</ele>
        <time>2021-07-31T07:37:22.000Z</time>
      </trkpt>
      <trkpt lat="49.81635" lon="4.82578">
        <ele>224</ele>
        <time>2021-07-31T07:37:23.000Z</time>
      </trkpt>
      <trkpt lat="49.81641" lon="4.82583">
        <ele>223</ele>
        <time>2021-07-31T07:37:24.000Z</time>
      </trkpt>
      <trkpt lat="49.81648" lon="4.82588">
        <ele>223</ele>
        <time>2021-07-31T07:37:25.000Z</time>
      </trkpt>
      <trkpt lat="49.81654" lon="4.82594">
        <ele>222</ele>
        <time>2021-07-31T07:37:26.000Z</time>
      </trkpt>
      <trkpt lat="49.81661" lon="4.826">
        <ele>222</ele>
        <time>2021-07-31T07:37:27.000Z</time>
      </trkpt>
      <trkpt lat="49.81668" lon="4.82605">
        <ele>221</ele>
        <time>2021-07-31T07:37:28.000Z</time>
      </trkpt>
      <trkpt lat="49.81675" lon="4.8261">
        <ele>220</ele>
        <time>2021-07-31T07:37:29.000Z</time>
      </trkpt>
      <trkpt lat="49.81682" lon="4.82616">
        <ele>220</ele>
        <time>2021-07-31T07:37:30.000Z</time>
      </trkpt>
      <trkpt lat="49.81689" lon="4.82622">
        <ele>219</ele>
        <time>2021-07-31T07:37:31.000Z</time>
      </trkpt>
      <trkpt lat="49.81696" lon="4.82629">
        <ele>218</ele>
        <time>2021-07-31T07:37:32.000Z</time>
      </trkpt>
      <trkpt lat="49.81702" lon="4.82636">
        <ele>217</ele>
        <time>2021-07-31T07:37:33.000Z</time>
      </trkpt>
      <trkpt lat="49.81707" lon="4.82641">
        <ele>217</ele>
        <time>2021-07-31T07:37:34.000Z</time>
      </trkpt>
      <trkpt lat="49.8171" lon="4.82645">
        <ele>216</ele>
        <time>2021-07-31T07:37:35.000Z</time>
      </trkpt>
      <trkpt lat="49.81713" lon="4.82648">
        <ele>216</ele>
        <time>2021-07-31T07:37:36.000Z</time>
      </trkpt>
      <trkpt lat="49.81716" lon="4.82652">
        <ele>215</ele>
        <time>2021-07-31T07:37:37.000Z</time>
      </trkpt>
      <trkpt lat="49.81719" lon="4.82655">
        <ele>214</ele>
        <time>2021-07-31T07:37:38.000Z</time>
      </trkpt>
      <trkpt lat="49.81723" lon="4.82659">
        <ele>214</ele>
        <time>2021-07-31T07:37:39.000Z</time>
      </trkpt>
      <trkpt lat="49.81727" lon="4.82662">
        <ele>213</ele>
        <time>2021-07-31T07:37:40.000Z</time>
      </trkpt>
      <trkpt lat="49.81733" lon="4.82665">
        <ele>212</ele>
        <time>2021-07-31T07:37:41.000Z</time>
      </trkpt>
      <trkpt lat="49.81738" lon="4.82668">
        <ele>212</ele>
        <time>2021-07-31T07:37:42.000Z</time>
      </trkpt>
      <trkpt lat="49.81744" lon="4.82671">
        <ele>211</ele>
        <time>2021-07-31T07:37:43.000Z</time>
      </trkpt>
      <trkpt lat="49.81751" lon="4.82673">
        <ele>210</ele>
        <time>2021-07-31T07:37:44.000Z</time>
      </trkpt>
      <trkpt lat="49.81758" lon="4.82676">
        <ele>209</ele>
        <time>2021-07-31T07:37:45.000Z</time>
      </trkpt>
      <trkpt lat="49.81765" lon="4.82679">
        <ele>208</ele>
        <time>2021-07-31T07:37:46.000Z</time>
      </trkpt>
      <trkpt lat="49.81773" lon="4.82682">
        <ele>208</ele>
        <time>2021-07-31T07:37:47.000Z</time>
      </trkpt>
      <trkpt lat="49.8178" lon="4.82685">
        <ele>207</ele>
        <time>2021-07-31T07:37:48.000Z</time>
      </trkpt>
      <trkpt lat="49.81788" lon="4.82687">
        <ele>206</ele>
        <time>2021-07-31T07:37:49.000Z</time>
      </trkpt>
      <trkpt lat="49.81797" lon="4.8269">
        <ele>206</ele>
        <time>2021-07-31T07:37:50.000Z</time>
      </trkpt>
      <trkpt lat="49.81805" lon="4.82694">
        <ele>206</ele>
        <time>2021-07-31T07:37:51.000Z</time>
      </trkpt>
      <trkpt lat="49.81813" lon="4.82698">
        <ele>205</ele>
        <time>2021-07-31T07:37:52.000Z</time>
      </trkpt>
      <trkpt lat="49.8182" lon="4.82703">
        <ele>205</ele>
        <time>2021-07-31T07:37:53.000Z</time>
      </trkpt>
      <trkpt lat="49.81827" lon="4.8271">
        <ele>204</ele>
        <time>2021-07-31T07:37:54.000Z</time>
      </trkpt>
      <trkpt lat="49.81833" lon="4.82717">
        <ele>204</ele>
        <time>2021-07-31T07:37:55.000Z</time>
      </trkpt>
      <trkpt lat="49.81839" lon="4.82725">
        <ele>204</ele>
        <time>2021-07-31T07:37:56.000Z</time>
      </trkpt>
      <trkpt lat="49.81845" lon="4.82732">
        <ele>203</ele>
        <time>2021-07-31T07:37:57.000Z</time>
      </trkpt>
      <trkpt lat="49.81851" lon="4.82738">
        <ele>203</ele>
        <time>2021-07-31T07:37:58.000Z</time>
      </trkpt>
      <trkpt lat="49.81857" lon="4.82745">
        <ele>203</ele>
        <time>2021-07-31T07:37:59.000Z</time>
      </trkpt>
      <trkpt lat="49.81862" lon="4.82751">
        <ele>202</ele>
        <time>2021-07-31T07:38:00.000Z</time>
      </trkpt>
      <trkpt lat="49.81868" lon="4.82758">
        <ele>202</ele>
        <time>2021-07-31T07:38:01.000Z</time>
      </trkpt>
      <trkpt lat="49.81873" lon="4.82765">
        <ele>202</ele>
        <time>2021-07-31T07:38:02.000Z</time>
      </trkpt>
      <trkpt lat="49.81878" lon="4.82771">
        <ele>202</ele>
        <time>2021-07-31T07:38:03.000Z</time>
      </trkpt>
      <trkpt lat="49.81883" lon="4.82777">
        <ele>202</ele>
        <time>2021-07-31T07:38:04.000Z</time>
      </trkpt>
      <trkpt lat="49.81887" lon="4.82783">
        <ele>202</ele>
        <time>2021-07-31T07:38:05.000Z</time>
      </trkpt>
      <trkpt lat="49.81892" lon="4.82789">
        <ele>202</ele>
        <time>2021-07-31T07:38:06.000Z</time>
      </trkpt>
      <trkpt lat="49.81896" lon="4.82794">
        <ele>202</ele>
        <time>2021-07-31T07:38:07.000Z</time>
      </trkpt>
      <trkpt lat="49.81901" lon="4.828">
        <ele>202</ele>
        <time>2021-07-31T07:38:08.000Z</time>
      </trkpt>
      <trkpt lat="49.81905" lon="4.82805">
        <ele>202</ele>
        <time>2021-07-31T07:38:09.000Z</time>
      </trkpt>
      <trkpt lat="49.81909" lon="4.82811">
        <ele>202</ele>
        <time>2021-07-31T07:38:10.000Z</time>
      </trkpt>
      <trkpt lat="49.81912" lon="4.82817">
        <ele>202</ele>
        <time>2021-07-31T07:38:11.000Z</time>
      </trkpt>
      <trkpt lat="49.81916" lon="4.82823">
        <ele>202</ele>
        <time>2021-07-31T07:38:12.000Z</time>
      </trkpt>
      <trkpt lat="49.8192" lon="4.82829">
        <ele>202</ele>
        <time>2021-07-31T07:38:13.000Z</time>
      </trkpt>
      <trkpt lat="49.81923" lon="4.82834">
        <ele>202</ele>
        <time>2021-07-31T07:38:14.000Z</time>
      </trkpt>
      <trkpt lat="49.81926" lon="4.8284">
        <ele>202</ele>
        <time>2021-07-31T07:38:15.000Z</time>
      </trkpt>
      <trkpt lat="49.81927" lon="4.82845">
        <ele>202</ele>
        <time>2021-07-31T07:38:16.000Z</time>
      </trkpt>
      <trkpt lat="49.81928" lon="4.82851">
        <ele>202</ele>
        <time>2021-07-31T07:38:17.000Z</time>
      </trkpt>
      <trkpt lat="49.8193" lon="4.82857">
        <ele>202</ele>
        <time>2021-07-31T07:38:18.000Z</time>
      </trkpt>
      <trkpt lat="49.81932" lon="4.82865">
        <ele>202</ele>
        <time>2021-07-31T07:38:19.000Z</time>
      </trkpt>
      <trkpt lat="49.81934" lon="4.82873">
        <ele>202</ele>
        <time>2021-07-31T07:38:20.000Z</time>
      </trkpt>
      <trkpt lat="49.81937" lon="4.82881">
        <ele>202</ele>
        <time>2021-07-31T07:38:21.000Z</time>
      </trkpt>
      <trkpt lat="49.81939" lon="4.82889">
        <ele>202</ele>
        <time>2021-07-31T07:38:22.000Z</time>
      </trkpt>
      <trkpt lat="49.81941" lon="4.82896">
        <ele>202</ele>
        <time>2021-07-31T07:38:23.000Z</time>
      </trkpt>
      <trkpt lat="49.81944" lon="4.82902">
        <ele>202</ele>
        <time>2021-07-31T07:38:24.000Z</time>
      </trkpt>
      <trkpt lat="49.81946" lon="4.82909">
        <ele>202</ele>
        <time>2021-07-31T07:38:25.000Z</time>
      </trkpt>
      <trkpt lat="49.81947" lon="4.82916">
        <ele>202</ele>
        <time>2021-07-31T07:38:26.000Z</time>
      </trkpt>
      <trkpt lat="49.81949" lon="4.82922">
        <ele>202</ele>
        <time>2021-07-31T07:38:27.000Z</time>
      </trkpt>
      <trkpt lat="49.81951" lon="4.82929">
        <ele>202</ele>
        <time>2021-07-31T07:38:28.000Z</time>
      </trkpt>
      <trkpt lat="49.81953" lon="4.82935">
        <ele>202</ele>
        <time>2021-07-31T07:38:29.000Z</time>
      </trkpt>
      <trkpt lat="49.81955" lon="4.82942">
        <ele>202</ele>
        <time>2021-07-31T07:38:30.000Z</time>
      </trkpt>
      <trkpt lat="49.81957" lon="4.82947">
        <ele>202</ele>
        <time>2021-07-31T07:38:31.000Z</time>
      </trkpt>
      <trkpt lat="49.8196" lon="4.82951">
        <ele>202</ele>
        <time>2021-07-31T07:38:32.000Z</time>
      </trkpt>
      <trkpt lat="49.81963" lon="4.82953">
        <ele>202</ele>
        <time>2021-07-31T07:38:33.000Z</time>
      </trkpt>
      <trkpt lat="49.81966" lon="4.82956">
        <ele>202</ele>
        <time>2021-07-31T07:38:34.000Z</time>
      </trkpt>
      <trkpt lat="49.8197" lon="4.82958">
        <ele>202</ele>
        <time>2021-07-31T07:38:35.000Z</time>
      </trkpt>
      <trkpt lat="49.81974" lon="4.82961">
        <ele>202</ele>
        <time>2021-07-31T07:38:36.000Z</time>
      </trkpt>
      <trkpt lat="49.81977" lon="4.82963">
        <ele>202</ele>
        <time>2021-07-31T07:38:37.000Z</time>
      </trkpt>
      <trkpt lat="49.81982" lon="4.82966">
        <ele>202</ele>
        <time>2021-07-31T07:38:38.000Z</time>
      </trkpt>
      <trkpt lat="49.81985" lon="4.8297">
        <ele>202</ele>
        <time>2021-07-31T07:38:39.000Z</time>
      </trkpt>
      <trkpt lat="49.81989" lon="4.82974">
        <ele>202</ele>
        <time>2021-07-31T07:38:40.000Z</time>
      </trkpt>
      <trkpt lat="49.81993" lon="4.82978">
        <ele>202</ele>
        <time>2021-07-31T07:38:41.000Z</time>
      </trkpt>
      <trkpt lat="49.81997" lon="4.82982">
        <ele>202</ele>
        <time>2021-07-31T07:38:42.000Z</time>
      </trkpt>
      <trkpt lat="49.82" lon="4.82987">
        <ele>202</ele>
        <time>2021-07-31T07:38:43.000Z</time>
      </trkpt>
      <trkpt lat="49.82004" lon="4.82991">
        <ele>202</ele>
        <time>2021-07-31T07:38:44.000Z</time>
      </trkpt>
      <trkpt lat="49.82007" lon="4.82996">
        <ele>202</ele>
        <time>2021-07-31T07:38:45.000Z</time>
      </trkpt>
      <trkpt lat="49.8201" lon="4.83">
        <ele>202</ele>
        <time>2021-07-31T07:38:46.000Z</time>
      </trkpt>
      <trkpt lat="49.82014" lon="4.83004">
        <ele>202</ele>
        <time>2021-07-31T07:38:47.000Z</time>
      </trkpt>
      <trkpt lat="49.82017" lon="4.83008">
        <ele>203</ele>
        <time>2021-07-31T07:38:48.000Z</time>
      </trkpt>
      <trkpt lat="49.82019" lon="4.83014">
        <ele>203</ele>
        <time>2021-07-31T07:38:49.000Z</time>
      </trkpt>
      <trkpt lat="49.82019" lon="4.83021">
        <ele>203</ele>
        <time>2021-07-31T07:38:50.000Z</time>
      </trkpt>
      <trkpt lat="49.82019" lon="4.83027">
        <ele>203</ele>
        <time>2021-07-31T07:38:51.000Z</time>
      </trkpt>
      <trkpt lat="49.82018" lon="4.83034">
        <ele>203</ele>
        <time>2021-07-31T07:38:52.000Z</time>
      </trkpt>
      <trkpt lat="49.82016" lon="4.8304">
        <ele>203</ele>
        <time>2021-07-31T07:38:53.000Z</time>
      </trkpt>
      <trkpt lat="49.82015" lon="4.83047">
        <ele>204</ele>
        <time>2021-07-31T07:38:54.000Z</time>
      </trkpt>
      <trkpt lat="49.82014" lon="4.83054">
        <ele>204</ele>
        <time>2021-07-31T07:38:55.000Z</time>
      </trkpt>
      <trkpt lat="49.82012" lon="4.8306">
        <ele>204</ele>
        <time>2021-07-31T07:38:56.000Z</time>
      </trkpt>
      <trkpt lat="49.82011" lon="4.83067">
        <ele>204</ele>
        <time>2021-07-31T07:38:57.000Z</time>
      </trkpt>
      <trkpt lat="49.8201" lon="4.83073">
        <ele>204</ele>
        <time>2021-07-31T07:38:58.000Z</time>
      </trkpt>
      <trkpt lat="49.82009" lon="4.83079">
        <ele>204</ele>
        <time>2021-07-31T07:38:59.000Z</time>
      </trkpt>
      <trkpt lat="49.82007" lon="4.83085">
        <ele>204</ele>
        <time>2021-07-31T07:39:00.000Z</time>
      </trkpt>
      <trkpt lat="49.82006" lon="4.83091">
        <ele>205</ele>
        <time>2021-07-31T07:39:01.000Z</time>
      </trkpt>
      <trkpt lat="49.82005" lon="4.83096">
        <ele>205</ele>
        <time>2021-07-31T07:39:02.000Z</time>
      </trkpt>
      <trkpt lat="49.82004" lon="4.83101">
        <ele>205</ele>
        <time>2021-07-31T07:39:03.000Z</time>
      </trkpt>
      <trkpt lat="49.82002" lon="4.83104">
        <ele>205</ele>
        <time>2021-07-31T07:39:04.000Z</time>
      </trkpt>
      <trkpt lat="49.81999" lon="4.83104">
        <ele>205</ele>
        <time>2021-07-31T07:39:05.000Z</time>
      </trkpt>
      <trkpt lat="49.81996" lon="4.83103">
        <ele>205</ele>
        <time>2021-07-31T07:39:06.000Z</time>
      </trkpt>
      <trkpt lat="49.81993" lon="4.831">
        <ele>205</ele>
        <time>2021-07-31T07:39:07.000Z</time>
      </trkpt>
      <trkpt lat="49.8199" lon="4.83098">
        <ele>205</ele>
        <time>2021-07-31T07:39:08.000Z</time>
      </trkpt>
      <trkpt lat="49.81987" lon="4.83095">
        <ele>205</ele>
        <time>2021-07-31T07:39:09.000Z</time>
      </trkpt>
      <trkpt lat="49.81984" lon="4.83092">
        <ele>205</ele>
        <time>2021-07-31T07:39:10.000Z</time>
      </trkpt>
      <trkpt lat="49.8198" lon="4.8309">
        <ele>204</ele>
        <time>2021-07-31T07:39:11.000Z</time>
      </trkpt>
      <trkpt lat="49.81977" lon="4.83089">
        <ele>204</ele>
        <time>2021-07-31T07:39:12.000Z</time>
      </trkpt>
      <trkpt lat="49.81975" lon="4.83089">
        <ele>204</ele>
        <time>2021-07-31T07:39:13.000Z</time>
      </trkpt>
      <trkpt lat="49.81974" lon="4.8309">
        <ele>204</ele>
        <time>2021-07-31T07:39:14.000Z</time>
      </trkpt>
      <trkpt lat="49.81973" lon="4.83093">
        <ele>204</ele>
        <time>2021-07-31T07:39:15.000Z</time>
      </trkpt>
      <trkpt lat="49.81973" lon="4.83094">
        <ele>204</ele>
        <time>2021-07-31T07:39:16.000Z</time>
      </trkpt>
      <trkpt lat="49.81974" lon="4.83095">
        <ele>204</ele>
        <time>2021-07-31T07:39:17.000Z</time>
      </trkpt>
      <trkpt lat="49.81976" lon="4.83094">
        <ele>204</ele>
        <time>2021-07-31T07:39:18.000Z</time>
      </trkpt>
      <trkpt lat="49.81979" lon="4.83093">
        <ele>204</ele>
        <time>2021-07-31T07:39:19.000Z</time>
      </trkpt>
      <trkpt lat="49.81982" lon="4.83094">
        <ele>204</ele>
        <time>2021-07-31T07:39:20.000Z</time>
      </trkpt>
      <trkpt lat="49.81986" lon="4.83096">
        <ele>204</ele>
        <time>2021-07-31T07:39:21.000Z</time>
      </trkpt>
      <trkpt lat="49.8199" lon="4.83099">
        <ele>204</ele>
        <time>2021-07-31T07:39:22.000Z</time>
      </trkpt>
      <trkpt lat="49.81994" lon="4.83101">
        <ele>204</ele>
        <time>2021-07-31T07:39:23.000Z</time>
      </trkpt>
      <trkpt lat="49.81998" lon="4.83104">
        <ele>204</ele>
        <time>2021-07-31T07:39:24.000Z</time>
      </trkpt>
      <trkpt lat="49.82002" lon="4.83107">
        <ele>204</ele>
        <time>2021-07-31T07:39:25.000Z</time>
      </trkpt>
      <trkpt lat="49.82006" lon="4.83111">
        <ele>204</ele>
        <time>2021-07-31T07:39:26.000Z</time>
      </trkpt>
      <trkpt lat="49.8201" lon="4.83115">
        <ele>204</ele>
        <time>2021-07-31T07:39:27.000Z</time>
      </trkpt>
      <trkpt lat="49.82014" lon="4.83118">
        <ele>204</ele>
        <time>2021-07-31T07:39:28.000Z</time>
      </trkpt>
      <trkpt lat="49.82018" lon="4.83122">
        <ele>204</ele>
        <time>2021-07-31T07:39:29.000Z</time>
      </trkpt>
      <trkpt lat="49.82022" lon="4.83125">
        <ele>204</ele>
        <time>2021-07-31T07:39:30.000Z</time>
      </trkpt>
      <trkpt lat="49.82026" lon="4.83128">
        <ele>204</ele>
        <time>2021-07-31T07:39:31.000Z</time>
      </trkpt>
      <trkpt lat="49.82029" lon="4.8313">
        <ele>204</ele>
        <time>2021-07-31T07:39:32.000Z</time>
      </trkpt>
      <trkpt lat="49.82031" lon="4.83131">
        <ele>204</ele>
        <time>2021-07-31T07:39:33.000Z</time>
      </trkpt>
      <trkpt lat="49.82033" lon="4.83134">
        <ele>204</ele>
        <time>2021-07-31T07:39:34.000Z</time>
      </trkpt>
      <trkpt lat="49.82032" lon="4.83136">
        <ele>204</ele>
        <time>2021-07-31T07:39:35.000Z</time>
      </trkpt>
      <trkpt lat="49.8203" lon="4.83135">
        <ele>204</ele>
        <time>2021-07-31T07:39:36.000Z</time>
      </trkpt>
      <trkpt lat="49.82028" lon="4.83132">
        <ele>204</ele>
        <time>2021-07-31T07:39:37.000Z</time>
      </trkpt>
      <trkpt lat="49.82025" lon="4.8313">
        <ele>204</ele>
        <time>2021-07-31T07:39:38.000Z</time>
      </trkpt>
      <trkpt lat="49.82021" lon="4.83127">
        <ele>204</ele>
        <time>2021-07-31T07:39:39.000Z</time>
      </trkpt>
      <trkpt lat="49.82017" lon="4.83124">
        <ele>204</ele>
        <time>2021-07-31T07:39:40.000Z</time>
      </trkpt>
      <trkpt lat="49.82013" lon="4.83119">
        <ele>204</ele>
        <time>2021-07-31T07:39:41.000Z</time>
      </trkpt>
      <trkpt lat="49.82009" lon="4.83115">
        <ele>204</ele>
        <time>2021-07-31T07:39:42.000Z</time>
      </trkpt>
      <trkpt lat="49.82006" lon="4.8311">
        <ele>204</ele>
        <time>2021-07-31T07:39:43.000Z</time>
      </trkpt>
      <trkpt lat="49.82004" lon="4.83103">
        <ele>204</ele>
        <time>2021-07-31T07:39:44.000Z</time>
      </trkpt>
      <trkpt lat="49.82004" lon="4.83095">
        <ele>204</ele>
        <time>2021-07-31T07:39:45.000Z</time>
      </trkpt>
      <trkpt lat="49.82005" lon="4.83087">
        <ele>204</ele>
        <time>2021-07-31T07:39:46.000Z</time>
      </trkpt>
      <trkpt lat="49.82006" lon="4.8308">
        <ele>204</ele>
        <time>2021-07-31T07:39:47.000Z</time>
      </trkpt>
      <trkpt lat="49.82008" lon="4.83072">
        <ele>204</ele>
        <time>2021-07-31T07:39:48.000Z</time>
      </trkpt>
      <trkpt lat="49.82009" lon="4.83064">
        <ele>204</ele>
        <time>2021-07-31T07:39:49.000Z</time>
      </trkpt>
      <trkpt lat="49.8201" lon="4.83056">
        <ele>204</ele>
        <time>2021-07-31T07:39:50.000Z</time>
      </trkpt>
      <trkpt lat="49.82011" lon="4.83048">
        <ele>204</ele>
        <time>2021-07-31T07:39:51.000Z</time>
      </trkpt>
      <trkpt lat="49.82014" lon="4.83041">
        <ele>204</ele>
        <time>2021-07-31T07:39:52.000Z</time>
      </trkpt>
      <trkpt lat="49.82016" lon="4.83034">
        <ele>204</ele>
        <time>2021-07-31T07:39:53.000Z</time>
      </trkpt>
      <trkpt lat="49.82018" lon="4.83026">
        <ele>204</ele>
        <time>2021-07-31T07:39:54.000Z</time>
      </trkpt>
      <trkpt lat="49.82019" lon="4.83019">
        <ele>204</ele>
        <time>2021-07-31T07:39:55.000Z</time>
      </trkpt>
      <trkpt lat="49.82018" lon="4.83012">
        <ele>204</ele>
        <time>2021-07-31T07:39:56.000Z</time>
      </trkpt>
      <trkpt lat="49.82015" lon="4.83007">
        <ele>204</ele>
        <time>2021-07-31T07:39:57.000Z</time>
      </trkpt>
      <trkpt lat="49.82011" lon="4.83003">
        <ele>204</ele>
        <time>2021-07-31T07:39:58.000Z</time>
      </trkpt>
      <trkpt lat="49.82007" lon="4.82999">
        <ele>204</ele>
        <time>2021-07-31T07:39:59.000Z</time>
      </trkpt>
      <trkpt lat="49.82003" lon="4.82993">
        <ele>204</ele>
        <time>2021-07-31T07:40:00.000Z</time>
      </trkpt>
      <trkpt lat="49.81999" lon="4.82988">
        <ele>204</ele>
        <time>2021-07-31T07:40:01.000Z</time>
      </trkpt>
      <trkpt lat="49.81995" lon="4.82982">
        <ele>203</ele>
        <time>2021-07-31T07:40:02.000Z</time>
      </trkpt>
      <trkpt lat="49.8199" lon="4.82977">
        <ele>203</ele>
        <time>2021-07-31T07:40:03.000Z</time>
      </trkpt>
      <trkpt lat="49.81985" lon="4.82972">
        <ele>203</ele>
        <time>2021-07-31T07:40:04.000Z</time>
      </trkpt>
      <trkpt lat="49.8198" lon="4.82967">
        <ele>203</ele>
        <time>2021-07-31T07:40:05.000Z</time>
      </trkpt>
      <trkpt lat="49.81975" lon="4.82963">
        <ele>202</ele>
        <time>2021-07-31T07:40:06.000Z</time>
      </trkpt>
      <trkpt lat="49.8197" lon="4.82959">
        <ele>202</ele>
        <time>2021-07-31T07:40:07.000Z</time>
      </trkpt>
      <trkpt lat="49.81966" lon="4.82957">
        <ele>202</ele>
        <time>2021-07-31T07:40:08.000Z</time>
      </trkpt>
      <trkpt lat="49.81961" lon="4.82954">
        <ele>202</ele>
        <time>2021-07-31T07:40:09.000Z</time>
      </trkpt>
      <trkpt lat="49.81957" lon="4.8295">
        <ele>201</ele>
        <time>2021-07-31T07:40:10.000Z</time>
      </trkpt>
      <trkpt lat="49.81955" lon="4.82944">
        <ele>201</ele>
        <time>2021-07-31T07:40:11.000Z</time>
      </trkpt>
      <trkpt lat="49.81953" lon="4.82938">
        <ele>201</ele>
        <time>2021-07-31T07:40:12.000Z</time>
      </trkpt>
      <trkpt lat="49.81952" lon="4.82931">
        <ele>201</ele>
        <time>2021-07-31T07:40:13.000Z</time>
      </trkpt>
      <trkpt lat="49.81952" lon="4.82925">
        <ele>201</ele>
        <time>2021-07-31T07:40:14.000Z</time>
      </trkpt>
      <trkpt lat="49.81954" lon="4.82921">
        <ele>200</ele>
        <time>2021-07-31T07:40:15.000Z</time>
      </trkpt>
      <trkpt lat="49.81957" lon="4.82919">
        <ele>201</ele>
        <time>2021-07-31T07:40:16.000Z</time>
      </trkpt>
      <trkpt lat="49.8196" lon="4.8292">
        <ele>200</ele>
        <time>2021-07-31T07:40:17.000Z</time>
      </trkpt>
      <trkpt lat="49.81963" lon="4.82922">
        <ele>200</ele>
        <time>2021-07-31T07:40:18.000Z</time>
      </trkpt>
      <trkpt lat="49.81967" lon="4.82923">
        <ele>200</ele>
        <time>2021-07-31T07:40:19.000Z</time>
      </trkpt>
      <trkpt lat="49.8197" lon="4.82925">
        <ele>200</ele>
        <time>2021-07-31T07:40:20.000Z</time>
      </trkpt>
      <trkpt lat="49.81974" lon="4.82926">
        <ele>200</ele>
        <time>2021-07-31T07:40:21.000Z</time>
      </trkpt>
      <trkpt lat="49.81978" lon="4.82928">
        <ele>200</ele>
        <time>2021-07-31T07:40:22.000Z</time>
      </trkpt>
      <trkpt lat="49.81982" lon="4.82929">
        <ele>200</ele>
        <time>2021-07-31T07:40:23.000Z</time>
      </trkpt>
      <trkpt lat="49.81987" lon="4.8293">
        <ele>201</ele>
        <time>2021-07-31T07:40:24.000Z</time>
      </trkpt>
      <trkpt lat="49.81991" lon="4.82931">
        <ele>201</ele>
        <time>2021-07-31T07:40:25.000Z</time>
      </trkpt>
      <trkpt lat="49.81995" lon="4.82931">
        <ele>201</ele>
        <time>2021-07-31T07:40:26.000Z</time>
      </trkpt>
      <trkpt lat="49.81999" lon="4.82932">
        <ele>201</ele>
        <time>2021-07-31T07:40:27.000Z</time>
      </trkpt>
      <trkpt lat="49.82003" lon="4.82932">
        <ele>201</ele>
        <time>2021-07-31T07:40:28.000Z</time>
      </trkpt>
      <trkpt lat="49.82008" lon="4.82931">
        <ele>201</ele>
        <time>2021-07-31T07:40:29.000Z</time>
      </trkpt>
      <trkpt lat="49.82013" lon="4.82931">
        <ele>201</ele>
        <time>2021-07-31T07:40:30.000Z</time>
      </trkpt>
      <trkpt lat="49.82017" lon="4.82931">
        <ele>201</ele>
        <time>2021-07-31T07:40:31.000Z</time>
      </trkpt>
      <trkpt lat="49.82022" lon="4.82932">
        <ele>201</ele>
        <time>2021-07-31T07:40:32.000Z</time>
      </trkpt>
      <trkpt lat="49.82027" lon="4.82934">
        <ele>201</ele>
        <time>2021-07-31T07:40:33.000Z</time>
      </trkpt>
      <trkpt lat="49.82031" lon="4.82937">
        <ele>201</ele>
        <time>2021-07-31T07:40:34.000Z</time>
      </trkpt>
      <trkpt lat="49.82033" lon="4.82943">
        <ele>201</ele>
        <time>2021-07-31T07:40:35.000Z</time>
      </trkpt>
      <trkpt lat="49.82033" lon="4.82949">
        <ele>201</ele>
        <time>2021-07-31T07:40:36.000Z</time>
      </trkpt>
      <trkpt lat="49.82032" lon="4.82957">
        <ele>202</ele>
        <time>2021-07-31T07:40:37.000Z</time>
      </trkpt>
      <trkpt lat="49.82031" lon="4.82964">
        <ele>202</ele>
        <time>2021-07-31T07:40:38.000Z</time>
      </trkpt>
      <trkpt lat="49.82029" lon="4.82972">
        <ele>202</ele>
        <time>2021-07-31T07:40:39.000Z</time>
      </trkpt>
      <trkpt lat="49.82028" lon="4.8298">
        <ele>202</ele>
        <time>2021-07-31T07:40:40.000Z</time>
      </trkpt>
      <trkpt lat="49.82026" lon="4.82989">
        <ele>202</ele>
        <time>2021-07-31T07:40:41.000Z</time>
      </trkpt>
      <trkpt lat="49.82025" lon="4.82997">
        <ele>202</ele>
        <time>2021-07-31T07:40:42.000Z</time>
      </trkpt>
      <trkpt lat="49.82023" lon="4.83006">
        <ele>202</ele>
        <time>2021-07-31T07:40:43.000Z</time>
      </trkpt>
      <trkpt lat="49.82021" lon="4.83015">
        <ele>203</ele>
        <time>2021-07-31T07:40:44.000Z</time>
      </trkpt>
      <trkpt lat="49.82019" lon="4.83023">
        <ele>203</ele>
        <time>2021-07-31T07:40:45.000Z</time>
      </trkpt>
      <trkpt lat="49.82018" lon="4.83032">
        <ele>203</ele>
        <time>2021-07-31T07:40:46.000Z</time>
      </trkpt>
      <trkpt lat="49.82016" lon="4.8304">
        <ele>203</ele>
        <time>2021-07-31T07:40:47.000Z</time>
      </trkpt>
      <trkpt lat="49.82014" lon="4.83048">
        <ele>204</ele>
        <time>2021-07-31T07:40:48.000Z</time>
      </trkpt>
      <trkpt lat="49.82013" lon="4.83055">
        <ele>204</ele>
        <time>2021-07-31T07:40:49.000Z</time>
      </trkpt>
      <trkpt lat="49.82011" lon="4.83063">
        <ele>204</ele>
        <time>2021-07-31T07:40:50.000Z</time>
      </trkpt>
      <trkpt lat="49.82009" lon="4.8307">
        <ele>204</ele>
        <time>2021-07-31T07:40:51.000Z</time>
      </trkpt>
      <trkpt lat="49.82008" lon="4.83078">
        <ele>204</ele>
        <time>2021-07-31T07:40:52.000Z</time>
      </trkpt>
      <trkpt lat="49.82006" lon="4.83085">
        <ele>204</ele>
        <time>2021-07-31T07:40:53.000Z</time>
      </trkpt>
      <trkpt lat="49.82005" lon="4.83093">
        <ele>204</ele>
        <time>2021-07-31T07:40:54.000Z</time>
      </trkpt>
      <trkpt lat="49.82006" lon="4.831">
        <ele>205</ele>
        <time>2021-07-31T07:40:55.000Z</time>
      </trkpt>
      <trkpt lat="49.82009" lon="4.83106">
        <ele>205</ele>
        <time>2021-07-31T07:40:56.000Z</time>
      </trkpt>
      <trkpt lat="49.82012" lon="4.83112">
        <ele>205</ele>
        <time>2021-07-31T07:40:57.000Z</time>
      </trkpt>
      <trkpt lat="49.82016" lon="4.83116">
        <ele>205</ele>
        <time>2021-07-31T07:40:58.000Z</time>
      </trkpt>
      <trkpt lat="49.82019" lon="4.83121">
        <ele>205</ele>
        <time>2021-07-31T07:40:59.000Z</time>
      </trkpt>
      <trkpt lat="49.82023" lon="4.83126">
        <ele>205</ele>
        <time>2021-07-31T07:41:00.000Z</time>
      </trkpt>
      <trkpt lat="49.82026" lon="4.83129">
        <ele>205</ele>
        <time>2021-07-31T07:41:01.000Z</time>
      </trkpt>
      <trkpt lat="49.8203" lon="4.83132">
        <ele>205</ele>
        <time>2021-07-31T07:41:02.000Z</time>
      </trkpt>
      <trkpt lat="49.82033" lon="4.83134">
        <ele>205</ele>
        <time>2021-07-31T07:41:03.000Z</time>
      </trkpt>
      <trkpt lat="49.82035" lon="4.83135">
        <ele>205</ele>
        <time>2021-07-31T07:41:04.000Z</time>
      </trkpt>
      <trkpt lat="49.82038" lon="4.83134">
        <ele>205</ele>
        <time>2021-07-31T07:41:05.000Z</time>
      </trkpt>
      <trkpt lat="49.82042" lon="4.83132">
        <ele>205</ele>
        <time>2021-07-31T07:41:06.000Z</time>
      </trkpt>
      <trkpt lat="49.82046" lon="4.83129">
        <ele>205</ele>
        <time>2021-07-31T07:41:07.000Z</time>
      </trkpt>
      <trkpt lat="49.8205" lon="4.83127">
        <ele>205</ele>
        <time>2021-07-31T07:41:08.000Z</time>
      </trkpt>
      <trkpt lat="49.82054" lon="4.83125">
        <ele>205</ele>
        <time>2021-07-31T07:41:09.000Z</time>
      </trkpt>
      <trkpt lat="49.82058" lon="4.83122">
        <ele>205</ele>
        <time>2021-07-31T07:41:10.000Z</time>
      </trkpt>
      <trkpt lat="49.82062" lon="4.83119">
        <ele>205</ele>
        <time>2021-07-31T07:41:11.000Z</time>
      </trkpt>
      <trkpt lat="49.82066" lon="4.83116">
        <ele>205</ele>
        <time>2021-07-31T07:41:12.000Z</time>
      </trkpt>
      <trkpt lat="49.8207" lon="4.83112">
        <ele>205</ele>
        <time>2021-07-31T07:41:13.000Z</time>
      </trkpt>
      <trkpt lat="49.82074" lon="4.83108">
        <ele>205</ele>
        <time>2021-07-31T07:41:14.000Z</time>
      </trkpt>
      <trkpt lat="49.82078" lon="4.83105">
        <ele>205</ele>
        <time>2021-07-31T07:41:15.000Z</time>
      </trkpt>
      <trkpt lat="49.82081" lon="4.83102">
        <ele>205</ele>
        <time>2021-07-31T07:41:16.000Z</time>
      </trkpt>
      <trkpt lat="49.82084" lon="4.831">
        <ele>205</ele>
        <time>2021-07-31T07:41:17.000Z</time>
      </trkpt>
      <trkpt lat="49.82087" lon="4.83097">
        <ele>205</ele>
        <time>2021-07-31T07:41:18.000Z</time>
      </trkpt>
      <trkpt lat="49.82091" lon="4.83096">
        <ele>205</ele>
        <time>2021-07-31T07:41:19.000Z</time>
      </trkpt>
      <trkpt lat="49.82095" lon="4.83097">
        <ele>205</ele>
        <time>2021-07-31T07:41:20.000Z</time>
      </trkpt>
      <trkpt lat="49.82098" lon="4.83101">
        <ele>205</ele>
        <time>2021-07-31T07:41:21.000Z</time>
      </trkpt>
      <trkpt lat="49.821" lon="4.83107">
        <ele>205</ele>
        <time>2021-07-31T07:41:22.000Z</time>
      </trkpt>
      <trkpt lat="49.82101" lon="4.83112">
        <ele>205</ele>
        <time>2021-07-31T07:41:23.000Z</time>
      </trkpt>
      <trkpt lat="49.82102" lon="4.83117">
        <ele>205</ele>
        <time>2021-07-31T07:41:24.000Z</time>
      </trkpt>
      <trkpt lat="49.82104" lon="4.83122">
        <ele>206</ele>
        <time>2021-07-31T07:41:25.000Z</time>
      </trkpt>
      <trkpt lat="49.82105" lon="4.83127">
        <ele>206</ele>
        <time>2021-07-31T07:41:26.000Z</time>
      </trkpt>
      <trkpt lat="49.82105" lon="4.83133">
        <ele>206</ele>
        <time>2021-07-31T07:41:27.000Z</time>
      </trkpt>
      <trkpt lat="49.82105" lon="4.83138">
        <ele>206</ele>
        <time>2021-07-31T07:41:28.000Z</time>
      </trkpt>
      <trkpt lat="49.82106" lon="4.83144">
        <ele>206</ele>
        <time>2021-07-31T07:41:29.000Z</time>
      </trkpt>
      <trkpt lat="49.82106" lon="4.83149">
        <ele>206</ele>
        <time>2021-07-31T07:41:30.000Z</time>
      </trkpt>
      <trkpt lat="49.82106" lon="4.83155">
        <ele>207</ele>
        <time>2021-07-31T07:41:31.000Z</time>
      </trkpt>
      <trkpt lat="49.82106" lon="4.83161">
        <ele>207</ele>
        <time>2021-07-31T07:41:32.000Z</time>
      </trkpt>
      <trkpt lat="49.82106" lon="4.83167">
        <ele>207</ele>
        <time>2021-07-31T07:41:33.000Z</time>
      </trkpt>
      <trkpt lat="49.82106" lon="4.83173">
        <ele>207</ele>
        <time>2021-07-31T07:41:34.000Z</time>
      </trkpt>
      <trkpt lat="49.82107" lon="4.8318">
        <ele>207</ele>
        <time>2021-07-31T07:41:35.000Z</time>
      </trkpt>
      <trkpt lat="49.82107" lon="4.83187">
        <ele>207</ele>
        <time>2021-07-31T07:41:36.000Z</time>
      </trkpt>
      <trkpt lat="49.82108" lon="4.83194">
        <ele>207</ele>
        <time>2021-07-31T07:41:37.000Z</time>
      </trkpt>
      <trkpt lat="49.82108" lon="4.832">
        <ele>207</ele>
        <time>2021-07-31T07:41:38.000Z</time>
      </trkpt>
      <trkpt lat="49.82108" lon="4.83207">
        <ele>207</ele>
        <time>2021-07-31T07:41:39.000Z</time>
      </trkpt>
      <trkpt lat="49.82108" lon="4.83214">
        <ele>207</ele>
        <time>2021-07-31T07:41:40.000Z</time>
      </trkpt>
      <trkpt lat="49.82108" lon="4.83221">
        <ele>208</ele>
        <time>2021-07-31T07:41:41.000Z</time>
      </trkpt>
      <trkpt lat="49.82108" lon="4.83228">
        <ele>208</ele>
        <time>2021-07-31T07:41:42.000Z</time>
      </trkpt>
      <trkpt lat="49.82108" lon="4.83235">
        <ele>208</ele>
        <time>2021-07-31T07:41:43.000Z</time>
      </trkpt>
      <trkpt lat="49.82108" lon="4.83241">
        <ele>208</ele>
        <time>2021-07-31T07:41:44.000Z</time>
      </trkpt>
      <trkpt lat="49.82108" lon="4.83247">
        <ele>208</ele>
        <time>2021-07-31T07:41:45.000Z</time>
      </trkpt>
      <trkpt lat="49.82108" lon="4.83254">
        <ele>208</ele>
        <time>2021-07-31T07:41:46.000Z</time>
      </trkpt>
      <trkpt lat="49.82108" lon="4.83261">
        <ele>208</ele>
        <time>2021-07-31T07:41:47.000Z</time>
      </trkpt>
      <trkpt lat="49.82107" lon="4.83267">
        <ele>208</ele>
        <time>2021-07-31T07:41:48.000Z</time>
      </trkpt>
      <trkpt lat="49.82107" lon="4.83274">
        <ele>208</ele>
        <time>2021-07-31T07:41:49.000Z</time>
      </trkpt>
      <trkpt lat="49.82106" lon="4.83281">
        <ele>208</ele>
        <time>2021-07-31T07:41:50.000Z</time>
      </trkpt>
      <trkpt lat="49.82105" lon="4.83288">
        <ele>208</ele>
        <time>2021-07-31T07:41:51.000Z</time>
      </trkpt>
      <trkpt lat="49.82105" lon="4.83294">
        <ele>208</ele>
        <time>2021-07-31T07:41:52.000Z</time>
      </trkpt>
      <trkpt lat="49.82104" lon="4.83301">
        <ele>208</ele>
        <time>2021-07-31T07:41:53.000Z</time>
      </trkpt>
      <trkpt lat="49.82103" lon="4.83308">
        <ele>208</ele>
        <time>2021-07-31T07:41:54.000Z</time>
      </trkpt>
      <trkpt lat="49.82101" lon="4.83314">
        <ele>209</ele>
        <time>2021-07-31T07:41:55.000Z</time>
      </trkpt>
      <trkpt lat="49.821" lon="4.83321">
        <ele>209</ele>
        <time>2021-07-31T07:41:56.000Z</time>
      </trkpt>
      <trkpt lat="49.82099" lon="4.83327">
        <ele>209</ele>
        <time>2021-07-31T07:41:57.000Z</time>
      </trkpt>
      <trkpt lat="49.82098" lon="4.83333">
        <ele>209</ele>
        <time>2021-07-31T07:41:58.000Z</time>
      </trkpt>
      <trkpt lat="49.82097" lon="4.8334">
        <ele>209</ele>
        <time>2021-07-31T07:41:59.000Z</time>
      </trkpt>
      <trkpt lat="49.82096" lon="4.83346">
        <ele>209</ele>
        <time>2021-07-31T07:42:00.000Z</time>
      </trkpt>
      <trkpt lat="49.82094" lon="4.83352">
        <ele>209</ele>
        <time>2021-07-31T07:42:01.000Z</time>
      </trkpt>
      <trkpt lat="49.82093" lon="4.83358">
        <ele>209</ele>
        <time>2021-07-31T07:42:02.000Z</time>
      </trkpt>
      <trkpt lat="49.82091" lon="4.83364">
        <ele>209</ele>
        <time>2021-07-31T07:42:03.000Z</time>
      </trkpt>
      <trkpt lat="49.8209" lon="4.8337">
        <ele>210</ele>
        <time>2021-07-31T07:42:04.000Z</time>
      </trkpt>
      <trkpt lat="49.82088" lon="4.83376">
        <ele>210</ele>
        <time>2021-07-31T07:42:05.000Z</time>
      </trkpt>
      <trkpt lat="49.82087" lon="4.83382">
        <ele>210</ele>
        <time>2021-07-31T07:42:06.000Z</time>
      </trkpt>
      <trkpt lat="49.82085" lon="4.83388">
        <ele>210</ele>
        <time>2021-07-31T07:42:07.000Z</time>
      </trkpt>
      <trkpt lat="49.82084" lon="4.83394">
        <ele>210</ele>
        <time>2021-07-31T07:42:08.000Z</time>
      </trkpt>
      <trkpt lat="49.82083" lon="4.83399">
        <ele>210</ele>
        <time>2021-07-31T07:42:09.000Z</time>
      </trkpt>
      <trkpt lat="49.82082" lon="4.83404">
        <ele>210</ele>
        <time>2021-07-31T07:42:10.000Z</time>
      </trkpt>
      <trkpt lat="49.82081" lon="4.83409">
        <ele>211</ele>
        <time>2021-07-31T07:42:11.000Z</time>
      </trkpt>
      <trkpt lat="49.8208" lon="4.83415">
        <ele>211</ele>
        <time>2021-07-31T07:42:12.000Z</time>
      </trkpt>
      <trkpt lat="49.82079" lon="4.83421">
        <ele>211</ele>
        <time>2021-07-31T07:42:13.000Z</time>
      </trkpt>
      <trkpt lat="49.82078" lon="4.83426">
        <ele>211</ele>
        <time>2021-07-31T07:42:14.000Z</time>
      </trkpt>
      <trkpt lat="49.82077" lon="4.83432">
        <ele>211</ele>
        <time>2021-07-31T07:42:15.000Z</time>
      </trkpt>
      <trkpt lat="49.82076" lon="4.83438">
        <ele>211</ele>
        <time>2021-07-31T07:42:16.000Z</time>
      </trkpt>
      <trkpt lat="49.82075" lon="4.83444">
        <ele>212</ele>
        <time>2021-07-31T07:42:17.000Z</time>
      </trkpt>
      <trkpt lat="49.82075" lon="4.8345">
        <ele>212</ele>
        <time>2021-07-31T07:42:18.000Z</time>
      </trkpt>
      <trkpt lat="49.82074" lon="4.83456">
        <ele>212</ele>
        <time>2021-07-31T07:42:19.000Z</time>
      </trkpt>
      <trkpt lat="49.82073" lon="4.83461">
        <ele>212</ele>
        <time>2021-07-31T07:42:20.000Z</time>
      </trkpt>
      <trkpt lat="49.82072" lon="4.83467">
        <ele>212</ele>
        <time>2021-07-31T07:42:21.000Z</time>
      </trkpt>
      <trkpt lat="49.82071" lon="4.83472">
        <ele>212</ele>
        <time>2021-07-31T07:42:22.000Z</time>
      </trkpt>
      <trkpt lat="49.8207" lon="4.83478">
        <ele>212</ele>
        <time>2021-07-31T07:42:23.000Z</time>
      </trkpt>
      <trkpt lat="49.82069" lon="4.83483">
        <ele>212</ele>
        <time>2021-07-31T07:42:24.000Z</time>
      </trkpt>
      <trkpt lat="49.82068" lon="4.83488">
        <ele>213</ele>
        <time>2021-07-31T07:42:25.000Z</time>
      </trkpt>
      <trkpt lat="49.82067" lon="4.83494">
        <ele>213</ele>
        <time>2021-07-31T07:42:26.000Z</time>
      </trkpt>
      <trkpt lat="49.82066" lon="4.835">
        <ele>213</ele>
        <time>2021-07-31T07:42:27.000Z</time>
      </trkpt>
      <trkpt lat="49.82066" lon="4.83505">
        <ele>213</ele>
        <time>2021-07-31T07:42:28.000Z</time>
      </trkpt>
      <trkpt lat="49.82065" lon="4.83511">
        <ele>213</ele>
        <time>2021-07-31T07:42:29.000Z</time>
      </trkpt>
      <trkpt lat="49.82065" lon="4.83516">
        <ele>213</ele>
        <time>2021-07-31T07:42:30.000Z</time>
      </trkpt>
      <trkpt lat="49.82065" lon="4.83522">
        <ele>213</ele>
        <time>2021-07-31T07:42:31.000Z</time>
      </trkpt>
      <trkpt lat="49.82064" lon="4.83527">
        <ele>214</ele>
        <time>2021-07-31T07:42:32.000Z</time>
      </trkpt>
      <trkpt lat="49.82064" lon="4.83533">
        <ele>214</ele>
        <time>2021-07-31T07:42:33.000Z</time>
      </trkpt>
      <trkpt lat="49.82064" lon="4.83538">
        <ele>214</ele>
        <time>2021-07-31T07:42:34.000Z</time>
      </trkpt>
      <trkpt lat="49.82064" lon="4.83544">
        <ele>214</ele>
        <time>2021-07-31T07:42:35.000Z</time>
      </trkpt>
      <trkpt lat="49.82063" lon="4.83549">
        <ele>214</ele>
        <time>2021-07-31T07:42:36.000Z</time>
      </trkpt>
      <trkpt lat="49.82063" lon="4.83555">
        <ele>214</ele>
        <time>2021-07-31T07:42:37.000Z</time>
      </trkpt>
      <trkpt lat="49.82062" lon="4.8356">
        <ele>215</ele>
        <time>2021-07-31T07:42:38.000Z</time>
      </trkpt>
      <trkpt lat="49.82062" lon="4.83566">
        <ele>215</ele>
        <time>2021-07-31T07:42:39.000Z</time>
      </trkpt>
      <trkpt lat="49.82062" lon="4.83571">
        <ele>215</ele>
        <time>2021-07-31T07:42:40.000Z</time>
      </trkpt>
      <trkpt lat="49.82062" lon="4.83577">
        <ele>215</ele>
        <time>2021-07-31T07:42:41.000Z</time>
      </trkpt>
      <trkpt lat="49.82062" lon="4.83582">
        <ele>215</ele>
        <time>2021-07-31T07:42:42.000Z</time>
      </trkpt>
      <trkpt lat="49.82062" lon="4.83588">
        <ele>215</ele>
        <time>2021-07-31T07:42:43.000Z</time>
      </trkpt>
      <trkpt lat="49.82061" lon="4.83593">
        <ele>215</ele>
        <time>2021-07-31T07:42:44.000Z</time>
      </trkpt>
      <trkpt lat="49.82061" lon="4.83598">
        <ele>216</ele>
        <time>2021-07-31T07:42:45.000Z</time>
      </trkpt>
      <trkpt lat="49.82061" lon="4.83604">
        <ele>216</ele>
        <time>2021-07-31T07:42:46.000Z</time>
      </trkpt>
      <trkpt lat="49.82061" lon="4.83609">
        <ele>216</ele>
        <time>2021-07-31T07:42:47.000Z</time>
      </trkpt>
      <trkpt lat="49.82062" lon="4.83615">
        <ele>216</ele>
        <time>2021-07-31T07:42:48.000Z</time>
      </trkpt>
      <trkpt lat="49.82062" lon="4.8362">
        <ele>216</ele>
        <time>2021-07-31T07:42:49.000Z</time>
      </trkpt>
      <trkpt lat="49.82062" lon="4.83625">
        <ele>217</ele>
        <time>2021-07-31T07:42:50.000Z</time>
      </trkpt>
      <trkpt lat="49.82062" lon="4.8363">
        <ele>217</ele>
        <time>2021-07-31T07:42:51.000Z</time>
      </trkpt>
      <trkpt lat="49.82062" lon="4.83636">
        <ele>217</ele>
        <time>2021-07-31T07:42:52.000Z</time>
      </trkpt>
      <trkpt lat="49.82062" lon="4.83641">
        <ele>217</ele>
        <time>2021-07-31T07:42:53.000Z</time>
      </trkpt>
      <trkpt lat="49.82062" lon="4.83646">
        <ele>217</ele>
        <time>2021-07-31T07:42:54.000Z</time>
      </trkpt>
      <trkpt lat="49.82063" lon="4.83652">
        <ele>218</ele>
        <time>2021-07-31T07:42:55.000Z</time>
      </trkpt>
      <trkpt lat="49.82063" lon="4.83657">
        <ele>218</ele>
        <time>2021-07-31T07:42:56.000Z</time>
      </trkpt>
      <trkpt lat="49.82063" lon="4.83661">
        <ele>218</ele>
        <time>2021-07-31T07:42:57.000Z</time>
      </trkpt>
      <trkpt lat="49.82064" lon="4.83665">
        <ele>218</ele>
        <time>2021-07-31T07:42:58.000Z</time>
      </trkpt>
      <trkpt lat="49.82064" lon="4.83669">
        <ele>218</ele>
        <time>2021-07-31T07:42:59.000Z</time>
      </trkpt>
      <trkpt lat="49.82065" lon="4.83673">
        <ele>219</ele>
        <time>2021-07-31T07:43:00.000Z</time>
      </trkpt>
      <trkpt lat="49.82065" lon="4.83676">
        <ele>219</ele>
        <time>2021-07-31T07:43:01.000Z</time>
      </trkpt>
      <trkpt lat="49.82066" lon="4.8368">
        <ele>219</ele>
        <time>2021-07-31T07:43:02.000Z</time>
      </trkpt>
      <trkpt lat="49.82066" lon="4.83685">
        <ele>219</ele>
        <time>2021-07-31T07:43:03.000Z</time>
      </trkpt>
      <trkpt lat="49.82067" lon="4.83689">
        <ele>219</ele>
        <time>2021-07-31T07:43:04.000Z</time>
      </trkpt>
      <trkpt lat="49.82067" lon="4.83693">
        <ele>219</ele>
        <time>2021-07-31T07:43:05.000Z</time>
      </trkpt>
      <trkpt lat="49.82068" lon="4.83697">
        <ele>220</ele>
        <time>2021-07-31T07:43:06.000Z</time>
      </trkpt>
      <trkpt lat="49.82069" lon="4.837">
        <ele>220</ele>
        <time>2021-07-31T07:43:07.000Z</time>
      </trkpt>
      <trkpt lat="49.82071" lon="4.83702">
        <ele>220</ele>
        <time>2021-07-31T07:43:08.000Z</time>
      </trkpt>
      <trkpt lat="49.82073" lon="4.83704">
        <ele>220</ele>
        <time>2021-07-31T07:43:09.000Z</time>
      </trkpt>
      <trkpt lat="49.82075" lon="4.83707">
        <ele>220</ele>
        <time>2021-07-31T07:43:10.000Z</time>
      </trkpt>
      <trkpt lat="49.82077" lon="4.83709">
        <ele>220</ele>
        <time>2021-07-31T07:43:11.000Z</time>
      </trkpt>
      <trkpt lat="49.82079" lon="4.83712">
        <ele>220</ele>
        <time>2021-07-31T07:43:12.000Z</time>
      </trkpt>
      <trkpt lat="49.82081" lon="4.83715">
        <ele>220</ele>
        <time>2021-07-31T07:43:13.000Z</time>
      </trkpt>
      <trkpt lat="49.82083" lon="4.83718">
        <ele>220</ele>
        <time>2021-07-31T07:43:14.000Z</time>
      </trkpt>
      <trkpt lat="49.82085" lon="4.8372">
        <ele>220</ele>
        <time>2021-07-31T07:43:15.000Z</time>
      </trkpt>
      <trkpt lat="49.82087" lon="4.83723">
        <ele>221</ele>
        <time>2021-07-31T07:43:16.000Z</time>
      </trkpt>
      <trkpt lat="49.82089" lon="4.83725">
        <ele>221</ele>
        <time>2021-07-31T07:43:17.000Z</time>
      </trkpt>
      <trkpt lat="49.82091" lon="4.83728">
        <ele>221</ele>
        <time>2021-07-31T07:43:18.000Z</time>
      </trkpt>
      <trkpt lat="49.82093" lon="4.83731">
        <ele>221</ele>
        <time>2021-07-31T07:43:19.000Z</time>
      </trkpt>
      <trkpt lat="49.82095" lon="4.83733">
        <ele>221</ele>
        <time>2021-07-31T07:43:20.000Z</time>
      </trkpt>
      <trkpt lat="49.82097" lon="4.83735">
        <ele>222</ele>
        <time>2021-07-31T07:43:21.000Z</time>
      </trkpt>
      <trkpt lat="49.82099" lon="4.83737">
        <ele>222</ele>
        <time>2021-07-31T07:43:22.000Z</time>
      </trkpt>
      <trkpt lat="49.82101" lon="4.83739">
        <ele>222</ele>
        <time>2021-07-31T07:43:23.000Z</time>
      </trkpt>
      <trkpt lat="49.82103" lon="4.83742">
        <ele>222</ele>
        <time>2021-07-31T07:43:24.000Z</time>
      </trkpt>
      <trkpt lat="49.82104" lon="4.83744">
        <ele>222</ele>
        <time>2021-07-31T07:43:25.000Z</time>
      </trkpt>
      <trkpt lat="49.82106" lon="4.83746">
        <ele>222</ele>
        <time>2021-07-31T07:43:26.000Z</time>
      </trkpt>
      <trkpt lat="49.82107" lon="4.8375">
        <ele>222</ele>
        <time>2021-07-31T07:43:27.000Z</time>
      </trkpt>
      <trkpt lat="49.82108" lon="4.83753">
        <ele>223</ele>
        <time>2021-07-31T07:43:28.000Z</time>
      </trkpt>
      <trkpt lat="49.82109" lon="4.83756">
        <ele>223</ele>
        <time>2021-07-31T07:43:29.000Z</time>
      </trkpt>
      <trkpt lat="49.82111" lon="4.8376">
        <ele>223</ele>
        <time>2021-07-31T07:43:30.000Z</time>
      </trkpt>
      <trkpt lat="49.82111" lon="4.83764">
        <ele>223</ele>
        <time>2021-07-31T07:43:31.000Z</time>
      </trkpt>
      <trkpt lat="49.82112" lon="4.83768">
        <ele>223</ele>
        <time>2021-07-31T07:43:32.000Z</time>
      </trkpt>
      <trkpt lat="49.82112" lon="4.83772">
        <ele>223</ele>
        <time>2021-07-31T07:43:33.000Z</time>
      </trkpt>
      <trkpt lat="49.82113" lon="4.83776">
        <ele>224</ele>
        <time>2021-07-31T07:43:34.000Z</time>
      </trkpt>
      <trkpt lat="49.82113" lon="4.8378">
        <ele>224</ele>
        <time>2021-07-31T07:43:35.000Z</time>
      </trkpt>
      <trkpt lat="49.82114" lon="4.83783">
        <ele>224</ele>
        <time>2021-07-31T07:43:36.000Z</time>
      </trkpt>
      <trkpt lat="49.82114" lon="4.83786">
        <ele>224</ele>
        <time>2021-07-31T07:43:37.000Z</time>
      </trkpt>
      <trkpt lat="49.82114" lon="4.83789">
        <ele>225</ele>
        <time>2021-07-31T07:43:38.000Z</time>
      </trkpt>
      <trkpt lat="49.82115" lon="4.83793">
        <ele>225</ele>
        <time>2021-07-31T07:43:39.000Z</time>
      </trkpt>
      <trkpt lat="49.82115" lon="4.83797">
        <ele>225</ele>
        <time>2021-07-31T07:43:40.000Z</time>
      </trkpt>
      <trkpt lat="49.82115" lon="4.83801">
        <ele>225</ele>
        <time>2021-07-31T07:43:41.000Z</time>
      </trkpt>
      <trkpt lat="49.82115" lon="4.83804">
        <ele>225</ele>
        <time>2021-07-31T07:43:42.000Z</time>
      </trkpt>
      <trkpt lat="49.82115" lon="4.83808">
        <ele>226</ele>
        <time>2021-07-31T07:43:43.000Z</time>
      </trkpt>
      <trkpt lat="49.82115" lon="4.83811">
        <ele>226</ele>
        <time>2021-07-31T07:43:44.000Z</time>
      </trkpt>
      <trkpt lat="49.82114" lon="4.83814">
        <ele>226</ele>
        <time>2021-07-31T07:43:45.000Z</time>
      </trkpt>
      <trkpt lat="49.82113" lon="4.83817">
        <ele>226</ele>
        <time>2021-07-31T07:43:46.000Z</time>
      </trkpt>
      <trkpt lat="49.82113" lon="4.83819">
        <ele>226</ele>
        <time>2021-07-31T07:43:47.000Z</time>
      </trkpt>
      <trkpt lat="49.82113" lon="4.83822">
        <ele>226</ele>
        <time>2021-07-31T07:43:48.000Z</time>
      </trkpt>
      <trkpt lat="49.82113" lon="4.83824">
        <ele>226</ele>
        <time>2021-07-31T07:43:49.000Z</time>
      </trkpt>
      <trkpt lat="49.82113" lon="4.83827">
        <ele>227</ele>
        <time>2021-07-31T07:43:50.000Z</time>
      </trkpt>
      <trkpt lat="49.82113" lon="4.83829">
        <ele>227</ele>
        <time>2021-07-31T07:43:51.000Z</time>
      </trkpt>
      <trkpt lat="49.82113" lon="4.83831">
        <ele>227</ele>
        <time>2021-07-31T07:43:52.000Z</time>
      </trkpt>
      <trkpt lat="49.82114" lon="4.83834">
        <ele>227</ele>
        <time>2021-07-31T07:43:53.000Z</time>
      </trkpt>
      <trkpt lat="49.82114" lon="4.83837">
        <ele>227</ele>
        <time>2021-07-31T07:43:54.000Z</time>
      </trkpt>
      <trkpt lat="49.82114" lon="4.83839">
        <ele>228</ele>
        <time>2021-07-31T07:43:55.000Z</time>
      </trkpt>
      <trkpt lat="49.82115" lon="4.83841">
        <ele>228</ele>
        <time>2021-07-31T07:43:56.000Z</time>
      </trkpt>
      <trkpt lat="49.82117" lon="4.83844">
        <ele>228</ele>
        <time>2021-07-31T07:43:57.000Z</time>
      </trkpt>
      <trkpt lat="49.82118" lon="4.83846">
        <ele>228</ele>
        <time>2021-07-31T07:43:58.000Z</time>
      </trkpt>
      <trkpt lat="49.82119" lon="4.83848">
        <ele>229</ele>
        <time>2021-07-31T07:43:59.000Z</time>
      </trkpt>
      <trkpt lat="49.8212" lon="4.83849">
        <ele>229</ele>
        <time>2021-07-31T07:44:00.000Z</time>
      </trkpt>
      <trkpt lat="49.82122" lon="4.8385">
        <ele>229</ele>
        <time>2021-07-31T07:44:01.000Z</time>
      </trkpt>
      <trkpt lat="49.82123" lon="4.83852">
        <ele>229</ele>
        <time>2021-07-31T07:44:02.000Z</time>
      </trkpt>
      <trkpt lat="49.82125" lon="4.83854">
        <ele>229</ele>
        <time>2021-07-31T07:44:03.000Z</time>
      </trkpt>
      <trkpt lat="49.82126" lon="4.83857">
        <ele>230</ele>
        <time>2021-07-31T07:44:04.000Z</time>
      </trkpt>
      <trkpt lat="49.82127" lon="4.83859">
        <ele>230</ele>
        <time>2021-07-31T07:44:05.000Z</time>
      </trkpt>
      <trkpt lat="49.82128" lon="4.83862">
        <ele>230</ele>
        <time>2021-07-31T07:44:06.000Z</time>
      </trkpt>
      <trkpt lat="49.82129" lon="4.83864">
        <ele>230</ele>
        <time>2021-07-31T07:44:07.000Z</time>
      </trkpt>
      <trkpt lat="49.8213" lon="4.83867">
        <ele>231</ele>
        <time>2021-07-31T07:44:08.000Z</time>
      </trkpt>
      <trkpt lat="49.82131" lon="4.8387">
        <ele>231</ele>
        <time>2021-07-31T07:44:09.000Z</time>
      </trkpt>
      <trkpt lat="49.82131" lon="4.83872">
        <ele>231</ele>
        <time>2021-07-31T07:44:10.000Z</time>
      </trkpt>
      <trkpt lat="49.82132" lon="4.83874">
        <ele>231</ele>
        <time>2021-07-31T07:44:11.000Z</time>
      </trkpt>
      <trkpt lat="49.82133" lon="4.83877">
        <ele>232</ele>
        <time>2021-07-31T07:44:12.000Z</time>
      </trkpt>
      <trkpt lat="49.82133" lon="4.83879">
        <ele>232</ele>
        <time>2021-07-31T07:44:13.000Z</time>
      </trkpt>
      <trkpt lat="49.82134" lon="4.83881">
        <ele>232</ele>
        <time>2021-07-31T07:44:14.000Z</time>
      </trkpt>
      <trkpt lat="49.82135" lon="4.83884">
        <ele>232</ele>
        <time>2021-07-31T07:44:15.000Z</time>
      </trkpt>
      <trkpt lat="49.82136" lon="4.83887">
        <ele>233</ele>
        <time>2021-07-31T07:44:16.000Z</time>
      </trkpt>
      <trkpt lat="49.82136" lon="4.83889">
        <ele>233</ele>
        <time>2021-07-31T07:44:17.000Z</time>
      </trkpt>
      <trkpt lat="49.82137" lon="4.83891">
        <ele>233</ele>
        <time>2021-07-31T07:44:18.000Z</time>
      </trkpt>
      <trkpt lat="49.82138" lon="4.83894">
        <ele>233</ele>
        <time>2021-07-31T07:44:19.000Z</time>
      </trkpt>
      <trkpt lat="49.82139" lon="4.83896">
        <ele>233</ele>
        <time>2021-07-31T07:44:20.000Z</time>
      </trkpt>
      <trkpt lat="49.82139" lon="4.83899">
        <ele>233</ele>
        <time>2021-07-31T07:44:21.000Z</time>
      </trkpt>
      <trkpt lat="49.82139" lon="4.83902">
        <ele>234</ele>
        <time>2021-07-31T07:44:22.000Z</time>
      </trkpt>
      <trkpt lat="49.8214" lon="4.83905">
        <ele>234</ele>
        <time>2021-07-31T07:44:23.000Z</time>
      </trkpt>
      <trkpt lat="49.8214" lon="4.83908">
        <ele>234</ele>
        <time>2021-07-31T07:44:24.000Z</time>
      </trkpt>
      <trkpt lat="49.82141" lon="4.8391">
        <ele>234</ele>
        <time>2021-07-31T07:44:25.000Z</time>
      </trkpt>
      <trkpt lat="49.8214" lon="4.83913">
        <ele>235</ele>
        <time>2021-07-31T07:44:26.000Z</time>
      </trkpt>
      <trkpt lat="49.82141" lon="4.83916">
        <ele>235</ele>
        <time>2021-07-31T07:44:27.000Z</time>
      </trkpt>
      <trkpt lat="49.82141" lon="4.83918">
        <ele>235</ele>
        <time>2021-07-31T07:44:28.000Z</time>
      </trkpt>
      <trkpt lat="49.82143" lon="4.83921">
        <ele>236</ele>
        <time>2021-07-31T07:44:29.000Z</time>
      </trkpt>
      <trkpt lat="49.82143" lon="4.83923">
        <ele>236</ele>
        <time>2021-07-31T07:44:30.000Z</time>
      </trkpt>
      <trkpt lat="49.82143" lon="4.83926">
        <ele>236</ele>
        <time>2021-07-31T07:44:31.000Z</time>
      </trkpt>
      <trkpt lat="49.82144" lon="4.83928">
        <ele>237</ele>
        <time>2021-07-31T07:44:32.000Z</time>
      </trkpt>
      <trkpt lat="49.82144" lon="4.83931">
        <ele>237</ele>
        <time>2021-07-31T07:44:33.000Z</time>
      </trkpt>
      <trkpt lat="49.82145" lon="4.83933">
        <ele>237</ele>
        <time>2021-07-31T07:44:34.000Z</time>
      </trkpt>
      <trkpt lat="49.82145" lon="4.83937">
        <ele>238</ele>
        <time>2021-07-31T07:44:35.000Z</time>
      </trkpt>
      <trkpt lat="49.82145" lon="4.8394">
        <ele>238</ele>
        <time>2021-07-31T07:44:36.000Z</time>
      </trkpt>
      <trkpt lat="49.82146" lon="4.83943">
        <ele>239</ele>
        <time>2021-07-31T07:44:37.000Z</time>
      </trkpt>
      <trkpt lat="49.82145" lon="4.83946">
        <ele>239</ele>
        <time>2021-07-31T07:44:38.000Z</time>
      </trkpt>
      <trkpt lat="49.82145" lon="4.83948">
        <ele>239</ele>
        <time>2021-07-31T07:44:39.000Z</time>
      </trkpt>
      <trkpt lat="49.82145" lon="4.83951">
        <ele>240</ele>
        <time>2021-07-31T07:44:40.000Z</time>
      </trkpt>
      <trkpt lat="49.82145" lon="4.83953">
        <ele>240</ele>
        <time>2021-07-31T07:44:41.000Z</time>
      </trkpt>
      <trkpt lat="49.82146" lon="4.83956">
        <ele>241</ele>
        <time>2021-07-31T07:44:42.000Z</time>
      </trkpt>
      <trkpt lat="49.82146" lon="4.83958">
        <ele>241</ele>
        <time>2021-07-31T07:44:43.000Z</time>
      </trkpt>
      <trkpt lat="49.82147" lon="4.8396">
        <ele>241</ele>
        <time>2021-07-31T07:44:44.000Z</time>
      </trkpt>
      <trkpt lat="49.82147" lon="4.83961">
        <ele>241</ele>
        <time>2021-07-31T07:44:45.000Z</time>
      </trkpt>
      <trkpt lat="49.82148" lon="4.83963">
        <ele>242</ele>
        <time>2021-07-31T07:44:46.000Z</time>
      </trkpt>
      <trkpt lat="49.82149" lon="4.83966">
        <ele>242</ele>
        <time>2021-07-31T07:44:47.000Z</time>
      </trkpt>
      <trkpt lat="49.8215" lon="4.83968">
        <ele>242</ele>
        <time>2021-07-31T07:44:48.000Z</time>
      </trkpt>
      <trkpt lat="49.82151" lon="4.83971">
        <ele>243</ele>
        <time>2021-07-31T07:44:49.000Z</time>
      </trkpt>
      <trkpt lat="49.82152" lon="4.83973">
        <ele>243</ele>
        <time>2021-07-31T07:44:50.000Z</time>
      </trkpt>
      <trkpt lat="49.82152" lon="4.83975">
        <ele>243</ele>
        <time>2021-07-31T07:44:51.000Z</time>
      </trkpt>
      <trkpt lat="49.82153" lon="4.83978">
        <ele>244</ele>
        <time>2021-07-31T07:44:52.000Z</time>
      </trkpt>
      <trkpt lat="49.82154" lon="4.8398">
        <ele>244</ele>
        <time>2021-07-31T07:44:53.000Z</time>
      </trkpt>
      <trkpt lat="49.82155" lon="4.83983">
        <ele>244</ele>
        <time>2021-07-31T07:44:54.000Z</time>
      </trkpt>
      <trkpt lat="49.82156" lon="4.83985">
        <ele>244</ele>
        <time>2021-07-31T07:44:55.000Z</time>
      </trkpt>
      <trkpt lat="49.82157" lon="4.83988">
        <ele>245</ele>
        <time>2021-07-31T07:44:56.000Z</time>
      </trkpt>
      <trkpt lat="49.82158" lon="4.83991">
        <ele>245</ele>
        <time>2021-07-31T07:44:57.000Z</time>
      </trkpt>
      <trkpt lat="49.8216" lon="4.83993">
        <ele>245</ele>
        <time>2021-07-31T07:44:58.000Z</time>
      </trkpt>
      <trkpt lat="49.82162" lon="4.83995">
        <ele>245</ele>
        <time>2021-07-31T07:44:59.000Z</time>
      </trkpt>
      <trkpt lat="49.82163" lon="4.83998">
        <ele>245</ele>
        <time>2021-07-31T07:45:00.000Z</time>
      </trkpt>
      <trkpt lat="49.82164" lon="4.84">
        <ele>246</ele>
        <time>2021-07-31T07:45:01.000Z</time>
      </trkpt>
      <trkpt lat="49.82165" lon="4.84002">
        <ele>246</ele>
        <time>2021-07-31T07:45:02.000Z</time>
      </trkpt>
      <trkpt lat="49.82167" lon="4.84004">
        <ele>246</ele>
        <time>2021-07-31T07:45:03.000Z</time>
      </trkpt>
      <trkpt lat="49.82168" lon="4.84006">
        <ele>246</ele>
        <time>2021-07-31T07:45:04.000Z</time>
      </trkpt>
      <trkpt lat="49.8217" lon="4.84008">
        <ele>247</ele>
        <time>2021-07-31T07:45:05.000Z</time>
      </trkpt>
      <trkpt lat="49.82172" lon="4.8401">
        <ele>247</ele>
        <time>2021-07-31T07:45:06.000Z</time>
      </trkpt>
      <trkpt lat="49.82173" lon="4.84012">
        <ele>247</ele>
        <time>2021-07-31T07:45:07.000Z</time>
      </trkpt>
      <trkpt lat="49.82176" lon="4.84014">
        <ele>248</ele>
        <time>2021-07-31T07:45:08.000Z</time>
      </trkpt>
      <trkpt lat="49.82177" lon="4.84016">
        <ele>248</ele>
        <time>2021-07-31T07:45:09.000Z</time>
      </trkpt>
      <trkpt lat="49.82179" lon="4.84018">
        <ele>248</ele>
        <time>2021-07-31T07:45:10.000Z</time>
      </trkpt>
      <trkpt lat="49.8218" lon="4.8402">
        <ele>249</ele>
        <time>2021-07-31T07:45:11.000Z</time>
      </trkpt>
      <trkpt lat="49.82181" lon="4.84022">
        <ele>249</ele>
        <time>2021-07-31T07:45:12.000Z</time>
      </trkpt>
      <trkpt lat="49.82182" lon="4.84024">
        <ele>249</ele>
        <time>2021-07-31T07:45:13.000Z</time>
      </trkpt>
      <trkpt lat="49.82183" lon="4.84027">
        <ele>249</ele>
        <time>2021-07-31T07:45:14.000Z</time>
      </trkpt>
      <trkpt lat="49.82184" lon="4.84028">
        <ele>250</ele>
        <time>2021-07-31T07:45:15.000Z</time>
      </trkpt>
      <trkpt lat="49.82185" lon="4.8403">
        <ele>250</ele>
        <time>2021-07-31T07:45:16.000Z</time>
      </trkpt>
      <trkpt lat="49.82186" lon="4.84032">
        <ele>250</ele>
        <time>2021-07-31T07:45:17.000Z</time>
      </trkpt>
      <trkpt lat="49.82187" lon="4.84034">
        <ele>251</ele>
        <time>2021-07-31T07:45:18.000Z</time>
      </trkpt>
      <trkpt lat="49.82189" lon="4.84036">
        <ele>251</ele>
        <time>2021-07-31T07:45:19.000Z</time>
      </trkpt>
      <trkpt lat="49.8219" lon="4.84038">
        <ele>251</ele>
        <time>2021-07-31T07:45:20.000Z</time>
      </trkpt>
      <trkpt lat="49.82192" lon="4.8404">
        <ele>251</ele>
        <time>2021-07-31T07:45:21.000Z</time>
      </trkpt>
      <trkpt lat="49.82193" lon="4.84042">
        <ele>252</ele>
        <time>2021-07-31T07:45:22.000Z</time>
      </trkpt>
      <trkpt lat="49.82194" lon="4.84045">
        <ele>252</ele>
        <time>2021-07-31T07:45:23.000Z</time>
      </trkpt>
      <trkpt lat="49.82196" lon="4.84047">
        <ele>252</ele>
        <time>2021-07-31T07:45:24.000Z</time>
      </trkpt>
      <trkpt lat="49.82197" lon="4.84049">
        <ele>253</ele>
        <time>2021-07-31T07:45:25.000Z</time>
      </trkpt>
      <trkpt lat="49.82198" lon="4.84052">
        <ele>253</ele>
        <time>2021-07-31T07:45:26.000Z</time>
      </trkpt>
      <trkpt lat="49.82199" lon="4.84055">
        <ele>253</ele>
        <time>2021-07-31T07:45:27.000Z</time>
      </trkpt>
      <trkpt lat="49.822" lon="4.84057">
        <ele>254</ele>
        <time>2021-07-31T07:45:28.000Z</time>
      </trkpt>
      <trkpt lat="49.82201" lon="4.84059">
        <ele>254</ele>
        <time>2021-07-31T07:45:29.000Z</time>
      </trkpt>
      <trkpt lat="49.82201" lon="4.84061">
        <ele>254</ele>
        <time>2021-07-31T07:45:30.000Z</time>
      </trkpt>
      <trkpt lat="49.82202" lon="4.84063">
        <ele>255</ele>
        <time>2021-07-31T07:45:31.000Z</time>
      </trkpt>
      <trkpt lat="49.82202" lon="4.84066">
        <ele>255</ele>
        <time>2021-07-31T07:45:32.000Z</time>
      </trkpt>
      <trkpt lat="49.82203" lon="4.8407">
        <ele>255</ele>
        <time>2021-07-31T07:45:33.000Z</time>
      </trkpt>
      <trkpt lat="49.82204" lon="4.84072">
        <ele>255</ele>
        <time>2021-07-31T07:45:34.000Z</time>
      </trkpt>
      <trkpt lat="49.82205" lon="4.84075">
        <ele>256</ele>
        <time>2021-07-31T07:45:35.000Z</time>
      </trkpt>
      <trkpt lat="49.82206" lon="4.84077">
        <ele>256</ele>
        <time>2021-07-31T07:45:36.000Z</time>
      </trkpt>
      <trkpt lat="49.82208" lon="4.84079">
        <ele>256</ele>
        <time>2021-07-31T07:45:37.000Z</time>
      </trkpt>
      <trkpt lat="49.82208" lon="4.84082">
        <ele>256</ele>
        <time>2021-07-31T07:45:38.000Z</time>
      </trkpt>
      <trkpt lat="49.82209" lon="4.84084">
        <ele>257</ele>
        <time>2021-07-31T07:45:39.000Z</time>
      </trkpt>
      <trkpt lat="49.8221" lon="4.84087">
        <ele>257</ele>
        <time>2021-07-31T07:45:40.000Z</time>
      </trkpt>
      <trkpt lat="49.82211" lon="4.8409">
        <ele>257</ele>
        <time>2021-07-31T07:45:41.000Z</time>
      </trkpt>
      <trkpt lat="49.82211" lon="4.84093">
        <ele>258</ele>
        <time>2021-07-31T07:45:42.000Z</time>
      </trkpt>
      <trkpt lat="49.82211" lon="4.84095">
        <ele>258</ele>
        <time>2021-07-31T07:45:43.000Z</time>
      </trkpt>
      <trkpt lat="49.82212" lon="4.84097">
        <ele>258</ele>
        <time>2021-07-31T07:45:44.000Z</time>
      </trkpt>
      <trkpt lat="49.82212" lon="4.84099">
        <ele>259</ele>
        <time>2021-07-31T07:45:45.000Z</time>
      </trkpt>
      <trkpt lat="49.82213" lon="4.84102">
        <ele>259</ele>
        <time>2021-07-31T07:45:46.000Z</time>
      </trkpt>
      <trkpt lat="49.82215" lon="4.84104">
        <ele>259</ele>
        <time>2021-07-31T07:45:47.000Z</time>
      </trkpt>
      <trkpt lat="49.82216" lon="4.84107">
        <ele>260</ele>
        <time>2021-07-31T07:45:48.000Z</time>
      </trkpt>
      <trkpt lat="49.82218" lon="4.84109">
        <ele>260</ele>
        <time>2021-07-31T07:45:49.000Z</time>
      </trkpt>
      <trkpt lat="49.82219" lon="4.84112">
        <ele>260</ele>
        <time>2021-07-31T07:45:50.000Z</time>
      </trkpt>
      <trkpt lat="49.8222" lon="4.84113">
        <ele>261</ele>
        <time>2021-07-31T07:45:51.000Z</time>
      </trkpt>
      <trkpt lat="49.82222" lon="4.84115">
        <ele>261</ele>
        <time>2021-07-31T07:45:52.000Z</time>
      </trkpt>
      <trkpt lat="49.82223" lon="4.84116">
        <ele>262</ele>
        <time>2021-07-31T07:45:53.000Z</time>
      </trkpt>
      <trkpt lat="49.82224" lon="4.84118">
        <ele>262</ele>
        <time>2021-07-31T07:45:54.000Z</time>
      </trkpt>
      <trkpt lat="49.82226" lon="4.8412">
        <ele>262</ele>
        <time>2021-07-31T07:45:55.000Z</time>
      </trkpt>
      <trkpt lat="49.82228" lon="4.84121">
        <ele>263</ele>
        <time>2021-07-31T07:45:56.000Z</time>
      </trkpt>
      <trkpt lat="49.82229" lon="4.84122">
        <ele>263</ele>
        <time>2021-07-31T07:45:57.000Z</time>
      </trkpt>
      <trkpt lat="49.82231" lon="4.84123">
        <ele>263</ele>
        <time>2021-07-31T07:45:58.000Z</time>
      </trkpt>
      <trkpt lat="49.82233" lon="4.84125">
        <ele>264</ele>
        <time>2021-07-31T07:45:59.000Z</time>
      </trkpt>
      <trkpt lat="49.82234" lon="4.84126">
        <ele>264</ele>
        <time>2021-07-31T07:46:00.000Z</time>
      </trkpt>
      <trkpt lat="49.82236" lon="4.84129">
        <ele>264</ele>
        <time>2021-07-31T07:46:01.000Z</time>
      </trkpt>
      <trkpt lat="49.82237" lon="4.8413">
        <ele>264</ele>
        <time>2021-07-31T07:46:02.000Z</time>
      </trkpt>
      <trkpt lat="49.82239" lon="4.84132">
        <ele>265</ele>
        <time>2021-07-31T07:46:03.000Z</time>
      </trkpt>
      <trkpt lat="49.82241" lon="4.84134">
        <ele>265</ele>
        <time>2021-07-31T07:46:04.000Z</time>
      </trkpt>
      <trkpt lat="49.82243" lon="4.84136">
        <ele>265</ele>
        <time>2021-07-31T07:46:05.000Z</time>
      </trkpt>
      <trkpt lat="49.82245" lon="4.84137">
        <ele>265</ele>
        <time>2021-07-31T07:46:06.000Z</time>
      </trkpt>
      <trkpt lat="49.82248" lon="4.84139">
        <ele>265</ele>
        <time>2021-07-31T07:46:07.000Z</time>
      </trkpt>
      <trkpt lat="49.8225" lon="4.84141">
        <ele>265</ele>
        <time>2021-07-31T07:46:08.000Z</time>
      </trkpt>
      <trkpt lat="49.82253" lon="4.84143">
        <ele>265</ele>
        <time>2021-07-31T07:46:09.000Z</time>
      </trkpt>
      <trkpt lat="49.82254" lon="4.84144">
        <ele>265</ele>
        <time>2021-07-31T07:46:10.000Z</time>
      </trkpt>
      <trkpt lat="49.82257" lon="4.84145">
        <ele>266</ele>
        <time>2021-07-31T07:46:11.000Z</time>
      </trkpt>
      <trkpt lat="49.82259" lon="4.84146">
        <ele>266</ele>
        <time>2021-07-31T07:46:12.000Z</time>
      </trkpt>
      <trkpt lat="49.82262" lon="4.84147">
        <ele>266</ele>
        <time>2021-07-31T07:46:13.000Z</time>
      </trkpt>
      <trkpt lat="49.82265" lon="4.84148">
        <ele>266</ele>
        <time>2021-07-31T07:46:14.000Z</time>
      </trkpt>
      <trkpt lat="49.82268" lon="4.84149">
        <ele>266</ele>
        <time>2021-07-31T07:46:15.000Z</time>
      </trkpt>
      <trkpt lat="49.8227" lon="4.8415">
        <ele>266</ele>
        <time>2021-07-31T07:46:16.000Z</time>
      </trkpt>
      <trkpt lat="49.82273" lon="4.8415">
        <ele>266</ele>
        <time>2021-07-31T07:46:17.000Z</time>
      </trkpt>
      <trkpt lat="49.82275" lon="4.84149">
        <ele>267</ele>
        <time>2021-07-31T07:46:18.000Z</time>
      </trkpt>
      <trkpt lat="49.82277" lon="4.84148">
        <ele>267</ele>
        <time>2021-07-31T07:46:19.000Z</time>
      </trkpt>
      <trkpt lat="49.82279" lon="4.84146">
        <ele>267</ele>
        <time>2021-07-31T07:46:20.000Z</time>
      </trkpt>
      <trkpt lat="49.82281" lon="4.84143">
        <ele>267</ele>
        <time>2021-07-31T07:46:21.000Z</time>
      </trkpt>
      <trkpt lat="49.82283" lon="4.8414">
        <ele>267</ele>
        <time>2021-07-31T07:46:22.000Z</time>
      </trkpt>
      <trkpt lat="49.82284" lon="4.84136">
        <ele>267</ele>
        <time>2021-07-31T07:46:23.000Z</time>
      </trkpt>
      <trkpt lat="49.82285" lon="4.84132">
        <ele>267</ele>
        <time>2021-07-31T07:46:24.000Z</time>
      </trkpt>
      <trkpt lat="49.82284" lon="4.84127">
        <ele>267</ele>
        <time>2021-07-31T07:46:25.000Z</time>
      </trkpt>
      <trkpt lat="49.82283" lon="4.8412">
        <ele>267</ele>
        <time>2021-07-31T07:46:26.000Z</time>
      </trkpt>
      <trkpt lat="49.82281" lon="4.84112">
        <ele>266</ele>
        <time>2021-07-31T07:46:27.000Z</time>
      </trkpt>
      <trkpt lat="49.82279" lon="4.84105">
        <ele>266</ele>
        <time>2021-07-31T07:46:28.000Z</time>
      </trkpt>
      <trkpt lat="49.82277" lon="4.84097">
        <ele>266</ele>
        <time>2021-07-31T07:46:29.000Z</time>
      </trkpt>
      <trkpt lat="49.82276" lon="4.84088">
        <ele>266</ele>
        <time>2021-07-31T07:46:30.000Z</time>
      </trkpt>
      <trkpt lat="49.82274" lon="4.84079">
        <ele>266</ele>
        <time>2021-07-31T07:46:31.000Z</time>
      </trkpt>
      <trkpt lat="49.82272" lon="4.84069">
        <ele>266</ele>
        <time>2021-07-31T07:46:32.000Z</time>
      </trkpt>
      <trkpt lat="49.82271" lon="4.84059">
        <ele>266</ele>
        <time>2021-07-31T07:46:33.000Z</time>
      </trkpt>
      <trkpt lat="49.8227" lon="4.84049">
        <ele>266</ele>
        <time>2021-07-31T07:46:34.000Z</time>
      </trkpt>
      <trkpt lat="49.8227" lon="4.84039">
        <ele>265</ele>
        <time>2021-07-31T07:46:35.000Z</time>
      </trkpt>
      <trkpt lat="49.8227" lon="4.84029">
        <ele>265</ele>
        <time>2021-07-31T07:46:36.000Z</time>
      </trkpt>
      <trkpt lat="49.82269" lon="4.84019">
        <ele>265</ele>
        <time>2021-07-31T07:46:37.000Z</time>
      </trkpt>
      <trkpt lat="49.82267" lon="4.8401">
        <ele>265</ele>
        <time>2021-07-31T07:46:38.000Z</time>
      </trkpt>
      <trkpt lat="49.82266" lon="4.84002">
        <ele>265</ele>
        <time>2021-07-31T07:46:39.000Z</time>
      </trkpt>
      <trkpt lat="49.82264" lon="4.83993">
        <ele>264</ele>
        <time>2021-07-31T07:46:40.000Z</time>
      </trkpt>
      <trkpt lat="49.82263" lon="4.83985">
        <ele>264</ele>
        <time>2021-07-31T07:46:41.000Z</time>
      </trkpt>
      <trkpt lat="49.82261" lon="4.83975">
        <ele>264</ele>
        <time>2021-07-31T07:46:42.000Z</time>
      </trkpt>
      <trkpt lat="49.82257" lon="4.83965">
        <ele>264</ele>
        <time>2021-07-31T07:46:43.000Z</time>
      </trkpt>
      <trkpt lat="49.82253" lon="4.83954">
        <ele>263</ele>
        <time>2021-07-31T07:46:44.000Z</time>
      </trkpt>
      <trkpt lat="49.8225" lon="4.83942">
        <ele>262</ele>
        <time>2021-07-31T07:46:45.000Z</time>
      </trkpt>
      <trkpt lat="49.82245" lon="4.8393">
        <ele>262</ele>
        <time>2021-07-31T07:46:46.000Z</time>
      </trkpt>
      <trkpt lat="49.8224" lon="4.83919">
        <ele>261</ele>
        <time>2021-07-31T07:46:47.000Z</time>
      </trkpt>
      <trkpt lat="49.82236" lon="4.83908">
        <ele>260</ele>
        <time>2021-07-31T07:46:48.000Z</time>
      </trkpt>
      <trkpt lat="49.82231" lon="4.83895">
        <ele>260</ele>
        <time>2021-07-31T07:46:49.000Z</time>
      </trkpt>
      <trkpt lat="49.82226" lon="4.83883">
        <ele>259</ele>
        <time>2021-07-31T07:46:50.000Z</time>
      </trkpt>
      <trkpt lat="49.82221" lon="4.83871">
        <ele>258</ele>
        <time>2021-07-31T07:46:51.000Z</time>
      </trkpt>
      <trkpt lat="49.82217" lon="4.83859">
        <ele>257</ele>
        <time>2021-07-31T07:46:52.000Z</time>
      </trkpt>
      <trkpt lat="49.82212" lon="4.83847">
        <ele>256</ele>
        <time>2021-07-31T07:46:53.000Z</time>
      </trkpt>
      <trkpt lat="49.82209" lon="4.83835">
        <ele>255</ele>
        <time>2021-07-31T07:46:54.000Z</time>
      </trkpt>
      <trkpt lat="49.82207" lon="4.83824">
        <ele>254</ele>
        <time>2021-07-31T07:46:55.000Z</time>
      </trkpt>
      <trkpt lat="49.82206" lon="4.83813">
        <ele>253</ele>
        <time>2021-07-31T07:46:56.000Z</time>
      </trkpt>
      <trkpt lat="49.82207" lon="4.83802">
        <ele>252</ele>
        <time>2021-07-31T07:46:57.000Z</time>
      </trkpt>
      <trkpt lat="49.82208" lon="4.83792">
        <ele>251</ele>
        <time>2021-07-31T07:46:58.000Z</time>
      </trkpt>
      <trkpt lat="49.82211" lon="4.83783">
        <ele>251</ele>
        <time>2021-07-31T07:46:59.000Z</time>
      </trkpt>
      <trkpt lat="49.82216" lon="4.83774">
        <ele>250</ele>
        <time>2021-07-31T07:47:00.000Z</time>
      </trkpt>
      <trkpt lat="49.8222" lon="4.83765">
        <ele>249</ele>
        <time>2021-07-31T07:47:01.000Z</time>
      </trkpt>
      <trkpt lat="49.82225" lon="4.83757">
        <ele>248</ele>
        <time>2021-07-31T07:47:02.000Z</time>
      </trkpt>
      <trkpt lat="49.8223" lon="4.83747">
        <ele>247</ele>
        <time>2021-07-31T07:47:03.000Z</time>
      </trkpt>
      <trkpt lat="49.82236" lon="4.83737">
        <ele>247</ele>
        <time>2021-07-31T07:47:04.000Z</time>
      </trkpt>
      <trkpt lat="49.82241" lon="4.83727">
        <ele>246</ele>
        <time>2021-07-31T07:47:05.000Z</time>
      </trkpt>
      <trkpt lat="49.82247" lon="4.83718">
        <ele>245</ele>
        <time>2021-07-31T07:47:06.000Z</time>
      </trkpt>
      <trkpt lat="49.82252" lon="4.83709">
        <ele>244</ele>
        <time>2021-07-31T07:47:07.000Z</time>
      </trkpt>
      <trkpt lat="49.82257" lon="4.837">
        <ele>243</ele>
        <time>2021-07-31T07:47:08.000Z</time>
      </trkpt>
      <trkpt lat="49.82261" lon="4.83692">
        <ele>243</ele>
        <time>2021-07-31T07:47:09.000Z</time>
      </trkpt>
      <trkpt lat="49.82265" lon="4.83687">
        <ele>242</ele>
        <time>2021-07-31T07:47:10.000Z</time>
      </trkpt>
      <trkpt lat="49.82267" lon="4.83684">
        <ele>241</ele>
        <time>2021-07-31T07:47:11.000Z</time>
      </trkpt>
      <trkpt lat="49.82269" lon="4.83683">
        <ele>241</ele>
        <time>2021-07-31T07:47:12.000Z</time>
      </trkpt>
      <trkpt lat="49.8227" lon="4.83682">
        <ele>240</ele>
        <time>2021-07-31T07:47:13.000Z</time>
      </trkpt>
      <trkpt lat="49.82271" lon="4.8368">
        <ele>239</ele>
        <time>2021-07-31T07:47:14.000Z</time>
      </trkpt>
      <trkpt lat="49.82272" lon="4.83678">
        <ele>239</ele>
        <time>2021-07-31T07:47:15.000Z</time>
      </trkpt>
      <trkpt lat="49.82274" lon="4.83676">
        <ele>238</ele>
        <time>2021-07-31T07:47:16.000Z</time>
      </trkpt>
      <trkpt lat="49.82275" lon="4.83673">
        <ele>238</ele>
        <time>2021-07-31T07:47:17.000Z</time>
      </trkpt>
      <trkpt lat="49.82276" lon="4.83671">
        <ele>238</ele>
        <time>2021-07-31T07:47:18.000Z</time>
      </trkpt>
      <trkpt lat="49.82278" lon="4.83669">
        <ele>237</ele>
        <time>2021-07-31T07:47:19.000Z</time>
      </trkpt>
      <trkpt lat="49.8228" lon="4.83667">
        <ele>237</ele>
        <time>2021-07-31T07:47:20.000Z</time>
      </trkpt>
      <trkpt lat="49.82281" lon="4.83665">
        <ele>236</ele>
        <time>2021-07-31T07:47:21.000Z</time>
      </trkpt>
      <trkpt lat="49.82283" lon="4.83663">
        <ele>236</ele>
        <time>2021-07-31T07:47:22.000Z</time>
      </trkpt>
      <trkpt lat="49.82285" lon="4.83661">
        <ele>236</ele>
        <time>2021-07-31T07:47:23.000Z</time>
      </trkpt>
      <trkpt lat="49.82286" lon="4.8366">
        <ele>236</ele>
        <time>2021-07-31T07:47:24.000Z</time>
      </trkpt>
      <trkpt lat="49.82288" lon="4.83658">
        <ele>236</ele>
        <time>2021-07-31T07:47:25.000Z</time>
      </trkpt>
      <trkpt lat="49.8229" lon="4.83657">
        <ele>235</ele>
        <time>2021-07-31T07:47:26.000Z</time>
      </trkpt>
      <trkpt lat="49.82293" lon="4.83656">
        <ele>235</ele>
        <time>2021-07-31T07:47:27.000Z</time>
      </trkpt>
      <trkpt lat="49.82295" lon="4.83654">
        <ele>235</ele>
        <time>2021-07-31T07:47:28.000Z</time>
      </trkpt>
      <trkpt lat="49.82298" lon="4.83652">
        <ele>235</ele>
        <time>2021-07-31T07:47:29.000Z</time>
      </trkpt>
      <trkpt lat="49.82301" lon="4.8365">
        <ele>235</ele>
        <time>2021-07-31T07:47:30.000Z</time>
      </trkpt>
      <trkpt lat="49.82303" lon="4.83647">
        <ele>235</ele>
        <time>2021-07-31T07:47:31.000Z</time>
      </trkpt>
      <trkpt lat="49.82305" lon="4.83644">
        <ele>234</ele>
        <time>2021-07-31T07:47:32.000Z</time>
      </trkpt>
      <trkpt lat="49.82308" lon="4.83641">
        <ele>234</ele>
        <time>2021-07-31T07:47:33.000Z</time>
      </trkpt>
      <trkpt lat="49.82311" lon="4.83637">
        <ele>234</ele>
        <time>2021-07-31T07:47:34.000Z</time>
      </trkpt>
      <trkpt lat="49.82314" lon="4.83633">
        <ele>234</ele>
        <time>2021-07-31T07:47:35.000Z</time>
      </trkpt>
      <trkpt lat="49.82317" lon="4.83629">
        <ele>234</ele>
        <time>2021-07-31T07:47:36.000Z</time>
      </trkpt>
      <trkpt lat="49.8232" lon="4.83626">
        <ele>234</ele>
        <time>2021-07-31T07:47:37.000Z</time>
      </trkpt>
      <trkpt lat="49.82323" lon="4.83622">
        <ele>234</ele>
        <time>2021-07-31T07:47:38.000Z</time>
      </trkpt>
      <trkpt lat="49.82326" lon="4.83618">
        <ele>234</ele>
        <time>2021-07-31T07:47:39.000Z</time>
      </trkpt>
      <trkpt lat="49.8233" lon="4.83613">
        <ele>234</ele>
        <time>2021-07-31T07:47:40.000Z</time>
      </trkpt>
      <trkpt lat="49.82334" lon="4.83609">
        <ele>234</ele>
        <time>2021-07-31T07:47:41.000Z</time>
      </trkpt>
      <trkpt lat="49.82337" lon="4.83604">
        <ele>234</ele>
        <time>2021-07-31T07:47:42.000Z</time>
      </trkpt>
      <trkpt lat="49.82341" lon="4.83599">
        <ele>234</ele>
        <time>2021-07-31T07:47:43.000Z</time>
      </trkpt>
      <trkpt lat="49.82344" lon="4.83595">
        <ele>234</ele>
        <time>2021-07-31T07:47:44.000Z</time>
      </trkpt>
      <trkpt lat="49.82347" lon="4.8359">
        <ele>233</ele>
        <time>2021-07-31T07:47:45.000Z</time>
      </trkpt>
      <trkpt lat="49.82351" lon="4.83586">
        <ele>233</ele>
        <time>2021-07-31T07:47:46.000Z</time>
      </trkpt>
      <trkpt lat="49.82355" lon="4.83583">
        <ele>233</ele>
        <time>2021-07-31T07:47:47.000Z</time>
      </trkpt>
      <trkpt lat="49.82358" lon="4.83578">
        <ele>233</ele>
        <time>2021-07-31T07:47:48.000Z</time>
      </trkpt>
      <trkpt lat="49.82362" lon="4.83572">
        <ele>233</ele>
        <time>2021-07-31T07:47:49.000Z</time>
      </trkpt>
      <trkpt lat="49.82366" lon="4.83567">
        <ele>233</ele>
        <time>2021-07-31T07:47:50.000Z</time>
      </trkpt>
      <trkpt lat="49.8237" lon="4.83563">
        <ele>233</ele>
        <time>2021-07-31T07:47:51.000Z</time>
      </trkpt>
      <trkpt lat="49.82374" lon="4.83559">
        <ele>233</ele>
        <time>2021-07-31T07:47:52.000Z</time>
      </trkpt>
      <trkpt lat="49.82379" lon="4.83555">
        <ele>233</ele>
        <time>2021-07-31T07:47:53.000Z</time>
      </trkpt>
      <trkpt lat="49.82382" lon="4.83552">
        <ele>233</ele>
        <time>2021-07-31T07:47:54.000Z</time>
      </trkpt>
      <trkpt lat="49.82386" lon="4.83549">
        <ele>233</ele>
        <time>2021-07-31T07:47:55.000Z</time>
      </trkpt>
      <trkpt lat="49.8239" lon="4.83546">
        <ele>233</ele>
        <time>2021-07-31T07:47:56.000Z</time>
      </trkpt>
      <trkpt lat="49.82394" lon="4.83542">
        <ele>233</ele>
        <time>2021-07-31T07:47:57.000Z</time>
      </trkpt>
      <trkpt lat="49.82398" lon="4.83539">
        <ele>233</ele>
        <time>2021-07-31T07:47:58.000Z</time>
      </trkpt>
      <trkpt lat="49.82402" lon="4.83535">
        <ele>233</ele>
        <time>2021-07-31T07:47:59.000Z</time>
      </trkpt>
      <trkpt lat="49.82406" lon="4.83531">
        <ele>233</ele>
        <time>2021-07-31T07:48:00.000Z</time>
      </trkpt>
      <trkpt lat="49.82411" lon="4.83527">
        <ele>233</ele>
        <time>2021-07-31T07:48:01.000Z</time>
      </trkpt>
      <trkpt lat="49.82415" lon="4.83522">
        <ele>233</ele>
        <time>2021-07-31T07:48:02.000Z</time>
      </trkpt>
      <trkpt lat="49.82419" lon="4.83518">
        <ele>233</ele>
        <time>2021-07-31T07:48:03.000Z</time>
      </trkpt>
      <trkpt lat="49.82422" lon="4.83513">
        <ele>233</ele>
        <time>2021-07-31T07:48:04.000Z</time>
      </trkpt>
      <trkpt lat="49.82426" lon="4.8351">
        <ele>233</ele>
        <time>2021-07-31T07:48:05.000Z</time>
      </trkpt>
      <trkpt lat="49.82428" lon="4.83509">
        <ele>233</ele>
        <time>2021-07-31T07:48:06.000Z</time>
      </trkpt>
      <trkpt lat="49.8243" lon="4.83506">
        <ele>233</ele>
        <time>2021-07-31T07:48:07.000Z</time>
      </trkpt>
      <trkpt lat="49.82434" lon="4.83502">
        <ele>233</ele>
        <time>2021-07-31T07:48:08.000Z</time>
      </trkpt>
      <trkpt lat="49.82437" lon="4.835">
        <ele>234</ele>
        <time>2021-07-31T07:48:09.000Z</time>
      </trkpt>
      <trkpt lat="49.82441" lon="4.83498">
        <ele>234</ele>
        <time>2021-07-31T07:48:10.000Z</time>
      </trkpt>
      <trkpt lat="49.82446" lon="4.83496">
        <ele>234</ele>
        <time>2021-07-31T07:48:11.000Z</time>
      </trkpt>
      <trkpt lat="49.8245" lon="4.83494">
        <ele>234</ele>
        <time>2021-07-31T07:48:12.000Z</time>
      </trkpt>
      <trkpt lat="49.82453" lon="4.83493">
        <ele>234</ele>
        <time>2021-07-31T07:48:13.000Z</time>
      </trkpt>
      <trkpt lat="49.82457" lon="4.83492">
        <ele>234</ele>
        <time>2021-07-31T07:48:14.000Z</time>
      </trkpt>
      <trkpt lat="49.8246" lon="4.8349">
        <ele>234</ele>
        <time>2021-07-31T07:48:15.000Z</time>
      </trkpt>
      <trkpt lat="49.82464" lon="4.83487">
        <ele>234</ele>
        <time>2021-07-31T07:48:16.000Z</time>
      </trkpt>
      <trkpt lat="49.82467" lon="4.83485">
        <ele>235</ele>
        <time>2021-07-31T07:48:17.000Z</time>
      </trkpt>
      <trkpt lat="49.82471" lon="4.83482">
        <ele>235</ele>
        <time>2021-07-31T07:48:18.000Z</time>
      </trkpt>
      <trkpt lat="49.82475" lon="4.8348">
        <ele>235</ele>
        <time>2021-07-31T07:48:19.000Z</time>
      </trkpt>
      <trkpt lat="49.8248" lon="4.83478">
        <ele>235</ele>
        <time>2021-07-31T07:48:20.000Z</time>
      </trkpt>
      <trkpt lat="49.82484" lon="4.83474">
        <ele>235</ele>
        <time>2021-07-31T07:48:21.000Z</time>
      </trkpt>
      <trkpt lat="49.82488" lon="4.83471">
        <ele>236</ele>
        <time>2021-07-31T07:48:22.000Z</time>
      </trkpt>
      <trkpt lat="49.82491" lon="4.83468">
        <ele>236</ele>
        <time>2021-07-31T07:48:23.000Z</time>
      </trkpt>
      <trkpt lat="49.82496" lon="4.83464">
        <ele>236</ele>
        <time>2021-07-31T07:48:24.000Z</time>
      </trkpt>
      <trkpt lat="49.825" lon="4.83461">
        <ele>236</ele>
        <time>2021-07-31T07:48:25.000Z</time>
      </trkpt>
      <trkpt lat="49.82504" lon="4.83458">
        <ele>236</ele>
        <time>2021-07-31T07:48:26.000Z</time>
      </trkpt>
      <trkpt lat="49.82508" lon="4.83454">
        <ele>236</ele>
        <time>2021-07-31T07:48:27.000Z</time>
      </trkpt>
      <trkpt lat="49.82512" lon="4.83451">
        <ele>236</ele>
        <time>2021-07-31T07:48:28.000Z</time>
      </trkpt>
      <trkpt lat="49.82515" lon="4.83446">
        <ele>236</ele>
        <time>2021-07-31T07:48:29.000Z</time>
      </trkpt>
      <trkpt lat="49.82519" lon="4.83442">
        <ele>236</ele>
        <time>2021-07-31T07:48:30.000Z</time>
      </trkpt>
      <trkpt lat="49.82522" lon="4.83438">
        <ele>237</ele>
        <time>2021-07-31T07:48:31.000Z</time>
      </trkpt>
      <trkpt lat="49.82526" lon="4.83433">
        <ele>237</ele>
        <time>2021-07-31T07:48:32.000Z</time>
      </trkpt>
      <trkpt lat="49.82529" lon="4.83428">
        <ele>237</ele>
        <time>2021-07-31T07:48:33.000Z</time>
      </trkpt>
      <trkpt lat="49.82533" lon="4.83423">
        <ele>237</ele>
        <time>2021-07-31T07:48:34.000Z</time>
      </trkpt>
      <trkpt lat="49.82537" lon="4.83418">
        <ele>237</ele>
        <time>2021-07-31T07:48:35.000Z</time>
      </trkpt>
      <trkpt lat="49.8254" lon="4.83414">
        <ele>236</ele>
        <time>2021-07-31T07:48:36.000Z</time>
      </trkpt>
      <trkpt lat="49.82544" lon="4.83409">
        <ele>236</ele>
        <time>2021-07-31T07:48:37.000Z</time>
      </trkpt>
      <trkpt lat="49.82549" lon="4.83405">
        <ele>236</ele>
        <time>2021-07-31T07:48:38.000Z</time>
      </trkpt>
      <trkpt lat="49.82553" lon="4.834">
        <ele>236</ele>
        <time>2021-07-31T07:48:39.000Z</time>
      </trkpt>
      <trkpt lat="49.82558" lon="4.83396">
        <ele>236</ele>
        <time>2021-07-31T07:48:40.000Z</time>
      </trkpt>
      <trkpt lat="49.82562" lon="4.83391">
        <ele>236</ele>
        <time>2021-07-31T07:48:41.000Z</time>
      </trkpt>
      <trkpt lat="49.82566" lon="4.83385">
        <ele>235</ele>
        <time>2021-07-31T07:48:42.000Z</time>
      </trkpt>
      <trkpt lat="49.82571" lon="4.8338">
        <ele>235</ele>
        <time>2021-07-31T07:48:43.000Z</time>
      </trkpt>
      <trkpt lat="49.82575" lon="4.83374">
        <ele>235</ele>
        <time>2021-07-31T07:48:44.000Z</time>
      </trkpt>
      <trkpt lat="49.8258" lon="4.83368">
        <ele>234</ele>
        <time>2021-07-31T07:48:45.000Z</time>
      </trkpt>
      <trkpt lat="49.82585" lon="4.83362">
        <ele>234</ele>
        <time>2021-07-31T07:48:46.000Z</time>
      </trkpt>
      <trkpt lat="49.8259" lon="4.83355">
        <ele>233</ele>
        <time>2021-07-31T07:48:47.000Z</time>
      </trkpt>
      <trkpt lat="49.82594" lon="4.83348">
        <ele>233</ele>
        <time>2021-07-31T07:48:48.000Z</time>
      </trkpt>
      <trkpt lat="49.826" lon="4.83343">
        <ele>232</ele>
        <time>2021-07-31T07:48:49.000Z</time>
      </trkpt>
      <trkpt lat="49.82606" lon="4.83339">
        <ele>232</ele>
        <time>2021-07-31T07:48:50.000Z</time>
      </trkpt>
      <trkpt lat="49.82613" lon="4.83337">
        <ele>231</ele>
        <time>2021-07-31T07:48:51.000Z</time>
      </trkpt>
      <trkpt lat="49.82618" lon="4.8334">
        <ele>231</ele>
        <time>2021-07-31T07:48:52.000Z</time>
      </trkpt>
      <trkpt lat="49.82623" lon="4.83345">
        <ele>230</ele>
        <time>2021-07-31T07:48:53.000Z</time>
      </trkpt>
      <trkpt lat="49.82627" lon="4.83351">
        <ele>230</ele>
        <time>2021-07-31T07:48:54.000Z</time>
      </trkpt>
      <trkpt lat="49.82631" lon="4.83358">
        <ele>230</ele>
        <time>2021-07-31T07:48:55.000Z</time>
      </trkpt>
      <trkpt lat="49.82633" lon="4.83364">
        <ele>229</ele>
        <time>2021-07-31T07:48:56.000Z</time>
      </trkpt>
      <trkpt lat="49.82636" lon="4.8337">
        <ele>229</ele>
        <time>2021-07-31T07:48:57.000Z</time>
      </trkpt>
      <trkpt lat="49.82638" lon="4.83375">
        <ele>229</ele>
        <time>2021-07-31T07:48:58.000Z</time>
      </trkpt>
      <trkpt lat="49.82639" lon="4.83379">
        <ele>229</ele>
        <time>2021-07-31T07:48:59.000Z</time>
      </trkpt>
      <trkpt lat="49.8264" lon="4.83384">
        <ele>229</ele>
        <time>2021-07-31T07:49:00.000Z</time>
      </trkpt>
      <trkpt lat="49.82642" lon="4.83389">
        <ele>228</ele>
        <time>2021-07-31T07:49:01.000Z</time>
      </trkpt>
      <trkpt lat="49.82644" lon="4.83394">
        <ele>228</ele>
        <time>2021-07-31T07:49:02.000Z</time>
      </trkpt>
      <trkpt lat="49.82645" lon="4.83398">
        <ele>228</ele>
        <time>2021-07-31T07:49:03.000Z</time>
      </trkpt>
      <trkpt lat="49.82647" lon="4.83403">
        <ele>228</ele>
        <time>2021-07-31T07:49:04.000Z</time>
      </trkpt>
      <trkpt lat="49.82649" lon="4.83407">
        <ele>228</ele>
        <time>2021-07-31T07:49:05.000Z</time>
      </trkpt>
      <trkpt lat="49.8265" lon="4.83412">
        <ele>229</ele>
        <time>2021-07-31T07:49:06.000Z</time>
      </trkpt>
      <trkpt lat="49.82652" lon="4.83416">
        <ele>229</ele>
        <time>2021-07-31T07:49:07.000Z</time>
      </trkpt>
      <trkpt lat="49.82654" lon="4.8342">
        <ele>229</ele>
        <time>2021-07-31T07:49:08.000Z</time>
      </trkpt>
      <trkpt lat="49.82656" lon="4.83425">
        <ele>229</ele>
        <time>2021-07-31T07:49:09.000Z</time>
      </trkpt>
      <trkpt lat="49.82658" lon="4.83429">
        <ele>229</ele>
        <time>2021-07-31T07:49:10.000Z</time>
      </trkpt>
      <trkpt lat="49.8266" lon="4.83433">
        <ele>229</ele>
        <time>2021-07-31T07:49:11.000Z</time>
      </trkpt>
      <trkpt lat="49.82662" lon="4.83438">
        <ele>230</ele>
        <time>2021-07-31T07:49:12.000Z</time>
      </trkpt>
      <trkpt lat="49.82664" lon="4.83442">
        <ele>230</ele>
        <time>2021-07-31T07:49:13.000Z</time>
      </trkpt>
      <trkpt lat="49.82666" lon="4.83446">
        <ele>230</ele>
        <time>2021-07-31T07:49:14.000Z</time>
      </trkpt>
      <trkpt lat="49.82668" lon="4.8345">
        <ele>230</ele>
        <time>2021-07-31T07:49:15.000Z</time>
      </trkpt>
      <trkpt lat="49.8267" lon="4.83454">
        <ele>230</ele>
        <time>2021-07-31T07:49:16.000Z</time>
      </trkpt>
      <trkpt lat="49.82672" lon="4.83458">
        <ele>231</ele>
        <time>2021-07-31T07:49:17.000Z</time>
      </trkpt>
      <trkpt lat="49.82674" lon="4.83461">
        <ele>231</ele>
        <time>2021-07-31T07:49:18.000Z</time>
      </trkpt>
      <trkpt lat="49.82676" lon="4.83465">
        <ele>231</ele>
        <time>2021-07-31T07:49:19.000Z</time>
      </trkpt>
      <trkpt lat="49.82677" lon="4.83469">
        <ele>232</ele>
        <time>2021-07-31T07:49:20.000Z</time>
      </trkpt>
      <trkpt lat="49.82679" lon="4.83472">
        <ele>232</ele>
        <time>2021-07-31T07:49:21.000Z</time>
      </trkpt>
      <trkpt lat="49.82681" lon="4.83476">
        <ele>232</ele>
        <time>2021-07-31T07:49:22.000Z</time>
      </trkpt>
      <trkpt lat="49.82683" lon="4.83479">
        <ele>232</ele>
        <time>2021-07-31T07:49:23.000Z</time>
      </trkpt>
      <trkpt lat="49.82685" lon="4.83483">
        <ele>233</ele>
        <time>2021-07-31T07:49:24.000Z</time>
      </trkpt>
      <trkpt lat="49.82687" lon="4.83487">
        <ele>233</ele>
        <time>2021-07-31T07:49:25.000Z</time>
      </trkpt>
      <trkpt lat="49.82688" lon="4.83491">
        <ele>233</ele>
        <time>2021-07-31T07:49:26.000Z</time>
      </trkpt>
      <trkpt lat="49.8269" lon="4.83495">
        <ele>234</ele>
        <time>2021-07-31T07:49:27.000Z</time>
      </trkpt>
      <trkpt lat="49.82692" lon="4.83499">
        <ele>234</ele>
        <time>2021-07-31T07:49:28.000Z</time>
      </trkpt>
      <trkpt lat="49.82694" lon="4.83503">
        <ele>234</ele>
        <time>2021-07-31T07:49:29.000Z</time>
      </trkpt>
      <trkpt lat="49.82695" lon="4.83507">
        <ele>235</ele>
        <time>2021-07-31T07:49:30.000Z</time>
      </trkpt>
      <trkpt lat="49.82697" lon="4.83511">
        <ele>235</ele>
        <time>2021-07-31T07:49:31.000Z</time>
      </trkpt>
      <trkpt lat="49.82699" lon="4.83514">
        <ele>236</ele>
        <time>2021-07-31T07:49:32.000Z</time>
      </trkpt>
      <trkpt lat="49.82701" lon="4.83518">
        <ele>236</ele>
        <time>2021-07-31T07:49:33.000Z</time>
      </trkpt>
      <trkpt lat="49.82702" lon="4.83522">
        <ele>236</ele>
        <time>2021-07-31T07:49:34.000Z</time>
      </trkpt>
      <trkpt lat="49.82703" lon="4.83525">
        <ele>237</ele>
        <time>2021-07-31T07:49:35.000Z</time>
      </trkpt>
      <trkpt lat="49.82705" lon="4.83529">
        <ele>237</ele>
        <time>2021-07-31T07:49:36.000Z</time>
      </trkpt>
      <trkpt lat="49.82706" lon="4.83533">
        <ele>237</ele>
        <time>2021-07-31T07:49:37.000Z</time>
      </trkpt>
      <trkpt lat="49.82707" lon="4.83537">
        <ele>238</ele>
        <time>2021-07-31T07:49:38.000Z</time>
      </trkpt>
      <trkpt lat="49.82708" lon="4.8354">
        <ele>238</ele>
        <time>2021-07-31T07:49:39.000Z</time>
      </trkpt>
      <trkpt lat="49.82709" lon="4.83544">
        <ele>238</ele>
        <time>2021-07-31T07:49:40.000Z</time>
      </trkpt>
      <trkpt lat="49.8271" lon="4.83547">
        <ele>238</ele>
        <time>2021-07-31T07:49:41.000Z</time>
      </trkpt>
      <trkpt lat="49.82712" lon="4.8355">
        <ele>239</ele>
        <time>2021-07-31T07:49:42.000Z</time>
      </trkpt>
      <trkpt lat="49.82713" lon="4.83554">
        <ele>239</ele>
        <time>2021-07-31T07:49:43.000Z</time>
      </trkpt>
      <trkpt lat="49.82715" lon="4.83558">
        <ele>239</ele>
        <time>2021-07-31T07:49:44.000Z</time>
      </trkpt>
      <trkpt lat="49.82717" lon="4.83561">
        <ele>239</ele>
        <time>2021-07-31T07:49:45.000Z</time>
      </trkpt>
      <trkpt lat="49.8272" lon="4.83563">
        <ele>239</ele>
        <time>2021-07-31T07:49:46.000Z</time>
      </trkpt>
      <trkpt lat="49.82722" lon="4.83566">
        <ele>239</ele>
        <time>2021-07-31T07:49:47.000Z</time>
      </trkpt>
      <trkpt lat="49.82724" lon="4.83568">
        <ele>240</ele>
        <time>2021-07-31T07:49:48.000Z</time>
      </trkpt>
      <trkpt lat="49.82727" lon="4.83571">
        <ele>240</ele>
        <time>2021-07-31T07:49:49.000Z</time>
      </trkpt>
      <trkpt lat="49.82729" lon="4.83574">
        <ele>240</ele>
        <time>2021-07-31T07:49:50.000Z</time>
      </trkpt>
      <trkpt lat="49.82732" lon="4.83577">
        <ele>240</ele>
        <time>2021-07-31T07:49:51.000Z</time>
      </trkpt>
      <trkpt lat="49.82734" lon="4.8358">
        <ele>241</ele>
        <time>2021-07-31T07:49:52.000Z</time>
      </trkpt>
      <trkpt lat="49.82735" lon="4.83584">
        <ele>241</ele>
        <time>2021-07-31T07:49:53.000Z</time>
      </trkpt>
      <trkpt lat="49.82737" lon="4.83587">
        <ele>241</ele>
        <time>2021-07-31T07:49:54.000Z</time>
      </trkpt>
      <trkpt lat="49.82739" lon="4.83591">
        <ele>241</ele>
        <time>2021-07-31T07:49:55.000Z</time>
      </trkpt>
      <trkpt lat="49.8274" lon="4.83595">
        <ele>242</ele>
        <time>2021-07-31T07:49:56.000Z</time>
      </trkpt>
      <trkpt lat="49.82742" lon="4.83598">
        <ele>242</ele>
        <time>2021-07-31T07:49:57.000Z</time>
      </trkpt>
      <trkpt lat="49.82744" lon="4.83601">
        <ele>242</ele>
        <time>2021-07-31T07:49:58.000Z</time>
      </trkpt>
      <trkpt lat="49.82746" lon="4.83605">
        <ele>243</ele>
        <time>2021-07-31T07:49:59.000Z</time>
      </trkpt>
      <trkpt lat="49.82748" lon="4.83608">
        <ele>243</ele>
        <time>2021-07-31T07:50:00.000Z</time>
      </trkpt>
      <trkpt lat="49.8275" lon="4.83612">
        <ele>243</ele>
        <time>2021-07-31T07:50:01.000Z</time>
      </trkpt>
      <trkpt lat="49.82752" lon="4.83615">
        <ele>244</ele>
        <time>2021-07-31T07:50:02.000Z</time>
      </trkpt>
      <trkpt lat="49.82755" lon="4.83619">
        <ele>244</ele>
        <time>2021-07-31T07:50:03.000Z</time>
      </trkpt>
      <trkpt lat="49.82757" lon="4.83622">
        <ele>245</ele>
        <time>2021-07-31T07:50:04.000Z</time>
      </trkpt>
      <trkpt lat="49.82758" lon="4.83626">
        <ele>245</ele>
        <time>2021-07-31T07:50:05.000Z</time>
      </trkpt>
      <trkpt lat="49.8276" lon="4.83629">
        <ele>245</ele>
        <time>2021-07-31T07:50:06.000Z</time>
      </trkpt>
      <trkpt lat="49.82762" lon="4.83633">
        <ele>246</ele>
        <time>2021-07-31T07:50:07.000Z</time>
      </trkpt>
      <trkpt lat="49.82764" lon="4.83636">
        <ele>246</ele>
        <time>2021-07-31T07:50:08.000Z</time>
      </trkpt>
      <trkpt lat="49.82765" lon="4.8364">
        <ele>246</ele>
        <time>2021-07-31T07:50:09.000Z</time>
      </trkpt>
      <trkpt lat="49.82767" lon="4.83644">
        <ele>247</ele>
        <time>2021-07-31T07:50:10.000Z</time>
      </trkpt>
      <trkpt lat="49.82769" lon="4.83648">
        <ele>247</ele>
        <time>2021-07-31T07:50:11.000Z</time>
      </trkpt>
      <trkpt lat="49.8277" lon="4.83652">
        <ele>248</ele>
        <time>2021-07-31T07:50:12.000Z</time>
      </trkpt>
      <trkpt lat="49.82772" lon="4.83656">
        <ele>248</ele>
        <time>2021-07-31T07:50:13.000Z</time>
      </trkpt>
      <trkpt lat="49.82773" lon="4.8366">
        <ele>249</ele>
        <time>2021-07-31T07:50:14.000Z</time>
      </trkpt>
      <trkpt lat="49.82775" lon="4.83663">
        <ele>249</ele>
        <time>2021-07-31T07:50:15.000Z</time>
      </trkpt>
      <trkpt lat="49.82776" lon="4.83667">
        <ele>249</ele>
        <time>2021-07-31T07:50:16.000Z</time>
      </trkpt>
      <trkpt lat="49.82778" lon="4.8367">
        <ele>250</ele>
        <time>2021-07-31T07:50:17.000Z</time>
      </trkpt>
      <trkpt lat="49.82779" lon="4.83674">
        <ele>250</ele>
        <time>2021-07-31T07:50:18.000Z</time>
      </trkpt>
      <trkpt lat="49.82781" lon="4.83678">
        <ele>250</ele>
        <time>2021-07-31T07:50:19.000Z</time>
      </trkpt>
      <trkpt lat="49.82783" lon="4.83681">
        <ele>251</ele>
        <time>2021-07-31T07:50:20.000Z</time>
      </trkpt>
      <trkpt lat="49.82784" lon="4.83684">
        <ele>251</ele>
        <time>2021-07-31T07:50:21.000Z</time>
      </trkpt>
      <trkpt lat="49.82786" lon="4.83688">
        <ele>251</ele>
        <time>2021-07-31T07:50:22.000Z</time>
      </trkpt>
      <trkpt lat="49.82787" lon="4.83691">
        <ele>252</ele>
        <time>2021-07-31T07:50:23.000Z</time>
      </trkpt>
      <trkpt lat="49.82789" lon="4.83694">
        <ele>252</ele>
        <time>2021-07-31T07:50:24.000Z</time>
      </trkpt>
      <trkpt lat="49.8279" lon="4.83697">
        <ele>252</ele>
        <time>2021-07-31T07:50:25.000Z</time>
      </trkpt>
      <trkpt lat="49.82791" lon="4.83701">
        <ele>253</ele>
        <time>2021-07-31T07:50:26.000Z</time>
      </trkpt>
      <trkpt lat="49.82791" lon="4.83705">
        <ele>253</ele>
        <time>2021-07-31T07:50:27.000Z</time>
      </trkpt>
      <trkpt lat="49.82792" lon="4.83709">
        <ele>253</ele>
        <time>2021-07-31T07:50:28.000Z</time>
      </trkpt>
      <trkpt lat="49.82793" lon="4.83713">
        <ele>254</ele>
        <time>2021-07-31T07:50:29.000Z</time>
      </trkpt>
      <trkpt lat="49.82794" lon="4.83717">
        <ele>254</ele>
        <time>2021-07-31T07:50:30.000Z</time>
      </trkpt>
      <trkpt lat="49.82795" lon="4.8372">
        <ele>254</ele>
        <time>2021-07-31T07:50:31.000Z</time>
      </trkpt>
      <trkpt lat="49.82796" lon="4.83724">
        <ele>254</ele>
        <time>2021-07-31T07:50:32.000Z</time>
      </trkpt>
      <trkpt lat="49.82798" lon="4.83728">
        <ele>254</ele>
        <time>2021-07-31T07:50:33.000Z</time>
      </trkpt>
      <trkpt lat="49.82799" lon="4.83732">
        <ele>255</ele>
        <time>2021-07-31T07:50:34.000Z</time>
      </trkpt>
      <trkpt lat="49.828" lon="4.83736">
        <ele>255</ele>
        <time>2021-07-31T07:50:35.000Z</time>
      </trkpt>
      <trkpt lat="49.82801" lon="4.8374">
        <ele>255</ele>
        <time>2021-07-31T07:50:36.000Z</time>
      </trkpt>
      <trkpt lat="49.82801" lon="4.83744">
        <ele>255</ele>
        <time>2021-07-31T07:50:37.000Z</time>
      </trkpt>
      <trkpt lat="49.82802" lon="4.83747">
        <ele>255</ele>
        <time>2021-07-31T07:50:38.000Z</time>
      </trkpt>
      <trkpt lat="49.82803" lon="4.83752">
        <ele>255</ele>
        <time>2021-07-31T07:50:39.000Z</time>
      </trkpt>
      <trkpt lat="49.82804" lon="4.83756">
        <ele>256</ele>
        <time>2021-07-31T07:50:40.000Z</time>
      </trkpt>
      <trkpt lat="49.82805" lon="4.83761">
        <ele>256</ele>
        <time>2021-07-31T07:50:41.000Z</time>
      </trkpt>
      <trkpt lat="49.82807" lon="4.83765">
        <ele>256</ele>
        <time>2021-07-31T07:50:42.000Z</time>
      </trkpt>
      <trkpt lat="49.82808" lon="4.83769">
        <ele>255</ele>
        <time>2021-07-31T07:50:43.000Z</time>
      </trkpt>
      <trkpt lat="49.82809" lon="4.83772">
        <ele>255</ele>
        <time>2021-07-31T07:50:44.000Z</time>
      </trkpt>
      <trkpt lat="49.8281" lon="4.83776">
        <ele>255</ele>
        <time>2021-07-31T07:50:45.000Z</time>
      </trkpt>
      <trkpt lat="49.82811" lon="4.8378">
        <ele>255</ele>
        <time>2021-07-31T07:50:46.000Z</time>
      </trkpt>
      <trkpt lat="49.82811" lon="4.83785">
        <ele>255</ele>
        <time>2021-07-31T07:50:47.000Z</time>
      </trkpt>
      <trkpt lat="49.82811" lon="4.83789">
        <ele>255</ele>
        <time>2021-07-31T07:50:48.000Z</time>
      </trkpt>
      <trkpt lat="49.82811" lon="4.83793">
        <ele>255</ele>
        <time>2021-07-31T07:50:49.000Z</time>
      </trkpt>
      <trkpt lat="49.82812" lon="4.83798">
        <ele>255</ele>
        <time>2021-07-31T07:50:50.000Z</time>
      </trkpt>
      <trkpt lat="49.82813" lon="4.83803">
        <ele>255</ele>
        <time>2021-07-31T07:50:51.000Z</time>
      </trkpt>
      <trkpt lat="49.82814" lon="4.83807">
        <ele>255</ele>
        <time>2021-07-31T07:50:52.000Z</time>
      </trkpt>
      <trkpt lat="49.82814" lon="4.83812">
        <ele>255</ele>
        <time>2021-07-31T07:50:53.000Z</time>
      </trkpt>
      <trkpt lat="49.82814" lon="4.83816">
        <ele>255</ele>
        <time>2021-07-31T07:50:54.000Z</time>
      </trkpt>
      <trkpt lat="49.82815" lon="4.8382">
        <ele>256</ele>
        <time>2021-07-31T07:50:55.000Z</time>
      </trkpt>
      <trkpt lat="49.82815" lon="4.83825">
        <ele>256</ele>
        <time>2021-07-31T07:50:56.000Z</time>
      </trkpt>
      <trkpt lat="49.82815" lon="4.83829">
        <ele>256</ele>
        <time>2021-07-31T07:50:57.000Z</time>
      </trkpt>
      <trkpt lat="49.82815" lon="4.83832">
        <ele>256</ele>
        <time>2021-07-31T07:50:58.000Z</time>
      </trkpt>
      <trkpt lat="49.82815" lon="4.83836">
        <ele>256</ele>
        <time>2021-07-31T07:50:59.000Z</time>
      </trkpt>
      <trkpt lat="49.82815" lon="4.8384">
        <ele>257</ele>
        <time>2021-07-31T07:51:00.000Z</time>
      </trkpt>
      <trkpt lat="49.82815" lon="4.83844">
        <ele>257</ele>
        <time>2021-07-31T07:51:01.000Z</time>
      </trkpt>
      <trkpt lat="49.82815" lon="4.83848">
        <ele>257</ele>
        <time>2021-07-31T07:51:02.000Z</time>
      </trkpt>
      <trkpt lat="49.82815" lon="4.83852">
        <ele>257</ele>
        <time>2021-07-31T07:51:03.000Z</time>
      </trkpt>
      <trkpt lat="49.82815" lon="4.83856">
        <ele>257</ele>
        <time>2021-07-31T07:51:04.000Z</time>
      </trkpt>
      <trkpt lat="49.82815" lon="4.83859">
        <ele>258</ele>
        <time>2021-07-31T07:51:05.000Z</time>
      </trkpt>
      <trkpt lat="49.82816" lon="4.83863">
        <ele>258</ele>
        <time>2021-07-31T07:51:06.000Z</time>
      </trkpt>
      <trkpt lat="49.82815" lon="4.83867">
        <ele>258</ele>
        <time>2021-07-31T07:51:07.000Z</time>
      </trkpt>
      <trkpt lat="49.82814" lon="4.83871">
        <ele>258</ele>
        <time>2021-07-31T07:51:08.000Z</time>
      </trkpt>
      <trkpt lat="49.82814" lon="4.83874">
        <ele>258</ele>
        <time>2021-07-31T07:51:09.000Z</time>
      </trkpt>
      <trkpt lat="49.82814" lon="4.83877">
        <ele>258</ele>
        <time>2021-07-31T07:51:10.000Z</time>
      </trkpt>
      <trkpt lat="49.82814" lon="4.8388">
        <ele>259</ele>
        <time>2021-07-31T07:51:11.000Z</time>
      </trkpt>
      <trkpt lat="49.82814" lon="4.83884">
        <ele>259</ele>
        <time>2021-07-31T07:51:12.000Z</time>
      </trkpt>
      <trkpt lat="49.82814" lon="4.83888">
        <ele>259</ele>
        <time>2021-07-31T07:51:13.000Z</time>
      </trkpt>
      <trkpt lat="49.82815" lon="4.83891">
        <ele>259</ele>
        <time>2021-07-31T07:51:14.000Z</time>
      </trkpt>
      <trkpt lat="49.82815" lon="4.83894">
        <ele>259</ele>
        <time>2021-07-31T07:51:15.000Z</time>
      </trkpt>
      <trkpt lat="49.82815" lon="4.83898">
        <ele>259</ele>
        <time>2021-07-31T07:51:16.000Z</time>
      </trkpt>
      <trkpt lat="49.82814" lon="4.83902">
        <ele>260</ele>
        <time>2021-07-31T07:51:17.000Z</time>
      </trkpt>
      <trkpt lat="49.82814" lon="4.83905">
        <ele>260</ele>
        <time>2021-07-31T07:51:18.000Z</time>
      </trkpt>
      <trkpt lat="49.82814" lon="4.83909">
        <ele>260</ele>
        <time>2021-07-31T07:51:19.000Z</time>
      </trkpt>
      <trkpt lat="49.82814" lon="4.83913">
        <ele>261</ele>
        <time>2021-07-31T07:51:20.000Z</time>
      </trkpt>
      <trkpt lat="49.82814" lon="4.83917">
        <ele>261</ele>
        <time>2021-07-31T07:51:21.000Z</time>
      </trkpt>
      <trkpt lat="49.82814" lon="4.83921">
        <ele>261</ele>
        <time>2021-07-31T07:51:22.000Z</time>
      </trkpt>
      <trkpt lat="49.82815" lon="4.83925">
        <ele>261</ele>
        <time>2021-07-31T07:51:23.000Z</time>
      </trkpt>
      <trkpt lat="49.82815" lon="4.8393">
        <ele>262</ele>
        <time>2021-07-31T07:51:24.000Z</time>
      </trkpt>
      <trkpt lat="49.82816" lon="4.83934">
        <ele>262</ele>
        <time>2021-07-31T07:51:25.000Z</time>
      </trkpt>
      <trkpt lat="49.82815" lon="4.83939">
        <ele>262</ele>
        <time>2021-07-31T07:51:26.000Z</time>
      </trkpt>
      <trkpt lat="49.82815" lon="4.83944">
        <ele>263</ele>
        <time>2021-07-31T07:51:27.000Z</time>
      </trkpt>
      <trkpt lat="49.82814" lon="4.83949">
        <ele>263</ele>
        <time>2021-07-31T07:51:28.000Z</time>
      </trkpt>
      <trkpt lat="49.82813" lon="4.83953">
        <ele>263</ele>
        <time>2021-07-31T07:51:29.000Z</time>
      </trkpt>
      <trkpt lat="49.82812" lon="4.83957">
        <ele>263</ele>
        <time>2021-07-31T07:51:30.000Z</time>
      </trkpt>
      <trkpt lat="49.82811" lon="4.83962">
        <ele>264</ele>
        <time>2021-07-31T07:51:31.000Z</time>
      </trkpt>
      <trkpt lat="49.82811" lon="4.83966">
        <ele>264</ele>
        <time>2021-07-31T07:51:32.000Z</time>
      </trkpt>
      <trkpt lat="49.8281" lon="4.8397">
        <ele>264</ele>
        <time>2021-07-31T07:51:33.000Z</time>
      </trkpt>
      <trkpt lat="49.8281" lon="4.83975">
        <ele>264</ele>
        <time>2021-07-31T07:51:34.000Z</time>
      </trkpt>
      <trkpt lat="49.82809" lon="4.83979">
        <ele>264</ele>
        <time>2021-07-31T07:51:35.000Z</time>
      </trkpt>
      <trkpt lat="49.82809" lon="4.83983">
        <ele>265</ele>
        <time>2021-07-31T07:51:36.000Z</time>
      </trkpt>
      <trkpt lat="49.82808" lon="4.83986">
        <ele>265</ele>
        <time>2021-07-31T07:51:37.000Z</time>
      </trkpt>
      <trkpt lat="49.82807" lon="4.8399">
        <ele>265</ele>
        <time>2021-07-31T07:51:38.000Z</time>
      </trkpt>
      <trkpt lat="49.82806" lon="4.83993">
        <ele>265</ele>
        <time>2021-07-31T07:51:39.000Z</time>
      </trkpt>
      <trkpt lat="49.82806" lon="4.83997">
        <ele>265</ele>
        <time>2021-07-31T07:51:40.000Z</time>
      </trkpt>
      <trkpt lat="49.82804" lon="4.84001">
        <ele>266</ele>
        <time>2021-07-31T07:51:41.000Z</time>
      </trkpt>
      <trkpt lat="49.82804" lon="4.84006">
        <ele>266</ele>
        <time>2021-07-31T07:51:42.000Z</time>
      </trkpt>
      <trkpt lat="49.82803" lon="4.84011">
        <ele>266</ele>
        <time>2021-07-31T07:51:43.000Z</time>
      </trkpt>
      <trkpt lat="49.82803" lon="4.84016">
        <ele>266</ele>
        <time>2021-07-31T07:51:44.000Z</time>
      </trkpt>
      <trkpt lat="49.82802" lon="4.84021">
        <ele>266</ele>
        <time>2021-07-31T07:51:45.000Z</time>
      </trkpt>
      <trkpt lat="49.82802" lon="4.84025">
        <ele>266</ele>
        <time>2021-07-31T07:51:46.000Z</time>
      </trkpt>
      <trkpt lat="49.82801" lon="4.84029">
        <ele>267</ele>
        <time>2021-07-31T07:51:47.000Z</time>
      </trkpt>
      <trkpt lat="49.828" lon="4.84033">
        <ele>267</ele>
        <time>2021-07-31T07:51:48.000Z</time>
      </trkpt>
      <trkpt lat="49.82799" lon="4.84038">
        <ele>267</ele>
        <time>2021-07-31T07:51:49.000Z</time>
      </trkpt>
      <trkpt lat="49.82798" lon="4.84042">
        <ele>267</ele>
        <time>2021-07-31T07:51:50.000Z</time>
      </trkpt>
      <trkpt lat="49.82796" lon="4.84046">
        <ele>267</ele>
        <time>2021-07-31T07:51:51.000Z</time>
      </trkpt>
      <trkpt lat="49.82794" lon="4.84049">
        <ele>267</ele>
        <time>2021-07-31T07:51:52.000Z</time>
      </trkpt>
      <trkpt lat="49.82793" lon="4.84053">
        <ele>267</ele>
        <time>2021-07-31T07:51:53.000Z</time>
      </trkpt>
      <trkpt lat="49.82791" lon="4.84057">
        <ele>267</ele>
        <time>2021-07-31T07:51:54.000Z</time>
      </trkpt>
      <trkpt lat="49.8279" lon="4.8406">
        <ele>268</ele>
        <time>2021-07-31T07:51:55.000Z</time>
      </trkpt>
      <trkpt lat="49.82789" lon="4.84064">
        <ele>268</ele>
        <time>2021-07-31T07:51:56.000Z</time>
      </trkpt>
      <trkpt lat="49.82787" lon="4.84067">
        <ele>268</ele>
        <time>2021-07-31T07:51:57.000Z</time>
      </trkpt>
      <trkpt lat="49.82786" lon="4.84071">
        <ele>268</ele>
        <time>2021-07-31T07:51:58.000Z</time>
      </trkpt>
      <trkpt lat="49.82785" lon="4.84075">
        <ele>268</ele>
        <time>2021-07-31T07:51:59.000Z</time>
      </trkpt>
      <trkpt lat="49.82784" lon="4.84079">
        <ele>268</ele>
        <time>2021-07-31T07:52:00.000Z</time>
      </trkpt>
      <trkpt lat="49.82782" lon="4.84084">
        <ele>268</ele>
        <time>2021-07-31T07:52:01.000Z</time>
      </trkpt>
      <trkpt lat="49.8278" lon="4.84087">
        <ele>269</ele>
        <time>2021-07-31T07:52:02.000Z</time>
      </trkpt>
      <trkpt lat="49.82779" lon="4.84091">
        <ele>269</ele>
        <time>2021-07-31T07:52:03.000Z</time>
      </trkpt>
      <trkpt lat="49.82777" lon="4.84095">
        <ele>269</ele>
        <time>2021-07-31T07:52:04.000Z</time>
      </trkpt>
      <trkpt lat="49.82776" lon="4.841">
        <ele>269</ele>
        <time>2021-07-31T07:52:05.000Z</time>
      </trkpt>
      <trkpt lat="49.82774" lon="4.84104">
        <ele>269</ele>
        <time>2021-07-31T07:52:06.000Z</time>
      </trkpt>
      <trkpt lat="49.82773" lon="4.84108">
        <ele>269</ele>
        <time>2021-07-31T07:52:07.000Z</time>
      </trkpt>
      <trkpt lat="49.82772" lon="4.84112">
        <ele>269</ele>
        <time>2021-07-31T07:52:08.000Z</time>
      </trkpt>
      <trkpt lat="49.8277" lon="4.84116">
        <ele>269</ele>
        <time>2021-07-31T07:52:09.000Z</time>
      </trkpt>
      <trkpt lat="49.82768" lon="4.8412">
        <ele>269</ele>
        <time>2021-07-31T07:52:10.000Z</time>
      </trkpt>
      <trkpt lat="49.82767" lon="4.84124">
        <ele>269</ele>
        <time>2021-07-31T07:52:11.000Z</time>
      </trkpt>
      <trkpt lat="49.82766" lon="4.84129">
        <ele>269</ele>
        <time>2021-07-31T07:52:12.000Z</time>
      </trkpt>
      <trkpt lat="49.82764" lon="4.84133">
        <ele>269</ele>
        <time>2021-07-31T07:52:13.000Z</time>
      </trkpt>
      <trkpt lat="49.82762" lon="4.84137">
        <ele>269</ele>
        <time>2021-07-31T07:52:14.000Z</time>
      </trkpt>
      <trkpt lat="49.82761" lon="4.84141">
        <ele>270</ele>
        <time>2021-07-31T07:52:15.000Z</time>
      </trkpt>
      <trkpt lat="49.8276" lon="4.84145">
        <ele>270</ele>
        <time>2021-07-31T07:52:16.000Z</time>
      </trkpt>
      <trkpt lat="49.82759" lon="4.84149">
        <ele>270</ele>
        <time>2021-07-31T07:52:17.000Z</time>
      </trkpt>
      <trkpt lat="49.82758" lon="4.84153">
        <ele>270</ele>
        <time>2021-07-31T07:52:18.000Z</time>
      </trkpt>
      <trkpt lat="49.82757" lon="4.84158">
        <ele>271</ele>
        <time>2021-07-31T07:52:19.000Z</time>
      </trkpt>
      <trkpt lat="49.82756" lon="4.84162">
        <ele>271</ele>
        <time>2021-07-31T07:52:20.000Z</time>
      </trkpt>
      <trkpt lat="49.82755" lon="4.84165">
        <ele>272</ele>
        <time>2021-07-31T07:52:21.000Z</time>
      </trkpt>
      <trkpt lat="49.82753" lon="4.84169">
        <ele>272</ele>
        <time>2021-07-31T07:52:22.000Z</time>
      </trkpt>
      <trkpt lat="49.82752" lon="4.84173">
        <ele>272</ele>
        <time>2021-07-31T07:52:23.000Z</time>
      </trkpt>
      <trkpt lat="49.82751" lon="4.84176">
        <ele>273</ele>
        <time>2021-07-31T07:52:24.000Z</time>
      </trkpt>
      <trkpt lat="49.8275" lon="4.84178">
        <ele>273</ele>
        <time>2021-07-31T07:52:25.000Z</time>
      </trkpt>
      <trkpt lat="49.82749" lon="4.84181">
        <ele>273</ele>
        <time>2021-07-31T07:52:26.000Z</time>
      </trkpt>
      <trkpt lat="49.82748" lon="4.84184">
        <ele>273</ele>
        <time>2021-07-31T07:52:27.000Z</time>
      </trkpt>
      <trkpt lat="49.82747" lon="4.84187">
        <ele>274</ele>
        <time>2021-07-31T07:52:28.000Z</time>
      </trkpt>
      <trkpt lat="49.82746" lon="4.84191">
        <ele>274</ele>
        <time>2021-07-31T07:52:29.000Z</time>
      </trkpt>
      <trkpt lat="49.82744" lon="4.84194">
        <ele>274</ele>
        <time>2021-07-31T07:52:30.000Z</time>
      </trkpt>
      <trkpt lat="49.82743" lon="4.84197">
        <ele>274</ele>
        <time>2021-07-31T07:52:31.000Z</time>
      </trkpt>
      <trkpt lat="49.82741" lon="4.84201">
        <ele>274</ele>
        <time>2021-07-31T07:52:32.000Z</time>
      </trkpt>
      <trkpt lat="49.8274" lon="4.84204">
        <ele>275</ele>
        <time>2021-07-31T07:52:33.000Z</time>
      </trkpt>
      <trkpt lat="49.82739" lon="4.84207">
        <ele>275</ele>
        <time>2021-07-31T07:52:34.000Z</time>
      </trkpt>
      <trkpt lat="49.82738" lon="4.84209">
        <ele>275</ele>
        <time>2021-07-31T07:52:35.000Z</time>
      </trkpt>
      <trkpt lat="49.82738" lon="4.84212">
        <ele>275</ele>
        <time>2021-07-31T07:52:36.000Z</time>
      </trkpt>
      <trkpt lat="49.82737" lon="4.84214">
        <ele>276</ele>
        <time>2021-07-31T07:52:37.000Z</time>
      </trkpt>
      <trkpt lat="49.82735" lon="4.84217">
        <ele>276</ele>
        <time>2021-07-31T07:52:38.000Z</time>
      </trkpt>
      <trkpt lat="49.82734" lon="4.84221">
        <ele>277</ele>
        <time>2021-07-31T07:52:39.000Z</time>
      </trkpt>
      <trkpt lat="49.82733" lon="4.84225">
        <ele>277</ele>
        <time>2021-07-31T07:52:40.000Z</time>
      </trkpt>
      <trkpt lat="49.82732" lon="4.84229">
        <ele>277</ele>
        <time>2021-07-31T07:52:41.000Z</time>
      </trkpt>
      <trkpt lat="49.82731" lon="4.84232">
        <ele>278</ele>
        <time>2021-07-31T07:52:42.000Z</time>
      </trkpt>
      <trkpt lat="49.82729" lon="4.84236">
        <ele>278</ele>
        <time>2021-07-31T07:52:43.000Z</time>
      </trkpt>
      <trkpt lat="49.82728" lon="4.8424">
        <ele>278</ele>
        <time>2021-07-31T07:52:44.000Z</time>
      </trkpt>
      <trkpt lat="49.82727" lon="4.84243">
        <ele>278</ele>
        <time>2021-07-31T07:52:45.000Z</time>
      </trkpt>
      <trkpt lat="49.82726" lon="4.84247">
        <ele>279</ele>
        <time>2021-07-31T07:52:46.000Z</time>
      </trkpt>
      <trkpt lat="49.82724" lon="4.84249">
        <ele>279</ele>
        <time>2021-07-31T07:52:47.000Z</time>
      </trkpt>
      <trkpt lat="49.82723" lon="4.84253">
        <ele>279</ele>
        <time>2021-07-31T07:52:48.000Z</time>
      </trkpt>
      <trkpt lat="49.82722" lon="4.84257">
        <ele>279</ele>
        <time>2021-07-31T07:52:49.000Z</time>
      </trkpt>
      <trkpt lat="49.8272" lon="4.8426">
        <ele>280</ele>
        <time>2021-07-31T07:52:50.000Z</time>
      </trkpt>
      <trkpt lat="49.82719" lon="4.84263">
        <ele>280</ele>
        <time>2021-07-31T07:52:51.000Z</time>
      </trkpt>
      <trkpt lat="49.82718" lon="4.84267">
        <ele>280</ele>
        <time>2021-07-31T07:52:52.000Z</time>
      </trkpt>
      <trkpt lat="49.82718" lon="4.8427">
        <ele>280</ele>
        <time>2021-07-31T07:52:53.000Z</time>
      </trkpt>
      <trkpt lat="49.82716" lon="4.84273">
        <ele>280</ele>
        <time>2021-07-31T07:52:54.000Z</time>
      </trkpt>
      <trkpt lat="49.82715" lon="4.84276">
        <ele>281</ele>
        <time>2021-07-31T07:52:55.000Z</time>
      </trkpt>
      <trkpt lat="49.82714" lon="4.84279">
        <ele>281</ele>
        <time>2021-07-31T07:52:56.000Z</time>
      </trkpt>
      <trkpt lat="49.82714" lon="4.84282">
        <ele>281</ele>
        <time>2021-07-31T07:52:57.000Z</time>
      </trkpt>
      <trkpt lat="49.82713" lon="4.84285">
        <ele>281</ele>
        <time>2021-07-31T07:52:58.000Z</time>
      </trkpt>
      <trkpt lat="49.82712" lon="4.84289">
        <ele>281</ele>
        <time>2021-07-31T07:52:59.000Z</time>
      </trkpt>
      <trkpt lat="49.82711" lon="4.84293">
        <ele>281</ele>
        <time>2021-07-31T07:53:00.000Z</time>
      </trkpt>
      <trkpt lat="49.8271" lon="4.84297">
        <ele>282</ele>
        <time>2021-07-31T07:53:01.000Z</time>
      </trkpt>
      <trkpt lat="49.82709" lon="4.84301">
        <ele>282</ele>
        <time>2021-07-31T07:53:02.000Z</time>
      </trkpt>
      <trkpt lat="49.82709" lon="4.84306">
        <ele>282</ele>
        <time>2021-07-31T07:53:03.000Z</time>
      </trkpt>
      <trkpt lat="49.82709" lon="4.84311">
        <ele>282</ele>
        <time>2021-07-31T07:53:04.000Z</time>
      </trkpt>
      <trkpt lat="49.82708" lon="4.84316">
        <ele>282</ele>
        <time>2021-07-31T07:53:05.000Z</time>
      </trkpt>
      <trkpt lat="49.82708" lon="4.84321">
        <ele>283</ele>
        <time>2021-07-31T07:53:06.000Z</time>
      </trkpt>
      <trkpt lat="49.82708" lon="4.84326">
        <ele>283</ele>
        <time>2021-07-31T07:53:07.000Z</time>
      </trkpt>
      <trkpt lat="49.82709" lon="4.8433">
        <ele>283</ele>
        <time>2021-07-31T07:53:08.000Z</time>
      </trkpt>
      <trkpt lat="49.82709" lon="4.84334">
        <ele>284</ele>
        <time>2021-07-31T07:53:09.000Z</time>
      </trkpt>
      <trkpt lat="49.82711" lon="4.84338">
        <ele>284</ele>
        <time>2021-07-31T07:53:10.000Z</time>
      </trkpt>
      <trkpt lat="49.82712" lon="4.84343">
        <ele>284</ele>
        <time>2021-07-31T07:53:11.000Z</time>
      </trkpt>
      <trkpt lat="49.82714" lon="4.84346">
        <ele>284</ele>
        <time>2021-07-31T07:53:12.000Z</time>
      </trkpt>
      <trkpt lat="49.82715" lon="4.8435">
        <ele>285</ele>
        <time>2021-07-31T07:53:13.000Z</time>
      </trkpt>
      <trkpt lat="49.82716" lon="4.84354">
        <ele>285</ele>
        <time>2021-07-31T07:53:14.000Z</time>
      </trkpt>
      <trkpt lat="49.82717" lon="4.84357">
        <ele>285</ele>
        <time>2021-07-31T07:53:15.000Z</time>
      </trkpt>
      <trkpt lat="49.82718" lon="4.84361">
        <ele>285</ele>
        <time>2021-07-31T07:53:16.000Z</time>
      </trkpt>
      <trkpt lat="49.8272" lon="4.84365">
        <ele>285</ele>
        <time>2021-07-31T07:53:17.000Z</time>
      </trkpt>
      <trkpt lat="49.82721" lon="4.84369">
        <ele>285</ele>
        <time>2021-07-31T07:53:18.000Z</time>
      </trkpt>
      <trkpt lat="49.82722" lon="4.84372">
        <ele>286</ele>
        <time>2021-07-31T07:53:19.000Z</time>
      </trkpt>
      <trkpt lat="49.82724" lon="4.84375">
        <ele>286</ele>
        <time>2021-07-31T07:53:20.000Z</time>
      </trkpt>
      <trkpt lat="49.82726" lon="4.84378">
        <ele>286</ele>
        <time>2021-07-31T07:53:21.000Z</time>
      </trkpt>
      <trkpt lat="49.82727" lon="4.8438">
        <ele>286</ele>
        <time>2021-07-31T07:53:22.000Z</time>
      </trkpt>
      <trkpt lat="49.82729" lon="4.84383">
        <ele>287</ele>
        <time>2021-07-31T07:53:23.000Z</time>
      </trkpt>
      <trkpt lat="49.82731" lon="4.84385">
        <ele>287</ele>
        <time>2021-07-31T07:53:24.000Z</time>
      </trkpt>
      <trkpt lat="49.82732" lon="4.84388">
        <ele>287</ele>
        <time>2021-07-31T07:53:25.000Z</time>
      </trkpt>
      <trkpt lat="49.82734" lon="4.8439">
        <ele>288</ele>
        <time>2021-07-31T07:53:26.000Z</time>
      </trkpt>
      <trkpt lat="49.82736" lon="4.84394">
        <ele>288</ele>
        <time>2021-07-31T07:53:27.000Z</time>
      </trkpt>
      <trkpt lat="49.82738" lon="4.84396">
        <ele>288</ele>
        <time>2021-07-31T07:53:28.000Z</time>
      </trkpt>
      <trkpt lat="49.8274" lon="4.84399">
        <ele>289</ele>
        <time>2021-07-31T07:53:29.000Z</time>
      </trkpt>
      <trkpt lat="49.82743" lon="4.84402">
        <ele>289</ele>
        <time>2021-07-31T07:53:30.000Z</time>
      </trkpt>
      <trkpt lat="49.82745" lon="4.84404">
        <ele>290</ele>
        <time>2021-07-31T07:53:31.000Z</time>
      </trkpt>
      <trkpt lat="49.82746" lon="4.84407">
        <ele>290</ele>
        <time>2021-07-31T07:53:32.000Z</time>
      </trkpt>
      <trkpt lat="49.82748" lon="4.84409">
        <ele>290</ele>
        <time>2021-07-31T07:53:33.000Z</time>
      </trkpt>
      <trkpt lat="49.8275" lon="4.84412">
        <ele>291</ele>
        <time>2021-07-31T07:53:34.000Z</time>
      </trkpt>
      <trkpt lat="49.82752" lon="4.84414">
        <ele>291</ele>
        <time>2021-07-31T07:53:35.000Z</time>
      </trkpt>
      <trkpt lat="49.82753" lon="4.84417">
        <ele>292</ele>
        <time>2021-07-31T07:53:36.000Z</time>
      </trkpt>
      <trkpt lat="49.82755" lon="4.84419">
        <ele>292</ele>
        <time>2021-07-31T07:53:37.000Z</time>
      </trkpt>
      <trkpt lat="49.82757" lon="4.84421">
        <ele>292</ele>
        <time>2021-07-31T07:53:38.000Z</time>
      </trkpt>
      <trkpt lat="49.82758" lon="4.84424">
        <ele>292</ele>
        <time>2021-07-31T07:53:39.000Z</time>
      </trkpt>
      <trkpt lat="49.8276" lon="4.84427">
        <ele>293</ele>
        <time>2021-07-31T07:53:40.000Z</time>
      </trkpt>
      <trkpt lat="49.82761" lon="4.8443">
        <ele>293</ele>
        <time>2021-07-31T07:53:41.000Z</time>
      </trkpt>
      <trkpt lat="49.82762" lon="4.84433">
        <ele>293</ele>
        <time>2021-07-31T07:53:42.000Z</time>
      </trkpt>
      <trkpt lat="49.82764" lon="4.84436">
        <ele>294</ele>
        <time>2021-07-31T07:53:43.000Z</time>
      </trkpt>
      <trkpt lat="49.82765" lon="4.84439">
        <ele>294</ele>
        <time>2021-07-31T07:53:44.000Z</time>
      </trkpt>
      <trkpt lat="49.82766" lon="4.84442">
        <ele>294</ele>
        <time>2021-07-31T07:53:45.000Z</time>
      </trkpt>
      <trkpt lat="49.82767" lon="4.84445">
        <ele>294</ele>
        <time>2021-07-31T07:53:46.000Z</time>
      </trkpt>
      <trkpt lat="49.82769" lon="4.84449">
        <ele>295</ele>
        <time>2021-07-31T07:53:47.000Z</time>
      </trkpt>
      <trkpt lat="49.8277" lon="4.84452">
        <ele>295</ele>
        <time>2021-07-31T07:53:48.000Z</time>
      </trkpt>
      <trkpt lat="49.82772" lon="4.84455">
        <ele>295</ele>
        <time>2021-07-31T07:53:49.000Z</time>
      </trkpt>
      <trkpt lat="49.82773" lon="4.84458">
        <ele>296</ele>
        <time>2021-07-31T07:53:50.000Z</time>
      </trkpt>
      <trkpt lat="49.82774" lon="4.84461">
        <ele>296</ele>
        <time>2021-07-31T07:53:51.000Z</time>
      </trkpt>
      <trkpt lat="49.82776" lon="4.84464">
        <ele>296</ele>
        <time>2021-07-31T07:53:52.000Z</time>
      </trkpt>
      <trkpt lat="49.82777" lon="4.84468">
        <ele>297</ele>
        <time>2021-07-31T07:53:53.000Z</time>
      </trkpt>
      <trkpt lat="49.82778" lon="4.84471">
        <ele>297</ele>
        <time>2021-07-31T07:53:54.000Z</time>
      </trkpt>
      <trkpt lat="49.8278" lon="4.84475">
        <ele>297</ele>
        <time>2021-07-31T07:53:55.000Z</time>
      </trkpt>
      <trkpt lat="49.82781" lon="4.84478">
        <ele>298</ele>
        <time>2021-07-31T07:53:56.000Z</time>
      </trkpt>
      <trkpt lat="49.82783" lon="4.84481">
        <ele>298</ele>
        <time>2021-07-31T07:53:57.000Z</time>
      </trkpt>
      <trkpt lat="49.82784" lon="4.84484">
        <ele>298</ele>
        <time>2021-07-31T07:53:58.000Z</time>
      </trkpt>
      <trkpt lat="49.82786" lon="4.84487">
        <ele>299</ele>
        <time>2021-07-31T07:53:59.000Z</time>
      </trkpt>
      <trkpt lat="49.82788" lon="4.8449">
        <ele>299</ele>
        <time>2021-07-31T07:54:00.000Z</time>
      </trkpt>
      <trkpt lat="49.82788" lon="4.84492">
        <ele>299</ele>
        <time>2021-07-31T07:54:01.000Z</time>
      </trkpt>
      <trkpt lat="49.82789" lon="4.84495">
        <ele>300</ele>
        <time>2021-07-31T07:54:02.000Z</time>
      </trkpt>
      <trkpt lat="49.8279" lon="4.84498">
        <ele>300</ele>
        <time>2021-07-31T07:54:03.000Z</time>
      </trkpt>
      <trkpt lat="49.82791" lon="4.845">
        <ele>300</ele>
        <time>2021-07-31T07:54:04.000Z</time>
      </trkpt>
      <trkpt lat="49.82792" lon="4.84504">
        <ele>300</ele>
        <time>2021-07-31T07:54:05.000Z</time>
      </trkpt>
      <trkpt lat="49.82794" lon="4.84507">
        <ele>301</ele>
        <time>2021-07-31T07:54:06.000Z</time>
      </trkpt>
      <trkpt lat="49.82795" lon="4.8451">
        <ele>301</ele>
        <time>2021-07-31T07:54:07.000Z</time>
      </trkpt>
      <trkpt lat="49.82796" lon="4.84513">
        <ele>301</ele>
        <time>2021-07-31T07:54:08.000Z</time>
      </trkpt>
      <trkpt lat="49.82798" lon="4.84516">
        <ele>301</ele>
        <time>2021-07-31T07:54:09.000Z</time>
      </trkpt>
      <trkpt lat="49.82799" lon="4.84519">
        <ele>302</ele>
        <time>2021-07-31T07:54:10.000Z</time>
      </trkpt>
      <trkpt lat="49.82801" lon="4.84522">
        <ele>302</ele>
        <time>2021-07-31T07:54:11.000Z</time>
      </trkpt>
      <trkpt lat="49.82802" lon="4.84525">
        <ele>302</ele>
        <time>2021-07-31T07:54:12.000Z</time>
      </trkpt>
      <trkpt lat="49.82803" lon="4.84528">
        <ele>303</ele>
        <time>2021-07-31T07:54:13.000Z</time>
      </trkpt>
      <trkpt lat="49.82804" lon="4.84531">
        <ele>303</ele>
        <time>2021-07-31T07:54:14.000Z</time>
      </trkpt>
      <trkpt lat="49.82805" lon="4.84534">
        <ele>303</ele>
        <time>2021-07-31T07:54:15.000Z</time>
      </trkpt>
      <trkpt lat="49.82806" lon="4.84537">
        <ele>304</ele>
        <time>2021-07-31T07:54:16.000Z</time>
      </trkpt>
      <trkpt lat="49.82808" lon="4.8454">
        <ele>304</ele>
        <time>2021-07-31T07:54:17.000Z</time>
      </trkpt>
      <trkpt lat="49.82809" lon="4.84542">
        <ele>305</ele>
        <time>2021-07-31T07:54:18.000Z</time>
      </trkpt>
      <trkpt lat="49.8281" lon="4.84545">
        <ele>305</ele>
        <time>2021-07-31T07:54:19.000Z</time>
      </trkpt>
      <trkpt lat="49.82812" lon="4.84547">
        <ele>306</ele>
        <time>2021-07-31T07:54:20.000Z</time>
      </trkpt>
      <trkpt lat="49.82813" lon="4.84551">
        <ele>306</ele>
        <time>2021-07-31T07:54:21.000Z</time>
      </trkpt>
      <trkpt lat="49.82814" lon="4.84554">
        <ele>307</ele>
        <time>2021-07-31T07:54:22.000Z</time>
      </trkpt>
      <trkpt lat="49.82815" lon="4.84556">
        <ele>307</ele>
        <time>2021-07-31T07:54:23.000Z</time>
      </trkpt>
      <trkpt lat="49.82816" lon="4.84559">
        <ele>308</ele>
        <time>2021-07-31T07:54:24.000Z</time>
      </trkpt>
      <trkpt lat="49.82817" lon="4.84561">
        <ele>308</ele>
        <time>2021-07-31T07:54:25.000Z</time>
      </trkpt>
      <trkpt lat="49.82818" lon="4.84564">
        <ele>309</ele>
        <time>2021-07-31T07:54:26.000Z</time>
      </trkpt>
      <trkpt lat="49.82818" lon="4.84567">
        <ele>309</ele>
        <time>2021-07-31T07:54:27.000Z</time>
      </trkpt>
      <trkpt lat="49.82819" lon="4.8457">
        <ele>310</ele>
        <time>2021-07-31T07:54:28.000Z</time>
      </trkpt>
      <trkpt lat="49.8282" lon="4.84574">
        <ele>310</ele>
        <time>2021-07-31T07:54:29.000Z</time>
      </trkpt>
      <trkpt lat="49.82822" lon="4.84577">
        <ele>311</ele>
        <time>2021-07-31T07:54:30.000Z</time>
      </trkpt>
      <trkpt lat="49.82823" lon="4.8458">
        <ele>312</ele>
        <time>2021-07-31T07:54:31.000Z</time>
      </trkpt>
      <trkpt lat="49.82823" lon="4.84583">
        <ele>312</ele>
        <time>2021-07-31T07:54:32.000Z</time>
      </trkpt>
      <trkpt lat="49.82824" lon="4.84587">
        <ele>313</ele>
        <time>2021-07-31T07:54:33.000Z</time>
      </trkpt>
      <trkpt lat="49.82824" lon="4.8459">
        <ele>313</ele>
        <time>2021-07-31T07:54:34.000Z</time>
      </trkpt>
      <trkpt lat="49.82825" lon="4.84593">
        <ele>313</ele>
        <time>2021-07-31T07:54:35.000Z</time>
      </trkpt>
      <trkpt lat="49.82825" lon="4.84595">
        <ele>314</ele>
        <time>2021-07-31T07:54:36.000Z</time>
      </trkpt>
      <trkpt lat="49.82826" lon="4.84598">
        <ele>314</ele>
        <time>2021-07-31T07:54:37.000Z</time>
      </trkpt>
      <trkpt lat="49.82827" lon="4.846">
        <ele>314</ele>
        <time>2021-07-31T07:54:38.000Z</time>
      </trkpt>
      <trkpt lat="49.82827" lon="4.84604">
        <ele>315</ele>
        <time>2021-07-31T07:54:39.000Z</time>
      </trkpt>
      <trkpt lat="49.82827" lon="4.84607">
        <ele>315</ele>
        <time>2021-07-31T07:54:40.000Z</time>
      </trkpt>
      <trkpt lat="49.82828" lon="4.8461">
        <ele>315</ele>
        <time>2021-07-31T07:54:41.000Z</time>
      </trkpt>
      <trkpt lat="49.82828" lon="4.84613">
        <ele>316</ele>
        <time>2021-07-31T07:54:42.000Z</time>
      </trkpt>
      <trkpt lat="49.82829" lon="4.84616">
        <ele>316</ele>
        <time>2021-07-31T07:54:43.000Z</time>
      </trkpt>
      <trkpt lat="49.8283" lon="4.84619">
        <ele>316</ele>
        <time>2021-07-31T07:54:44.000Z</time>
      </trkpt>
      <trkpt lat="49.8283" lon="4.84623">
        <ele>316</ele>
        <time>2021-07-31T07:54:45.000Z</time>
      </trkpt>
      <trkpt lat="49.82831" lon="4.84626">
        <ele>317</ele>
        <time>2021-07-31T07:54:46.000Z</time>
      </trkpt>
      <trkpt lat="49.82832" lon="4.84629">
        <ele>317</ele>
        <time>2021-07-31T07:54:47.000Z</time>
      </trkpt>
      <trkpt lat="49.82833" lon="4.84632">
        <ele>317</ele>
        <time>2021-07-31T07:54:48.000Z</time>
      </trkpt>
      <trkpt lat="49.82833" lon="4.84634">
        <ele>317</ele>
        <time>2021-07-31T07:54:49.000Z</time>
      </trkpt>
      <trkpt lat="49.82834" lon="4.84638">
        <ele>317</ele>
        <time>2021-07-31T07:54:50.000Z</time>
      </trkpt>
      <trkpt lat="49.82835" lon="4.84641">
        <ele>317</ele>
        <time>2021-07-31T07:54:51.000Z</time>
      </trkpt>
      <trkpt lat="49.82836" lon="4.84644">
        <ele>317</ele>
        <time>2021-07-31T07:54:52.000Z</time>
      </trkpt>
      <trkpt lat="49.82837" lon="4.84648">
        <ele>317</ele>
        <time>2021-07-31T07:54:53.000Z</time>
      </trkpt>
      <trkpt lat="49.82837" lon="4.84651">
        <ele>317</ele>
        <time>2021-07-31T07:54:54.000Z</time>
      </trkpt>
      <trkpt lat="49.82838" lon="4.84655">
        <ele>317</ele>
        <time>2021-07-31T07:54:55.000Z</time>
      </trkpt>
      <trkpt lat="49.82839" lon="4.84658">
        <ele>317</ele>
        <time>2021-07-31T07:54:56.000Z</time>
      </trkpt>
      <trkpt lat="49.82839" lon="4.84661">
        <ele>317</ele>
        <time>2021-07-31T07:54:57.000Z</time>
      </trkpt>
      <trkpt lat="49.8284" lon="4.84665">
        <ele>317</ele>
        <time>2021-07-31T07:54:58.000Z</time>
      </trkpt>
      <trkpt lat="49.82841" lon="4.84668">
        <ele>317</ele>
        <time>2021-07-31T07:54:59.000Z</time>
      </trkpt>
      <trkpt lat="49.82842" lon="4.84671">
        <ele>317</ele>
        <time>2021-07-31T07:55:00.000Z</time>
      </trkpt>
      <trkpt lat="49.82843" lon="4.84675">
        <ele>317</ele>
        <time>2021-07-31T07:55:01.000Z</time>
      </trkpt>
      <trkpt lat="49.82843" lon="4.84678">
        <ele>317</ele>
        <time>2021-07-31T07:55:02.000Z</time>
      </trkpt>
      <trkpt lat="49.82844" lon="4.84681">
        <ele>317</ele>
        <time>2021-07-31T07:55:03.000Z</time>
      </trkpt>
      <trkpt lat="49.82845" lon="4.84684">
        <ele>316</ele>
        <time>2021-07-31T07:55:04.000Z</time>
      </trkpt>
      <trkpt lat="49.82846" lon="4.84687">
        <ele>316</ele>
        <time>2021-07-31T07:55:05.000Z</time>
      </trkpt>
      <trkpt lat="49.82848" lon="4.84689">
        <ele>316</ele>
        <time>2021-07-31T07:55:06.000Z</time>
      </trkpt>
      <trkpt lat="49.82849" lon="4.84692">
        <ele>316</ele>
        <time>2021-07-31T07:55:07.000Z</time>
      </trkpt>
      <trkpt lat="49.8285" lon="4.84694">
        <ele>316</ele>
        <time>2021-07-31T07:55:08.000Z</time>
      </trkpt>
      <trkpt lat="49.82851" lon="4.84697">
        <ele>316</ele>
        <time>2021-07-31T07:55:09.000Z</time>
      </trkpt>
      <trkpt lat="49.82852" lon="4.84701">
        <ele>316</ele>
        <time>2021-07-31T07:55:10.000Z</time>
      </trkpt>
      <trkpt lat="49.82853" lon="4.84703">
        <ele>316</ele>
        <time>2021-07-31T07:55:11.000Z</time>
      </trkpt>
      <trkpt lat="49.82854" lon="4.84707">
        <ele>315</ele>
        <time>2021-07-31T07:55:12.000Z</time>
      </trkpt>
      <trkpt lat="49.82855" lon="4.8471">
        <ele>315</ele>
        <time>2021-07-31T07:55:13.000Z</time>
      </trkpt>
      <trkpt lat="49.82855" lon="4.84713">
        <ele>315</ele>
        <time>2021-07-31T07:55:14.000Z</time>
      </trkpt>
      <trkpt lat="49.82856" lon="4.84716">
        <ele>315</ele>
        <time>2021-07-31T07:55:15.000Z</time>
      </trkpt>
      <trkpt lat="49.82857" lon="4.84719">
        <ele>315</ele>
        <time>2021-07-31T07:55:16.000Z</time>
      </trkpt>
      <trkpt lat="49.82858" lon="4.84723">
        <ele>315</ele>
        <time>2021-07-31T07:55:17.000Z</time>
      </trkpt>
      <trkpt lat="49.82858" lon="4.84725">
        <ele>315</ele>
        <time>2021-07-31T07:55:18.000Z</time>
      </trkpt>
      <trkpt lat="49.82859" lon="4.84729">
        <ele>315</ele>
        <time>2021-07-31T07:55:19.000Z</time>
      </trkpt>
      <trkpt lat="49.82859" lon="4.84731">
        <ele>315</ele>
        <time>2021-07-31T07:55:20.000Z</time>
      </trkpt>
      <trkpt lat="49.82859" lon="4.84735">
        <ele>315</ele>
        <time>2021-07-31T07:55:21.000Z</time>
      </trkpt>
      <trkpt lat="49.8286" lon="4.84738">
        <ele>315</ele>
        <time>2021-07-31T07:55:22.000Z</time>
      </trkpt>
      <trkpt lat="49.8286" lon="4.84741">
        <ele>315</ele>
        <time>2021-07-31T07:55:23.000Z</time>
      </trkpt>
      <trkpt lat="49.82861" lon="4.84745">
        <ele>315</ele>
        <time>2021-07-31T07:55:24.000Z</time>
      </trkpt>
      <trkpt lat="49.82861" lon="4.84748">
        <ele>315</ele>
        <time>2021-07-31T07:55:25.000Z</time>
      </trkpt>
      <trkpt lat="49.82862" lon="4.84751">
        <ele>315</ele>
        <time>2021-07-31T07:55:26.000Z</time>
      </trkpt>
      <trkpt lat="49.82862" lon="4.84755">
        <ele>315</ele>
        <time>2021-07-31T07:55:27.000Z</time>
      </trkpt>
      <trkpt lat="49.82863" lon="4.84758">
        <ele>315</ele>
        <time>2021-07-31T07:55:28.000Z</time>
      </trkpt>
      <trkpt lat="49.82863" lon="4.8476">
        <ele>316</ele>
        <time>2021-07-31T07:55:29.000Z</time>
      </trkpt>
      <trkpt lat="49.82864" lon="4.84763">
        <ele>316</ele>
        <time>2021-07-31T07:55:30.000Z</time>
      </trkpt>
      <trkpt lat="49.82865" lon="4.84765">
        <ele>316</ele>
        <time>2021-07-31T07:55:31.000Z</time>
      </trkpt>
      <trkpt lat="49.82866" lon="4.84768">
        <ele>316</ele>
        <time>2021-07-31T07:55:32.000Z</time>
      </trkpt>
      <trkpt lat="49.82867" lon="4.8477">
        <ele>316</ele>
        <time>2021-07-31T07:55:33.000Z</time>
      </trkpt>
      <trkpt lat="49.82868" lon="4.84773">
        <ele>316</ele>
        <time>2021-07-31T07:55:34.000Z</time>
      </trkpt>
      <trkpt lat="49.82868" lon="4.84776">
        <ele>316</ele>
        <time>2021-07-31T07:55:35.000Z</time>
      </trkpt>
      <trkpt lat="49.82869" lon="4.84778">
        <ele>316</ele>
        <time>2021-07-31T07:55:36.000Z</time>
      </trkpt>
      <trkpt lat="49.8287" lon="4.84781">
        <ele>317</ele>
        <time>2021-07-31T07:55:37.000Z</time>
      </trkpt>
      <trkpt lat="49.82871" lon="4.84783">
        <ele>317</ele>
        <time>2021-07-31T07:55:38.000Z</time>
      </trkpt>
      <trkpt lat="49.82872" lon="4.84786">
        <ele>317</ele>
        <time>2021-07-31T07:55:39.000Z</time>
      </trkpt>
      <trkpt lat="49.82873" lon="4.84789">
        <ele>317</ele>
        <time>2021-07-31T07:55:40.000Z</time>
      </trkpt>
      <trkpt lat="49.82874" lon="4.84792">
        <ele>317</ele>
        <time>2021-07-31T07:55:41.000Z</time>
      </trkpt>
      <trkpt lat="49.82874" lon="4.84795">
        <ele>318</ele>
        <time>2021-07-31T07:55:42.000Z</time>
      </trkpt>
      <trkpt lat="49.82875" lon="4.84798">
        <ele>318</ele>
        <time>2021-07-31T07:55:43.000Z</time>
      </trkpt>
      <trkpt lat="49.82876" lon="4.84802">
        <ele>318</ele>
        <time>2021-07-31T07:55:44.000Z</time>
      </trkpt>
      <trkpt lat="49.82877" lon="4.84805">
        <ele>318</ele>
        <time>2021-07-31T07:55:45.000Z</time>
      </trkpt>
      <trkpt lat="49.82877" lon="4.84808">
        <ele>318</ele>
        <time>2021-07-31T07:55:46.000Z</time>
      </trkpt>
      <trkpt lat="49.82878" lon="4.84811">
        <ele>318</ele>
        <time>2021-07-31T07:55:47.000Z</time>
      </trkpt>
      <trkpt lat="49.82878" lon="4.84814">
        <ele>318</ele>
        <time>2021-07-31T07:55:48.000Z</time>
      </trkpt>
      <trkpt lat="49.82879" lon="4.84816">
        <ele>319</ele>
        <time>2021-07-31T07:55:49.000Z</time>
      </trkpt>
      <trkpt lat="49.82879" lon="4.84819">
        <ele>319</ele>
        <time>2021-07-31T07:55:50.000Z</time>
      </trkpt>
      <trkpt lat="49.82879" lon="4.84822">
        <ele>319</ele>
        <time>2021-07-31T07:55:51.000Z</time>
      </trkpt>
      <trkpt lat="49.82879" lon="4.84825">
        <ele>319</ele>
        <time>2021-07-31T07:55:52.000Z</time>
      </trkpt>
      <trkpt lat="49.8288" lon="4.84828">
        <ele>319</ele>
        <time>2021-07-31T07:55:53.000Z</time>
      </trkpt>
      <trkpt lat="49.8288" lon="4.84831">
        <ele>319</ele>
        <time>2021-07-31T07:55:54.000Z</time>
      </trkpt>
      <trkpt lat="49.82881" lon="4.84834">
        <ele>319</ele>
        <time>2021-07-31T07:55:55.000Z</time>
      </trkpt>
      <trkpt lat="49.82881" lon="4.84837">
        <ele>320</ele>
        <time>2021-07-31T07:55:56.000Z</time>
      </trkpt>
      <trkpt lat="49.82881" lon="4.8484">
        <ele>320</ele>
        <time>2021-07-31T07:55:57.000Z</time>
      </trkpt>
      <trkpt lat="49.82881" lon="4.84843">
        <ele>320</ele>
        <time>2021-07-31T07:55:58.000Z</time>
      </trkpt>
      <trkpt lat="49.82881" lon="4.84845">
        <ele>320</ele>
        <time>2021-07-31T07:55:59.000Z</time>
      </trkpt>
      <trkpt lat="49.82881" lon="4.84849">
        <ele>321</ele>
        <time>2021-07-31T07:56:00.000Z</time>
      </trkpt>
      <trkpt lat="49.82881" lon="4.84852">
        <ele>321</ele>
        <time>2021-07-31T07:56:01.000Z</time>
      </trkpt>
      <trkpt lat="49.82881" lon="4.84855">
        <ele>321</ele>
        <time>2021-07-31T07:56:02.000Z</time>
      </trkpt>
      <trkpt lat="49.82881" lon="4.84859">
        <ele>321</ele>
        <time>2021-07-31T07:56:03.000Z</time>
      </trkpt>
      <trkpt lat="49.82882" lon="4.84863">
        <ele>322</ele>
        <time>2021-07-31T07:56:04.000Z</time>
      </trkpt>
      <trkpt lat="49.82882" lon="4.84866">
        <ele>322</ele>
        <time>2021-07-31T07:56:05.000Z</time>
      </trkpt>
      <trkpt lat="49.82883" lon="4.8487">
        <ele>322</ele>
        <time>2021-07-31T07:56:06.000Z</time>
      </trkpt>
      <trkpt lat="49.82883" lon="4.84873">
        <ele>322</ele>
        <time>2021-07-31T07:56:07.000Z</time>
      </trkpt>
      <trkpt lat="49.82883" lon="4.84876">
        <ele>323</ele>
        <time>2021-07-31T07:56:08.000Z</time>
      </trkpt>
      <trkpt lat="49.82884" lon="4.84879">
        <ele>323</ele>
        <time>2021-07-31T07:56:09.000Z</time>
      </trkpt>
      <trkpt lat="49.82883" lon="4.84883">
        <ele>323</ele>
        <time>2021-07-31T07:56:10.000Z</time>
      </trkpt>
      <trkpt lat="49.82884" lon="4.84886">
        <ele>324</ele>
        <time>2021-07-31T07:56:11.000Z</time>
      </trkpt>
      <trkpt lat="49.82885" lon="4.84889">
        <ele>324</ele>
        <time>2021-07-31T07:56:12.000Z</time>
      </trkpt>
      <trkpt lat="49.82885" lon="4.84892">
        <ele>324</ele>
        <time>2021-07-31T07:56:13.000Z</time>
      </trkpt>
      <trkpt lat="49.82885" lon="4.84895">
        <ele>324</ele>
        <time>2021-07-31T07:56:14.000Z</time>
      </trkpt>
      <trkpt lat="49.82886" lon="4.84897">
        <ele>325</ele>
        <time>2021-07-31T07:56:15.000Z</time>
      </trkpt>
      <trkpt lat="49.82887" lon="4.84899">
        <ele>325</ele>
        <time>2021-07-31T07:56:16.000Z</time>
      </trkpt>
      <trkpt lat="49.82887" lon="4.84902">
        <ele>325</ele>
        <time>2021-07-31T07:56:17.000Z</time>
      </trkpt>
      <trkpt lat="49.82888" lon="4.84905">
        <ele>325</ele>
        <time>2021-07-31T07:56:18.000Z</time>
      </trkpt>
      <trkpt lat="49.82888" lon="4.84908">
        <ele>325</ele>
        <time>2021-07-31T07:56:19.000Z</time>
      </trkpt>
      <trkpt lat="49.82889" lon="4.84911">
        <ele>326</ele>
        <time>2021-07-31T07:56:20.000Z</time>
      </trkpt>
      <trkpt lat="49.8289" lon="4.84914">
        <ele>326</ele>
        <time>2021-07-31T07:56:21.000Z</time>
      </trkpt>
      <trkpt lat="49.82891" lon="4.84917">
        <ele>326</ele>
        <time>2021-07-31T07:56:22.000Z</time>
      </trkpt>
      <trkpt lat="49.82892" lon="4.8492">
        <ele>326</ele>
        <time>2021-07-31T07:56:23.000Z</time>
      </trkpt>
      <trkpt lat="49.82893" lon="4.84923">
        <ele>326</ele>
        <time>2021-07-31T07:56:24.000Z</time>
      </trkpt>
      <trkpt lat="49.82894" lon="4.84927">
        <ele>326</ele>
        <time>2021-07-31T07:56:25.000Z</time>
      </trkpt>
      <trkpt lat="49.82895" lon="4.8493">
        <ele>327</ele>
        <time>2021-07-31T07:56:26.000Z</time>
      </trkpt>
      <trkpt lat="49.82895" lon="4.84933">
        <ele>327</ele>
        <time>2021-07-31T07:56:27.000Z</time>
      </trkpt>
      <trkpt lat="49.82896" lon="4.84936">
        <ele>327</ele>
        <time>2021-07-31T07:56:28.000Z</time>
      </trkpt>
      <trkpt lat="49.82897" lon="4.84939">
        <ele>327</ele>
        <time>2021-07-31T07:56:29.000Z</time>
      </trkpt>
      <trkpt lat="49.82898" lon="4.84942">
        <ele>327</ele>
        <time>2021-07-31T07:56:30.000Z</time>
      </trkpt>
      <trkpt lat="49.82899" lon="4.84945">
        <ele>327</ele>
        <time>2021-07-31T07:56:31.000Z</time>
      </trkpt>
      <trkpt lat="49.829" lon="4.84949">
        <ele>328</ele>
        <time>2021-07-31T07:56:32.000Z</time>
      </trkpt>
      <trkpt lat="49.82901" lon="4.84952">
        <ele>328</ele>
        <time>2021-07-31T07:56:33.000Z</time>
      </trkpt>
      <trkpt lat="49.82901" lon="4.84955">
        <ele>328</ele>
        <time>2021-07-31T07:56:34.000Z</time>
      </trkpt>
      <trkpt lat="49.82902" lon="4.84958">
        <ele>328</ele>
        <time>2021-07-31T07:56:35.000Z</time>
      </trkpt>
      <trkpt lat="49.82904" lon="4.84961">
        <ele>328</ele>
        <time>2021-07-31T07:56:36.000Z</time>
      </trkpt>
      <trkpt lat="49.82905" lon="4.84965">
        <ele>328</ele>
        <time>2021-07-31T07:56:37.000Z</time>
      </trkpt>
      <trkpt lat="49.82906" lon="4.84968">
        <ele>328</ele>
        <time>2021-07-31T07:56:38.000Z</time>
      </trkpt>
      <trkpt lat="49.82907" lon="4.84971">
        <ele>329</ele>
        <time>2021-07-31T07:56:39.000Z</time>
      </trkpt>
      <trkpt lat="49.82907" lon="4.84973">
        <ele>329</ele>
        <time>2021-07-31T07:56:40.000Z</time>
      </trkpt>
      <trkpt lat="49.82908" lon="4.84977">
        <ele>329</ele>
        <time>2021-07-31T07:56:41.000Z</time>
      </trkpt>
      <trkpt lat="49.82908" lon="4.8498">
        <ele>329</ele>
        <time>2021-07-31T07:56:42.000Z</time>
      </trkpt>
      <trkpt lat="49.82909" lon="4.84983">
        <ele>329</ele>
        <time>2021-07-31T07:56:43.000Z</time>
      </trkpt>
      <trkpt lat="49.8291" lon="4.84986">
        <ele>330</ele>
        <time>2021-07-31T07:56:44.000Z</time>
      </trkpt>
      <trkpt lat="49.82911" lon="4.8499">
        <ele>330</ele>
        <time>2021-07-31T07:56:45.000Z</time>
      </trkpt>
      <trkpt lat="49.82911" lon="4.84993">
        <ele>330</ele>
        <time>2021-07-31T07:56:46.000Z</time>
      </trkpt>
      <trkpt lat="49.82911" lon="4.84997">
        <ele>331</ele>
        <time>2021-07-31T07:56:47.000Z</time>
      </trkpt>
      <trkpt lat="49.82911" lon="4.85001">
        <ele>331</ele>
        <time>2021-07-31T07:56:48.000Z</time>
      </trkpt>
      <trkpt lat="49.82911" lon="4.85005">
        <ele>331</ele>
        <time>2021-07-31T07:56:49.000Z</time>
      </trkpt>
      <trkpt lat="49.82911" lon="4.85009">
        <ele>331</ele>
        <time>2021-07-31T07:56:50.000Z</time>
      </trkpt>
      <trkpt lat="49.82912" lon="4.85012">
        <ele>332</ele>
        <time>2021-07-31T07:56:51.000Z</time>
      </trkpt>
      <trkpt lat="49.82912" lon="4.85016">
        <ele>332</ele>
        <time>2021-07-31T07:56:52.000Z</time>
      </trkpt>
      <trkpt lat="49.82912" lon="4.8502">
        <ele>332</ele>
        <time>2021-07-31T07:56:53.000Z</time>
      </trkpt>
      <trkpt lat="49.82912" lon="4.85024">
        <ele>333</ele>
        <time>2021-07-31T07:56:54.000Z</time>
      </trkpt>
      <trkpt lat="49.82912" lon="4.85028">
        <ele>333</ele>
        <time>2021-07-31T07:56:55.000Z</time>
      </trkpt>
      <trkpt lat="49.82912" lon="4.85032">
        <ele>333</ele>
        <time>2021-07-31T07:56:56.000Z</time>
      </trkpt>
      <trkpt lat="49.82912" lon="4.85036">
        <ele>334</ele>
        <time>2021-07-31T07:56:57.000Z</time>
      </trkpt>
      <trkpt lat="49.82911" lon="4.85039">
        <ele>334</ele>
        <time>2021-07-31T07:56:58.000Z</time>
      </trkpt>
      <trkpt lat="49.8291" lon="4.85042">
        <ele>335</ele>
        <time>2021-07-31T07:56:59.000Z</time>
      </trkpt>
      <trkpt lat="49.82908" lon="4.85044">
        <ele>335</ele>
        <time>2021-07-31T07:57:00.000Z</time>
      </trkpt>
      <trkpt lat="49.82907" lon="4.85047">
        <ele>335</ele>
        <time>2021-07-31T07:57:01.000Z</time>
      </trkpt>
      <trkpt lat="49.82906" lon="4.85049">
        <ele>336</ele>
        <time>2021-07-31T07:57:02.000Z</time>
      </trkpt>
      <trkpt lat="49.82905" lon="4.85052">
        <ele>336</ele>
        <time>2021-07-31T07:57:03.000Z</time>
      </trkpt>
      <trkpt lat="49.82903" lon="4.85055">
        <ele>337</ele>
        <time>2021-07-31T07:57:04.000Z</time>
      </trkpt>
      <trkpt lat="49.82901" lon="4.85059">
        <ele>337</ele>
        <time>2021-07-31T07:57:05.000Z</time>
      </trkpt>
      <trkpt lat="49.82899" lon="4.85061">
        <ele>338</ele>
        <time>2021-07-31T07:57:06.000Z</time>
      </trkpt>
      <trkpt lat="49.82897" lon="4.85064">
        <ele>338</ele>
        <time>2021-07-31T07:57:07.000Z</time>
      </trkpt>
      <trkpt lat="49.82895" lon="4.85066">
        <ele>338</ele>
        <time>2021-07-31T07:57:08.000Z</time>
      </trkpt>
      <trkpt lat="49.82894" lon="4.85069">
        <ele>339</ele>
        <time>2021-07-31T07:57:09.000Z</time>
      </trkpt>
      <trkpt lat="49.82892" lon="4.85071">
        <ele>339</ele>
        <time>2021-07-31T07:57:10.000Z</time>
      </trkpt>
      <trkpt lat="49.8289" lon="4.85073">
        <ele>340</ele>
        <time>2021-07-31T07:57:11.000Z</time>
      </trkpt>
      <trkpt lat="49.82888" lon="4.85076">
        <ele>340</ele>
        <time>2021-07-31T07:57:12.000Z</time>
      </trkpt>
      <trkpt lat="49.82885" lon="4.85079">
        <ele>340</ele>
        <time>2021-07-31T07:57:13.000Z</time>
      </trkpt>
      <trkpt lat="49.82883" lon="4.85081">
        <ele>341</ele>
        <time>2021-07-31T07:57:14.000Z</time>
      </trkpt>
      <trkpt lat="49.82881" lon="4.85084">
        <ele>341</ele>
        <time>2021-07-31T07:57:15.000Z</time>
      </trkpt>
      <trkpt lat="49.82879" lon="4.85087">
        <ele>342</ele>
        <time>2021-07-31T07:57:16.000Z</time>
      </trkpt>
      <trkpt lat="49.82877" lon="4.8509">
        <ele>342</ele>
        <time>2021-07-31T07:57:17.000Z</time>
      </trkpt>
      <trkpt lat="49.82874" lon="4.85092">
        <ele>342</ele>
        <time>2021-07-31T07:57:18.000Z</time>
      </trkpt>
      <trkpt lat="49.82872" lon="4.85095">
        <ele>343</ele>
        <time>2021-07-31T07:57:19.000Z</time>
      </trkpt>
      <trkpt lat="49.8287" lon="4.85098">
        <ele>343</ele>
        <time>2021-07-31T07:57:20.000Z</time>
      </trkpt>
      <trkpt lat="49.82868" lon="4.85101">
        <ele>344</ele>
        <time>2021-07-31T07:57:21.000Z</time>
      </trkpt>
      <trkpt lat="49.82866" lon="4.85104">
        <ele>344</ele>
        <time>2021-07-31T07:57:22.000Z</time>
      </trkpt>
      <trkpt lat="49.82864" lon="4.85106">
        <ele>344</ele>
        <time>2021-07-31T07:57:23.000Z</time>
      </trkpt>
      <trkpt lat="49.82862" lon="4.8511">
        <ele>345</ele>
        <time>2021-07-31T07:57:24.000Z</time>
      </trkpt>
      <trkpt lat="49.8286" lon="4.85113">
        <ele>345</ele>
        <time>2021-07-31T07:57:25.000Z</time>
      </trkpt>
      <trkpt lat="49.82858" lon="4.85116">
        <ele>345</ele>
        <time>2021-07-31T07:57:26.000Z</time>
      </trkpt>
      <trkpt lat="49.82855" lon="4.85119">
        <ele>346</ele>
        <time>2021-07-31T07:57:27.000Z</time>
      </trkpt>
      <trkpt lat="49.82853" lon="4.85122">
        <ele>346</ele>
        <time>2021-07-31T07:57:28.000Z</time>
      </trkpt>
      <trkpt lat="49.8285" lon="4.85125">
        <ele>346</ele>
        <time>2021-07-31T07:57:29.000Z</time>
      </trkpt>
      <trkpt lat="49.82847" lon="4.85128">
        <ele>347</ele>
        <time>2021-07-31T07:57:30.000Z</time>
      </trkpt>
      <trkpt lat="49.82845" lon="4.85131">
        <ele>347</ele>
        <time>2021-07-31T07:57:31.000Z</time>
      </trkpt>
      <trkpt lat="49.82842" lon="4.85134">
        <ele>347</ele>
        <time>2021-07-31T07:57:32.000Z</time>
      </trkpt>
      <trkpt lat="49.8284" lon="4.85137">
        <ele>348</ele>
        <time>2021-07-31T07:57:33.000Z</time>
      </trkpt>
      <trkpt lat="49.82837" lon="4.8514">
        <ele>348</ele>
        <time>2021-07-31T07:57:34.000Z</time>
      </trkpt>
      <trkpt lat="49.82835" lon="4.85143">
        <ele>348</ele>
        <time>2021-07-31T07:57:35.000Z</time>
      </trkpt>
      <trkpt lat="49.82833" lon="4.85146">
        <ele>349</ele>
        <time>2021-07-31T07:57:36.000Z</time>
      </trkpt>
      <trkpt lat="49.8283" lon="4.85149">
        <ele>349</ele>
        <time>2021-07-31T07:57:37.000Z</time>
      </trkpt>
      <trkpt lat="49.82828" lon="4.85151">
        <ele>349</ele>
        <time>2021-07-31T07:57:38.000Z</time>
      </trkpt>
      <trkpt lat="49.82826" lon="4.85154">
        <ele>350</ele>
        <time>2021-07-31T07:57:39.000Z</time>
      </trkpt>
      <trkpt lat="49.82824" lon="4.85158">
        <ele>350</ele>
        <time>2021-07-31T07:57:40.000Z</time>
      </trkpt>
      <trkpt lat="49.82821" lon="4.85162">
        <ele>350</ele>
        <time>2021-07-31T07:57:41.000Z</time>
      </trkpt>
      <trkpt lat="49.82819" lon="4.85165">
        <ele>351</ele>
        <time>2021-07-31T07:57:42.000Z</time>
      </trkpt>
      <trkpt lat="49.82817" lon="4.85169">
        <ele>351</ele>
        <time>2021-07-31T07:57:43.000Z</time>
      </trkpt>
      <trkpt lat="49.82815" lon="4.85173">
        <ele>351</ele>
        <time>2021-07-31T07:57:44.000Z</time>
      </trkpt>
      <trkpt lat="49.82813" lon="4.85176">
        <ele>352</ele>
        <time>2021-07-31T07:57:45.000Z</time>
      </trkpt>
      <trkpt lat="49.82811" lon="4.8518">
        <ele>352</ele>
        <time>2021-07-31T07:57:46.000Z</time>
      </trkpt>
      <trkpt lat="49.82809" lon="4.85184">
        <ele>352</ele>
        <time>2021-07-31T07:57:47.000Z</time>
      </trkpt>
      <trkpt lat="49.82808" lon="4.85188">
        <ele>352</ele>
        <time>2021-07-31T07:57:48.000Z</time>
      </trkpt>
      <trkpt lat="49.82806" lon="4.85192">
        <ele>353</ele>
        <time>2021-07-31T07:57:49.000Z</time>
      </trkpt>
      <trkpt lat="49.82804" lon="4.85195">
        <ele>353</ele>
        <time>2021-07-31T07:57:50.000Z</time>
      </trkpt>
      <trkpt lat="49.82801" lon="4.85199">
        <ele>353</ele>
        <time>2021-07-31T07:57:51.000Z</time>
      </trkpt>
      <trkpt lat="49.82799" lon="4.85203">
        <ele>353</ele>
        <time>2021-07-31T07:57:52.000Z</time>
      </trkpt>
      <trkpt lat="49.82796" lon="4.85207">
        <ele>353</ele>
        <time>2021-07-31T07:57:53.000Z</time>
      </trkpt>
      <trkpt lat="49.82795" lon="4.85211">
        <ele>353</ele>
        <time>2021-07-31T07:57:54.000Z</time>
      </trkpt>
      <trkpt lat="49.82794" lon="4.85214">
        <ele>353</ele>
        <time>2021-07-31T07:57:55.000Z</time>
      </trkpt>
      <trkpt lat="49.82793" lon="4.85218">
        <ele>353</ele>
        <time>2021-07-31T07:57:56.000Z</time>
      </trkpt>
      <trkpt lat="49.82793" lon="4.85221">
        <ele>353</ele>
        <time>2021-07-31T07:57:57.000Z</time>
      </trkpt>
      <trkpt lat="49.82793" lon="4.85225">
        <ele>354</ele>
        <time>2021-07-31T07:57:58.000Z</time>
      </trkpt>
      <trkpt lat="49.82791" lon="4.85229">
        <ele>354</ele>
        <time>2021-07-31T07:57:59.000Z</time>
      </trkpt>
      <trkpt lat="49.8279" lon="4.85233">
        <ele>354</ele>
        <time>2021-07-31T07:58:00.000Z</time>
      </trkpt>
      <trkpt lat="49.82789" lon="4.85237">
        <ele>354</ele>
        <time>2021-07-31T07:58:01.000Z</time>
      </trkpt>
      <trkpt lat="49.82787" lon="4.85241">
        <ele>354</ele>
        <time>2021-07-31T07:58:02.000Z</time>
      </trkpt>
      <trkpt lat="49.82787" lon="4.85246">
        <ele>355</ele>
        <time>2021-07-31T07:58:03.000Z</time>
      </trkpt>
      <trkpt lat="49.82787" lon="4.8525">
        <ele>355</ele>
        <time>2021-07-31T07:58:04.000Z</time>
      </trkpt>
      <trkpt lat="49.82786" lon="4.85255">
        <ele>355</ele>
        <time>2021-07-31T07:58:05.000Z</time>
      </trkpt>
      <trkpt lat="49.82786" lon="4.8526">
        <ele>355</ele>
        <time>2021-07-31T07:58:06.000Z</time>
      </trkpt>
      <trkpt lat="49.82786" lon="4.85264">
        <ele>355</ele>
        <time>2021-07-31T07:58:07.000Z</time>
      </trkpt>
      <trkpt lat="49.82786" lon="4.85269">
        <ele>355</ele>
        <time>2021-07-31T07:58:08.000Z</time>
      </trkpt>
      <trkpt lat="49.82785" lon="4.85273">
        <ele>355</ele>
        <time>2021-07-31T07:58:09.000Z</time>
      </trkpt>
      <trkpt lat="49.82785" lon="4.85277">
        <ele>355</ele>
        <time>2021-07-31T07:58:10.000Z</time>
      </trkpt>
      <trkpt lat="49.82785" lon="4.85281">
        <ele>355</ele>
        <time>2021-07-31T07:58:11.000Z</time>
      </trkpt>
      <trkpt lat="49.82785" lon="4.85285">
        <ele>355</ele>
        <time>2021-07-31T07:58:12.000Z</time>
      </trkpt>
      <trkpt lat="49.82786" lon="4.85289">
        <ele>355</ele>
        <time>2021-07-31T07:58:13.000Z</time>
      </trkpt>
      <trkpt lat="49.82786" lon="4.85293">
        <ele>355</ele>
        <time>2021-07-31T07:58:14.000Z</time>
      </trkpt>
      <trkpt lat="49.82786" lon="4.85296">
        <ele>355</ele>
        <time>2021-07-31T07:58:15.000Z</time>
      </trkpt>
      <trkpt lat="49.82786" lon="4.85299">
        <ele>355</ele>
        <time>2021-07-31T07:58:16.000Z</time>
      </trkpt>
      <trkpt lat="49.82786" lon="4.85302">
        <ele>355</ele>
        <time>2021-07-31T07:58:17.000Z</time>
      </trkpt>
      <trkpt lat="49.82787" lon="4.85306">
        <ele>355</ele>
        <time>2021-07-31T07:58:18.000Z</time>
      </trkpt>
      <trkpt lat="49.82788" lon="4.85309">
        <ele>355</ele>
        <time>2021-07-31T07:58:19.000Z</time>
      </trkpt>
      <trkpt lat="49.8279" lon="4.85313">
        <ele>355</ele>
        <time>2021-07-31T07:58:20.000Z</time>
      </trkpt>
      <trkpt lat="49.82791" lon="4.85316">
        <ele>355</ele>
        <time>2021-07-31T07:58:21.000Z</time>
      </trkpt>
      <trkpt lat="49.82792" lon="4.8532">
        <ele>355</ele>
        <time>2021-07-31T07:58:22.000Z</time>
      </trkpt>
      <trkpt lat="49.82794" lon="4.85324">
        <ele>355</ele>
        <time>2021-07-31T07:58:23.000Z</time>
      </trkpt>
      <trkpt lat="49.82796" lon="4.85327">
        <ele>355</ele>
        <time>2021-07-31T07:58:24.000Z</time>
      </trkpt>
      <trkpt lat="49.82799" lon="4.8533">
        <ele>355</ele>
        <time>2021-07-31T07:58:25.000Z</time>
      </trkpt>
      <trkpt lat="49.82801" lon="4.85333">
        <ele>355</ele>
        <time>2021-07-31T07:58:26.000Z</time>
      </trkpt>
      <trkpt lat="49.82804" lon="4.85336">
        <ele>355</ele>
        <time>2021-07-31T07:58:27.000Z</time>
      </trkpt>
      <trkpt lat="49.82806" lon="4.85339">
        <ele>355</ele>
        <time>2021-07-31T07:58:28.000Z</time>
      </trkpt>
      <trkpt lat="49.82809" lon="4.85342">
        <ele>355</ele>
        <time>2021-07-31T07:58:29.000Z</time>
      </trkpt>
      <trkpt lat="49.82812" lon="4.85346">
        <ele>355</ele>
        <time>2021-07-31T07:58:30.000Z</time>
      </trkpt>
      <trkpt lat="49.82814" lon="4.85351">
        <ele>355</ele>
        <time>2021-07-31T07:58:31.000Z</time>
      </trkpt>
      <trkpt lat="49.82817" lon="4.85355">
        <ele>356</ele>
        <time>2021-07-31T07:58:32.000Z</time>
      </trkpt>
      <trkpt lat="49.8282" lon="4.85359">
        <ele>356</ele>
        <time>2021-07-31T07:58:33.000Z</time>
      </trkpt>
      <trkpt lat="49.82822" lon="4.85364">
        <ele>356</ele>
        <time>2021-07-31T07:58:34.000Z</time>
      </trkpt>
      <trkpt lat="49.82825" lon="4.85367">
        <ele>356</ele>
        <time>2021-07-31T07:58:35.000Z</time>
      </trkpt>
      <trkpt lat="49.82827" lon="4.85371">
        <ele>356</ele>
        <time>2021-07-31T07:58:36.000Z</time>
      </trkpt>
      <trkpt lat="49.82828" lon="4.85375">
        <ele>356</ele>
        <time>2021-07-31T07:58:37.000Z</time>
      </trkpt>
      <trkpt lat="49.82829" lon="4.85378">
        <ele>356</ele>
        <time>2021-07-31T07:58:38.000Z</time>
      </trkpt>
      <trkpt lat="49.82831" lon="4.85381">
        <ele>356</ele>
        <time>2021-07-31T07:58:39.000Z</time>
      </trkpt>
      <trkpt lat="49.82834" lon="4.85384">
        <ele>356</ele>
        <time>2021-07-31T07:58:40.000Z</time>
      </trkpt>
      <trkpt lat="49.82838" lon="4.85388">
        <ele>355</ele>
        <time>2021-07-31T07:58:41.000Z</time>
      </trkpt>
      <trkpt lat="49.82841" lon="4.85392">
        <ele>355</ele>
        <time>2021-07-31T07:58:42.000Z</time>
      </trkpt>
      <trkpt lat="49.82845" lon="4.85396">
        <ele>355</ele>
        <time>2021-07-31T07:58:43.000Z</time>
      </trkpt>
      <trkpt lat="49.82848" lon="4.854">
        <ele>355</ele>
        <time>2021-07-31T07:58:44.000Z</time>
      </trkpt>
      <trkpt lat="49.82851" lon="4.85405">
        <ele>355</ele>
        <time>2021-07-31T07:58:45.000Z</time>
      </trkpt>
      <trkpt lat="49.82855" lon="4.8541">
        <ele>355</ele>
        <time>2021-07-31T07:58:46.000Z</time>
      </trkpt>
      <trkpt lat="49.82858" lon="4.85415">
        <ele>355</ele>
        <time>2021-07-31T07:58:47.000Z</time>
      </trkpt>
      <trkpt lat="49.82861" lon="4.85419">
        <ele>355</ele>
        <time>2021-07-31T07:58:48.000Z</time>
      </trkpt>
      <trkpt lat="49.82863" lon="4.85424">
        <ele>355</ele>
        <time>2021-07-31T07:58:49.000Z</time>
      </trkpt>
      <trkpt lat="49.82866" lon="4.85429">
        <ele>355</ele>
        <time>2021-07-31T07:58:50.000Z</time>
      </trkpt>
      <trkpt lat="49.82868" lon="4.85434">
        <ele>355</ele>
        <time>2021-07-31T07:58:51.000Z</time>
      </trkpt>
      <trkpt lat="49.8287" lon="4.85439">
        <ele>355</ele>
        <time>2021-07-31T07:58:52.000Z</time>
      </trkpt>
      <trkpt lat="49.82872" lon="4.85444">
        <ele>355</ele>
        <time>2021-07-31T07:58:53.000Z</time>
      </trkpt>
      <trkpt lat="49.82875" lon="4.8545">
        <ele>355</ele>
        <time>2021-07-31T07:58:54.000Z</time>
      </trkpt>
      <trkpt lat="49.82877" lon="4.85455">
        <ele>355</ele>
        <time>2021-07-31T07:58:55.000Z</time>
      </trkpt>
      <trkpt lat="49.8288" lon="4.85461">
        <ele>355</ele>
        <time>2021-07-31T07:58:56.000Z</time>
      </trkpt>
      <trkpt lat="49.82883" lon="4.85467">
        <ele>355</ele>
        <time>2021-07-31T07:58:57.000Z</time>
      </trkpt>
      <trkpt lat="49.82885" lon="4.85474">
        <ele>355</ele>
        <time>2021-07-31T07:58:58.000Z</time>
      </trkpt>
      <trkpt lat="49.82887" lon="4.85481">
        <ele>355</ele>
        <time>2021-07-31T07:58:59.000Z</time>
      </trkpt>
      <trkpt lat="49.82889" lon="4.8549">
        <ele>355</ele>
        <time>2021-07-31T07:59:00.000Z</time>
      </trkpt>
      <trkpt lat="49.82891" lon="4.85498">
        <ele>355</ele>
        <time>2021-07-31T07:59:01.000Z</time>
      </trkpt>
      <trkpt lat="49.82893" lon="4.85507">
        <ele>354</ele>
        <time>2021-07-31T07:59:02.000Z</time>
      </trkpt>
      <trkpt lat="49.82895" lon="4.85516">
        <ele>354</ele>
        <time>2021-07-31T07:59:03.000Z</time>
      </trkpt>
      <trkpt lat="49.82898" lon="4.85526">
        <ele>354</ele>
        <time>2021-07-31T07:59:04.000Z</time>
      </trkpt>
      <trkpt lat="49.829" lon="4.85535">
        <ele>354</ele>
        <time>2021-07-31T07:59:05.000Z</time>
      </trkpt>
      <trkpt lat="49.82903" lon="4.85544">
        <ele>354</ele>
        <time>2021-07-31T07:59:06.000Z</time>
      </trkpt>
      <trkpt lat="49.82905" lon="4.85555">
        <ele>354</ele>
        <time>2021-07-31T07:59:07.000Z</time>
      </trkpt>
      <trkpt lat="49.82908" lon="4.85565">
        <ele>354</ele>
        <time>2021-07-31T07:59:08.000Z</time>
      </trkpt>
      <trkpt lat="49.8291" lon="4.85575">
        <ele>354</ele>
        <time>2021-07-31T07:59:09.000Z</time>
      </trkpt>
      <trkpt lat="49.82913" lon="4.85585">
        <ele>354</ele>
        <time>2021-07-31T07:59:10.000Z</time>
      </trkpt>
      <trkpt lat="49.82915" lon="4.85595">
        <ele>354</ele>
        <time>2021-07-31T07:59:11.000Z</time>
      </trkpt>
      <trkpt lat="49.82918" lon="4.85605">
        <ele>354</ele>
        <time>2021-07-31T07:59:12.000Z</time>
      </trkpt>
      <trkpt lat="49.82921" lon="4.85615">
        <ele>353</ele>
        <time>2021-07-31T07:59:13.000Z</time>
      </trkpt>
      <trkpt lat="49.82924" lon="4.85625">
        <ele>353</ele>
        <time>2021-07-31T07:59:14.000Z</time>
      </trkpt>
      <trkpt lat="49.82927" lon="4.85634">
        <ele>353</ele>
        <time>2021-07-31T07:59:15.000Z</time>
      </trkpt>
      <trkpt lat="49.82931" lon="4.85644">
        <ele>353</ele>
        <time>2021-07-31T07:59:16.000Z</time>
      </trkpt>
      <trkpt lat="49.82935" lon="4.85653">
        <ele>353</ele>
        <time>2021-07-31T07:59:17.000Z</time>
      </trkpt>
      <trkpt lat="49.8294" lon="4.85662">
        <ele>352</ele>
        <time>2021-07-31T07:59:18.000Z</time>
      </trkpt>
      <trkpt lat="49.82944" lon="4.85671">
        <ele>352</ele>
        <time>2021-07-31T07:59:19.000Z</time>
      </trkpt>
      <trkpt lat="49.82949" lon="4.85681">
        <ele>351</ele>
        <time>2021-07-31T07:59:20.000Z</time>
      </trkpt>
      <trkpt lat="49.82954" lon="4.8569">
        <ele>350</ele>
        <time>2021-07-31T07:59:21.000Z</time>
      </trkpt>
      <trkpt lat="49.82959" lon="4.857">
        <ele>350</ele>
        <time>2021-07-31T07:59:22.000Z</time>
      </trkpt>
      <trkpt lat="49.82964" lon="4.85711">
        <ele>349</ele>
        <time>2021-07-31T07:59:23.000Z</time>
      </trkpt>
      <trkpt lat="49.82968" lon="4.85721">
        <ele>348</ele>
        <time>2021-07-31T07:59:24.000Z</time>
      </trkpt>
      <trkpt lat="49.82972" lon="4.85731">
        <ele>347</ele>
        <time>2021-07-31T07:59:25.000Z</time>
      </trkpt>
      <trkpt lat="49.82975" lon="4.85742">
        <ele>347</ele>
        <time>2021-07-31T07:59:26.000Z</time>
      </trkpt>
      <trkpt lat="49.82977" lon="4.85754">
        <ele>346</ele>
        <time>2021-07-31T07:59:27.000Z</time>
      </trkpt>
      <trkpt lat="49.82978" lon="4.85765">
        <ele>346</ele>
        <time>2021-07-31T07:59:28.000Z</time>
      </trkpt>
      <trkpt lat="49.82979" lon="4.85776">
        <ele>345</ele>
        <time>2021-07-31T07:59:29.000Z</time>
      </trkpt>
      <trkpt lat="49.8298" lon="4.85786">
        <ele>345</ele>
        <time>2021-07-31T07:59:30.000Z</time>
      </trkpt>
      <trkpt lat="49.82981" lon="4.85796">
        <ele>344</ele>
        <time>2021-07-31T07:59:31.000Z</time>
      </trkpt>
      <trkpt lat="49.82981" lon="4.85805">
        <ele>344</ele>
        <time>2021-07-31T07:59:32.000Z</time>
      </trkpt>
      <trkpt lat="49.82982" lon="4.85814">
        <ele>343</ele>
        <time>2021-07-31T07:59:33.000Z</time>
      </trkpt>
      <trkpt lat="49.82982" lon="4.85823">
        <ele>343</ele>
        <time>2021-07-31T07:59:34.000Z</time>
      </trkpt>
      <trkpt lat="49.82982" lon="4.85832">
        <ele>342</ele>
        <time>2021-07-31T07:59:35.000Z</time>
      </trkpt>
      <trkpt lat="49.82982" lon="4.8584">
        <ele>342</ele>
        <time>2021-07-31T07:59:36.000Z</time>
      </trkpt>
      <trkpt lat="49.82982" lon="4.85849">
        <ele>342</ele>
        <time>2021-07-31T07:59:37.000Z</time>
      </trkpt>
      <trkpt lat="49.82982" lon="4.85857">
        <ele>342</ele>
        <time>2021-07-31T07:59:38.000Z</time>
      </trkpt>
      <trkpt lat="49.82983" lon="4.85865">
        <ele>342</ele>
        <time>2021-07-31T07:59:39.000Z</time>
      </trkpt>
      <trkpt lat="49.82984" lon="4.85873">
        <ele>342</ele>
        <time>2021-07-31T07:59:40.000Z</time>
      </trkpt>
      <trkpt lat="49.82986" lon="4.85881">
        <ele>342</ele>
        <time>2021-07-31T07:59:41.000Z</time>
      </trkpt>
      <trkpt lat="49.82987" lon="4.85889">
        <ele>341</ele>
        <time>2021-07-31T07:59:42.000Z</time>
      </trkpt>
      <trkpt lat="49.82988" lon="4.85897">
        <ele>341</ele>
        <time>2021-07-31T07:59:43.000Z</time>
      </trkpt>
      <trkpt lat="49.8299" lon="4.85904">
        <ele>341</ele>
        <time>2021-07-31T07:59:44.000Z</time>
      </trkpt>
      <trkpt lat="49.82992" lon="4.85912">
        <ele>341</ele>
        <time>2021-07-31T07:59:45.000Z</time>
      </trkpt>
      <trkpt lat="49.82994" lon="4.85919">
        <ele>341</ele>
        <time>2021-07-31T07:59:46.000Z</time>
      </trkpt>
      <trkpt lat="49.82996" lon="4.85926">
        <ele>341</ele>
        <time>2021-07-31T07:59:47.000Z</time>
      </trkpt>
      <trkpt lat="49.82997" lon="4.85933">
        <ele>341</ele>
        <time>2021-07-31T07:59:48.000Z</time>
      </trkpt>
      <trkpt lat="49.82999" lon="4.8594">
        <ele>341</ele>
        <time>2021-07-31T07:59:49.000Z</time>
      </trkpt>
      <trkpt lat="49.83001" lon="4.85946">
        <ele>341</ele>
        <time>2021-07-31T07:59:50.000Z</time>
      </trkpt>
      <trkpt lat="49.83002" lon="4.85952">
        <ele>341</ele>
        <time>2021-07-31T07:59:51.000Z</time>
      </trkpt>
      <trkpt lat="49.83003" lon="4.85958">
        <ele>341</ele>
        <time>2021-07-31T07:59:52.000Z</time>
      </trkpt>
      <trkpt lat="49.83005" lon="4.85964">
        <ele>341</ele>
        <time>2021-07-31T07:59:53.000Z</time>
      </trkpt>
      <trkpt lat="49.83006" lon="4.85971">
        <ele>341</ele>
        <time>2021-07-31T07:59:54.000Z</time>
      </trkpt>
      <trkpt lat="49.83008" lon="4.85978">
        <ele>341</ele>
        <time>2021-07-31T07:59:55.000Z</time>
      </trkpt>
      <trkpt lat="49.83009" lon="4.85985">
        <ele>341</ele>
        <time>2021-07-31T07:59:56.000Z</time>
      </trkpt>
      <trkpt lat="49.8301" lon="4.85992">
        <ele>341</ele>
        <time>2021-07-31T07:59:57.000Z</time>
      </trkpt>
      <trkpt lat="49.83011" lon="4.86">
        <ele>341</ele>
        <time>2021-07-31T07:59:58.000Z</time>
      </trkpt>
      <trkpt lat="49.83012" lon="4.86007">
        <ele>341</ele>
        <time>2021-07-31T07:59:59.000Z</time>
      </trkpt>
      <trkpt lat="49.83013" lon="4.86015">
        <ele>341</ele>
        <time>2021-07-31T08:00:00.000Z</time>
      </trkpt>
      <trkpt lat="49.83014" lon="4.86023">
        <ele>341</ele>
        <time>2021-07-31T08:00:01.000Z</time>
      </trkpt>
      <trkpt lat="49.83015" lon="4.8603">
        <ele>341</ele>
        <time>2021-07-31T08:00:02.000Z</time>
      </trkpt>
      <trkpt lat="49.83016" lon="4.86038">
        <ele>341</ele>
        <time>2021-07-31T08:00:03.000Z</time>
      </trkpt>
      <trkpt lat="49.83017" lon="4.86045">
        <ele>341</ele>
        <time>2021-07-31T08:00:04.000Z</time>
      </trkpt>
      <trkpt lat="49.83018" lon="4.86052">
        <ele>341</ele>
        <time>2021-07-31T08:00:05.000Z</time>
      </trkpt>
      <trkpt lat="49.83019" lon="4.8606">
        <ele>342</ele>
        <time>2021-07-31T08:00:06.000Z</time>
      </trkpt>
      <trkpt lat="49.8302" lon="4.86067">
        <ele>342</ele>
        <time>2021-07-31T08:00:07.000Z</time>
      </trkpt>
      <trkpt lat="49.83021" lon="4.86074">
        <ele>342</ele>
        <time>2021-07-31T08:00:08.000Z</time>
      </trkpt>
      <trkpt lat="49.83022" lon="4.86082">
        <ele>342</ele>
        <time>2021-07-31T08:00:09.000Z</time>
      </trkpt>
      <trkpt lat="49.83023" lon="4.86089">
        <ele>342</ele>
        <time>2021-07-31T08:00:10.000Z</time>
      </trkpt>
      <trkpt lat="49.83024" lon="4.86095">
        <ele>342</ele>
        <time>2021-07-31T08:00:11.000Z</time>
      </trkpt>
      <trkpt lat="49.83025" lon="4.86101">
        <ele>342</ele>
        <time>2021-07-31T08:00:12.000Z</time>
      </trkpt>
      <trkpt lat="49.83026" lon="4.86107">
        <ele>342</ele>
        <time>2021-07-31T08:00:13.000Z</time>
      </trkpt>
      <trkpt lat="49.83027" lon="4.86113">
        <ele>342</ele>
        <time>2021-07-31T08:00:14.000Z</time>
      </trkpt>
      <trkpt lat="49.83027" lon="4.8612">
        <ele>342</ele>
        <time>2021-07-31T08:00:15.000Z</time>
      </trkpt>
      <trkpt lat="49.83028" lon="4.86126">
        <ele>342</ele>
        <time>2021-07-31T08:00:16.000Z</time>
      </trkpt>
      <trkpt lat="49.83028" lon="4.86133">
        <ele>342</ele>
        <time>2021-07-31T08:00:17.000Z</time>
      </trkpt>
      <trkpt lat="49.83029" lon="4.8614">
        <ele>342</ele>
        <time>2021-07-31T08:00:18.000Z</time>
      </trkpt>
      <trkpt lat="49.83029" lon="4.86147">
        <ele>342</ele>
        <time>2021-07-31T08:00:19.000Z</time>
      </trkpt>
      <trkpt lat="49.8303" lon="4.86155">
        <ele>342</ele>
        <time>2021-07-31T08:00:20.000Z</time>
      </trkpt>
      <trkpt lat="49.8303" lon="4.86162">
        <ele>342</ele>
        <time>2021-07-31T08:00:21.000Z</time>
      </trkpt>
      <trkpt lat="49.83029" lon="4.86169">
        <ele>343</ele>
        <time>2021-07-31T08:00:22.000Z</time>
      </trkpt>
      <trkpt lat="49.83027" lon="4.86175">
        <ele>343</ele>
        <time>2021-07-31T08:00:23.000Z</time>
      </trkpt>
      <trkpt lat="49.83026" lon="4.86182">
        <ele>343</ele>
        <time>2021-07-31T08:00:24.000Z</time>
      </trkpt>
      <trkpt lat="49.83025" lon="4.86189">
        <ele>343</ele>
        <time>2021-07-31T08:00:25.000Z</time>
      </trkpt>
      <trkpt lat="49.83023" lon="4.86197">
        <ele>343</ele>
        <time>2021-07-31T08:00:26.000Z</time>
      </trkpt>
      <trkpt lat="49.83022" lon="4.86204">
        <ele>343</ele>
        <time>2021-07-31T08:00:27.000Z</time>
      </trkpt>
      <trkpt lat="49.8302" lon="4.8621">
        <ele>343</ele>
        <time>2021-07-31T08:00:28.000Z</time>
      </trkpt>
      <trkpt lat="49.83019" lon="4.86216">
        <ele>344</ele>
        <time>2021-07-31T08:00:29.000Z</time>
      </trkpt>
      <trkpt lat="49.83018" lon="4.86222">
        <ele>344</ele>
        <time>2021-07-31T08:00:30.000Z</time>
      </trkpt>
      <trkpt lat="49.83016" lon="4.86229">
        <ele>344</ele>
        <time>2021-07-31T08:00:31.000Z</time>
      </trkpt>
      <trkpt lat="49.83014" lon="4.86236">
        <ele>344</ele>
        <time>2021-07-31T08:00:32.000Z</time>
      </trkpt>
      <trkpt lat="49.83013" lon="4.86243">
        <ele>344</ele>
        <time>2021-07-31T08:00:33.000Z</time>
      </trkpt>
      <trkpt lat="49.83012" lon="4.8625">
        <ele>344</ele>
        <time>2021-07-31T08:00:34.000Z</time>
      </trkpt>
      <trkpt lat="49.83011" lon="4.86258">
        <ele>344</ele>
        <time>2021-07-31T08:00:35.000Z</time>
      </trkpt>
      <trkpt lat="49.83009" lon="4.86265">
        <ele>344</ele>
        <time>2021-07-31T08:00:36.000Z</time>
      </trkpt>
      <trkpt lat="49.83007" lon="4.86272">
        <ele>345</ele>
        <time>2021-07-31T08:00:37.000Z</time>
      </trkpt>
      <trkpt lat="49.83005" lon="4.8628">
        <ele>345</ele>
        <time>2021-07-31T08:00:38.000Z</time>
      </trkpt>
      <trkpt lat="49.83004" lon="4.86288">
        <ele>345</ele>
        <time>2021-07-31T08:00:39.000Z</time>
      </trkpt>
      <trkpt lat="49.83004" lon="4.86296">
        <ele>345</ele>
        <time>2021-07-31T08:00:40.000Z</time>
      </trkpt>
      <trkpt lat="49.83002" lon="4.86305">
        <ele>345</ele>
        <time>2021-07-31T08:00:41.000Z</time>
      </trkpt>
      <trkpt lat="49.83001" lon="4.86312">
        <ele>345</ele>
        <time>2021-07-31T08:00:42.000Z</time>
      </trkpt>
      <trkpt lat="49.82999" lon="4.86319">
        <ele>345</ele>
        <time>2021-07-31T08:00:43.000Z</time>
      </trkpt>
      <trkpt lat="49.82997" lon="4.86325">
        <ele>345</ele>
        <time>2021-07-31T08:00:44.000Z</time>
      </trkpt>
      <trkpt lat="49.82995" lon="4.86331">
        <ele>345</ele>
        <time>2021-07-31T08:00:45.000Z</time>
      </trkpt>
      <trkpt lat="49.82993" lon="4.86337">
        <ele>345</ele>
        <time>2021-07-31T08:00:46.000Z</time>
      </trkpt>
      <trkpt lat="49.82991" lon="4.86342">
        <ele>345</ele>
        <time>2021-07-31T08:00:47.000Z</time>
      </trkpt>
      <trkpt lat="49.82989" lon="4.86347">
        <ele>345</ele>
        <time>2021-07-31T08:00:48.000Z</time>
      </trkpt>
      <trkpt lat="49.82987" lon="4.86352">
        <ele>345</ele>
        <time>2021-07-31T08:00:49.000Z</time>
      </trkpt>
      <trkpt lat="49.82985" lon="4.86357">
        <ele>346</ele>
        <time>2021-07-31T08:00:50.000Z</time>
      </trkpt>
      <trkpt lat="49.82983" lon="4.86362">
        <ele>346</ele>
        <time>2021-07-31T08:00:51.000Z</time>
      </trkpt>
      <trkpt lat="49.8298" lon="4.86367">
        <ele>346</ele>
        <time>2021-07-31T08:00:52.000Z</time>
      </trkpt>
      <trkpt lat="49.82977" lon="4.86372">
        <ele>346</ele>
        <time>2021-07-31T08:00:53.000Z</time>
      </trkpt>
      <trkpt lat="49.82975" lon="4.86377">
        <ele>346</ele>
        <time>2021-07-31T08:00:54.000Z</time>
      </trkpt>
      <trkpt lat="49.82972" lon="4.86382">
        <ele>346</ele>
        <time>2021-07-31T08:00:55.000Z</time>
      </trkpt>
      <trkpt lat="49.82969" lon="4.86387">
        <ele>346</ele>
        <time>2021-07-31T08:00:56.000Z</time>
      </trkpt>
      <trkpt lat="49.82966" lon="4.86392">
        <ele>346</ele>
        <time>2021-07-31T08:00:57.000Z</time>
      </trkpt>
      <trkpt lat="49.82963" lon="4.86396">
        <ele>347</ele>
        <time>2021-07-31T08:00:58.000Z</time>
      </trkpt>
      <trkpt lat="49.8296" lon="4.86402">
        <ele>347</ele>
        <time>2021-07-31T08:00:59.000Z</time>
      </trkpt>
      <trkpt lat="49.82958" lon="4.86407">
        <ele>347</ele>
        <time>2021-07-31T08:01:00.000Z</time>
      </trkpt>
      <trkpt lat="49.82955" lon="4.86413">
        <ele>347</ele>
        <time>2021-07-31T08:01:01.000Z</time>
      </trkpt>
      <trkpt lat="49.82953" lon="4.86419">
        <ele>347</ele>
        <time>2021-07-31T08:01:02.000Z</time>
      </trkpt>
      <trkpt lat="49.8295" lon="4.86424">
        <ele>347</ele>
        <time>2021-07-31T08:01:03.000Z</time>
      </trkpt>
      <trkpt lat="49.82947" lon="4.8643">
        <ele>347</ele>
        <time>2021-07-31T08:01:04.000Z</time>
      </trkpt>
      <trkpt lat="49.82946" lon="4.86435">
        <ele>347</ele>
        <time>2021-07-31T08:01:05.000Z</time>
      </trkpt>
      <trkpt lat="49.82944" lon="4.8644">
        <ele>347</ele>
        <time>2021-07-31T08:01:06.000Z</time>
      </trkpt>
      <trkpt lat="49.82942" lon="4.86444">
        <ele>347</ele>
        <time>2021-07-31T08:01:07.000Z</time>
      </trkpt>
      <trkpt lat="49.82939" lon="4.86449">
        <ele>348</ele>
        <time>2021-07-31T08:01:08.000Z</time>
      </trkpt>
      <trkpt lat="49.82936" lon="4.86454">
        <ele>348</ele>
        <time>2021-07-31T08:01:09.000Z</time>
      </trkpt>
      <trkpt lat="49.82934" lon="4.8646">
        <ele>348</ele>
        <time>2021-07-31T08:01:10.000Z</time>
      </trkpt>
      <trkpt lat="49.82931" lon="4.86466">
        <ele>348</ele>
        <time>2021-07-31T08:01:11.000Z</time>
      </trkpt>
      <trkpt lat="49.82929" lon="4.86472">
        <ele>348</ele>
        <time>2021-07-31T08:01:12.000Z</time>
      </trkpt>
      <trkpt lat="49.82926" lon="4.86478">
        <ele>348</ele>
        <time>2021-07-31T08:01:13.000Z</time>
      </trkpt>
      <trkpt lat="49.82924" lon="4.86484">
        <ele>349</ele>
        <time>2021-07-31T08:01:14.000Z</time>
      </trkpt>
      <trkpt lat="49.82921" lon="4.86491">
        <ele>349</ele>
        <time>2021-07-31T08:01:15.000Z</time>
      </trkpt>
      <trkpt lat="49.82918" lon="4.86496">
        <ele>349</ele>
        <time>2021-07-31T08:01:16.000Z</time>
      </trkpt>
      <trkpt lat="49.82915" lon="4.86502">
        <ele>349</ele>
        <time>2021-07-31T08:01:17.000Z</time>
      </trkpt>
      <trkpt lat="49.82912" lon="4.86507">
        <ele>349</ele>
        <time>2021-07-31T08:01:18.000Z</time>
      </trkpt>
      <trkpt lat="49.82908" lon="4.86513">
        <ele>349</ele>
        <time>2021-07-31T08:01:19.000Z</time>
      </trkpt>
      <trkpt lat="49.82905" lon="4.86518">
        <ele>350</ele>
        <time>2021-07-31T08:01:20.000Z</time>
      </trkpt>
      <trkpt lat="49.82901" lon="4.86523">
        <ele>350</ele>
        <time>2021-07-31T08:01:21.000Z</time>
      </trkpt>
      <trkpt lat="49.82897" lon="4.86527">
        <ele>350</ele>
        <time>2021-07-31T08:01:22.000Z</time>
      </trkpt>
      <trkpt lat="49.82892" lon="4.86531">
        <ele>350</ele>
        <time>2021-07-31T08:01:23.000Z</time>
      </trkpt>
      <trkpt lat="49.82888" lon="4.86534">
        <ele>350</ele>
        <time>2021-07-31T08:01:24.000Z</time>
      </trkpt>
      <trkpt lat="49.82884" lon="4.86537">
        <ele>350</ele>
        <time>2021-07-31T08:01:25.000Z</time>
      </trkpt>
      <trkpt lat="49.82879" lon="4.86541">
        <ele>351</ele>
        <time>2021-07-31T08:01:26.000Z</time>
      </trkpt>
      <trkpt lat="49.82874" lon="4.86544">
        <ele>351</ele>
        <time>2021-07-31T08:01:27.000Z</time>
      </trkpt>
      <trkpt lat="49.82869" lon="4.86546">
        <ele>351</ele>
        <time>2021-07-31T08:01:28.000Z</time>
      </trkpt>
      <trkpt lat="49.82865" lon="4.86549">
        <ele>351</ele>
        <time>2021-07-31T08:01:29.000Z</time>
      </trkpt>
      <trkpt lat="49.8286" lon="4.86551">
        <ele>351</ele>
        <time>2021-07-31T08:01:30.000Z</time>
      </trkpt>
      <trkpt lat="49.82856" lon="4.86554">
        <ele>351</ele>
        <time>2021-07-31T08:01:31.000Z</time>
      </trkpt>
      <trkpt lat="49.82851" lon="4.86556">
        <ele>351</ele>
        <time>2021-07-31T08:01:32.000Z</time>
      </trkpt>
      <trkpt lat="49.82847" lon="4.86559">
        <ele>351</ele>
        <time>2021-07-31T08:01:33.000Z</time>
      </trkpt>
      <trkpt lat="49.82843" lon="4.86562">
        <ele>351</ele>
        <time>2021-07-31T08:01:34.000Z</time>
      </trkpt>
      <trkpt lat="49.82839" lon="4.86563">
        <ele>351</ele>
        <time>2021-07-31T08:01:35.000Z</time>
      </trkpt>
      <trkpt lat="49.82835" lon="4.86564">
        <ele>351</ele>
        <time>2021-07-31T08:01:36.000Z</time>
      </trkpt>
      <trkpt lat="49.82831" lon="4.86566">
        <ele>351</ele>
        <time>2021-07-31T08:01:37.000Z</time>
      </trkpt>
      <trkpt lat="49.82826" lon="4.86569">
        <ele>352</ele>
        <time>2021-07-31T08:01:38.000Z</time>
      </trkpt>
      <trkpt lat="49.82822" lon="4.86571">
        <ele>352</ele>
        <time>2021-07-31T08:01:39.000Z</time>
      </trkpt>
      <trkpt lat="49.82817" lon="4.86572">
        <ele>352</ele>
        <time>2021-07-31T08:01:40.000Z</time>
      </trkpt>
      <trkpt lat="49.82813" lon="4.86574">
        <ele>352</ele>
        <time>2021-07-31T08:01:41.000Z</time>
      </trkpt>
      <trkpt lat="49.82808" lon="4.86576">
        <ele>352</ele>
        <time>2021-07-31T08:01:42.000Z</time>
      </trkpt>
      <trkpt lat="49.82804" lon="4.86578">
        <ele>351</ele>
        <time>2021-07-31T08:01:43.000Z</time>
      </trkpt>
      <trkpt lat="49.828" lon="4.86581">
        <ele>351</ele>
        <time>2021-07-31T08:01:44.000Z</time>
      </trkpt>
      <trkpt lat="49.82795" lon="4.86584">
        <ele>351</ele>
        <time>2021-07-31T08:01:45.000Z</time>
      </trkpt>
      <trkpt lat="49.8279" lon="4.86587">
        <ele>351</ele>
        <time>2021-07-31T08:01:46.000Z</time>
      </trkpt>
      <trkpt lat="49.82786" lon="4.86589">
        <ele>351</ele>
        <time>2021-07-31T08:01:47.000Z</time>
      </trkpt>
      <trkpt lat="49.82782" lon="4.86592">
        <ele>351</ele>
        <time>2021-07-31T08:01:48.000Z</time>
      </trkpt>
      <trkpt lat="49.82778" lon="4.86595">
        <ele>351</ele>
        <time>2021-07-31T08:01:49.000Z</time>
      </trkpt>
      <trkpt lat="49.82774" lon="4.86597">
        <ele>351</ele>
        <time>2021-07-31T08:01:50.000Z</time>
      </trkpt>
      <trkpt lat="49.8277" lon="4.86599">
        <ele>351</ele>
        <time>2021-07-31T08:01:51.000Z</time>
      </trkpt>
      <trkpt lat="49.82768" lon="4.86601">
        <ele>351</ele>
        <time>2021-07-31T08:01:52.000Z</time>
      </trkpt>
      <trkpt lat="49.82764" lon="4.86604">
        <ele>351</ele>
        <time>2021-07-31T08:01:53.000Z</time>
      </trkpt>
      <trkpt lat="49.82761" lon="4.86607">
        <ele>351</ele>
        <time>2021-07-31T08:01:54.000Z</time>
      </trkpt>
      <trkpt lat="49.82756" lon="4.8661">
        <ele>351</ele>
        <time>2021-07-31T08:01:55.000Z</time>
      </trkpt>
      <trkpt lat="49.82753" lon="4.86613">
        <ele>351</ele>
        <time>2021-07-31T08:01:56.000Z</time>
      </trkpt>
      <trkpt lat="49.82749" lon="4.86616">
        <ele>351</ele>
        <time>2021-07-31T08:01:57.000Z</time>
      </trkpt>
      <trkpt lat="49.82746" lon="4.86618">
        <ele>351</ele>
        <time>2021-07-31T08:01:58.000Z</time>
      </trkpt>
      <trkpt lat="49.82743" lon="4.86622">
        <ele>351</ele>
        <time>2021-07-31T08:01:59.000Z</time>
      </trkpt>
      <trkpt lat="49.82739" lon="4.86625">
        <ele>351</ele>
        <time>2021-07-31T08:02:00.000Z</time>
      </trkpt>
      <trkpt lat="49.82735" lon="4.86629">
        <ele>352</ele>
        <time>2021-07-31T08:02:01.000Z</time>
      </trkpt>
      <trkpt lat="49.82731" lon="4.86633">
        <ele>352</ele>
        <time>2021-07-31T08:02:02.000Z</time>
      </trkpt>
      <trkpt lat="49.82728" lon="4.86637">
        <ele>352</ele>
        <time>2021-07-31T08:02:03.000Z</time>
      </trkpt>
      <trkpt lat="49.82724" lon="4.86642">
        <ele>352</ele>
        <time>2021-07-31T08:02:04.000Z</time>
      </trkpt>
      <trkpt lat="49.8272" lon="4.86647">
        <ele>352</ele>
        <time>2021-07-31T08:02:05.000Z</time>
      </trkpt>
      <trkpt lat="49.82717" lon="4.86652">
        <ele>352</ele>
        <time>2021-07-31T08:02:06.000Z</time>
      </trkpt>
      <trkpt lat="49.82714" lon="4.86657">
        <ele>352</ele>
        <time>2021-07-31T08:02:07.000Z</time>
      </trkpt>
      <trkpt lat="49.82711" lon="4.86662">
        <ele>352</ele>
        <time>2021-07-31T08:02:08.000Z</time>
      </trkpt>
      <trkpt lat="49.82708" lon="4.86668">
        <ele>352</ele>
        <time>2021-07-31T08:02:09.000Z</time>
      </trkpt>
      <trkpt lat="49.82705" lon="4.86674">
        <ele>352</ele>
        <time>2021-07-31T08:02:10.000Z</time>
      </trkpt>
      <trkpt lat="49.82702" lon="4.86679">
        <ele>352</ele>
        <time>2021-07-31T08:02:11.000Z</time>
      </trkpt>
      <trkpt lat="49.827" lon="4.86684">
        <ele>352</ele>
        <time>2021-07-31T08:02:12.000Z</time>
      </trkpt>
      <trkpt lat="49.82697" lon="4.86689">
        <ele>352</ele>
        <time>2021-07-31T08:02:13.000Z</time>
      </trkpt>
      <trkpt lat="49.82695" lon="4.86694">
        <ele>352</ele>
        <time>2021-07-31T08:02:14.000Z</time>
      </trkpt>
      <trkpt lat="49.82693" lon="4.86699">
        <ele>352</ele>
        <time>2021-07-31T08:02:15.000Z</time>
      </trkpt>
      <trkpt lat="49.8269" lon="4.86703">
        <ele>352</ele>
        <time>2021-07-31T08:02:16.000Z</time>
      </trkpt>
      <trkpt lat="49.82688" lon="4.86709">
        <ele>352</ele>
        <time>2021-07-31T08:02:17.000Z</time>
      </trkpt>
      <trkpt lat="49.82685" lon="4.86715">
        <ele>352</ele>
        <time>2021-07-31T08:02:18.000Z</time>
      </trkpt>
      <trkpt lat="49.82683" lon="4.86721">
        <ele>352</ele>
        <time>2021-07-31T08:02:19.000Z</time>
      </trkpt>
      <trkpt lat="49.82681" lon="4.86726">
        <ele>352</ele>
        <time>2021-07-31T08:02:20.000Z</time>
      </trkpt>
      <trkpt lat="49.82678" lon="4.86732">
        <ele>352</ele>
        <time>2021-07-31T08:02:21.000Z</time>
      </trkpt>
      <trkpt lat="49.82676" lon="4.86737">
        <ele>352</ele>
        <time>2021-07-31T08:02:22.000Z</time>
      </trkpt>
      <trkpt lat="49.82673" lon="4.86742">
        <ele>352</ele>
        <time>2021-07-31T08:02:23.000Z</time>
      </trkpt>
      <trkpt lat="49.82671" lon="4.86747">
        <ele>352</ele>
        <time>2021-07-31T08:02:24.000Z</time>
      </trkpt>
      <trkpt lat="49.82668" lon="4.86752">
        <ele>352</ele>
        <time>2021-07-31T08:02:25.000Z</time>
      </trkpt>
      <trkpt lat="49.82666" lon="4.86758">
        <ele>352</ele>
        <time>2021-07-31T08:02:26.000Z</time>
      </trkpt>
      <trkpt lat="49.82663" lon="4.86763">
        <ele>352</ele>
        <time>2021-07-31T08:02:27.000Z</time>
      </trkpt>
      <trkpt lat="49.82661" lon="4.86768">
        <ele>353</ele>
        <time>2021-07-31T08:02:28.000Z</time>
      </trkpt>
      <trkpt lat="49.8266" lon="4.86773">
        <ele>353</ele>
        <time>2021-07-31T08:02:29.000Z</time>
      </trkpt>
      <trkpt lat="49.82657" lon="4.86778">
        <ele>353</ele>
        <time>2021-07-31T08:02:30.000Z</time>
      </trkpt>
      <trkpt lat="49.82656" lon="4.86783">
        <ele>353</ele>
        <time>2021-07-31T08:02:31.000Z</time>
      </trkpt>
      <trkpt lat="49.82655" lon="4.86788">
        <ele>353</ele>
        <time>2021-07-31T08:02:32.000Z</time>
      </trkpt>
      <trkpt lat="49.82653" lon="4.86793">
        <ele>353</ele>
        <time>2021-07-31T08:02:33.000Z</time>
      </trkpt>
      <trkpt lat="49.82652" lon="4.86798">
        <ele>353</ele>
        <time>2021-07-31T08:02:34.000Z</time>
      </trkpt>
      <trkpt lat="49.82651" lon="4.86802">
        <ele>353</ele>
        <time>2021-07-31T08:02:35.000Z</time>
      </trkpt>
      <trkpt lat="49.8265" lon="4.86807">
        <ele>353</ele>
        <time>2021-07-31T08:02:36.000Z</time>
      </trkpt>
      <trkpt lat="49.82649" lon="4.86812">
        <ele>354</ele>
        <time>2021-07-31T08:02:37.000Z</time>
      </trkpt>
      <trkpt lat="49.82648" lon="4.86818">
        <ele>354</ele>
        <time>2021-07-31T08:02:38.000Z</time>
      </trkpt>
      <trkpt lat="49.82648" lon="4.86822">
        <ele>354</ele>
        <time>2021-07-31T08:02:39.000Z</time>
      </trkpt>
      <trkpt lat="49.82648" lon="4.86827">
        <ele>354</ele>
        <time>2021-07-31T08:02:40.000Z</time>
      </trkpt>
      <trkpt lat="49.82647" lon="4.86833">
        <ele>354</ele>
        <time>2021-07-31T08:02:41.000Z</time>
      </trkpt>
      <trkpt lat="49.82646" lon="4.86838">
        <ele>354</ele>
        <time>2021-07-31T08:02:42.000Z</time>
      </trkpt>
      <trkpt lat="49.82645" lon="4.86844">
        <ele>354</ele>
        <time>2021-07-31T08:02:43.000Z</time>
      </trkpt>
      <trkpt lat="49.82644" lon="4.86851">
        <ele>354</ele>
        <time>2021-07-31T08:02:44.000Z</time>
      </trkpt>
      <trkpt lat="49.82643" lon="4.86856">
        <ele>354</ele>
        <time>2021-07-31T08:02:45.000Z</time>
      </trkpt>
      <trkpt lat="49.82643" lon="4.86863">
        <ele>354</ele>
        <time>2021-07-31T08:02:46.000Z</time>
      </trkpt>
      <trkpt lat="49.82643" lon="4.86869">
        <ele>354</ele>
        <time>2021-07-31T08:02:47.000Z</time>
      </trkpt>
      <trkpt lat="49.82643" lon="4.86875">
        <ele>355</ele>
        <time>2021-07-31T08:02:48.000Z</time>
      </trkpt>
      <trkpt lat="49.82643" lon="4.86881">
        <ele>355</ele>
        <time>2021-07-31T08:02:49.000Z</time>
      </trkpt>
      <trkpt lat="49.82642" lon="4.86886">
        <ele>355</ele>
        <time>2021-07-31T08:02:50.000Z</time>
      </trkpt>
      <trkpt lat="49.82642" lon="4.86893">
        <ele>355</ele>
        <time>2021-07-31T08:02:51.000Z</time>
      </trkpt>
      <trkpt lat="49.82642" lon="4.86899">
        <ele>355</ele>
        <time>2021-07-31T08:02:52.000Z</time>
      </trkpt>
      <trkpt lat="49.82642" lon="4.86904">
        <ele>355</ele>
        <time>2021-07-31T08:02:53.000Z</time>
      </trkpt>
      <trkpt lat="49.82642" lon="4.8691">
        <ele>356</ele>
        <time>2021-07-31T08:02:54.000Z</time>
      </trkpt>
      <trkpt lat="49.82641" lon="4.86916">
        <ele>356</ele>
        <time>2021-07-31T08:02:55.000Z</time>
      </trkpt>
      <trkpt lat="49.82641" lon="4.86922">
        <ele>356</ele>
        <time>2021-07-31T08:02:56.000Z</time>
      </trkpt>
      <trkpt lat="49.82641" lon="4.86927">
        <ele>356</ele>
        <time>2021-07-31T08:02:57.000Z</time>
      </trkpt>
      <trkpt lat="49.8264" lon="4.86933">
        <ele>356</ele>
        <time>2021-07-31T08:02:58.000Z</time>
      </trkpt>
      <trkpt lat="49.8264" lon="4.8694">
        <ele>356</ele>
        <time>2021-07-31T08:02:59.000Z</time>
      </trkpt>
      <trkpt lat="49.82639" lon="4.86946">
        <ele>356</ele>
        <time>2021-07-31T08:03:00.000Z</time>
      </trkpt>
      <trkpt lat="49.82638" lon="4.86952">
        <ele>356</ele>
        <time>2021-07-31T08:03:01.000Z</time>
      </trkpt>
      <trkpt lat="49.82637" lon="4.86958">
        <ele>357</ele>
        <time>2021-07-31T08:03:02.000Z</time>
      </trkpt>
      <trkpt lat="49.82635" lon="4.86963">
        <ele>357</ele>
        <time>2021-07-31T08:03:03.000Z</time>
      </trkpt>
      <trkpt lat="49.82633" lon="4.86969">
        <ele>357</ele>
        <time>2021-07-31T08:03:04.000Z</time>
      </trkpt>
      <trkpt lat="49.82632" lon="4.86975">
        <ele>357</ele>
        <time>2021-07-31T08:03:05.000Z</time>
      </trkpt>
      <trkpt lat="49.8263" lon="4.86981">
        <ele>357</ele>
        <time>2021-07-31T08:03:06.000Z</time>
      </trkpt>
      <trkpt lat="49.82628" lon="4.86987">
        <ele>357</ele>
        <time>2021-07-31T08:03:07.000Z</time>
      </trkpt>
      <trkpt lat="49.82625" lon="4.86992">
        <ele>357</ele>
        <time>2021-07-31T08:03:08.000Z</time>
      </trkpt>
      <trkpt lat="49.82622" lon="4.86997">
        <ele>357</ele>
        <time>2021-07-31T08:03:09.000Z</time>
      </trkpt>
      <trkpt lat="49.8262" lon="4.87002">
        <ele>357</ele>
        <time>2021-07-31T08:03:10.000Z</time>
      </trkpt>
      <trkpt lat="49.82617" lon="4.87007">
        <ele>357</ele>
        <time>2021-07-31T08:03:11.000Z</time>
      </trkpt>
      <trkpt lat="49.82613" lon="4.87011">
        <ele>357</ele>
        <time>2021-07-31T08:03:12.000Z</time>
      </trkpt>
      <trkpt lat="49.8261" lon="4.87016">
        <ele>357</ele>
        <time>2021-07-31T08:03:13.000Z</time>
      </trkpt>
      <trkpt lat="49.82607" lon="4.8702">
        <ele>357</ele>
        <time>2021-07-31T08:03:14.000Z</time>
      </trkpt>
      <trkpt lat="49.82603" lon="4.87024">
        <ele>357</ele>
        <time>2021-07-31T08:03:15.000Z</time>
      </trkpt>
      <trkpt lat="49.82599" lon="4.87028">
        <ele>357</ele>
        <time>2021-07-31T08:03:16.000Z</time>
      </trkpt>
      <trkpt lat="49.82595" lon="4.87032">
        <ele>357</ele>
        <time>2021-07-31T08:03:17.000Z</time>
      </trkpt>
      <trkpt lat="49.82591" lon="4.87036">
        <ele>358</ele>
        <time>2021-07-31T08:03:18.000Z</time>
      </trkpt>
      <trkpt lat="49.82586" lon="4.87039">
        <ele>358</ele>
        <time>2021-07-31T08:03:19.000Z</time>
      </trkpt>
      <trkpt lat="49.82583" lon="4.87042">
        <ele>358</ele>
        <time>2021-07-31T08:03:20.000Z</time>
      </trkpt>
      <trkpt lat="49.8258" lon="4.87045">
        <ele>358</ele>
        <time>2021-07-31T08:03:21.000Z</time>
      </trkpt>
      <trkpt lat="49.82577" lon="4.87048">
        <ele>358</ele>
        <time>2021-07-31T08:03:22.000Z</time>
      </trkpt>
      <trkpt lat="49.82574" lon="4.87052">
        <ele>358</ele>
        <time>2021-07-31T08:03:23.000Z</time>
      </trkpt>
      <trkpt lat="49.8257" lon="4.87054">
        <ele>358</ele>
        <time>2021-07-31T08:03:24.000Z</time>
      </trkpt>
      <trkpt lat="49.82567" lon="4.87056">
        <ele>358</ele>
        <time>2021-07-31T08:03:25.000Z</time>
      </trkpt>
      <trkpt lat="49.82563" lon="4.87059">
        <ele>358</ele>
        <time>2021-07-31T08:03:26.000Z</time>
      </trkpt>
      <trkpt lat="49.8256" lon="4.87062">
        <ele>358</ele>
        <time>2021-07-31T08:03:27.000Z</time>
      </trkpt>
      <trkpt lat="49.82556" lon="4.87065">
        <ele>358</ele>
        <time>2021-07-31T08:03:28.000Z</time>
      </trkpt>
      <trkpt lat="49.82552" lon="4.87067">
        <ele>358</ele>
        <time>2021-07-31T08:03:29.000Z</time>
      </trkpt>
      <trkpt lat="49.82549" lon="4.8707">
        <ele>359</ele>
        <time>2021-07-31T08:03:30.000Z</time>
      </trkpt>
      <trkpt lat="49.82545" lon="4.87074">
        <ele>359</ele>
        <time>2021-07-31T08:03:31.000Z</time>
      </trkpt>
      <trkpt lat="49.82541" lon="4.87077">
        <ele>359</ele>
        <time>2021-07-31T08:03:32.000Z</time>
      </trkpt>
      <trkpt lat="49.82537" lon="4.87079">
        <ele>359</ele>
        <time>2021-07-31T08:03:33.000Z</time>
      </trkpt>
      <trkpt lat="49.82534" lon="4.87083">
        <ele>359</ele>
        <time>2021-07-31T08:03:34.000Z</time>
      </trkpt>
      <trkpt lat="49.8253" lon="4.87087">
        <ele>359</ele>
        <time>2021-07-31T08:03:35.000Z</time>
      </trkpt>
      <trkpt lat="49.82527" lon="4.87091">
        <ele>359</ele>
        <time>2021-07-31T08:03:36.000Z</time>
      </trkpt>
      <trkpt lat="49.82523" lon="4.87097">
        <ele>359</ele>
        <time>2021-07-31T08:03:37.000Z</time>
      </trkpt>
      <trkpt lat="49.8252" lon="4.87102">
        <ele>359</ele>
        <time>2021-07-31T08:03:38.000Z</time>
      </trkpt>
      <trkpt lat="49.82516" lon="4.87108">
        <ele>359</ele>
        <time>2021-07-31T08:03:39.000Z</time>
      </trkpt>
      <trkpt lat="49.82512" lon="4.87114">
        <ele>359</ele>
        <time>2021-07-31T08:03:40.000Z</time>
      </trkpt>
      <trkpt lat="49.82508" lon="4.8712">
        <ele>359</ele>
        <time>2021-07-31T08:03:41.000Z</time>
      </trkpt>
      <trkpt lat="49.82505" lon="4.87126">
        <ele>359</ele>
        <time>2021-07-31T08:03:42.000Z</time>
      </trkpt>
      <trkpt lat="49.82502" lon="4.87132">
        <ele>359</ele>
        <time>2021-07-31T08:03:43.000Z</time>
      </trkpt>
      <trkpt lat="49.82499" lon="4.87139">
        <ele>359</ele>
        <time>2021-07-31T08:03:44.000Z</time>
      </trkpt>
      <trkpt lat="49.82495" lon="4.87146">
        <ele>359</ele>
        <time>2021-07-31T08:03:45.000Z</time>
      </trkpt>
      <trkpt lat="49.82492" lon="4.87152">
        <ele>359</ele>
        <time>2021-07-31T08:03:46.000Z</time>
      </trkpt>
      <trkpt lat="49.82489" lon="4.87159">
        <ele>359</ele>
        <time>2021-07-31T08:03:47.000Z</time>
      </trkpt>
      <trkpt lat="49.82487" lon="4.87167">
        <ele>359</ele>
        <time>2021-07-31T08:03:48.000Z</time>
      </trkpt>
      <trkpt lat="49.82484" lon="4.87174">
        <ele>359</ele>
        <time>2021-07-31T08:03:49.000Z</time>
      </trkpt>
      <trkpt lat="49.82481" lon="4.87182">
        <ele>359</ele>
        <time>2021-07-31T08:03:50.000Z</time>
      </trkpt>
      <trkpt lat="49.82478" lon="4.87189">
        <ele>359</ele>
        <time>2021-07-31T08:03:51.000Z</time>
      </trkpt>
      <trkpt lat="49.82476" lon="4.87195">
        <ele>359</ele>
        <time>2021-07-31T08:03:52.000Z</time>
      </trkpt>
      <trkpt lat="49.82473" lon="4.87202">
        <ele>359</ele>
        <time>2021-07-31T08:03:53.000Z</time>
      </trkpt>
      <trkpt lat="49.82471" lon="4.87209">
        <ele>359</ele>
        <time>2021-07-31T08:03:54.000Z</time>
      </trkpt>
      <trkpt lat="49.82468" lon="4.87215">
        <ele>359</ele>
        <time>2021-07-31T08:03:55.000Z</time>
      </trkpt>
      <trkpt lat="49.82466" lon="4.87222">
        <ele>359</ele>
        <time>2021-07-31T08:03:56.000Z</time>
      </trkpt>
      <trkpt lat="49.82463" lon="4.87229">
        <ele>359</ele>
        <time>2021-07-31T08:03:57.000Z</time>
      </trkpt>
      <trkpt lat="49.82461" lon="4.87236">
        <ele>359</ele>
        <time>2021-07-31T08:03:58.000Z</time>
      </trkpt>
      <trkpt lat="49.82458" lon="4.87242">
        <ele>360</ele>
        <time>2021-07-31T08:03:59.000Z</time>
      </trkpt>
      <trkpt lat="49.82455" lon="4.87248">
        <ele>360</ele>
        <time>2021-07-31T08:04:00.000Z</time>
      </trkpt>
      <trkpt lat="49.82453" lon="4.87254">
        <ele>360</ele>
        <time>2021-07-31T08:04:01.000Z</time>
      </trkpt>
      <trkpt lat="49.8245" lon="4.87259">
        <ele>360</ele>
        <time>2021-07-31T08:04:02.000Z</time>
      </trkpt>
      <trkpt lat="49.82448" lon="4.87265">
        <ele>360</ele>
        <time>2021-07-31T08:04:03.000Z</time>
      </trkpt>
      <trkpt lat="49.82446" lon="4.8727">
        <ele>360</ele>
        <time>2021-07-31T08:04:04.000Z</time>
      </trkpt>
      <trkpt lat="49.82444" lon="4.87274">
        <ele>360</ele>
        <time>2021-07-31T08:04:05.000Z</time>
      </trkpt>
      <trkpt lat="49.82442" lon="4.87279">
        <ele>360</ele>
        <time>2021-07-31T08:04:06.000Z</time>
      </trkpt>
      <trkpt lat="49.82441" lon="4.87284">
        <ele>360</ele>
        <time>2021-07-31T08:04:07.000Z</time>
      </trkpt>
      <trkpt lat="49.82439" lon="4.8729">
        <ele>360</ele>
        <time>2021-07-31T08:04:08.000Z</time>
      </trkpt>
      <trkpt lat="49.82437" lon="4.87296">
        <ele>360</ele>
        <time>2021-07-31T08:04:09.000Z</time>
      </trkpt>
      <trkpt lat="49.82435" lon="4.87301">
        <ele>360</ele>
        <time>2021-07-31T08:04:10.000Z</time>
      </trkpt>
      <trkpt lat="49.82433" lon="4.87307">
        <ele>360</ele>
        <time>2021-07-31T08:04:11.000Z</time>
      </trkpt>
      <trkpt lat="49.82431" lon="4.87313">
        <ele>360</ele>
        <time>2021-07-31T08:04:12.000Z</time>
      </trkpt>
      <trkpt lat="49.82429" lon="4.8732">
        <ele>360</ele>
        <time>2021-07-31T08:04:13.000Z</time>
      </trkpt>
      <trkpt lat="49.82428" lon="4.87326">
        <ele>360</ele>
        <time>2021-07-31T08:04:14.000Z</time>
      </trkpt>
      <trkpt lat="49.82427" lon="4.87332">
        <ele>360</ele>
        <time>2021-07-31T08:04:15.000Z</time>
      </trkpt>
      <trkpt lat="49.82426" lon="4.87339">
        <ele>360</ele>
        <time>2021-07-31T08:04:16.000Z</time>
      </trkpt>
      <trkpt lat="49.82425" lon="4.87345">
        <ele>360</ele>
        <time>2021-07-31T08:04:17.000Z</time>
      </trkpt>
      <trkpt lat="49.82424" lon="4.87352">
        <ele>361</ele>
        <time>2021-07-31T08:04:18.000Z</time>
      </trkpt>
      <trkpt lat="49.82424" lon="4.87358">
        <ele>361</ele>
        <time>2021-07-31T08:04:19.000Z</time>
      </trkpt>
      <trkpt lat="49.82423" lon="4.87365">
        <ele>361</ele>
        <time>2021-07-31T08:04:20.000Z</time>
      </trkpt>
      <trkpt lat="49.82423" lon="4.87371">
        <ele>361</ele>
        <time>2021-07-31T08:04:21.000Z</time>
      </trkpt>
      <trkpt lat="49.82423" lon="4.87378">
        <ele>361</ele>
        <time>2021-07-31T08:04:22.000Z</time>
      </trkpt>
      <trkpt lat="49.82422" lon="4.87385">
        <ele>361</ele>
        <time>2021-07-31T08:04:23.000Z</time>
      </trkpt>
      <trkpt lat="49.82422" lon="4.87391">
        <ele>361</ele>
        <time>2021-07-31T08:04:24.000Z</time>
      </trkpt>
      <trkpt lat="49.82422" lon="4.87397">
        <ele>361</ele>
        <time>2021-07-31T08:04:25.000Z</time>
      </trkpt>
      <trkpt lat="49.82422" lon="4.87403">
        <ele>361</ele>
        <time>2021-07-31T08:04:26.000Z</time>
      </trkpt>
      <trkpt lat="49.8242" lon="4.87408">
        <ele>361</ele>
        <time>2021-07-31T08:04:27.000Z</time>
      </trkpt>
      <trkpt lat="49.82417" lon="4.87412">
        <ele>361</ele>
        <time>2021-07-31T08:04:28.000Z</time>
      </trkpt>
      <trkpt lat="49.82413" lon="4.87413">
        <ele>361</ele>
        <time>2021-07-31T08:04:29.000Z</time>
      </trkpt>
      <trkpt lat="49.8241" lon="4.87411">
        <ele>362</ele>
        <time>2021-07-31T08:04:30.000Z</time>
      </trkpt>
      <trkpt lat="49.82407" lon="4.87406">
        <ele>362</ele>
        <time>2021-07-31T08:04:31.000Z</time>
      </trkpt>
      <trkpt lat="49.82406" lon="4.87401">
        <ele>362</ele>
        <time>2021-07-31T08:04:32.000Z</time>
      </trkpt>
      <trkpt lat="49.82404" lon="4.87396">
        <ele>362</ele>
        <time>2021-07-31T08:04:33.000Z</time>
      </trkpt>
      <trkpt lat="49.82402" lon="4.8739">
        <ele>362</ele>
        <time>2021-07-31T08:04:34.000Z</time>
      </trkpt>
      <trkpt lat="49.824" lon="4.87385">
        <ele>362</ele>
        <time>2021-07-31T08:04:35.000Z</time>
      </trkpt>
      <trkpt lat="49.82399" lon="4.8738">
        <ele>363</ele>
        <time>2021-07-31T08:04:36.000Z</time>
      </trkpt>
      <trkpt lat="49.82397" lon="4.87374">
        <ele>363</ele>
        <time>2021-07-31T08:04:37.000Z</time>
      </trkpt>
      <trkpt lat="49.82395" lon="4.87369">
        <ele>363</ele>
        <time>2021-07-31T08:04:38.000Z</time>
      </trkpt>
      <trkpt lat="49.82394" lon="4.87363">
        <ele>363</ele>
        <time>2021-07-31T08:04:39.000Z</time>
      </trkpt>
      <trkpt lat="49.82392" lon="4.87358">
        <ele>363</ele>
        <time>2021-07-31T08:04:40.000Z</time>
      </trkpt>
      <trkpt lat="49.8239" lon="4.87352">
        <ele>363</ele>
        <time>2021-07-31T08:04:41.000Z</time>
      </trkpt>
      <trkpt lat="49.82389" lon="4.87346">
        <ele>364</ele>
        <time>2021-07-31T08:04:42.000Z</time>
      </trkpt>
      <trkpt lat="49.82388" lon="4.8734">
        <ele>364</ele>
        <time>2021-07-31T08:04:43.000Z</time>
      </trkpt>
      <trkpt lat="49.82386" lon="4.87335">
        <ele>364</ele>
        <time>2021-07-31T08:04:44.000Z</time>
      </trkpt>
      <trkpt lat="49.82385" lon="4.87328">
        <ele>364</ele>
        <time>2021-07-31T08:04:45.000Z</time>
      </trkpt>
      <trkpt lat="49.82384" lon="4.87322">
        <ele>364</ele>
        <time>2021-07-31T08:04:46.000Z</time>
      </trkpt>
      <trkpt lat="49.82382" lon="4.87316">
        <ele>364</ele>
        <time>2021-07-31T08:04:47.000Z</time>
      </trkpt>
      <trkpt lat="49.8238" lon="4.8731">
        <ele>365</ele>
        <time>2021-07-31T08:04:48.000Z</time>
      </trkpt>
      <trkpt lat="49.82379" lon="4.87304">
        <ele>365</ele>
        <time>2021-07-31T08:04:49.000Z</time>
      </trkpt>
      <trkpt lat="49.82376" lon="4.87298">
        <ele>365</ele>
        <time>2021-07-31T08:04:50.000Z</time>
      </trkpt>
      <trkpt lat="49.82374" lon="4.87292">
        <ele>365</ele>
        <time>2021-07-31T08:04:51.000Z</time>
      </trkpt>
      <trkpt lat="49.82372" lon="4.87287">
        <ele>365</ele>
        <time>2021-07-31T08:04:52.000Z</time>
      </trkpt>
      <trkpt lat="49.82369" lon="4.87281">
        <ele>365</ele>
        <time>2021-07-31T08:04:53.000Z</time>
      </trkpt>
      <trkpt lat="49.82366" lon="4.87276">
        <ele>365</ele>
        <time>2021-07-31T08:04:54.000Z</time>
      </trkpt>
      <trkpt lat="49.82363" lon="4.87271">
        <ele>365</ele>
        <time>2021-07-31T08:04:55.000Z</time>
      </trkpt>
      <trkpt lat="49.8236" lon="4.87265">
        <ele>365</ele>
        <time>2021-07-31T08:04:56.000Z</time>
      </trkpt>
      <trkpt lat="49.82357" lon="4.87261">
        <ele>365</ele>
        <time>2021-07-31T08:04:57.000Z</time>
      </trkpt>
      <trkpt lat="49.82354" lon="4.87256">
        <ele>366</ele>
        <time>2021-07-31T08:04:58.000Z</time>
      </trkpt>
      <trkpt lat="49.82351" lon="4.87251">
        <ele>366</ele>
        <time>2021-07-31T08:04:59.000Z</time>
      </trkpt>
      <trkpt lat="49.82347" lon="4.87246">
        <ele>366</ele>
        <time>2021-07-31T08:05:00.000Z</time>
      </trkpt>
      <trkpt lat="49.82344" lon="4.87241">
        <ele>366</ele>
        <time>2021-07-31T08:05:01.000Z</time>
      </trkpt>
      <trkpt lat="49.82341" lon="4.87237">
        <ele>366</ele>
        <time>2021-07-31T08:05:02.000Z</time>
      </trkpt>
      <trkpt lat="49.82337" lon="4.87232">
        <ele>366</ele>
        <time>2021-07-31T08:05:03.000Z</time>
      </trkpt>
      <trkpt lat="49.82334" lon="4.87228">
        <ele>366</ele>
        <time>2021-07-31T08:05:04.000Z</time>
      </trkpt>
      <trkpt lat="49.82331" lon="4.87223">
        <ele>366</ele>
        <time>2021-07-31T08:05:05.000Z</time>
      </trkpt>
      <trkpt lat="49.82328" lon="4.87218">
        <ele>366</ele>
        <time>2021-07-31T08:05:06.000Z</time>
      </trkpt>
      <trkpt lat="49.82326" lon="4.87212">
        <ele>366</ele>
        <time>2021-07-31T08:05:07.000Z</time>
      </trkpt>
      <trkpt lat="49.82323" lon="4.87207">
        <ele>366</ele>
        <time>2021-07-31T08:05:08.000Z</time>
      </trkpt>
      <trkpt lat="49.8232" lon="4.87202">
        <ele>366</ele>
        <time>2021-07-31T08:05:09.000Z</time>
      </trkpt>
      <trkpt lat="49.82318" lon="4.87197">
        <ele>366</ele>
        <time>2021-07-31T08:05:10.000Z</time>
      </trkpt>
      <trkpt lat="49.82315" lon="4.87192">
        <ele>366</ele>
        <time>2021-07-31T08:05:11.000Z</time>
      </trkpt>
      <trkpt lat="49.82312" lon="4.87187">
        <ele>366</ele>
        <time>2021-07-31T08:05:12.000Z</time>
      </trkpt>
      <trkpt lat="49.82309" lon="4.87182">
        <ele>366</ele>
        <time>2021-07-31T08:05:13.000Z</time>
      </trkpt>
      <trkpt lat="49.82306" lon="4.87178">
        <ele>367</ele>
        <time>2021-07-31T08:05:14.000Z</time>
      </trkpt>
      <trkpt lat="49.82303" lon="4.87174">
        <ele>367</ele>
        <time>2021-07-31T08:05:15.000Z</time>
      </trkpt>
      <trkpt lat="49.82299" lon="4.8717">
        <ele>367</ele>
        <time>2021-07-31T08:05:16.000Z</time>
      </trkpt>
      <trkpt lat="49.82296" lon="4.87166">
        <ele>367</ele>
        <time>2021-07-31T08:05:17.000Z</time>
      </trkpt>
      <trkpt lat="49.82293" lon="4.87163">
        <ele>367</ele>
        <time>2021-07-31T08:05:18.000Z</time>
      </trkpt>
      <trkpt lat="49.8229" lon="4.87159">
        <ele>367</ele>
        <time>2021-07-31T08:05:19.000Z</time>
      </trkpt>
      <trkpt lat="49.82287" lon="4.87155">
        <ele>367</ele>
        <time>2021-07-31T08:05:20.000Z</time>
      </trkpt>
      <trkpt lat="49.82284" lon="4.87151">
        <ele>367</ele>
        <time>2021-07-31T08:05:21.000Z</time>
      </trkpt>
      <trkpt lat="49.82281" lon="4.87147">
        <ele>367</ele>
        <time>2021-07-31T08:05:22.000Z</time>
      </trkpt>
      <trkpt lat="49.82278" lon="4.87144">
        <ele>367</ele>
        <time>2021-07-31T08:05:23.000Z</time>
      </trkpt>
      <trkpt lat="49.82275" lon="4.8714">
        <ele>367</ele>
        <time>2021-07-31T08:05:24.000Z</time>
      </trkpt>
      <trkpt lat="49.82272" lon="4.87136">
        <ele>367</ele>
        <time>2021-07-31T08:05:25.000Z</time>
      </trkpt>
      <trkpt lat="49.82269" lon="4.87132">
        <ele>367</ele>
        <time>2021-07-31T08:05:26.000Z</time>
      </trkpt>
      <trkpt lat="49.82266" lon="4.87128">
        <ele>367</ele>
        <time>2021-07-31T08:05:27.000Z</time>
      </trkpt>
      <trkpt lat="49.82263" lon="4.87124">
        <ele>367</ele>
        <time>2021-07-31T08:05:28.000Z</time>
      </trkpt>
      <trkpt lat="49.8226" lon="4.8712">
        <ele>367</ele>
        <time>2021-07-31T08:05:29.000Z</time>
      </trkpt>
      <trkpt lat="49.82257" lon="4.87116">
        <ele>367</ele>
        <time>2021-07-31T08:05:30.000Z</time>
      </trkpt>
      <trkpt lat="49.82255" lon="4.87111">
        <ele>367</ele>
        <time>2021-07-31T08:05:31.000Z</time>
      </trkpt>
      <trkpt lat="49.82253" lon="4.87105">
        <ele>367</ele>
        <time>2021-07-31T08:05:32.000Z</time>
      </trkpt>
      <trkpt lat="49.8225" lon="4.871">
        <ele>367</ele>
        <time>2021-07-31T08:05:33.000Z</time>
      </trkpt>
      <trkpt lat="49.82248" lon="4.87095">
        <ele>367</ele>
        <time>2021-07-31T08:05:34.000Z</time>
      </trkpt>
      <trkpt lat="49.82246" lon="4.8709">
        <ele>367</ele>
        <time>2021-07-31T08:05:35.000Z</time>
      </trkpt>
      <trkpt lat="49.82244" lon="4.87086">
        <ele>367</ele>
        <time>2021-07-31T08:05:36.000Z</time>
      </trkpt>
      <trkpt lat="49.82242" lon="4.87081">
        <ele>366</ele>
        <time>2021-07-31T08:05:37.000Z</time>
      </trkpt>
      <trkpt lat="49.8224" lon="4.87077">
        <ele>366</ele>
        <time>2021-07-31T08:05:38.000Z</time>
      </trkpt>
      <trkpt lat="49.82238" lon="4.87072">
        <ele>366</ele>
        <time>2021-07-31T08:05:39.000Z</time>
      </trkpt>
      <trkpt lat="49.82235" lon="4.87068">
        <ele>366</ele>
        <time>2021-07-31T08:05:40.000Z</time>
      </trkpt>
      <trkpt lat="49.82233" lon="4.87063">
        <ele>366</ele>
        <time>2021-07-31T08:05:41.000Z</time>
      </trkpt>
      <trkpt lat="49.82231" lon="4.87059">
        <ele>366</ele>
        <time>2021-07-31T08:05:42.000Z</time>
      </trkpt>
      <trkpt lat="49.82229" lon="4.87055">
        <ele>366</ele>
        <time>2021-07-31T08:05:43.000Z</time>
      </trkpt>
      <trkpt lat="49.82227" lon="4.87051">
        <ele>366</ele>
        <time>2021-07-31T08:05:44.000Z</time>
      </trkpt>
      <trkpt lat="49.82225" lon="4.87047">
        <ele>366</ele>
        <time>2021-07-31T08:05:45.000Z</time>
      </trkpt>
      <trkpt lat="49.82224" lon="4.87044">
        <ele>366</ele>
        <time>2021-07-31T08:05:46.000Z</time>
      </trkpt>
      <trkpt lat="49.82223" lon="4.87043">
        <ele>366</ele>
        <time>2021-07-31T08:05:47.000Z</time>
      </trkpt>
      <trkpt lat="49.82223" lon="4.87042">
        <ele>366</ele>
        <time>2021-07-31T08:05:48.000Z</time>
      </trkpt>
      <trkpt lat="49.82223" lon="4.87041">
        <ele>366</ele>
        <time>2021-07-31T08:05:49.000Z</time>
      </trkpt>
      <trkpt lat="49.82223" lon="4.8704">
        <ele>366</ele>
        <time>2021-07-31T08:05:50.000Z</time>
      </trkpt>
      <trkpt lat="49.82224" lon="4.87039">
        <ele>366</ele>
        <time>2021-07-31T08:05:51.000Z</time>
      </trkpt>
      <trkpt lat="49.82224" lon="4.87038">
        <ele>366</ele>
        <time>2021-07-31T08:05:52.000Z</time>
      </trkpt>
      <trkpt lat="49.82224" lon="4.87037">
        <ele>366</ele>
        <time>2021-07-31T08:05:53.000Z</time>
      </trkpt>
      <trkpt lat="49.82223" lon="4.87037">
        <ele>366</ele>
        <time>2021-07-31T08:05:54.000Z</time>
      </trkpt>
      <trkpt lat="49.82223" lon="4.87037">
        <ele>366</ele>
        <time>2021-07-31T08:05:55.000Z</time>
      </trkpt>
      <trkpt lat="49.82223" lon="4.87036">
        <ele>366</ele>
        <time>2021-07-31T08:05:56.000Z</time>
      </trkpt>
      <trkpt lat="49.82222" lon="4.87036">
        <ele>366</ele>
        <time>2021-07-31T08:05:57.000Z</time>
      </trkpt>
      <trkpt lat="49.82221" lon="4.87035">
        <ele>366</ele>
        <time>2021-07-31T08:05:58.000Z</time>
      </trkpt>
      <trkpt lat="49.8222" lon="4.87034">
        <ele>366</ele>
        <time>2021-07-31T08:05:59.000Z</time>
      </trkpt>
      <trkpt lat="49.82219" lon="4.87032">
        <ele>366</ele>
        <time>2021-07-31T08:06:00.000Z</time>
      </trkpt>
      <trkpt lat="49.82217" lon="4.87031">
        <ele>366</ele>
        <time>2021-07-31T08:06:01.000Z</time>
      </trkpt>
      <trkpt lat="49.82216" lon="4.87029">
        <ele>366</ele>
        <time>2021-07-31T08:06:02.000Z</time>
      </trkpt>
      <trkpt lat="49.82214" lon="4.87029">
        <ele>366</ele>
        <time>2021-07-31T08:06:03.000Z</time>
      </trkpt>
      <trkpt lat="49.82213" lon="4.87029">
        <ele>366</ele>
        <time>2021-07-31T08:06:04.000Z</time>
      </trkpt>
      <trkpt lat="49.8221" lon="4.87029">
        <ele>366</ele>
        <time>2021-07-31T08:06:05.000Z</time>
      </trkpt>
      <trkpt lat="49.82208" lon="4.87029">
        <ele>366</ele>
        <time>2021-07-31T08:06:06.000Z</time>
      </trkpt>
      <trkpt lat="49.82205" lon="4.8703">
        <ele>366</ele>
        <time>2021-07-31T08:06:07.000Z</time>
      </trkpt>
      <trkpt lat="49.82203" lon="4.8703">
        <ele>366</ele>
        <time>2021-07-31T08:06:08.000Z</time>
      </trkpt>
      <trkpt lat="49.822" lon="4.8703">
        <ele>366</ele>
        <time>2021-07-31T08:06:09.000Z</time>
      </trkpt>
      <trkpt lat="49.82196" lon="4.87032">
        <ele>366</ele>
        <time>2021-07-31T08:06:10.000Z</time>
      </trkpt>
      <trkpt lat="49.82192" lon="4.87034">
        <ele>365</ele>
        <time>2021-07-31T08:06:11.000Z</time>
      </trkpt>
      <trkpt lat="49.82189" lon="4.87036">
        <ele>365</ele>
        <time>2021-07-31T08:06:12.000Z</time>
      </trkpt>
      <trkpt lat="49.82185" lon="4.87036">
        <ele>365</ele>
        <time>2021-07-31T08:06:13.000Z</time>
      </trkpt>
      <trkpt lat="49.82181" lon="4.87037">
        <ele>365</ele>
        <time>2021-07-31T08:06:14.000Z</time>
      </trkpt>
      <trkpt lat="49.82177" lon="4.87039">
        <ele>365</ele>
        <time>2021-07-31T08:06:15.000Z</time>
      </trkpt>
      <trkpt lat="49.82173" lon="4.8704">
        <ele>365</ele>
        <time>2021-07-31T08:06:16.000Z</time>
      </trkpt>
      <trkpt lat="49.82169" lon="4.87042">
        <ele>365</ele>
        <time>2021-07-31T08:06:17.000Z</time>
      </trkpt>
      <trkpt lat="49.82166" lon="4.87043">
        <ele>365</ele>
        <time>2021-07-31T08:06:18.000Z</time>
      </trkpt>
      <trkpt lat="49.82163" lon="4.87044">
        <ele>365</ele>
        <time>2021-07-31T08:06:19.000Z</time>
      </trkpt>
      <trkpt lat="49.82159" lon="4.87045">
        <ele>365</ele>
        <time>2021-07-31T08:06:20.000Z</time>
      </trkpt>
      <trkpt lat="49.82156" lon="4.87046">
        <ele>365</ele>
        <time>2021-07-31T08:06:21.000Z</time>
      </trkpt>
      <trkpt lat="49.82153" lon="4.87048">
        <ele>365</ele>
        <time>2021-07-31T08:06:22.000Z</time>
      </trkpt>
      <trkpt lat="49.8215" lon="4.87049">
        <ele>365</ele>
        <time>2021-07-31T08:06:23.000Z</time>
      </trkpt>
      <trkpt lat="49.82146" lon="4.87049">
        <ele>365</ele>
        <time>2021-07-31T08:06:24.000Z</time>
      </trkpt>
      <trkpt lat="49.82142" lon="4.8705">
        <ele>365</ele>
        <time>2021-07-31T08:06:25.000Z</time>
      </trkpt>
      <trkpt lat="49.82139" lon="4.87051">
        <ele>365</ele>
        <time>2021-07-31T08:06:26.000Z</time>
      </trkpt>
      <trkpt lat="49.82135" lon="4.87051">
        <ele>364</ele>
        <time>2021-07-31T08:06:27.000Z</time>
      </trkpt>
      <trkpt lat="49.82131" lon="4.87053">
        <ele>364</ele>
        <time>2021-07-31T08:06:28.000Z</time>
      </trkpt>
      <trkpt lat="49.82127" lon="4.87054">
        <ele>364</ele>
        <time>2021-07-31T08:06:29.000Z</time>
      </trkpt>
      <trkpt lat="49.82123" lon="4.87055">
        <ele>364</ele>
        <time>2021-07-31T08:06:30.000Z</time>
      </trkpt>
      <trkpt lat="49.82119" lon="4.87055">
        <ele>364</ele>
        <time>2021-07-31T08:06:31.000Z</time>
      </trkpt>
      <trkpt lat="49.82115" lon="4.87055">
        <ele>364</ele>
        <time>2021-07-31T08:06:32.000Z</time>
      </trkpt>
      <trkpt lat="49.82111" lon="4.87056">
        <ele>364</ele>
        <time>2021-07-31T08:06:33.000Z</time>
      </trkpt>
      <trkpt lat="49.82108" lon="4.87057">
        <ele>364</ele>
        <time>2021-07-31T08:06:34.000Z</time>
      </trkpt>
      <trkpt lat="49.82104" lon="4.87059">
        <ele>364</ele>
        <time>2021-07-31T08:06:35.000Z</time>
      </trkpt>
      <trkpt lat="49.821" lon="4.87059">
        <ele>364</ele>
        <time>2021-07-31T08:06:36.000Z</time>
      </trkpt>
      <trkpt lat="49.82095" lon="4.87059">
        <ele>364</ele>
        <time>2021-07-31T08:06:37.000Z</time>
      </trkpt>
      <trkpt lat="49.82091" lon="4.8706">
        <ele>364</ele>
        <time>2021-07-31T08:06:38.000Z</time>
      </trkpt>
      <trkpt lat="49.82087" lon="4.8706">
        <ele>364</ele>
        <time>2021-07-31T08:06:39.000Z</time>
      </trkpt>
      <trkpt lat="49.82083" lon="4.87061">
        <ele>364</ele>
        <time>2021-07-31T08:06:40.000Z</time>
      </trkpt>
      <trkpt lat="49.82079" lon="4.87061">
        <ele>364</ele>
        <time>2021-07-31T08:06:41.000Z</time>
      </trkpt>
      <trkpt lat="49.82075" lon="4.87061">
        <ele>364</ele>
        <time>2021-07-31T08:06:42.000Z</time>
      </trkpt>
      <trkpt lat="49.82072" lon="4.87061">
        <ele>364</ele>
        <time>2021-07-31T08:06:43.000Z</time>
      </trkpt>
      <trkpt lat="49.82069" lon="4.87059">
        <ele>364</ele>
        <time>2021-07-31T08:06:44.000Z</time>
      </trkpt>
      <trkpt lat="49.82066" lon="4.87057">
        <ele>364</ele>
        <time>2021-07-31T08:06:45.000Z</time>
      </trkpt>
      <trkpt lat="49.82064" lon="4.87055">
        <ele>364</ele>
        <time>2021-07-31T08:06:46.000Z</time>
      </trkpt>
      <trkpt lat="49.82061" lon="4.87052">
        <ele>364</ele>
        <time>2021-07-31T08:06:47.000Z</time>
      </trkpt>
      <trkpt lat="49.82058" lon="4.87049">
        <ele>364</ele>
        <time>2021-07-31T08:06:48.000Z</time>
      </trkpt>
      <trkpt lat="49.82055" lon="4.87045">
        <ele>364</ele>
        <time>2021-07-31T08:06:49.000Z</time>
      </trkpt>
      <trkpt lat="49.82053" lon="4.8704">
        <ele>364</ele>
        <time>2021-07-31T08:06:50.000Z</time>
      </trkpt>
      <trkpt lat="49.8205" lon="4.87036">
        <ele>364</ele>
        <time>2021-07-31T08:06:51.000Z</time>
      </trkpt>
      <trkpt lat="49.82048" lon="4.87032">
        <ele>364</ele>
        <time>2021-07-31T08:06:52.000Z</time>
      </trkpt>
      <trkpt lat="49.82045" lon="4.87029">
        <ele>364</ele>
        <time>2021-07-31T08:06:53.000Z</time>
      </trkpt>
      <trkpt lat="49.82043" lon="4.87024">
        <ele>364</ele>
        <time>2021-07-31T08:06:54.000Z</time>
      </trkpt>
      <trkpt lat="49.8204" lon="4.87018">
        <ele>364</ele>
        <time>2021-07-31T08:06:55.000Z</time>
      </trkpt>
      <trkpt lat="49.82038" lon="4.87013">
        <ele>364</ele>
        <time>2021-07-31T08:06:56.000Z</time>
      </trkpt>
      <trkpt lat="49.82035" lon="4.87009">
        <ele>364</ele>
        <time>2021-07-31T08:06:57.000Z</time>
      </trkpt>
      <trkpt lat="49.82033" lon="4.87004">
        <ele>364</ele>
        <time>2021-07-31T08:06:58.000Z</time>
      </trkpt>
      <trkpt lat="49.8203" lon="4.86998">
        <ele>364</ele>
        <time>2021-07-31T08:06:59.000Z</time>
      </trkpt>
      <trkpt lat="49.82027" lon="4.86992">
        <ele>364</ele>
        <time>2021-07-31T08:07:00.000Z</time>
      </trkpt>
      <trkpt lat="49.82024" lon="4.86987">
        <ele>364</ele>
        <time>2021-07-31T08:07:01.000Z</time>
      </trkpt>
      <trkpt lat="49.82021" lon="4.8698">
        <ele>364</ele>
        <time>2021-07-31T08:07:02.000Z</time>
      </trkpt>
      <trkpt lat="49.82018" lon="4.86974">
        <ele>364</ele>
        <time>2021-07-31T08:07:03.000Z</time>
      </trkpt>
      <trkpt lat="49.82015" lon="4.86968">
        <ele>364</ele>
        <time>2021-07-31T08:07:04.000Z</time>
      </trkpt>
      <trkpt lat="49.82011" lon="4.86963">
        <ele>364</ele>
        <time>2021-07-31T08:07:05.000Z</time>
      </trkpt>
      <trkpt lat="49.82008" lon="4.86957">
        <ele>364</ele>
        <time>2021-07-31T08:07:06.000Z</time>
      </trkpt>
      <trkpt lat="49.82005" lon="4.86951">
        <ele>364</ele>
        <time>2021-07-31T08:07:07.000Z</time>
      </trkpt>
      <trkpt lat="49.82001" lon="4.86945">
        <ele>364</ele>
        <time>2021-07-31T08:07:08.000Z</time>
      </trkpt>
      <trkpt lat="49.81997" lon="4.86939">
        <ele>364</ele>
        <time>2021-07-31T08:07:09.000Z</time>
      </trkpt>
      <trkpt lat="49.81994" lon="4.86933">
        <ele>364</ele>
        <time>2021-07-31T08:07:10.000Z</time>
      </trkpt>
      <trkpt lat="49.81991" lon="4.86927">
        <ele>364</ele>
        <time>2021-07-31T08:07:11.000Z</time>
      </trkpt>
      <trkpt lat="49.81987" lon="4.8692">
        <ele>364</ele>
        <time>2021-07-31T08:07:12.000Z</time>
      </trkpt>
      <trkpt lat="49.81983" lon="4.86912">
        <ele>363</ele>
        <time>2021-07-31T08:07:13.000Z</time>
      </trkpt>
      <trkpt lat="49.8198" lon="4.86904">
        <ele>363</ele>
        <time>2021-07-31T08:07:14.000Z</time>
      </trkpt>
      <trkpt lat="49.81976" lon="4.86896">
        <ele>363</ele>
        <time>2021-07-31T08:07:15.000Z</time>
      </trkpt>
      <trkpt lat="49.81972" lon="4.86887">
        <ele>363</ele>
        <time>2021-07-31T08:07:16.000Z</time>
      </trkpt>
      <trkpt lat="49.81968" lon="4.86878">
        <ele>363</ele>
        <time>2021-07-31T08:07:17.000Z</time>
      </trkpt>
      <trkpt lat="49.81964" lon="4.86869">
        <ele>363</ele>
        <time>2021-07-31T08:07:18.000Z</time>
      </trkpt>
      <trkpt lat="49.81961" lon="4.86861">
        <ele>362</ele>
        <time>2021-07-31T08:07:19.000Z</time>
      </trkpt>
      <trkpt lat="49.81957" lon="4.86853">
        <ele>362</ele>
        <time>2021-07-31T08:07:20.000Z</time>
      </trkpt>
      <trkpt lat="49.81953" lon="4.86845">
        <ele>362</ele>
        <time>2021-07-31T08:07:21.000Z</time>
      </trkpt>
      <trkpt lat="49.81948" lon="4.86837">
        <ele>361</ele>
        <time>2021-07-31T08:07:22.000Z</time>
      </trkpt>
      <trkpt lat="49.81945" lon="4.86829">
        <ele>361</ele>
        <time>2021-07-31T08:07:23.000Z</time>
      </trkpt>
      <trkpt lat="49.81941" lon="4.86821">
        <ele>361</ele>
        <time>2021-07-31T08:07:24.000Z</time>
      </trkpt>
      <trkpt lat="49.81937" lon="4.86813">
        <ele>360</ele>
        <time>2021-07-31T08:07:25.000Z</time>
      </trkpt>
      <trkpt lat="49.81934" lon="4.86806">
        <ele>360</ele>
        <time>2021-07-31T08:07:26.000Z</time>
      </trkpt>
      <trkpt lat="49.8193" lon="4.86797">
        <ele>359</ele>
        <time>2021-07-31T08:07:27.000Z</time>
      </trkpt>
      <trkpt lat="49.81927" lon="4.86789">
        <ele>359</ele>
        <time>2021-07-31T08:07:28.000Z</time>
      </trkpt>
      <trkpt lat="49.81924" lon="4.86782">
        <ele>358</ele>
        <time>2021-07-31T08:07:29.000Z</time>
      </trkpt>
      <trkpt lat="49.81921" lon="4.86776">
        <ele>358</ele>
        <time>2021-07-31T08:07:30.000Z</time>
      </trkpt>
      <trkpt lat="49.81918" lon="4.8677">
        <ele>358</ele>
        <time>2021-07-31T08:07:31.000Z</time>
      </trkpt>
      <trkpt lat="49.81916" lon="4.86764">
        <ele>357</ele>
        <time>2021-07-31T08:07:32.000Z</time>
      </trkpt>
      <trkpt lat="49.81913" lon="4.86758">
        <ele>357</ele>
        <time>2021-07-31T08:07:33.000Z</time>
      </trkpt>
      <trkpt lat="49.81911" lon="4.86753">
        <ele>357</ele>
        <time>2021-07-31T08:07:34.000Z</time>
      </trkpt>
      <trkpt lat="49.81908" lon="4.86748">
        <ele>356</ele>
        <time>2021-07-31T08:07:35.000Z</time>
      </trkpt>
      <trkpt lat="49.81906" lon="4.86742">
        <ele>356</ele>
        <time>2021-07-31T08:07:36.000Z</time>
      </trkpt>
      <trkpt lat="49.81902" lon="4.86736">
        <ele>356</ele>
        <time>2021-07-31T08:07:37.000Z</time>
      </trkpt>
      <trkpt lat="49.81899" lon="4.8673">
        <ele>355</ele>
        <time>2021-07-31T08:07:38.000Z</time>
      </trkpt>
      <trkpt lat="49.81896" lon="4.86723">
        <ele>355</ele>
        <time>2021-07-31T08:07:39.000Z</time>
      </trkpt>
      <trkpt lat="49.81893" lon="4.86716">
        <ele>355</ele>
        <time>2021-07-31T08:07:40.000Z</time>
      </trkpt>
      <trkpt lat="49.8189" lon="4.8671">
        <ele>354</ele>
        <time>2021-07-31T08:07:41.000Z</time>
      </trkpt>
      <trkpt lat="49.81887" lon="4.86703">
        <ele>354</ele>
        <time>2021-07-31T08:07:42.000Z</time>
      </trkpt>
      <trkpt lat="49.81884" lon="4.86697">
        <ele>353</ele>
        <time>2021-07-31T08:07:43.000Z</time>
      </trkpt>
      <trkpt lat="49.81881" lon="4.86691">
        <ele>353</ele>
        <time>2021-07-31T08:07:44.000Z</time>
      </trkpt>
      <trkpt lat="49.81878" lon="4.86686">
        <ele>353</ele>
        <time>2021-07-31T08:07:45.000Z</time>
      </trkpt>
      <trkpt lat="49.81876" lon="4.86681">
        <ele>352</ele>
        <time>2021-07-31T08:07:46.000Z</time>
      </trkpt>
      <trkpt lat="49.81874" lon="4.86677">
        <ele>352</ele>
        <time>2021-07-31T08:07:47.000Z</time>
      </trkpt>
      <trkpt lat="49.81872" lon="4.86672">
        <ele>351</ele>
        <time>2021-07-31T08:07:48.000Z</time>
      </trkpt>
      <trkpt lat="49.8187" lon="4.86668">
        <ele>351</ele>
        <time>2021-07-31T08:07:49.000Z</time>
      </trkpt>
      <trkpt lat="49.81868" lon="4.86663">
        <ele>351</ele>
        <time>2021-07-31T08:07:50.000Z</time>
      </trkpt>
      <trkpt lat="49.81866" lon="4.86658">
        <ele>350</ele>
        <time>2021-07-31T08:07:51.000Z</time>
      </trkpt>
      <trkpt lat="49.81864" lon="4.86653">
        <ele>350</ele>
        <time>2021-07-31T08:07:52.000Z</time>
      </trkpt>
      <trkpt lat="49.81862" lon="4.86648">
        <ele>350</ele>
        <time>2021-07-31T08:07:53.000Z</time>
      </trkpt>
      <trkpt lat="49.8186" lon="4.86643">
        <ele>350</ele>
        <time>2021-07-31T08:07:54.000Z</time>
      </trkpt>
      <trkpt lat="49.81858" lon="4.86638">
        <ele>349</ele>
        <time>2021-07-31T08:07:55.000Z</time>
      </trkpt>
      <trkpt lat="49.81856" lon="4.86633">
        <ele>349</ele>
        <time>2021-07-31T08:07:56.000Z</time>
      </trkpt>
      <trkpt lat="49.81853" lon="4.86629">
        <ele>349</ele>
        <time>2021-07-31T08:07:57.000Z</time>
      </trkpt>
      <trkpt lat="49.81851" lon="4.86624">
        <ele>349</ele>
        <time>2021-07-31T08:07:58.000Z</time>
      </trkpt>
      <trkpt lat="49.81849" lon="4.86618">
        <ele>349</ele>
        <time>2021-07-31T08:07:59.000Z</time>
      </trkpt>
      <trkpt lat="49.81847" lon="4.86614">
        <ele>349</ele>
        <time>2021-07-31T08:08:00.000Z</time>
      </trkpt>
      <trkpt lat="49.81844" lon="4.86608">
        <ele>349</ele>
        <time>2021-07-31T08:08:01.000Z</time>
      </trkpt>
      <trkpt lat="49.81841" lon="4.86603">
        <ele>349</ele>
        <time>2021-07-31T08:08:02.000Z</time>
      </trkpt>
      <trkpt lat="49.81838" lon="4.86597">
        <ele>349</ele>
        <time>2021-07-31T08:08:03.000Z</time>
      </trkpt>
      <trkpt lat="49.81835" lon="4.86591">
        <ele>349</ele>
        <time>2021-07-31T08:08:04.000Z</time>
      </trkpt>
      <trkpt lat="49.81832" lon="4.86585">
        <ele>349</ele>
        <time>2021-07-31T08:08:05.000Z</time>
      </trkpt>
      <trkpt lat="49.81829" lon="4.8658">
        <ele>349</ele>
        <time>2021-07-31T08:08:06.000Z</time>
      </trkpt>
      <trkpt lat="49.81826" lon="4.86574">
        <ele>349</ele>
        <time>2021-07-31T08:08:07.000Z</time>
      </trkpt>
      <trkpt lat="49.81824" lon="4.86569">
        <ele>349</ele>
        <time>2021-07-31T08:08:08.000Z</time>
      </trkpt>
      <trkpt lat="49.81821" lon="4.86564">
        <ele>349</ele>
        <time>2021-07-31T08:08:09.000Z</time>
      </trkpt>
      <trkpt lat="49.81819" lon="4.8656">
        <ele>349</ele>
        <time>2021-07-31T08:08:10.000Z</time>
      </trkpt>
      <trkpt lat="49.81816" lon="4.86554">
        <ele>349</ele>
        <time>2021-07-31T08:08:11.000Z</time>
      </trkpt>
      <trkpt lat="49.81814" lon="4.86549">
        <ele>349</ele>
        <time>2021-07-31T08:08:12.000Z</time>
      </trkpt>
      <trkpt lat="49.81812" lon="4.86544">
        <ele>349</ele>
        <time>2021-07-31T08:08:13.000Z</time>
      </trkpt>
      <trkpt lat="49.81809" lon="4.8654">
        <ele>349</ele>
        <time>2021-07-31T08:08:14.000Z</time>
      </trkpt>
      <trkpt lat="49.81807" lon="4.86535">
        <ele>349</ele>
        <time>2021-07-31T08:08:15.000Z</time>
      </trkpt>
      <trkpt lat="49.81805" lon="4.8653">
        <ele>349</ele>
        <time>2021-07-31T08:08:16.000Z</time>
      </trkpt>
      <trkpt lat="49.81803" lon="4.86525">
        <ele>349</ele>
        <time>2021-07-31T08:08:17.000Z</time>
      </trkpt>
      <trkpt lat="49.81801" lon="4.8652">
        <ele>349</ele>
        <time>2021-07-31T08:08:18.000Z</time>
      </trkpt>
      <trkpt lat="49.81798" lon="4.86515">
        <ele>349</ele>
        <time>2021-07-31T08:08:19.000Z</time>
      </trkpt>
      <trkpt lat="49.81796" lon="4.8651">
        <ele>349</ele>
        <time>2021-07-31T08:08:20.000Z</time>
      </trkpt>
      <trkpt lat="49.81794" lon="4.86505">
        <ele>348</ele>
        <time>2021-07-31T08:08:21.000Z</time>
      </trkpt>
      <trkpt lat="49.81792" lon="4.865">
        <ele>348</ele>
        <time>2021-07-31T08:08:22.000Z</time>
      </trkpt>
      <trkpt lat="49.8179" lon="4.86495">
        <ele>348</ele>
        <time>2021-07-31T08:08:23.000Z</time>
      </trkpt>
      <trkpt lat="49.81787" lon="4.86489">
        <ele>348</ele>
        <time>2021-07-31T08:08:24.000Z</time>
      </trkpt>
      <trkpt lat="49.81784" lon="4.86483">
        <ele>348</ele>
        <time>2021-07-31T08:08:25.000Z</time>
      </trkpt>
      <trkpt lat="49.81781" lon="4.86476">
        <ele>348</ele>
        <time>2021-07-31T08:08:26.000Z</time>
      </trkpt>
      <trkpt lat="49.81778" lon="4.86469">
        <ele>348</ele>
        <time>2021-07-31T08:08:27.000Z</time>
      </trkpt>
      <trkpt lat="49.81774" lon="4.86461">
        <ele>347</ele>
        <time>2021-07-31T08:08:28.000Z</time>
      </trkpt>
      <trkpt lat="49.81771" lon="4.86454">
        <ele>347</ele>
        <time>2021-07-31T08:08:29.000Z</time>
      </trkpt>
      <trkpt lat="49.81768" lon="4.86447">
        <ele>347</ele>
        <time>2021-07-31T08:08:30.000Z</time>
      </trkpt>
      <trkpt lat="49.81765" lon="4.8644">
        <ele>346</ele>
        <time>2021-07-31T08:08:31.000Z</time>
      </trkpt>
      <trkpt lat="49.81762" lon="4.86434">
        <ele>346</ele>
        <time>2021-07-31T08:08:32.000Z</time>
      </trkpt>
      <trkpt lat="49.8176" lon="4.86428">
        <ele>346</ele>
        <time>2021-07-31T08:08:33.000Z</time>
      </trkpt>
      <trkpt lat="49.81757" lon="4.86422">
        <ele>346</ele>
        <time>2021-07-31T08:08:34.000Z</time>
      </trkpt>
      <trkpt lat="49.81754" lon="4.86416">
        <ele>345</ele>
        <time>2021-07-31T08:08:35.000Z</time>
      </trkpt>
      <trkpt lat="49.81751" lon="4.8641">
        <ele>345</ele>
        <time>2021-07-31T08:08:36.000Z</time>
      </trkpt>
      <trkpt lat="49.81747" lon="4.86404">
        <ele>345</ele>
        <time>2021-07-31T08:08:37.000Z</time>
      </trkpt>
      <trkpt lat="49.81744" lon="4.86397">
        <ele>345</ele>
        <time>2021-07-31T08:08:38.000Z</time>
      </trkpt>
      <trkpt lat="49.8174" lon="4.8639">
        <ele>345</ele>
        <time>2021-07-31T08:08:39.000Z</time>
      </trkpt>
      <trkpt lat="49.81737" lon="4.86382">
        <ele>344</ele>
        <time>2021-07-31T08:08:40.000Z</time>
      </trkpt>
      <trkpt lat="49.81733" lon="4.86374">
        <ele>344</ele>
        <time>2021-07-31T08:08:41.000Z</time>
      </trkpt>
      <trkpt lat="49.8173" lon="4.86367">
        <ele>344</ele>
        <time>2021-07-31T08:08:42.000Z</time>
      </trkpt>
      <trkpt lat="49.81726" lon="4.86361">
        <ele>344</ele>
        <time>2021-07-31T08:08:43.000Z</time>
      </trkpt>
      <trkpt lat="49.81724" lon="4.86355">
        <ele>343</ele>
        <time>2021-07-31T08:08:44.000Z</time>
      </trkpt>
      <trkpt lat="49.81721" lon="4.8635">
        <ele>343</ele>
        <time>2021-07-31T08:08:45.000Z</time>
      </trkpt>
      <trkpt lat="49.81719" lon="4.86346">
        <ele>343</ele>
        <time>2021-07-31T08:08:46.000Z</time>
      </trkpt>
      <trkpt lat="49.81716" lon="4.86342">
        <ele>343</ele>
        <time>2021-07-31T08:08:47.000Z</time>
      </trkpt>
      <trkpt lat="49.81713" lon="4.86338">
        <ele>342</ele>
        <time>2021-07-31T08:08:48.000Z</time>
      </trkpt>
      <trkpt lat="49.81711" lon="4.86335">
        <ele>342</ele>
        <time>2021-07-31T08:08:49.000Z</time>
      </trkpt>
      <trkpt lat="49.8171" lon="4.86333">
        <ele>342</ele>
        <time>2021-07-31T08:08:50.000Z</time>
      </trkpt>
      <trkpt lat="49.81708" lon="4.86331">
        <ele>342</ele>
        <time>2021-07-31T08:08:51.000Z</time>
      </trkpt>
      <trkpt lat="49.81707" lon="4.8633">
        <ele>341</ele>
        <time>2021-07-31T08:08:52.000Z</time>
      </trkpt>
      <trkpt lat="49.81706" lon="4.86328">
        <ele>341</ele>
        <time>2021-07-31T08:08:53.000Z</time>
      </trkpt>
      <trkpt lat="49.81705" lon="4.86327">
        <ele>341</ele>
        <time>2021-07-31T08:08:54.000Z</time>
      </trkpt>
      <trkpt lat="49.81705" lon="4.86327">
        <ele>340</ele>
        <time>2021-07-31T08:08:55.000Z</time>
      </trkpt>
      <trkpt lat="49.81705" lon="4.86327">
        <ele>340</ele>
        <time>2021-07-31T08:08:56.000Z</time>
      </trkpt>
      <trkpt lat="49.81705" lon="4.86326">
        <ele>340</ele>
        <time>2021-07-31T08:08:57.000Z</time>
      </trkpt>
      <trkpt lat="49.81704" lon="4.86327">
        <ele>340</ele>
        <time>2021-07-31T08:08:58.000Z</time>
      </trkpt>
      <trkpt lat="49.81702" lon="4.86328">
        <ele>339</ele>
        <time>2021-07-31T08:08:59.000Z</time>
      </trkpt>
      <trkpt lat="49.817" lon="4.86328">
        <ele>339</ele>
        <time>2021-07-31T08:09:00.000Z</time>
      </trkpt>
      <trkpt lat="49.81698" lon="4.86328">
        <ele>339</ele>
        <time>2021-07-31T08:09:01.000Z</time>
      </trkpt>
      <trkpt lat="49.81696" lon="4.86326">
        <ele>338</ele>
        <time>2021-07-31T08:09:02.000Z</time>
      </trkpt>
      <trkpt lat="49.81693" lon="4.86324">
        <ele>338</ele>
        <time>2021-07-31T08:09:03.000Z</time>
      </trkpt>
      <trkpt lat="49.81691" lon="4.86322">
        <ele>338</ele>
        <time>2021-07-31T08:09:04.000Z</time>
      </trkpt>
      <trkpt lat="49.81688" lon="4.86319">
        <ele>337</ele>
        <time>2021-07-31T08:09:05.000Z</time>
      </trkpt>
      <trkpt lat="49.81685" lon="4.86317">
        <ele>337</ele>
        <time>2021-07-31T08:09:06.000Z</time>
      </trkpt>
      <trkpt lat="49.81683" lon="4.86314">
        <ele>337</ele>
        <time>2021-07-31T08:09:07.000Z</time>
      </trkpt>
      <trkpt lat="49.8168" lon="4.86312">
        <ele>337</ele>
        <time>2021-07-31T08:09:08.000Z</time>
      </trkpt>
      <trkpt lat="49.81676" lon="4.86309">
        <ele>336</ele>
        <time>2021-07-31T08:09:09.000Z</time>
      </trkpt>
      <trkpt lat="49.81674" lon="4.86306">
        <ele>336</ele>
        <time>2021-07-31T08:09:10.000Z</time>
      </trkpt>
      <trkpt lat="49.81671" lon="4.86303">
        <ele>336</ele>
        <time>2021-07-31T08:09:11.000Z</time>
      </trkpt>
      <trkpt lat="49.81669" lon="4.86301">
        <ele>336</ele>
        <time>2021-07-31T08:09:12.000Z</time>
      </trkpt>
      <trkpt lat="49.81667" lon="4.86299">
        <ele>335</ele>
        <time>2021-07-31T08:09:13.000Z</time>
      </trkpt>
      <trkpt lat="49.81664" lon="4.86297">
        <ele>335</ele>
        <time>2021-07-31T08:09:14.000Z</time>
      </trkpt>
      <trkpt lat="49.81662" lon="4.86295">
        <ele>335</ele>
        <time>2021-07-31T08:09:15.000Z</time>
      </trkpt>
      <trkpt lat="49.81659" lon="4.86293">
        <ele>335</ele>
        <time>2021-07-31T08:09:16.000Z</time>
      </trkpt>
      <trkpt lat="49.81656" lon="4.86291">
        <ele>334</ele>
        <time>2021-07-31T08:09:17.000Z</time>
      </trkpt>
      <trkpt lat="49.81653" lon="4.86288">
        <ele>334</ele>
        <time>2021-07-31T08:09:18.000Z</time>
      </trkpt>
      <trkpt lat="49.8165" lon="4.86285">
        <ele>334</ele>
        <time>2021-07-31T08:09:19.000Z</time>
      </trkpt>
      <trkpt lat="49.81647" lon="4.86282">
        <ele>333</ele>
        <time>2021-07-31T08:09:20.000Z</time>
      </trkpt>
      <trkpt lat="49.81644" lon="4.86278">
        <ele>333</ele>
        <time>2021-07-31T08:09:21.000Z</time>
      </trkpt>
      <trkpt lat="49.81639" lon="4.86274">
        <ele>333</ele>
        <time>2021-07-31T08:09:22.000Z</time>
      </trkpt>
      <trkpt lat="49.81636" lon="4.8627">
        <ele>332</ele>
        <time>2021-07-31T08:09:23.000Z</time>
      </trkpt>
      <trkpt lat="49.81633" lon="4.86266">
        <ele>332</ele>
        <time>2021-07-31T08:09:24.000Z</time>
      </trkpt>
      <trkpt lat="49.8163" lon="4.86262">
        <ele>331</ele>
        <time>2021-07-31T08:09:25.000Z</time>
      </trkpt>
      <trkpt lat="49.81628" lon="4.86258">
        <ele>331</ele>
        <time>2021-07-31T08:09:26.000Z</time>
      </trkpt>
      <trkpt lat="49.81625" lon="4.86253">
        <ele>330</ele>
        <time>2021-07-31T08:09:27.000Z</time>
      </trkpt>
      <trkpt lat="49.81622" lon="4.86248">
        <ele>330</ele>
        <time>2021-07-31T08:09:28.000Z</time>
      </trkpt>
      <trkpt lat="49.8162" lon="4.86241">
        <ele>330</ele>
        <time>2021-07-31T08:09:29.000Z</time>
      </trkpt>
      <trkpt lat="49.81618" lon="4.86235">
        <ele>329</ele>
        <time>2021-07-31T08:09:30.000Z</time>
      </trkpt>
      <trkpt lat="49.81617" lon="4.86229">
        <ele>329</ele>
        <time>2021-07-31T08:09:31.000Z</time>
      </trkpt>
      <trkpt lat="49.81615" lon="4.86223">
        <ele>328</ele>
        <time>2021-07-31T08:09:32.000Z</time>
      </trkpt>
      <trkpt lat="49.81614" lon="4.86216">
        <ele>328</ele>
        <time>2021-07-31T08:09:33.000Z</time>
      </trkpt>
      <trkpt lat="49.81612" lon="4.8621">
        <ele>328</ele>
        <time>2021-07-31T08:09:34.000Z</time>
      </trkpt>
      <trkpt lat="49.8161" lon="4.86205">
        <ele>327</ele>
        <time>2021-07-31T08:09:35.000Z</time>
      </trkpt>
      <trkpt lat="49.81608" lon="4.862">
        <ele>327</ele>
        <time>2021-07-31T08:09:36.000Z</time>
      </trkpt>
      <trkpt lat="49.81606" lon="4.86193">
        <ele>327</ele>
        <time>2021-07-31T08:09:37.000Z</time>
      </trkpt>
      <trkpt lat="49.81604" lon="4.86186">
        <ele>326</ele>
        <time>2021-07-31T08:09:38.000Z</time>
      </trkpt>
      <trkpt lat="49.81602" lon="4.86179">
        <ele>326</ele>
        <time>2021-07-31T08:09:39.000Z</time>
      </trkpt>
      <trkpt lat="49.816" lon="4.86173">
        <ele>326</ele>
        <time>2021-07-31T08:09:40.000Z</time>
      </trkpt>
      <trkpt lat="49.81597" lon="4.86166">
        <ele>325</ele>
        <time>2021-07-31T08:09:41.000Z</time>
      </trkpt>
      <trkpt lat="49.81595" lon="4.86159">
        <ele>325</ele>
        <time>2021-07-31T08:09:42.000Z</time>
      </trkpt>
      <trkpt lat="49.81593" lon="4.86152">
        <ele>324</ele>
        <time>2021-07-31T08:09:43.000Z</time>
      </trkpt>
      <trkpt lat="49.81591" lon="4.86146">
        <ele>324</ele>
        <time>2021-07-31T08:09:44.000Z</time>
      </trkpt>
      <trkpt lat="49.8159" lon="4.86143">
        <ele>324</ele>
        <time>2021-07-31T08:09:45.000Z</time>
      </trkpt>
      <trkpt lat="49.81589" lon="4.86139">
        <ele>323</ele>
        <time>2021-07-31T08:09:46.000Z</time>
      </trkpt>
      <trkpt lat="49.81588" lon="4.86135">
        <ele>323</ele>
        <time>2021-07-31T08:09:47.000Z</time>
      </trkpt>
      <trkpt lat="49.81588" lon="4.86132">
        <ele>322</ele>
        <time>2021-07-31T08:09:48.000Z</time>
      </trkpt>
      <trkpt lat="49.81588" lon="4.86128">
        <ele>322</ele>
        <time>2021-07-31T08:09:49.000Z</time>
      </trkpt>
      <trkpt lat="49.81587" lon="4.86123">
        <ele>321</ele>
        <time>2021-07-31T08:09:50.000Z</time>
      </trkpt>
      <trkpt lat="49.81586" lon="4.86118">
        <ele>321</ele>
        <time>2021-07-31T08:09:51.000Z</time>
      </trkpt>
      <trkpt lat="49.81585" lon="4.86113">
        <ele>320</ele>
        <time>2021-07-31T08:09:52.000Z</time>
      </trkpt>
      <trkpt lat="49.81584" lon="4.86107">
        <ele>319</ele>
        <time>2021-07-31T08:09:53.000Z</time>
      </trkpt>
      <trkpt lat="49.81583" lon="4.861">
        <ele>319</ele>
        <time>2021-07-31T08:09:54.000Z</time>
      </trkpt>
      <trkpt lat="49.81581" lon="4.86094">
        <ele>318</ele>
        <time>2021-07-31T08:09:55.000Z</time>
      </trkpt>
      <trkpt lat="49.81579" lon="4.86087">
        <ele>318</ele>
        <time>2021-07-31T08:09:56.000Z</time>
      </trkpt>
      <trkpt lat="49.81578" lon="4.86081">
        <ele>317</ele>
        <time>2021-07-31T08:09:57.000Z</time>
      </trkpt>
      <trkpt lat="49.81576" lon="4.86075">
        <ele>317</ele>
        <time>2021-07-31T08:09:58.000Z</time>
      </trkpt>
      <trkpt lat="49.81576" lon="4.86069">
        <ele>316</ele>
        <time>2021-07-31T08:09:59.000Z</time>
      </trkpt>
      <trkpt lat="49.81574" lon="4.86063">
        <ele>316</ele>
        <time>2021-07-31T08:10:00.000Z</time>
      </trkpt>
      <trkpt lat="49.81573" lon="4.86057">
        <ele>315</ele>
        <time>2021-07-31T08:10:01.000Z</time>
      </trkpt>
      <trkpt lat="49.81572" lon="4.86052">
        <ele>315</ele>
        <time>2021-07-31T08:10:02.000Z</time>
      </trkpt>
      <trkpt lat="49.81572" lon="4.86047">
        <ele>314</ele>
        <time>2021-07-31T08:10:03.000Z</time>
      </trkpt>
      <trkpt lat="49.81571" lon="4.86043">
        <ele>314</ele>
        <time>2021-07-31T08:10:04.000Z</time>
      </trkpt>
      <trkpt lat="49.81571" lon="4.86037">
        <ele>313</ele>
        <time>2021-07-31T08:10:05.000Z</time>
      </trkpt>
      <trkpt lat="49.81572" lon="4.86032">
        <ele>313</ele>
        <time>2021-07-31T08:10:06.000Z</time>
      </trkpt>
      <trkpt lat="49.81574" lon="4.86028">
        <ele>313</ele>
        <time>2021-07-31T08:10:07.000Z</time>
      </trkpt>
      <trkpt lat="49.81575" lon="4.86024">
        <ele>312</ele>
        <time>2021-07-31T08:10:08.000Z</time>
      </trkpt>
      <trkpt lat="49.81576" lon="4.8602">
        <ele>312</ele>
        <time>2021-07-31T08:10:09.000Z</time>
      </trkpt>
      <trkpt lat="49.81578" lon="4.86016">
        <ele>311</ele>
        <time>2021-07-31T08:10:10.000Z</time>
      </trkpt>
      <trkpt lat="49.81579" lon="4.86013">
        <ele>311</ele>
        <time>2021-07-31T08:10:11.000Z</time>
      </trkpt>
      <trkpt lat="49.81581" lon="4.8601">
        <ele>311</ele>
        <time>2021-07-31T08:10:12.000Z</time>
      </trkpt>
      <trkpt lat="49.81583" lon="4.86007">
        <ele>310</ele>
        <time>2021-07-31T08:10:13.000Z</time>
      </trkpt>
      <trkpt lat="49.81585" lon="4.86004">
        <ele>310</ele>
        <time>2021-07-31T08:10:14.000Z</time>
      </trkpt>
      <trkpt lat="49.81587" lon="4.86">
        <ele>310</ele>
        <time>2021-07-31T08:10:15.000Z</time>
      </trkpt>
      <trkpt lat="49.81589" lon="4.85998">
        <ele>309</ele>
        <time>2021-07-31T08:10:16.000Z</time>
      </trkpt>
      <trkpt lat="49.81591" lon="4.85996">
        <ele>309</ele>
        <time>2021-07-31T08:10:17.000Z</time>
      </trkpt>
      <trkpt lat="49.81593" lon="4.85995">
        <ele>308</ele>
        <time>2021-07-31T08:10:18.000Z</time>
      </trkpt>
      <trkpt lat="49.81595" lon="4.85994">
        <ele>308</ele>
        <time>2021-07-31T08:10:19.000Z</time>
      </trkpt>
      <trkpt lat="49.81595" lon="4.85993">
        <ele>307</ele>
        <time>2021-07-31T08:10:20.000Z</time>
      </trkpt>
      <trkpt lat="49.81596" lon="4.85993">
        <ele>307</ele>
        <time>2021-07-31T08:10:21.000Z</time>
      </trkpt>
      <trkpt lat="49.81597" lon="4.85993">
        <ele>306</ele>
        <time>2021-07-31T08:10:22.000Z</time>
      </trkpt>
      <trkpt lat="49.81597" lon="4.85992">
        <ele>306</ele>
        <time>2021-07-31T08:10:23.000Z</time>
      </trkpt>
      <trkpt lat="49.81598" lon="4.85992">
        <ele>306</ele>
        <time>2021-07-31T08:10:24.000Z</time>
      </trkpt>
      <trkpt lat="49.81598" lon="4.85992">
        <ele>305</ele>
        <time>2021-07-31T08:10:25.000Z</time>
      </trkpt>
      <trkpt lat="49.81599" lon="4.85991">
        <ele>305</ele>
        <time>2021-07-31T08:10:26.000Z</time>
      </trkpt>
      <trkpt lat="49.81599" lon="4.85991">
        <ele>304</ele>
        <time>2021-07-31T08:10:27.000Z</time>
      </trkpt>
      <trkpt lat="49.81599" lon="4.85991">
        <ele>304</ele>
        <time>2021-07-31T08:10:28.000Z</time>
      </trkpt>
      <trkpt lat="49.816" lon="4.85991">
        <ele>304</ele>
        <time>2021-07-31T08:10:29.000Z</time>
      </trkpt>
      <trkpt lat="49.816" lon="4.85991">
        <ele>304</ele>
        <time>2021-07-31T08:10:30.000Z</time>
      </trkpt>
      <trkpt lat="49.81601" lon="4.8599">
        <ele>304</ele>
        <time>2021-07-31T08:10:31.000Z</time>
      </trkpt>
      <trkpt lat="49.81601" lon="4.8599">
        <ele>303</ele>
        <time>2021-07-31T08:10:32.000Z</time>
      </trkpt>
      <trkpt lat="49.81602" lon="4.8599">
        <ele>303</ele>
        <time>2021-07-31T08:10:33.000Z</time>
      </trkpt>
      <trkpt lat="49.81602" lon="4.8599">
        <ele>303</ele>
        <time>2021-07-31T08:10:34.000Z</time>
      </trkpt>
      <trkpt lat="49.81603" lon="4.8599">
        <ele>302</ele>
        <time>2021-07-31T08:10:35.000Z</time>
      </trkpt>
      <trkpt lat="49.81603" lon="4.8599">
        <ele>302</ele>
        <time>2021-07-31T08:10:36.000Z</time>
      </trkpt>
      <trkpt lat="49.81603" lon="4.8599">
        <ele>302</ele>
        <time>2021-07-31T08:10:37.000Z</time>
      </trkpt>
      <trkpt lat="49.81603" lon="4.85989">
        <ele>302</ele>
        <time>2021-07-31T08:10:38.000Z</time>
      </trkpt>
      <trkpt lat="49.81603" lon="4.85988">
        <ele>301</ele>
        <time>2021-07-31T08:10:39.000Z</time>
      </trkpt>
      <trkpt lat="49.81604" lon="4.85988">
        <ele>301</ele>
        <time>2021-07-31T08:10:40.000Z</time>
      </trkpt>
      <trkpt lat="49.81604" lon="4.85988">
        <ele>301</ele>
        <time>2021-07-31T08:10:41.000Z</time>
      </trkpt>
      <trkpt lat="49.81604" lon="4.85988">
        <ele>301</ele>
        <time>2021-07-31T08:10:42.000Z</time>
      </trkpt>
      <trkpt lat="49.81604" lon="4.85988">
        <ele>301</ele>
        <time>2021-07-31T08:10:43.000Z</time>
      </trkpt>
      <trkpt lat="49.81605" lon="4.85988">
        <ele>301</ele>
        <time>2021-07-31T08:10:44.000Z</time>
      </trkpt>
      <trkpt lat="49.81605" lon="4.85988">
        <ele>300</ele>
        <time>2021-07-31T08:10:45.000Z</time>
      </trkpt>
      <trkpt lat="49.81605" lon="4.85987">
        <ele>300</ele>
        <time>2021-07-31T08:10:46.000Z</time>
      </trkpt>
      <trkpt lat="49.81605" lon="4.85987">
        <ele>300</ele>
        <time>2021-07-31T08:10:47.000Z</time>
      </trkpt>
      <trkpt lat="49.81606" lon="4.85987">
        <ele>300</ele>
        <time>2021-07-31T08:10:48.000Z</time>
      </trkpt>
      <trkpt lat="49.81607" lon="4.85986">
        <ele>300</ele>
        <time>2021-07-31T08:10:49.000Z</time>
      </trkpt>
      <trkpt lat="49.81608" lon="4.85985">
        <ele>300</ele>
        <time>2021-07-31T08:10:50.000Z</time>
      </trkpt>
      <trkpt lat="49.81609" lon="4.85984">
        <ele>300</ele>
        <time>2021-07-31T08:10:51.000Z</time>
      </trkpt>
      <trkpt lat="49.8161" lon="4.85982">
        <ele>299</ele>
        <time>2021-07-31T08:10:52.000Z</time>
      </trkpt>
      <trkpt lat="49.81611" lon="4.85981">
        <ele>299</ele>
        <time>2021-07-31T08:10:53.000Z</time>
      </trkpt>
      <trkpt lat="49.81612" lon="4.85981">
        <ele>299</ele>
        <time>2021-07-31T08:10:54.000Z</time>
      </trkpt>
      <trkpt lat="49.81614" lon="4.8598">
        <ele>299</ele>
        <time>2021-07-31T08:10:55.000Z</time>
      </trkpt>
      <trkpt lat="49.81615" lon="4.8598">
        <ele>298</ele>
        <time>2021-07-31T08:10:56.000Z</time>
      </trkpt>
      <trkpt lat="49.81616" lon="4.85979">
        <ele>298</ele>
        <time>2021-07-31T08:10:57.000Z</time>
      </trkpt>
      <trkpt lat="49.81618" lon="4.85978">
        <ele>298</ele>
        <time>2021-07-31T08:10:58.000Z</time>
      </trkpt>
      <trkpt lat="49.81619" lon="4.85977">
        <ele>298</ele>
        <time>2021-07-31T08:10:59.000Z</time>
      </trkpt>
      <trkpt lat="49.81621" lon="4.85975">
        <ele>298</ele>
        <time>2021-07-31T08:11:00.000Z</time>
      </trkpt>
      <trkpt lat="49.81622" lon="4.85974">
        <ele>298</ele>
        <time>2021-07-31T08:11:01.000Z</time>
      </trkpt>
      <trkpt lat="49.81625" lon="4.85973">
        <ele>297</ele>
        <time>2021-07-31T08:11:02.000Z</time>
      </trkpt>
      <trkpt lat="49.81627" lon="4.85971">
        <ele>297</ele>
        <time>2021-07-31T08:11:03.000Z</time>
      </trkpt>
      <trkpt lat="49.81629" lon="4.8597">
        <ele>297</ele>
        <time>2021-07-31T08:11:04.000Z</time>
      </trkpt>
      <trkpt lat="49.81631" lon="4.85969">
        <ele>297</ele>
        <time>2021-07-31T08:11:05.000Z</time>
      </trkpt>
      <trkpt lat="49.81633" lon="4.85967">
        <ele>297</ele>
        <time>2021-07-31T08:11:06.000Z</time>
      </trkpt>
      <trkpt lat="49.81636" lon="4.85965">
        <ele>297</ele>
        <time>2021-07-31T08:11:07.000Z</time>
      </trkpt>
      <trkpt lat="49.81639" lon="4.85964">
        <ele>297</ele>
        <time>2021-07-31T08:11:08.000Z</time>
      </trkpt>
      <trkpt lat="49.81642" lon="4.85962">
        <ele>297</ele>
        <time>2021-07-31T08:11:09.000Z</time>
      </trkpt>
      <trkpt lat="49.81645" lon="4.8596">
        <ele>296</ele>
        <time>2021-07-31T08:11:10.000Z</time>
      </trkpt>
      <trkpt lat="49.81649" lon="4.85958">
        <ele>296</ele>
        <time>2021-07-31T08:11:11.000Z</time>
      </trkpt>
      <trkpt lat="49.81652" lon="4.85955">
        <ele>296</ele>
        <time>2021-07-31T08:11:12.000Z</time>
      </trkpt>
      <trkpt lat="49.81656" lon="4.85953">
        <ele>296</ele>
        <time>2021-07-31T08:11:13.000Z</time>
      </trkpt>
      <trkpt lat="49.81659" lon="4.8595">
        <ele>296</ele>
        <time>2021-07-31T08:11:14.000Z</time>
      </trkpt>
      <trkpt lat="49.8166" lon="4.85947">
        <ele>296</ele>
        <time>2021-07-31T08:11:15.000Z</time>
      </trkpt>
      <trkpt lat="49.81663" lon="4.85943">
        <ele>296</ele>
        <time>2021-07-31T08:11:16.000Z</time>
      </trkpt>
      <trkpt lat="49.81665" lon="4.8594">
        <ele>296</ele>
        <time>2021-07-31T08:11:17.000Z</time>
      </trkpt>
      <trkpt lat="49.81667" lon="4.85937">
        <ele>296</ele>
        <time>2021-07-31T08:11:18.000Z</time>
      </trkpt>
      <trkpt lat="49.81669" lon="4.85934">
        <ele>296</ele>
        <time>2021-07-31T08:11:19.000Z</time>
      </trkpt>
      <trkpt lat="49.8167" lon="4.85932">
        <ele>295</ele>
        <time>2021-07-31T08:11:20.000Z</time>
      </trkpt>
      <trkpt lat="49.81672" lon="4.85929">
        <ele>295</ele>
        <time>2021-07-31T08:11:21.000Z</time>
      </trkpt>
      <trkpt lat="49.81675" lon="4.85926">
        <ele>295</ele>
        <time>2021-07-31T08:11:22.000Z</time>
      </trkpt>
      <trkpt lat="49.81677" lon="4.85924">
        <ele>295</ele>
        <time>2021-07-31T08:11:23.000Z</time>
      </trkpt>
      <trkpt lat="49.8168" lon="4.85921">
        <ele>295</ele>
        <time>2021-07-31T08:11:24.000Z</time>
      </trkpt>
      <trkpt lat="49.81683" lon="4.85918">
        <ele>295</ele>
        <time>2021-07-31T08:11:25.000Z</time>
      </trkpt>
      <trkpt lat="49.81686" lon="4.85916">
        <ele>294</ele>
        <time>2021-07-31T08:11:26.000Z</time>
      </trkpt>
      <trkpt lat="49.81688" lon="4.85913">
        <ele>294</ele>
        <time>2021-07-31T08:11:27.000Z</time>
      </trkpt>
      <trkpt lat="49.81691" lon="4.85912">
        <ele>294</ele>
        <time>2021-07-31T08:11:28.000Z</time>
      </trkpt>
      <trkpt lat="49.81693" lon="4.8591">
        <ele>294</ele>
        <time>2021-07-31T08:11:29.000Z</time>
      </trkpt>
      <trkpt lat="49.81696" lon="4.85908">
        <ele>294</ele>
        <time>2021-07-31T08:11:30.000Z</time>
      </trkpt>
      <trkpt lat="49.81698" lon="4.85905">
        <ele>293</ele>
        <time>2021-07-31T08:11:31.000Z</time>
      </trkpt>
      <trkpt lat="49.817" lon="4.85904">
        <ele>293</ele>
        <time>2021-07-31T08:11:32.000Z</time>
      </trkpt>
      <trkpt lat="49.81703" lon="4.85902">
        <ele>293</ele>
        <time>2021-07-31T08:11:33.000Z</time>
      </trkpt>
      <trkpt lat="49.81705" lon="4.85899">
        <ele>292</ele>
        <time>2021-07-31T08:11:34.000Z</time>
      </trkpt>
      <trkpt lat="49.81707" lon="4.85896">
        <ele>292</ele>
        <time>2021-07-31T08:11:35.000Z</time>
      </trkpt>
      <trkpt lat="49.8171" lon="4.85893">
        <ele>291</ele>
        <time>2021-07-31T08:11:36.000Z</time>
      </trkpt>
      <trkpt lat="49.81713" lon="4.8589">
        <ele>291</ele>
        <time>2021-07-31T08:11:37.000Z</time>
      </trkpt>
      <trkpt lat="49.81715" lon="4.85889">
        <ele>290</ele>
        <time>2021-07-31T08:11:38.000Z</time>
      </trkpt>
      <trkpt lat="49.81717" lon="4.85887">
        <ele>290</ele>
        <time>2021-07-31T08:11:39.000Z</time>
      </trkpt>
      <trkpt lat="49.81719" lon="4.85885">
        <ele>289</ele>
        <time>2021-07-31T08:11:40.000Z</time>
      </trkpt>
      <trkpt lat="49.81721" lon="4.85882">
        <ele>289</ele>
        <time>2021-07-31T08:11:41.000Z</time>
      </trkpt>
      <trkpt lat="49.81723" lon="4.85879">
        <ele>288</ele>
        <time>2021-07-31T08:11:42.000Z</time>
      </trkpt>
      <trkpt lat="49.81725" lon="4.85876">
        <ele>288</ele>
        <time>2021-07-31T08:11:43.000Z</time>
      </trkpt>
      <trkpt lat="49.81727" lon="4.85873">
        <ele>287</ele>
        <time>2021-07-31T08:11:44.000Z</time>
      </trkpt>
      <trkpt lat="49.81729" lon="4.8587">
        <ele>287</ele>
        <time>2021-07-31T08:11:45.000Z</time>
      </trkpt>
      <trkpt lat="49.81731" lon="4.85866">
        <ele>286</ele>
        <time>2021-07-31T08:11:46.000Z</time>
      </trkpt>
      <trkpt lat="49.81732" lon="4.85863">
        <ele>286</ele>
        <time>2021-07-31T08:11:47.000Z</time>
      </trkpt>
      <trkpt lat="49.81733" lon="4.85859">
        <ele>285</ele>
        <time>2021-07-31T08:11:48.000Z</time>
      </trkpt>
      <trkpt lat="49.81733" lon="4.85856">
        <ele>284</ele>
        <time>2021-07-31T08:11:49.000Z</time>
      </trkpt>
      <trkpt lat="49.81733" lon="4.85853">
        <ele>284</ele>
        <time>2021-07-31T08:11:50.000Z</time>
      </trkpt>
      <trkpt lat="49.81733" lon="4.85852">
        <ele>283</ele>
        <time>2021-07-31T08:11:51.000Z</time>
      </trkpt>
      <trkpt lat="49.81733" lon="4.85851">
        <ele>283</ele>
        <time>2021-07-31T08:11:52.000Z</time>
      </trkpt>
      <trkpt lat="49.81732" lon="4.8585">
        <ele>282</ele>
        <time>2021-07-31T08:11:53.000Z</time>
      </trkpt>
      <trkpt lat="49.81732" lon="4.85849">
        <ele>282</ele>
        <time>2021-07-31T08:11:54.000Z</time>
      </trkpt>
      <trkpt lat="49.81732" lon="4.85846">
        <ele>281</ele>
        <time>2021-07-31T08:11:55.000Z</time>
      </trkpt>
      <trkpt lat="49.81732" lon="4.85843">
        <ele>281</ele>
        <time>2021-07-31T08:11:56.000Z</time>
      </trkpt>
      <trkpt lat="49.81732" lon="4.8584">
        <ele>280</ele>
        <time>2021-07-31T08:11:57.000Z</time>
      </trkpt>
      <trkpt lat="49.81731" lon="4.85836">
        <ele>280</ele>
        <time>2021-07-31T08:11:58.000Z</time>
      </trkpt>
      <trkpt lat="49.81731" lon="4.85832">
        <ele>279</ele>
        <time>2021-07-31T08:11:59.000Z</time>
      </trkpt>
      <trkpt lat="49.81731" lon="4.85828">
        <ele>279</ele>
        <time>2021-07-31T08:12:00.000Z</time>
      </trkpt>
      <trkpt lat="49.8173" lon="4.85824">
        <ele>278</ele>
        <time>2021-07-31T08:12:01.000Z</time>
      </trkpt>
      <trkpt lat="49.8173" lon="4.85821">
        <ele>278</ele>
        <time>2021-07-31T08:12:02.000Z</time>
      </trkpt>
      <trkpt lat="49.81729" lon="4.85818">
        <ele>277</ele>
        <time>2021-07-31T08:12:03.000Z</time>
      </trkpt>
      <trkpt lat="49.81729" lon="4.85814">
        <ele>277</ele>
        <time>2021-07-31T08:12:04.000Z</time>
      </trkpt>
      <trkpt lat="49.81728" lon="4.8581">
        <ele>276</ele>
        <time>2021-07-31T08:12:05.000Z</time>
      </trkpt>
      <trkpt lat="49.81727" lon="4.85807">
        <ele>275</ele>
        <time>2021-07-31T08:12:06.000Z</time>
      </trkpt>
      <trkpt lat="49.81727" lon="4.85803">
        <ele>275</ele>
        <time>2021-07-31T08:12:07.000Z</time>
      </trkpt>
      <trkpt lat="49.81726" lon="4.85799">
        <ele>274</ele>
        <time>2021-07-31T08:12:08.000Z</time>
      </trkpt>
      <trkpt lat="49.81725" lon="4.85795">
        <ele>274</ele>
        <time>2021-07-31T08:12:09.000Z</time>
      </trkpt>
      <trkpt lat="49.81723" lon="4.85791">
        <ele>274</ele>
        <time>2021-07-31T08:12:10.000Z</time>
      </trkpt>
      <trkpt lat="49.81723" lon="4.85788">
        <ele>273</ele>
        <time>2021-07-31T08:12:11.000Z</time>
      </trkpt>
      <trkpt lat="49.81722" lon="4.85785">
        <ele>273</ele>
        <time>2021-07-31T08:12:12.000Z</time>
      </trkpt>
      <trkpt lat="49.81722" lon="4.85782">
        <ele>272</ele>
        <time>2021-07-31T08:12:13.000Z</time>
      </trkpt>
      <trkpt lat="49.81721" lon="4.85779">
        <ele>272</ele>
        <time>2021-07-31T08:12:14.000Z</time>
      </trkpt>
      <trkpt lat="49.81721" lon="4.85776">
        <ele>272</ele>
        <time>2021-07-31T08:12:15.000Z</time>
      </trkpt>
      <trkpt lat="49.8172" lon="4.85774">
        <ele>271</ele>
        <time>2021-07-31T08:12:16.000Z</time>
      </trkpt>
      <trkpt lat="49.8172" lon="4.85773">
        <ele>271</ele>
        <time>2021-07-31T08:12:17.000Z</time>
      </trkpt>
      <trkpt lat="49.81719" lon="4.8577">
        <ele>270</ele>
        <time>2021-07-31T08:12:18.000Z</time>
      </trkpt>
      <trkpt lat="49.81718" lon="4.85767">
        <ele>270</ele>
        <time>2021-07-31T08:12:19.000Z</time>
      </trkpt>
      <trkpt lat="49.81717" lon="4.85764">
        <ele>270</ele>
        <time>2021-07-31T08:12:20.000Z</time>
      </trkpt>
      <trkpt lat="49.81717" lon="4.8576">
        <ele>269</ele>
        <time>2021-07-31T08:12:21.000Z</time>
      </trkpt>
      <trkpt lat="49.81716" lon="4.85756">
        <ele>269</ele>
        <time>2021-07-31T08:12:22.000Z</time>
      </trkpt>
      <trkpt lat="49.81715" lon="4.85752">
        <ele>269</ele>
        <time>2021-07-31T08:12:23.000Z</time>
      </trkpt>
      <trkpt lat="49.81713" lon="4.85747">
        <ele>268</ele>
        <time>2021-07-31T08:12:24.000Z</time>
      </trkpt>
      <trkpt lat="49.81712" lon="4.85743">
        <ele>268</ele>
        <time>2021-07-31T08:12:25.000Z</time>
      </trkpt>
      <trkpt lat="49.81712" lon="4.8574">
        <ele>268</ele>
        <time>2021-07-31T08:12:26.000Z</time>
      </trkpt>
      <trkpt lat="49.81712" lon="4.85737">
        <ele>268</ele>
        <time>2021-07-31T08:12:27.000Z</time>
      </trkpt>
      <trkpt lat="49.81711" lon="4.85735">
        <ele>267</ele>
        <time>2021-07-31T08:12:28.000Z</time>
      </trkpt>
      <trkpt lat="49.81711" lon="4.85734">
        <ele>267</ele>
        <time>2021-07-31T08:12:29.000Z</time>
      </trkpt>
      <trkpt lat="49.8171" lon="4.85732">
        <ele>267</ele>
        <time>2021-07-31T08:12:30.000Z</time>
      </trkpt>
      <trkpt lat="49.81709" lon="4.8573">
        <ele>267</ele>
        <time>2021-07-31T08:12:31.000Z</time>
      </trkpt>
      <trkpt lat="49.81708" lon="4.85727">
        <ele>267</ele>
        <time>2021-07-31T08:12:32.000Z</time>
      </trkpt>
      <trkpt lat="49.81707" lon="4.85725">
        <ele>267</ele>
        <time>2021-07-31T08:12:33.000Z</time>
      </trkpt>
      <trkpt lat="49.81706" lon="4.85722">
        <ele>266</ele>
        <time>2021-07-31T08:12:34.000Z</time>
      </trkpt>
      <trkpt lat="49.81705" lon="4.8572">
        <ele>266</ele>
        <time>2021-07-31T08:12:35.000Z</time>
      </trkpt>
      <trkpt lat="49.81704" lon="4.85716">
        <ele>266</ele>
        <time>2021-07-31T08:12:36.000Z</time>
      </trkpt>
      <trkpt lat="49.81703" lon="4.85712">
        <ele>266</ele>
        <time>2021-07-31T08:12:37.000Z</time>
      </trkpt>
      <trkpt lat="49.81702" lon="4.85708">
        <ele>265</ele>
        <time>2021-07-31T08:12:38.000Z</time>
      </trkpt>
      <trkpt lat="49.817" lon="4.85703">
        <ele>265</ele>
        <time>2021-07-31T08:12:39.000Z</time>
      </trkpt>
      <trkpt lat="49.81699" lon="4.85699">
        <ele>265</ele>
        <time>2021-07-31T08:12:40.000Z</time>
      </trkpt>
      <trkpt lat="49.81698" lon="4.85695">
        <ele>265</ele>
        <time>2021-07-31T08:12:41.000Z</time>
      </trkpt>
      <trkpt lat="49.81697" lon="4.85691">
        <ele>265</ele>
        <time>2021-07-31T08:12:42.000Z</time>
      </trkpt>
      <trkpt lat="49.81695" lon="4.85687">
        <ele>264</ele>
        <time>2021-07-31T08:12:43.000Z</time>
      </trkpt>
      <trkpt lat="49.81693" lon="4.85683">
        <ele>264</ele>
        <time>2021-07-31T08:12:44.000Z</time>
      </trkpt>
      <trkpt lat="49.81692" lon="4.85679">
        <ele>264</ele>
        <time>2021-07-31T08:12:45.000Z</time>
      </trkpt>
      <trkpt lat="49.8169" lon="4.85675">
        <ele>264</ele>
        <time>2021-07-31T08:12:46.000Z</time>
      </trkpt>
      <trkpt lat="49.81689" lon="4.85671">
        <ele>263</ele>
        <time>2021-07-31T08:12:47.000Z</time>
      </trkpt>
      <trkpt lat="49.81687" lon="4.85665">
        <ele>263</ele>
        <time>2021-07-31T08:12:48.000Z</time>
      </trkpt>
      <trkpt lat="49.81686" lon="4.8566">
        <ele>263</ele>
        <time>2021-07-31T08:12:49.000Z</time>
      </trkpt>
      <trkpt lat="49.81685" lon="4.85655">
        <ele>262</ele>
        <time>2021-07-31T08:12:50.000Z</time>
      </trkpt>
      <trkpt lat="49.81685" lon="4.8565">
        <ele>262</ele>
        <time>2021-07-31T08:12:51.000Z</time>
      </trkpt>
      <trkpt lat="49.81684" lon="4.85646">
        <ele>261</ele>
        <time>2021-07-31T08:12:52.000Z</time>
      </trkpt>
      <trkpt lat="49.81684" lon="4.85641">
        <ele>261</ele>
        <time>2021-07-31T08:12:53.000Z</time>
      </trkpt>
      <trkpt lat="49.81683" lon="4.85636">
        <ele>261</ele>
        <time>2021-07-31T08:12:54.000Z</time>
      </trkpt>
      <trkpt lat="49.81682" lon="4.8563">
        <ele>260</ele>
        <time>2021-07-31T08:12:55.000Z</time>
      </trkpt>
      <trkpt lat="49.81681" lon="4.85623">
        <ele>260</ele>
        <time>2021-07-31T08:12:56.000Z</time>
      </trkpt>
      <trkpt lat="49.8168" lon="4.85616">
        <ele>259</ele>
        <time>2021-07-31T08:12:57.000Z</time>
      </trkpt>
      <trkpt lat="49.8168" lon="4.85609">
        <ele>259</ele>
        <time>2021-07-31T08:12:58.000Z</time>
      </trkpt>
      <trkpt lat="49.81679" lon="4.85602">
        <ele>259</ele>
        <time>2021-07-31T08:12:59.000Z</time>
      </trkpt>
      <trkpt lat="49.8168" lon="4.85595">
        <ele>258</ele>
        <time>2021-07-31T08:13:00.000Z</time>
      </trkpt>
      <trkpt lat="49.8168" lon="4.85588">
        <ele>258</ele>
        <time>2021-07-31T08:13:01.000Z</time>
      </trkpt>
      <trkpt lat="49.81679" lon="4.85581">
        <ele>258</ele>
        <time>2021-07-31T08:13:02.000Z</time>
      </trkpt>
      <trkpt lat="49.81679" lon="4.85573">
        <ele>257</ele>
        <time>2021-07-31T08:13:03.000Z</time>
      </trkpt>
      <trkpt lat="49.8168" lon="4.85566">
        <ele>257</ele>
        <time>2021-07-31T08:13:04.000Z</time>
      </trkpt>
      <trkpt lat="49.8168" lon="4.8556">
        <ele>257</ele>
        <time>2021-07-31T08:13:05.000Z</time>
      </trkpt>
      <trkpt lat="49.81679" lon="4.85553">
        <ele>256</ele>
        <time>2021-07-31T08:13:06.000Z</time>
      </trkpt>
      <trkpt lat="49.81679" lon="4.85547">
        <ele>256</ele>
        <time>2021-07-31T08:13:07.000Z</time>
      </trkpt>
      <trkpt lat="49.81679" lon="4.85542">
        <ele>255</ele>
        <time>2021-07-31T08:13:08.000Z</time>
      </trkpt>
      <trkpt lat="49.81678" lon="4.85539">
        <ele>255</ele>
        <time>2021-07-31T08:13:09.000Z</time>
      </trkpt>
      <trkpt lat="49.81678" lon="4.85535">
        <ele>255</ele>
        <time>2021-07-31T08:13:10.000Z</time>
      </trkpt>
      <trkpt lat="49.81677" lon="4.8553">
        <ele>254</ele>
        <time>2021-07-31T08:13:11.000Z</time>
      </trkpt>
      <trkpt lat="49.81677" lon="4.85525">
        <ele>254</ele>
        <time>2021-07-31T08:13:12.000Z</time>
      </trkpt>
      <trkpt lat="49.81677" lon="4.8552">
        <ele>254</ele>
        <time>2021-07-31T08:13:13.000Z</time>
      </trkpt>
      <trkpt lat="49.81677" lon="4.85514">
        <ele>253</ele>
        <time>2021-07-31T08:13:14.000Z</time>
      </trkpt>
      <trkpt lat="49.81677" lon="4.85509">
        <ele>253</ele>
        <time>2021-07-31T08:13:15.000Z</time>
      </trkpt>
      <trkpt lat="49.81678" lon="4.85503">
        <ele>252</ele>
        <time>2021-07-31T08:13:16.000Z</time>
      </trkpt>
      <trkpt lat="49.81677" lon="4.85498">
        <ele>252</ele>
        <time>2021-07-31T08:13:17.000Z</time>
      </trkpt>
      <trkpt lat="49.81677" lon="4.85494">
        <ele>252</ele>
        <time>2021-07-31T08:13:18.000Z</time>
      </trkpt>
      <trkpt lat="49.81677" lon="4.85489">
        <ele>251</ele>
        <time>2021-07-31T08:13:19.000Z</time>
      </trkpt>
      <trkpt lat="49.81677" lon="4.85485">
        <ele>251</ele>
        <time>2021-07-31T08:13:20.000Z</time>
      </trkpt>
      <trkpt lat="49.81677" lon="4.8548">
        <ele>251</ele>
        <time>2021-07-31T08:13:21.000Z</time>
      </trkpt>
      <trkpt lat="49.81677" lon="4.85474">
        <ele>250</ele>
        <time>2021-07-31T08:13:22.000Z</time>
      </trkpt>
      <trkpt lat="49.81678" lon="4.8547">
        <ele>250</ele>
        <time>2021-07-31T08:13:23.000Z</time>
      </trkpt>
      <trkpt lat="49.81678" lon="4.85466">
        <ele>250</ele>
        <time>2021-07-31T08:13:24.000Z</time>
      </trkpt>
      <trkpt lat="49.81678" lon="4.85463">
        <ele>249</ele>
        <time>2021-07-31T08:13:25.000Z</time>
      </trkpt>
      <trkpt lat="49.81678" lon="4.8546">
        <ele>249</ele>
        <time>2021-07-31T08:13:26.000Z</time>
      </trkpt>
      <trkpt lat="49.81678" lon="4.85458">
        <ele>248</ele>
        <time>2021-07-31T08:13:27.000Z</time>
      </trkpt>
      <trkpt lat="49.81678" lon="4.85457">
        <ele>248</ele>
        <time>2021-07-31T08:13:28.000Z</time>
      </trkpt>
      <trkpt lat="49.81678" lon="4.85456">
        <ele>248</ele>
        <time>2021-07-31T08:13:29.000Z</time>
      </trkpt>
      <trkpt lat="49.81678" lon="4.85456">
        <ele>247</ele>
        <time>2021-07-31T08:13:30.000Z</time>
      </trkpt>
      <trkpt lat="49.81678" lon="4.85456">
        <ele>247</ele>
        <time>2021-07-31T08:13:31.000Z</time>
      </trkpt>
      <trkpt lat="49.81678" lon="4.85455">
        <ele>247</ele>
        <time>2021-07-31T08:13:32.000Z</time>
      </trkpt>
      <trkpt lat="49.81678" lon="4.85455">
        <ele>247</ele>
        <time>2021-07-31T08:13:33.000Z</time>
      </trkpt>
      <trkpt lat="49.81679" lon="4.85454">
        <ele>246</ele>
        <time>2021-07-31T08:13:34.000Z</time>
      </trkpt>
      <trkpt lat="49.81679" lon="4.85454">
        <ele>246</ele>
        <time>2021-07-31T08:13:35.000Z</time>
      </trkpt>
      <trkpt lat="49.81679" lon="4.85454">
        <ele>246</ele>
        <time>2021-07-31T08:13:36.000Z</time>
      </trkpt>
      <trkpt lat="49.81679" lon="4.85454">
        <ele>246</ele>
        <time>2021-07-31T08:13:37.000Z</time>
      </trkpt>
      <trkpt lat="49.81679" lon="4.85454">
        <ele>245</ele>
        <time>2021-07-31T08:13:38.000Z</time>
      </trkpt>
      <trkpt lat="49.81678" lon="4.85453">
        <ele>245</ele>
        <time>2021-07-31T08:13:39.000Z</time>
      </trkpt>
      <trkpt lat="49.81677" lon="4.85453">
        <ele>245</ele>
        <time>2021-07-31T08:13:40.000Z</time>
      </trkpt>
      <trkpt lat="49.81677" lon="4.85453">
        <ele>244</ele>
        <time>2021-07-31T08:13:41.000Z</time>
      </trkpt>
      <trkpt lat="49.81676" lon="4.85454">
        <ele>244</ele>
        <time>2021-07-31T08:13:42.000Z</time>
      </trkpt>
      <trkpt lat="49.81674" lon="4.85454">
        <ele>244</ele>
        <time>2021-07-31T08:13:43.000Z</time>
      </trkpt>
      <trkpt lat="49.81672" lon="4.85454">
        <ele>244</ele>
        <time>2021-07-31T08:13:44.000Z</time>
      </trkpt>
      <trkpt lat="49.8167" lon="4.85454">
        <ele>243</ele>
        <time>2021-07-31T08:13:45.000Z</time>
      </trkpt>
      <trkpt lat="49.81667" lon="4.85453">
        <ele>243</ele>
        <time>2021-07-31T08:13:46.000Z</time>
      </trkpt>
      <trkpt lat="49.81665" lon="4.85452">
        <ele>243</ele>
        <time>2021-07-31T08:13:47.000Z</time>
      </trkpt>
      <trkpt lat="49.81663" lon="4.85451">
        <ele>243</ele>
        <time>2021-07-31T08:13:48.000Z</time>
      </trkpt>
      <trkpt lat="49.8166" lon="4.85449">
        <ele>242</ele>
        <time>2021-07-31T08:13:49.000Z</time>
      </trkpt>
      <trkpt lat="49.81658" lon="4.85448">
        <ele>242</ele>
        <time>2021-07-31T08:13:50.000Z</time>
      </trkpt>
      <trkpt lat="49.81655" lon="4.85447">
        <ele>242</ele>
        <time>2021-07-31T08:13:51.000Z</time>
      </trkpt>
      <trkpt lat="49.81652" lon="4.85446">
        <ele>241</ele>
        <time>2021-07-31T08:13:52.000Z</time>
      </trkpt>
      <trkpt lat="49.81649" lon="4.85444">
        <ele>241</ele>
        <time>2021-07-31T08:13:53.000Z</time>
      </trkpt>
      <trkpt lat="49.81645" lon="4.85442">
        <ele>241</ele>
        <time>2021-07-31T08:13:54.000Z</time>
      </trkpt>
      <trkpt lat="49.81642" lon="4.8544">
        <ele>240</ele>
        <time>2021-07-31T08:13:55.000Z</time>
      </trkpt>
      <trkpt lat="49.81639" lon="4.85438">
        <ele>240</ele>
        <time>2021-07-31T08:13:56.000Z</time>
      </trkpt>
      <trkpt lat="49.81636" lon="4.85436">
        <ele>240</ele>
        <time>2021-07-31T08:13:57.000Z</time>
      </trkpt>
      <trkpt lat="49.81633" lon="4.85435">
        <ele>240</ele>
        <time>2021-07-31T08:13:58.000Z</time>
      </trkpt>
      <trkpt lat="49.81629" lon="4.85433">
        <ele>239</ele>
        <time>2021-07-31T08:13:59.000Z</time>
      </trkpt>
      <trkpt lat="49.81626" lon="4.85432">
        <ele>239</ele>
        <time>2021-07-31T08:14:00.000Z</time>
      </trkpt>
      <trkpt lat="49.81622" lon="4.8543">
        <ele>239</ele>
        <time>2021-07-31T08:14:01.000Z</time>
      </trkpt>
      <trkpt lat="49.81619" lon="4.85428">
        <ele>239</ele>
        <time>2021-07-31T08:14:02.000Z</time>
      </trkpt>
      <trkpt lat="49.81616" lon="4.85427">
        <ele>238</ele>
        <time>2021-07-31T08:14:03.000Z</time>
      </trkpt>
      <trkpt lat="49.81613" lon="4.85426">
        <ele>238</ele>
        <time>2021-07-31T08:14:04.000Z</time>
      </trkpt>
      <trkpt lat="49.8161" lon="4.85426">
        <ele>238</ele>
        <time>2021-07-31T08:14:05.000Z</time>
      </trkpt>
      <trkpt lat="49.81606" lon="4.85425">
        <ele>238</ele>
        <time>2021-07-31T08:14:06.000Z</time>
      </trkpt>
      <trkpt lat="49.81603" lon="4.85424">
        <ele>238</ele>
        <time>2021-07-31T08:14:07.000Z</time>
      </trkpt>
      <trkpt lat="49.816" lon="4.85424">
        <ele>237</ele>
        <time>2021-07-31T08:14:08.000Z</time>
      </trkpt>
      <trkpt lat="49.81597" lon="4.85423">
        <ele>237</ele>
        <time>2021-07-31T08:14:09.000Z</time>
      </trkpt>
      <trkpt lat="49.81595" lon="4.85422">
        <ele>237</ele>
        <time>2021-07-31T08:14:10.000Z</time>
      </trkpt>
      <trkpt lat="49.81594" lon="4.85422">
        <ele>237</ele>
        <time>2021-07-31T08:14:11.000Z</time>
      </trkpt>
      <trkpt lat="49.81591" lon="4.85423">
        <ele>237</ele>
        <time>2021-07-31T08:14:12.000Z</time>
      </trkpt>
      <trkpt lat="49.81589" lon="4.85423">
        <ele>237</ele>
        <time>2021-07-31T08:14:13.000Z</time>
      </trkpt>
      <trkpt lat="49.81586" lon="4.85423">
        <ele>236</ele>
        <time>2021-07-31T08:14:14.000Z</time>
      </trkpt>
      <trkpt lat="49.81584" lon="4.85423">
        <ele>236</ele>
        <time>2021-07-31T08:14:15.000Z</time>
      </trkpt>
      <trkpt lat="49.81581" lon="4.85423">
        <ele>236</ele>
        <time>2021-07-31T08:14:16.000Z</time>
      </trkpt>
      <trkpt lat="49.81579" lon="4.85424">
        <ele>236</ele>
        <time>2021-07-31T08:14:17.000Z</time>
      </trkpt>
      <trkpt lat="49.81576" lon="4.85424">
        <ele>236</ele>
        <time>2021-07-31T08:14:18.000Z</time>
      </trkpt>
      <trkpt lat="49.81574" lon="4.85424">
        <ele>236</ele>
        <time>2021-07-31T08:14:19.000Z</time>
      </trkpt>
      <trkpt lat="49.81571" lon="4.85425">
        <ele>236</ele>
        <time>2021-07-31T08:14:20.000Z</time>
      </trkpt>
      <trkpt lat="49.81568" lon="4.85425">
        <ele>236</ele>
        <time>2021-07-31T08:14:21.000Z</time>
      </trkpt>
      <trkpt lat="49.81565" lon="4.85424">
        <ele>235</ele>
        <time>2021-07-31T08:14:22.000Z</time>
      </trkpt>
      <trkpt lat="49.81563" lon="4.85424">
        <ele>235</ele>
        <time>2021-07-31T08:14:23.000Z</time>
      </trkpt>
      <trkpt lat="49.8156" lon="4.85424">
        <ele>235</ele>
        <time>2021-07-31T08:14:24.000Z</time>
      </trkpt>
      <trkpt lat="49.81557" lon="4.85424">
        <ele>235</ele>
        <time>2021-07-31T08:14:25.000Z</time>
      </trkpt>
      <trkpt lat="49.81554" lon="4.85424">
        <ele>235</ele>
        <time>2021-07-31T08:14:26.000Z</time>
      </trkpt>
      <trkpt lat="49.8155" lon="4.85424">
        <ele>235</ele>
        <time>2021-07-31T08:14:27.000Z</time>
      </trkpt>
      <trkpt lat="49.81547" lon="4.85423">
        <ele>235</ele>
        <time>2021-07-31T08:14:28.000Z</time>
      </trkpt>
      <trkpt lat="49.81544" lon="4.85423">
        <ele>235</ele>
        <time>2021-07-31T08:14:29.000Z</time>
      </trkpt>
      <trkpt lat="49.81541" lon="4.85422">
        <ele>235</ele>
        <time>2021-07-31T08:14:30.000Z</time>
      </trkpt>
      <trkpt lat="49.81538" lon="4.85422">
        <ele>235</ele>
        <time>2021-07-31T08:14:31.000Z</time>
      </trkpt>
      <trkpt lat="49.81534" lon="4.85422">
        <ele>235</ele>
        <time>2021-07-31T08:14:32.000Z</time>
      </trkpt>
      <trkpt lat="49.81529" lon="4.85422">
        <ele>235</ele>
        <time>2021-07-31T08:14:33.000Z</time>
      </trkpt>
      <trkpt lat="49.81525" lon="4.85422">
        <ele>235</ele>
        <time>2021-07-31T08:14:34.000Z</time>
      </trkpt>
      <trkpt lat="49.81521" lon="4.85421">
        <ele>235</ele>
        <time>2021-07-31T08:14:35.000Z</time>
      </trkpt>
      <trkpt lat="49.81517" lon="4.85422">
        <ele>235</ele>
        <time>2021-07-31T08:14:36.000Z</time>
      </trkpt>
      <trkpt lat="49.81514" lon="4.85423">
        <ele>235</ele>
        <time>2021-07-31T08:14:37.000Z</time>
      </trkpt>
      <trkpt lat="49.81511" lon="4.85424">
        <ele>235</ele>
        <time>2021-07-31T08:14:38.000Z</time>
      </trkpt>
      <trkpt lat="49.81507" lon="4.85426">
        <ele>235</ele>
        <time>2021-07-31T08:14:39.000Z</time>
      </trkpt>
      <trkpt lat="49.81503" lon="4.85428">
        <ele>235</ele>
        <time>2021-07-31T08:14:40.000Z</time>
      </trkpt>
      <trkpt lat="49.81499" lon="4.85431">
        <ele>235</ele>
        <time>2021-07-31T08:14:41.000Z</time>
      </trkpt>
      <trkpt lat="49.81495" lon="4.85434">
        <ele>235</ele>
        <time>2021-07-31T08:14:42.000Z</time>
      </trkpt>
      <trkpt lat="49.81492" lon="4.85438">
        <ele>235</ele>
        <time>2021-07-31T08:14:43.000Z</time>
      </trkpt>
      <trkpt lat="49.81488" lon="4.85442">
        <ele>235</ele>
        <time>2021-07-31T08:14:44.000Z</time>
      </trkpt>
      <trkpt lat="49.81484" lon="4.85445">
        <ele>235</ele>
        <time>2021-07-31T08:14:45.000Z</time>
      </trkpt>
      <trkpt lat="49.81481" lon="4.85448">
        <ele>235</ele>
        <time>2021-07-31T08:14:46.000Z</time>
      </trkpt>
      <trkpt lat="49.81478" lon="4.8545">
        <ele>235</ele>
        <time>2021-07-31T08:14:47.000Z</time>
      </trkpt>
      <trkpt lat="49.81475" lon="4.85454">
        <ele>235</ele>
        <time>2021-07-31T08:14:48.000Z</time>
      </trkpt>
      <trkpt lat="49.81472" lon="4.85457">
        <ele>235</ele>
        <time>2021-07-31T08:14:49.000Z</time>
      </trkpt>
      <trkpt lat="49.8147" lon="4.85461">
        <ele>235</ele>
        <time>2021-07-31T08:14:50.000Z</time>
      </trkpt>
      <trkpt lat="49.81467" lon="4.85467">
        <ele>235</ele>
        <time>2021-07-31T08:14:51.000Z</time>
      </trkpt>
      <trkpt lat="49.81464" lon="4.85472">
        <ele>235</ele>
        <time>2021-07-31T08:14:52.000Z</time>
      </trkpt>
      <trkpt lat="49.81461" lon="4.85477">
        <ele>235</ele>
        <time>2021-07-31T08:14:53.000Z</time>
      </trkpt>
      <trkpt lat="49.81458" lon="4.85482">
        <ele>235</ele>
        <time>2021-07-31T08:14:54.000Z</time>
      </trkpt>
      <trkpt lat="49.81455" lon="4.85487">
        <ele>235</ele>
        <time>2021-07-31T08:14:55.000Z</time>
      </trkpt>
      <trkpt lat="49.81453" lon="4.85492">
        <ele>235</ele>
        <time>2021-07-31T08:14:56.000Z</time>
      </trkpt>
      <trkpt lat="49.8145" lon="4.85497">
        <ele>235</ele>
        <time>2021-07-31T08:14:57.000Z</time>
      </trkpt>
      <trkpt lat="49.81448" lon="4.85501">
        <ele>235</ele>
        <time>2021-07-31T08:14:58.000Z</time>
      </trkpt>
      <trkpt lat="49.81446" lon="4.85506">
        <ele>235</ele>
        <time>2021-07-31T08:14:59.000Z</time>
      </trkpt>
      <trkpt lat="49.81443" lon="4.85512">
        <ele>235</ele>
        <time>2021-07-31T08:15:00.000Z</time>
      </trkpt>
      <trkpt lat="49.8144" lon="4.85518">
        <ele>235</ele>
        <time>2021-07-31T08:15:01.000Z</time>
      </trkpt>
      <trkpt lat="49.81438" lon="4.85525">
        <ele>235</ele>
        <time>2021-07-31T08:15:02.000Z</time>
      </trkpt>
      <trkpt lat="49.81435" lon="4.85531">
        <ele>235</ele>
        <time>2021-07-31T08:15:03.000Z</time>
      </trkpt>
      <trkpt lat="49.81433" lon="4.85537">
        <ele>235</ele>
        <time>2021-07-31T08:15:04.000Z</time>
      </trkpt>
      <trkpt lat="49.81431" lon="4.85542">
        <ele>235</ele>
        <time>2021-07-31T08:15:05.000Z</time>
      </trkpt>
      <trkpt lat="49.81429" lon="4.85547">
        <ele>235</ele>
        <time>2021-07-31T08:15:06.000Z</time>
      </trkpt>
      <trkpt lat="49.81427" lon="4.85553">
        <ele>235</ele>
        <time>2021-07-31T08:15:07.000Z</time>
      </trkpt>
      <trkpt lat="49.81426" lon="4.85558">
        <ele>235</ele>
        <time>2021-07-31T08:15:08.000Z</time>
      </trkpt>
      <trkpt lat="49.81424" lon="4.85564">
        <ele>235</ele>
        <time>2021-07-31T08:15:09.000Z</time>
      </trkpt>
      <trkpt lat="49.81422" lon="4.8557">
        <ele>235</ele>
        <time>2021-07-31T08:15:10.000Z</time>
      </trkpt>
      <trkpt lat="49.8142" lon="4.85576">
        <ele>235</ele>
        <time>2021-07-31T08:15:11.000Z</time>
      </trkpt>
      <trkpt lat="49.81419" lon="4.85581">
        <ele>234</ele>
        <time>2021-07-31T08:15:12.000Z</time>
      </trkpt>
      <trkpt lat="49.81417" lon="4.85587">
        <ele>234</ele>
        <time>2021-07-31T08:15:13.000Z</time>
      </trkpt>
      <trkpt lat="49.81416" lon="4.85593">
        <ele>234</ele>
        <time>2021-07-31T08:15:14.000Z</time>
      </trkpt>
      <trkpt lat="49.81415" lon="4.85599">
        <ele>234</ele>
        <time>2021-07-31T08:15:15.000Z</time>
      </trkpt>
      <trkpt lat="49.81414" lon="4.85604">
        <ele>234</ele>
        <time>2021-07-31T08:15:16.000Z</time>
      </trkpt>
      <trkpt lat="49.81413" lon="4.85609">
        <ele>234</ele>
        <time>2021-07-31T08:15:17.000Z</time>
      </trkpt>
      <trkpt lat="49.81412" lon="4.85615">
        <ele>234</ele>
        <time>2021-07-31T08:15:18.000Z</time>
      </trkpt>
      <trkpt lat="49.81411" lon="4.8562">
        <ele>234</ele>
        <time>2021-07-31T08:15:19.000Z</time>
      </trkpt>
      <trkpt lat="49.8141" lon="4.85625">
        <ele>234</ele>
        <time>2021-07-31T08:15:20.000Z</time>
      </trkpt>
      <trkpt lat="49.81409" lon="4.85631">
        <ele>234</ele>
        <time>2021-07-31T08:15:21.000Z</time>
      </trkpt>
      <trkpt lat="49.81407" lon="4.85636">
        <ele>234</ele>
        <time>2021-07-31T08:15:22.000Z</time>
      </trkpt>
      <trkpt lat="49.81406" lon="4.85642">
        <ele>234</ele>
        <time>2021-07-31T08:15:23.000Z</time>
      </trkpt>
      <trkpt lat="49.81405" lon="4.85647">
        <ele>234</ele>
        <time>2021-07-31T08:15:24.000Z</time>
      </trkpt>
      <trkpt lat="49.81404" lon="4.85653">
        <ele>234</ele>
        <time>2021-07-31T08:15:25.000Z</time>
      </trkpt>
      <trkpt lat="49.81402" lon="4.85658">
        <ele>234</ele>
        <time>2021-07-31T08:15:26.000Z</time>
      </trkpt>
      <trkpt lat="49.81401" lon="4.85664">
        <ele>234</ele>
        <time>2021-07-31T08:15:27.000Z</time>
      </trkpt>
      <trkpt lat="49.814" lon="4.85669">
        <ele>234</ele>
        <time>2021-07-31T08:15:28.000Z</time>
      </trkpt>
      <trkpt lat="49.81399" lon="4.85674">
        <ele>234</ele>
        <time>2021-07-31T08:15:29.000Z</time>
      </trkpt>
      <trkpt lat="49.81398" lon="4.8568">
        <ele>234</ele>
        <time>2021-07-31T08:15:30.000Z</time>
      </trkpt>
      <trkpt lat="49.81397" lon="4.85686">
        <ele>234</ele>
        <time>2021-07-31T08:15:31.000Z</time>
      </trkpt>
      <trkpt lat="49.81396" lon="4.85692">
        <ele>234</ele>
        <time>2021-07-31T08:15:32.000Z</time>
      </trkpt>
      <trkpt lat="49.81395" lon="4.85698">
        <ele>234</ele>
        <time>2021-07-31T08:15:33.000Z</time>
      </trkpt>
      <trkpt lat="49.81393" lon="4.85704">
        <ele>234</ele>
        <time>2021-07-31T08:15:34.000Z</time>
      </trkpt>
      <trkpt lat="49.81392" lon="4.8571">
        <ele>234</ele>
        <time>2021-07-31T08:15:35.000Z</time>
      </trkpt>
      <trkpt lat="49.81391" lon="4.85716">
        <ele>234</ele>
        <time>2021-07-31T08:15:36.000Z</time>
      </trkpt>
      <trkpt lat="49.8139" lon="4.85722">
        <ele>234</ele>
        <time>2021-07-31T08:15:37.000Z</time>
      </trkpt>
      <trkpt lat="49.81388" lon="4.85728">
        <ele>234</ele>
        <time>2021-07-31T08:15:38.000Z</time>
      </trkpt>
      <trkpt lat="49.81387" lon="4.85734">
        <ele>234</ele>
        <time>2021-07-31T08:15:39.000Z</time>
      </trkpt>
      <trkpt lat="49.81385" lon="4.8574">
        <ele>234</ele>
        <time>2021-07-31T08:15:40.000Z</time>
      </trkpt>
      <trkpt lat="49.81385" lon="4.85746">
        <ele>234</ele>
        <time>2021-07-31T08:15:41.000Z</time>
      </trkpt>
      <trkpt lat="49.81383" lon="4.85752">
        <ele>233</ele>
        <time>2021-07-31T08:15:42.000Z</time>
      </trkpt>
      <trkpt lat="49.81382" lon="4.85757">
        <ele>233</ele>
        <time>2021-07-31T08:15:43.000Z</time>
      </trkpt>
      <trkpt lat="49.81381" lon="4.85762">
        <ele>233</ele>
        <time>2021-07-31T08:15:44.000Z</time>
      </trkpt>
      <trkpt lat="49.81381" lon="4.85768">
        <ele>233</ele>
        <time>2021-07-31T08:15:45.000Z</time>
      </trkpt>
      <trkpt lat="49.81379" lon="4.85773">
        <ele>233</ele>
        <time>2021-07-31T08:15:46.000Z</time>
      </trkpt>
      <trkpt lat="49.81378" lon="4.85779">
        <ele>233</ele>
        <time>2021-07-31T08:15:47.000Z</time>
      </trkpt>
      <trkpt lat="49.81377" lon="4.85785">
        <ele>233</ele>
        <time>2021-07-31T08:15:48.000Z</time>
      </trkpt>
      <trkpt lat="49.81376" lon="4.8579">
        <ele>233</ele>
        <time>2021-07-31T08:15:49.000Z</time>
      </trkpt>
      <trkpt lat="49.81375" lon="4.85796">
        <ele>233</ele>
        <time>2021-07-31T08:15:50.000Z</time>
      </trkpt>
      <trkpt lat="49.81374" lon="4.85802">
        <ele>233</ele>
        <time>2021-07-31T08:15:51.000Z</time>
      </trkpt>
      <trkpt lat="49.81373" lon="4.85808">
        <ele>233</ele>
        <time>2021-07-31T08:15:52.000Z</time>
      </trkpt>
      <trkpt lat="49.81372" lon="4.85813">
        <ele>233</ele>
        <time>2021-07-31T08:15:53.000Z</time>
      </trkpt>
      <trkpt lat="49.8137" lon="4.85819">
        <ele>233</ele>
        <time>2021-07-31T08:15:54.000Z</time>
      </trkpt>
      <trkpt lat="49.81369" lon="4.85823">
        <ele>233</ele>
        <time>2021-07-31T08:15:55.000Z</time>
      </trkpt>
      <trkpt lat="49.81368" lon="4.85828">
        <ele>233</ele>
        <time>2021-07-31T08:15:56.000Z</time>
      </trkpt>
      <trkpt lat="49.81366" lon="4.85833">
        <ele>233</ele>
        <time>2021-07-31T08:15:57.000Z</time>
      </trkpt>
      <trkpt lat="49.81365" lon="4.85838">
        <ele>233</ele>
        <time>2021-07-31T08:15:58.000Z</time>
      </trkpt>
      <trkpt lat="49.81364" lon="4.85843">
        <ele>234</ele>
        <time>2021-07-31T08:15:59.000Z</time>
      </trkpt>
      <trkpt lat="49.81363" lon="4.85846">
        <ele>234</ele>
        <time>2021-07-31T08:16:00.000Z</time>
      </trkpt>
      <trkpt lat="49.81362" lon="4.8585">
        <ele>234</ele>
        <time>2021-07-31T08:16:01.000Z</time>
      </trkpt>
      <trkpt lat="49.81362" lon="4.85853">
        <ele>234</ele>
        <time>2021-07-31T08:16:02.000Z</time>
      </trkpt>
      <trkpt lat="49.81361" lon="4.85857">
        <ele>234</ele>
        <time>2021-07-31T08:16:03.000Z</time>
      </trkpt>
      <trkpt lat="49.8136" lon="4.8586">
        <ele>234</ele>
        <time>2021-07-31T08:16:04.000Z</time>
      </trkpt>
      <trkpt lat="49.8136" lon="4.85864">
        <ele>234</ele>
        <time>2021-07-31T08:16:05.000Z</time>
      </trkpt>
      <trkpt lat="49.81359" lon="4.85867">
        <ele>234</ele>
        <time>2021-07-31T08:16:06.000Z</time>
      </trkpt>
      <trkpt lat="49.81359" lon="4.8587">
        <ele>234</ele>
        <time>2021-07-31T08:16:07.000Z</time>
      </trkpt>
      <trkpt lat="49.81358" lon="4.85873">
        <ele>235</ele>
        <time>2021-07-31T08:16:08.000Z</time>
      </trkpt>
      <trkpt lat="49.81358" lon="4.85876">
        <ele>235</ele>
        <time>2021-07-31T08:16:09.000Z</time>
      </trkpt>
      <trkpt lat="49.81357" lon="4.85878">
        <ele>235</ele>
        <time>2021-07-31T08:16:10.000Z</time>
      </trkpt>
      <trkpt lat="49.81356" lon="4.85881">
        <ele>235</ele>
        <time>2021-07-31T08:16:11.000Z</time>
      </trkpt>
      <trkpt lat="49.81356" lon="4.85883">
        <ele>235</ele>
        <time>2021-07-31T08:16:12.000Z</time>
      </trkpt>
      <trkpt lat="49.81355" lon="4.85886">
        <ele>235</ele>
        <time>2021-07-31T08:16:13.000Z</time>
      </trkpt>
      <trkpt lat="49.81354" lon="4.85889">
        <ele>235</ele>
        <time>2021-07-31T08:16:14.000Z</time>
      </trkpt>
      <trkpt lat="49.81354" lon="4.85892">
        <ele>235</ele>
        <time>2021-07-31T08:16:15.000Z</time>
      </trkpt>
      <trkpt lat="49.81354" lon="4.85895">
        <ele>235</ele>
        <time>2021-07-31T08:16:16.000Z</time>
      </trkpt>
      <trkpt lat="49.81353" lon="4.85897">
        <ele>236</ele>
        <time>2021-07-31T08:16:17.000Z</time>
      </trkpt>
      <trkpt lat="49.81353" lon="4.859">
        <ele>236</ele>
        <time>2021-07-31T08:16:18.000Z</time>
      </trkpt>
      <trkpt lat="49.81352" lon="4.85903">
        <ele>236</ele>
        <time>2021-07-31T08:16:19.000Z</time>
      </trkpt>
      <trkpt lat="49.81352" lon="4.85906">
        <ele>236</ele>
        <time>2021-07-31T08:16:20.000Z</time>
      </trkpt>
      <trkpt lat="49.81352" lon="4.85909">
        <ele>236</ele>
        <time>2021-07-31T08:16:21.000Z</time>
      </trkpt>
      <trkpt lat="49.81352" lon="4.85912">
        <ele>236</ele>
        <time>2021-07-31T08:16:22.000Z</time>
      </trkpt>
      <trkpt lat="49.81352" lon="4.85915">
        <ele>236</ele>
        <time>2021-07-31T08:16:23.000Z</time>
      </trkpt>
      <trkpt lat="49.81352" lon="4.85918">
        <ele>236</ele>
        <time>2021-07-31T08:16:24.000Z</time>
      </trkpt>
      <trkpt lat="49.81352" lon="4.85921">
        <ele>236</ele>
        <time>2021-07-31T08:16:25.000Z</time>
      </trkpt>
      <trkpt lat="49.81352" lon="4.85924">
        <ele>236</ele>
        <time>2021-07-31T08:16:26.000Z</time>
      </trkpt>
      <trkpt lat="49.81352" lon="4.85927">
        <ele>236</ele>
        <time>2021-07-31T08:16:27.000Z</time>
      </trkpt>
      <trkpt lat="49.81352" lon="4.8593">
        <ele>236</ele>
        <time>2021-07-31T08:16:28.000Z</time>
      </trkpt>
      <trkpt lat="49.81352" lon="4.85933">
        <ele>236</ele>
        <time>2021-07-31T08:16:29.000Z</time>
      </trkpt>
      <trkpt lat="49.81352" lon="4.85937">
        <ele>236</ele>
        <time>2021-07-31T08:16:30.000Z</time>
      </trkpt>
      <trkpt lat="49.81352" lon="4.85941">
        <ele>237</ele>
        <time>2021-07-31T08:16:31.000Z</time>
      </trkpt>
      <trkpt lat="49.81352" lon="4.85945">
        <ele>237</ele>
        <time>2021-07-31T08:16:32.000Z</time>
      </trkpt>
      <trkpt lat="49.81352" lon="4.85949">
        <ele>237</ele>
        <time>2021-07-31T08:16:33.000Z</time>
      </trkpt>
      <trkpt lat="49.81352" lon="4.85954">
        <ele>237</ele>
        <time>2021-07-31T08:16:34.000Z</time>
      </trkpt>
      <trkpt lat="49.81352" lon="4.85958">
        <ele>237</ele>
        <time>2021-07-31T08:16:35.000Z</time>
      </trkpt>
      <trkpt lat="49.81352" lon="4.85962">
        <ele>238</ele>
        <time>2021-07-31T08:16:36.000Z</time>
      </trkpt>
      <trkpt lat="49.81352" lon="4.85967">
        <ele>238</ele>
        <time>2021-07-31T08:16:37.000Z</time>
      </trkpt>
      <trkpt lat="49.81351" lon="4.85971">
        <ele>238</ele>
        <time>2021-07-31T08:16:38.000Z</time>
      </trkpt>
      <trkpt lat="49.81352" lon="4.85976">
        <ele>238</ele>
        <time>2021-07-31T08:16:39.000Z</time>
      </trkpt>
      <trkpt lat="49.81352" lon="4.8598">
        <ele>239</ele>
        <time>2021-07-31T08:16:40.000Z</time>
      </trkpt>
      <trkpt lat="49.81351" lon="4.85984">
        <ele>239</ele>
        <time>2021-07-31T08:16:41.000Z</time>
      </trkpt>
      <trkpt lat="49.81351" lon="4.85989">
        <ele>239</ele>
        <time>2021-07-31T08:16:42.000Z</time>
      </trkpt>
      <trkpt lat="49.81351" lon="4.85993">
        <ele>239</ele>
        <time>2021-07-31T08:16:43.000Z</time>
      </trkpt>
      <trkpt lat="49.81352" lon="4.85998">
        <ele>240</ele>
        <time>2021-07-31T08:16:44.000Z</time>
      </trkpt>
      <trkpt lat="49.81352" lon="4.86003">
        <ele>240</ele>
        <time>2021-07-31T08:16:45.000Z</time>
      </trkpt>
      <trkpt lat="49.81352" lon="4.86008">
        <ele>240</ele>
        <time>2021-07-31T08:16:46.000Z</time>
      </trkpt>
      <trkpt lat="49.81352" lon="4.86013">
        <ele>240</ele>
        <time>2021-07-31T08:16:47.000Z</time>
      </trkpt>
      <trkpt lat="49.81351" lon="4.86018">
        <ele>240</ele>
        <time>2021-07-31T08:16:48.000Z</time>
      </trkpt>
      <trkpt lat="49.81351" lon="4.86025">
        <ele>240</ele>
        <time>2021-07-31T08:16:49.000Z</time>
      </trkpt>
      <trkpt lat="49.81351" lon="4.86031">
        <ele>240</ele>
        <time>2021-07-31T08:16:50.000Z</time>
      </trkpt>
      <trkpt lat="49.81351" lon="4.86037">
        <ele>241</ele>
        <time>2021-07-31T08:16:51.000Z</time>
      </trkpt>
      <trkpt lat="49.81351" lon="4.86044">
        <ele>241</ele>
        <time>2021-07-31T08:16:52.000Z</time>
      </trkpt>
      <trkpt lat="49.81351" lon="4.8605">
        <ele>241</ele>
        <time>2021-07-31T08:16:53.000Z</time>
      </trkpt>
      <trkpt lat="49.81351" lon="4.86056">
        <ele>241</ele>
        <time>2021-07-31T08:16:54.000Z</time>
      </trkpt>
      <trkpt lat="49.81351" lon="4.86062">
        <ele>241</ele>
        <time>2021-07-31T08:16:55.000Z</time>
      </trkpt>
      <trkpt lat="49.81351" lon="4.86068">
        <ele>241</ele>
        <time>2021-07-31T08:16:56.000Z</time>
      </trkpt>
      <trkpt lat="49.81351" lon="4.86075">
        <ele>241</ele>
        <time>2021-07-31T08:16:57.000Z</time>
      </trkpt>
      <trkpt lat="49.81352" lon="4.86081">
        <ele>241</ele>
        <time>2021-07-31T08:16:58.000Z</time>
      </trkpt>
      <trkpt lat="49.81352" lon="4.86087">
        <ele>242</ele>
        <time>2021-07-31T08:16:59.000Z</time>
      </trkpt>
      <trkpt lat="49.81353" lon="4.86093">
        <ele>242</ele>
        <time>2021-07-31T08:17:00.000Z</time>
      </trkpt>
      <trkpt lat="49.81353" lon="4.861">
        <ele>242</ele>
        <time>2021-07-31T08:17:01.000Z</time>
      </trkpt>
      <trkpt lat="49.81354" lon="4.86107">
        <ele>242</ele>
        <time>2021-07-31T08:17:02.000Z</time>
      </trkpt>
      <trkpt lat="49.81355" lon="4.86114">
        <ele>242</ele>
        <time>2021-07-31T08:17:03.000Z</time>
      </trkpt>
      <trkpt lat="49.81356" lon="4.86121">
        <ele>242</ele>
        <time>2021-07-31T08:17:04.000Z</time>
      </trkpt>
      <trkpt lat="49.81357" lon="4.86129">
        <ele>242</ele>
        <time>2021-07-31T08:17:05.000Z</time>
      </trkpt>
      <trkpt lat="49.81357" lon="4.86136">
        <ele>243</ele>
        <time>2021-07-31T08:17:06.000Z</time>
      </trkpt>
      <trkpt lat="49.81359" lon="4.86143">
        <ele>243</ele>
        <time>2021-07-31T08:17:07.000Z</time>
      </trkpt>
      <trkpt lat="49.8136" lon="4.8615">
        <ele>243</ele>
        <time>2021-07-31T08:17:08.000Z</time>
      </trkpt>
      <trkpt lat="49.8136" lon="4.86157">
        <ele>243</ele>
        <time>2021-07-31T08:17:09.000Z</time>
      </trkpt>
      <trkpt lat="49.81361" lon="4.86164">
        <ele>243</ele>
        <time>2021-07-31T08:17:10.000Z</time>
      </trkpt>
      <trkpt lat="49.81362" lon="4.86171">
        <ele>243</ele>
        <time>2021-07-31T08:17:11.000Z</time>
      </trkpt>
      <trkpt lat="49.81363" lon="4.86177">
        <ele>243</ele>
        <time>2021-07-31T08:17:12.000Z</time>
      </trkpt>
      <trkpt lat="49.81364" lon="4.86184">
        <ele>244</ele>
        <time>2021-07-31T08:17:13.000Z</time>
      </trkpt>
      <trkpt lat="49.81365" lon="4.8619">
        <ele>244</ele>
        <time>2021-07-31T08:17:14.000Z</time>
      </trkpt>
      <trkpt lat="49.81365" lon="4.86196">
        <ele>244</ele>
        <time>2021-07-31T08:17:15.000Z</time>
      </trkpt>
      <trkpt lat="49.81366" lon="4.86202">
        <ele>244</ele>
        <time>2021-07-31T08:17:16.000Z</time>
      </trkpt>
      <trkpt lat="49.81367" lon="4.86207">
        <ele>244</ele>
        <time>2021-07-31T08:17:17.000Z</time>
      </trkpt>
      <trkpt lat="49.81368" lon="4.86213">
        <ele>244</ele>
        <time>2021-07-31T08:17:18.000Z</time>
      </trkpt>
      <trkpt lat="49.81368" lon="4.86219">
        <ele>245</ele>
        <time>2021-07-31T08:17:19.000Z</time>
      </trkpt>
      <trkpt lat="49.81369" lon="4.86225">
        <ele>245</ele>
        <time>2021-07-31T08:17:20.000Z</time>
      </trkpt>
      <trkpt lat="49.8137" lon="4.8623">
        <ele>245</ele>
        <time>2021-07-31T08:17:21.000Z</time>
      </trkpt>
      <trkpt lat="49.81371" lon="4.86236">
        <ele>245</ele>
        <time>2021-07-31T08:17:22.000Z</time>
      </trkpt>
      <trkpt lat="49.81372" lon="4.86241">
        <ele>245</ele>
        <time>2021-07-31T08:17:23.000Z</time>
      </trkpt>
      <trkpt lat="49.81373" lon="4.86246">
        <ele>245</ele>
        <time>2021-07-31T08:17:24.000Z</time>
      </trkpt>
      <trkpt lat="49.81373" lon="4.8625">
        <ele>245</ele>
        <time>2021-07-31T08:17:25.000Z</time>
      </trkpt>
      <trkpt lat="49.81374" lon="4.86255">
        <ele>246</ele>
        <time>2021-07-31T08:17:26.000Z</time>
      </trkpt>
      <trkpt lat="49.81374" lon="4.8626">
        <ele>246</ele>
        <time>2021-07-31T08:17:27.000Z</time>
      </trkpt>
      <trkpt lat="49.81374" lon="4.86264">
        <ele>246</ele>
        <time>2021-07-31T08:17:28.000Z</time>
      </trkpt>
      <trkpt lat="49.81375" lon="4.86269">
        <ele>246</ele>
        <time>2021-07-31T08:17:29.000Z</time>
      </trkpt>
      <trkpt lat="49.81376" lon="4.86274">
        <ele>246</ele>
        <time>2021-07-31T08:17:30.000Z</time>
      </trkpt>
      <trkpt lat="49.81377" lon="4.86279">
        <ele>246</ele>
        <time>2021-07-31T08:17:31.000Z</time>
      </trkpt>
      <trkpt lat="49.81378" lon="4.86285">
        <ele>246</ele>
        <time>2021-07-31T08:17:32.000Z</time>
      </trkpt>
      <trkpt lat="49.81379" lon="4.8629">
        <ele>246</ele>
        <time>2021-07-31T08:17:33.000Z</time>
      </trkpt>
      <trkpt lat="49.8138" lon="4.86297">
        <ele>247</ele>
        <time>2021-07-31T08:17:34.000Z</time>
      </trkpt>
      <trkpt lat="49.8138" lon="4.86303">
        <ele>247</ele>
        <time>2021-07-31T08:17:35.000Z</time>
      </trkpt>
      <trkpt lat="49.81381" lon="4.86308">
        <ele>247</ele>
        <time>2021-07-31T08:17:36.000Z</time>
      </trkpt>
      <trkpt lat="49.81381" lon="4.86312">
        <ele>247</ele>
        <time>2021-07-31T08:17:37.000Z</time>
      </trkpt>
      <trkpt lat="49.81382" lon="4.86318">
        <ele>247</ele>
        <time>2021-07-31T08:17:38.000Z</time>
      </trkpt>
      <trkpt lat="49.81382" lon="4.86323">
        <ele>247</ele>
        <time>2021-07-31T08:17:39.000Z</time>
      </trkpt>
      <trkpt lat="49.81383" lon="4.86327">
        <ele>247</ele>
        <time>2021-07-31T08:17:40.000Z</time>
      </trkpt>
      <trkpt lat="49.81383" lon="4.86332">
        <ele>247</ele>
        <time>2021-07-31T08:17:41.000Z</time>
      </trkpt>
      <trkpt lat="49.81384" lon="4.86337">
        <ele>247</ele>
        <time>2021-07-31T08:17:42.000Z</time>
      </trkpt>
      <trkpt lat="49.81385" lon="4.86343">
        <ele>248</ele>
        <time>2021-07-31T08:17:43.000Z</time>
      </trkpt>
      <trkpt lat="49.81386" lon="4.86349">
        <ele>248</ele>
        <time>2021-07-31T08:17:44.000Z</time>
      </trkpt>
      <trkpt lat="49.81387" lon="4.86354">
        <ele>248</ele>
        <time>2021-07-31T08:17:45.000Z</time>
      </trkpt>
      <trkpt lat="49.81388" lon="4.86359">
        <ele>248</ele>
        <time>2021-07-31T08:17:46.000Z</time>
      </trkpt>
      <trkpt lat="49.81388" lon="4.86365">
        <ele>248</ele>
        <time>2021-07-31T08:17:47.000Z</time>
      </trkpt>
      <trkpt lat="49.81389" lon="4.8637">
        <ele>248</ele>
        <time>2021-07-31T08:17:48.000Z</time>
      </trkpt>
      <trkpt lat="49.81389" lon="4.86375">
        <ele>249</ele>
        <time>2021-07-31T08:17:49.000Z</time>
      </trkpt>
      <trkpt lat="49.8139" lon="4.86379">
        <ele>249</ele>
        <time>2021-07-31T08:17:50.000Z</time>
      </trkpt>
      <trkpt lat="49.8139" lon="4.86383">
        <ele>249</ele>
        <time>2021-07-31T08:17:51.000Z</time>
      </trkpt>
      <trkpt lat="49.81392" lon="4.86387">
        <ele>249</ele>
        <time>2021-07-31T08:17:52.000Z</time>
      </trkpt>
      <trkpt lat="49.81393" lon="4.86392">
        <ele>249</ele>
        <time>2021-07-31T08:17:53.000Z</time>
      </trkpt>
      <trkpt lat="49.81393" lon="4.86397">
        <ele>249</ele>
        <time>2021-07-31T08:17:54.000Z</time>
      </trkpt>
      <trkpt lat="49.81394" lon="4.86401">
        <ele>249</ele>
        <time>2021-07-31T08:17:55.000Z</time>
      </trkpt>
      <trkpt lat="49.81395" lon="4.86406">
        <ele>250</ele>
        <time>2021-07-31T08:17:56.000Z</time>
      </trkpt>
      <trkpt lat="49.81396" lon="4.86411">
        <ele>250</ele>
        <time>2021-07-31T08:17:57.000Z</time>
      </trkpt>
      <trkpt lat="49.81397" lon="4.86415">
        <ele>250</ele>
        <time>2021-07-31T08:17:58.000Z</time>
      </trkpt>
      <trkpt lat="49.81398" lon="4.86419">
        <ele>250</ele>
        <time>2021-07-31T08:17:59.000Z</time>
      </trkpt>
      <trkpt lat="49.81399" lon="4.86423">
        <ele>250</ele>
        <time>2021-07-31T08:18:00.000Z</time>
      </trkpt>
      <trkpt lat="49.814" lon="4.86428">
        <ele>250</ele>
        <time>2021-07-31T08:18:01.000Z</time>
      </trkpt>
      <trkpt lat="49.814" lon="4.86432">
        <ele>250</ele>
        <time>2021-07-31T08:18:02.000Z</time>
      </trkpt>
      <trkpt lat="49.814" lon="4.86436">
        <ele>251</ele>
        <time>2021-07-31T08:18:03.000Z</time>
      </trkpt>
      <trkpt lat="49.81401" lon="4.86439">
        <ele>251</ele>
        <time>2021-07-31T08:18:04.000Z</time>
      </trkpt>
      <trkpt lat="49.81401" lon="4.86442">
        <ele>251</ele>
        <time>2021-07-31T08:18:05.000Z</time>
      </trkpt>
      <trkpt lat="49.81402" lon="4.86446">
        <ele>251</ele>
        <time>2021-07-31T08:18:06.000Z</time>
      </trkpt>
      <trkpt lat="49.81402" lon="4.86449">
        <ele>251</ele>
        <time>2021-07-31T08:18:07.000Z</time>
      </trkpt>
      <trkpt lat="49.81402" lon="4.86453">
        <ele>251</ele>
        <time>2021-07-31T08:18:08.000Z</time>
      </trkpt>
      <trkpt lat="49.81403" lon="4.86457">
        <ele>251</ele>
        <time>2021-07-31T08:18:09.000Z</time>
      </trkpt>
      <trkpt lat="49.81404" lon="4.86461">
        <ele>251</ele>
        <time>2021-07-31T08:18:10.000Z</time>
      </trkpt>
      <trkpt lat="49.81404" lon="4.86465">
        <ele>252</ele>
        <time>2021-07-31T08:18:11.000Z</time>
      </trkpt>
      <trkpt lat="49.81405" lon="4.86469">
        <ele>252</ele>
        <time>2021-07-31T08:18:12.000Z</time>
      </trkpt>
      <trkpt lat="49.81405" lon="4.86473">
        <ele>252</ele>
        <time>2021-07-31T08:18:13.000Z</time>
      </trkpt>
      <trkpt lat="49.81406" lon="4.86477">
        <ele>252</ele>
        <time>2021-07-31T08:18:14.000Z</time>
      </trkpt>
      <trkpt lat="49.81406" lon="4.8648">
        <ele>252</ele>
        <time>2021-07-31T08:18:15.000Z</time>
      </trkpt>
      <trkpt lat="49.81407" lon="4.86483">
        <ele>252</ele>
        <time>2021-07-31T08:18:16.000Z</time>
      </trkpt>
      <trkpt lat="49.81407" lon="4.86485">
        <ele>252</ele>
        <time>2021-07-31T08:18:17.000Z</time>
      </trkpt>
      <trkpt lat="49.81406" lon="4.86487">
        <ele>252</ele>
        <time>2021-07-31T08:18:18.000Z</time>
      </trkpt>
      <trkpt lat="49.81406" lon="4.8649">
        <ele>252</ele>
        <time>2021-07-31T08:18:19.000Z</time>
      </trkpt>
      <trkpt lat="49.81406" lon="4.86493">
        <ele>253</ele>
        <time>2021-07-31T08:18:20.000Z</time>
      </trkpt>
      <trkpt lat="49.81407" lon="4.86495">
        <ele>253</ele>
        <time>2021-07-31T08:18:21.000Z</time>
      </trkpt>
      <trkpt lat="49.81407" lon="4.86498">
        <ele>253</ele>
        <time>2021-07-31T08:18:22.000Z</time>
      </trkpt>
      <trkpt lat="49.81407" lon="4.865">
        <ele>253</ele>
        <time>2021-07-31T08:18:23.000Z</time>
      </trkpt>
      <trkpt lat="49.81408" lon="4.86502">
        <ele>253</ele>
        <time>2021-07-31T08:18:24.000Z</time>
      </trkpt>
      <trkpt lat="49.81408" lon="4.86504">
        <ele>253</ele>
        <time>2021-07-31T08:18:25.000Z</time>
      </trkpt>
      <trkpt lat="49.81408" lon="4.86507">
        <ele>253</ele>
        <time>2021-07-31T08:18:26.000Z</time>
      </trkpt>
      <trkpt lat="49.81408" lon="4.86509">
        <ele>253</ele>
        <time>2021-07-31T08:18:27.000Z</time>
      </trkpt>
      <trkpt lat="49.81409" lon="4.86511">
        <ele>254</ele>
        <time>2021-07-31T08:18:28.000Z</time>
      </trkpt>
      <trkpt lat="49.81409" lon="4.86513">
        <ele>254</ele>
        <time>2021-07-31T08:18:29.000Z</time>
      </trkpt>
      <trkpt lat="49.81409" lon="4.86515">
        <ele>254</ele>
        <time>2021-07-31T08:18:30.000Z</time>
      </trkpt>
      <trkpt lat="49.8141" lon="4.86518">
        <ele>254</ele>
        <time>2021-07-31T08:18:31.000Z</time>
      </trkpt>
      <trkpt lat="49.8141" lon="4.8652">
        <ele>254</ele>
        <time>2021-07-31T08:18:32.000Z</time>
      </trkpt>
      <trkpt lat="49.81411" lon="4.86523">
        <ele>254</ele>
        <time>2021-07-31T08:18:33.000Z</time>
      </trkpt>
      <trkpt lat="49.81411" lon="4.86525">
        <ele>255</ele>
        <time>2021-07-31T08:18:34.000Z</time>
      </trkpt>
      <trkpt lat="49.81412" lon="4.86528">
        <ele>255</ele>
        <time>2021-07-31T08:18:35.000Z</time>
      </trkpt>
      <trkpt lat="49.81412" lon="4.8653">
        <ele>255</ele>
        <time>2021-07-31T08:18:36.000Z</time>
      </trkpt>
      <trkpt lat="49.81412" lon="4.86533">
        <ele>255</ele>
        <time>2021-07-31T08:18:37.000Z</time>
      </trkpt>
      <trkpt lat="49.81413" lon="4.86536">
        <ele>255</ele>
        <time>2021-07-31T08:18:38.000Z</time>
      </trkpt>
      <trkpt lat="49.81413" lon="4.86538">
        <ele>255</ele>
        <time>2021-07-31T08:18:39.000Z</time>
      </trkpt>
      <trkpt lat="49.81414" lon="4.86542">
        <ele>256</ele>
        <time>2021-07-31T08:18:40.000Z</time>
      </trkpt>
      <trkpt lat="49.81414" lon="4.86545">
        <ele>256</ele>
        <time>2021-07-31T08:18:41.000Z</time>
      </trkpt>
      <trkpt lat="49.81415" lon="4.86548">
        <ele>256</ele>
        <time>2021-07-31T08:18:42.000Z</time>
      </trkpt>
      <trkpt lat="49.81415" lon="4.86551">
        <ele>256</ele>
        <time>2021-07-31T08:18:43.000Z</time>
      </trkpt>
      <trkpt lat="49.81416" lon="4.86554">
        <ele>256</ele>
        <time>2021-07-31T08:18:44.000Z</time>
      </trkpt>
      <trkpt lat="49.81417" lon="4.86557">
        <ele>256</ele>
        <time>2021-07-31T08:18:45.000Z</time>
      </trkpt>
      <trkpt lat="49.81417" lon="4.8656">
        <ele>257</ele>
        <time>2021-07-31T08:18:46.000Z</time>
      </trkpt>
      <trkpt lat="49.81418" lon="4.86564">
        <ele>257</ele>
        <time>2021-07-31T08:18:47.000Z</time>
      </trkpt>
      <trkpt lat="49.81419" lon="4.86567">
        <ele>257</ele>
        <time>2021-07-31T08:18:48.000Z</time>
      </trkpt>
      <trkpt lat="49.81419" lon="4.8657">
        <ele>257</ele>
        <time>2021-07-31T08:18:49.000Z</time>
      </trkpt>
      <trkpt lat="49.8142" lon="4.86574">
        <ele>257</ele>
        <time>2021-07-31T08:18:50.000Z</time>
      </trkpt>
      <trkpt lat="49.8142" lon="4.86578">
        <ele>258</ele>
        <time>2021-07-31T08:18:51.000Z</time>
      </trkpt>
      <trkpt lat="49.8142" lon="4.86582">
        <ele>258</ele>
        <time>2021-07-31T08:18:52.000Z</time>
      </trkpt>
      <trkpt lat="49.8142" lon="4.86586">
        <ele>258</ele>
        <time>2021-07-31T08:18:53.000Z</time>
      </trkpt>
      <trkpt lat="49.81421" lon="4.8659">
        <ele>258</ele>
        <time>2021-07-31T08:18:54.000Z</time>
      </trkpt>
      <trkpt lat="49.81421" lon="4.86594">
        <ele>258</ele>
        <time>2021-07-31T08:18:55.000Z</time>
      </trkpt>
      <trkpt lat="49.81422" lon="4.86598">
        <ele>259</ele>
        <time>2021-07-31T08:18:56.000Z</time>
      </trkpt>
      <trkpt lat="49.81423" lon="4.86602">
        <ele>259</ele>
        <time>2021-07-31T08:18:57.000Z</time>
      </trkpt>
      <trkpt lat="49.81423" lon="4.86607">
        <ele>259</ele>
        <time>2021-07-31T08:18:58.000Z</time>
      </trkpt>
      <trkpt lat="49.81424" lon="4.8661">
        <ele>259</ele>
        <time>2021-07-31T08:18:59.000Z</time>
      </trkpt>
      <trkpt lat="49.81424" lon="4.86614">
        <ele>259</ele>
        <time>2021-07-31T08:19:00.000Z</time>
      </trkpt>
      <trkpt lat="49.81423" lon="4.86617">
        <ele>260</ele>
        <time>2021-07-31T08:19:01.000Z</time>
      </trkpt>
      <trkpt lat="49.81422" lon="4.86621">
        <ele>260</ele>
        <time>2021-07-31T08:19:02.000Z</time>
      </trkpt>
      <trkpt lat="49.8142" lon="4.86624">
        <ele>260</ele>
        <time>2021-07-31T08:19:03.000Z</time>
      </trkpt>
      <trkpt lat="49.81418" lon="4.86628">
        <ele>260</ele>
        <time>2021-07-31T08:19:04.000Z</time>
      </trkpt>
      <trkpt lat="49.81415" lon="4.86632">
        <ele>260</ele>
        <time>2021-07-31T08:19:05.000Z</time>
      </trkpt>
      <trkpt lat="49.81412" lon="4.86634">
        <ele>260</ele>
        <time>2021-07-31T08:19:06.000Z</time>
      </trkpt>
      <trkpt lat="49.81409" lon="4.86636">
        <ele>261</ele>
        <time>2021-07-31T08:19:07.000Z</time>
      </trkpt>
      <trkpt lat="49.81405" lon="4.86638">
        <ele>261</ele>
        <time>2021-07-31T08:19:08.000Z</time>
      </trkpt>
      <trkpt lat="49.81403" lon="4.8664">
        <ele>261</ele>
        <time>2021-07-31T08:19:09.000Z</time>
      </trkpt>
      <trkpt lat="49.814" lon="4.86644">
        <ele>261</ele>
        <time>2021-07-31T08:19:10.000Z</time>
      </trkpt>
      <trkpt lat="49.81397" lon="4.86648">
        <ele>262</ele>
        <time>2021-07-31T08:19:11.000Z</time>
      </trkpt>
      <trkpt lat="49.81394" lon="4.86654">
        <ele>262</ele>
        <time>2021-07-31T08:19:12.000Z</time>
      </trkpt>
      <trkpt lat="49.81391" lon="4.86659">
        <ele>262</ele>
        <time>2021-07-31T08:19:13.000Z</time>
      </trkpt>
      <trkpt lat="49.81388" lon="4.86664">
        <ele>262</ele>
        <time>2021-07-31T08:19:14.000Z</time>
      </trkpt>
      <trkpt lat="49.81383" lon="4.86669">
        <ele>262</ele>
        <time>2021-07-31T08:19:15.000Z</time>
      </trkpt>
      <trkpt lat="49.81379" lon="4.86674">
        <ele>262</ele>
        <time>2021-07-31T08:19:16.000Z</time>
      </trkpt>
      <trkpt lat="49.81375" lon="4.86678">
        <ele>262</ele>
        <time>2021-07-31T08:19:17.000Z</time>
      </trkpt>
      <trkpt lat="49.81372" lon="4.86681">
        <ele>262</ele>
        <time>2021-07-31T08:19:18.000Z</time>
      </trkpt>
      <trkpt lat="49.81369" lon="4.86684">
        <ele>262</ele>
        <time>2021-07-31T08:19:19.000Z</time>
      </trkpt>
      <trkpt lat="49.81365" lon="4.86689">
        <ele>262</ele>
        <time>2021-07-31T08:19:20.000Z</time>
      </trkpt>
      <trkpt lat="49.81362" lon="4.86694">
        <ele>262</ele>
        <time>2021-07-31T08:19:21.000Z</time>
      </trkpt>
      <trkpt lat="49.8136" lon="4.867">
        <ele>261</ele>
        <time>2021-07-31T08:19:22.000Z</time>
      </trkpt>
      <trkpt lat="49.81358" lon="4.86705">
        <ele>261</ele>
        <time>2021-07-31T08:19:23.000Z</time>
      </trkpt>
      <trkpt lat="49.81357" lon="4.86709">
        <ele>261</ele>
        <time>2021-07-31T08:19:24.000Z</time>
      </trkpt>
      <trkpt lat="49.81357" lon="4.86712">
        <ele>261</ele>
        <time>2021-07-31T08:19:25.000Z</time>
      </trkpt>
      <trkpt lat="49.81356" lon="4.86713">
        <ele>261</ele>
        <time>2021-07-31T08:19:26.000Z</time>
      </trkpt>
      <trkpt lat="49.81356" lon="4.86714">
        <ele>260</ele>
        <time>2021-07-31T08:19:27.000Z</time>
      </trkpt>
      <trkpt lat="49.81356" lon="4.86714">
        <ele>260</ele>
        <time>2021-07-31T08:19:28.000Z</time>
      </trkpt>
      <trkpt lat="49.81355" lon="4.86715">
        <ele>260</ele>
        <time>2021-07-31T08:19:29.000Z</time>
      </trkpt>
      <trkpt lat="49.81355" lon="4.86716">
        <ele>260</ele>
        <time>2021-07-31T08:19:30.000Z</time>
      </trkpt>
      <trkpt lat="49.81355" lon="4.86717">
        <ele>260</ele>
        <time>2021-07-31T08:19:31.000Z</time>
      </trkpt>
      <trkpt lat="49.81355" lon="4.86717">
        <ele>259</ele>
        <time>2021-07-31T08:19:32.000Z</time>
      </trkpt>
      <trkpt lat="49.81355" lon="4.86717">
        <ele>259</ele>
        <time>2021-07-31T08:19:33.000Z</time>
      </trkpt>
      <trkpt lat="49.81354" lon="4.86717">
        <ele>259</ele>
        <time>2021-07-31T08:19:34.000Z</time>
      </trkpt>
      <trkpt lat="49.81354" lon="4.86717">
        <ele>259</ele>
        <time>2021-07-31T08:19:35.000Z</time>
      </trkpt>
      <trkpt lat="49.81353" lon="4.86717">
        <ele>258</ele>
        <time>2021-07-31T08:19:36.000Z</time>
      </trkpt>
      <trkpt lat="49.81353" lon="4.86718">
        <ele>258</ele>
        <time>2021-07-31T08:19:37.000Z</time>
      </trkpt>
      <trkpt lat="49.81353" lon="4.86718">
        <ele>258</ele>
        <time>2021-07-31T08:19:38.000Z</time>
      </trkpt>
      <trkpt lat="49.81353" lon="4.86718">
        <ele>258</ele>
        <time>2021-07-31T08:19:39.000Z</time>
      </trkpt>
      <trkpt lat="49.81353" lon="4.86718">
        <ele>258</ele>
        <time>2021-07-31T08:19:40.000Z</time>
      </trkpt>
      <trkpt lat="49.81353" lon="4.86718">
        <ele>257</ele>
        <time>2021-07-31T08:19:41.000Z</time>
      </trkpt>
      <trkpt lat="49.81353" lon="4.86718">
        <ele>257</ele>
        <time>2021-07-31T08:19:42.000Z</time>
      </trkpt>
      <trkpt lat="49.81353" lon="4.86719">
        <ele>257</ele>
        <time>2021-07-31T08:19:43.000Z</time>
      </trkpt>
      <trkpt lat="49.81353" lon="4.86719">
        <ele>257</ele>
        <time>2021-07-31T08:19:44.000Z</time>
      </trkpt>
      <trkpt lat="49.81353" lon="4.86719">
        <ele>257</ele>
        <time>2021-07-31T08:19:45.000Z</time>
      </trkpt>
      <trkpt lat="49.81353" lon="4.86719">
        <ele>257</ele>
        <time>2021-07-31T08:19:46.000Z</time>
      </trkpt>
      <trkpt lat="49.81353" lon="4.86719">
        <ele>256</ele>
        <time>2021-07-31T08:19:47.000Z</time>
      </trkpt>
      <trkpt lat="49.81353" lon="4.8672">
        <ele>256</ele>
        <time>2021-07-31T08:19:48.000Z</time>
      </trkpt>
      <trkpt lat="49.81353" lon="4.8672">
        <ele>256</ele>
        <time>2021-07-31T08:19:49.000Z</time>
      </trkpt>
      <trkpt lat="49.81352" lon="4.8672">
        <ele>256</ele>
        <time>2021-07-31T08:19:50.000Z</time>
      </trkpt>
      <trkpt lat="49.81352" lon="4.8672">
        <ele>256</ele>
        <time>2021-07-31T08:19:51.000Z</time>
      </trkpt>
      <trkpt lat="49.81352" lon="4.86721">
        <ele>256</ele>
        <time>2021-07-31T08:19:52.000Z</time>
      </trkpt>
      <trkpt lat="49.81352" lon="4.86722">
        <ele>255</ele>
        <time>2021-07-31T08:19:53.000Z</time>
      </trkpt>
      <trkpt lat="49.81351" lon="4.86722">
        <ele>255</ele>
        <time>2021-07-31T08:19:54.000Z</time>
      </trkpt>
      <trkpt lat="49.81351" lon="4.86723">
        <ele>255</ele>
        <time>2021-07-31T08:19:55.000Z</time>
      </trkpt>
      <trkpt lat="49.8135" lon="4.86723">
        <ele>255</ele>
        <time>2021-07-31T08:19:56.000Z</time>
      </trkpt>
      <trkpt lat="49.81349" lon="4.86723">
        <ele>255</ele>
        <time>2021-07-31T08:19:57.000Z</time>
      </trkpt>
      <trkpt lat="49.81348" lon="4.86723">
        <ele>255</ele>
        <time>2021-07-31T08:19:58.000Z</time>
      </trkpt>
      <trkpt lat="49.81347" lon="4.86723">
        <ele>255</ele>
        <time>2021-07-31T08:19:59.000Z</time>
      </trkpt>
      <trkpt lat="49.81345" lon="4.86724">
        <ele>255</ele>
        <time>2021-07-31T08:20:00.000Z</time>
      </trkpt>
      <trkpt lat="49.81344" lon="4.86725">
        <ele>255</ele>
        <time>2021-07-31T08:20:01.000Z</time>
      </trkpt>
      <trkpt lat="49.81343" lon="4.86726">
        <ele>255</ele>
        <time>2021-07-31T08:20:02.000Z</time>
      </trkpt>
      <trkpt lat="49.81341" lon="4.86728">
        <ele>254</ele>
        <time>2021-07-31T08:20:03.000Z</time>
      </trkpt>
      <trkpt lat="49.81339" lon="4.8673">
        <ele>254</ele>
        <time>2021-07-31T08:20:04.000Z</time>
      </trkpt>
      <trkpt lat="49.81338" lon="4.86731">
        <ele>254</ele>
        <time>2021-07-31T08:20:05.000Z</time>
      </trkpt>
      <trkpt lat="49.81336" lon="4.86733">
        <ele>254</ele>
        <time>2021-07-31T08:20:06.000Z</time>
      </trkpt>
      <trkpt lat="49.81334" lon="4.86735">
        <ele>254</ele>
        <time>2021-07-31T08:20:07.000Z</time>
      </trkpt>
      <trkpt lat="49.81332" lon="4.86737">
        <ele>254</ele>
        <time>2021-07-31T08:20:08.000Z</time>
      </trkpt>
      <trkpt lat="49.8133" lon="4.86739">
        <ele>253</ele>
        <time>2021-07-31T08:20:09.000Z</time>
      </trkpt>
      <trkpt lat="49.81328" lon="4.86741">
        <ele>253</ele>
        <time>2021-07-31T08:20:10.000Z</time>
      </trkpt>
      <trkpt lat="49.81327" lon="4.86743">
        <ele>253</ele>
        <time>2021-07-31T08:20:11.000Z</time>
      </trkpt>
      <trkpt lat="49.81325" lon="4.86745">
        <ele>253</ele>
        <time>2021-07-31T08:20:12.000Z</time>
      </trkpt>
      <trkpt lat="49.81323" lon="4.86747">
        <ele>253</ele>
        <time>2021-07-31T08:20:13.000Z</time>
      </trkpt>
      <trkpt lat="49.81321" lon="4.86748">
        <ele>253</ele>
        <time>2021-07-31T08:20:14.000Z</time>
      </trkpt>
      <trkpt lat="49.81319" lon="4.86749">
        <ele>252</ele>
        <time>2021-07-31T08:20:15.000Z</time>
      </trkpt>
      <trkpt lat="49.81318" lon="4.86751">
        <ele>252</ele>
        <time>2021-07-31T08:20:16.000Z</time>
      </trkpt>
      <trkpt lat="49.81316" lon="4.86753">
        <ele>252</ele>
        <time>2021-07-31T08:20:17.000Z</time>
      </trkpt>
      <trkpt lat="49.81314" lon="4.86755">
        <ele>252</ele>
        <time>2021-07-31T08:20:18.000Z</time>
      </trkpt>
      <trkpt lat="49.81312" lon="4.86756">
        <ele>252</ele>
        <time>2021-07-31T08:20:19.000Z</time>
      </trkpt>
      <trkpt lat="49.8131" lon="4.86758">
        <ele>252</ele>
        <time>2021-07-31T08:20:20.000Z</time>
      </trkpt>
      <trkpt lat="49.81308" lon="4.8676">
        <ele>252</ele>
        <time>2021-07-31T08:20:21.000Z</time>
      </trkpt>
      <trkpt lat="49.81306" lon="4.86761">
        <ele>251</ele>
        <time>2021-07-31T08:20:22.000Z</time>
      </trkpt>
      <trkpt lat="49.81304" lon="4.86763">
        <ele>251</ele>
        <time>2021-07-31T08:20:23.000Z</time>
      </trkpt>
      <trkpt lat="49.81302" lon="4.86764">
        <ele>251</ele>
        <time>2021-07-31T08:20:24.000Z</time>
      </trkpt>
      <trkpt lat="49.813" lon="4.86766">
        <ele>251</ele>
        <time>2021-07-31T08:20:25.000Z</time>
      </trkpt>
      <trkpt lat="49.81298" lon="4.86767">
        <ele>251</ele>
        <time>2021-07-31T08:20:26.000Z</time>
      </trkpt>
      <trkpt lat="49.81296" lon="4.86768">
        <ele>251</ele>
        <time>2021-07-31T08:20:27.000Z</time>
      </trkpt>
      <trkpt lat="49.81293" lon="4.86769">
        <ele>251</ele>
        <time>2021-07-31T08:20:28.000Z</time>
      </trkpt>
      <trkpt lat="49.81291" lon="4.8677">
        <ele>251</ele>
        <time>2021-07-31T08:20:29.000Z</time>
      </trkpt>
      <trkpt lat="49.81288" lon="4.86771">
        <ele>251</ele>
        <time>2021-07-31T08:20:30.000Z</time>
      </trkpt>
      <trkpt lat="49.81286" lon="4.86771">
        <ele>250</ele>
        <time>2021-07-31T08:20:31.000Z</time>
      </trkpt>
      <trkpt lat="49.81283" lon="4.86771">
        <ele>250</ele>
        <time>2021-07-31T08:20:32.000Z</time>
      </trkpt>
      <trkpt lat="49.81281" lon="4.86771">
        <ele>250</ele>
        <time>2021-07-31T08:20:33.000Z</time>
      </trkpt>
      <trkpt lat="49.81278" lon="4.86771">
        <ele>250</ele>
        <time>2021-07-31T08:20:34.000Z</time>
      </trkpt>
      <trkpt lat="49.81275" lon="4.86772">
        <ele>250</ele>
        <time>2021-07-31T08:20:35.000Z</time>
      </trkpt>
      <trkpt lat="49.81272" lon="4.86772">
        <ele>250</ele>
        <time>2021-07-31T08:20:36.000Z</time>
      </trkpt>
      <trkpt lat="49.8127" lon="4.86772">
        <ele>250</ele>
        <time>2021-07-31T08:20:37.000Z</time>
      </trkpt>
      <trkpt lat="49.81267" lon="4.86773">
        <ele>249</ele>
        <time>2021-07-31T08:20:38.000Z</time>
      </trkpt>
      <trkpt lat="49.81264" lon="4.86773">
        <ele>249</ele>
        <time>2021-07-31T08:20:39.000Z</time>
      </trkpt>
      <trkpt lat="49.81262" lon="4.86773">
        <ele>249</ele>
        <time>2021-07-31T08:20:40.000Z</time>
      </trkpt>
      <trkpt lat="49.81259" lon="4.86774">
        <ele>249</ele>
        <time>2021-07-31T08:20:41.000Z</time>
      </trkpt>
      <trkpt lat="49.81256" lon="4.86774">
        <ele>249</ele>
        <time>2021-07-31T08:20:42.000Z</time>
      </trkpt>
      <trkpt lat="49.81254" lon="4.86775">
        <ele>249</ele>
        <time>2021-07-31T08:20:43.000Z</time>
      </trkpt>
      <trkpt lat="49.81251" lon="4.86776">
        <ele>249</ele>
        <time>2021-07-31T08:20:44.000Z</time>
      </trkpt>
      <trkpt lat="49.81249" lon="4.86776">
        <ele>249</ele>
        <time>2021-07-31T08:20:45.000Z</time>
      </trkpt>
      <trkpt lat="49.81246" lon="4.86778">
        <ele>249</ele>
        <time>2021-07-31T08:20:46.000Z</time>
      </trkpt>
      <trkpt lat="49.81244" lon="4.86779">
        <ele>249</ele>
        <time>2021-07-31T08:20:47.000Z</time>
      </trkpt>
      <trkpt lat="49.81241" lon="4.8678">
        <ele>249</ele>
        <time>2021-07-31T08:20:48.000Z</time>
      </trkpt>
      <trkpt lat="49.81239" lon="4.86782">
        <ele>249</ele>
        <time>2021-07-31T08:20:49.000Z</time>
      </trkpt>
      <trkpt lat="49.81236" lon="4.86784">
        <ele>249</ele>
        <time>2021-07-31T08:20:50.000Z</time>
      </trkpt>
      <trkpt lat="49.81234" lon="4.86786">
        <ele>249</ele>
        <time>2021-07-31T08:20:51.000Z</time>
      </trkpt>
      <trkpt lat="49.81231" lon="4.86788">
        <ele>249</ele>
        <time>2021-07-31T08:20:52.000Z</time>
      </trkpt>
      <trkpt lat="49.81229" lon="4.86791">
        <ele>249</ele>
        <time>2021-07-31T08:20:53.000Z</time>
      </trkpt>
      <trkpt lat="49.81227" lon="4.86793">
        <ele>249</ele>
        <time>2021-07-31T08:20:54.000Z</time>
      </trkpt>
      <trkpt lat="49.81225" lon="4.86797">
        <ele>249</ele>
        <time>2021-07-31T08:20:55.000Z</time>
      </trkpt>
      <trkpt lat="49.81223" lon="4.868">
        <ele>249</ele>
        <time>2021-07-31T08:20:56.000Z</time>
      </trkpt>
      <trkpt lat="49.8122" lon="4.86805">
        <ele>249</ele>
        <time>2021-07-31T08:20:57.000Z</time>
      </trkpt>
      <trkpt lat="49.81218" lon="4.8681">
        <ele>249</ele>
        <time>2021-07-31T08:20:58.000Z</time>
      </trkpt>
      <trkpt lat="49.81215" lon="4.86815">
        <ele>249</ele>
        <time>2021-07-31T08:20:59.000Z</time>
      </trkpt>
      <trkpt lat="49.81212" lon="4.86821">
        <ele>249</ele>
        <time>2021-07-31T08:21:00.000Z</time>
      </trkpt>
      <trkpt lat="49.8121" lon="4.86827">
        <ele>249</ele>
        <time>2021-07-31T08:21:01.000Z</time>
      </trkpt>
      <trkpt lat="49.81207" lon="4.86832">
        <ele>249</ele>
        <time>2021-07-31T08:21:02.000Z</time>
      </trkpt>
      <trkpt lat="49.81205" lon="4.86838">
        <ele>250</ele>
        <time>2021-07-31T08:21:03.000Z</time>
      </trkpt>
      <trkpt lat="49.81202" lon="4.86843">
        <ele>250</ele>
        <time>2021-07-31T08:21:04.000Z</time>
      </trkpt>
      <trkpt lat="49.812" lon="4.86849">
        <ele>250</ele>
        <time>2021-07-31T08:21:05.000Z</time>
      </trkpt>
      <trkpt lat="49.81198" lon="4.86855">
        <ele>250</ele>
        <time>2021-07-31T08:21:06.000Z</time>
      </trkpt>
      <trkpt lat="49.81196" lon="4.86861">
        <ele>250</ele>
        <time>2021-07-31T08:21:07.000Z</time>
      </trkpt>
      <trkpt lat="49.81194" lon="4.86867">
        <ele>250</ele>
        <time>2021-07-31T08:21:08.000Z</time>
      </trkpt>
      <trkpt lat="49.81192" lon="4.86873">
        <ele>251</ele>
        <time>2021-07-31T08:21:09.000Z</time>
      </trkpt>
      <trkpt lat="49.81189" lon="4.86879">
        <ele>251</ele>
        <time>2021-07-31T08:21:10.000Z</time>
      </trkpt>
      <trkpt lat="49.81187" lon="4.86884">
        <ele>251</ele>
        <time>2021-07-31T08:21:11.000Z</time>
      </trkpt>
      <trkpt lat="49.81184" lon="4.86889">
        <ele>251</ele>
        <time>2021-07-31T08:21:12.000Z</time>
      </trkpt>
      <trkpt lat="49.81182" lon="4.86895">
        <ele>251</ele>
        <time>2021-07-31T08:21:13.000Z</time>
      </trkpt>
      <trkpt lat="49.8118" lon="4.86899">
        <ele>251</ele>
        <time>2021-07-31T08:21:14.000Z</time>
      </trkpt>
      <trkpt lat="49.81178" lon="4.86903">
        <ele>252</ele>
        <time>2021-07-31T08:21:15.000Z</time>
      </trkpt>
      <trkpt lat="49.81176" lon="4.86907">
        <ele>252</ele>
        <time>2021-07-31T08:21:16.000Z</time>
      </trkpt>
      <trkpt lat="49.81174" lon="4.8691">
        <ele>252</ele>
        <time>2021-07-31T08:21:17.000Z</time>
      </trkpt>
      <trkpt lat="49.81172" lon="4.86914">
        <ele>252</ele>
        <time>2021-07-31T08:21:18.000Z</time>
      </trkpt>
      <trkpt lat="49.8117" lon="4.86918">
        <ele>252</ele>
        <time>2021-07-31T08:21:19.000Z</time>
      </trkpt>
      <trkpt lat="49.81168" lon="4.86922">
        <ele>253</ele>
        <time>2021-07-31T08:21:20.000Z</time>
      </trkpt>
      <trkpt lat="49.81166" lon="4.86926">
        <ele>253</ele>
        <time>2021-07-31T08:21:21.000Z</time>
      </trkpt>
      <trkpt lat="49.81164" lon="4.8693">
        <ele>253</ele>
        <time>2021-07-31T08:21:22.000Z</time>
      </trkpt>
      <trkpt lat="49.81162" lon="4.86934">
        <ele>253</ele>
        <time>2021-07-31T08:21:23.000Z</time>
      </trkpt>
      <trkpt lat="49.8116" lon="4.86937">
        <ele>253</ele>
        <time>2021-07-31T08:21:24.000Z</time>
      </trkpt>
      <trkpt lat="49.81158" lon="4.86941">
        <ele>254</ele>
        <time>2021-07-31T08:21:25.000Z</time>
      </trkpt>
      <trkpt lat="49.81156" lon="4.86945">
        <ele>254</ele>
        <time>2021-07-31T08:21:26.000Z</time>
      </trkpt>
      <trkpt lat="49.81154" lon="4.86949">
        <ele>254</ele>
        <time>2021-07-31T08:21:27.000Z</time>
      </trkpt>
      <trkpt lat="49.81153" lon="4.86953">
        <ele>254</ele>
        <time>2021-07-31T08:21:28.000Z</time>
      </trkpt>
      <trkpt lat="49.81151" lon="4.86957">
        <ele>254</ele>
        <time>2021-07-31T08:21:29.000Z</time>
      </trkpt>
      <trkpt lat="49.81148" lon="4.86961">
        <ele>255</ele>
        <time>2021-07-31T08:21:30.000Z</time>
      </trkpt>
      <trkpt lat="49.81147" lon="4.86965">
        <ele>255</ele>
        <time>2021-07-31T08:21:31.000Z</time>
      </trkpt>
      <trkpt lat="49.81145" lon="4.8697">
        <ele>255</ele>
        <time>2021-07-31T08:21:32.000Z</time>
      </trkpt>
      <trkpt lat="49.81143" lon="4.86974">
        <ele>255</ele>
        <time>2021-07-31T08:21:33.000Z</time>
      </trkpt>
      <trkpt lat="49.81141" lon="4.86978">
        <ele>255</ele>
        <time>2021-07-31T08:21:34.000Z</time>
      </trkpt>
      <trkpt lat="49.8114" lon="4.86981">
        <ele>256</ele>
        <time>2021-07-31T08:21:35.000Z</time>
      </trkpt>
      <trkpt lat="49.81139" lon="4.86985">
        <ele>256</ele>
        <time>2021-07-31T08:21:36.000Z</time>
      </trkpt>
      <trkpt lat="49.81137" lon="4.86986">
        <ele>256</ele>
        <time>2021-07-31T08:21:37.000Z</time>
      </trkpt>
      <trkpt lat="49.81135" lon="4.86985">
        <ele>256</ele>
        <time>2021-07-31T08:21:38.000Z</time>
      </trkpt>
      <trkpt lat="49.81133" lon="4.86983">
        <ele>257</ele>
        <time>2021-07-31T08:21:39.000Z</time>
      </trkpt>
      <trkpt lat="49.8113" lon="4.86982">
        <ele>257</ele>
        <time>2021-07-31T08:21:40.000Z</time>
      </trkpt>
      <trkpt lat="49.81128" lon="4.86982">
        <ele>257</ele>
        <time>2021-07-31T08:21:41.000Z</time>
      </trkpt>
      <trkpt lat="49.81126" lon="4.86983">
        <ele>257</ele>
        <time>2021-07-31T08:21:42.000Z</time>
      </trkpt>
      <trkpt lat="49.81124" lon="4.86984">
        <ele>258</ele>
        <time>2021-07-31T08:21:43.000Z</time>
      </trkpt>
      <trkpt lat="49.81122" lon="4.86986">
        <ele>258</ele>
        <time>2021-07-31T08:21:44.000Z</time>
      </trkpt>
      <trkpt lat="49.8112" lon="4.86988">
        <ele>258</ele>
        <time>2021-07-31T08:21:45.000Z</time>
      </trkpt>
      <trkpt lat="49.81119" lon="4.86992">
        <ele>258</ele>
        <time>2021-07-31T08:21:46.000Z</time>
      </trkpt>
      <trkpt lat="49.81117" lon="4.86995">
        <ele>258</ele>
        <time>2021-07-31T08:21:47.000Z</time>
      </trkpt>
      <trkpt lat="49.81116" lon="4.86999">
        <ele>259</ele>
        <time>2021-07-31T08:21:48.000Z</time>
      </trkpt>
      <trkpt lat="49.81114" lon="4.87004">
        <ele>259</ele>
        <time>2021-07-31T08:21:49.000Z</time>
      </trkpt>
      <trkpt lat="49.81113" lon="4.87008">
        <ele>259</ele>
        <time>2021-07-31T08:21:50.000Z</time>
      </trkpt>
      <trkpt lat="49.81112" lon="4.87012">
        <ele>259</ele>
        <time>2021-07-31T08:21:51.000Z</time>
      </trkpt>
      <trkpt lat="49.8111" lon="4.87016">
        <ele>259</ele>
        <time>2021-07-31T08:21:52.000Z</time>
      </trkpt>
      <trkpt lat="49.81108" lon="4.8702">
        <ele>259</ele>
        <time>2021-07-31T08:21:53.000Z</time>
      </trkpt>
      <trkpt lat="49.81106" lon="4.87023">
        <ele>259</ele>
        <time>2021-07-31T08:21:54.000Z</time>
      </trkpt>
      <trkpt lat="49.81104" lon="4.87026">
        <ele>259</ele>
        <time>2021-07-31T08:21:55.000Z</time>
      </trkpt>
      <trkpt lat="49.81101" lon="4.87029">
        <ele>260</ele>
        <time>2021-07-31T08:21:56.000Z</time>
      </trkpt>
      <trkpt lat="49.81099" lon="4.87031">
        <ele>260</ele>
        <time>2021-07-31T08:21:57.000Z</time>
      </trkpt>
      <trkpt lat="49.81097" lon="4.87034">
        <ele>260</ele>
        <time>2021-07-31T08:21:58.000Z</time>
      </trkpt>
      <trkpt lat="49.81095" lon="4.87036">
        <ele>260</ele>
        <time>2021-07-31T08:21:59.000Z</time>
      </trkpt>
      <trkpt lat="49.81093" lon="4.87038">
        <ele>260</ele>
        <time>2021-07-31T08:22:00.000Z</time>
      </trkpt>
      <trkpt lat="49.81091" lon="4.8704">
        <ele>261</ele>
        <time>2021-07-31T08:22:01.000Z</time>
      </trkpt>
      <trkpt lat="49.81089" lon="4.87042">
        <ele>261</ele>
        <time>2021-07-31T08:22:02.000Z</time>
      </trkpt>
      <trkpt lat="49.81087" lon="4.87044">
        <ele>261</ele>
        <time>2021-07-31T08:22:03.000Z</time>
      </trkpt>
      <trkpt lat="49.81085" lon="4.87047">
        <ele>261</ele>
        <time>2021-07-31T08:22:04.000Z</time>
      </trkpt>
      <trkpt lat="49.81083" lon="4.8705">
        <ele>262</ele>
        <time>2021-07-31T08:22:05.000Z</time>
      </trkpt>
      <trkpt lat="49.81081" lon="4.87052">
        <ele>262</ele>
        <time>2021-07-31T08:22:06.000Z</time>
      </trkpt>
      <trkpt lat="49.81079" lon="4.87055">
        <ele>262</ele>
        <time>2021-07-31T08:22:07.000Z</time>
      </trkpt>
      <trkpt lat="49.81077" lon="4.87057">
        <ele>262</ele>
        <time>2021-07-31T08:22:08.000Z</time>
      </trkpt>
      <trkpt lat="49.81075" lon="4.87059">
        <ele>262</ele>
        <time>2021-07-31T08:22:09.000Z</time>
      </trkpt>
      <trkpt lat="49.81073" lon="4.87061">
        <ele>262</ele>
        <time>2021-07-31T08:22:10.000Z</time>
      </trkpt>
      <trkpt lat="49.81071" lon="4.87064">
        <ele>262</ele>
        <time>2021-07-31T08:22:11.000Z</time>
      </trkpt>
      <trkpt lat="49.81069" lon="4.87067">
        <ele>263</ele>
        <time>2021-07-31T08:22:12.000Z</time>
      </trkpt>
      <trkpt lat="49.81067" lon="4.87069">
        <ele>263</ele>
        <time>2021-07-31T08:22:13.000Z</time>
      </trkpt>
      <trkpt lat="49.81065" lon="4.87071">
        <ele>263</ele>
        <time>2021-07-31T08:22:14.000Z</time>
      </trkpt>
      <trkpt lat="49.81064" lon="4.87073">
        <ele>263</ele>
        <time>2021-07-31T08:22:15.000Z</time>
      </trkpt>
      <trkpt lat="49.81062" lon="4.87076">
        <ele>264</ele>
        <time>2021-07-31T08:22:16.000Z</time>
      </trkpt>
      <trkpt lat="49.8106" lon="4.87078">
        <ele>264</ele>
        <time>2021-07-31T08:22:17.000Z</time>
      </trkpt>
      <trkpt lat="49.81058" lon="4.8708">
        <ele>264</ele>
        <time>2021-07-31T08:22:18.000Z</time>
      </trkpt>
      <trkpt lat="49.81056" lon="4.87082">
        <ele>265</ele>
        <time>2021-07-31T08:22:19.000Z</time>
      </trkpt>
      <trkpt lat="49.81054" lon="4.87084">
        <ele>265</ele>
        <time>2021-07-31T08:22:20.000Z</time>
      </trkpt>
      <trkpt lat="49.81052" lon="4.87086">
        <ele>265</ele>
        <time>2021-07-31T08:22:21.000Z</time>
      </trkpt>
      <trkpt lat="49.8105" lon="4.87088">
        <ele>266</ele>
        <time>2021-07-31T08:22:22.000Z</time>
      </trkpt>
      <trkpt lat="49.81048" lon="4.8709">
        <ele>266</ele>
        <time>2021-07-31T08:22:23.000Z</time>
      </trkpt>
      <trkpt lat="49.81046" lon="4.87093">
        <ele>266</ele>
        <time>2021-07-31T08:22:24.000Z</time>
      </trkpt>
      <trkpt lat="49.81044" lon="4.87095">
        <ele>267</ele>
        <time>2021-07-31T08:22:25.000Z</time>
      </trkpt>
      <trkpt lat="49.81042" lon="4.87097">
        <ele>267</ele>
        <time>2021-07-31T08:22:26.000Z</time>
      </trkpt>
      <trkpt lat="49.8104" lon="4.87099">
        <ele>267</ele>
        <time>2021-07-31T08:22:27.000Z</time>
      </trkpt>
      <trkpt lat="49.81038" lon="4.87101">
        <ele>267</ele>
        <time>2021-07-31T08:22:28.000Z</time>
      </trkpt>
      <trkpt lat="49.81036" lon="4.87103">
        <ele>268</ele>
        <time>2021-07-31T08:22:29.000Z</time>
      </trkpt>
      <trkpt lat="49.81034" lon="4.87105">
        <ele>268</ele>
        <time>2021-07-31T08:22:30.000Z</time>
      </trkpt>
      <trkpt lat="49.81033" lon="4.87108">
        <ele>268</ele>
        <time>2021-07-31T08:22:31.000Z</time>
      </trkpt>
      <trkpt lat="49.81031" lon="4.8711">
        <ele>268</ele>
        <time>2021-07-31T08:22:32.000Z</time>
      </trkpt>
      <trkpt lat="49.81029" lon="4.87113">
        <ele>268</ele>
        <time>2021-07-31T08:22:33.000Z</time>
      </trkpt>
      <trkpt lat="49.81027" lon="4.87115">
        <ele>269</ele>
        <time>2021-07-31T08:22:34.000Z</time>
      </trkpt>
      <trkpt lat="49.81025" lon="4.87117">
        <ele>269</ele>
        <time>2021-07-31T08:22:35.000Z</time>
      </trkpt>
      <trkpt lat="49.81024" lon="4.8712">
        <ele>269</ele>
        <time>2021-07-31T08:22:36.000Z</time>
      </trkpt>
      <trkpt lat="49.81022" lon="4.87123">
        <ele>269</ele>
        <time>2021-07-31T08:22:37.000Z</time>
      </trkpt>
      <trkpt lat="49.81021" lon="4.87126">
        <ele>269</ele>
        <time>2021-07-31T08:22:38.000Z</time>
      </trkpt>
      <trkpt lat="49.81019" lon="4.87129">
        <ele>270</ele>
        <time>2021-07-31T08:22:39.000Z</time>
      </trkpt>
      <trkpt lat="49.81017" lon="4.87132">
        <ele>270</ele>
        <time>2021-07-31T08:22:40.000Z</time>
      </trkpt>
      <trkpt lat="49.81015" lon="4.87134">
        <ele>270</ele>
        <time>2021-07-31T08:22:41.000Z</time>
      </trkpt>
      <trkpt lat="49.81014" lon="4.87137">
        <ele>270</ele>
        <time>2021-07-31T08:22:42.000Z</time>
      </trkpt>
      <trkpt lat="49.81012" lon="4.87139">
        <ele>270</ele>
        <time>2021-07-31T08:22:43.000Z</time>
      </trkpt>
      <trkpt lat="49.8101" lon="4.87141">
        <ele>270</ele>
        <time>2021-07-31T08:22:44.000Z</time>
      </trkpt>
      <trkpt lat="49.81008" lon="4.87143">
        <ele>270</ele>
        <time>2021-07-31T08:22:45.000Z</time>
      </trkpt>
      <trkpt lat="49.81005" lon="4.87144">
        <ele>271</ele>
        <time>2021-07-31T08:22:46.000Z</time>
      </trkpt>
      <trkpt lat="49.81003" lon="4.87144">
        <ele>271</ele>
        <time>2021-07-31T08:22:47.000Z</time>
      </trkpt>
      <trkpt lat="49.81001" lon="4.87144">
        <ele>271</ele>
        <time>2021-07-31T08:22:48.000Z</time>
      </trkpt>
      <trkpt lat="49.80998" lon="4.87144">
        <ele>271</ele>
        <time>2021-07-31T08:22:49.000Z</time>
      </trkpt>
      <trkpt lat="49.80995" lon="4.87143">
        <ele>272</ele>
        <time>2021-07-31T08:22:50.000Z</time>
      </trkpt>
      <trkpt lat="49.80992" lon="4.87143">
        <ele>272</ele>
        <time>2021-07-31T08:22:51.000Z</time>
      </trkpt>
      <trkpt lat="49.80989" lon="4.87143">
        <ele>272</ele>
        <time>2021-07-31T08:22:52.000Z</time>
      </trkpt>
      <trkpt lat="49.80986" lon="4.87143">
        <ele>273</ele>
        <time>2021-07-31T08:22:53.000Z</time>
      </trkpt>
      <trkpt lat="49.80984" lon="4.87145">
        <ele>273</ele>
        <time>2021-07-31T08:22:54.000Z</time>
      </trkpt>
      <trkpt lat="49.80982" lon="4.87148">
        <ele>273</ele>
        <time>2021-07-31T08:22:55.000Z</time>
      </trkpt>
      <trkpt lat="49.80979" lon="4.87151">
        <ele>273</ele>
        <time>2021-07-31T08:22:56.000Z</time>
      </trkpt>
      <trkpt lat="49.80977" lon="4.87154">
        <ele>274</ele>
        <time>2021-07-31T08:22:57.000Z</time>
      </trkpt>
      <trkpt lat="49.80975" lon="4.87157">
        <ele>274</ele>
        <time>2021-07-31T08:22:58.000Z</time>
      </trkpt>
      <trkpt lat="49.80974" lon="4.87161">
        <ele>274</ele>
        <time>2021-07-31T08:22:59.000Z</time>
      </trkpt>
      <trkpt lat="49.80972" lon="4.87164">
        <ele>274</ele>
        <time>2021-07-31T08:23:00.000Z</time>
      </trkpt>
      <trkpt lat="49.8097" lon="4.87167">
        <ele>275</ele>
        <time>2021-07-31T08:23:01.000Z</time>
      </trkpt>
      <trkpt lat="49.80968" lon="4.8717">
        <ele>275</ele>
        <time>2021-07-31T08:23:02.000Z</time>
      </trkpt>
      <trkpt lat="49.80966" lon="4.87174">
        <ele>275</ele>
        <time>2021-07-31T08:23:03.000Z</time>
      </trkpt>
      <trkpt lat="49.80964" lon="4.87177">
        <ele>275</ele>
        <time>2021-07-31T08:23:04.000Z</time>
      </trkpt>
      <trkpt lat="49.80962" lon="4.8718">
        <ele>276</ele>
        <time>2021-07-31T08:23:05.000Z</time>
      </trkpt>
      <trkpt lat="49.8096" lon="4.87182">
        <ele>276</ele>
        <time>2021-07-31T08:23:06.000Z</time>
      </trkpt>
      <trkpt lat="49.80958" lon="4.87184">
        <ele>276</ele>
        <time>2021-07-31T08:23:07.000Z</time>
      </trkpt>
      <trkpt lat="49.80956" lon="4.87187">
        <ele>276</ele>
        <time>2021-07-31T08:23:08.000Z</time>
      </trkpt>
      <trkpt lat="49.80953" lon="4.87189">
        <ele>276</ele>
        <time>2021-07-31T08:23:09.000Z</time>
      </trkpt>
      <trkpt lat="49.80951" lon="4.87192">
        <ele>277</ele>
        <time>2021-07-31T08:23:10.000Z</time>
      </trkpt>
      <trkpt lat="49.80949" lon="4.87194">
        <ele>277</ele>
        <time>2021-07-31T08:23:11.000Z</time>
      </trkpt>
      <trkpt lat="49.80947" lon="4.87197">
        <ele>277</ele>
        <time>2021-07-31T08:23:12.000Z</time>
      </trkpt>
      <trkpt lat="49.80944" lon="4.87199">
        <ele>277</ele>
        <time>2021-07-31T08:23:13.000Z</time>
      </trkpt>
      <trkpt lat="49.80942" lon="4.87201">
        <ele>278</ele>
        <time>2021-07-31T08:23:14.000Z</time>
      </trkpt>
      <trkpt lat="49.8094" lon="4.87203">
        <ele>278</ele>
        <time>2021-07-31T08:23:15.000Z</time>
      </trkpt>
      <trkpt lat="49.80938" lon="4.87205">
        <ele>278</ele>
        <time>2021-07-31T08:23:16.000Z</time>
      </trkpt>
      <trkpt lat="49.80935" lon="4.87208">
        <ele>278</ele>
        <time>2021-07-31T08:23:17.000Z</time>
      </trkpt>
      <trkpt lat="49.80933" lon="4.87209">
        <ele>279</ele>
        <time>2021-07-31T08:23:18.000Z</time>
      </trkpt>
      <trkpt lat="49.80931" lon="4.87211">
        <ele>279</ele>
        <time>2021-07-31T08:23:19.000Z</time>
      </trkpt>
      <trkpt lat="49.80929" lon="4.87214">
        <ele>279</ele>
        <time>2021-07-31T08:23:20.000Z</time>
      </trkpt>
      <trkpt lat="49.80926" lon="4.87216">
        <ele>279</ele>
        <time>2021-07-31T08:23:21.000Z</time>
      </trkpt>
      <trkpt lat="49.80924" lon="4.87217">
        <ele>279</ele>
        <time>2021-07-31T08:23:22.000Z</time>
      </trkpt>
      <trkpt lat="49.80922" lon="4.87218">
        <ele>280</ele>
        <time>2021-07-31T08:23:23.000Z</time>
      </trkpt>
      <trkpt lat="49.8092" lon="4.8722">
        <ele>280</ele>
        <time>2021-07-31T08:23:24.000Z</time>
      </trkpt>
      <trkpt lat="49.80918" lon="4.87222">
        <ele>280</ele>
        <time>2021-07-31T08:23:25.000Z</time>
      </trkpt>
      <trkpt lat="49.80916" lon="4.87224">
        <ele>280</ele>
        <time>2021-07-31T08:23:26.000Z</time>
      </trkpt>
      <trkpt lat="49.80914" lon="4.87226">
        <ele>280</ele>
        <time>2021-07-31T08:23:27.000Z</time>
      </trkpt>
      <trkpt lat="49.80911" lon="4.87227">
        <ele>280</ele>
        <time>2021-07-31T08:23:28.000Z</time>
      </trkpt>
      <trkpt lat="49.80909" lon="4.8723">
        <ele>280</ele>
        <time>2021-07-31T08:23:29.000Z</time>
      </trkpt>
      <trkpt lat="49.80907" lon="4.87232">
        <ele>280</ele>
        <time>2021-07-31T08:23:30.000Z</time>
      </trkpt>
      <trkpt lat="49.80905" lon="4.87234">
        <ele>280</ele>
        <time>2021-07-31T08:23:31.000Z</time>
      </trkpt>
      <trkpt lat="49.80903" lon="4.87236">
        <ele>280</ele>
        <time>2021-07-31T08:23:32.000Z</time>
      </trkpt>
      <trkpt lat="49.80901" lon="4.87238">
        <ele>280</ele>
        <time>2021-07-31T08:23:33.000Z</time>
      </trkpt>
      <trkpt lat="49.80899" lon="4.8724">
        <ele>281</ele>
        <time>2021-07-31T08:23:34.000Z</time>
      </trkpt>
      <trkpt lat="49.80897" lon="4.87242">
        <ele>281</ele>
        <time>2021-07-31T08:23:35.000Z</time>
      </trkpt>
      <trkpt lat="49.80895" lon="4.87244">
        <ele>281</ele>
        <time>2021-07-31T08:23:36.000Z</time>
      </trkpt>
      <trkpt lat="49.80893" lon="4.87246">
        <ele>281</ele>
        <time>2021-07-31T08:23:37.000Z</time>
      </trkpt>
      <trkpt lat="49.80891" lon="4.87248">
        <ele>281</ele>
        <time>2021-07-31T08:23:38.000Z</time>
      </trkpt>
      <trkpt lat="49.80889" lon="4.8725">
        <ele>282</ele>
        <time>2021-07-31T08:23:39.000Z</time>
      </trkpt>
      <trkpt lat="49.80887" lon="4.87253">
        <ele>282</ele>
        <time>2021-07-31T08:23:40.000Z</time>
      </trkpt>
      <trkpt lat="49.80885" lon="4.87255">
        <ele>282</ele>
        <time>2021-07-31T08:23:41.000Z</time>
      </trkpt>
      <trkpt lat="49.80883" lon="4.87257">
        <ele>283</ele>
        <time>2021-07-31T08:23:42.000Z</time>
      </trkpt>
      <trkpt lat="49.80881" lon="4.87259">
        <ele>283</ele>
        <time>2021-07-31T08:23:43.000Z</time>
      </trkpt>
      <trkpt lat="49.80879" lon="4.87261">
        <ele>283</ele>
        <time>2021-07-31T08:23:44.000Z</time>
      </trkpt>
      <trkpt lat="49.80877" lon="4.87263">
        <ele>283</ele>
        <time>2021-07-31T08:23:45.000Z</time>
      </trkpt>
      <trkpt lat="49.80875" lon="4.87265">
        <ele>284</ele>
        <time>2021-07-31T08:23:46.000Z</time>
      </trkpt>
      <trkpt lat="49.80873" lon="4.87267">
        <ele>284</ele>
        <time>2021-07-31T08:23:47.000Z</time>
      </trkpt>
      <trkpt lat="49.80871" lon="4.8727">
        <ele>284</ele>
        <time>2021-07-31T08:23:48.000Z</time>
      </trkpt>
      <trkpt lat="49.80869" lon="4.87272">
        <ele>284</ele>
        <time>2021-07-31T08:23:49.000Z</time>
      </trkpt>
      <trkpt lat="49.80867" lon="4.87274">
        <ele>285</ele>
        <time>2021-07-31T08:23:50.000Z</time>
      </trkpt>
      <trkpt lat="49.80865" lon="4.87276">
        <ele>285</ele>
        <time>2021-07-31T08:23:51.000Z</time>
      </trkpt>
      <trkpt lat="49.80863" lon="4.87278">
        <ele>286</ele>
        <time>2021-07-31T08:23:52.000Z</time>
      </trkpt>
      <trkpt lat="49.80861" lon="4.8728">
        <ele>286</ele>
        <time>2021-07-31T08:23:53.000Z</time>
      </trkpt>
      <trkpt lat="49.80858" lon="4.87282">
        <ele>286</ele>
        <time>2021-07-31T08:23:54.000Z</time>
      </trkpt>
      <trkpt lat="49.80857" lon="4.87285">
        <ele>286</ele>
        <time>2021-07-31T08:23:55.000Z</time>
      </trkpt>
      <trkpt lat="49.80855" lon="4.87287">
        <ele>287</ele>
        <time>2021-07-31T08:23:56.000Z</time>
      </trkpt>
      <trkpt lat="49.80853" lon="4.87289">
        <ele>287</ele>
        <time>2021-07-31T08:23:57.000Z</time>
      </trkpt>
      <trkpt lat="49.80851" lon="4.87292">
        <ele>287</ele>
        <time>2021-07-31T08:23:58.000Z</time>
      </trkpt>
      <trkpt lat="49.80849" lon="4.87294">
        <ele>287</ele>
        <time>2021-07-31T08:23:59.000Z</time>
      </trkpt>
      <trkpt lat="49.80847" lon="4.87296">
        <ele>287</ele>
        <time>2021-07-31T08:24:00.000Z</time>
      </trkpt>
      <trkpt lat="49.80845" lon="4.87299">
        <ele>287</ele>
        <time>2021-07-31T08:24:01.000Z</time>
      </trkpt>
      <trkpt lat="49.80843" lon="4.87301">
        <ele>287</ele>
        <time>2021-07-31T08:24:02.000Z</time>
      </trkpt>
      <trkpt lat="49.80842" lon="4.87304">
        <ele>288</ele>
        <time>2021-07-31T08:24:03.000Z</time>
      </trkpt>
      <trkpt lat="49.8084" lon="4.87307">
        <ele>288</ele>
        <time>2021-07-31T08:24:04.000Z</time>
      </trkpt>
      <trkpt lat="49.80839" lon="4.8731">
        <ele>288</ele>
        <time>2021-07-31T08:24:05.000Z</time>
      </trkpt>
      <trkpt lat="49.80837" lon="4.87313">
        <ele>288</ele>
        <time>2021-07-31T08:24:06.000Z</time>
      </trkpt>
      <trkpt lat="49.80836" lon="4.87315">
        <ele>288</ele>
        <time>2021-07-31T08:24:07.000Z</time>
      </trkpt>
      <trkpt lat="49.80834" lon="4.87318">
        <ele>288</ele>
        <time>2021-07-31T08:24:08.000Z</time>
      </trkpt>
      <trkpt lat="49.80832" lon="4.87321">
        <ele>288</ele>
        <time>2021-07-31T08:24:09.000Z</time>
      </trkpt>
      <trkpt lat="49.80831" lon="4.87324">
        <ele>288</ele>
        <time>2021-07-31T08:24:10.000Z</time>
      </trkpt>
      <trkpt lat="49.8083" lon="4.87327">
        <ele>288</ele>
        <time>2021-07-31T08:24:11.000Z</time>
      </trkpt>
      <trkpt lat="49.80828" lon="4.87331">
        <ele>289</ele>
        <time>2021-07-31T08:24:12.000Z</time>
      </trkpt>
      <trkpt lat="49.80827" lon="4.87334">
        <ele>289</ele>
        <time>2021-07-31T08:24:13.000Z</time>
      </trkpt>
      <trkpt lat="49.80825" lon="4.87338">
        <ele>289</ele>
        <time>2021-07-31T08:24:14.000Z</time>
      </trkpt>
      <trkpt lat="49.80824" lon="4.87341">
        <ele>289</ele>
        <time>2021-07-31T08:24:15.000Z</time>
      </trkpt>
      <trkpt lat="49.80823" lon="4.87344">
        <ele>290</ele>
        <time>2021-07-31T08:24:16.000Z</time>
      </trkpt>
      <trkpt lat="49.80822" lon="4.87348">
        <ele>290</ele>
        <time>2021-07-31T08:24:17.000Z</time>
      </trkpt>
      <trkpt lat="49.8082" lon="4.87351">
        <ele>290</ele>
        <time>2021-07-31T08:24:18.000Z</time>
      </trkpt>
      <trkpt lat="49.8082" lon="4.87355">
        <ele>290</ele>
        <time>2021-07-31T08:24:19.000Z</time>
      </trkpt>
      <trkpt lat="49.80819" lon="4.87359">
        <ele>291</ele>
        <time>2021-07-31T08:24:20.000Z</time>
      </trkpt>
      <trkpt lat="49.80818" lon="4.87363">
        <ele>291</ele>
        <time>2021-07-31T08:24:21.000Z</time>
      </trkpt>
      <trkpt lat="49.80818" lon="4.87367">
        <ele>291</ele>
        <time>2021-07-31T08:24:22.000Z</time>
      </trkpt>
      <trkpt lat="49.80817" lon="4.87371">
        <ele>291</ele>
        <time>2021-07-31T08:24:23.000Z</time>
      </trkpt>
      <trkpt lat="49.80816" lon="4.87375">
        <ele>292</ele>
        <time>2021-07-31T08:24:24.000Z</time>
      </trkpt>
      <trkpt lat="49.80815" lon="4.87379">
        <ele>292</ele>
        <time>2021-07-31T08:24:25.000Z</time>
      </trkpt>
      <trkpt lat="49.80814" lon="4.87383">
        <ele>292</ele>
        <time>2021-07-31T08:24:26.000Z</time>
      </trkpt>
      <trkpt lat="49.80813" lon="4.87387">
        <ele>293</ele>
        <time>2021-07-31T08:24:27.000Z</time>
      </trkpt>
      <trkpt lat="49.80813" lon="4.87391">
        <ele>293</ele>
        <time>2021-07-31T08:24:28.000Z</time>
      </trkpt>
      <trkpt lat="49.80812" lon="4.87395">
        <ele>293</ele>
        <time>2021-07-31T08:24:29.000Z</time>
      </trkpt>
      <trkpt lat="49.80811" lon="4.87398">
        <ele>294</ele>
        <time>2021-07-31T08:24:30.000Z</time>
      </trkpt>
      <trkpt lat="49.80811" lon="4.87401">
        <ele>294</ele>
        <time>2021-07-31T08:24:31.000Z</time>
      </trkpt>
      <trkpt lat="49.80811" lon="4.87405">
        <ele>294</ele>
        <time>2021-07-31T08:24:32.000Z</time>
      </trkpt>
      <trkpt lat="49.80811" lon="4.87408">
        <ele>295</ele>
        <time>2021-07-31T08:24:33.000Z</time>
      </trkpt>
      <trkpt lat="49.8081" lon="4.87412">
        <ele>295</ele>
        <time>2021-07-31T08:24:34.000Z</time>
      </trkpt>
      <trkpt lat="49.8081" lon="4.87416">
        <ele>295</ele>
        <time>2021-07-31T08:24:35.000Z</time>
      </trkpt>
      <trkpt lat="49.80809" lon="4.8742">
        <ele>295</ele>
        <time>2021-07-31T08:24:36.000Z</time>
      </trkpt>
      <trkpt lat="49.80809" lon="4.87423">
        <ele>296</ele>
        <time>2021-07-31T08:24:37.000Z</time>
      </trkpt>
      <trkpt lat="49.80809" lon="4.87427">
        <ele>296</ele>
        <time>2021-07-31T08:24:38.000Z</time>
      </trkpt>
      <trkpt lat="49.80809" lon="4.87431">
        <ele>296</ele>
        <time>2021-07-31T08:24:39.000Z</time>
      </trkpt>
      <trkpt lat="49.80808" lon="4.87434">
        <ele>296</ele>
        <time>2021-07-31T08:24:40.000Z</time>
      </trkpt>
      <trkpt lat="49.80808" lon="4.87438">
        <ele>297</ele>
        <time>2021-07-31T08:24:41.000Z</time>
      </trkpt>
      <trkpt lat="49.80808" lon="4.87442">
        <ele>297</ele>
        <time>2021-07-31T08:24:42.000Z</time>
      </trkpt>
      <trkpt lat="49.80808" lon="4.87446">
        <ele>297</ele>
        <time>2021-07-31T08:24:43.000Z</time>
      </trkpt>
      <trkpt lat="49.80807" lon="4.87449">
        <ele>297</ele>
        <time>2021-07-31T08:24:44.000Z</time>
      </trkpt>
      <trkpt lat="49.80806" lon="4.87452">
        <ele>298</ele>
        <time>2021-07-31T08:24:45.000Z</time>
      </trkpt>
      <trkpt lat="49.80806" lon="4.87456">
        <ele>298</ele>
        <time>2021-07-31T08:24:46.000Z</time>
      </trkpt>
      <trkpt lat="49.80805" lon="4.87459">
        <ele>298</ele>
        <time>2021-07-31T08:24:47.000Z</time>
      </trkpt>
      <trkpt lat="49.80804" lon="4.87462">
        <ele>298</ele>
        <time>2021-07-31T08:24:48.000Z</time>
      </trkpt>
      <trkpt lat="49.80804" lon="4.87466">
        <ele>298</ele>
        <time>2021-07-31T08:24:49.000Z</time>
      </trkpt>
      <trkpt lat="49.80803" lon="4.87469">
        <ele>298</ele>
        <time>2021-07-31T08:24:50.000Z</time>
      </trkpt>
      <trkpt lat="49.80802" lon="4.87473">
        <ele>299</ele>
        <time>2021-07-31T08:24:51.000Z</time>
      </trkpt>
      <trkpt lat="49.80801" lon="4.87476">
        <ele>299</ele>
        <time>2021-07-31T08:24:52.000Z</time>
      </trkpt>
      <trkpt lat="49.808" lon="4.87479">
        <ele>299</ele>
        <time>2021-07-31T08:24:53.000Z</time>
      </trkpt>
      <trkpt lat="49.80799" lon="4.87482">
        <ele>299</ele>
        <time>2021-07-31T08:24:54.000Z</time>
      </trkpt>
      <trkpt lat="49.80798" lon="4.87486">
        <ele>300</ele>
        <time>2021-07-31T08:24:55.000Z</time>
      </trkpt>
      <trkpt lat="49.80797" lon="4.87489">
        <ele>300</ele>
        <time>2021-07-31T08:24:56.000Z</time>
      </trkpt>
      <trkpt lat="49.80795" lon="4.87492">
        <ele>300</ele>
        <time>2021-07-31T08:24:57.000Z</time>
      </trkpt>
      <trkpt lat="49.80794" lon="4.87494">
        <ele>300</ele>
        <time>2021-07-31T08:24:58.000Z</time>
      </trkpt>
      <trkpt lat="49.80792" lon="4.87497">
        <ele>300</ele>
        <time>2021-07-31T08:24:59.000Z</time>
      </trkpt>
      <trkpt lat="49.80791" lon="4.87499">
        <ele>300</ele>
        <time>2021-07-31T08:25:00.000Z</time>
      </trkpt>
      <trkpt lat="49.80789" lon="4.87501">
        <ele>300</ele>
        <time>2021-07-31T08:25:01.000Z</time>
      </trkpt>
      <trkpt lat="49.80787" lon="4.87503">
        <ele>301</ele>
        <time>2021-07-31T08:25:02.000Z</time>
      </trkpt>
      <trkpt lat="49.80785" lon="4.87505">
        <ele>301</ele>
        <time>2021-07-31T08:25:03.000Z</time>
      </trkpt>
      <trkpt lat="49.80783" lon="4.87506">
        <ele>301</ele>
        <time>2021-07-31T08:25:04.000Z</time>
      </trkpt>
      <trkpt lat="49.80781" lon="4.87508">
        <ele>301</ele>
        <time>2021-07-31T08:25:05.000Z</time>
      </trkpt>
      <trkpt lat="49.80779" lon="4.87509">
        <ele>301</ele>
        <time>2021-07-31T08:25:06.000Z</time>
      </trkpt>
      <trkpt lat="49.80777" lon="4.8751">
        <ele>301</ele>
        <time>2021-07-31T08:25:07.000Z</time>
      </trkpt>
      <trkpt lat="49.80775" lon="4.87511">
        <ele>302</ele>
        <time>2021-07-31T08:25:08.000Z</time>
      </trkpt>
      <trkpt lat="49.80773" lon="4.87512">
        <ele>302</ele>
        <time>2021-07-31T08:25:09.000Z</time>
      </trkpt>
      <trkpt lat="49.80771" lon="4.87513">
        <ele>302</ele>
        <time>2021-07-31T08:25:10.000Z</time>
      </trkpt>
      <trkpt lat="49.80768" lon="4.87514">
        <ele>302</ele>
        <time>2021-07-31T08:25:11.000Z</time>
      </trkpt>
      <trkpt lat="49.80766" lon="4.87515">
        <ele>302</ele>
        <time>2021-07-31T08:25:12.000Z</time>
      </trkpt>
      <trkpt lat="49.80764" lon="4.87515">
        <ele>303</ele>
        <time>2021-07-31T08:25:13.000Z</time>
      </trkpt>
      <trkpt lat="49.80762" lon="4.87515">
        <ele>303</ele>
        <time>2021-07-31T08:25:14.000Z</time>
      </trkpt>
      <trkpt lat="49.80759" lon="4.87516">
        <ele>303</ele>
        <time>2021-07-31T08:25:15.000Z</time>
      </trkpt>
      <trkpt lat="49.80757" lon="4.87516">
        <ele>303</ele>
        <time>2021-07-31T08:25:16.000Z</time>
      </trkpt>
      <trkpt lat="49.80755" lon="4.87516">
        <ele>303</ele>
        <time>2021-07-31T08:25:17.000Z</time>
      </trkpt>
      <trkpt lat="49.80753" lon="4.87516">
        <ele>303</ele>
        <time>2021-07-31T08:25:18.000Z</time>
      </trkpt>
      <trkpt lat="49.80751" lon="4.87517">
        <ele>304</ele>
        <time>2021-07-31T08:25:19.000Z</time>
      </trkpt>
      <trkpt lat="49.80748" lon="4.87517">
        <ele>304</ele>
        <time>2021-07-31T08:25:20.000Z</time>
      </trkpt>
      <trkpt lat="49.80746" lon="4.87518">
        <ele>304</ele>
        <time>2021-07-31T08:25:21.000Z</time>
      </trkpt>
      <trkpt lat="49.80744" lon="4.87518">
        <ele>304</ele>
        <time>2021-07-31T08:25:22.000Z</time>
      </trkpt>
      <trkpt lat="49.80742" lon="4.87519">
        <ele>305</ele>
        <time>2021-07-31T08:25:23.000Z</time>
      </trkpt>
      <trkpt lat="49.8074" lon="4.8752">
        <ele>305</ele>
        <time>2021-07-31T08:25:24.000Z</time>
      </trkpt>
      <trkpt lat="49.80738" lon="4.8752">
        <ele>305</ele>
        <time>2021-07-31T08:25:25.000Z</time>
      </trkpt>
      <trkpt lat="49.80735" lon="4.8752">
        <ele>305</ele>
        <time>2021-07-31T08:25:26.000Z</time>
      </trkpt>
      <trkpt lat="49.80733" lon="4.8752">
        <ele>306</ele>
        <time>2021-07-31T08:25:27.000Z</time>
      </trkpt>
      <trkpt lat="49.80732" lon="4.8752">
        <ele>306</ele>
        <time>2021-07-31T08:25:28.000Z</time>
      </trkpt>
      <trkpt lat="49.80729" lon="4.87521">
        <ele>307</ele>
        <time>2021-07-31T08:25:29.000Z</time>
      </trkpt>
      <trkpt lat="49.80727" lon="4.87522">
        <ele>307</ele>
        <time>2021-07-31T08:25:30.000Z</time>
      </trkpt>
      <trkpt lat="49.80725" lon="4.87523">
        <ele>308</ele>
        <time>2021-07-31T08:25:31.000Z</time>
      </trkpt>
      <trkpt lat="49.80723" lon="4.87524">
        <ele>308</ele>
        <time>2021-07-31T08:25:32.000Z</time>
      </trkpt>
      <trkpt lat="49.80722" lon="4.87525">
        <ele>309</ele>
        <time>2021-07-31T08:25:33.000Z</time>
      </trkpt>
      <trkpt lat="49.8072" lon="4.87527">
        <ele>309</ele>
        <time>2021-07-31T08:25:34.000Z</time>
      </trkpt>
      <trkpt lat="49.80719" lon="4.87527">
        <ele>309</ele>
        <time>2021-07-31T08:25:35.000Z</time>
      </trkpt>
      <trkpt lat="49.80718" lon="4.87529">
        <ele>310</ele>
        <time>2021-07-31T08:25:36.000Z</time>
      </trkpt>
      <trkpt lat="49.80716" lon="4.87529">
        <ele>310</ele>
        <time>2021-07-31T08:25:37.000Z</time>
      </trkpt>
      <trkpt lat="49.80713" lon="4.8753">
        <ele>311</ele>
        <time>2021-07-31T08:25:38.000Z</time>
      </trkpt>
      <trkpt lat="49.80711" lon="4.8753">
        <ele>311</ele>
        <time>2021-07-31T08:25:39.000Z</time>
      </trkpt>
      <trkpt lat="49.80709" lon="4.87532">
        <ele>312</ele>
        <time>2021-07-31T08:25:40.000Z</time>
      </trkpt>
      <trkpt lat="49.80708" lon="4.87533">
        <ele>312</ele>
        <time>2021-07-31T08:25:41.000Z</time>
      </trkpt>
      <trkpt lat="49.80706" lon="4.87535">
        <ele>313</ele>
        <time>2021-07-31T08:25:42.000Z</time>
      </trkpt>
      <trkpt lat="49.80705" lon="4.87536">
        <ele>313</ele>
        <time>2021-07-31T08:25:43.000Z</time>
      </trkpt>
      <trkpt lat="49.80704" lon="4.87539">
        <ele>314</ele>
        <time>2021-07-31T08:25:44.000Z</time>
      </trkpt>
      <trkpt lat="49.80703" lon="4.87542">
        <ele>314</ele>
        <time>2021-07-31T08:25:45.000Z</time>
      </trkpt>
      <trkpt lat="49.80701" lon="4.87546">
        <ele>315</ele>
        <time>2021-07-31T08:25:46.000Z</time>
      </trkpt>
      <trkpt lat="49.807" lon="4.87549">
        <ele>315</ele>
        <time>2021-07-31T08:25:47.000Z</time>
      </trkpt>
      <trkpt lat="49.80699" lon="4.87552">
        <ele>315</ele>
        <time>2021-07-31T08:25:48.000Z</time>
      </trkpt>
      <trkpt lat="49.80698" lon="4.87555">
        <ele>316</ele>
        <time>2021-07-31T08:25:49.000Z</time>
      </trkpt>
      <trkpt lat="49.80697" lon="4.87559">
        <ele>316</ele>
        <time>2021-07-31T08:25:50.000Z</time>
      </trkpt>
      <trkpt lat="49.80696" lon="4.87562">
        <ele>316</ele>
        <time>2021-07-31T08:25:51.000Z</time>
      </trkpt>
      <trkpt lat="49.80696" lon="4.87564">
        <ele>317</ele>
        <time>2021-07-31T08:25:52.000Z</time>
      </trkpt>
      <trkpt lat="49.80695" lon="4.87567">
        <ele>317</ele>
        <time>2021-07-31T08:25:53.000Z</time>
      </trkpt>
      <trkpt lat="49.80694" lon="4.8757">
        <ele>317</ele>
        <time>2021-07-31T08:25:54.000Z</time>
      </trkpt>
      <trkpt lat="49.80693" lon="4.87572">
        <ele>317</ele>
        <time>2021-07-31T08:25:55.000Z</time>
      </trkpt>
      <trkpt lat="49.80693" lon="4.87575">
        <ele>317</ele>
        <time>2021-07-31T08:25:56.000Z</time>
      </trkpt>
      <trkpt lat="49.80692" lon="4.87577">
        <ele>318</ele>
        <time>2021-07-31T08:25:57.000Z</time>
      </trkpt>
      <trkpt lat="49.80692" lon="4.8758">
        <ele>318</ele>
        <time>2021-07-31T08:25:58.000Z</time>
      </trkpt>
      <trkpt lat="49.80691" lon="4.87583">
        <ele>318</ele>
        <time>2021-07-31T08:25:59.000Z</time>
      </trkpt>
      <trkpt lat="49.80691" lon="4.87586">
        <ele>318</ele>
        <time>2021-07-31T08:26:00.000Z</time>
      </trkpt>
      <trkpt lat="49.8069" lon="4.87589">
        <ele>318</ele>
        <time>2021-07-31T08:26:01.000Z</time>
      </trkpt>
      <trkpt lat="49.8069" lon="4.87593">
        <ele>318</ele>
        <time>2021-07-31T08:26:02.000Z</time>
      </trkpt>
      <trkpt lat="49.8069" lon="4.87597">
        <ele>318</ele>
        <time>2021-07-31T08:26:03.000Z</time>
      </trkpt>
      <trkpt lat="49.8069" lon="4.876">
        <ele>318</ele>
        <time>2021-07-31T08:26:04.000Z</time>
      </trkpt>
      <trkpt lat="49.80689" lon="4.87603">
        <ele>318</ele>
        <time>2021-07-31T08:26:05.000Z</time>
      </trkpt>
      <trkpt lat="49.80689" lon="4.87607">
        <ele>318</ele>
        <time>2021-07-31T08:26:06.000Z</time>
      </trkpt>
      <trkpt lat="49.80689" lon="4.8761">
        <ele>318</ele>
        <time>2021-07-31T08:26:07.000Z</time>
      </trkpt>
      <trkpt lat="49.80689" lon="4.87613">
        <ele>319</ele>
        <time>2021-07-31T08:26:08.000Z</time>
      </trkpt>
      <trkpt lat="49.80689" lon="4.87617">
        <ele>319</ele>
        <time>2021-07-31T08:26:09.000Z</time>
      </trkpt>
      <trkpt lat="49.80689" lon="4.8762">
        <ele>319</ele>
        <time>2021-07-31T08:26:10.000Z</time>
      </trkpt>
      <trkpt lat="49.80689" lon="4.87624">
        <ele>319</ele>
        <time>2021-07-31T08:26:11.000Z</time>
      </trkpt>
      <trkpt lat="49.8069" lon="4.87628">
        <ele>320</ele>
        <time>2021-07-31T08:26:12.000Z</time>
      </trkpt>
      <trkpt lat="49.8069" lon="4.87632">
        <ele>320</ele>
        <time>2021-07-31T08:26:13.000Z</time>
      </trkpt>
      <trkpt lat="49.80691" lon="4.87635">
        <ele>321</ele>
        <time>2021-07-31T08:26:14.000Z</time>
      </trkpt>
      <trkpt lat="49.80692" lon="4.87638">
        <ele>321</ele>
        <time>2021-07-31T08:26:15.000Z</time>
      </trkpt>
      <trkpt lat="49.80693" lon="4.87642">
        <ele>321</ele>
        <time>2021-07-31T08:26:16.000Z</time>
      </trkpt>
      <trkpt lat="49.80694" lon="4.87645">
        <ele>322</ele>
        <time>2021-07-31T08:26:17.000Z</time>
      </trkpt>
      <trkpt lat="49.80696" lon="4.87648">
        <ele>322</ele>
        <time>2021-07-31T08:26:18.000Z</time>
      </trkpt>
      <trkpt lat="49.80698" lon="4.87651">
        <ele>323</ele>
        <time>2021-07-31T08:26:19.000Z</time>
      </trkpt>
      <trkpt lat="49.80699" lon="4.87654">
        <ele>323</ele>
        <time>2021-07-31T08:26:20.000Z</time>
      </trkpt>
      <trkpt lat="49.80701" lon="4.87656">
        <ele>324</ele>
        <time>2021-07-31T08:26:21.000Z</time>
      </trkpt>
      <trkpt lat="49.80702" lon="4.87659">
        <ele>324</ele>
        <time>2021-07-31T08:26:22.000Z</time>
      </trkpt>
      <trkpt lat="49.80703" lon="4.87662">
        <ele>324</ele>
        <time>2021-07-31T08:26:23.000Z</time>
      </trkpt>
      <trkpt lat="49.80705" lon="4.87665">
        <ele>325</ele>
        <time>2021-07-31T08:26:24.000Z</time>
      </trkpt>
      <trkpt lat="49.80705" lon="4.87668">
        <ele>325</ele>
        <time>2021-07-31T08:26:25.000Z</time>
      </trkpt>
      <trkpt lat="49.80706" lon="4.87671">
        <ele>325</ele>
        <time>2021-07-31T08:26:26.000Z</time>
      </trkpt>
      <trkpt lat="49.80707" lon="4.87673">
        <ele>326</ele>
        <time>2021-07-31T08:26:27.000Z</time>
      </trkpt>
      <trkpt lat="49.80709" lon="4.87675">
        <ele>326</ele>
        <time>2021-07-31T08:26:28.000Z</time>
      </trkpt>
      <trkpt lat="49.8071" lon="4.87677">
        <ele>327</ele>
        <time>2021-07-31T08:26:29.000Z</time>
      </trkpt>
      <trkpt lat="49.80712" lon="4.87679">
        <ele>327</ele>
        <time>2021-07-31T08:26:30.000Z</time>
      </trkpt>
      <trkpt lat="49.80713" lon="4.87682">
        <ele>327</ele>
        <time>2021-07-31T08:26:31.000Z</time>
      </trkpt>
      <trkpt lat="49.80714" lon="4.87684">
        <ele>328</ele>
        <time>2021-07-31T08:26:32.000Z</time>
      </trkpt>
      <trkpt lat="49.80715" lon="4.87686">
        <ele>328</ele>
        <time>2021-07-31T08:26:33.000Z</time>
      </trkpt>
      <trkpt lat="49.80716" lon="4.87688">
        <ele>328</ele>
        <time>2021-07-31T08:26:34.000Z</time>
      </trkpt>
      <trkpt lat="49.80718" lon="4.87691">
        <ele>329</ele>
        <time>2021-07-31T08:26:35.000Z</time>
      </trkpt>
      <trkpt lat="49.80719" lon="4.87693">
        <ele>329</ele>
        <time>2021-07-31T08:26:36.000Z</time>
      </trkpt>
      <trkpt lat="49.8072" lon="4.87696">
        <ele>330</ele>
        <time>2021-07-31T08:26:37.000Z</time>
      </trkpt>
      <trkpt lat="49.80722" lon="4.87699">
        <ele>330</ele>
        <time>2021-07-31T08:26:38.000Z</time>
      </trkpt>
      <trkpt lat="49.80724" lon="4.87702">
        <ele>330</ele>
        <time>2021-07-31T08:26:39.000Z</time>
      </trkpt>
      <trkpt lat="49.80725" lon="4.87704">
        <ele>331</ele>
        <time>2021-07-31T08:26:40.000Z</time>
      </trkpt>
      <trkpt lat="49.80726" lon="4.87706">
        <ele>331</ele>
        <time>2021-07-31T08:26:41.000Z</time>
      </trkpt>
      <trkpt lat="49.80727" lon="4.87709">
        <ele>331</ele>
        <time>2021-07-31T08:26:42.000Z</time>
      </trkpt>
      <trkpt lat="49.80728" lon="4.87712">
        <ele>331</ele>
        <time>2021-07-31T08:26:43.000Z</time>
      </trkpt>
      <trkpt lat="49.80729" lon="4.87715">
        <ele>332</ele>
        <time>2021-07-31T08:26:44.000Z</time>
      </trkpt>
      <trkpt lat="49.8073" lon="4.87718">
        <ele>332</ele>
        <time>2021-07-31T08:26:45.000Z</time>
      </trkpt>
      <trkpt lat="49.80731" lon="4.87721">
        <ele>332</ele>
        <time>2021-07-31T08:26:46.000Z</time>
      </trkpt>
      <trkpt lat="49.80732" lon="4.87724">
        <ele>332</ele>
        <time>2021-07-31T08:26:47.000Z</time>
      </trkpt>
      <trkpt lat="49.80732" lon="4.87726">
        <ele>333</ele>
        <time>2021-07-31T08:26:48.000Z</time>
      </trkpt>
      <trkpt lat="49.80733" lon="4.87728">
        <ele>333</ele>
        <time>2021-07-31T08:26:49.000Z</time>
      </trkpt>
      <trkpt lat="49.80734" lon="4.87731">
        <ele>333</ele>
        <time>2021-07-31T08:26:50.000Z</time>
      </trkpt>
      <trkpt lat="49.80734" lon="4.87734">
        <ele>333</ele>
        <time>2021-07-31T08:26:51.000Z</time>
      </trkpt>
      <trkpt lat="49.80735" lon="4.87736">
        <ele>334</ele>
        <time>2021-07-31T08:26:52.000Z</time>
      </trkpt>
      <trkpt lat="49.80736" lon="4.87739">
        <ele>334</ele>
        <time>2021-07-31T08:26:53.000Z</time>
      </trkpt>
      <trkpt lat="49.80736" lon="4.87742">
        <ele>334</ele>
        <time>2021-07-31T08:26:54.000Z</time>
      </trkpt>
      <trkpt lat="49.80736" lon="4.87745">
        <ele>334</ele>
        <time>2021-07-31T08:26:55.000Z</time>
      </trkpt>
      <trkpt lat="49.80737" lon="4.87748">
        <ele>334</ele>
        <time>2021-07-31T08:26:56.000Z</time>
      </trkpt>
      <trkpt lat="49.80737" lon="4.87751">
        <ele>335</ele>
        <time>2021-07-31T08:26:57.000Z</time>
      </trkpt>
      <trkpt lat="49.80737" lon="4.87754">
        <ele>335</ele>
        <time>2021-07-31T08:26:58.000Z</time>
      </trkpt>
      <trkpt lat="49.80737" lon="4.87757">
        <ele>335</ele>
        <time>2021-07-31T08:26:59.000Z</time>
      </trkpt>
      <trkpt lat="49.80736" lon="4.87759">
        <ele>335</ele>
        <time>2021-07-31T08:27:00.000Z</time>
      </trkpt>
      <trkpt lat="49.80736" lon="4.87762">
        <ele>335</ele>
        <time>2021-07-31T08:27:01.000Z</time>
      </trkpt>
      <trkpt lat="49.80735" lon="4.87764">
        <ele>335</ele>
        <time>2021-07-31T08:27:02.000Z</time>
      </trkpt>
      <trkpt lat="49.80735" lon="4.87768">
        <ele>335</ele>
        <time>2021-07-31T08:27:03.000Z</time>
      </trkpt>
      <trkpt lat="49.80735" lon="4.87771">
        <ele>335</ele>
        <time>2021-07-31T08:27:04.000Z</time>
      </trkpt>
      <trkpt lat="49.80735" lon="4.87774">
        <ele>335</ele>
        <time>2021-07-31T08:27:05.000Z</time>
      </trkpt>
      <trkpt lat="49.80735" lon="4.87778">
        <ele>336</ele>
        <time>2021-07-31T08:27:06.000Z</time>
      </trkpt>
      <trkpt lat="49.80735" lon="4.87781">
        <ele>336</ele>
        <time>2021-07-31T08:27:07.000Z</time>
      </trkpt>
      <trkpt lat="49.80734" lon="4.87784">
        <ele>336</ele>
        <time>2021-07-31T08:27:08.000Z</time>
      </trkpt>
      <trkpt lat="49.80734" lon="4.87788">
        <ele>336</ele>
        <time>2021-07-31T08:27:09.000Z</time>
      </trkpt>
      <trkpt lat="49.80734" lon="4.87792">
        <ele>336</ele>
        <time>2021-07-31T08:27:10.000Z</time>
      </trkpt>
      <trkpt lat="49.80734" lon="4.87795">
        <ele>336</ele>
        <time>2021-07-31T08:27:11.000Z</time>
      </trkpt>
      <trkpt lat="49.80734" lon="4.87799">
        <ele>337</ele>
        <time>2021-07-31T08:27:12.000Z</time>
      </trkpt>
      <trkpt lat="49.80733" lon="4.87802">
        <ele>337</ele>
        <time>2021-07-31T08:27:13.000Z</time>
      </trkpt>
      <trkpt lat="49.80733" lon="4.87805">
        <ele>337</ele>
        <time>2021-07-31T08:27:14.000Z</time>
      </trkpt>
      <trkpt lat="49.80733" lon="4.87809">
        <ele>337</ele>
        <time>2021-07-31T08:27:15.000Z</time>
      </trkpt>
      <trkpt lat="49.80732" lon="4.87813">
        <ele>337</ele>
        <time>2021-07-31T08:27:16.000Z</time>
      </trkpt>
      <trkpt lat="49.80732" lon="4.87817">
        <ele>337</ele>
        <time>2021-07-31T08:27:17.000Z</time>
      </trkpt>
      <trkpt lat="49.80731" lon="4.8782">
        <ele>338</ele>
        <time>2021-07-31T08:27:18.000Z</time>
      </trkpt>
      <trkpt lat="49.80731" lon="4.87824">
        <ele>338</ele>
        <time>2021-07-31T08:27:19.000Z</time>
      </trkpt>
      <trkpt lat="49.80731" lon="4.87828">
        <ele>338</ele>
        <time>2021-07-31T08:27:20.000Z</time>
      </trkpt>
      <trkpt lat="49.8073" lon="4.87831">
        <ele>338</ele>
        <time>2021-07-31T08:27:21.000Z</time>
      </trkpt>
      <trkpt lat="49.8073" lon="4.87835">
        <ele>338</ele>
        <time>2021-07-31T08:27:22.000Z</time>
      </trkpt>
      <trkpt lat="49.80729" lon="4.87838">
        <ele>338</ele>
        <time>2021-07-31T08:27:23.000Z</time>
      </trkpt>
      <trkpt lat="49.80729" lon="4.87842">
        <ele>338</ele>
        <time>2021-07-31T08:27:24.000Z</time>
      </trkpt>
      <trkpt lat="49.80728" lon="4.87845">
        <ele>338</ele>
        <time>2021-07-31T08:27:25.000Z</time>
      </trkpt>
      <trkpt lat="49.80728" lon="4.87848">
        <ele>338</ele>
        <time>2021-07-31T08:27:26.000Z</time>
      </trkpt>
      <trkpt lat="49.80728" lon="4.87852">
        <ele>338</ele>
        <time>2021-07-31T08:27:27.000Z</time>
      </trkpt>
      <trkpt lat="49.80728" lon="4.87855">
        <ele>338</ele>
        <time>2021-07-31T08:27:28.000Z</time>
      </trkpt>
      <trkpt lat="49.80728" lon="4.87858">
        <ele>338</ele>
        <time>2021-07-31T08:27:29.000Z</time>
      </trkpt>
      <trkpt lat="49.80728" lon="4.87862">
        <ele>338</ele>
        <time>2021-07-31T08:27:30.000Z</time>
      </trkpt>
      <trkpt lat="49.80728" lon="4.87865">
        <ele>338</ele>
        <time>2021-07-31T08:27:31.000Z</time>
      </trkpt>
      <trkpt lat="49.80728" lon="4.87869">
        <ele>338</ele>
        <time>2021-07-31T08:27:32.000Z</time>
      </trkpt>
      <trkpt lat="49.80728" lon="4.87872">
        <ele>338</ele>
        <time>2021-07-31T08:27:33.000Z</time>
      </trkpt>
      <trkpt lat="49.80729" lon="4.87875">
        <ele>338</ele>
        <time>2021-07-31T08:27:34.000Z</time>
      </trkpt>
      <trkpt lat="49.80729" lon="4.87878">
        <ele>338</ele>
        <time>2021-07-31T08:27:35.000Z</time>
      </trkpt>
      <trkpt lat="49.80729" lon="4.87882">
        <ele>339</ele>
        <time>2021-07-31T08:27:36.000Z</time>
      </trkpt>
      <trkpt lat="49.80729" lon="4.87886">
        <ele>339</ele>
        <time>2021-07-31T08:27:37.000Z</time>
      </trkpt>
      <trkpt lat="49.80729" lon="4.87889">
        <ele>339</ele>
        <time>2021-07-31T08:27:38.000Z</time>
      </trkpt>
      <trkpt lat="49.8073" lon="4.87892">
        <ele>339</ele>
        <time>2021-07-31T08:27:39.000Z</time>
      </trkpt>
      <trkpt lat="49.8073" lon="4.87895">
        <ele>339</ele>
        <time>2021-07-31T08:27:40.000Z</time>
      </trkpt>
      <trkpt lat="49.80731" lon="4.87898">
        <ele>339</ele>
        <time>2021-07-31T08:27:41.000Z</time>
      </trkpt>
      <trkpt lat="49.80731" lon="4.87901">
        <ele>340</ele>
        <time>2021-07-31T08:27:42.000Z</time>
      </trkpt>
      <trkpt lat="49.80732" lon="4.87904">
        <ele>340</ele>
        <time>2021-07-31T08:27:43.000Z</time>
      </trkpt>
      <trkpt lat="49.80732" lon="4.87907">
        <ele>340</ele>
        <time>2021-07-31T08:27:44.000Z</time>
      </trkpt>
      <trkpt lat="49.80733" lon="4.8791">
        <ele>341</ele>
        <time>2021-07-31T08:27:45.000Z</time>
      </trkpt>
      <trkpt lat="49.80733" lon="4.87913">
        <ele>341</ele>
        <time>2021-07-31T08:27:46.000Z</time>
      </trkpt>
      <trkpt lat="49.80733" lon="4.87916">
        <ele>341</ele>
        <time>2021-07-31T08:27:47.000Z</time>
      </trkpt>
      <trkpt lat="49.80734" lon="4.87919">
        <ele>342</ele>
        <time>2021-07-31T08:27:48.000Z</time>
      </trkpt>
      <trkpt lat="49.80735" lon="4.87922">
        <ele>342</ele>
        <time>2021-07-31T08:27:49.000Z</time>
      </trkpt>
      <trkpt lat="49.80736" lon="4.87925">
        <ele>342</ele>
        <time>2021-07-31T08:27:50.000Z</time>
      </trkpt>
      <trkpt lat="49.80736" lon="4.87928">
        <ele>342</ele>
        <time>2021-07-31T08:27:51.000Z</time>
      </trkpt>
      <trkpt lat="49.80737" lon="4.87931">
        <ele>343</ele>
        <time>2021-07-31T08:27:52.000Z</time>
      </trkpt>
      <trkpt lat="49.80737" lon="4.87934">
        <ele>343</ele>
        <time>2021-07-31T08:27:53.000Z</time>
      </trkpt>
      <trkpt lat="49.80737" lon="4.87937">
        <ele>344</ele>
        <time>2021-07-31T08:27:54.000Z</time>
      </trkpt>
      <trkpt lat="49.80737" lon="4.87941">
        <ele>344</ele>
        <time>2021-07-31T08:27:55.000Z</time>
      </trkpt>
      <trkpt lat="49.80737" lon="4.87944">
        <ele>344</ele>
        <time>2021-07-31T08:27:56.000Z</time>
      </trkpt>
      <trkpt lat="49.80737" lon="4.87947">
        <ele>344</ele>
        <time>2021-07-31T08:27:57.000Z</time>
      </trkpt>
      <trkpt lat="49.80737" lon="4.8795">
        <ele>344</ele>
        <time>2021-07-31T08:27:58.000Z</time>
      </trkpt>
      <trkpt lat="49.80738" lon="4.87954">
        <ele>345</ele>
        <time>2021-07-31T08:27:59.000Z</time>
      </trkpt>
      <trkpt lat="49.80738" lon="4.87957">
        <ele>345</ele>
        <time>2021-07-31T08:28:00.000Z</time>
      </trkpt>
      <trkpt lat="49.80739" lon="4.8796">
        <ele>345</ele>
        <time>2021-07-31T08:28:01.000Z</time>
      </trkpt>
      <trkpt lat="49.8074" lon="4.87964">
        <ele>346</ele>
        <time>2021-07-31T08:28:02.000Z</time>
      </trkpt>
      <trkpt lat="49.8074" lon="4.87967">
        <ele>346</ele>
        <time>2021-07-31T08:28:03.000Z</time>
      </trkpt>
      <trkpt lat="49.8074" lon="4.87969">
        <ele>347</ele>
        <time>2021-07-31T08:28:04.000Z</time>
      </trkpt>
      <trkpt lat="49.80741" lon="4.87973">
        <ele>347</ele>
        <time>2021-07-31T08:28:05.000Z</time>
      </trkpt>
      <trkpt lat="49.80741" lon="4.87976">
        <ele>347</ele>
        <time>2021-07-31T08:28:06.000Z</time>
      </trkpt>
      <trkpt lat="49.80741" lon="4.8798">
        <ele>348</ele>
        <time>2021-07-31T08:28:07.000Z</time>
      </trkpt>
      <trkpt lat="49.80741" lon="4.87983">
        <ele>348</ele>
        <time>2021-07-31T08:28:08.000Z</time>
      </trkpt>
      <trkpt lat="49.80742" lon="4.87986">
        <ele>348</ele>
        <time>2021-07-31T08:28:09.000Z</time>
      </trkpt>
      <trkpt lat="49.80743" lon="4.8799">
        <ele>348</ele>
        <time>2021-07-31T08:28:10.000Z</time>
      </trkpt>
      <trkpt lat="49.80743" lon="4.87993">
        <ele>349</ele>
        <time>2021-07-31T08:28:11.000Z</time>
      </trkpt>
      <trkpt lat="49.80743" lon="4.87996">
        <ele>349</ele>
        <time>2021-07-31T08:28:12.000Z</time>
      </trkpt>
      <trkpt lat="49.80744" lon="4.88">
        <ele>349</ele>
        <time>2021-07-31T08:28:13.000Z</time>
      </trkpt>
      <trkpt lat="49.80743" lon="4.88002">
        <ele>349</ele>
        <time>2021-07-31T08:28:14.000Z</time>
      </trkpt>
      <trkpt lat="49.80743" lon="4.88005">
        <ele>350</ele>
        <time>2021-07-31T08:28:15.000Z</time>
      </trkpt>
      <trkpt lat="49.80743" lon="4.88007">
        <ele>350</ele>
        <time>2021-07-31T08:28:16.000Z</time>
      </trkpt>
      <trkpt lat="49.80743" lon="4.88011">
        <ele>350</ele>
        <time>2021-07-31T08:28:17.000Z</time>
      </trkpt>
      <trkpt lat="49.80743" lon="4.88013">
        <ele>350</ele>
        <time>2021-07-31T08:28:18.000Z</time>
      </trkpt>
      <trkpt lat="49.80743" lon="4.88017">
        <ele>350</ele>
        <time>2021-07-31T08:28:19.000Z</time>
      </trkpt>
      <trkpt lat="49.80743" lon="4.88019">
        <ele>351</ele>
        <time>2021-07-31T08:28:20.000Z</time>
      </trkpt>
      <trkpt lat="49.80744" lon="4.88022">
        <ele>351</ele>
        <time>2021-07-31T08:28:21.000Z</time>
      </trkpt>
      <trkpt lat="49.80744" lon="4.88026">
        <ele>351</ele>
        <time>2021-07-31T08:28:22.000Z</time>
      </trkpt>
      <trkpt lat="49.80745" lon="4.88029">
        <ele>351</ele>
        <time>2021-07-31T08:28:23.000Z</time>
      </trkpt>
      <trkpt lat="49.80745" lon="4.88033">
        <ele>352</ele>
        <time>2021-07-31T08:28:24.000Z</time>
      </trkpt>
      <trkpt lat="49.80746" lon="4.88036">
        <ele>352</ele>
        <time>2021-07-31T08:28:25.000Z</time>
      </trkpt>
      <trkpt lat="49.80747" lon="4.88039">
        <ele>352</ele>
        <time>2021-07-31T08:28:26.000Z</time>
      </trkpt>
      <trkpt lat="49.80748" lon="4.88042">
        <ele>353</ele>
        <time>2021-07-31T08:28:27.000Z</time>
      </trkpt>
      <trkpt lat="49.80748" lon="4.88046">
        <ele>353</ele>
        <time>2021-07-31T08:28:28.000Z</time>
      </trkpt>
      <trkpt lat="49.80749" lon="4.88049">
        <ele>353</ele>
        <time>2021-07-31T08:28:29.000Z</time>
      </trkpt>
      <trkpt lat="49.8075" lon="4.88053">
        <ele>353</ele>
        <time>2021-07-31T08:28:30.000Z</time>
      </trkpt>
      <trkpt lat="49.8075" lon="4.88057">
        <ele>353</ele>
        <time>2021-07-31T08:28:31.000Z</time>
      </trkpt>
      <trkpt lat="49.80751" lon="4.88061">
        <ele>353</ele>
        <time>2021-07-31T08:28:32.000Z</time>
      </trkpt>
      <trkpt lat="49.80751" lon="4.88064">
        <ele>353</ele>
        <time>2021-07-31T08:28:33.000Z</time>
      </trkpt>
      <trkpt lat="49.80751" lon="4.88068">
        <ele>353</ele>
        <time>2021-07-31T08:28:34.000Z</time>
      </trkpt>
      <trkpt lat="49.80751" lon="4.88071">
        <ele>353</ele>
        <time>2021-07-31T08:28:35.000Z</time>
      </trkpt>
      <trkpt lat="49.80751" lon="4.88075">
        <ele>353</ele>
        <time>2021-07-31T08:28:36.000Z</time>
      </trkpt>
      <trkpt lat="49.80751" lon="4.88078">
        <ele>353</ele>
        <time>2021-07-31T08:28:37.000Z</time>
      </trkpt>
      <trkpt lat="49.80751" lon="4.88082">
        <ele>354</ele>
        <time>2021-07-31T08:28:38.000Z</time>
      </trkpt>
      <trkpt lat="49.80751" lon="4.88085">
        <ele>354</ele>
        <time>2021-07-31T08:28:39.000Z</time>
      </trkpt>
      <trkpt lat="49.80751" lon="4.88088">
        <ele>354</ele>
        <time>2021-07-31T08:28:40.000Z</time>
      </trkpt>
      <trkpt lat="49.80751" lon="4.88091">
        <ele>354</ele>
        <time>2021-07-31T08:28:41.000Z</time>
      </trkpt>
      <trkpt lat="49.80752" lon="4.88094">
        <ele>354</ele>
        <time>2021-07-31T08:28:42.000Z</time>
      </trkpt>
      <trkpt lat="49.80752" lon="4.88098">
        <ele>354</ele>
        <time>2021-07-31T08:28:43.000Z</time>
      </trkpt>
      <trkpt lat="49.80752" lon="4.88102">
        <ele>354</ele>
        <time>2021-07-31T08:28:44.000Z</time>
      </trkpt>
      <trkpt lat="49.80753" lon="4.88106">
        <ele>355</ele>
        <time>2021-07-31T08:28:45.000Z</time>
      </trkpt>
      <trkpt lat="49.80753" lon="4.8811">
        <ele>355</ele>
        <time>2021-07-31T08:28:46.000Z</time>
      </trkpt>
      <trkpt lat="49.80753" lon="4.88114">
        <ele>355</ele>
        <time>2021-07-31T08:28:47.000Z</time>
      </trkpt>
      <trkpt lat="49.80753" lon="4.88118">
        <ele>355</ele>
        <time>2021-07-31T08:28:48.000Z</time>
      </trkpt>
      <trkpt lat="49.80753" lon="4.88122">
        <ele>355</ele>
        <time>2021-07-31T08:28:49.000Z</time>
      </trkpt>
      <trkpt lat="49.80753" lon="4.88126">
        <ele>355</ele>
        <time>2021-07-31T08:28:50.000Z</time>
      </trkpt>
      <trkpt lat="49.80753" lon="4.8813">
        <ele>355</ele>
        <time>2021-07-31T08:28:51.000Z</time>
      </trkpt>
      <trkpt lat="49.80753" lon="4.88133">
        <ele>355</ele>
        <time>2021-07-31T08:28:52.000Z</time>
      </trkpt>
      <trkpt lat="49.80753" lon="4.88137">
        <ele>355</ele>
        <time>2021-07-31T08:28:53.000Z</time>
      </trkpt>
      <trkpt lat="49.80752" lon="4.8814">
        <ele>355</ele>
        <time>2021-07-31T08:28:54.000Z</time>
      </trkpt>
      <trkpt lat="49.80752" lon="4.88143">
        <ele>355</ele>
        <time>2021-07-31T08:28:55.000Z</time>
      </trkpt>
      <trkpt lat="49.80752" lon="4.88147">
        <ele>355</ele>
        <time>2021-07-31T08:28:56.000Z</time>
      </trkpt>
      <trkpt lat="49.80752" lon="4.8815">
        <ele>355</ele>
        <time>2021-07-31T08:28:57.000Z</time>
      </trkpt>
      <trkpt lat="49.80752" lon="4.88154">
        <ele>355</ele>
        <time>2021-07-31T08:28:58.000Z</time>
      </trkpt>
      <trkpt lat="49.80752" lon="4.88159">
        <ele>356</ele>
        <time>2021-07-31T08:28:59.000Z</time>
      </trkpt>
      <trkpt lat="49.80752" lon="4.88164">
        <ele>356</ele>
        <time>2021-07-31T08:29:00.000Z</time>
      </trkpt>
      <trkpt lat="49.80752" lon="4.88169">
        <ele>356</ele>
        <time>2021-07-31T08:29:01.000Z</time>
      </trkpt>
      <trkpt lat="49.80752" lon="4.88174">
        <ele>356</ele>
        <time>2021-07-31T08:29:02.000Z</time>
      </trkpt>
      <trkpt lat="49.80752" lon="4.88179">
        <ele>356</ele>
        <time>2021-07-31T08:29:03.000Z</time>
      </trkpt>
      <trkpt lat="49.80752" lon="4.88184">
        <ele>356</ele>
        <time>2021-07-31T08:29:04.000Z</time>
      </trkpt>
      <trkpt lat="49.80752" lon="4.88188">
        <ele>356</ele>
        <time>2021-07-31T08:29:05.000Z</time>
      </trkpt>
      <trkpt lat="49.80752" lon="4.88193">
        <ele>356</ele>
        <time>2021-07-31T08:29:06.000Z</time>
      </trkpt>
      <trkpt lat="49.80752" lon="4.88197">
        <ele>356</ele>
        <time>2021-07-31T08:29:07.000Z</time>
      </trkpt>
      <trkpt lat="49.80752" lon="4.88202">
        <ele>356</ele>
        <time>2021-07-31T08:29:08.000Z</time>
      </trkpt>
      <trkpt lat="49.80752" lon="4.88206">
        <ele>357</ele>
        <time>2021-07-31T08:29:09.000Z</time>
      </trkpt>
      <trkpt lat="49.80753" lon="4.8821">
        <ele>357</ele>
        <time>2021-07-31T08:29:10.000Z</time>
      </trkpt>
      <trkpt lat="49.80753" lon="4.88214">
        <ele>357</ele>
        <time>2021-07-31T08:29:11.000Z</time>
      </trkpt>
      <trkpt lat="49.80753" lon="4.88217">
        <ele>357</ele>
        <time>2021-07-31T08:29:12.000Z</time>
      </trkpt>
      <trkpt lat="49.80754" lon="4.88221">
        <ele>357</ele>
        <time>2021-07-31T08:29:13.000Z</time>
      </trkpt>
      <trkpt lat="49.80754" lon="4.88224">
        <ele>357</ele>
        <time>2021-07-31T08:29:14.000Z</time>
      </trkpt>
      <trkpt lat="49.80755" lon="4.88228">
        <ele>357</ele>
        <time>2021-07-31T08:29:15.000Z</time>
      </trkpt>
      <trkpt lat="49.80756" lon="4.88231">
        <ele>358</ele>
        <time>2021-07-31T08:29:16.000Z</time>
      </trkpt>
      <trkpt lat="49.80757" lon="4.88234">
        <ele>358</ele>
        <time>2021-07-31T08:29:17.000Z</time>
      </trkpt>
      <trkpt lat="49.80757" lon="4.88237">
        <ele>358</ele>
        <time>2021-07-31T08:29:18.000Z</time>
      </trkpt>
      <trkpt lat="49.80758" lon="4.8824">
        <ele>358</ele>
        <time>2021-07-31T08:29:19.000Z</time>
      </trkpt>
      <trkpt lat="49.80759" lon="4.88243">
        <ele>358</ele>
        <time>2021-07-31T08:29:20.000Z</time>
      </trkpt>
      <trkpt lat="49.8076" lon="4.88246">
        <ele>358</ele>
        <time>2021-07-31T08:29:21.000Z</time>
      </trkpt>
      <trkpt lat="49.80761" lon="4.88249">
        <ele>358</ele>
        <time>2021-07-31T08:29:22.000Z</time>
      </trkpt>
      <trkpt lat="49.80762" lon="4.88252">
        <ele>358</ele>
        <time>2021-07-31T08:29:23.000Z</time>
      </trkpt>
      <trkpt lat="49.80764" lon="4.88254">
        <ele>358</ele>
        <time>2021-07-31T08:29:24.000Z</time>
      </trkpt>
      <trkpt lat="49.80766" lon="4.88256">
        <ele>358</ele>
        <time>2021-07-31T08:29:25.000Z</time>
      </trkpt>
      <trkpt lat="49.80767" lon="4.88258">
        <ele>359</ele>
        <time>2021-07-31T08:29:26.000Z</time>
      </trkpt>
      <trkpt lat="49.80769" lon="4.88261">
        <ele>359</ele>
        <time>2021-07-31T08:29:27.000Z</time>
      </trkpt>
      <trkpt lat="49.8077" lon="4.88263">
        <ele>359</ele>
        <time>2021-07-31T08:29:28.000Z</time>
      </trkpt>
      <trkpt lat="49.80771" lon="4.88266">
        <ele>359</ele>
        <time>2021-07-31T08:29:29.000Z</time>
      </trkpt>
      <trkpt lat="49.80773" lon="4.88269">
        <ele>359</ele>
        <time>2021-07-31T08:29:30.000Z</time>
      </trkpt>
      <trkpt lat="49.80774" lon="4.88271">
        <ele>359</ele>
        <time>2021-07-31T08:29:31.000Z</time>
      </trkpt>
      <trkpt lat="49.80776" lon="4.88274">
        <ele>359</ele>
        <time>2021-07-31T08:29:32.000Z</time>
      </trkpt>
      <trkpt lat="49.80777" lon="4.88277">
        <ele>360</ele>
        <time>2021-07-31T08:29:33.000Z</time>
      </trkpt>
      <trkpt lat="49.80779" lon="4.88279">
        <ele>360</ele>
        <time>2021-07-31T08:29:34.000Z</time>
      </trkpt>
      <trkpt lat="49.80781" lon="4.88282">
        <ele>360</ele>
        <time>2021-07-31T08:29:35.000Z</time>
      </trkpt>
      <trkpt lat="49.80782" lon="4.88285">
        <ele>360</ele>
        <time>2021-07-31T08:29:36.000Z</time>
      </trkpt>
      <trkpt lat="49.80784" lon="4.88287">
        <ele>360</ele>
        <time>2021-07-31T08:29:37.000Z</time>
      </trkpt>
      <trkpt lat="49.80785" lon="4.8829">
        <ele>361</ele>
        <time>2021-07-31T08:29:38.000Z</time>
      </trkpt>
      <trkpt lat="49.80787" lon="4.88293">
        <ele>361</ele>
        <time>2021-07-31T08:29:39.000Z</time>
      </trkpt>
      <trkpt lat="49.80789" lon="4.88296">
        <ele>361</ele>
        <time>2021-07-31T08:29:40.000Z</time>
      </trkpt>
      <trkpt lat="49.80791" lon="4.88299">
        <ele>361</ele>
        <time>2021-07-31T08:29:41.000Z</time>
      </trkpt>
      <trkpt lat="49.80792" lon="4.88302">
        <ele>362</ele>
        <time>2021-07-31T08:29:42.000Z</time>
      </trkpt>
      <trkpt lat="49.80794" lon="4.88305">
        <ele>362</ele>
        <time>2021-07-31T08:29:43.000Z</time>
      </trkpt>
      <trkpt lat="49.80797" lon="4.88308">
        <ele>362</ele>
        <time>2021-07-31T08:29:44.000Z</time>
      </trkpt>
      <trkpt lat="49.80799" lon="4.88311">
        <ele>363</ele>
        <time>2021-07-31T08:29:45.000Z</time>
      </trkpt>
      <trkpt lat="49.80801" lon="4.88314">
        <ele>363</ele>
        <time>2021-07-31T08:29:46.000Z</time>
      </trkpt>
      <trkpt lat="49.80803" lon="4.88318">
        <ele>363</ele>
        <time>2021-07-31T08:29:47.000Z</time>
      </trkpt>
      <trkpt lat="49.80805" lon="4.88321">
        <ele>364</ele>
        <time>2021-07-31T08:29:48.000Z</time>
      </trkpt>
      <trkpt lat="49.80807" lon="4.88324">
        <ele>364</ele>
        <time>2021-07-31T08:29:49.000Z</time>
      </trkpt>
      <trkpt lat="49.80809" lon="4.88327">
        <ele>364</ele>
        <time>2021-07-31T08:29:50.000Z</time>
      </trkpt>
      <trkpt lat="49.80812" lon="4.88331">
        <ele>365</ele>
        <time>2021-07-31T08:29:51.000Z</time>
      </trkpt>
      <trkpt lat="49.80814" lon="4.88335">
        <ele>365</ele>
        <time>2021-07-31T08:29:52.000Z</time>
      </trkpt>
      <trkpt lat="49.80816" lon="4.88339">
        <ele>365</ele>
        <time>2021-07-31T08:29:53.000Z</time>
      </trkpt>
      <trkpt lat="49.80819" lon="4.88343">
        <ele>365</ele>
        <time>2021-07-31T08:29:54.000Z</time>
      </trkpt>
      <trkpt lat="49.80822" lon="4.88346">
        <ele>366</ele>
        <time>2021-07-31T08:29:55.000Z</time>
      </trkpt>
      <trkpt lat="49.80824" lon="4.8835">
        <ele>366</ele>
        <time>2021-07-31T08:29:56.000Z</time>
      </trkpt>
      <trkpt lat="49.80827" lon="4.88354">
        <ele>366</ele>
        <time>2021-07-31T08:29:57.000Z</time>
      </trkpt>
      <trkpt lat="49.80829" lon="4.88358">
        <ele>367</ele>
        <time>2021-07-31T08:29:58.000Z</time>
      </trkpt>
      <trkpt lat="49.80832" lon="4.88361">
        <ele>367</ele>
        <time>2021-07-31T08:29:59.000Z</time>
      </trkpt>
      <trkpt lat="49.80834" lon="4.88364">
        <ele>367</ele>
        <time>2021-07-31T08:30:00.000Z</time>
      </trkpt>
      <trkpt lat="49.80837" lon="4.88368">
        <ele>367</ele>
        <time>2021-07-31T08:30:01.000Z</time>
      </trkpt>
      <trkpt lat="49.80839" lon="4.88372">
        <ele>367</ele>
        <time>2021-07-31T08:30:02.000Z</time>
      </trkpt>
      <trkpt lat="49.80841" lon="4.88376">
        <ele>368</ele>
        <time>2021-07-31T08:30:03.000Z</time>
      </trkpt>
      <trkpt lat="49.80843" lon="4.88379">
        <ele>368</ele>
        <time>2021-07-31T08:30:04.000Z</time>
      </trkpt>
      <trkpt lat="49.80846" lon="4.88383">
        <ele>368</ele>
        <time>2021-07-31T08:30:05.000Z</time>
      </trkpt>
      <trkpt lat="49.80848" lon="4.88386">
        <ele>368</ele>
        <time>2021-07-31T08:30:06.000Z</time>
      </trkpt>
      <trkpt lat="49.80849" lon="4.88389">
        <ele>368</ele>
        <time>2021-07-31T08:30:07.000Z</time>
      </trkpt>
      <trkpt lat="49.80851" lon="4.88392">
        <ele>368</ele>
        <time>2021-07-31T08:30:08.000Z</time>
      </trkpt>
      <trkpt lat="49.80853" lon="4.88395">
        <ele>369</ele>
        <time>2021-07-31T08:30:09.000Z</time>
      </trkpt>
      <trkpt lat="49.80855" lon="4.88398">
        <ele>369</ele>
        <time>2021-07-31T08:30:10.000Z</time>
      </trkpt>
      <trkpt lat="49.80858" lon="4.88401">
        <ele>369</ele>
        <time>2021-07-31T08:30:11.000Z</time>
      </trkpt>
      <trkpt lat="49.80862" lon="4.88405">
        <ele>370</ele>
        <time>2021-07-31T08:30:12.000Z</time>
      </trkpt>
      <trkpt lat="49.80866" lon="4.8841">
        <ele>370</ele>
        <time>2021-07-31T08:30:13.000Z</time>
      </trkpt>
      <trkpt lat="49.80869" lon="4.88415">
        <ele>370</ele>
        <time>2021-07-31T08:30:14.000Z</time>
      </trkpt>
      <trkpt lat="49.80872" lon="4.88419">
        <ele>370</ele>
        <time>2021-07-31T08:30:15.000Z</time>
      </trkpt>
      <trkpt lat="49.80876" lon="4.88425">
        <ele>370</ele>
        <time>2021-07-31T08:30:16.000Z</time>
      </trkpt>
      <trkpt lat="49.80879" lon="4.8843">
        <ele>371</ele>
        <time>2021-07-31T08:30:17.000Z</time>
      </trkpt>
      <trkpt lat="49.80883" lon="4.88436">
        <ele>371</ele>
        <time>2021-07-31T08:30:18.000Z</time>
      </trkpt>
      <trkpt lat="49.80886" lon="4.88443">
        <ele>371</ele>
        <time>2021-07-31T08:30:19.000Z</time>
      </trkpt>
      <trkpt lat="49.8089" lon="4.88449">
        <ele>371</ele>
        <time>2021-07-31T08:30:20.000Z</time>
      </trkpt>
      <trkpt lat="49.80894" lon="4.88454">
        <ele>371</ele>
        <time>2021-07-31T08:30:21.000Z</time>
      </trkpt>
      <trkpt lat="49.80898" lon="4.8846">
        <ele>371</ele>
        <time>2021-07-31T08:30:22.000Z</time>
      </trkpt>
      <trkpt lat="49.80902" lon="4.88465">
        <ele>371</ele>
        <time>2021-07-31T08:30:23.000Z</time>
      </trkpt>
      <trkpt lat="49.80906" lon="4.88471">
        <ele>371</ele>
        <time>2021-07-31T08:30:24.000Z</time>
      </trkpt>
      <trkpt lat="49.8091" lon="4.88477">
        <ele>371</ele>
        <time>2021-07-31T08:30:25.000Z</time>
      </trkpt>
      <trkpt lat="49.80913" lon="4.88483">
        <ele>371</ele>
        <time>2021-07-31T08:30:26.000Z</time>
      </trkpt>
      <trkpt lat="49.80917" lon="4.8849">
        <ele>372</ele>
        <time>2021-07-31T08:30:27.000Z</time>
      </trkpt>
      <trkpt lat="49.80921" lon="4.88495">
        <ele>372</ele>
        <time>2021-07-31T08:30:28.000Z</time>
      </trkpt>
      <trkpt lat="49.80925" lon="4.88501">
        <ele>372</ele>
        <time>2021-07-31T08:30:29.000Z</time>
      </trkpt>
      <trkpt lat="49.80928" lon="4.88507">
        <ele>372</ele>
        <time>2021-07-31T08:30:30.000Z</time>
      </trkpt>
      <trkpt lat="49.80932" lon="4.88512">
        <ele>372</ele>
        <time>2021-07-31T08:30:31.000Z</time>
      </trkpt>
      <trkpt lat="49.80935" lon="4.88518">
        <ele>372</ele>
        <time>2021-07-31T08:30:32.000Z</time>
      </trkpt>
      <trkpt lat="49.80938" lon="4.88523">
        <ele>373</ele>
        <time>2021-07-31T08:30:33.000Z</time>
      </trkpt>
      <trkpt lat="49.80942" lon="4.88529">
        <ele>373</ele>
        <time>2021-07-31T08:30:34.000Z</time>
      </trkpt>
      <trkpt lat="49.80945" lon="4.88535">
        <ele>373</ele>
        <time>2021-07-31T08:30:35.000Z</time>
      </trkpt>
      <trkpt lat="49.80949" lon="4.8854">
        <ele>373</ele>
        <time>2021-07-31T08:30:36.000Z</time>
      </trkpt>
      <trkpt lat="49.80952" lon="4.88545">
        <ele>373</ele>
        <time>2021-07-31T08:30:37.000Z</time>
      </trkpt>
      <trkpt lat="49.80955" lon="4.88549">
        <ele>373</ele>
        <time>2021-07-31T08:30:38.000Z</time>
      </trkpt>
      <trkpt lat="49.80958" lon="4.88554">
        <ele>373</ele>
        <time>2021-07-31T08:30:39.000Z</time>
      </trkpt>
      <trkpt lat="49.80961" lon="4.88559">
        <ele>373</ele>
        <time>2021-07-31T08:30:40.000Z</time>
      </trkpt>
      <trkpt lat="49.80965" lon="4.88563">
        <ele>373</ele>
        <time>2021-07-31T08:30:41.000Z</time>
      </trkpt>
      <trkpt lat="49.80968" lon="4.88569">
        <ele>373</ele>
        <time>2021-07-31T08:30:42.000Z</time>
      </trkpt>
      <trkpt lat="49.80972" lon="4.88574">
        <ele>373</ele>
        <time>2021-07-31T08:30:43.000Z</time>
      </trkpt>
      <trkpt lat="49.80975" lon="4.88579">
        <ele>373</ele>
        <time>2021-07-31T08:30:44.000Z</time>
      </trkpt>
      <trkpt lat="49.80979" lon="4.88584">
        <ele>373</ele>
        <time>2021-07-31T08:30:45.000Z</time>
      </trkpt>
      <trkpt lat="49.80982" lon="4.8859">
        <ele>373</ele>
        <time>2021-07-31T08:30:46.000Z</time>
      </trkpt>
      <trkpt lat="49.80986" lon="4.88595">
        <ele>373</ele>
        <time>2021-07-31T08:30:47.000Z</time>
      </trkpt>
      <trkpt lat="49.80989" lon="4.886">
        <ele>373</ele>
        <time>2021-07-31T08:30:48.000Z</time>
      </trkpt>
      <trkpt lat="49.80992" lon="4.88605">
        <ele>373</ele>
        <time>2021-07-31T08:30:49.000Z</time>
      </trkpt>
      <trkpt lat="49.80996" lon="4.8861">
        <ele>373</ele>
        <time>2021-07-31T08:30:50.000Z</time>
      </trkpt>
      <trkpt lat="49.80999" lon="4.88615">
        <ele>373</ele>
        <time>2021-07-31T08:30:51.000Z</time>
      </trkpt>
      <trkpt lat="49.81003" lon="4.8862">
        <ele>373</ele>
        <time>2021-07-31T08:30:52.000Z</time>
      </trkpt>
      <trkpt lat="49.81007" lon="4.88625">
        <ele>373</ele>
        <time>2021-07-31T08:30:53.000Z</time>
      </trkpt>
      <trkpt lat="49.8101" lon="4.8863">
        <ele>373</ele>
        <time>2021-07-31T08:30:54.000Z</time>
      </trkpt>
      <trkpt lat="49.81014" lon="4.88635">
        <ele>373</ele>
        <time>2021-07-31T08:30:55.000Z</time>
      </trkpt>
      <trkpt lat="49.81018" lon="4.8864">
        <ele>373</ele>
        <time>2021-07-31T08:30:56.000Z</time>
      </trkpt>
      <trkpt lat="49.81022" lon="4.88645">
        <ele>373</ele>
        <time>2021-07-31T08:30:57.000Z</time>
      </trkpt>
      <trkpt lat="49.81025" lon="4.8865">
        <ele>373</ele>
        <time>2021-07-31T08:30:58.000Z</time>
      </trkpt>
      <trkpt lat="49.81029" lon="4.88655">
        <ele>373</ele>
        <time>2021-07-31T08:30:59.000Z</time>
      </trkpt>
      <trkpt lat="49.81033" lon="4.8866">
        <ele>373</ele>
        <time>2021-07-31T08:31:00.000Z</time>
      </trkpt>
      <trkpt lat="49.81036" lon="4.88664">
        <ele>373</ele>
        <time>2021-07-31T08:31:01.000Z</time>
      </trkpt>
      <trkpt lat="49.81039" lon="4.88668">
        <ele>373</ele>
        <time>2021-07-31T08:31:02.000Z</time>
      </trkpt>
      <trkpt lat="49.81042" lon="4.88672">
        <ele>373</ele>
        <time>2021-07-31T08:31:03.000Z</time>
      </trkpt>
      <trkpt lat="49.81045" lon="4.88677">
        <ele>373</ele>
        <time>2021-07-31T08:31:04.000Z</time>
      </trkpt>
      <trkpt lat="49.81048" lon="4.88682">
        <ele>374</ele>
        <time>2021-07-31T08:31:05.000Z</time>
      </trkpt>
      <trkpt lat="49.81051" lon="4.88686">
        <ele>374</ele>
        <time>2021-07-31T08:31:06.000Z</time>
      </trkpt>
      <trkpt lat="49.81054" lon="4.8869">
        <ele>374</ele>
        <time>2021-07-31T08:31:07.000Z</time>
      </trkpt>
      <trkpt lat="49.81058" lon="4.88695">
        <ele>374</ele>
        <time>2021-07-31T08:31:08.000Z</time>
      </trkpt>
      <trkpt lat="49.8106" lon="4.887">
        <ele>374</ele>
        <time>2021-07-31T08:31:09.000Z</time>
      </trkpt>
      <trkpt lat="49.81063" lon="4.88704">
        <ele>374</ele>
        <time>2021-07-31T08:31:10.000Z</time>
      </trkpt>
      <trkpt lat="49.81066" lon="4.88709">
        <ele>374</ele>
        <time>2021-07-31T08:31:11.000Z</time>
      </trkpt>
      <trkpt lat="49.81069" lon="4.88714">
        <ele>374</ele>
        <time>2021-07-31T08:31:12.000Z</time>
      </trkpt>
      <trkpt lat="49.81071" lon="4.88718">
        <ele>374</ele>
        <time>2021-07-31T08:31:13.000Z</time>
      </trkpt>
      <trkpt lat="49.81073" lon="4.88722">
        <ele>374</ele>
        <time>2021-07-31T08:31:14.000Z</time>
      </trkpt>
      <trkpt lat="49.81077" lon="4.88727">
        <ele>375</ele>
        <time>2021-07-31T08:31:15.000Z</time>
      </trkpt>
      <trkpt lat="49.81081" lon="4.88731">
        <ele>375</ele>
        <time>2021-07-31T08:31:16.000Z</time>
      </trkpt>
      <trkpt lat="49.81084" lon="4.88736">
        <ele>375</ele>
        <time>2021-07-31T08:31:17.000Z</time>
      </trkpt>
      <trkpt lat="49.81087" lon="4.88741">
        <ele>375</ele>
        <time>2021-07-31T08:31:18.000Z</time>
      </trkpt>
      <trkpt lat="49.8109" lon="4.88746">
        <ele>375</ele>
        <time>2021-07-31T08:31:19.000Z</time>
      </trkpt>
      <trkpt lat="49.81093" lon="4.88751">
        <ele>375</ele>
        <time>2021-07-31T08:31:20.000Z</time>
      </trkpt>
      <trkpt lat="49.81096" lon="4.88756">
        <ele>375</ele>
        <time>2021-07-31T08:31:21.000Z</time>
      </trkpt>
      <trkpt lat="49.81099" lon="4.8876">
        <ele>375</ele>
        <time>2021-07-31T08:31:22.000Z</time>
      </trkpt>
      <trkpt lat="49.81102" lon="4.88765">
        <ele>375</ele>
        <time>2021-07-31T08:31:23.000Z</time>
      </trkpt>
      <trkpt lat="49.81105" lon="4.8877">
        <ele>376</ele>
        <time>2021-07-31T08:31:24.000Z</time>
      </trkpt>
      <trkpt lat="49.81109" lon="4.88774">
        <ele>376</ele>
        <time>2021-07-31T08:31:25.000Z</time>
      </trkpt>
      <trkpt lat="49.81112" lon="4.88779">
        <ele>376</ele>
        <time>2021-07-31T08:31:26.000Z</time>
      </trkpt>
      <trkpt lat="49.81116" lon="4.88784">
        <ele>376</ele>
        <time>2021-07-31T08:31:27.000Z</time>
      </trkpt>
      <trkpt lat="49.81119" lon="4.8879">
        <ele>376</ele>
        <time>2021-07-31T08:31:28.000Z</time>
      </trkpt>
      <trkpt lat="49.81122" lon="4.88796">
        <ele>376</ele>
        <time>2021-07-31T08:31:29.000Z</time>
      </trkpt>
      <trkpt lat="49.81126" lon="4.88801">
        <ele>376</ele>
        <time>2021-07-31T08:31:30.000Z</time>
      </trkpt>
      <trkpt lat="49.8113" lon="4.88806">
        <ele>376</ele>
        <time>2021-07-31T08:31:31.000Z</time>
      </trkpt>
      <trkpt lat="49.81133" lon="4.88811">
        <ele>376</ele>
        <time>2021-07-31T08:31:32.000Z</time>
      </trkpt>
      <trkpt lat="49.81137" lon="4.88817">
        <ele>376</ele>
        <time>2021-07-31T08:31:33.000Z</time>
      </trkpt>
      <trkpt lat="49.81141" lon="4.88823">
        <ele>376</ele>
        <time>2021-07-31T08:31:34.000Z</time>
      </trkpt>
      <trkpt lat="49.81146" lon="4.88827">
        <ele>376</ele>
        <time>2021-07-31T08:31:35.000Z</time>
      </trkpt>
      <trkpt lat="49.8115" lon="4.88833">
        <ele>376</ele>
        <time>2021-07-31T08:31:36.000Z</time>
      </trkpt>
      <trkpt lat="49.81154" lon="4.88839">
        <ele>376</ele>
        <time>2021-07-31T08:31:37.000Z</time>
      </trkpt>
      <trkpt lat="49.81158" lon="4.88846">
        <ele>376</ele>
        <time>2021-07-31T08:31:38.000Z</time>
      </trkpt>
      <trkpt lat="49.81162" lon="4.88851">
        <ele>376</ele>
        <time>2021-07-31T08:31:39.000Z</time>
      </trkpt>
      <trkpt lat="49.81166" lon="4.88858">
        <ele>376</ele>
        <time>2021-07-31T08:31:40.000Z</time>
      </trkpt>
      <trkpt lat="49.81171" lon="4.88864">
        <ele>376</ele>
        <time>2021-07-31T08:31:41.000Z</time>
      </trkpt>
      <trkpt lat="49.81176" lon="4.88871">
        <ele>376</ele>
        <time>2021-07-31T08:31:42.000Z</time>
      </trkpt>
      <trkpt lat="49.8118" lon="4.88878">
        <ele>376</ele>
        <time>2021-07-31T08:31:43.000Z</time>
      </trkpt>
      <trkpt lat="49.81185" lon="4.88885">
        <ele>376</ele>
        <time>2021-07-31T08:31:44.000Z</time>
      </trkpt>
      <trkpt lat="49.8119" lon="4.88891">
        <ele>376</ele>
        <time>2021-07-31T08:31:45.000Z</time>
      </trkpt>
      <trkpt lat="49.81194" lon="4.88898">
        <ele>376</ele>
        <time>2021-07-31T08:31:46.000Z</time>
      </trkpt>
      <trkpt lat="49.812" lon="4.88905">
        <ele>376</ele>
        <time>2021-07-31T08:31:47.000Z</time>
      </trkpt>
      <trkpt lat="49.81205" lon="4.88912">
        <ele>376</ele>
        <time>2021-07-31T08:31:48.000Z</time>
      </trkpt>
      <trkpt lat="49.8121" lon="4.8892">
        <ele>376</ele>
        <time>2021-07-31T08:31:49.000Z</time>
      </trkpt>
      <trkpt lat="49.81215" lon="4.88928">
        <ele>376</ele>
        <time>2021-07-31T08:31:50.000Z</time>
      </trkpt>
      <trkpt lat="49.8122" lon="4.88935">
        <ele>376</ele>
        <time>2021-07-31T08:31:51.000Z</time>
      </trkpt>
      <trkpt lat="49.81226" lon="4.88943">
        <ele>376</ele>
        <time>2021-07-31T08:31:52.000Z</time>
      </trkpt>
      <trkpt lat="49.81231" lon="4.88951">
        <ele>376</ele>
        <time>2021-07-31T08:31:53.000Z</time>
      </trkpt>
      <trkpt lat="49.81236" lon="4.88959">
        <ele>376</ele>
        <time>2021-07-31T08:31:54.000Z</time>
      </trkpt>
      <trkpt lat="49.81241" lon="4.88966">
        <ele>376</ele>
        <time>2021-07-31T08:31:55.000Z</time>
      </trkpt>
      <trkpt lat="49.81245" lon="4.88973">
        <ele>376</ele>
        <time>2021-07-31T08:31:56.000Z</time>
      </trkpt>
      <trkpt lat="49.8125" lon="4.8898">
        <ele>376</ele>
        <time>2021-07-31T08:31:57.000Z</time>
      </trkpt>
      <trkpt lat="49.81255" lon="4.88987">
        <ele>376</ele>
        <time>2021-07-31T08:31:58.000Z</time>
      </trkpt>
      <trkpt lat="49.8126" lon="4.88994">
        <ele>376</ele>
        <time>2021-07-31T08:31:59.000Z</time>
      </trkpt>
      <trkpt lat="49.81264" lon="4.89">
        <ele>376</ele>
        <time>2021-07-31T08:32:00.000Z</time>
      </trkpt>
      <trkpt lat="49.81268" lon="4.89007">
        <ele>376</ele>
        <time>2021-07-31T08:32:01.000Z</time>
      </trkpt>
      <trkpt lat="49.81272" lon="4.89013">
        <ele>375</ele>
        <time>2021-07-31T08:32:02.000Z</time>
      </trkpt>
      <trkpt lat="49.81276" lon="4.89019">
        <ele>375</ele>
        <time>2021-07-31T08:32:03.000Z</time>
      </trkpt>
      <trkpt lat="49.8128" lon="4.89025">
        <ele>375</ele>
        <time>2021-07-31T08:32:04.000Z</time>
      </trkpt>
      <trkpt lat="49.81284" lon="4.89031">
        <ele>375</ele>
        <time>2021-07-31T08:32:05.000Z</time>
      </trkpt>
      <trkpt lat="49.81289" lon="4.89037">
        <ele>375</ele>
        <time>2021-07-31T08:32:06.000Z</time>
      </trkpt>
      <trkpt lat="49.81293" lon="4.89043">
        <ele>375</ele>
        <time>2021-07-31T08:32:07.000Z</time>
      </trkpt>
      <trkpt lat="49.81297" lon="4.8905">
        <ele>375</ele>
        <time>2021-07-31T08:32:08.000Z</time>
      </trkpt>
      <trkpt lat="49.81301" lon="4.89056">
        <ele>374</ele>
        <time>2021-07-31T08:32:09.000Z</time>
      </trkpt>
      <trkpt lat="49.81304" lon="4.89062">
        <ele>374</ele>
        <time>2021-07-31T08:32:10.000Z</time>
      </trkpt>
      <trkpt lat="49.81308" lon="4.89068">
        <ele>374</ele>
        <time>2021-07-31T08:32:11.000Z</time>
      </trkpt>
      <trkpt lat="49.81312" lon="4.89074">
        <ele>374</ele>
        <time>2021-07-31T08:32:12.000Z</time>
      </trkpt>
      <trkpt lat="49.81316" lon="4.8908">
        <ele>373</ele>
        <time>2021-07-31T08:32:13.000Z</time>
      </trkpt>
      <trkpt lat="49.8132" lon="4.89086">
        <ele>373</ele>
        <time>2021-07-31T08:32:14.000Z</time>
      </trkpt>
      <trkpt lat="49.81324" lon="4.89092">
        <ele>373</ele>
        <time>2021-07-31T08:32:15.000Z</time>
      </trkpt>
      <trkpt lat="49.81328" lon="4.89098">
        <ele>373</ele>
        <time>2021-07-31T08:32:16.000Z</time>
      </trkpt>
      <trkpt lat="49.81332" lon="4.89104">
        <ele>372</ele>
        <time>2021-07-31T08:32:17.000Z</time>
      </trkpt>
      <trkpt lat="49.81336" lon="4.8911">
        <ele>372</ele>
        <time>2021-07-31T08:32:18.000Z</time>
      </trkpt>
      <trkpt lat="49.8134" lon="4.89116">
        <ele>372</ele>
        <time>2021-07-31T08:32:19.000Z</time>
      </trkpt>
      <trkpt lat="49.81344" lon="4.89121">
        <ele>372</ele>
        <time>2021-07-31T08:32:20.000Z</time>
      </trkpt>
      <trkpt lat="49.81348" lon="4.89127">
        <ele>371</ele>
        <time>2021-07-31T08:32:21.000Z</time>
      </trkpt>
      <trkpt lat="49.81351" lon="4.89133">
        <ele>371</ele>
        <time>2021-07-31T08:32:22.000Z</time>
      </trkpt>
      <trkpt lat="49.81355" lon="4.89139">
        <ele>371</ele>
        <time>2021-07-31T08:32:23.000Z</time>
      </trkpt>
      <trkpt lat="49.81359" lon="4.89145">
        <ele>371</ele>
        <time>2021-07-31T08:32:24.000Z</time>
      </trkpt>
      <trkpt lat="49.81363" lon="4.89151">
        <ele>370</ele>
        <time>2021-07-31T08:32:25.000Z</time>
      </trkpt>
      <trkpt lat="49.81367" lon="4.89157">
        <ele>370</ele>
        <time>2021-07-31T08:32:26.000Z</time>
      </trkpt>
      <trkpt lat="49.8137" lon="4.89163">
        <ele>370</ele>
        <time>2021-07-31T08:32:27.000Z</time>
      </trkpt>
      <trkpt lat="49.81374" lon="4.89169">
        <ele>370</ele>
        <time>2021-07-31T08:32:28.000Z</time>
      </trkpt>
      <trkpt lat="49.81378" lon="4.89175">
        <ele>369</ele>
        <time>2021-07-31T08:32:29.000Z</time>
      </trkpt>
      <trkpt lat="49.81381" lon="4.89181">
        <ele>369</ele>
        <time>2021-07-31T08:32:30.000Z</time>
      </trkpt>
      <trkpt lat="49.81385" lon="4.89188">
        <ele>369</ele>
        <time>2021-07-31T08:32:31.000Z</time>
      </trkpt>
      <trkpt lat="49.81388" lon="4.89194">
        <ele>369</ele>
        <time>2021-07-31T08:32:32.000Z</time>
      </trkpt>
      <trkpt lat="49.81391" lon="4.89201">
        <ele>369</ele>
        <time>2021-07-31T08:32:33.000Z</time>
      </trkpt>
      <trkpt lat="49.81394" lon="4.89207">
        <ele>369</ele>
        <time>2021-07-31T08:32:34.000Z</time>
      </trkpt>
      <trkpt lat="49.81396" lon="4.89214">
        <ele>369</ele>
        <time>2021-07-31T08:32:35.000Z</time>
      </trkpt>
      <trkpt lat="49.81398" lon="4.89221">
        <ele>368</ele>
        <time>2021-07-31T08:32:36.000Z</time>
      </trkpt>
      <trkpt lat="49.81401" lon="4.89228">
        <ele>368</ele>
        <time>2021-07-31T08:32:37.000Z</time>
      </trkpt>
      <trkpt lat="49.81403" lon="4.89236">
        <ele>368</ele>
        <time>2021-07-31T08:32:38.000Z</time>
      </trkpt>
      <trkpt lat="49.81405" lon="4.89243">
        <ele>368</ele>
        <time>2021-07-31T08:32:39.000Z</time>
      </trkpt>
      <trkpt lat="49.81407" lon="4.89251">
        <ele>368</ele>
        <time>2021-07-31T08:32:40.000Z</time>
      </trkpt>
      <trkpt lat="49.81409" lon="4.89259">
        <ele>368</ele>
        <time>2021-07-31T08:32:41.000Z</time>
      </trkpt>
      <trkpt lat="49.8141" lon="4.89267">
        <ele>368</ele>
        <time>2021-07-31T08:32:42.000Z</time>
      </trkpt>
      <trkpt lat="49.81411" lon="4.89275">
        <ele>368</ele>
        <time>2021-07-31T08:32:43.000Z</time>
      </trkpt>
      <trkpt lat="49.81413" lon="4.89282">
        <ele>367</ele>
        <time>2021-07-31T08:32:44.000Z</time>
      </trkpt>
      <trkpt lat="49.81414" lon="4.89291">
        <ele>367</ele>
        <time>2021-07-31T08:32:45.000Z</time>
      </trkpt>
      <trkpt lat="49.81415" lon="4.89299">
        <ele>367</ele>
        <time>2021-07-31T08:32:46.000Z</time>
      </trkpt>
      <trkpt lat="49.81417" lon="4.89307">
        <ele>367</ele>
        <time>2021-07-31T08:32:47.000Z</time>
      </trkpt>
      <trkpt lat="49.81417" lon="4.89315">
        <ele>367</ele>
        <time>2021-07-31T08:32:48.000Z</time>
      </trkpt>
      <trkpt lat="49.81419" lon="4.89322">
        <ele>367</ele>
        <time>2021-07-31T08:32:49.000Z</time>
      </trkpt>
      <trkpt lat="49.8142" lon="4.89329">
        <ele>367</ele>
        <time>2021-07-31T08:32:50.000Z</time>
      </trkpt>
      <trkpt lat="49.81421" lon="4.89336">
        <ele>367</ele>
        <time>2021-07-31T08:32:51.000Z</time>
      </trkpt>
      <trkpt lat="49.81421" lon="4.89342">
        <ele>367</ele>
        <time>2021-07-31T08:32:52.000Z</time>
      </trkpt>
      <trkpt lat="49.81422" lon="4.89348">
        <ele>367</ele>
        <time>2021-07-31T08:32:53.000Z</time>
      </trkpt>
      <trkpt lat="49.81423" lon="4.89355">
        <ele>367</ele>
        <time>2021-07-31T08:32:54.000Z</time>
      </trkpt>
      <trkpt lat="49.81424" lon="4.89362">
        <ele>367</ele>
        <time>2021-07-31T08:32:55.000Z</time>
      </trkpt>
      <trkpt lat="49.81425" lon="4.89368">
        <ele>367</ele>
        <time>2021-07-31T08:32:56.000Z</time>
      </trkpt>
      <trkpt lat="49.81426" lon="4.89375">
        <ele>367</ele>
        <time>2021-07-31T08:32:57.000Z</time>
      </trkpt>
      <trkpt lat="49.81428" lon="4.89383">
        <ele>367</ele>
        <time>2021-07-31T08:32:58.000Z</time>
      </trkpt>
      <trkpt lat="49.81429" lon="4.8939">
        <ele>366</ele>
        <time>2021-07-31T08:32:59.000Z</time>
      </trkpt>
      <trkpt lat="49.8143" lon="4.89397">
        <ele>366</ele>
        <time>2021-07-31T08:33:00.000Z</time>
      </trkpt>
      <trkpt lat="49.81431" lon="4.89405">
        <ele>366</ele>
        <time>2021-07-31T08:33:01.000Z</time>
      </trkpt>
      <trkpt lat="49.81432" lon="4.89412">
        <ele>366</ele>
        <time>2021-07-31T08:33:02.000Z</time>
      </trkpt>
      <trkpt lat="49.81433" lon="4.89419">
        <ele>366</ele>
        <time>2021-07-31T08:33:03.000Z</time>
      </trkpt>
      <trkpt lat="49.81435" lon="4.89425">
        <ele>366</ele>
        <time>2021-07-31T08:33:04.000Z</time>
      </trkpt>
      <trkpt lat="49.81436" lon="4.89429">
        <ele>366</ele>
        <time>2021-07-31T08:33:05.000Z</time>
      </trkpt>
      <trkpt lat="49.81437" lon="4.8943">
        <ele>366</ele>
        <time>2021-07-31T08:33:06.000Z</time>
      </trkpt>
      <trkpt lat="49.81437" lon="4.89428">
        <ele>366</ele>
        <time>2021-07-31T08:33:07.000Z</time>
      </trkpt>
      <trkpt lat="49.81436" lon="4.89425">
        <ele>366</ele>
        <time>2021-07-31T08:33:08.000Z</time>
      </trkpt>
      <trkpt lat="49.81435" lon="4.8942">
        <ele>366</ele>
        <time>2021-07-31T08:33:09.000Z</time>
      </trkpt>
      <trkpt lat="49.81433" lon="4.89414">
        <ele>366</ele>
        <time>2021-07-31T08:33:10.000Z</time>
      </trkpt>
      <trkpt lat="49.81432" lon="4.89408">
        <ele>366</ele>
        <time>2021-07-31T08:33:11.000Z</time>
      </trkpt>
      <trkpt lat="49.81431" lon="4.89402">
        <ele>366</ele>
        <time>2021-07-31T08:33:12.000Z</time>
      </trkpt>
      <trkpt lat="49.8143" lon="4.89397">
        <ele>366</ele>
        <time>2021-07-31T08:33:13.000Z</time>
      </trkpt>
      <trkpt lat="49.81429" lon="4.89391">
        <ele>366</ele>
        <time>2021-07-31T08:33:14.000Z</time>
      </trkpt>
      <trkpt lat="49.81428" lon="4.89385">
        <ele>366</ele>
        <time>2021-07-31T08:33:15.000Z</time>
      </trkpt>
      <trkpt lat="49.81427" lon="4.89378">
        <ele>366</ele>
        <time>2021-07-31T08:33:16.000Z</time>
      </trkpt>
      <trkpt lat="49.81426" lon="4.89371">
        <ele>366</ele>
        <time>2021-07-31T08:33:17.000Z</time>
      </trkpt>
      <trkpt lat="49.81425" lon="4.89364">
        <ele>366</ele>
        <time>2021-07-31T08:33:18.000Z</time>
      </trkpt>
      <trkpt lat="49.81424" lon="4.89358">
        <ele>367</ele>
        <time>2021-07-31T08:33:19.000Z</time>
      </trkpt>
      <trkpt lat="49.81423" lon="4.89352">
        <ele>367</ele>
        <time>2021-07-31T08:33:20.000Z</time>
      </trkpt>
      <trkpt lat="49.81421" lon="4.89346">
        <ele>367</ele>
        <time>2021-07-31T08:33:21.000Z</time>
      </trkpt>
      <trkpt lat="49.81421" lon="4.89339">
        <ele>366</ele>
        <time>2021-07-31T08:33:22.000Z</time>
      </trkpt>
      <trkpt lat="49.8142" lon="4.89332">
        <ele>366</ele>
        <time>2021-07-31T08:33:23.000Z</time>
      </trkpt>
      <trkpt lat="49.81419" lon="4.89325">
        <ele>367</ele>
        <time>2021-07-31T08:33:24.000Z</time>
      </trkpt>
      <trkpt lat="49.81417" lon="4.89317">
        <ele>367</ele>
        <time>2021-07-31T08:33:25.000Z</time>
      </trkpt>
      <trkpt lat="49.81416" lon="4.8931">
        <ele>367</ele>
        <time>2021-07-31T08:33:26.000Z</time>
      </trkpt>
      <trkpt lat="49.81415" lon="4.89303">
        <ele>366</ele>
        <time>2021-07-31T08:33:27.000Z</time>
      </trkpt>
      <trkpt lat="49.81414" lon="4.89295">
        <ele>367</ele>
        <time>2021-07-31T08:33:28.000Z</time>
      </trkpt>
      <trkpt lat="49.81412" lon="4.89289">
        <ele>367</ele>
        <time>2021-07-31T08:33:29.000Z</time>
      </trkpt>
      <trkpt lat="49.81411" lon="4.89282">
        <ele>367</ele>
        <time>2021-07-31T08:33:30.000Z</time>
      </trkpt>
      <trkpt lat="49.8141" lon="4.89275">
        <ele>367</ele>
        <time>2021-07-31T08:33:31.000Z</time>
      </trkpt>
      <trkpt lat="49.81409" lon="4.89269">
        <ele>367</ele>
        <time>2021-07-31T08:33:32.000Z</time>
      </trkpt>
      <trkpt lat="49.81407" lon="4.89262">
        <ele>367</ele>
        <time>2021-07-31T08:33:33.000Z</time>
      </trkpt>
      <trkpt lat="49.81406" lon="4.89256">
        <ele>367</ele>
        <time>2021-07-31T08:33:34.000Z</time>
      </trkpt>
      <trkpt lat="49.81404" lon="4.89249">
        <ele>367</ele>
        <time>2021-07-31T08:33:35.000Z</time>
      </trkpt>
      <trkpt lat="49.81402" lon="4.89241">
        <ele>367</ele>
        <time>2021-07-31T08:33:36.000Z</time>
      </trkpt>
      <trkpt lat="49.814" lon="4.89234">
        <ele>367</ele>
        <time>2021-07-31T08:33:37.000Z</time>
      </trkpt>
      <trkpt lat="49.81398" lon="4.89227">
        <ele>367</ele>
        <time>2021-07-31T08:33:38.000Z</time>
      </trkpt>
      <trkpt lat="49.81396" lon="4.89219">
        <ele>367</ele>
        <time>2021-07-31T08:33:39.000Z</time>
      </trkpt>
      <trkpt lat="49.81394" lon="4.89212">
        <ele>367</ele>
        <time>2021-07-31T08:33:40.000Z</time>
      </trkpt>
      <trkpt lat="49.81391" lon="4.89204">
        <ele>367</ele>
        <time>2021-07-31T08:33:41.000Z</time>
      </trkpt>
      <trkpt lat="49.81387" lon="4.89196">
        <ele>367</ele>
        <time>2021-07-31T08:33:42.000Z</time>
      </trkpt>
      <trkpt lat="49.81384" lon="4.89189">
        <ele>367</ele>
        <time>2021-07-31T08:33:43.000Z</time>
      </trkpt>
      <trkpt lat="49.8138" lon="4.89182">
        <ele>367</ele>
        <time>2021-07-31T08:33:44.000Z</time>
      </trkpt>
      <trkpt lat="49.81376" lon="4.89175">
        <ele>367</ele>
        <time>2021-07-31T08:33:45.000Z</time>
      </trkpt>
      <trkpt lat="49.81371" lon="4.89167">
        <ele>367</ele>
        <time>2021-07-31T08:33:46.000Z</time>
      </trkpt>
      <trkpt lat="49.81367" lon="4.8916">
        <ele>367</ele>
        <time>2021-07-31T08:33:47.000Z</time>
      </trkpt>
      <trkpt lat="49.81362" lon="4.89152">
        <ele>367</ele>
        <time>2021-07-31T08:33:48.000Z</time>
      </trkpt>
      <trkpt lat="49.81357" lon="4.89145">
        <ele>367</ele>
        <time>2021-07-31T08:33:49.000Z</time>
      </trkpt>
      <trkpt lat="49.81352" lon="4.89138">
        <ele>367</ele>
        <time>2021-07-31T08:33:50.000Z</time>
      </trkpt>
      <trkpt lat="49.81346" lon="4.8913">
        <ele>367</ele>
        <time>2021-07-31T08:33:51.000Z</time>
      </trkpt>
      <trkpt lat="49.81341" lon="4.89123">
        <ele>367</ele>
        <time>2021-07-31T08:33:52.000Z</time>
      </trkpt>
      <trkpt lat="49.81336" lon="4.89115">
        <ele>367</ele>
        <time>2021-07-31T08:33:53.000Z</time>
      </trkpt>
      <trkpt lat="49.81331" lon="4.89107">
        <ele>367</ele>
        <time>2021-07-31T08:33:54.000Z</time>
      </trkpt>
      <trkpt lat="49.81326" lon="4.89099">
        <ele>367</ele>
        <time>2021-07-31T08:33:55.000Z</time>
      </trkpt>
      <trkpt lat="49.8132" lon="4.89091">
        <ele>367</ele>
        <time>2021-07-31T08:33:56.000Z</time>
      </trkpt>
      <trkpt lat="49.81315" lon="4.89083">
        <ele>367</ele>
        <time>2021-07-31T08:33:57.000Z</time>
      </trkpt>
      <trkpt lat="49.8131" lon="4.89075">
        <ele>367</ele>
        <time>2021-07-31T08:33:58.000Z</time>
      </trkpt>
      <trkpt lat="49.81304" lon="4.89067">
        <ele>367</ele>
        <time>2021-07-31T08:33:59.000Z</time>
      </trkpt>
      <trkpt lat="49.81299" lon="4.89059">
        <ele>367</ele>
        <time>2021-07-31T08:34:00.000Z</time>
      </trkpt>
      <trkpt lat="49.81293" lon="4.89051">
        <ele>367</ele>
        <time>2021-07-31T08:34:01.000Z</time>
      </trkpt>
      <trkpt lat="49.81287" lon="4.89044">
        <ele>367</ele>
        <time>2021-07-31T08:34:02.000Z</time>
      </trkpt>
      <trkpt lat="49.81282" lon="4.89035">
        <ele>367</ele>
        <time>2021-07-31T08:34:03.000Z</time>
      </trkpt>
      <trkpt lat="49.81276" lon="4.89027">
        <ele>367</ele>
        <time>2021-07-31T08:34:04.000Z</time>
      </trkpt>
      <trkpt lat="49.81271" lon="4.89019">
        <ele>367</ele>
        <time>2021-07-31T08:34:05.000Z</time>
      </trkpt>
      <trkpt lat="49.81265" lon="4.89011">
        <ele>367</ele>
        <time>2021-07-31T08:34:06.000Z</time>
      </trkpt>
      <trkpt lat="49.8126" lon="4.89003">
        <ele>367</ele>
        <time>2021-07-31T08:34:07.000Z</time>
      </trkpt>
      <trkpt lat="49.81254" lon="4.88995">
        <ele>367</ele>
        <time>2021-07-31T08:34:08.000Z</time>
      </trkpt>
      <trkpt lat="49.81249" lon="4.88987">
        <ele>367</ele>
        <time>2021-07-31T08:34:09.000Z</time>
      </trkpt>
      <trkpt lat="49.81244" lon="4.8898">
        <ele>367</ele>
        <time>2021-07-31T08:34:10.000Z</time>
      </trkpt>
      <trkpt lat="49.81239" lon="4.88972">
        <ele>367</ele>
        <time>2021-07-31T08:34:11.000Z</time>
      </trkpt>
      <trkpt lat="49.81234" lon="4.88964">
        <ele>367</ele>
        <time>2021-07-31T08:34:12.000Z</time>
      </trkpt>
      <trkpt lat="49.81229" lon="4.88957">
        <ele>368</ele>
        <time>2021-07-31T08:34:13.000Z</time>
      </trkpt>
      <trkpt lat="49.81224" lon="4.8895">
        <ele>368</ele>
        <time>2021-07-31T08:34:14.000Z</time>
      </trkpt>
      <trkpt lat="49.81219" lon="4.88943">
        <ele>368</ele>
        <time>2021-07-31T08:34:15.000Z</time>
      </trkpt>
      <trkpt lat="49.81215" lon="4.88937">
        <ele>368</ele>
        <time>2021-07-31T08:34:16.000Z</time>
      </trkpt>
      <trkpt lat="49.8121" lon="4.8893">
        <ele>368</ele>
        <time>2021-07-31T08:34:17.000Z</time>
      </trkpt>
      <trkpt lat="49.81206" lon="4.88924">
        <ele>368</ele>
        <time>2021-07-31T08:34:18.000Z</time>
      </trkpt>
      <trkpt lat="49.81202" lon="4.88918">
        <ele>368</ele>
        <time>2021-07-31T08:34:19.000Z</time>
      </trkpt>
      <trkpt lat="49.81198" lon="4.88913">
        <ele>369</ele>
        <time>2021-07-31T08:34:20.000Z</time>
      </trkpt>
      <trkpt lat="49.81194" lon="4.88907">
        <ele>369</ele>
        <time>2021-07-31T08:34:21.000Z</time>
      </trkpt>
      <trkpt lat="49.8119" lon="4.88901">
        <ele>370</ele>
        <time>2021-07-31T08:34:22.000Z</time>
      </trkpt>
      <trkpt lat="49.81187" lon="4.88896">
        <ele>370</ele>
        <time>2021-07-31T08:34:23.000Z</time>
      </trkpt>
      <trkpt lat="49.81184" lon="4.8889">
        <ele>371</ele>
        <time>2021-07-31T08:34:24.000Z</time>
      </trkpt>
      <trkpt lat="49.8118" lon="4.88885">
        <ele>371</ele>
        <time>2021-07-31T08:34:25.000Z</time>
      </trkpt>
      <trkpt lat="49.81178" lon="4.88881">
        <ele>372</ele>
        <time>2021-07-31T08:34:26.000Z</time>
      </trkpt>
      <trkpt lat="49.81174" lon="4.88877">
        <ele>372</ele>
        <time>2021-07-31T08:34:27.000Z</time>
      </trkpt>
      <trkpt lat="49.81171" lon="4.88873">
        <ele>373</ele>
        <time>2021-07-31T08:34:28.000Z</time>
      </trkpt>
      <trkpt lat="49.81167" lon="4.88868">
        <ele>373</ele>
        <time>2021-07-31T08:34:29.000Z</time>
      </trkpt>
      <trkpt lat="49.81163" lon="4.88864">
        <ele>374</ele>
        <time>2021-07-31T08:34:30.000Z</time>
      </trkpt>
      <trkpt lat="49.8116" lon="4.88858">
        <ele>374</ele>
        <time>2021-07-31T08:34:31.000Z</time>
      </trkpt>
      <trkpt lat="49.81157" lon="4.88853">
        <ele>374</ele>
        <time>2021-07-31T08:34:32.000Z</time>
      </trkpt>
      <trkpt lat="49.81154" lon="4.88848">
        <ele>375</ele>
        <time>2021-07-31T08:34:33.000Z</time>
      </trkpt>
      <trkpt lat="49.81152" lon="4.88844">
        <ele>375</ele>
        <time>2021-07-31T08:34:34.000Z</time>
      </trkpt>
      <trkpt lat="49.81149" lon="4.88839">
        <ele>375</ele>
        <time>2021-07-31T08:34:35.000Z</time>
      </trkpt>
      <trkpt lat="49.81145" lon="4.88834">
        <ele>376</ele>
        <time>2021-07-31T08:34:36.000Z</time>
      </trkpt>
      <trkpt lat="49.81142" lon="4.88828">
        <ele>376</ele>
        <time>2021-07-31T08:34:37.000Z</time>
      </trkpt>
      <trkpt lat="49.81139" lon="4.88824">
        <ele>376</ele>
        <time>2021-07-31T08:34:38.000Z</time>
      </trkpt>
      <trkpt lat="49.81137" lon="4.88819">
        <ele>376</ele>
        <time>2021-07-31T08:34:39.000Z</time>
      </trkpt>
      <trkpt lat="49.81133" lon="4.88815">
        <ele>376</ele>
        <time>2021-07-31T08:34:40.000Z</time>
      </trkpt>
      <trkpt lat="49.8113" lon="4.88811">
        <ele>377</ele>
        <time>2021-07-31T08:34:41.000Z</time>
      </trkpt>
      <trkpt lat="49.81127" lon="4.88807">
        <ele>377</ele>
        <time>2021-07-31T08:34:42.000Z</time>
      </trkpt>
      <trkpt lat="49.81124" lon="4.88803">
        <ele>377</ele>
        <time>2021-07-31T08:34:43.000Z</time>
      </trkpt>
      <trkpt lat="49.8112" lon="4.88797">
        <ele>377</ele>
        <time>2021-07-31T08:34:44.000Z</time>
      </trkpt>
      <trkpt lat="49.81117" lon="4.88792">
        <ele>377</ele>
        <time>2021-07-31T08:34:45.000Z</time>
      </trkpt>
      <trkpt lat="49.81113" lon="4.88788">
        <ele>377</ele>
        <time>2021-07-31T08:34:46.000Z</time>
      </trkpt>
      <trkpt lat="49.8111" lon="4.88784">
        <ele>378</ele>
        <time>2021-07-31T08:34:47.000Z</time>
      </trkpt>
      <trkpt lat="49.81106" lon="4.8878">
        <ele>378</ele>
        <time>2021-07-31T08:34:48.000Z</time>
      </trkpt>
      <trkpt lat="49.81102" lon="4.88775">
        <ele>378</ele>
        <time>2021-07-31T08:34:49.000Z</time>
      </trkpt>
      <trkpt lat="49.81098" lon="4.8877">
        <ele>378</ele>
        <time>2021-07-31T08:34:50.000Z</time>
      </trkpt>
      <trkpt lat="49.81094" lon="4.88764">
        <ele>378</ele>
        <time>2021-07-31T08:34:51.000Z</time>
      </trkpt>
      <trkpt lat="49.8109" lon="4.88759">
        <ele>378</ele>
        <time>2021-07-31T08:34:52.000Z</time>
      </trkpt>
      <trkpt lat="49.81087" lon="4.88753">
        <ele>378</ele>
        <time>2021-07-31T08:34:53.000Z</time>
      </trkpt>
      <trkpt lat="49.81084" lon="4.88748">
        <ele>378</ele>
        <time>2021-07-31T08:34:54.000Z</time>
      </trkpt>
      <trkpt lat="49.8108" lon="4.88742">
        <ele>378</ele>
        <time>2021-07-31T08:34:55.000Z</time>
      </trkpt>
      <trkpt lat="49.81077" lon="4.88737">
        <ele>378</ele>
        <time>2021-07-31T08:34:56.000Z</time>
      </trkpt>
      <trkpt lat="49.81073" lon="4.88731">
        <ele>378</ele>
        <time>2021-07-31T08:34:57.000Z</time>
      </trkpt>
      <trkpt lat="49.81069" lon="4.88725">
        <ele>378</ele>
        <time>2021-07-31T08:34:58.000Z</time>
      </trkpt>
      <trkpt lat="49.81065" lon="4.88719">
        <ele>378</ele>
        <time>2021-07-31T08:34:59.000Z</time>
      </trkpt>
      <trkpt lat="49.8106" lon="4.88713">
        <ele>378</ele>
        <time>2021-07-31T08:35:00.000Z</time>
      </trkpt>
      <trkpt lat="49.81056" lon="4.88707">
        <ele>378</ele>
        <time>2021-07-31T08:35:01.000Z</time>
      </trkpt>
      <trkpt lat="49.81051" lon="4.88701">
        <ele>378</ele>
        <time>2021-07-31T08:35:02.000Z</time>
      </trkpt>
      <trkpt lat="49.81047" lon="4.88694">
        <ele>378</ele>
        <time>2021-07-31T08:35:03.000Z</time>
      </trkpt>
      <trkpt lat="49.81042" lon="4.88686">
        <ele>378</ele>
        <time>2021-07-31T08:35:04.000Z</time>
      </trkpt>
      <trkpt lat="49.81037" lon="4.88679">
        <ele>378</ele>
        <time>2021-07-31T08:35:05.000Z</time>
      </trkpt>
      <trkpt lat="49.81032" lon="4.88672">
        <ele>378</ele>
        <time>2021-07-31T08:35:06.000Z</time>
      </trkpt>
      <trkpt lat="49.81027" lon="4.88665">
        <ele>378</ele>
        <time>2021-07-31T08:35:07.000Z</time>
      </trkpt>
      <trkpt lat="49.81021" lon="4.88658">
        <ele>378</ele>
        <time>2021-07-31T08:35:08.000Z</time>
      </trkpt>
      <trkpt lat="49.81016" lon="4.88651">
        <ele>377</ele>
        <time>2021-07-31T08:35:09.000Z</time>
      </trkpt>
      <trkpt lat="49.81011" lon="4.88644">
        <ele>377</ele>
        <time>2021-07-31T08:35:10.000Z</time>
      </trkpt>
      <trkpt lat="49.81006" lon="4.88637">
        <ele>377</ele>
        <time>2021-07-31T08:35:11.000Z</time>
      </trkpt>
      <trkpt lat="49.81002" lon="4.8863">
        <ele>377</ele>
        <time>2021-07-31T08:35:12.000Z</time>
      </trkpt>
      <trkpt lat="49.80997" lon="4.88623">
        <ele>377</ele>
        <time>2021-07-31T08:35:13.000Z</time>
      </trkpt>
      <trkpt lat="49.80993" lon="4.88615">
        <ele>377</ele>
        <time>2021-07-31T08:35:14.000Z</time>
      </trkpt>
      <trkpt lat="49.80989" lon="4.88608">
        <ele>377</ele>
        <time>2021-07-31T08:35:15.000Z</time>
      </trkpt>
      <trkpt lat="49.80984" lon="4.88601">
        <ele>377</ele>
        <time>2021-07-31T08:35:16.000Z</time>
      </trkpt>
      <trkpt lat="49.80979" lon="4.88594">
        <ele>377</ele>
        <time>2021-07-31T08:35:17.000Z</time>
      </trkpt>
      <trkpt lat="49.80974" lon="4.88586">
        <ele>377</ele>
        <time>2021-07-31T08:35:18.000Z</time>
      </trkpt>
      <trkpt lat="49.80969" lon="4.88579">
        <ele>377</ele>
        <time>2021-07-31T08:35:19.000Z</time>
      </trkpt>
      <trkpt lat="49.80964" lon="4.88573">
        <ele>377</ele>
        <time>2021-07-31T08:35:20.000Z</time>
      </trkpt>
      <trkpt lat="49.8096" lon="4.88566">
        <ele>377</ele>
        <time>2021-07-31T08:35:21.000Z</time>
      </trkpt>
      <trkpt lat="49.80955" lon="4.88559">
        <ele>377</ele>
        <time>2021-07-31T08:35:22.000Z</time>
      </trkpt>
      <trkpt lat="49.8095" lon="4.88552">
        <ele>377</ele>
        <time>2021-07-31T08:35:23.000Z</time>
      </trkpt>
      <trkpt lat="49.80946" lon="4.88546">
        <ele>377</ele>
        <time>2021-07-31T08:35:24.000Z</time>
      </trkpt>
      <trkpt lat="49.80941" lon="4.88539">
        <ele>377</ele>
        <time>2021-07-31T08:35:25.000Z</time>
      </trkpt>
      <trkpt lat="49.80937" lon="4.88533">
        <ele>377</ele>
        <time>2021-07-31T08:35:26.000Z</time>
      </trkpt>
      <trkpt lat="49.80933" lon="4.88527">
        <ele>377</ele>
        <time>2021-07-31T08:35:27.000Z</time>
      </trkpt>
      <trkpt lat="49.80928" lon="4.8852">
        <ele>377</ele>
        <time>2021-07-31T08:35:28.000Z</time>
      </trkpt>
      <trkpt lat="49.80924" lon="4.88514">
        <ele>377</ele>
        <time>2021-07-31T08:35:29.000Z</time>
      </trkpt>
      <trkpt lat="49.80919" lon="4.88507">
        <ele>376</ele>
        <time>2021-07-31T08:35:30.000Z</time>
      </trkpt>
      <trkpt lat="49.80915" lon="4.885">
        <ele>376</ele>
        <time>2021-07-31T08:35:31.000Z</time>
      </trkpt>
      <trkpt lat="49.8091" lon="4.88493">
        <ele>376</ele>
        <time>2021-07-31T08:35:32.000Z</time>
      </trkpt>
      <trkpt lat="49.80905" lon="4.88486">
        <ele>376</ele>
        <time>2021-07-31T08:35:33.000Z</time>
      </trkpt>
      <trkpt lat="49.809" lon="4.88479">
        <ele>376</ele>
        <time>2021-07-31T08:35:34.000Z</time>
      </trkpt>
      <trkpt lat="49.80895" lon="4.88472">
        <ele>376</ele>
        <time>2021-07-31T08:35:35.000Z</time>
      </trkpt>
      <trkpt lat="49.80891" lon="4.88465">
        <ele>376</ele>
        <time>2021-07-31T08:35:36.000Z</time>
      </trkpt>
      <trkpt lat="49.80886" lon="4.88459">
        <ele>376</ele>
        <time>2021-07-31T08:35:37.000Z</time>
      </trkpt>
      <trkpt lat="49.80882" lon="4.88452">
        <ele>376</ele>
        <time>2021-07-31T08:35:38.000Z</time>
      </trkpt>
      <trkpt lat="49.80877" lon="4.88446">
        <ele>377</ele>
        <time>2021-07-31T08:35:39.000Z</time>
      </trkpt>
      <trkpt lat="49.80873" lon="4.8844">
        <ele>377</ele>
        <time>2021-07-31T08:35:40.000Z</time>
      </trkpt>
      <trkpt lat="49.80869" lon="4.88434">
        <ele>377</ele>
        <time>2021-07-31T08:35:41.000Z</time>
      </trkpt>
      <trkpt lat="49.80865" lon="4.88428">
        <ele>377</ele>
        <time>2021-07-31T08:35:42.000Z</time>
      </trkpt>
      <trkpt lat="49.8086" lon="4.88423">
        <ele>377</ele>
        <time>2021-07-31T08:35:43.000Z</time>
      </trkpt>
      <trkpt lat="49.80856" lon="4.88417">
        <ele>377</ele>
        <time>2021-07-31T08:35:44.000Z</time>
      </trkpt>
      <trkpt lat="49.80852" lon="4.88412">
        <ele>377</ele>
        <time>2021-07-31T08:35:45.000Z</time>
      </trkpt>
      <trkpt lat="49.80848" lon="4.88406">
        <ele>377</ele>
        <time>2021-07-31T08:35:46.000Z</time>
      </trkpt>
      <trkpt lat="49.80844" lon="4.88402">
        <ele>377</ele>
        <time>2021-07-31T08:35:47.000Z</time>
      </trkpt>
      <trkpt lat="49.8084" lon="4.88399">
        <ele>377</ele>
        <time>2021-07-31T08:35:48.000Z</time>
      </trkpt>
      <trkpt lat="49.80835" lon="4.88395">
        <ele>377</ele>
        <time>2021-07-31T08:35:49.000Z</time>
      </trkpt>
      <trkpt lat="49.80831" lon="4.88392">
        <ele>377</ele>
        <time>2021-07-31T08:35:50.000Z</time>
      </trkpt>
      <trkpt lat="49.80826" lon="4.88389">
        <ele>377</ele>
        <time>2021-07-31T08:35:51.000Z</time>
      </trkpt>
      <trkpt lat="49.80821" lon="4.88387">
        <ele>377</ele>
        <time>2021-07-31T08:35:52.000Z</time>
      </trkpt>
      <trkpt lat="49.80817" lon="4.88385">
        <ele>377</ele>
        <time>2021-07-31T08:35:53.000Z</time>
      </trkpt>
      <trkpt lat="49.80812" lon="4.88383">
        <ele>376</ele>
        <time>2021-07-31T08:35:54.000Z</time>
      </trkpt>
      <trkpt lat="49.80806" lon="4.8838">
        <ele>376</ele>
        <time>2021-07-31T08:35:55.000Z</time>
      </trkpt>
      <trkpt lat="49.80801" lon="4.88377">
        <ele>376</ele>
        <time>2021-07-31T08:35:56.000Z</time>
      </trkpt>
      <trkpt lat="49.80795" lon="4.88374">
        <ele>376</ele>
        <time>2021-07-31T08:35:57.000Z</time>
      </trkpt>
      <trkpt lat="49.80789" lon="4.88371">
        <ele>376</ele>
        <time>2021-07-31T08:35:58.000Z</time>
      </trkpt>
      <trkpt lat="49.80783" lon="4.88369">
        <ele>376</ele>
        <time>2021-07-31T08:35:59.000Z</time>
      </trkpt>
      <trkpt lat="49.80777" lon="4.88366">
        <ele>376</ele>
        <time>2021-07-31T08:36:00.000Z</time>
      </trkpt>
      <trkpt lat="49.80772" lon="4.88363">
        <ele>375</ele>
        <time>2021-07-31T08:36:01.000Z</time>
      </trkpt>
      <trkpt lat="49.80766" lon="4.8836">
        <ele>375</ele>
        <time>2021-07-31T08:36:02.000Z</time>
      </trkpt>
      <trkpt lat="49.8076" lon="4.88357">
        <ele>375</ele>
        <time>2021-07-31T08:36:03.000Z</time>
      </trkpt>
      <trkpt lat="49.80753" lon="4.88355">
        <ele>375</ele>
        <time>2021-07-31T08:36:04.000Z</time>
      </trkpt>
      <trkpt lat="49.80747" lon="4.88352">
        <ele>375</ele>
        <time>2021-07-31T08:36:05.000Z</time>
      </trkpt>
      <trkpt lat="49.80741" lon="4.88349">
        <ele>375</ele>
        <time>2021-07-31T08:36:06.000Z</time>
      </trkpt>
      <trkpt lat="49.80735" lon="4.88347">
        <ele>374</ele>
        <time>2021-07-31T08:36:07.000Z</time>
      </trkpt>
      <trkpt lat="49.8073" lon="4.88345">
        <ele>374</ele>
        <time>2021-07-31T08:36:08.000Z</time>
      </trkpt>
      <trkpt lat="49.80725" lon="4.88343">
        <ele>374</ele>
        <time>2021-07-31T08:36:09.000Z</time>
      </trkpt>
      <trkpt lat="49.8072" lon="4.8834">
        <ele>374</ele>
        <time>2021-07-31T08:36:10.000Z</time>
      </trkpt>
      <trkpt lat="49.80715" lon="4.88338">
        <ele>374</ele>
        <time>2021-07-31T08:36:11.000Z</time>
      </trkpt>
      <trkpt lat="49.80711" lon="4.88336">
        <ele>374</ele>
        <time>2021-07-31T08:36:12.000Z</time>
      </trkpt>
      <trkpt lat="49.80707" lon="4.88334">
        <ele>373</ele>
        <time>2021-07-31T08:36:13.000Z</time>
      </trkpt>
      <trkpt lat="49.80703" lon="4.88331">
        <ele>373</ele>
        <time>2021-07-31T08:36:14.000Z</time>
      </trkpt>
      <trkpt lat="49.80699" lon="4.88329">
        <ele>373</ele>
        <time>2021-07-31T08:36:15.000Z</time>
      </trkpt>
      <trkpt lat="49.80696" lon="4.88326">
        <ele>373</ele>
        <time>2021-07-31T08:36:16.000Z</time>
      </trkpt>
      <trkpt lat="49.80692" lon="4.88323">
        <ele>373</ele>
        <time>2021-07-31T08:36:17.000Z</time>
      </trkpt>
      <trkpt lat="49.80689" lon="4.88319">
        <ele>373</ele>
        <time>2021-07-31T08:36:18.000Z</time>
      </trkpt>
      <trkpt lat="49.80686" lon="4.88314">
        <ele>373</ele>
        <time>2021-07-31T08:36:19.000Z</time>
      </trkpt>
      <trkpt lat="49.80684" lon="4.88309">
        <ele>373</ele>
        <time>2021-07-31T08:36:20.000Z</time>
      </trkpt>
      <trkpt lat="49.80681" lon="4.88304">
        <ele>373</ele>
        <time>2021-07-31T08:36:21.000Z</time>
      </trkpt>
      <trkpt lat="49.80679" lon="4.88299">
        <ele>373</ele>
        <time>2021-07-31T08:36:22.000Z</time>
      </trkpt>
      <trkpt lat="49.80677" lon="4.88294">
        <ele>372</ele>
        <time>2021-07-31T08:36:23.000Z</time>
      </trkpt>
      <trkpt lat="49.80675" lon="4.88289">
        <ele>372</ele>
        <time>2021-07-31T08:36:24.000Z</time>
      </trkpt>
      <trkpt lat="49.80673" lon="4.88283">
        <ele>372</ele>
        <time>2021-07-31T08:36:25.000Z</time>
      </trkpt>
      <trkpt lat="49.80671" lon="4.88278">
        <ele>372</ele>
        <time>2021-07-31T08:36:26.000Z</time>
      </trkpt>
      <trkpt lat="49.80669" lon="4.88273">
        <ele>372</ele>
        <time>2021-07-31T08:36:27.000Z</time>
      </trkpt>
      <trkpt lat="49.80667" lon="4.88268">
        <ele>372</ele>
        <time>2021-07-31T08:36:28.000Z</time>
      </trkpt>
      <trkpt lat="49.80665" lon="4.88262">
        <ele>372</ele>
        <time>2021-07-31T08:36:29.000Z</time>
      </trkpt>
      <trkpt lat="49.80663" lon="4.88257">
        <ele>371</ele>
        <time>2021-07-31T08:36:30.000Z</time>
      </trkpt>
      <trkpt lat="49.80661" lon="4.88252">
        <ele>371</ele>
        <time>2021-07-31T08:36:31.000Z</time>
      </trkpt>
      <trkpt lat="49.80659" lon="4.88246">
        <ele>371</ele>
        <time>2021-07-31T08:36:32.000Z</time>
      </trkpt>
      <trkpt lat="49.80657" lon="4.8824">
        <ele>371</ele>
        <time>2021-07-31T08:36:33.000Z</time>
      </trkpt>
      <trkpt lat="49.80655" lon="4.88235">
        <ele>371</ele>
        <time>2021-07-31T08:36:34.000Z</time>
      </trkpt>
      <trkpt lat="49.80653" lon="4.88229">
        <ele>371</ele>
        <time>2021-07-31T08:36:35.000Z</time>
      </trkpt>
      <trkpt lat="49.80651" lon="4.88223">
        <ele>371</ele>
        <time>2021-07-31T08:36:36.000Z</time>
      </trkpt>
      <trkpt lat="49.80649" lon="4.88217">
        <ele>371</ele>
        <time>2021-07-31T08:36:37.000Z</time>
      </trkpt>
      <trkpt lat="49.80647" lon="4.8821">
        <ele>371</ele>
        <time>2021-07-31T08:36:38.000Z</time>
      </trkpt>
      <trkpt lat="49.80644" lon="4.88203">
        <ele>371</ele>
        <time>2021-07-31T08:36:39.000Z</time>
      </trkpt>
      <trkpt lat="49.80642" lon="4.88196">
        <ele>371</ele>
        <time>2021-07-31T08:36:40.000Z</time>
      </trkpt>
      <trkpt lat="49.80639" lon="4.88189">
        <ele>371</ele>
        <time>2021-07-31T08:36:41.000Z</time>
      </trkpt>
      <trkpt lat="49.80637" lon="4.88182">
        <ele>371</ele>
        <time>2021-07-31T08:36:42.000Z</time>
      </trkpt>
      <trkpt lat="49.80634" lon="4.88175">
        <ele>371</ele>
        <time>2021-07-31T08:36:43.000Z</time>
      </trkpt>
      <trkpt lat="49.80631" lon="4.88168">
        <ele>371</ele>
        <time>2021-07-31T08:36:44.000Z</time>
      </trkpt>
      <trkpt lat="49.80628" lon="4.88161">
        <ele>371</ele>
        <time>2021-07-31T08:36:45.000Z</time>
      </trkpt>
      <trkpt lat="49.80626" lon="4.88154">
        <ele>371</ele>
        <time>2021-07-31T08:36:46.000Z</time>
      </trkpt>
      <trkpt lat="49.80623" lon="4.88147">
        <ele>371</ele>
        <time>2021-07-31T08:36:47.000Z</time>
      </trkpt>
      <trkpt lat="49.80621" lon="4.8814">
        <ele>371</ele>
        <time>2021-07-31T08:36:48.000Z</time>
      </trkpt>
      <trkpt lat="49.80618" lon="4.88133">
        <ele>371</ele>
        <time>2021-07-31T08:36:49.000Z</time>
      </trkpt>
      <trkpt lat="49.80616" lon="4.88126">
        <ele>371</ele>
        <time>2021-07-31T08:36:50.000Z</time>
      </trkpt>
      <trkpt lat="49.80613" lon="4.88119">
        <ele>371</ele>
        <time>2021-07-31T08:36:51.000Z</time>
      </trkpt>
      <trkpt lat="49.80611" lon="4.88112">
        <ele>371</ele>
        <time>2021-07-31T08:36:52.000Z</time>
      </trkpt>
      <trkpt lat="49.80608" lon="4.88105">
        <ele>371</ele>
        <time>2021-07-31T08:36:53.000Z</time>
      </trkpt>
      <trkpt lat="49.80606" lon="4.88098">
        <ele>371</ele>
        <time>2021-07-31T08:36:54.000Z</time>
      </trkpt>
      <trkpt lat="49.80604" lon="4.88092">
        <ele>371</ele>
        <time>2021-07-31T08:36:55.000Z</time>
      </trkpt>
      <trkpt lat="49.80601" lon="4.88086">
        <ele>371</ele>
        <time>2021-07-31T08:36:56.000Z</time>
      </trkpt>
      <trkpt lat="49.80599" lon="4.88081">
        <ele>371</ele>
        <time>2021-07-31T08:36:57.000Z</time>
      </trkpt>
      <trkpt lat="49.80596" lon="4.88076">
        <ele>371</ele>
        <time>2021-07-31T08:36:58.000Z</time>
      </trkpt>
      <trkpt lat="49.80594" lon="4.88071">
        <ele>371</ele>
        <time>2021-07-31T08:36:59.000Z</time>
      </trkpt>
      <trkpt lat="49.80593" lon="4.88066">
        <ele>371</ele>
        <time>2021-07-31T08:37:00.000Z</time>
      </trkpt>
      <trkpt lat="49.80592" lon="4.88061">
        <ele>370</ele>
        <time>2021-07-31T08:37:01.000Z</time>
      </trkpt>
      <trkpt lat="49.80591" lon="4.88055">
        <ele>370</ele>
        <time>2021-07-31T08:37:02.000Z</time>
      </trkpt>
      <trkpt lat="49.80589" lon="4.8805">
        <ele>370</ele>
        <time>2021-07-31T08:37:03.000Z</time>
      </trkpt>
      <trkpt lat="49.80587" lon="4.88046">
        <ele>370</ele>
        <time>2021-07-31T08:37:04.000Z</time>
      </trkpt>
      <trkpt lat="49.80585" lon="4.88043">
        <ele>370</ele>
        <time>2021-07-31T08:37:05.000Z</time>
      </trkpt>
      <trkpt lat="49.80584" lon="4.88043">
        <ele>370</ele>
        <time>2021-07-31T08:37:06.000Z</time>
      </trkpt>
      <trkpt lat="49.80583" lon="4.88043">
        <ele>370</ele>
        <time>2021-07-31T08:37:07.000Z</time>
      </trkpt>
      <trkpt lat="49.80583" lon="4.88042">
        <ele>369</ele>
        <time>2021-07-31T08:37:08.000Z</time>
      </trkpt>
      <trkpt lat="49.80583" lon="4.88043">
        <ele>369</ele>
        <time>2021-07-31T08:37:09.000Z</time>
      </trkpt>
      <trkpt lat="49.80583" lon="4.88043">
        <ele>369</ele>
        <time>2021-07-31T08:37:10.000Z</time>
      </trkpt>
      <trkpt lat="49.80583" lon="4.88043">
        <ele>369</ele>
        <time>2021-07-31T08:37:11.000Z</time>
      </trkpt>
      <trkpt lat="49.80582" lon="4.88042">
        <ele>369</ele>
        <time>2021-07-31T08:37:12.000Z</time>
      </trkpt>
      <trkpt lat="49.80582" lon="4.88042">
        <ele>369</ele>
        <time>2021-07-31T08:37:13.000Z</time>
      </trkpt>
      <trkpt lat="49.80581" lon="4.88043">
        <ele>369</ele>
        <time>2021-07-31T08:37:14.000Z</time>
      </trkpt>
      <trkpt lat="49.8058" lon="4.88042">
        <ele>369</ele>
        <time>2021-07-31T08:37:15.000Z</time>
      </trkpt>
      <trkpt lat="49.8058" lon="4.88042">
        <ele>368</ele>
        <time>2021-07-31T08:37:16.000Z</time>
      </trkpt>
      <trkpt lat="49.8058" lon="4.88042">
        <ele>368</ele>
        <time>2021-07-31T08:37:17.000Z</time>
      </trkpt>
      <trkpt lat="49.80579" lon="4.88042">
        <ele>368</ele>
        <time>2021-07-31T08:37:18.000Z</time>
      </trkpt>
      <trkpt lat="49.8058" lon="4.88042">
        <ele>368</ele>
        <time>2021-07-31T08:37:19.000Z</time>
      </trkpt>
      <trkpt lat="49.8058" lon="4.88042">
        <ele>368</ele>
        <time>2021-07-31T08:37:20.000Z</time>
      </trkpt>
      <trkpt lat="49.8058" lon="4.88042">
        <ele>368</ele>
        <time>2021-07-31T08:37:21.000Z</time>
      </trkpt>
      <trkpt lat="49.80581" lon="4.88042">
        <ele>368</ele>
        <time>2021-07-31T08:37:22.000Z</time>
      </trkpt>
      <trkpt lat="49.80582" lon="4.88042">
        <ele>368</ele>
        <time>2021-07-31T08:37:23.000Z</time>
      </trkpt>
      <trkpt lat="49.80582" lon="4.88043">
        <ele>368</ele>
        <time>2021-07-31T08:37:24.000Z</time>
      </trkpt>
      <trkpt lat="49.80582" lon="4.88043">
        <ele>368</ele>
        <time>2021-07-31T08:37:25.000Z</time>
      </trkpt>
      <trkpt lat="49.80582" lon="4.88043">
        <ele>368</ele>
        <time>2021-07-31T08:37:26.000Z</time>
      </trkpt>
      <trkpt lat="49.80583" lon="4.88043">
        <ele>367</ele>
        <time>2021-07-31T08:37:27.000Z</time>
      </trkpt>
      <trkpt lat="49.80583" lon="4.88043">
        <ele>367</ele>
        <time>2021-07-31T08:37:28.000Z</time>
      </trkpt>
      <trkpt lat="49.80584" lon="4.88042">
        <ele>367</ele>
        <time>2021-07-31T08:37:29.000Z</time>
      </trkpt>
      <trkpt lat="49.80585" lon="4.88041">
        <ele>367</ele>
        <time>2021-07-31T08:37:30.000Z</time>
      </trkpt>
      <trkpt lat="49.80585" lon="4.8804">
        <ele>367</ele>
        <time>2021-07-31T08:37:31.000Z</time>
      </trkpt>
      <trkpt lat="49.80585" lon="4.88038">
        <ele>367</ele>
        <time>2021-07-31T08:37:32.000Z</time>
      </trkpt>
      <trkpt lat="49.80584" lon="4.88037">
        <ele>366</ele>
        <time>2021-07-31T08:37:33.000Z</time>
      </trkpt>
      <trkpt lat="49.80583" lon="4.88037">
        <ele>366</ele>
        <time>2021-07-31T08:37:34.000Z</time>
      </trkpt>
      <trkpt lat="49.80582" lon="4.88037">
        <ele>366</ele>
        <time>2021-07-31T08:37:35.000Z</time>
      </trkpt>
      <trkpt lat="49.80581" lon="4.88036">
        <ele>366</ele>
        <time>2021-07-31T08:37:36.000Z</time>
      </trkpt>
      <trkpt lat="49.80579" lon="4.88035">
        <ele>366</ele>
        <time>2021-07-31T08:37:37.000Z</time>
      </trkpt>
      <trkpt lat="49.80578" lon="4.88035">
        <ele>365</ele>
        <time>2021-07-31T08:37:38.000Z</time>
      </trkpt>
      <trkpt lat="49.80577" lon="4.88034">
        <ele>365</ele>
        <time>2021-07-31T08:37:39.000Z</time>
      </trkpt>
      <trkpt lat="49.80576" lon="4.88033">
        <ele>365</ele>
        <time>2021-07-31T08:37:40.000Z</time>
      </trkpt>
      <trkpt lat="49.80576" lon="4.88033">
        <ele>365</ele>
        <time>2021-07-31T08:37:41.000Z</time>
      </trkpt>
      <trkpt lat="49.80575" lon="4.88032">
        <ele>365</ele>
        <time>2021-07-31T08:37:42.000Z</time>
      </trkpt>
      <trkpt lat="49.80575" lon="4.8803">
        <ele>366</ele>
        <time>2021-07-31T08:37:43.000Z</time>
      </trkpt>
      <trkpt lat="49.80575" lon="4.88029">
        <ele>366</ele>
        <time>2021-07-31T08:37:44.000Z</time>
      </trkpt>
      <trkpt lat="49.80574" lon="4.88027">
        <ele>366</ele>
        <time>2021-07-31T08:37:45.000Z</time>
      </trkpt>
      <trkpt lat="49.80573" lon="4.88025">
        <ele>366</ele>
        <time>2021-07-31T08:37:46.000Z</time>
      </trkpt>
      <trkpt lat="49.80573" lon="4.88023">
        <ele>366</ele>
        <time>2021-07-31T08:37:47.000Z</time>
      </trkpt>
      <trkpt lat="49.80573" lon="4.88021">
        <ele>366</ele>
        <time>2021-07-31T08:37:48.000Z</time>
      </trkpt>
      <trkpt lat="49.80572" lon="4.8802">
        <ele>366</ele>
        <time>2021-07-31T08:37:49.000Z</time>
      </trkpt>
      <trkpt lat="49.80571" lon="4.88019">
        <ele>366</ele>
        <time>2021-07-31T08:37:50.000Z</time>
      </trkpt>
      <trkpt lat="49.8057" lon="4.88017">
        <ele>366</ele>
        <time>2021-07-31T08:37:51.000Z</time>
      </trkpt>
      <trkpt lat="49.80569" lon="4.88016">
        <ele>367</ele>
        <time>2021-07-31T08:37:52.000Z</time>
      </trkpt>
      <trkpt lat="49.80569" lon="4.88015">
        <ele>367</ele>
        <time>2021-07-31T08:37:53.000Z</time>
      </trkpt>
      <trkpt lat="49.80568" lon="4.88014">
        <ele>367</ele>
        <time>2021-07-31T08:37:54.000Z</time>
      </trkpt>
      <trkpt lat="49.80568" lon="4.88012">
        <ele>367</ele>
        <time>2021-07-31T08:37:55.000Z</time>
      </trkpt>
      <trkpt lat="49.80567" lon="4.8801">
        <ele>367</ele>
        <time>2021-07-31T08:37:56.000Z</time>
      </trkpt>
      <trkpt lat="49.80566" lon="4.88009">
        <ele>367</ele>
        <time>2021-07-31T08:37:57.000Z</time>
      </trkpt>
      <trkpt lat="49.80566" lon="4.88008">
        <ele>368</ele>
        <time>2021-07-31T08:37:58.000Z</time>
      </trkpt>
      <trkpt lat="49.80565" lon="4.88007">
        <ele>368</ele>
        <time>2021-07-31T08:37:59.000Z</time>
      </trkpt>
      <trkpt lat="49.80565" lon="4.88006">
        <ele>368</ele>
        <time>2021-07-31T08:38:00.000Z</time>
      </trkpt>
      <trkpt lat="49.80565" lon="4.88005">
        <ele>368</ele>
        <time>2021-07-31T08:38:01.000Z</time>
      </trkpt>
      <trkpt lat="49.80565" lon="4.88004">
        <ele>368</ele>
        <time>2021-07-31T08:38:02.000Z</time>
      </trkpt>
      <trkpt lat="49.80566" lon="4.88004">
        <ele>368</ele>
        <time>2021-07-31T08:38:03.000Z</time>
      </trkpt>
      <trkpt lat="49.80567" lon="4.88003">
        <ele>369</ele>
        <time>2021-07-31T08:38:04.000Z</time>
      </trkpt>
      <trkpt lat="49.80568" lon="4.88001">
        <ele>369</ele>
        <time>2021-07-31T08:38:05.000Z</time>
      </trkpt>
      <trkpt lat="49.80568" lon="4.88">
        <ele>369</ele>
        <time>2021-07-31T08:38:06.000Z</time>
      </trkpt>
      <trkpt lat="49.80569" lon="4.87999">
        <ele>369</ele>
        <time>2021-07-31T08:38:07.000Z</time>
      </trkpt>
      <trkpt lat="49.80569" lon="4.87998">
        <ele>369</ele>
        <time>2021-07-31T08:38:08.000Z</time>
      </trkpt>
      <trkpt lat="49.80569" lon="4.87996">
        <ele>370</ele>
        <time>2021-07-31T08:38:09.000Z</time>
      </trkpt>
      <trkpt lat="49.80569" lon="4.87996">
        <ele>370</ele>
        <time>2021-07-31T08:38:10.000Z</time>
      </trkpt>
      <trkpt lat="49.80569" lon="4.87994">
        <ele>370</ele>
        <time>2021-07-31T08:38:11.000Z</time>
      </trkpt>
      <trkpt lat="49.80568" lon="4.87992">
        <ele>370</ele>
        <time>2021-07-31T08:38:12.000Z</time>
      </trkpt>
      <trkpt lat="49.80567" lon="4.87988">
        <ele>370</ele>
        <time>2021-07-31T08:38:13.000Z</time>
      </trkpt>
      <trkpt lat="49.80565" lon="4.87984">
        <ele>370</ele>
        <time>2021-07-31T08:38:14.000Z</time>
      </trkpt>
      <trkpt lat="49.80564" lon="4.8798">
        <ele>370</ele>
        <time>2021-07-31T08:38:15.000Z</time>
      </trkpt>
      <trkpt lat="49.80563" lon="4.87976">
        <ele>370</ele>
        <time>2021-07-31T08:38:16.000Z</time>
      </trkpt>
      <trkpt lat="49.80561" lon="4.87971">
        <ele>370</ele>
        <time>2021-07-31T08:38:17.000Z</time>
      </trkpt>
      <trkpt lat="49.8056" lon="4.87966">
        <ele>370</ele>
        <time>2021-07-31T08:38:18.000Z</time>
      </trkpt>
      <trkpt lat="49.80558" lon="4.87962">
        <ele>370</ele>
        <time>2021-07-31T08:38:19.000Z</time>
      </trkpt>
      <trkpt lat="49.80556" lon="4.87958">
        <ele>370</ele>
        <time>2021-07-31T08:38:20.000Z</time>
      </trkpt>
      <trkpt lat="49.80554" lon="4.87953">
        <ele>370</ele>
        <time>2021-07-31T08:38:21.000Z</time>
      </trkpt>
      <trkpt lat="49.80552" lon="4.87948">
        <ele>370</ele>
        <time>2021-07-31T08:38:22.000Z</time>
      </trkpt>
      <trkpt lat="49.80551" lon="4.87942">
        <ele>370</ele>
        <time>2021-07-31T08:38:23.000Z</time>
      </trkpt>
      <trkpt lat="49.80549" lon="4.87937">
        <ele>370</ele>
        <time>2021-07-31T08:38:24.000Z</time>
      </trkpt>
      <trkpt lat="49.80546" lon="4.87931">
        <ele>370</ele>
        <time>2021-07-31T08:38:25.000Z</time>
      </trkpt>
      <trkpt lat="49.80544" lon="4.87925">
        <ele>370</ele>
        <time>2021-07-31T08:38:26.000Z</time>
      </trkpt>
      <trkpt lat="49.80542" lon="4.87919">
        <ele>370</ele>
        <time>2021-07-31T08:38:27.000Z</time>
      </trkpt>
      <trkpt lat="49.8054" lon="4.87913">
        <ele>370</ele>
        <time>2021-07-31T08:38:28.000Z</time>
      </trkpt>
      <trkpt lat="49.80538" lon="4.87907">
        <ele>370</ele>
        <time>2021-07-31T08:38:29.000Z</time>
      </trkpt>
      <trkpt lat="49.80535" lon="4.87901">
        <ele>370</ele>
        <time>2021-07-31T08:38:30.000Z</time>
      </trkpt>
      <trkpt lat="49.80533" lon="4.87895">
        <ele>370</ele>
        <time>2021-07-31T08:38:31.000Z</time>
      </trkpt>
      <trkpt lat="49.80531" lon="4.87889">
        <ele>370</ele>
        <time>2021-07-31T08:38:32.000Z</time>
      </trkpt>
      <trkpt lat="49.80529" lon="4.87883">
        <ele>370</ele>
        <time>2021-07-31T08:38:33.000Z</time>
      </trkpt>
      <trkpt lat="49.80527" lon="4.87877">
        <ele>370</ele>
        <time>2021-07-31T08:38:34.000Z</time>
      </trkpt>
      <trkpt lat="49.80524" lon="4.87871">
        <ele>370</ele>
        <time>2021-07-31T08:38:35.000Z</time>
      </trkpt>
      <trkpt lat="49.80522" lon="4.87864">
        <ele>370</ele>
        <time>2021-07-31T08:38:36.000Z</time>
      </trkpt>
      <trkpt lat="49.80519" lon="4.87857">
        <ele>370</ele>
        <time>2021-07-31T08:38:37.000Z</time>
      </trkpt>
      <trkpt lat="49.80516" lon="4.8785">
        <ele>370</ele>
        <time>2021-07-31T08:38:38.000Z</time>
      </trkpt>
      <trkpt lat="49.80514" lon="4.87844">
        <ele>370</ele>
        <time>2021-07-31T08:38:39.000Z</time>
      </trkpt>
      <trkpt lat="49.80511" lon="4.87837">
        <ele>370</ele>
        <time>2021-07-31T08:38:40.000Z</time>
      </trkpt>
      <trkpt lat="49.80508" lon="4.8783">
        <ele>370</ele>
        <time>2021-07-31T08:38:41.000Z</time>
      </trkpt>
      <trkpt lat="49.80506" lon="4.87823">
        <ele>370</ele>
        <time>2021-07-31T08:38:42.000Z</time>
      </trkpt>
      <trkpt lat="49.80503" lon="4.87816">
        <ele>370</ele>
        <time>2021-07-31T08:38:43.000Z</time>
      </trkpt>
      <trkpt lat="49.80501" lon="4.87809">
        <ele>369</ele>
        <time>2021-07-31T08:38:44.000Z</time>
      </trkpt>
      <trkpt lat="49.80498" lon="4.87801">
        <ele>369</ele>
        <time>2021-07-31T08:38:45.000Z</time>
      </trkpt>
      <trkpt lat="49.80496" lon="4.87795">
        <ele>369</ele>
        <time>2021-07-31T08:38:46.000Z</time>
      </trkpt>
      <trkpt lat="49.80493" lon="4.87788">
        <ele>369</ele>
        <time>2021-07-31T08:38:47.000Z</time>
      </trkpt>
      <trkpt lat="49.80491" lon="4.8778">
        <ele>369</ele>
        <time>2021-07-31T08:38:48.000Z</time>
      </trkpt>
      <trkpt lat="49.80489" lon="4.87773">
        <ele>369</ele>
        <time>2021-07-31T08:38:49.000Z</time>
      </trkpt>
      <trkpt lat="49.80487" lon="4.87766">
        <ele>369</ele>
        <time>2021-07-31T08:38:50.000Z</time>
      </trkpt>
      <trkpt lat="49.80485" lon="4.87759">
        <ele>369</ele>
        <time>2021-07-31T08:38:51.000Z</time>
      </trkpt>
      <trkpt lat="49.80483" lon="4.87752">
        <ele>369</ele>
        <time>2021-07-31T08:38:52.000Z</time>
      </trkpt>
      <trkpt lat="49.80481" lon="4.87746">
        <ele>369</ele>
        <time>2021-07-31T08:38:53.000Z</time>
      </trkpt>
      <trkpt lat="49.80479" lon="4.8774">
        <ele>369</ele>
        <time>2021-07-31T08:38:54.000Z</time>
      </trkpt>
      <trkpt lat="49.80477" lon="4.87733">
        <ele>369</ele>
        <time>2021-07-31T08:38:55.000Z</time>
      </trkpt>
      <trkpt lat="49.80475" lon="4.87727">
        <ele>369</ele>
        <time>2021-07-31T08:38:56.000Z</time>
      </trkpt>
      <trkpt lat="49.80473" lon="4.87721">
        <ele>369</ele>
        <time>2021-07-31T08:38:57.000Z</time>
      </trkpt>
      <trkpt lat="49.80472" lon="4.87715">
        <ele>369</ele>
        <time>2021-07-31T08:38:58.000Z</time>
      </trkpt>
      <trkpt lat="49.8047" lon="4.87709">
        <ele>370</ele>
        <time>2021-07-31T08:38:59.000Z</time>
      </trkpt>
      <trkpt lat="49.80468" lon="4.87703">
        <ele>370</ele>
        <time>2021-07-31T08:39:00.000Z</time>
      </trkpt>
      <trkpt lat="49.80467" lon="4.87698">
        <ele>370</ele>
        <time>2021-07-31T08:39:01.000Z</time>
      </trkpt>
      <trkpt lat="49.80465" lon="4.87692">
        <ele>370</ele>
        <time>2021-07-31T08:39:02.000Z</time>
      </trkpt>
      <trkpt lat="49.80464" lon="4.87687">
        <ele>370</ele>
        <time>2021-07-31T08:39:03.000Z</time>
      </trkpt>
      <trkpt lat="49.80463" lon="4.87681">
        <ele>370</ele>
        <time>2021-07-31T08:39:04.000Z</time>
      </trkpt>
      <trkpt lat="49.80462" lon="4.87676">
        <ele>370</ele>
        <time>2021-07-31T08:39:05.000Z</time>
      </trkpt>
      <trkpt lat="49.8046" lon="4.8767">
        <ele>370</ele>
        <time>2021-07-31T08:39:06.000Z</time>
      </trkpt>
      <trkpt lat="49.80459" lon="4.87665">
        <ele>370</ele>
        <time>2021-07-31T08:39:07.000Z</time>
      </trkpt>
      <trkpt lat="49.80457" lon="4.87659">
        <ele>370</ele>
        <time>2021-07-31T08:39:08.000Z</time>
      </trkpt>
      <trkpt lat="49.80456" lon="4.87653">
        <ele>370</ele>
        <time>2021-07-31T08:39:09.000Z</time>
      </trkpt>
      <trkpt lat="49.80454" lon="4.87647">
        <ele>371</ele>
        <time>2021-07-31T08:39:10.000Z</time>
      </trkpt>
      <trkpt lat="49.80453" lon="4.87641">
        <ele>371</ele>
        <time>2021-07-31T08:39:11.000Z</time>
      </trkpt>
      <trkpt lat="49.80451" lon="4.87634">
        <ele>371</ele>
        <time>2021-07-31T08:39:12.000Z</time>
      </trkpt>
      <trkpt lat="49.80449" lon="4.87628">
        <ele>371</ele>
        <time>2021-07-31T08:39:13.000Z</time>
      </trkpt>
      <trkpt lat="49.80448" lon="4.87622">
        <ele>371</ele>
        <time>2021-07-31T08:39:14.000Z</time>
      </trkpt>
      <trkpt lat="49.80447" lon="4.87616">
        <ele>371</ele>
        <time>2021-07-31T08:39:15.000Z</time>
      </trkpt>
      <trkpt lat="49.80445" lon="4.8761">
        <ele>371</ele>
        <time>2021-07-31T08:39:16.000Z</time>
      </trkpt>
      <trkpt lat="49.80444" lon="4.87604">
        <ele>371</ele>
        <time>2021-07-31T08:39:17.000Z</time>
      </trkpt>
      <trkpt lat="49.80443" lon="4.87598">
        <ele>371</ele>
        <time>2021-07-31T08:39:18.000Z</time>
      </trkpt>
      <trkpt lat="49.80441" lon="4.87592">
        <ele>371</ele>
        <time>2021-07-31T08:39:19.000Z</time>
      </trkpt>
      <trkpt lat="49.8044" lon="4.87586">
        <ele>371</ele>
        <time>2021-07-31T08:39:20.000Z</time>
      </trkpt>
      <trkpt lat="49.80438" lon="4.8758">
        <ele>371</ele>
        <time>2021-07-31T08:39:21.000Z</time>
      </trkpt>
      <trkpt lat="49.80437" lon="4.87574">
        <ele>372</ele>
        <time>2021-07-31T08:39:22.000Z</time>
      </trkpt>
      <trkpt lat="49.80436" lon="4.87569">
        <ele>372</ele>
        <time>2021-07-31T08:39:23.000Z</time>
      </trkpt>
      <trkpt lat="49.80434" lon="4.87564">
        <ele>372</ele>
        <time>2021-07-31T08:39:24.000Z</time>
      </trkpt>
      <trkpt lat="49.80433" lon="4.87558">
        <ele>372</ele>
        <time>2021-07-31T08:39:25.000Z</time>
      </trkpt>
      <trkpt lat="49.80432" lon="4.87554">
        <ele>371</ele>
        <time>2021-07-31T08:39:26.000Z</time>
      </trkpt>
      <trkpt lat="49.80431" lon="4.87549">
        <ele>371</ele>
        <time>2021-07-31T08:39:27.000Z</time>
      </trkpt>
      <trkpt lat="49.8043" lon="4.87544">
        <ele>371</ele>
        <time>2021-07-31T08:39:28.000Z</time>
      </trkpt>
      <trkpt lat="49.80429" lon="4.8754">
        <ele>371</ele>
        <time>2021-07-31T08:39:29.000Z</time>
      </trkpt>
      <trkpt lat="49.80429" lon="4.87535">
        <ele>371</ele>
        <time>2021-07-31T08:39:30.000Z</time>
      </trkpt>
      <trkpt lat="49.80428" lon="4.87531">
        <ele>372</ele>
        <time>2021-07-31T08:39:31.000Z</time>
      </trkpt>
      <trkpt lat="49.80427" lon="4.87528">
        <ele>372</ele>
        <time>2021-07-31T08:39:32.000Z</time>
      </trkpt>
      <trkpt lat="49.80427" lon="4.87524">
        <ele>372</ele>
        <time>2021-07-31T08:39:33.000Z</time>
      </trkpt>
      <trkpt lat="49.80426" lon="4.8752">
        <ele>372</ele>
        <time>2021-07-31T08:39:34.000Z</time>
      </trkpt>
      <trkpt lat="49.80424" lon="4.87517">
        <ele>372</ele>
        <time>2021-07-31T08:39:35.000Z</time>
      </trkpt>
      <trkpt lat="49.80423" lon="4.87514">
        <ele>372</ele>
        <time>2021-07-31T08:39:36.000Z</time>
      </trkpt>
      <trkpt lat="49.80422" lon="4.87512">
        <ele>372</ele>
        <time>2021-07-31T08:39:37.000Z</time>
      </trkpt>
      <trkpt lat="49.8042" lon="4.87509">
        <ele>372</ele>
        <time>2021-07-31T08:39:38.000Z</time>
      </trkpt>
      <trkpt lat="49.80419" lon="4.87505">
        <ele>373</ele>
        <time>2021-07-31T08:39:39.000Z</time>
      </trkpt>
      <trkpt lat="49.80419" lon="4.87502">
        <ele>373</ele>
        <time>2021-07-31T08:39:40.000Z</time>
      </trkpt>
      <trkpt lat="49.80419" lon="4.875">
        <ele>373</ele>
        <time>2021-07-31T08:39:41.000Z</time>
      </trkpt>
      <trkpt lat="49.80418" lon="4.87498">
        <ele>373</ele>
        <time>2021-07-31T08:39:42.000Z</time>
      </trkpt>
      <trkpt lat="49.80417" lon="4.87497">
        <ele>373</ele>
        <time>2021-07-31T08:39:43.000Z</time>
      </trkpt>
      <trkpt lat="49.80416" lon="4.87494">
        <ele>374</ele>
        <time>2021-07-31T08:39:44.000Z</time>
      </trkpt>
      <trkpt lat="49.80416" lon="4.87491">
        <ele>374</ele>
        <time>2021-07-31T08:39:45.000Z</time>
      </trkpt>
      <trkpt lat="49.80416" lon="4.87489">
        <ele>374</ele>
        <time>2021-07-31T08:39:46.000Z</time>
      </trkpt>
      <trkpt lat="49.80415" lon="4.87487">
        <ele>374</ele>
        <time>2021-07-31T08:39:47.000Z</time>
      </trkpt>
      <trkpt lat="49.80414" lon="4.87485">
        <ele>374</ele>
        <time>2021-07-31T08:39:48.000Z</time>
      </trkpt>
      <trkpt lat="49.80413" lon="4.87482">
        <ele>374</ele>
        <time>2021-07-31T08:39:49.000Z</time>
      </trkpt>
      <trkpt lat="49.80412" lon="4.87479">
        <ele>375</ele>
        <time>2021-07-31T08:39:50.000Z</time>
      </trkpt>
      <trkpt lat="49.8041" lon="4.87476">
        <ele>375</ele>
        <time>2021-07-31T08:39:51.000Z</time>
      </trkpt>
      <trkpt lat="49.80409" lon="4.87473">
        <ele>375</ele>
        <time>2021-07-31T08:39:52.000Z</time>
      </trkpt>
      <trkpt lat="49.80408" lon="4.87469">
        <ele>375</ele>
        <time>2021-07-31T08:39:53.000Z</time>
      </trkpt>
      <trkpt lat="49.80407" lon="4.87465">
        <ele>375</ele>
        <time>2021-07-31T08:39:54.000Z</time>
      </trkpt>
      <trkpt lat="49.80405" lon="4.87462">
        <ele>375</ele>
        <time>2021-07-31T08:39:55.000Z</time>
      </trkpt>
      <trkpt lat="49.80404" lon="4.87458">
        <ele>375</ele>
        <time>2021-07-31T08:39:56.000Z</time>
      </trkpt>
      <trkpt lat="49.80402" lon="4.87454">
        <ele>375</ele>
        <time>2021-07-31T08:39:57.000Z</time>
      </trkpt>
      <trkpt lat="49.804" lon="4.8745">
        <ele>376</ele>
        <time>2021-07-31T08:39:58.000Z</time>
      </trkpt>
      <trkpt lat="49.80398" lon="4.87445">
        <ele>376</ele>
        <time>2021-07-31T08:39:59.000Z</time>
      </trkpt>
      <trkpt lat="49.80396" lon="4.8744">
        <ele>376</ele>
        <time>2021-07-31T08:40:00.000Z</time>
      </trkpt>
      <trkpt lat="49.80394" lon="4.87435">
        <ele>376</ele>
        <time>2021-07-31T08:40:01.000Z</time>
      </trkpt>
      <trkpt lat="49.80392" lon="4.8743">
        <ele>376</ele>
        <time>2021-07-31T08:40:02.000Z</time>
      </trkpt>
      <trkpt lat="49.8039" lon="4.87425">
        <ele>376</ele>
        <time>2021-07-31T08:40:03.000Z</time>
      </trkpt>
      <trkpt lat="49.80387" lon="4.8742">
        <ele>376</ele>
        <time>2021-07-31T08:40:04.000Z</time>
      </trkpt>
      <trkpt lat="49.80385" lon="4.87414">
        <ele>376</ele>
        <time>2021-07-31T08:40:05.000Z</time>
      </trkpt>
      <trkpt lat="49.80382" lon="4.87409">
        <ele>376</ele>
        <time>2021-07-31T08:40:06.000Z</time>
      </trkpt>
      <trkpt lat="49.8038" lon="4.87404">
        <ele>376</ele>
        <time>2021-07-31T08:40:07.000Z</time>
      </trkpt>
      <trkpt lat="49.80377" lon="4.87399">
        <ele>377</ele>
        <time>2021-07-31T08:40:08.000Z</time>
      </trkpt>
      <trkpt lat="49.80375" lon="4.87395">
        <ele>377</ele>
        <time>2021-07-31T08:40:09.000Z</time>
      </trkpt>
      <trkpt lat="49.80372" lon="4.87391">
        <ele>377</ele>
        <time>2021-07-31T08:40:10.000Z</time>
      </trkpt>
      <trkpt lat="49.80369" lon="4.87387">
        <ele>377</ele>
        <time>2021-07-31T08:40:11.000Z</time>
      </trkpt>
      <trkpt lat="49.80367" lon="4.87383">
        <ele>377</ele>
        <time>2021-07-31T08:40:12.000Z</time>
      </trkpt>
      <trkpt lat="49.80364" lon="4.8738">
        <ele>378</ele>
        <time>2021-07-31T08:40:13.000Z</time>
      </trkpt>
      <trkpt lat="49.80362" lon="4.87376">
        <ele>378</ele>
        <time>2021-07-31T08:40:14.000Z</time>
      </trkpt>
      <trkpt lat="49.80359" lon="4.87372">
        <ele>378</ele>
        <time>2021-07-31T08:40:15.000Z</time>
      </trkpt>
      <trkpt lat="49.80357" lon="4.87369">
        <ele>378</ele>
        <time>2021-07-31T08:40:16.000Z</time>
      </trkpt>
      <trkpt lat="49.80355" lon="4.87365">
        <ele>378</ele>
        <time>2021-07-31T08:40:17.000Z</time>
      </trkpt>
      <trkpt lat="49.80352" lon="4.87361">
        <ele>378</ele>
        <time>2021-07-31T08:40:18.000Z</time>
      </trkpt>
      <trkpt lat="49.8035" lon="4.87357">
        <ele>378</ele>
        <time>2021-07-31T08:40:19.000Z</time>
      </trkpt>
      <trkpt lat="49.80347" lon="4.87353">
        <ele>379</ele>
        <time>2021-07-31T08:40:20.000Z</time>
      </trkpt>
      <trkpt lat="49.80345" lon="4.87349">
        <ele>379</ele>
        <time>2021-07-31T08:40:21.000Z</time>
      </trkpt>
      <trkpt lat="49.80342" lon="4.87345">
        <ele>379</ele>
        <time>2021-07-31T08:40:22.000Z</time>
      </trkpt>
      <trkpt lat="49.8034" lon="4.87341">
        <ele>379</ele>
        <time>2021-07-31T08:40:23.000Z</time>
      </trkpt>
      <trkpt lat="49.80338" lon="4.87337">
        <ele>380</ele>
        <time>2021-07-31T08:40:24.000Z</time>
      </trkpt>
      <trkpt lat="49.80335" lon="4.87334">
        <ele>380</ele>
        <time>2021-07-31T08:40:25.000Z</time>
      </trkpt>
      <trkpt lat="49.80333" lon="4.87329">
        <ele>380</ele>
        <time>2021-07-31T08:40:26.000Z</time>
      </trkpt>
      <trkpt lat="49.80331" lon="4.87325">
        <ele>380</ele>
        <time>2021-07-31T08:40:27.000Z</time>
      </trkpt>
      <trkpt lat="49.80329" lon="4.87321">
        <ele>381</ele>
        <time>2021-07-31T08:40:28.000Z</time>
      </trkpt>
      <trkpt lat="49.80327" lon="4.87316">
        <ele>381</ele>
        <time>2021-07-31T08:40:29.000Z</time>
      </trkpt>
      <trkpt lat="49.80325" lon="4.87312">
        <ele>381</ele>
        <time>2021-07-31T08:40:30.000Z</time>
      </trkpt>
      <trkpt lat="49.80322" lon="4.87308">
        <ele>381</ele>
        <time>2021-07-31T08:40:31.000Z</time>
      </trkpt>
      <trkpt lat="49.8032" lon="4.87303">
        <ele>382</ele>
        <time>2021-07-31T08:40:32.000Z</time>
      </trkpt>
      <trkpt lat="49.80317" lon="4.87299">
        <ele>382</ele>
        <time>2021-07-31T08:40:33.000Z</time>
      </trkpt>
      <trkpt lat="49.80314" lon="4.87296">
        <ele>382</ele>
        <time>2021-07-31T08:40:34.000Z</time>
      </trkpt>
      <trkpt lat="49.80311" lon="4.87292">
        <ele>383</ele>
        <time>2021-07-31T08:40:35.000Z</time>
      </trkpt>
      <trkpt lat="49.80309" lon="4.87289">
        <ele>383</ele>
        <time>2021-07-31T08:40:36.000Z</time>
      </trkpt>
      <trkpt lat="49.80305" lon="4.87286">
        <ele>383</ele>
        <time>2021-07-31T08:40:37.000Z</time>
      </trkpt>
      <trkpt lat="49.80303" lon="4.87283">
        <ele>383</ele>
        <time>2021-07-31T08:40:38.000Z</time>
      </trkpt>
      <trkpt lat="49.80299" lon="4.87281">
        <ele>384</ele>
        <time>2021-07-31T08:40:39.000Z</time>
      </trkpt>
      <trkpt lat="49.80296" lon="4.87279">
        <ele>384</ele>
        <time>2021-07-31T08:40:40.000Z</time>
      </trkpt>
      <trkpt lat="49.80294" lon="4.87278">
        <ele>384</ele>
        <time>2021-07-31T08:40:41.000Z</time>
      </trkpt>
      <trkpt lat="49.80291" lon="4.87277">
        <ele>384</ele>
        <time>2021-07-31T08:40:42.000Z</time>
      </trkpt>
      <trkpt lat="49.80289" lon="4.87275">
        <ele>385</ele>
        <time>2021-07-31T08:40:43.000Z</time>
      </trkpt>
      <trkpt lat="49.80287" lon="4.87274">
        <ele>385</ele>
        <time>2021-07-31T08:40:44.000Z</time>
      </trkpt>
      <trkpt lat="49.80284" lon="4.87272">
        <ele>385</ele>
        <time>2021-07-31T08:40:45.000Z</time>
      </trkpt>
      <trkpt lat="49.80282" lon="4.8727">
        <ele>386</ele>
        <time>2021-07-31T08:40:46.000Z</time>
      </trkpt>
      <trkpt lat="49.8028" lon="4.87268">
        <ele>386</ele>
        <time>2021-07-31T08:40:47.000Z</time>
      </trkpt>
      <trkpt lat="49.80278" lon="4.87268">
        <ele>386</ele>
        <time>2021-07-31T08:40:48.000Z</time>
      </trkpt>
      <trkpt lat="49.80276" lon="4.87267">
        <ele>387</ele>
        <time>2021-07-31T08:40:49.000Z</time>
      </trkpt>
      <trkpt lat="49.80275" lon="4.87266">
        <ele>387</ele>
        <time>2021-07-31T08:40:50.000Z</time>
      </trkpt>
      <trkpt lat="49.80272" lon="4.87264">
        <ele>387</ele>
        <time>2021-07-31T08:40:51.000Z</time>
      </trkpt>
      <trkpt lat="49.8027" lon="4.87262">
        <ele>387</ele>
        <time>2021-07-31T08:40:52.000Z</time>
      </trkpt>
      <trkpt lat="49.80268" lon="4.87259">
        <ele>388</ele>
        <time>2021-07-31T08:40:53.000Z</time>
      </trkpt>
      <trkpt lat="49.80266" lon="4.87257">
        <ele>388</ele>
        <time>2021-07-31T08:40:54.000Z</time>
      </trkpt>
      <trkpt lat="49.80264" lon="4.87255">
        <ele>388</ele>
        <time>2021-07-31T08:40:55.000Z</time>
      </trkpt>
      <trkpt lat="49.80262" lon="4.87253">
        <ele>388</ele>
        <time>2021-07-31T08:40:56.000Z</time>
      </trkpt>
      <trkpt lat="49.80259" lon="4.87252">
        <ele>389</ele>
        <time>2021-07-31T08:40:57.000Z</time>
      </trkpt>
      <trkpt lat="49.80257" lon="4.8725">
        <ele>389</ele>
        <time>2021-07-31T08:40:58.000Z</time>
      </trkpt>
      <trkpt lat="49.80255" lon="4.87248">
        <ele>389</ele>
        <time>2021-07-31T08:40:59.000Z</time>
      </trkpt>
      <trkpt lat="49.80253" lon="4.87246">
        <ele>389</ele>
        <time>2021-07-31T08:41:00.000Z</time>
      </trkpt>
      <trkpt lat="49.80251" lon="4.87244">
        <ele>389</ele>
        <time>2021-07-31T08:41:01.000Z</time>
      </trkpt>
      <trkpt lat="49.80249" lon="4.87242">
        <ele>390</ele>
        <time>2021-07-31T08:41:02.000Z</time>
      </trkpt>
      <trkpt lat="49.80247" lon="4.8724">
        <ele>390</ele>
        <time>2021-07-31T08:41:03.000Z</time>
      </trkpt>
      <trkpt lat="49.80245" lon="4.87238">
        <ele>390</ele>
        <time>2021-07-31T08:41:04.000Z</time>
      </trkpt>
      <trkpt lat="49.80245" lon="4.87236">
        <ele>390</ele>
        <time>2021-07-31T08:41:05.000Z</time>
      </trkpt>
      <trkpt lat="49.80246" lon="4.87234">
        <ele>390</ele>
        <time>2021-07-31T08:41:06.000Z</time>
      </trkpt>
      <trkpt lat="49.80248" lon="4.87235">
        <ele>390</ele>
        <time>2021-07-31T08:41:07.000Z</time>
      </trkpt>
      <trkpt lat="49.8025" lon="4.87237">
        <ele>390</ele>
        <time>2021-07-31T08:41:08.000Z</time>
      </trkpt>
      <trkpt lat="49.80252" lon="4.8724">
        <ele>389</ele>
        <time>2021-07-31T08:41:09.000Z</time>
      </trkpt>
      <trkpt lat="49.80255" lon="4.87243">
        <ele>389</ele>
        <time>2021-07-31T08:41:10.000Z</time>
      </trkpt>
      <trkpt lat="49.80258" lon="4.87246">
        <ele>389</ele>
        <time>2021-07-31T08:41:11.000Z</time>
      </trkpt>
      <trkpt lat="49.80262" lon="4.87249">
        <ele>389</ele>
        <time>2021-07-31T08:41:12.000Z</time>
      </trkpt>
      <trkpt lat="49.80266" lon="4.87253">
        <ele>389</ele>
        <time>2021-07-31T08:41:13.000Z</time>
      </trkpt>
      <trkpt lat="49.80271" lon="4.87258">
        <ele>389</ele>
        <time>2021-07-31T08:41:14.000Z</time>
      </trkpt>
      <trkpt lat="49.80275" lon="4.87263">
        <ele>388</ele>
        <time>2021-07-31T08:41:15.000Z</time>
      </trkpt>
      <trkpt lat="49.80281" lon="4.87268">
        <ele>388</ele>
        <time>2021-07-31T08:41:16.000Z</time>
      </trkpt>
      <trkpt lat="49.80287" lon="4.87273">
        <ele>388</ele>
        <time>2021-07-31T08:41:17.000Z</time>
      </trkpt>
      <trkpt lat="49.80293" lon="4.87277">
        <ele>388</ele>
        <time>2021-07-31T08:41:18.000Z</time>
      </trkpt>
      <trkpt lat="49.803" lon="4.87283">
        <ele>388</ele>
        <time>2021-07-31T08:41:19.000Z</time>
      </trkpt>
      <trkpt lat="49.80307" lon="4.87288">
        <ele>388</ele>
        <time>2021-07-31T08:41:20.000Z</time>
      </trkpt>
      <trkpt lat="49.80314" lon="4.87296">
        <ele>388</ele>
        <time>2021-07-31T08:41:21.000Z</time>
      </trkpt>
      <trkpt lat="49.80321" lon="4.87304">
        <ele>388</ele>
        <time>2021-07-31T08:41:22.000Z</time>
      </trkpt>
      <trkpt lat="49.80327" lon="4.87313">
        <ele>388</ele>
        <time>2021-07-31T08:41:23.000Z</time>
      </trkpt>
      <trkpt lat="49.80333" lon="4.87323">
        <ele>388</ele>
        <time>2021-07-31T08:41:24.000Z</time>
      </trkpt>
      <trkpt lat="49.80338" lon="4.87332">
        <ele>388</ele>
        <time>2021-07-31T08:41:25.000Z</time>
      </trkpt>
      <trkpt lat="49.80344" lon="4.87342">
        <ele>387</ele>
        <time>2021-07-31T08:41:26.000Z</time>
      </trkpt>
      <trkpt lat="49.8035" lon="4.87352">
        <ele>387</ele>
        <time>2021-07-31T08:41:27.000Z</time>
      </trkpt>
      <trkpt lat="49.80356" lon="4.87361">
        <ele>387</ele>
        <time>2021-07-31T08:41:28.000Z</time>
      </trkpt>
      <trkpt lat="49.80362" lon="4.8737">
        <ele>387</ele>
        <time>2021-07-31T08:41:29.000Z</time>
      </trkpt>
      <trkpt lat="49.80368" lon="4.87378">
        <ele>387</ele>
        <time>2021-07-31T08:41:30.000Z</time>
      </trkpt>
      <trkpt lat="49.80374" lon="4.87387">
        <ele>387</ele>
        <time>2021-07-31T08:41:31.000Z</time>
      </trkpt>
      <trkpt lat="49.80379" lon="4.87396">
        <ele>386</ele>
        <time>2021-07-31T08:41:32.000Z</time>
      </trkpt>
      <trkpt lat="49.80385" lon="4.87406">
        <ele>386</ele>
        <time>2021-07-31T08:41:33.000Z</time>
      </trkpt>
      <trkpt lat="49.80389" lon="4.87415">
        <ele>386</ele>
        <time>2021-07-31T08:41:34.000Z</time>
      </trkpt>
      <trkpt lat="49.80392" lon="4.87422">
        <ele>385</ele>
        <time>2021-07-31T08:41:35.000Z</time>
      </trkpt>
      <trkpt lat="49.80394" lon="4.87428">
        <ele>385</ele>
        <time>2021-07-31T08:41:36.000Z</time>
      </trkpt>
      <trkpt lat="49.80397" lon="4.87433">
        <ele>385</ele>
        <time>2021-07-31T08:41:37.000Z</time>
      </trkpt>
      <trkpt lat="49.80399" lon="4.87438">
        <ele>384</ele>
        <time>2021-07-31T08:41:38.000Z</time>
      </trkpt>
      <trkpt lat="49.80401" lon="4.87443">
        <ele>384</ele>
        <time>2021-07-31T08:41:39.000Z</time>
      </trkpt>
      <trkpt lat="49.80403" lon="4.87448">
        <ele>384</ele>
        <time>2021-07-31T08:41:40.000Z</time>
      </trkpt>
      <trkpt lat="49.80404" lon="4.87452">
        <ele>384</ele>
        <time>2021-07-31T08:41:41.000Z</time>
      </trkpt>
      <trkpt lat="49.80405" lon="4.87454">
        <ele>383</ele>
        <time>2021-07-31T08:41:42.000Z</time>
      </trkpt>
      <trkpt lat="49.80406" lon="4.87453">
        <ele>383</ele>
        <time>2021-07-31T08:41:43.000Z</time>
      </trkpt>
      <trkpt lat="49.80406" lon="4.87452">
        <ele>383</ele>
        <time>2021-07-31T08:41:44.000Z</time>
      </trkpt>
      <trkpt lat="49.80405" lon="4.87449">
        <ele>383</ele>
        <time>2021-07-31T08:41:45.000Z</time>
      </trkpt>
      <trkpt lat="49.80404" lon="4.87446">
        <ele>382</ele>
        <time>2021-07-31T08:41:46.000Z</time>
      </trkpt>
      <trkpt lat="49.80402" lon="4.87442">
        <ele>382</ele>
        <time>2021-07-31T08:41:47.000Z</time>
      </trkpt>
      <trkpt lat="49.804" lon="4.87437">
        <ele>382</ele>
        <time>2021-07-31T08:41:48.000Z</time>
      </trkpt>
      <trkpt lat="49.80398" lon="4.87433">
        <ele>382</ele>
        <time>2021-07-31T08:41:49.000Z</time>
      </trkpt>
      <trkpt lat="49.80396" lon="4.87427">
        <ele>382</ele>
        <time>2021-07-31T08:41:50.000Z</time>
      </trkpt>
      <trkpt lat="49.80397" lon="4.87421">
        <ele>381</ele>
        <time>2021-07-31T08:41:51.000Z</time>
      </trkpt>
      <trkpt lat="49.80399" lon="4.87416">
        <ele>381</ele>
        <time>2021-07-31T08:41:52.000Z</time>
      </trkpt>
      <trkpt lat="49.80401" lon="4.87413">
        <ele>381</ele>
        <time>2021-07-31T08:41:53.000Z</time>
      </trkpt>
      <trkpt lat="49.80405" lon="4.87411">
        <ele>380</ele>
        <time>2021-07-31T08:41:54.000Z</time>
      </trkpt>
      <trkpt lat="49.8041" lon="4.87411">
        <ele>380</ele>
        <time>2021-07-31T08:41:55.000Z</time>
      </trkpt>
      <trkpt lat="49.80415" lon="4.8741">
        <ele>380</ele>
        <time>2021-07-31T08:41:56.000Z</time>
      </trkpt>
      <trkpt lat="49.8042" lon="4.8741">
        <ele>380</ele>
        <time>2021-07-31T08:41:57.000Z</time>
      </trkpt>
      <trkpt lat="49.80426" lon="4.87409">
        <ele>379</ele>
        <time>2021-07-31T08:41:58.000Z</time>
      </trkpt>
      <trkpt lat="49.80432" lon="4.87408">
        <ele>379</ele>
        <time>2021-07-31T08:41:59.000Z</time>
      </trkpt>
      <trkpt lat="49.80438" lon="4.87406">
        <ele>379</ele>
        <time>2021-07-31T08:42:00.000Z</time>
      </trkpt>
      <trkpt lat="49.80444" lon="4.87405">
        <ele>378</ele>
        <time>2021-07-31T08:42:01.000Z</time>
      </trkpt>
      <trkpt lat="49.8045" lon="4.87405">
        <ele>378</ele>
        <time>2021-07-31T08:42:02.000Z</time>
      </trkpt>
      <trkpt lat="49.80456" lon="4.87404">
        <ele>377</ele>
        <time>2021-07-31T08:42:03.000Z</time>
      </trkpt>
      <trkpt lat="49.80462" lon="4.87403">
        <ele>377</ele>
        <time>2021-07-31T08:42:04.000Z</time>
      </trkpt>
      <trkpt lat="49.80468" lon="4.87401">
        <ele>377</ele>
        <time>2021-07-31T08:42:05.000Z</time>
      </trkpt>
      <trkpt lat="49.80475" lon="4.87399">
        <ele>376</ele>
        <time>2021-07-31T08:42:06.000Z</time>
      </trkpt>
      <trkpt lat="49.80482" lon="4.87397">
        <ele>376</ele>
        <time>2021-07-31T08:42:07.000Z</time>
      </trkpt>
      <trkpt lat="49.80489" lon="4.87394">
        <ele>376</ele>
        <time>2021-07-31T08:42:08.000Z</time>
      </trkpt>
      <trkpt lat="49.80494" lon="4.87392">
        <ele>375</ele>
        <time>2021-07-31T08:42:09.000Z</time>
      </trkpt>
      <trkpt lat="49.805" lon="4.87388">
        <ele>375</ele>
        <time>2021-07-31T08:42:10.000Z</time>
      </trkpt>
      <trkpt lat="49.80507" lon="4.87382">
        <ele>375</ele>
        <time>2021-07-31T08:42:11.000Z</time>
      </trkpt>
      <trkpt lat="49.80513" lon="4.87376">
        <ele>374</ele>
        <time>2021-07-31T08:42:12.000Z</time>
      </trkpt>
      <trkpt lat="49.8052" lon="4.87369">
        <ele>374</ele>
        <time>2021-07-31T08:42:13.000Z</time>
      </trkpt>
      <trkpt lat="49.80526" lon="4.87361">
        <ele>373</ele>
        <time>2021-07-31T08:42:14.000Z</time>
      </trkpt>
      <trkpt lat="49.80533" lon="4.87354">
        <ele>373</ele>
        <time>2021-07-31T08:42:15.000Z</time>
      </trkpt>
      <trkpt lat="49.80538" lon="4.87347">
        <ele>372</ele>
        <time>2021-07-31T08:42:16.000Z</time>
      </trkpt>
      <trkpt lat="49.80542" lon="4.8734">
        <ele>371</ele>
        <time>2021-07-31T08:42:17.000Z</time>
      </trkpt>
      <trkpt lat="49.80545" lon="4.87333">
        <ele>371</ele>
        <time>2021-07-31T08:42:18.000Z</time>
      </trkpt>
      <trkpt lat="49.80546" lon="4.87323">
        <ele>370</ele>
        <time>2021-07-31T08:42:19.000Z</time>
      </trkpt>
      <trkpt lat="49.80544" lon="4.87314">
        <ele>369</ele>
        <time>2021-07-31T08:42:20.000Z</time>
      </trkpt>
      <trkpt lat="49.80541" lon="4.87304">
        <ele>368</ele>
        <time>2021-07-31T08:42:21.000Z</time>
      </trkpt>
      <trkpt lat="49.80536" lon="4.87295">
        <ele>368</ele>
        <time>2021-07-31T08:42:22.000Z</time>
      </trkpt>
      <trkpt lat="49.80531" lon="4.87287">
        <ele>367</ele>
        <time>2021-07-31T08:42:23.000Z</time>
      </trkpt>
      <trkpt lat="49.80525" lon="4.87279">
        <ele>366</ele>
        <time>2021-07-31T08:42:24.000Z</time>
      </trkpt>
      <trkpt lat="49.80521" lon="4.87271">
        <ele>365</ele>
        <time>2021-07-31T08:42:25.000Z</time>
      </trkpt>
      <trkpt lat="49.80519" lon="4.87263">
        <ele>365</ele>
        <time>2021-07-31T08:42:26.000Z</time>
      </trkpt>
      <trkpt lat="49.8052" lon="4.87255">
        <ele>364</ele>
        <time>2021-07-31T08:42:27.000Z</time>
      </trkpt>
      <trkpt lat="49.80523" lon="4.8725">
        <ele>364</ele>
        <time>2021-07-31T08:42:28.000Z</time>
      </trkpt>
      <trkpt lat="49.80527" lon="4.87246">
        <ele>363</ele>
        <time>2021-07-31T08:42:29.000Z</time>
      </trkpt>
      <trkpt lat="49.80531" lon="4.87243">
        <ele>363</ele>
        <time>2021-07-31T08:42:30.000Z</time>
      </trkpt>
      <trkpt lat="49.80536" lon="4.87242">
        <ele>363</ele>
        <time>2021-07-31T08:42:31.000Z</time>
      </trkpt>
      <trkpt lat="49.80541" lon="4.87242">
        <ele>362</ele>
        <time>2021-07-31T08:42:32.000Z</time>
      </trkpt>
      <trkpt lat="49.80546" lon="4.87244">
        <ele>362</ele>
        <time>2021-07-31T08:42:33.000Z</time>
      </trkpt>
      <trkpt lat="49.80551" lon="4.87246">
        <ele>362</ele>
        <time>2021-07-31T08:42:34.000Z</time>
      </trkpt>
      <trkpt lat="49.80556" lon="4.87249">
        <ele>362</ele>
        <time>2021-07-31T08:42:35.000Z</time>
      </trkpt>
      <trkpt lat="49.80561" lon="4.87252">
        <ele>361</ele>
        <time>2021-07-31T08:42:36.000Z</time>
      </trkpt>
      <trkpt lat="49.80566" lon="4.87255">
        <ele>361</ele>
        <time>2021-07-31T08:42:37.000Z</time>
      </trkpt>
      <trkpt lat="49.8057" lon="4.87257">
        <ele>361</ele>
        <time>2021-07-31T08:42:38.000Z</time>
      </trkpt>
      <trkpt lat="49.80575" lon="4.87259">
        <ele>361</ele>
        <time>2021-07-31T08:42:39.000Z</time>
      </trkpt>
      <trkpt lat="49.80579" lon="4.87258">
        <ele>361</ele>
        <time>2021-07-31T08:42:40.000Z</time>
      </trkpt>
      <trkpt lat="49.80583" lon="4.87255">
        <ele>360</ele>
        <time>2021-07-31T08:42:41.000Z</time>
      </trkpt>
      <trkpt lat="49.80586" lon="4.8725">
        <ele>360</ele>
        <time>2021-07-31T08:42:42.000Z</time>
      </trkpt>
      <trkpt lat="49.80589" lon="4.87243">
        <ele>360</ele>
        <time>2021-07-31T08:42:43.000Z</time>
      </trkpt>
      <trkpt lat="49.8059" lon="4.87237">
        <ele>360</ele>
        <time>2021-07-31T08:42:44.000Z</time>
      </trkpt>
      <trkpt lat="49.80592" lon="4.8723">
        <ele>359</ele>
        <time>2021-07-31T08:42:45.000Z</time>
      </trkpt>
      <trkpt lat="49.80594" lon="4.87222">
        <ele>359</ele>
        <time>2021-07-31T08:42:46.000Z</time>
      </trkpt>
      <trkpt lat="49.80595" lon="4.87214">
        <ele>359</ele>
        <time>2021-07-31T08:42:47.000Z</time>
      </trkpt>
      <trkpt lat="49.80595" lon="4.87206">
        <ele>359</ele>
        <time>2021-07-31T08:42:48.000Z</time>
      </trkpt>
      <trkpt lat="49.80596" lon="4.87198">
        <ele>358</ele>
        <time>2021-07-31T08:42:49.000Z</time>
      </trkpt>
      <trkpt lat="49.80597" lon="4.8719">
        <ele>358</ele>
        <time>2021-07-31T08:42:50.000Z</time>
      </trkpt>
      <trkpt lat="49.80597" lon="4.87181">
        <ele>358</ele>
        <time>2021-07-31T08:42:51.000Z</time>
      </trkpt>
      <trkpt lat="49.80598" lon="4.87172">
        <ele>357</ele>
        <time>2021-07-31T08:42:52.000Z</time>
      </trkpt>
      <trkpt lat="49.80598" lon="4.87162">
        <ele>357</ele>
        <time>2021-07-31T08:42:53.000Z</time>
      </trkpt>
      <trkpt lat="49.80599" lon="4.87152">
        <ele>357</ele>
        <time>2021-07-31T08:42:54.000Z</time>
      </trkpt>
      <trkpt lat="49.806" lon="4.87142">
        <ele>356</ele>
        <time>2021-07-31T08:42:55.000Z</time>
      </trkpt>
      <trkpt lat="49.80601" lon="4.87133">
        <ele>356</ele>
        <time>2021-07-31T08:42:56.000Z</time>
      </trkpt>
      <trkpt lat="49.80603" lon="4.87123">
        <ele>356</ele>
        <time>2021-07-31T08:42:57.000Z</time>
      </trkpt>
      <trkpt lat="49.80604" lon="4.87114">
        <ele>355</ele>
        <time>2021-07-31T08:42:58.000Z</time>
      </trkpt>
      <trkpt lat="49.80606" lon="4.87104">
        <ele>355</ele>
        <time>2021-07-31T08:42:59.000Z</time>
      </trkpt>
      <trkpt lat="49.80607" lon="4.87093">
        <ele>355</ele>
        <time>2021-07-31T08:43:00.000Z</time>
      </trkpt>
      <trkpt lat="49.80609" lon="4.87083">
        <ele>355</ele>
        <time>2021-07-31T08:43:01.000Z</time>
      </trkpt>
      <trkpt lat="49.8061" lon="4.87072">
        <ele>354</ele>
        <time>2021-07-31T08:43:02.000Z</time>
      </trkpt>
      <trkpt lat="49.80612" lon="4.87062">
        <ele>354</ele>
        <time>2021-07-31T08:43:03.000Z</time>
      </trkpt>
      <trkpt lat="49.80615" lon="4.87051">
        <ele>354</ele>
        <time>2021-07-31T08:43:04.000Z</time>
      </trkpt>
      <trkpt lat="49.80618" lon="4.87041">
        <ele>354</ele>
        <time>2021-07-31T08:43:05.000Z</time>
      </trkpt>
      <trkpt lat="49.80621" lon="4.87031">
        <ele>353</ele>
        <time>2021-07-31T08:43:06.000Z</time>
      </trkpt>
      <trkpt lat="49.80623" lon="4.8702">
        <ele>353</ele>
        <time>2021-07-31T08:43:07.000Z</time>
      </trkpt>
      <trkpt lat="49.80626" lon="4.87009">
        <ele>353</ele>
        <time>2021-07-31T08:43:08.000Z</time>
      </trkpt>
      <trkpt lat="49.80629" lon="4.86999">
        <ele>353</ele>
        <time>2021-07-31T08:43:09.000Z</time>
      </trkpt>
      <trkpt lat="49.80631" lon="4.86988">
        <ele>352</ele>
        <time>2021-07-31T08:43:10.000Z</time>
      </trkpt>
      <trkpt lat="49.80633" lon="4.86978">
        <ele>352</ele>
        <time>2021-07-31T08:43:11.000Z</time>
      </trkpt>
      <trkpt lat="49.80635" lon="4.86968">
        <ele>352</ele>
        <time>2021-07-31T08:43:12.000Z</time>
      </trkpt>
      <trkpt lat="49.80638" lon="4.86959">
        <ele>352</ele>
        <time>2021-07-31T08:43:13.000Z</time>
      </trkpt>
      <trkpt lat="49.80641" lon="4.8695">
        <ele>352</ele>
        <time>2021-07-31T08:43:14.000Z</time>
      </trkpt>
      <trkpt lat="49.80645" lon="4.86942">
        <ele>352</ele>
        <time>2021-07-31T08:43:15.000Z</time>
      </trkpt>
      <trkpt lat="49.80648" lon="4.86936">
        <ele>352</ele>
        <time>2021-07-31T08:43:16.000Z</time>
      </trkpt>
      <trkpt lat="49.80651" lon="4.86931">
        <ele>352</ele>
        <time>2021-07-31T08:43:17.000Z</time>
      </trkpt>
      <trkpt lat="49.80654" lon="4.86928">
        <ele>352</ele>
        <time>2021-07-31T08:43:18.000Z</time>
      </trkpt>
      <trkpt lat="49.80656" lon="4.86926">
        <ele>351</ele>
        <time>2021-07-31T08:43:19.000Z</time>
      </trkpt>
      <trkpt lat="49.80658" lon="4.86924">
        <ele>351</ele>
        <time>2021-07-31T08:43:20.000Z</time>
      </trkpt>
      <trkpt lat="49.80659" lon="4.86922">
        <ele>351</ele>
        <time>2021-07-31T08:43:21.000Z</time>
      </trkpt>
      <trkpt lat="49.80659" lon="4.86921">
        <ele>351</ele>
        <time>2021-07-31T08:43:22.000Z</time>
      </trkpt>
      <trkpt lat="49.80659" lon="4.86919">
        <ele>351</ele>
        <time>2021-07-31T08:43:23.000Z</time>
      </trkpt>
      <trkpt lat="49.80659" lon="4.86919">
        <ele>351</ele>
        <time>2021-07-31T08:43:24.000Z</time>
      </trkpt>
      <trkpt lat="49.80659" lon="4.86919">
        <ele>351</ele>
        <time>2021-07-31T08:43:25.000Z</time>
      </trkpt>
      <trkpt lat="49.80659" lon="4.86919">
        <ele>351</ele>
        <time>2021-07-31T08:43:26.000Z</time>
      </trkpt>
      <trkpt lat="49.80659" lon="4.86918">
        <ele>351</ele>
        <time>2021-07-31T08:43:27.000Z</time>
      </trkpt>
      <trkpt lat="49.80659" lon="4.86918">
        <ele>350</ele>
        <time>2021-07-31T08:43:28.000Z</time>
      </trkpt>
      <trkpt lat="49.80659" lon="4.86918">
        <ele>350</ele>
        <time>2021-07-31T08:43:29.000Z</time>
      </trkpt>
      <trkpt lat="49.80659" lon="4.86916">
        <ele>350</ele>
        <time>2021-07-31T08:43:30.000Z</time>
      </trkpt>
      <trkpt lat="49.80659" lon="4.86915">
        <ele>350</ele>
        <time>2021-07-31T08:43:31.000Z</time>
      </trkpt>
      <trkpt lat="49.80659" lon="4.86912">
        <ele>350</ele>
        <time>2021-07-31T08:43:32.000Z</time>
      </trkpt>
      <trkpt lat="49.8066" lon="4.8691">
        <ele>350</ele>
        <time>2021-07-31T08:43:33.000Z</time>
      </trkpt>
      <trkpt lat="49.80661" lon="4.86908">
        <ele>350</ele>
        <time>2021-07-31T08:43:34.000Z</time>
      </trkpt>
      <trkpt lat="49.80663" lon="4.86906">
        <ele>349</ele>
        <time>2021-07-31T08:43:35.000Z</time>
      </trkpt>
      <trkpt lat="49.80666" lon="4.86903">
        <ele>349</ele>
        <time>2021-07-31T08:43:36.000Z</time>
      </trkpt>
      <trkpt lat="49.80669" lon="4.86899">
        <ele>349</ele>
        <time>2021-07-31T08:43:37.000Z</time>
      </trkpt>
      <trkpt lat="49.80671" lon="4.86894">
        <ele>349</ele>
        <time>2021-07-31T08:43:38.000Z</time>
      </trkpt>
      <trkpt lat="49.80673" lon="4.86888">
        <ele>349</ele>
        <time>2021-07-31T08:43:39.000Z</time>
      </trkpt>
      <trkpt lat="49.80675" lon="4.86882">
        <ele>349</ele>
        <time>2021-07-31T08:43:40.000Z</time>
      </trkpt>
      <trkpt lat="49.80677" lon="4.86876">
        <ele>349</ele>
        <time>2021-07-31T08:43:41.000Z</time>
      </trkpt>
      <trkpt lat="49.80679" lon="4.86868">
        <ele>349</ele>
        <time>2021-07-31T08:43:42.000Z</time>
      </trkpt>
      <trkpt lat="49.80681" lon="4.8686">
        <ele>349</ele>
        <time>2021-07-31T08:43:43.000Z</time>
      </trkpt>
      <trkpt lat="49.80683" lon="4.86852">
        <ele>349</ele>
        <time>2021-07-31T08:43:44.000Z</time>
      </trkpt>
      <trkpt lat="49.80685" lon="4.86844">
        <ele>349</ele>
        <time>2021-07-31T08:43:45.000Z</time>
      </trkpt>
      <trkpt lat="49.80688" lon="4.86836">
        <ele>349</ele>
        <time>2021-07-31T08:43:46.000Z</time>
      </trkpt>
      <trkpt lat="49.8069" lon="4.86827">
        <ele>349</ele>
        <time>2021-07-31T08:43:47.000Z</time>
      </trkpt>
      <trkpt lat="49.80692" lon="4.86819">
        <ele>349</ele>
        <time>2021-07-31T08:43:48.000Z</time>
      </trkpt>
      <trkpt lat="49.80694" lon="4.86809">
        <ele>349</ele>
        <time>2021-07-31T08:43:49.000Z</time>
      </trkpt>
      <trkpt lat="49.80697" lon="4.86799">
        <ele>348</ele>
        <time>2021-07-31T08:43:50.000Z</time>
      </trkpt>
      <trkpt lat="49.807" lon="4.86789">
        <ele>348</ele>
        <time>2021-07-31T08:43:51.000Z</time>
      </trkpt>
      <trkpt lat="49.80704" lon="4.8678">
        <ele>348</ele>
        <time>2021-07-31T08:43:52.000Z</time>
      </trkpt>
      <trkpt lat="49.80707" lon="4.8677">
        <ele>348</ele>
        <time>2021-07-31T08:43:53.000Z</time>
      </trkpt>
      <trkpt lat="49.80709" lon="4.8676">
        <ele>348</ele>
        <time>2021-07-31T08:43:54.000Z</time>
      </trkpt>
      <trkpt lat="49.80712" lon="4.86752">
        <ele>348</ele>
        <time>2021-07-31T08:43:55.000Z</time>
      </trkpt>
      <trkpt lat="49.80714" lon="4.86745">
        <ele>348</ele>
        <time>2021-07-31T08:43:56.000Z</time>
      </trkpt>
      <trkpt lat="49.80716" lon="4.8674">
        <ele>347</ele>
        <time>2021-07-31T08:43:57.000Z</time>
      </trkpt>
      <trkpt lat="49.80718" lon="4.86736">
        <ele>347</ele>
        <time>2021-07-31T08:43:58.000Z</time>
      </trkpt>
      <trkpt lat="49.8072" lon="4.86734">
        <ele>347</ele>
        <time>2021-07-31T08:43:59.000Z</time>
      </trkpt>
      <trkpt lat="49.8072" lon="4.86733">
        <ele>347</ele>
        <time>2021-07-31T08:44:00.000Z</time>
      </trkpt>
      <trkpt lat="49.80722" lon="4.86731">
        <ele>347</ele>
        <time>2021-07-31T08:44:01.000Z</time>
      </trkpt>
      <trkpt lat="49.80723" lon="4.86729">
        <ele>347</ele>
        <time>2021-07-31T08:44:02.000Z</time>
      </trkpt>
      <trkpt lat="49.80725" lon="4.86728">
        <ele>347</ele>
        <time>2021-07-31T08:44:03.000Z</time>
      </trkpt>
      <trkpt lat="49.80727" lon="4.86728">
        <ele>347</ele>
        <time>2021-07-31T08:44:04.000Z</time>
      </trkpt>
      <trkpt lat="49.80729" lon="4.86728">
        <ele>347</ele>
        <time>2021-07-31T08:44:05.000Z</time>
      </trkpt>
      <trkpt lat="49.80732" lon="4.86727">
        <ele>347</ele>
        <time>2021-07-31T08:44:06.000Z</time>
      </trkpt>
      <trkpt lat="49.80736" lon="4.86726">
        <ele>347</ele>
        <time>2021-07-31T08:44:07.000Z</time>
      </trkpt>
      <trkpt lat="49.80739" lon="4.86726">
        <ele>348</ele>
        <time>2021-07-31T08:44:08.000Z</time>
      </trkpt>
      <trkpt lat="49.80743" lon="4.86725">
        <ele>348</ele>
        <time>2021-07-31T08:44:09.000Z</time>
      </trkpt>
      <trkpt lat="49.80747" lon="4.86725">
        <ele>348</ele>
        <time>2021-07-31T08:44:10.000Z</time>
      </trkpt>
      <trkpt lat="49.80752" lon="4.86725">
        <ele>348</ele>
        <time>2021-07-31T08:44:11.000Z</time>
      </trkpt>
      <trkpt lat="49.80757" lon="4.86726">
        <ele>348</ele>
        <time>2021-07-31T08:44:12.000Z</time>
      </trkpt>
      <trkpt lat="49.80762" lon="4.86725">
        <ele>348</ele>
        <time>2021-07-31T08:44:13.000Z</time>
      </trkpt>
      <trkpt lat="49.80766" lon="4.86725">
        <ele>348</ele>
        <time>2021-07-31T08:44:14.000Z</time>
      </trkpt>
      <trkpt lat="49.8077" lon="4.86725">
        <ele>348</ele>
        <time>2021-07-31T08:44:15.000Z</time>
      </trkpt>
      <trkpt lat="49.80774" lon="4.86725">
        <ele>348</ele>
        <time>2021-07-31T08:44:16.000Z</time>
      </trkpt>
      <trkpt lat="49.80778" lon="4.86725">
        <ele>348</ele>
        <time>2021-07-31T08:44:17.000Z</time>
      </trkpt>
      <trkpt lat="49.80782" lon="4.86725">
        <ele>348</ele>
        <time>2021-07-31T08:44:18.000Z</time>
      </trkpt>
      <trkpt lat="49.80786" lon="4.86724">
        <ele>348</ele>
        <time>2021-07-31T08:44:19.000Z</time>
      </trkpt>
      <trkpt lat="49.80791" lon="4.86724">
        <ele>347</ele>
        <time>2021-07-31T08:44:20.000Z</time>
      </trkpt>
      <trkpt lat="49.80795" lon="4.86724">
        <ele>347</ele>
        <time>2021-07-31T08:44:21.000Z</time>
      </trkpt>
      <trkpt lat="49.80799" lon="4.86725">
        <ele>347</ele>
        <time>2021-07-31T08:44:22.000Z</time>
      </trkpt>
      <trkpt lat="49.80804" lon="4.86726">
        <ele>347</ele>
        <time>2021-07-31T08:44:23.000Z</time>
      </trkpt>
      <trkpt lat="49.80808" lon="4.86727">
        <ele>346</ele>
        <time>2021-07-31T08:44:24.000Z</time>
      </trkpt>
      <trkpt lat="49.80812" lon="4.86728">
        <ele>346</ele>
        <time>2021-07-31T08:44:25.000Z</time>
      </trkpt>
      <trkpt lat="49.80817" lon="4.86728">
        <ele>346</ele>
        <time>2021-07-31T08:44:26.000Z</time>
      </trkpt>
      <trkpt lat="49.80821" lon="4.86729">
        <ele>346</ele>
        <time>2021-07-31T08:44:27.000Z</time>
      </trkpt>
      <trkpt lat="49.80825" lon="4.8673">
        <ele>346</ele>
        <time>2021-07-31T08:44:28.000Z</time>
      </trkpt>
      <trkpt lat="49.80829" lon="4.8673">
        <ele>346</ele>
        <time>2021-07-31T08:44:29.000Z</time>
      </trkpt>
      <trkpt lat="49.80833" lon="4.86731">
        <ele>346</ele>
        <time>2021-07-31T08:44:30.000Z</time>
      </trkpt>
      <trkpt lat="49.80837" lon="4.86732">
        <ele>346</ele>
        <time>2021-07-31T08:44:31.000Z</time>
      </trkpt>
      <trkpt lat="49.80841" lon="4.86734">
        <ele>346</ele>
        <time>2021-07-31T08:44:32.000Z</time>
      </trkpt>
      <trkpt lat="49.80845" lon="4.86735">
        <ele>346</ele>
        <time>2021-07-31T08:44:33.000Z</time>
      </trkpt>
      <trkpt lat="49.80849" lon="4.86736">
        <ele>346</ele>
        <time>2021-07-31T08:44:34.000Z</time>
      </trkpt>
      <trkpt lat="49.80854" lon="4.86738">
        <ele>346</ele>
        <time>2021-07-31T08:44:35.000Z</time>
      </trkpt>
      <trkpt lat="49.80858" lon="4.8674">
        <ele>346</ele>
        <time>2021-07-31T08:44:36.000Z</time>
      </trkpt>
      <trkpt lat="49.80861" lon="4.86743">
        <ele>346</ele>
        <time>2021-07-31T08:44:37.000Z</time>
      </trkpt>
      <trkpt lat="49.80865" lon="4.86746">
        <ele>346</ele>
        <time>2021-07-31T08:44:38.000Z</time>
      </trkpt>
      <trkpt lat="49.80869" lon="4.8675">
        <ele>345</ele>
        <time>2021-07-31T08:44:39.000Z</time>
      </trkpt>
      <trkpt lat="49.80871" lon="4.86754">
        <ele>345</ele>
        <time>2021-07-31T08:44:40.000Z</time>
      </trkpt>
      <trkpt lat="49.80873" lon="4.86756">
        <ele>345</ele>
        <time>2021-07-31T08:44:41.000Z</time>
      </trkpt>
      <trkpt lat="49.80875" lon="4.86758">
        <ele>345</ele>
        <time>2021-07-31T08:44:42.000Z</time>
      </trkpt>
      <trkpt lat="49.80876" lon="4.86758">
        <ele>345</ele>
        <time>2021-07-31T08:44:43.000Z</time>
      </trkpt>
      <trkpt lat="49.80876" lon="4.86758">
        <ele>345</ele>
        <time>2021-07-31T08:44:44.000Z</time>
      </trkpt>
      <trkpt lat="49.80876" lon="4.86757">
        <ele>344</ele>
        <time>2021-07-31T08:44:45.000Z</time>
      </trkpt>
      <trkpt lat="49.80875" lon="4.86756">
        <ele>344</ele>
        <time>2021-07-31T08:44:46.000Z</time>
      </trkpt>
      <trkpt lat="49.80874" lon="4.86755">
        <ele>344</ele>
        <time>2021-07-31T08:44:47.000Z</time>
      </trkpt>
      <trkpt lat="49.80872" lon="4.86754">
        <ele>344</ele>
        <time>2021-07-31T08:44:48.000Z</time>
      </trkpt>
      <trkpt lat="49.8087" lon="4.86753">
        <ele>344</ele>
        <time>2021-07-31T08:44:49.000Z</time>
      </trkpt>
      <trkpt lat="49.80868" lon="4.86751">
        <ele>344</ele>
        <time>2021-07-31T08:44:50.000Z</time>
      </trkpt>
      <trkpt lat="49.80866" lon="4.86749">
        <ele>343</ele>
        <time>2021-07-31T08:44:51.000Z</time>
      </trkpt>
      <trkpt lat="49.80863" lon="4.86747">
        <ele>343</ele>
        <time>2021-07-31T08:44:52.000Z</time>
      </trkpt>
      <trkpt lat="49.80859" lon="4.86746">
        <ele>343</ele>
        <time>2021-07-31T08:44:53.000Z</time>
      </trkpt>
      <trkpt lat="49.80856" lon="4.86744">
        <ele>343</ele>
        <time>2021-07-31T08:44:54.000Z</time>
      </trkpt>
      <trkpt lat="49.80853" lon="4.86743">
        <ele>342</ele>
        <time>2021-07-31T08:44:55.000Z</time>
      </trkpt>
      <trkpt lat="49.8085" lon="4.86743">
        <ele>342</ele>
        <time>2021-07-31T08:44:56.000Z</time>
      </trkpt>
      <trkpt lat="49.80847" lon="4.86743">
        <ele>342</ele>
        <time>2021-07-31T08:44:57.000Z</time>
      </trkpt>
      <trkpt lat="49.80844" lon="4.86743">
        <ele>342</ele>
        <time>2021-07-31T08:44:58.000Z</time>
      </trkpt>
      <trkpt lat="49.80841" lon="4.86743">
        <ele>342</ele>
        <time>2021-07-31T08:44:59.000Z</time>
      </trkpt>
      <trkpt lat="49.80837" lon="4.86743">
        <ele>341</ele>
        <time>2021-07-31T08:45:00.000Z</time>
      </trkpt>
      <trkpt lat="49.80833" lon="4.86743">
        <ele>341</ele>
        <time>2021-07-31T08:45:01.000Z</time>
      </trkpt>
      <trkpt lat="49.80829" lon="4.86742">
        <ele>341</ele>
        <time>2021-07-31T08:45:02.000Z</time>
      </trkpt>
      <trkpt lat="49.80825" lon="4.86742">
        <ele>341</ele>
        <time>2021-07-31T08:45:03.000Z</time>
      </trkpt>
      <trkpt lat="49.8082" lon="4.86741">
        <ele>341</ele>
        <time>2021-07-31T08:45:04.000Z</time>
      </trkpt>
      <trkpt lat="49.80815" lon="4.86741">
        <ele>341</ele>
        <time>2021-07-31T08:45:05.000Z</time>
      </trkpt>
      <trkpt lat="49.8081" lon="4.8674">
        <ele>341</ele>
        <time>2021-07-31T08:45:06.000Z</time>
      </trkpt>
      <trkpt lat="49.80804" lon="4.86739">
        <ele>341</ele>
        <time>2021-07-31T08:45:07.000Z</time>
      </trkpt>
      <trkpt lat="49.80799" lon="4.86738">
        <ele>341</ele>
        <time>2021-07-31T08:45:08.000Z</time>
      </trkpt>
      <trkpt lat="49.80794" lon="4.86738">
        <ele>341</ele>
        <time>2021-07-31T08:45:09.000Z</time>
      </trkpt>
      <trkpt lat="49.80789" lon="4.86737">
        <ele>341</ele>
        <time>2021-07-31T08:45:10.000Z</time>
      </trkpt>
      <trkpt lat="49.80784" lon="4.86737">
        <ele>341</ele>
        <time>2021-07-31T08:45:11.000Z</time>
      </trkpt>
      <trkpt lat="49.80778" lon="4.86735">
        <ele>341</ele>
        <time>2021-07-31T08:45:12.000Z</time>
      </trkpt>
      <trkpt lat="49.80774" lon="4.86734">
        <ele>341</ele>
        <time>2021-07-31T08:45:13.000Z</time>
      </trkpt>
      <trkpt lat="49.80769" lon="4.86733">
        <ele>341</ele>
        <time>2021-07-31T08:45:14.000Z</time>
      </trkpt>
      <trkpt lat="49.80765" lon="4.86732">
        <ele>341</ele>
        <time>2021-07-31T08:45:15.000Z</time>
      </trkpt>
      <trkpt lat="49.8076" lon="4.86731">
        <ele>341</ele>
        <time>2021-07-31T08:45:16.000Z</time>
      </trkpt>
      <trkpt lat="49.80755" lon="4.8673">
        <ele>341</ele>
        <time>2021-07-31T08:45:17.000Z</time>
      </trkpt>
      <trkpt lat="49.80751" lon="4.86729">
        <ele>341</ele>
        <time>2021-07-31T08:45:18.000Z</time>
      </trkpt>
      <trkpt lat="49.80746" lon="4.86728">
        <ele>341</ele>
        <time>2021-07-31T08:45:19.000Z</time>
      </trkpt>
      <trkpt lat="49.80742" lon="4.86728">
        <ele>341</ele>
        <time>2021-07-31T08:45:20.000Z</time>
      </trkpt>
      <trkpt lat="49.80738" lon="4.86727">
        <ele>341</ele>
        <time>2021-07-31T08:45:21.000Z</time>
      </trkpt>
      <trkpt lat="49.80734" lon="4.86726">
        <ele>341</ele>
        <time>2021-07-31T08:45:22.000Z</time>
      </trkpt>
      <trkpt lat="49.8073" lon="4.86726">
        <ele>342</ele>
        <time>2021-07-31T08:45:23.000Z</time>
      </trkpt>
      <trkpt lat="49.80727" lon="4.86726">
        <ele>342</ele>
        <time>2021-07-31T08:45:24.000Z</time>
      </trkpt>
      <trkpt lat="49.80724" lon="4.86726">
        <ele>342</ele>
        <time>2021-07-31T08:45:25.000Z</time>
      </trkpt>
      <trkpt lat="49.80722" lon="4.86724">
        <ele>342</ele>
        <time>2021-07-31T08:45:26.000Z</time>
      </trkpt>
      <trkpt lat="49.80721" lon="4.86722">
        <ele>342</ele>
        <time>2021-07-31T08:45:27.000Z</time>
      </trkpt>
      <trkpt lat="49.8072" lon="4.86722">
        <ele>342</ele>
        <time>2021-07-31T08:45:28.000Z</time>
      </trkpt>
      <trkpt lat="49.80719" lon="4.86719">
        <ele>342</ele>
        <time>2021-07-31T08:45:29.000Z</time>
      </trkpt>
      <trkpt lat="49.80719" lon="4.86716">
        <ele>343</ele>
        <time>2021-07-31T08:45:30.000Z</time>
      </trkpt>
      <trkpt lat="49.8072" lon="4.86712">
        <ele>343</ele>
        <time>2021-07-31T08:45:31.000Z</time>
      </trkpt>
      <trkpt lat="49.8072" lon="4.86708">
        <ele>343</ele>
        <time>2021-07-31T08:45:32.000Z</time>
      </trkpt>
      <trkpt lat="49.80721" lon="4.86703">
        <ele>343</ele>
        <time>2021-07-31T08:45:33.000Z</time>
      </trkpt>
      <trkpt lat="49.80722" lon="4.86699">
        <ele>343</ele>
        <time>2021-07-31T08:45:34.000Z</time>
      </trkpt>
      <trkpt lat="49.80723" lon="4.86695">
        <ele>343</ele>
        <time>2021-07-31T08:45:35.000Z</time>
      </trkpt>
      <trkpt lat="49.80725" lon="4.86691">
        <ele>343</ele>
        <time>2021-07-31T08:45:36.000Z</time>
      </trkpt>
      <trkpt lat="49.80726" lon="4.86687">
        <ele>343</ele>
        <time>2021-07-31T08:45:37.000Z</time>
      </trkpt>
      <trkpt lat="49.80728" lon="4.86683">
        <ele>343</ele>
        <time>2021-07-31T08:45:38.000Z</time>
      </trkpt>
      <trkpt lat="49.8073" lon="4.8668">
        <ele>343</ele>
        <time>2021-07-31T08:45:39.000Z</time>
      </trkpt>
      <trkpt lat="49.80732" lon="4.86678">
        <ele>343</ele>
        <time>2021-07-31T08:45:40.000Z</time>
      </trkpt>
      <trkpt lat="49.80733" lon="4.86675">
        <ele>343</ele>
        <time>2021-07-31T08:45:41.000Z</time>
      </trkpt>
      <trkpt lat="49.80735" lon="4.86671">
        <ele>343</ele>
        <time>2021-07-31T08:45:42.000Z</time>
      </trkpt>
      <trkpt lat="49.80737" lon="4.86668">
        <ele>342</ele>
        <time>2021-07-31T08:45:43.000Z</time>
      </trkpt>
      <trkpt lat="49.80739" lon="4.86665">
        <ele>342</ele>
        <time>2021-07-31T08:45:44.000Z</time>
      </trkpt>
      <trkpt lat="49.80741" lon="4.86662">
        <ele>342</ele>
        <time>2021-07-31T08:45:45.000Z</time>
      </trkpt>
      <trkpt lat="49.80744" lon="4.86658">
        <ele>342</ele>
        <time>2021-07-31T08:45:46.000Z</time>
      </trkpt>
      <trkpt lat="49.80745" lon="4.86654">
        <ele>341</ele>
        <time>2021-07-31T08:45:47.000Z</time>
      </trkpt>
      <trkpt lat="49.80746" lon="4.86652">
        <ele>341</ele>
        <time>2021-07-31T08:45:48.000Z</time>
      </trkpt>
      <trkpt lat="49.80747" lon="4.8665">
        <ele>341</ele>
        <time>2021-07-31T08:45:49.000Z</time>
      </trkpt>
      <trkpt lat="49.80748" lon="4.86647">
        <ele>341</ele>
        <time>2021-07-31T08:45:50.000Z</time>
      </trkpt>
      <trkpt lat="49.80749" lon="4.86645">
        <ele>341</ele>
        <time>2021-07-31T08:45:51.000Z</time>
      </trkpt>
      <trkpt lat="49.80751" lon="4.86642">
        <ele>340</ele>
        <time>2021-07-31T08:45:52.000Z</time>
      </trkpt>
      <trkpt lat="49.80753" lon="4.86639">
        <ele>340</ele>
        <time>2021-07-31T08:45:53.000Z</time>
      </trkpt>
      <trkpt lat="49.80755" lon="4.86635">
        <ele>340</ele>
        <time>2021-07-31T08:45:54.000Z</time>
      </trkpt>
      <trkpt lat="49.80758" lon="4.86631">
        <ele>340</ele>
        <time>2021-07-31T08:45:55.000Z</time>
      </trkpt>
      <trkpt lat="49.80759" lon="4.86627">
        <ele>340</ele>
        <time>2021-07-31T08:45:56.000Z</time>
      </trkpt>
      <trkpt lat="49.80761" lon="4.86624">
        <ele>340</ele>
        <time>2021-07-31T08:45:57.000Z</time>
      </trkpt>
      <trkpt lat="49.80763" lon="4.86621">
        <ele>340</ele>
        <time>2021-07-31T08:45:58.000Z</time>
      </trkpt>
      <trkpt lat="49.80764" lon="4.86618">
        <ele>339</ele>
        <time>2021-07-31T08:45:59.000Z</time>
      </trkpt>
      <trkpt lat="49.80765" lon="4.86615">
        <ele>339</ele>
        <time>2021-07-31T08:46:00.000Z</time>
      </trkpt>
      <trkpt lat="49.80767" lon="4.86612">
        <ele>338</ele>
        <time>2021-07-31T08:46:01.000Z</time>
      </trkpt>
      <trkpt lat="49.80768" lon="4.86609">
        <ele>338</ele>
        <time>2021-07-31T08:46:02.000Z</time>
      </trkpt>
      <trkpt lat="49.8077" lon="4.86607">
        <ele>337</ele>
        <time>2021-07-31T08:46:03.000Z</time>
      </trkpt>
      <trkpt lat="49.80772" lon="4.86605">
        <ele>337</ele>
        <time>2021-07-31T08:46:04.000Z</time>
      </trkpt>
      <trkpt lat="49.80775" lon="4.86602">
        <ele>337</ele>
        <time>2021-07-31T08:46:05.000Z</time>
      </trkpt>
      <trkpt lat="49.80777" lon="4.86599">
        <ele>336</ele>
        <time>2021-07-31T08:46:06.000Z</time>
      </trkpt>
      <trkpt lat="49.8078" lon="4.86595">
        <ele>336</ele>
        <time>2021-07-31T08:46:07.000Z</time>
      </trkpt>
      <trkpt lat="49.80783" lon="4.86592">
        <ele>335</ele>
        <time>2021-07-31T08:46:08.000Z</time>
      </trkpt>
      <trkpt lat="49.80786" lon="4.86589">
        <ele>335</ele>
        <time>2021-07-31T08:46:09.000Z</time>
      </trkpt>
      <trkpt lat="49.80789" lon="4.86587">
        <ele>334</ele>
        <time>2021-07-31T08:46:10.000Z</time>
      </trkpt>
      <trkpt lat="49.80791" lon="4.86584">
        <ele>334</ele>
        <time>2021-07-31T08:46:11.000Z</time>
      </trkpt>
      <trkpt lat="49.80793" lon="4.86581">
        <ele>333</ele>
        <time>2021-07-31T08:46:12.000Z</time>
      </trkpt>
      <trkpt lat="49.80795" lon="4.86578">
        <ele>332</ele>
        <time>2021-07-31T08:46:13.000Z</time>
      </trkpt>
      <trkpt lat="49.80797" lon="4.86576">
        <ele>332</ele>
        <time>2021-07-31T08:46:14.000Z</time>
      </trkpt>
      <trkpt lat="49.80799" lon="4.86573">
        <ele>331</ele>
        <time>2021-07-31T08:46:15.000Z</time>
      </trkpt>
      <trkpt lat="49.80801" lon="4.8657">
        <ele>331</ele>
        <time>2021-07-31T08:46:16.000Z</time>
      </trkpt>
      <trkpt lat="49.80803" lon="4.86567">
        <ele>330</ele>
        <time>2021-07-31T08:46:17.000Z</time>
      </trkpt>
      <trkpt lat="49.80805" lon="4.86564">
        <ele>330</ele>
        <time>2021-07-31T08:46:18.000Z</time>
      </trkpt>
      <trkpt lat="49.80806" lon="4.86561">
        <ele>329</ele>
        <time>2021-07-31T08:46:19.000Z</time>
      </trkpt>
      <trkpt lat="49.80808" lon="4.86557">
        <ele>328</ele>
        <time>2021-07-31T08:46:20.000Z</time>
      </trkpt>
      <trkpt lat="49.80809" lon="4.86553">
        <ele>328</ele>
        <time>2021-07-31T08:46:21.000Z</time>
      </trkpt>
      <trkpt lat="49.80811" lon="4.8655">
        <ele>327</ele>
        <time>2021-07-31T08:46:22.000Z</time>
      </trkpt>
      <trkpt lat="49.80813" lon="4.86547">
        <ele>327</ele>
        <time>2021-07-31T08:46:23.000Z</time>
      </trkpt>
      <trkpt lat="49.80814" lon="4.86545">
        <ele>326</ele>
        <time>2021-07-31T08:46:24.000Z</time>
      </trkpt>
      <trkpt lat="49.80816" lon="4.86543">
        <ele>325</ele>
        <time>2021-07-31T08:46:25.000Z</time>
      </trkpt>
      <trkpt lat="49.80817" lon="4.8654">
        <ele>325</ele>
        <time>2021-07-31T08:46:26.000Z</time>
      </trkpt>
      <trkpt lat="49.80819" lon="4.86536">
        <ele>324</ele>
        <time>2021-07-31T08:46:27.000Z</time>
      </trkpt>
      <trkpt lat="49.80821" lon="4.86533">
        <ele>324</ele>
        <time>2021-07-31T08:46:28.000Z</time>
      </trkpt>
      <trkpt lat="49.80823" lon="4.86529">
        <ele>323</ele>
        <time>2021-07-31T08:46:29.000Z</time>
      </trkpt>
      <trkpt lat="49.80826" lon="4.86526">
        <ele>323</ele>
        <time>2021-07-31T08:46:30.000Z</time>
      </trkpt>
      <trkpt lat="49.80829" lon="4.86524">
        <ele>322</ele>
        <time>2021-07-31T08:46:31.000Z</time>
      </trkpt>
      <trkpt lat="49.80832" lon="4.86522">
        <ele>322</ele>
        <time>2021-07-31T08:46:32.000Z</time>
      </trkpt>
      <trkpt lat="49.80836" lon="4.86522">
        <ele>321</ele>
        <time>2021-07-31T08:46:33.000Z</time>
      </trkpt>
      <trkpt lat="49.80839" lon="4.86523">
        <ele>321</ele>
        <time>2021-07-31T08:46:34.000Z</time>
      </trkpt>
      <trkpt lat="49.80842" lon="4.86524">
        <ele>321</ele>
        <time>2021-07-31T08:46:35.000Z</time>
      </trkpt>
      <trkpt lat="49.80845" lon="4.86525">
        <ele>321</ele>
        <time>2021-07-31T08:46:36.000Z</time>
      </trkpt>
      <trkpt lat="49.80847" lon="4.86526">
        <ele>320</ele>
        <time>2021-07-31T08:46:37.000Z</time>
      </trkpt>
      <trkpt lat="49.8085" lon="4.86527">
        <ele>320</ele>
        <time>2021-07-31T08:46:38.000Z</time>
      </trkpt>
      <trkpt lat="49.80853" lon="4.86529">
        <ele>320</ele>
        <time>2021-07-31T08:46:39.000Z</time>
      </trkpt>
      <trkpt lat="49.80856" lon="4.8653">
        <ele>320</ele>
        <time>2021-07-31T08:46:40.000Z</time>
      </trkpt>
      <trkpt lat="49.80859" lon="4.86532">
        <ele>320</ele>
        <time>2021-07-31T08:46:41.000Z</time>
      </trkpt>
      <trkpt lat="49.80862" lon="4.86533">
        <ele>320</ele>
        <time>2021-07-31T08:46:42.000Z</time>
      </trkpt>
      <trkpt lat="49.80865" lon="4.86534">
        <ele>320</ele>
        <time>2021-07-31T08:46:43.000Z</time>
      </trkpt>
      <trkpt lat="49.80869" lon="4.86535">
        <ele>320</ele>
        <time>2021-07-31T08:46:44.000Z</time>
      </trkpt>
      <trkpt lat="49.80872" lon="4.86537">
        <ele>320</ele>
        <time>2021-07-31T08:46:45.000Z</time>
      </trkpt>
      <trkpt lat="49.80876" lon="4.86538">
        <ele>320</ele>
        <time>2021-07-31T08:46:46.000Z</time>
      </trkpt>
      <trkpt lat="49.80879" lon="4.86539">
        <ele>320</ele>
        <time>2021-07-31T08:46:47.000Z</time>
      </trkpt>
      <trkpt lat="49.80881" lon="4.8654">
        <ele>320</ele>
        <time>2021-07-31T08:46:48.000Z</time>
      </trkpt>
      <trkpt lat="49.80882" lon="4.8654">
        <ele>320</ele>
        <time>2021-07-31T08:46:49.000Z</time>
      </trkpt>
      <trkpt lat="49.80883" lon="4.8654">
        <ele>319</ele>
        <time>2021-07-31T08:46:50.000Z</time>
      </trkpt>
      <trkpt lat="49.80883" lon="4.8654">
        <ele>319</ele>
        <time>2021-07-31T08:46:51.000Z</time>
      </trkpt>
      <trkpt lat="49.80883" lon="4.8654">
        <ele>319</ele>
        <time>2021-07-31T08:46:52.000Z</time>
      </trkpt>
      <trkpt lat="49.80885" lon="4.86541">
        <ele>319</ele>
        <time>2021-07-31T08:46:53.000Z</time>
      </trkpt>
      <trkpt lat="49.80886" lon="4.86543">
        <ele>319</ele>
        <time>2021-07-31T08:46:54.000Z</time>
      </trkpt>
      <trkpt lat="49.80889" lon="4.86545">
        <ele>319</ele>
        <time>2021-07-31T08:46:55.000Z</time>
      </trkpt>
      <trkpt lat="49.80892" lon="4.86547">
        <ele>319</ele>
        <time>2021-07-31T08:46:56.000Z</time>
      </trkpt>
      <trkpt lat="49.80895" lon="4.86549">
        <ele>319</ele>
        <time>2021-07-31T08:46:57.000Z</time>
      </trkpt>
      <trkpt lat="49.80899" lon="4.86553">
        <ele>318</ele>
        <time>2021-07-31T08:46:58.000Z</time>
      </trkpt>
      <trkpt lat="49.80903" lon="4.86558">
        <ele>318</ele>
        <time>2021-07-31T08:46:59.000Z</time>
      </trkpt>
      <trkpt lat="49.80907" lon="4.86563">
        <ele>318</ele>
        <time>2021-07-31T08:47:00.000Z</time>
      </trkpt>
      <trkpt lat="49.80911" lon="4.86568">
        <ele>318</ele>
        <time>2021-07-31T08:47:01.000Z</time>
      </trkpt>
      <trkpt lat="49.80915" lon="4.86573">
        <ele>317</ele>
        <time>2021-07-31T08:47:02.000Z</time>
      </trkpt>
      <trkpt lat="49.80917" lon="4.86577">
        <ele>317</ele>
        <time>2021-07-31T08:47:03.000Z</time>
      </trkpt>
      <trkpt lat="49.80919" lon="4.86579">
        <ele>316</ele>
        <time>2021-07-31T08:47:04.000Z</time>
      </trkpt>
      <trkpt lat="49.80919" lon="4.8658">
        <ele>316</ele>
        <time>2021-07-31T08:47:05.000Z</time>
      </trkpt>
      <trkpt lat="49.80919" lon="4.86581">
        <ele>315</ele>
        <time>2021-07-31T08:47:06.000Z</time>
      </trkpt>
      <trkpt lat="49.80919" lon="4.86582">
        <ele>315</ele>
        <time>2021-07-31T08:47:07.000Z</time>
      </trkpt>
      <trkpt lat="49.80919" lon="4.86582">
        <ele>314</ele>
        <time>2021-07-31T08:47:08.000Z</time>
      </trkpt>
      <trkpt lat="49.80919" lon="4.86582">
        <ele>314</ele>
        <time>2021-07-31T08:47:09.000Z</time>
      </trkpt>
      <trkpt lat="49.80919" lon="4.86583">
        <ele>314</ele>
        <time>2021-07-31T08:47:10.000Z</time>
      </trkpt>
      <trkpt lat="49.80919" lon="4.86583">
        <ele>314</ele>
        <time>2021-07-31T08:47:11.000Z</time>
      </trkpt>
      <trkpt lat="49.80919" lon="4.86583">
        <ele>313</ele>
        <time>2021-07-31T08:47:12.000Z</time>
      </trkpt>
      <trkpt lat="49.80919" lon="4.86583">
        <ele>313</ele>
        <time>2021-07-31T08:47:13.000Z</time>
      </trkpt>
      <trkpt lat="49.80919" lon="4.86584">
        <ele>313</ele>
        <time>2021-07-31T08:47:14.000Z</time>
      </trkpt>
      <trkpt lat="49.8092" lon="4.86584">
        <ele>312</ele>
        <time>2021-07-31T08:47:15.000Z</time>
      </trkpt>
      <trkpt lat="49.80921" lon="4.86584">
        <ele>312</ele>
        <time>2021-07-31T08:47:16.000Z</time>
      </trkpt>
      <trkpt lat="49.80923" lon="4.86585">
        <ele>312</ele>
        <time>2021-07-31T08:47:17.000Z</time>
      </trkpt>
      <trkpt lat="49.80926" lon="4.86585">
        <ele>311</ele>
        <time>2021-07-31T08:47:18.000Z</time>
      </trkpt>
      <trkpt lat="49.80928" lon="4.86587">
        <ele>310</ele>
        <time>2021-07-31T08:47:19.000Z</time>
      </trkpt>
      <trkpt lat="49.80931" lon="4.86589">
        <ele>310</ele>
        <time>2021-07-31T08:47:20.000Z</time>
      </trkpt>
      <trkpt lat="49.80935" lon="4.8659">
        <ele>309</ele>
        <time>2021-07-31T08:47:21.000Z</time>
      </trkpt>
      <trkpt lat="49.80939" lon="4.86592">
        <ele>309</ele>
        <time>2021-07-31T08:47:22.000Z</time>
      </trkpt>
      <trkpt lat="49.80943" lon="4.86593">
        <ele>308</ele>
        <time>2021-07-31T08:47:23.000Z</time>
      </trkpt>
      <trkpt lat="49.80947" lon="4.86594">
        <ele>308</ele>
        <time>2021-07-31T08:47:24.000Z</time>
      </trkpt>
      <trkpt lat="49.8095" lon="4.86596">
        <ele>307</ele>
        <time>2021-07-31T08:47:25.000Z</time>
      </trkpt>
      <trkpt lat="49.80953" lon="4.86597">
        <ele>307</ele>
        <time>2021-07-31T08:47:26.000Z</time>
      </trkpt>
      <trkpt lat="49.80954" lon="4.86597">
        <ele>307</ele>
        <time>2021-07-31T08:47:27.000Z</time>
      </trkpt>
      <trkpt lat="49.80957" lon="4.86597">
        <ele>306</ele>
        <time>2021-07-31T08:47:28.000Z</time>
      </trkpt>
      <trkpt lat="49.80959" lon="4.86598">
        <ele>306</ele>
        <time>2021-07-31T08:47:29.000Z</time>
      </trkpt>
      <trkpt lat="49.80961" lon="4.86599">
        <ele>305</ele>
        <time>2021-07-31T08:47:30.000Z</time>
      </trkpt>
      <trkpt lat="49.80964" lon="4.86601">
        <ele>305</ele>
        <time>2021-07-31T08:47:31.000Z</time>
      </trkpt>
      <trkpt lat="49.80968" lon="4.86602">
        <ele>305</ele>
        <time>2021-07-31T08:47:32.000Z</time>
      </trkpt>
      <trkpt lat="49.80971" lon="4.86602">
        <ele>304</ele>
        <time>2021-07-31T08:47:33.000Z</time>
      </trkpt>
      <trkpt lat="49.80975" lon="4.86603">
        <ele>304</ele>
        <time>2021-07-31T08:47:34.000Z</time>
      </trkpt>
      <trkpt lat="49.80978" lon="4.86604">
        <ele>304</ele>
        <time>2021-07-31T08:47:35.000Z</time>
      </trkpt>
      <trkpt lat="49.80981" lon="4.86604">
        <ele>303</ele>
        <time>2021-07-31T08:47:36.000Z</time>
      </trkpt>
      <trkpt lat="49.80983" lon="4.86604">
        <ele>303</ele>
        <time>2021-07-31T08:47:37.000Z</time>
      </trkpt>
      <trkpt lat="49.80986" lon="4.86604">
        <ele>303</ele>
        <time>2021-07-31T08:47:38.000Z</time>
      </trkpt>
      <trkpt lat="49.80988" lon="4.86604">
        <ele>302</ele>
        <time>2021-07-31T08:47:39.000Z</time>
      </trkpt>
      <trkpt lat="49.80991" lon="4.86604">
        <ele>302</ele>
        <time>2021-07-31T08:47:40.000Z</time>
      </trkpt>
      <trkpt lat="49.80995" lon="4.86604">
        <ele>301</ele>
        <time>2021-07-31T08:47:41.000Z</time>
      </trkpt>
      <trkpt lat="49.80998" lon="4.86604">
        <ele>301</ele>
        <time>2021-07-31T08:47:42.000Z</time>
      </trkpt>
      <trkpt lat="49.81001" lon="4.86605">
        <ele>300</ele>
        <time>2021-07-31T08:47:43.000Z</time>
      </trkpt>
      <trkpt lat="49.81004" lon="4.86606">
        <ele>300</ele>
        <time>2021-07-31T08:47:44.000Z</time>
      </trkpt>
      <trkpt lat="49.81008" lon="4.86607">
        <ele>299</ele>
        <time>2021-07-31T08:47:45.000Z</time>
      </trkpt>
      <trkpt lat="49.81012" lon="4.86609">
        <ele>299</ele>
        <time>2021-07-31T08:47:46.000Z</time>
      </trkpt>
      <trkpt lat="49.81015" lon="4.86611">
        <ele>298</ele>
        <time>2021-07-31T08:47:47.000Z</time>
      </trkpt>
      <trkpt lat="49.81019" lon="4.86613">
        <ele>297</ele>
        <time>2021-07-31T08:47:48.000Z</time>
      </trkpt>
      <trkpt lat="49.81022" lon="4.86615">
        <ele>297</ele>
        <time>2021-07-31T08:47:49.000Z</time>
      </trkpt>
      <trkpt lat="49.81025" lon="4.86617">
        <ele>296</ele>
        <time>2021-07-31T08:47:50.000Z</time>
      </trkpt>
      <trkpt lat="49.81028" lon="4.86619">
        <ele>296</ele>
        <time>2021-07-31T08:47:51.000Z</time>
      </trkpt>
      <trkpt lat="49.8103" lon="4.86621">
        <ele>295</ele>
        <time>2021-07-31T08:47:52.000Z</time>
      </trkpt>
      <trkpt lat="49.81032" lon="4.86623">
        <ele>294</ele>
        <time>2021-07-31T08:47:53.000Z</time>
      </trkpt>
      <trkpt lat="49.81035" lon="4.86626">
        <ele>294</ele>
        <time>2021-07-31T08:47:54.000Z</time>
      </trkpt>
      <trkpt lat="49.81038" lon="4.86629">
        <ele>293</ele>
        <time>2021-07-31T08:47:55.000Z</time>
      </trkpt>
      <trkpt lat="49.8104" lon="4.86632">
        <ele>293</ele>
        <time>2021-07-31T08:47:56.000Z</time>
      </trkpt>
      <trkpt lat="49.81043" lon="4.86636">
        <ele>292</ele>
        <time>2021-07-31T08:47:57.000Z</time>
      </trkpt>
      <trkpt lat="49.81045" lon="4.86639">
        <ele>292</ele>
        <time>2021-07-31T08:47:58.000Z</time>
      </trkpt>
      <trkpt lat="49.81047" lon="4.86642">
        <ele>291</ele>
        <time>2021-07-31T08:47:59.000Z</time>
      </trkpt>
      <trkpt lat="49.81049" lon="4.86644">
        <ele>291</ele>
        <time>2021-07-31T08:48:00.000Z</time>
      </trkpt>
      <trkpt lat="49.81051" lon="4.86647">
        <ele>290</ele>
        <time>2021-07-31T08:48:01.000Z</time>
      </trkpt>
      <trkpt lat="49.81052" lon="4.8665">
        <ele>290</ele>
        <time>2021-07-31T08:48:02.000Z</time>
      </trkpt>
      <trkpt lat="49.81054" lon="4.86652">
        <ele>289</ele>
        <time>2021-07-31T08:48:03.000Z</time>
      </trkpt>
      <trkpt lat="49.81056" lon="4.86655">
        <ele>289</ele>
        <time>2021-07-31T08:48:04.000Z</time>
      </trkpt>
      <trkpt lat="49.81057" lon="4.86659">
        <ele>288</ele>
        <time>2021-07-31T08:48:05.000Z</time>
      </trkpt>
      <trkpt lat="49.81058" lon="4.86663">
        <ele>288</ele>
        <time>2021-07-31T08:48:06.000Z</time>
      </trkpt>
      <trkpt lat="49.81058" lon="4.86666">
        <ele>287</ele>
        <time>2021-07-31T08:48:07.000Z</time>
      </trkpt>
      <trkpt lat="49.81059" lon="4.86669">
        <ele>286</ele>
        <time>2021-07-31T08:48:08.000Z</time>
      </trkpt>
      <trkpt lat="49.81061" lon="4.86672">
        <ele>286</ele>
        <time>2021-07-31T08:48:09.000Z</time>
      </trkpt>
      <trkpt lat="49.81062" lon="4.86676">
        <ele>285</ele>
        <time>2021-07-31T08:48:10.000Z</time>
      </trkpt>
      <trkpt lat="49.81064" lon="4.8668">
        <ele>284</ele>
        <time>2021-07-31T08:48:11.000Z</time>
      </trkpt>
      <trkpt lat="49.81067" lon="4.86683">
        <ele>283</ele>
        <time>2021-07-31T08:48:12.000Z</time>
      </trkpt>
      <trkpt lat="49.81069" lon="4.86688">
        <ele>283</ele>
        <time>2021-07-31T08:48:13.000Z</time>
      </trkpt>
      <trkpt lat="49.81072" lon="4.86693">
        <ele>282</ele>
        <time>2021-07-31T08:48:14.000Z</time>
      </trkpt>
      <trkpt lat="49.81074" lon="4.86699">
        <ele>282</ele>
        <time>2021-07-31T08:48:15.000Z</time>
      </trkpt>
      <trkpt lat="49.81077" lon="4.86706">
        <ele>281</ele>
        <time>2021-07-31T08:48:16.000Z</time>
      </trkpt>
      <trkpt lat="49.81079" lon="4.86714">
        <ele>280</ele>
        <time>2021-07-31T08:48:17.000Z</time>
      </trkpt>
      <trkpt lat="49.81082" lon="4.86721">
        <ele>280</ele>
        <time>2021-07-31T08:48:18.000Z</time>
      </trkpt>
      <trkpt lat="49.81084" lon="4.86729">
        <ele>279</ele>
        <time>2021-07-31T08:48:19.000Z</time>
      </trkpt>
      <trkpt lat="49.81086" lon="4.86736">
        <ele>278</ele>
        <time>2021-07-31T08:48:20.000Z</time>
      </trkpt>
      <trkpt lat="49.81088" lon="4.86742">
        <ele>278</ele>
        <time>2021-07-31T08:48:21.000Z</time>
      </trkpt>
      <trkpt lat="49.81089" lon="4.86749">
        <ele>277</ele>
        <time>2021-07-31T08:48:22.000Z</time>
      </trkpt>
      <trkpt lat="49.81089" lon="4.86756">
        <ele>276</ele>
        <time>2021-07-31T08:48:23.000Z</time>
      </trkpt>
      <trkpt lat="49.8109" lon="4.86764">
        <ele>276</ele>
        <time>2021-07-31T08:48:24.000Z</time>
      </trkpt>
      <trkpt lat="49.81091" lon="4.86772">
        <ele>275</ele>
        <time>2021-07-31T08:48:25.000Z</time>
      </trkpt>
      <trkpt lat="49.81091" lon="4.86781">
        <ele>275</ele>
        <time>2021-07-31T08:48:26.000Z</time>
      </trkpt>
      <trkpt lat="49.81092" lon="4.8679">
        <ele>274</ele>
        <time>2021-07-31T08:48:27.000Z</time>
      </trkpt>
      <trkpt lat="49.81092" lon="4.86798">
        <ele>274</ele>
        <time>2021-07-31T08:48:28.000Z</time>
      </trkpt>
      <trkpt lat="49.81093" lon="4.86806">
        <ele>273</ele>
        <time>2021-07-31T08:48:29.000Z</time>
      </trkpt>
      <trkpt lat="49.81093" lon="4.86811">
        <ele>273</ele>
        <time>2021-07-31T08:48:30.000Z</time>
      </trkpt>
      <trkpt lat="49.81094" lon="4.86815">
        <ele>272</ele>
        <time>2021-07-31T08:48:31.000Z</time>
      </trkpt>
      <trkpt lat="49.81095" lon="4.86817">
        <ele>272</ele>
        <time>2021-07-31T08:48:32.000Z</time>
      </trkpt>
      <trkpt lat="49.81095" lon="4.8682">
        <ele>271</ele>
        <time>2021-07-31T08:48:33.000Z</time>
      </trkpt>
      <trkpt lat="49.81096" lon="4.8682">
        <ele>271</ele>
        <time>2021-07-31T08:48:34.000Z</time>
      </trkpt>
      <trkpt lat="49.81097" lon="4.8682">
        <ele>271</ele>
        <time>2021-07-31T08:48:35.000Z</time>
      </trkpt>
      <trkpt lat="49.81097" lon="4.86819">
        <ele>271</ele>
        <time>2021-07-31T08:48:36.000Z</time>
      </trkpt>
      <trkpt lat="49.81098" lon="4.86819">
        <ele>271</ele>
        <time>2021-07-31T08:48:37.000Z</time>
      </trkpt>
      <trkpt lat="49.811" lon="4.86821">
        <ele>271</ele>
        <time>2021-07-31T08:48:38.000Z</time>
      </trkpt>
      <trkpt lat="49.81103" lon="4.86825">
        <ele>271</ele>
        <time>2021-07-31T08:48:39.000Z</time>
      </trkpt>
      <trkpt lat="49.81105" lon="4.86829">
        <ele>271</ele>
        <time>2021-07-31T08:48:40.000Z</time>
      </trkpt>
      <trkpt lat="49.81108" lon="4.86834">
        <ele>270</ele>
        <time>2021-07-31T08:48:41.000Z</time>
      </trkpt>
      <trkpt lat="49.8111" lon="4.86839">
        <ele>270</ele>
        <time>2021-07-31T08:48:42.000Z</time>
      </trkpt>
      <trkpt lat="49.81113" lon="4.86843">
        <ele>270</ele>
        <time>2021-07-31T08:48:43.000Z</time>
      </trkpt>
      <trkpt lat="49.81115" lon="4.86845">
        <ele>270</ele>
        <time>2021-07-31T08:48:44.000Z</time>
      </trkpt>
      <trkpt lat="49.81116" lon="4.86847">
        <ele>270</ele>
        <time>2021-07-31T08:48:45.000Z</time>
      </trkpt>
      <trkpt lat="49.81118" lon="4.86846">
        <ele>270</ele>
        <time>2021-07-31T08:48:46.000Z</time>
      </trkpt>
      <trkpt lat="49.81118" lon="4.86844">
        <ele>269</ele>
        <time>2021-07-31T08:48:47.000Z</time>
      </trkpt>
      <trkpt lat="49.81116" lon="4.86841">
        <ele>269</ele>
        <time>2021-07-31T08:48:48.000Z</time>
      </trkpt>
      <trkpt lat="49.81114" lon="4.86839">
        <ele>269</ele>
        <time>2021-07-31T08:48:49.000Z</time>
      </trkpt>
      <trkpt lat="49.81111" lon="4.86836">
        <ele>268</ele>
        <time>2021-07-31T08:48:50.000Z</time>
      </trkpt>
      <trkpt lat="49.81109" lon="4.86833">
        <ele>268</ele>
        <time>2021-07-31T08:48:51.000Z</time>
      </trkpt>
      <trkpt lat="49.81106" lon="4.86831">
        <ele>268</ele>
        <time>2021-07-31T08:48:52.000Z</time>
      </trkpt>
      <trkpt lat="49.81104" lon="4.86829">
        <ele>268</ele>
        <time>2021-07-31T08:48:53.000Z</time>
      </trkpt>
      <trkpt lat="49.81102" lon="4.86828">
        <ele>267</ele>
        <time>2021-07-31T08:48:54.000Z</time>
      </trkpt>
      <trkpt lat="49.81101" lon="4.86827">
        <ele>267</ele>
        <time>2021-07-31T08:48:55.000Z</time>
      </trkpt>
      <trkpt lat="49.81099" lon="4.86825">
        <ele>267</ele>
        <time>2021-07-31T08:48:56.000Z</time>
      </trkpt>
      <trkpt lat="49.811" lon="4.86824">
        <ele>267</ele>
        <time>2021-07-31T08:48:57.000Z</time>
      </trkpt>
      <trkpt lat="49.81102" lon="4.86825">
        <ele>267</ele>
        <time>2021-07-31T08:48:58.000Z</time>
      </trkpt>
      <trkpt lat="49.81104" lon="4.86827">
        <ele>267</ele>
        <time>2021-07-31T08:48:59.000Z</time>
      </trkpt>
      <trkpt lat="49.81105" lon="4.86828">
        <ele>267</ele>
        <time>2021-07-31T08:49:00.000Z</time>
      </trkpt>
      <trkpt lat="49.81106" lon="4.8683">
        <ele>267</ele>
        <time>2021-07-31T08:49:01.000Z</time>
      </trkpt>
      <trkpt lat="49.81106" lon="4.86832">
        <ele>267</ele>
        <time>2021-07-31T08:49:02.000Z</time>
      </trkpt>
      <trkpt lat="49.81104" lon="4.86833">
        <ele>267</ele>
        <time>2021-07-31T08:49:03.000Z</time>
      </trkpt>
      <trkpt lat="49.81102" lon="4.86831">
        <ele>267</ele>
        <time>2021-07-31T08:49:04.000Z</time>
      </trkpt>
      <trkpt lat="49.811" lon="4.86829">
        <ele>266</ele>
        <time>2021-07-31T08:49:05.000Z</time>
      </trkpt>
      <trkpt lat="49.81098" lon="4.86825">
        <ele>266</ele>
        <time>2021-07-31T08:49:06.000Z</time>
      </trkpt>
      <trkpt lat="49.81096" lon="4.86822">
        <ele>267</ele>
        <time>2021-07-31T08:49:07.000Z</time>
      </trkpt>
      <trkpt lat="49.81094" lon="4.86818">
        <ele>267</ele>
        <time>2021-07-31T08:49:08.000Z</time>
      </trkpt>
      <trkpt lat="49.81093" lon="4.86813">
        <ele>267</ele>
        <time>2021-07-31T08:49:09.000Z</time>
      </trkpt>
      <trkpt lat="49.81092" lon="4.86808">
        <ele>267</ele>
        <time>2021-07-31T08:49:10.000Z</time>
      </trkpt>
      <trkpt lat="49.81091" lon="4.86803">
        <ele>267</ele>
        <time>2021-07-31T08:49:11.000Z</time>
      </trkpt>
      <trkpt lat="49.8109" lon="4.86798">
        <ele>267</ele>
        <time>2021-07-31T08:49:12.000Z</time>
      </trkpt>
      <trkpt lat="49.81089" lon="4.86793">
        <ele>267</ele>
        <time>2021-07-31T08:49:13.000Z</time>
      </trkpt>
      <trkpt lat="49.81089" lon="4.86788">
        <ele>266</ele>
        <time>2021-07-31T08:49:14.000Z</time>
      </trkpt>
      <trkpt lat="49.81088" lon="4.86782">
        <ele>266</ele>
        <time>2021-07-31T08:49:15.000Z</time>
      </trkpt>
      <trkpt lat="49.81088" lon="4.86778">
        <ele>266</ele>
        <time>2021-07-31T08:49:16.000Z</time>
      </trkpt>
      <trkpt lat="49.81088" lon="4.86773">
        <ele>266</ele>
        <time>2021-07-31T08:49:17.000Z</time>
      </trkpt>
      <trkpt lat="49.81088" lon="4.86768">
        <ele>266</ele>
        <time>2021-07-31T08:49:18.000Z</time>
      </trkpt>
      <trkpt lat="49.81087" lon="4.86765">
        <ele>266</ele>
        <time>2021-07-31T08:49:19.000Z</time>
      </trkpt>
      <trkpt lat="49.81086" lon="4.86761">
        <ele>266</ele>
        <time>2021-07-31T08:49:20.000Z</time>
      </trkpt>
      <trkpt lat="49.81086" lon="4.86757">
        <ele>266</ele>
        <time>2021-07-31T08:49:21.000Z</time>
      </trkpt>
      <trkpt lat="49.81086" lon="4.86752">
        <ele>266</ele>
        <time>2021-07-31T08:49:22.000Z</time>
      </trkpt>
      <trkpt lat="49.81086" lon="4.86748">
        <ele>266</ele>
        <time>2021-07-31T08:49:23.000Z</time>
      </trkpt>
      <trkpt lat="49.81085" lon="4.86744">
        <ele>266</ele>
        <time>2021-07-31T08:49:24.000Z</time>
      </trkpt>
      <trkpt lat="49.81084" lon="4.86739">
        <ele>266</ele>
        <time>2021-07-31T08:49:25.000Z</time>
      </trkpt>
      <trkpt lat="49.81082" lon="4.86735">
        <ele>266</ele>
        <time>2021-07-31T08:49:26.000Z</time>
      </trkpt>
      <trkpt lat="49.81081" lon="4.86731">
        <ele>266</ele>
        <time>2021-07-31T08:49:27.000Z</time>
      </trkpt>
      <trkpt lat="49.81079" lon="4.86727">
        <ele>266</ele>
        <time>2021-07-31T08:49:28.000Z</time>
      </trkpt>
      <trkpt lat="49.81078" lon="4.86723">
        <ele>266</ele>
        <time>2021-07-31T08:49:29.000Z</time>
      </trkpt>
      <trkpt lat="49.81076" lon="4.86719">
        <ele>266</ele>
        <time>2021-07-31T08:49:30.000Z</time>
      </trkpt>
      <trkpt lat="49.81075" lon="4.86715">
        <ele>266</ele>
        <time>2021-07-31T08:49:31.000Z</time>
      </trkpt>
      <trkpt lat="49.81073" lon="4.86711">
        <ele>266</ele>
        <time>2021-07-31T08:49:32.000Z</time>
      </trkpt>
      <trkpt lat="49.81072" lon="4.86707">
        <ele>266</ele>
        <time>2021-07-31T08:49:33.000Z</time>
      </trkpt>
      <trkpt lat="49.8107" lon="4.86703">
        <ele>267</ele>
        <time>2021-07-31T08:49:34.000Z</time>
      </trkpt>
      <trkpt lat="49.81069" lon="4.86699">
        <ele>267</ele>
        <time>2021-07-31T08:49:35.000Z</time>
      </trkpt>
      <trkpt lat="49.81068" lon="4.86695">
        <ele>267</ele>
        <time>2021-07-31T08:49:36.000Z</time>
      </trkpt>
      <trkpt lat="49.81066" lon="4.86691">
        <ele>267</ele>
        <time>2021-07-31T08:49:37.000Z</time>
      </trkpt>
      <trkpt lat="49.81065" lon="4.86688">
        <ele>267</ele>
        <time>2021-07-31T08:49:38.000Z</time>
      </trkpt>
      <trkpt lat="49.81063" lon="4.86685">
        <ele>267</ele>
        <time>2021-07-31T08:49:39.000Z</time>
      </trkpt>
      <trkpt lat="49.81061" lon="4.86682">
        <ele>267</ele>
        <time>2021-07-31T08:49:40.000Z</time>
      </trkpt>
      <trkpt lat="49.81059" lon="4.86681">
        <ele>267</ele>
        <time>2021-07-31T08:49:41.000Z</time>
      </trkpt>
      <trkpt lat="49.81057" lon="4.86681">
        <ele>267</ele>
        <time>2021-07-31T08:49:42.000Z</time>
      </trkpt>
      <trkpt lat="49.81055" lon="4.86682">
        <ele>268</ele>
        <time>2021-07-31T08:49:43.000Z</time>
      </trkpt>
      <trkpt lat="49.81053" lon="4.86684">
        <ele>268</ele>
        <time>2021-07-31T08:49:44.000Z</time>
      </trkpt>
      <trkpt lat="49.81052" lon="4.86686">
        <ele>268</ele>
        <time>2021-07-31T08:49:45.000Z</time>
      </trkpt>
      <trkpt lat="49.81051" lon="4.86689">
        <ele>268</ele>
        <time>2021-07-31T08:49:46.000Z</time>
      </trkpt>
      <trkpt lat="49.8105" lon="4.86692">
        <ele>268</ele>
        <time>2021-07-31T08:49:47.000Z</time>
      </trkpt>
      <trkpt lat="49.81049" lon="4.86695">
        <ele>268</ele>
        <time>2021-07-31T08:49:48.000Z</time>
      </trkpt>
      <trkpt lat="49.81049" lon="4.86698">
        <ele>269</ele>
        <time>2021-07-31T08:49:49.000Z</time>
      </trkpt>
      <trkpt lat="49.81049" lon="4.86701">
        <ele>269</ele>
        <time>2021-07-31T08:49:50.000Z</time>
      </trkpt>
      <trkpt lat="49.81049" lon="4.86705">
        <ele>269</ele>
        <time>2021-07-31T08:49:51.000Z</time>
      </trkpt>
      <trkpt lat="49.8105" lon="4.86709">
        <ele>269</ele>
        <time>2021-07-31T08:49:52.000Z</time>
      </trkpt>
      <trkpt lat="49.8105" lon="4.86713">
        <ele>269</ele>
        <time>2021-07-31T08:49:53.000Z</time>
      </trkpt>
      <trkpt lat="49.8105" lon="4.86718">
        <ele>269</ele>
        <time>2021-07-31T08:49:54.000Z</time>
      </trkpt>
      <trkpt lat="49.8105" lon="4.86723">
        <ele>270</ele>
        <time>2021-07-31T08:49:55.000Z</time>
      </trkpt>
      <trkpt lat="49.81051" lon="4.86728">
        <ele>270</ele>
        <time>2021-07-31T08:49:56.000Z</time>
      </trkpt>
      <trkpt lat="49.81051" lon="4.86733">
        <ele>270</ele>
        <time>2021-07-31T08:49:57.000Z</time>
      </trkpt>
      <trkpt lat="49.81051" lon="4.86738">
        <ele>270</ele>
        <time>2021-07-31T08:49:58.000Z</time>
      </trkpt>
      <trkpt lat="49.81051" lon="4.86744">
        <ele>270</ele>
        <time>2021-07-31T08:49:59.000Z</time>
      </trkpt>
      <trkpt lat="49.81052" lon="4.8675">
        <ele>270</ele>
        <time>2021-07-31T08:50:00.000Z</time>
      </trkpt>
      <trkpt lat="49.81052" lon="4.86755">
        <ele>270</ele>
        <time>2021-07-31T08:50:01.000Z</time>
      </trkpt>
      <trkpt lat="49.81053" lon="4.8676">
        <ele>270</ele>
        <time>2021-07-31T08:50:02.000Z</time>
      </trkpt>
      <trkpt lat="49.81053" lon="4.86765">
        <ele>270</ele>
        <time>2021-07-31T08:50:03.000Z</time>
      </trkpt>
      <trkpt lat="49.81053" lon="4.8677">
        <ele>270</ele>
        <time>2021-07-31T08:50:04.000Z</time>
      </trkpt>
      <trkpt lat="49.81053" lon="4.86774">
        <ele>270</ele>
        <time>2021-07-31T08:50:05.000Z</time>
      </trkpt>
      <trkpt lat="49.81053" lon="4.86779">
        <ele>270</ele>
        <time>2021-07-31T08:50:06.000Z</time>
      </trkpt>
      <trkpt lat="49.81054" lon="4.86783">
        <ele>270</ele>
        <time>2021-07-31T08:50:07.000Z</time>
      </trkpt>
      <trkpt lat="49.81054" lon="4.86788">
        <ele>270</ele>
        <time>2021-07-31T08:50:08.000Z</time>
      </trkpt>
      <trkpt lat="49.81054" lon="4.86793">
        <ele>270</ele>
        <time>2021-07-31T08:50:09.000Z</time>
      </trkpt>
      <trkpt lat="49.81054" lon="4.86797">
        <ele>271</ele>
        <time>2021-07-31T08:50:10.000Z</time>
      </trkpt>
      <trkpt lat="49.81054" lon="4.86801">
        <ele>271</ele>
        <time>2021-07-31T08:50:11.000Z</time>
      </trkpt>
      <trkpt lat="49.81055" lon="4.86805">
        <ele>271</ele>
        <time>2021-07-31T08:50:12.000Z</time>
      </trkpt>
      <trkpt lat="49.81055" lon="4.86809">
        <ele>271</ele>
        <time>2021-07-31T08:50:13.000Z</time>
      </trkpt>
      <trkpt lat="49.81056" lon="4.86814">
        <ele>271</ele>
        <time>2021-07-31T08:50:14.000Z</time>
      </trkpt>
      <trkpt lat="49.81056" lon="4.86819">
        <ele>271</ele>
        <time>2021-07-31T08:50:15.000Z</time>
      </trkpt>
      <trkpt lat="49.81056" lon="4.86823">
        <ele>271</ele>
        <time>2021-07-31T08:50:16.000Z</time>
      </trkpt>
      <trkpt lat="49.81056" lon="4.86827">
        <ele>271</ele>
        <time>2021-07-31T08:50:17.000Z</time>
      </trkpt>
      <trkpt lat="49.81057" lon="4.86831">
        <ele>271</ele>
        <time>2021-07-31T08:50:18.000Z</time>
      </trkpt>
      <trkpt lat="49.81057" lon="4.86834">
        <ele>271</ele>
        <time>2021-07-31T08:50:19.000Z</time>
      </trkpt>
      <trkpt lat="49.81057" lon="4.86835">
        <ele>271</ele>
        <time>2021-07-31T08:50:20.000Z</time>
      </trkpt>
      <trkpt lat="49.81058" lon="4.86836">
        <ele>271</ele>
        <time>2021-07-31T08:50:21.000Z</time>
      </trkpt>
      <trkpt lat="49.81058" lon="4.86835">
        <ele>271</ele>
        <time>2021-07-31T08:50:22.000Z</time>
      </trkpt>
      <trkpt lat="49.81058" lon="4.86834">
        <ele>271</ele>
        <time>2021-07-31T08:50:23.000Z</time>
      </trkpt>
      <trkpt lat="49.81058" lon="4.86831">
        <ele>271</ele>
        <time>2021-07-31T08:50:24.000Z</time>
      </trkpt>
      <trkpt lat="49.81057" lon="4.86827">
        <ele>271</ele>
        <time>2021-07-31T08:50:25.000Z</time>
      </trkpt>
      <trkpt lat="49.81057" lon="4.86822">
        <ele>271</ele>
        <time>2021-07-31T08:50:26.000Z</time>
      </trkpt>
      <trkpt lat="49.81057" lon="4.86817">
        <ele>272</ele>
        <time>2021-07-31T08:50:27.000Z</time>
      </trkpt>
      <trkpt lat="49.81057" lon="4.86812">
        <ele>272</ele>
        <time>2021-07-31T08:50:28.000Z</time>
      </trkpt>
      <trkpt lat="49.81057" lon="4.86806">
        <ele>272</ele>
        <time>2021-07-31T08:50:29.000Z</time>
      </trkpt>
      <trkpt lat="49.81056" lon="4.868">
        <ele>272</ele>
        <time>2021-07-31T08:50:30.000Z</time>
      </trkpt>
      <trkpt lat="49.81056" lon="4.86793">
        <ele>272</ele>
        <time>2021-07-31T08:50:31.000Z</time>
      </trkpt>
      <trkpt lat="49.81055" lon="4.86786">
        <ele>272</ele>
        <time>2021-07-31T08:50:32.000Z</time>
      </trkpt>
      <trkpt lat="49.81055" lon="4.86778">
        <ele>272</ele>
        <time>2021-07-31T08:50:33.000Z</time>
      </trkpt>
      <trkpt lat="49.81055" lon="4.86771">
        <ele>272</ele>
        <time>2021-07-31T08:50:34.000Z</time>
      </trkpt>
      <trkpt lat="49.81054" lon="4.86763">
        <ele>272</ele>
        <time>2021-07-31T08:50:35.000Z</time>
      </trkpt>
      <trkpt lat="49.81053" lon="4.86755">
        <ele>272</ele>
        <time>2021-07-31T08:50:36.000Z</time>
      </trkpt>
      <trkpt lat="49.81052" lon="4.86748">
        <ele>272</ele>
        <time>2021-07-31T08:50:37.000Z</time>
      </trkpt>
      <trkpt lat="49.81051" lon="4.86741">
        <ele>271</ele>
        <time>2021-07-31T08:50:38.000Z</time>
      </trkpt>
      <trkpt lat="49.81052" lon="4.86733">
        <ele>271</ele>
        <time>2021-07-31T08:50:39.000Z</time>
      </trkpt>
      <trkpt lat="49.81052" lon="4.86726">
        <ele>271</ele>
        <time>2021-07-31T08:50:40.000Z</time>
      </trkpt>
      <trkpt lat="49.81052" lon="4.86719">
        <ele>271</ele>
        <time>2021-07-31T08:50:41.000Z</time>
      </trkpt>
      <trkpt lat="49.81051" lon="4.86713">
        <ele>271</ele>
        <time>2021-07-31T08:50:42.000Z</time>
      </trkpt>
      <trkpt lat="49.81051" lon="4.86706">
        <ele>271</ele>
        <time>2021-07-31T08:50:43.000Z</time>
      </trkpt>
      <trkpt lat="49.81051" lon="4.86698">
        <ele>271</ele>
        <time>2021-07-31T08:50:44.000Z</time>
      </trkpt>
      <trkpt lat="49.81052" lon="4.86691">
        <ele>271</ele>
        <time>2021-07-31T08:50:45.000Z</time>
      </trkpt>
      <trkpt lat="49.81054" lon="4.86682">
        <ele>271</ele>
        <time>2021-07-31T08:50:46.000Z</time>
      </trkpt>
      <trkpt lat="49.81054" lon="4.86675">
        <ele>271</ele>
        <time>2021-07-31T08:50:47.000Z</time>
      </trkpt>
      <trkpt lat="49.81053" lon="4.86668">
        <ele>271</ele>
        <time>2021-07-31T08:50:48.000Z</time>
      </trkpt>
      <trkpt lat="49.81052" lon="4.86663">
        <ele>271</ele>
        <time>2021-07-31T08:50:49.000Z</time>
      </trkpt>
      <trkpt lat="49.81051" lon="4.86659">
        <ele>271</ele>
        <time>2021-07-31T08:50:50.000Z</time>
      </trkpt>
      <trkpt lat="49.81049" lon="4.86655">
        <ele>271</ele>
        <time>2021-07-31T08:50:51.000Z</time>
      </trkpt>
      <trkpt lat="49.81047" lon="4.86651">
        <ele>272</ele>
        <time>2021-07-31T08:50:52.000Z</time>
      </trkpt>
      <trkpt lat="49.81045" lon="4.86647">
        <ele>272</ele>
        <time>2021-07-31T08:50:53.000Z</time>
      </trkpt>
      <trkpt lat="49.81043" lon="4.86644">
        <ele>272</ele>
        <time>2021-07-31T08:50:54.000Z</time>
      </trkpt>
      <trkpt lat="49.81041" lon="4.86641">
        <ele>272</ele>
        <time>2021-07-31T08:50:55.000Z</time>
      </trkpt>
      <trkpt lat="49.81039" lon="4.86638">
        <ele>272</ele>
        <time>2021-07-31T08:50:56.000Z</time>
      </trkpt>
      <trkpt lat="49.81037" lon="4.86636">
        <ele>272</ele>
        <time>2021-07-31T08:50:57.000Z</time>
      </trkpt>
      <trkpt lat="49.81035" lon="4.86633">
        <ele>272</ele>
        <time>2021-07-31T08:50:58.000Z</time>
      </trkpt>
      <trkpt lat="49.81033" lon="4.86631">
        <ele>272</ele>
        <time>2021-07-31T08:50:59.000Z</time>
      </trkpt>
      <trkpt lat="49.81031" lon="4.86628">
        <ele>272</ele>
        <time>2021-07-31T08:51:00.000Z</time>
      </trkpt>
      <trkpt lat="49.81029" lon="4.86627">
        <ele>272</ele>
        <time>2021-07-31T08:51:01.000Z</time>
      </trkpt>
      <trkpt lat="49.81028" lon="4.86625">
        <ele>272</ele>
        <time>2021-07-31T08:51:02.000Z</time>
      </trkpt>
      <trkpt lat="49.81026" lon="4.86623">
        <ele>272</ele>
        <time>2021-07-31T08:51:03.000Z</time>
      </trkpt>
      <trkpt lat="49.81024" lon="4.86621">
        <ele>272</ele>
        <time>2021-07-31T08:51:04.000Z</time>
      </trkpt>
      <trkpt lat="49.81023" lon="4.86619">
        <ele>272</ele>
        <time>2021-07-31T08:51:05.000Z</time>
      </trkpt>
      <trkpt lat="49.81022" lon="4.86618">
        <ele>272</ele>
        <time>2021-07-31T08:51:06.000Z</time>
      </trkpt>
      <trkpt lat="49.8102" lon="4.86617">
        <ele>272</ele>
        <time>2021-07-31T08:51:07.000Z</time>
      </trkpt>
      <trkpt lat="49.81019" lon="4.86616">
        <ele>272</ele>
        <time>2021-07-31T08:51:08.000Z</time>
      </trkpt>
      <trkpt lat="49.81018" lon="4.86615">
        <ele>272</ele>
        <time>2021-07-31T08:51:09.000Z</time>
      </trkpt>
      <trkpt lat="49.81016" lon="4.86614">
        <ele>273</ele>
        <time>2021-07-31T08:51:10.000Z</time>
      </trkpt>
      <trkpt lat="49.81015" lon="4.86613">
        <ele>273</ele>
        <time>2021-07-31T08:51:11.000Z</time>
      </trkpt>
      <trkpt lat="49.81014" lon="4.86612">
        <ele>273</ele>
        <time>2021-07-31T08:51:12.000Z</time>
      </trkpt>
      <trkpt lat="49.81012" lon="4.86611">
        <ele>273</ele>
        <time>2021-07-31T08:51:13.000Z</time>
      </trkpt>
      <trkpt lat="49.81011" lon="4.8661">
        <ele>273</ele>
        <time>2021-07-31T08:51:14.000Z</time>
      </trkpt>
      <trkpt lat="49.8101" lon="4.8661">
        <ele>273</ele>
        <time>2021-07-31T08:51:15.000Z</time>
      </trkpt>
      <trkpt lat="49.81009" lon="4.86609">
        <ele>273</ele>
        <time>2021-07-31T08:51:16.000Z</time>
      </trkpt>
      <trkpt lat="49.81007" lon="4.86608">
        <ele>273</ele>
        <time>2021-07-31T08:51:17.000Z</time>
      </trkpt>
      <trkpt lat="49.81006" lon="4.86607">
        <ele>273</ele>
        <time>2021-07-31T08:51:18.000Z</time>
      </trkpt>
      <trkpt lat="49.81005" lon="4.86607">
        <ele>274</ele>
        <time>2021-07-31T08:51:19.000Z</time>
      </trkpt>
      <trkpt lat="49.81004" lon="4.86606">
        <ele>274</ele>
        <time>2021-07-31T08:51:20.000Z</time>
      </trkpt>
      <trkpt lat="49.81002" lon="4.86606">
        <ele>274</ele>
        <time>2021-07-31T08:51:21.000Z</time>
      </trkpt>
      <trkpt lat="49.81001" lon="4.86605">
        <ele>274</ele>
        <time>2021-07-31T08:51:22.000Z</time>
      </trkpt>
      <trkpt lat="49.81" lon="4.86605">
        <ele>274</ele>
        <time>2021-07-31T08:51:23.000Z</time>
      </trkpt>
      <trkpt lat="49.80999" lon="4.86605">
        <ele>275</ele>
        <time>2021-07-31T08:51:24.000Z</time>
      </trkpt>
      <trkpt lat="49.80998" lon="4.86605">
        <ele>275</ele>
        <time>2021-07-31T08:51:25.000Z</time>
      </trkpt>
      <trkpt lat="49.80996" lon="4.86604">
        <ele>275</ele>
        <time>2021-07-31T08:51:26.000Z</time>
      </trkpt>
      <trkpt lat="49.80995" lon="4.86604">
        <ele>275</ele>
        <time>2021-07-31T08:51:27.000Z</time>
      </trkpt>
      <trkpt lat="49.80994" lon="4.86604">
        <ele>275</ele>
        <time>2021-07-31T08:51:28.000Z</time>
      </trkpt>
      <trkpt lat="49.80993" lon="4.86604">
        <ele>276</ele>
        <time>2021-07-31T08:51:29.000Z</time>
      </trkpt>
      <trkpt lat="49.80992" lon="4.86604">
        <ele>276</ele>
        <time>2021-07-31T08:51:30.000Z</time>
      </trkpt>
      <trkpt lat="49.80992" lon="4.86604">
        <ele>276</ele>
        <time>2021-07-31T08:51:31.000Z</time>
      </trkpt>
      <trkpt lat="49.80991" lon="4.86604">
        <ele>276</ele>
        <time>2021-07-31T08:51:32.000Z</time>
      </trkpt>
      <trkpt lat="49.80991" lon="4.86604">
        <ele>276</ele>
        <time>2021-07-31T08:51:33.000Z</time>
      </trkpt>
      <trkpt lat="49.80989" lon="4.86603">
        <ele>276</ele>
        <time>2021-07-31T08:51:34.000Z</time>
      </trkpt>
      <trkpt lat="49.80988" lon="4.86603">
        <ele>276</ele>
        <time>2021-07-31T08:51:35.000Z</time>
      </trkpt>
      <trkpt lat="49.80987" lon="4.86603">
        <ele>276</ele>
        <time>2021-07-31T08:51:36.000Z</time>
      </trkpt>
      <trkpt lat="49.80986" lon="4.86603">
        <ele>276</ele>
        <time>2021-07-31T08:51:37.000Z</time>
      </trkpt>
      <trkpt lat="49.80984" lon="4.86603">
        <ele>276</ele>
        <time>2021-07-31T08:51:38.000Z</time>
      </trkpt>
      <trkpt lat="49.80983" lon="4.86603">
        <ele>276</ele>
        <time>2021-07-31T08:51:39.000Z</time>
      </trkpt>
      <trkpt lat="49.80982" lon="4.86602">
        <ele>276</ele>
        <time>2021-07-31T08:51:40.000Z</time>
      </trkpt>
      <trkpt lat="49.80981" lon="4.86602">
        <ele>277</ele>
        <time>2021-07-31T08:51:41.000Z</time>
      </trkpt>
      <trkpt lat="49.8098" lon="4.86603">
        <ele>277</ele>
        <time>2021-07-31T08:51:42.000Z</time>
      </trkpt>
      <trkpt lat="49.80979" lon="4.86603">
        <ele>277</ele>
        <time>2021-07-31T08:51:43.000Z</time>
      </trkpt>
      <trkpt lat="49.80978" lon="4.86603">
        <ele>277</ele>
        <time>2021-07-31T08:51:44.000Z</time>
      </trkpt>
      <trkpt lat="49.80976" lon="4.86603">
        <ele>277</ele>
        <time>2021-07-31T08:51:45.000Z</time>
      </trkpt>
      <trkpt lat="49.80975" lon="4.86602">
        <ele>277</ele>
        <time>2021-07-31T08:51:46.000Z</time>
      </trkpt>
      <trkpt lat="49.80974" lon="4.86602">
        <ele>277</ele>
        <time>2021-07-31T08:51:47.000Z</time>
      </trkpt>
      <trkpt lat="49.80972" lon="4.86602">
        <ele>277</ele>
        <time>2021-07-31T08:51:48.000Z</time>
      </trkpt>
      <trkpt lat="49.80971" lon="4.86602">
        <ele>277</ele>
        <time>2021-07-31T08:51:49.000Z</time>
      </trkpt>
      <trkpt lat="49.8097" lon="4.86602">
        <ele>277</ele>
        <time>2021-07-31T08:51:50.000Z</time>
      </trkpt>
      <trkpt lat="49.80969" lon="4.86602">
        <ele>277</ele>
        <time>2021-07-31T08:51:51.000Z</time>
      </trkpt>
      <trkpt lat="49.80967" lon="4.86601">
        <ele>277</ele>
        <time>2021-07-31T08:51:52.000Z</time>
      </trkpt>
      <trkpt lat="49.80966" lon="4.86601">
        <ele>277</ele>
        <time>2021-07-31T08:51:53.000Z</time>
      </trkpt>
      <trkpt lat="49.80965" lon="4.86601">
        <ele>278</ele>
        <time>2021-07-31T08:51:54.000Z</time>
      </trkpt>
      <trkpt lat="49.80963" lon="4.866">
        <ele>278</ele>
        <time>2021-07-31T08:51:55.000Z</time>
      </trkpt>
      <trkpt lat="49.80962" lon="4.866">
        <ele>278</ele>
        <time>2021-07-31T08:51:56.000Z</time>
      </trkpt>
      <trkpt lat="49.80961" lon="4.86599">
        <ele>278</ele>
        <time>2021-07-31T08:51:57.000Z</time>
      </trkpt>
      <trkpt lat="49.8096" lon="4.86599">
        <ele>278</ele>
        <time>2021-07-31T08:51:58.000Z</time>
      </trkpt>
      <trkpt lat="49.80959" lon="4.86598">
        <ele>279</ele>
        <time>2021-07-31T08:51:59.000Z</time>
      </trkpt>
      <trkpt lat="49.80957" lon="4.86598">
        <ele>279</ele>
        <time>2021-07-31T08:52:00.000Z</time>
      </trkpt>
      <trkpt lat="49.80956" lon="4.86598">
        <ele>279</ele>
        <time>2021-07-31T08:52:01.000Z</time>
      </trkpt>
      <trkpt lat="49.80955" lon="4.86598">
        <ele>279</ele>
        <time>2021-07-31T08:52:02.000Z</time>
      </trkpt>
      <trkpt lat="49.80954" lon="4.86598">
        <ele>280</ele>
        <time>2021-07-31T08:52:03.000Z</time>
      </trkpt>
      <trkpt lat="49.80953" lon="4.86598">
        <ele>280</ele>
        <time>2021-07-31T08:52:04.000Z</time>
      </trkpt>
      <trkpt lat="49.80952" lon="4.86598">
        <ele>280</ele>
        <time>2021-07-31T08:52:05.000Z</time>
      </trkpt>
      <trkpt lat="49.80951" lon="4.86597">
        <ele>280</ele>
        <time>2021-07-31T08:52:06.000Z</time>
      </trkpt>
      <trkpt lat="49.8095" lon="4.86597">
        <ele>280</ele>
        <time>2021-07-31T08:52:07.000Z</time>
      </trkpt>
      <trkpt lat="49.80949" lon="4.86597">
        <ele>280</ele>
        <time>2021-07-31T08:52:08.000Z</time>
      </trkpt>
      <trkpt lat="49.80948" lon="4.86596">
        <ele>281</ele>
        <time>2021-07-31T08:52:09.000Z</time>
      </trkpt>
      <trkpt lat="49.80947" lon="4.86596">
        <ele>281</ele>
        <time>2021-07-31T08:52:10.000Z</time>
      </trkpt>
      <trkpt lat="49.80946" lon="4.86596">
        <ele>281</ele>
        <time>2021-07-31T08:52:11.000Z</time>
      </trkpt>
      <trkpt lat="49.80945" lon="4.86596">
        <ele>281</ele>
        <time>2021-07-31T08:52:12.000Z</time>
      </trkpt>
      <trkpt lat="49.80944" lon="4.86595">
        <ele>282</ele>
        <time>2021-07-31T08:52:13.000Z</time>
      </trkpt>
      <trkpt lat="49.80943" lon="4.86595">
        <ele>282</ele>
        <time>2021-07-31T08:52:14.000Z</time>
      </trkpt>
      <trkpt lat="49.80942" lon="4.86595">
        <ele>282</ele>
        <time>2021-07-31T08:52:15.000Z</time>
      </trkpt>
      <trkpt lat="49.80941" lon="4.86595">
        <ele>282</ele>
        <time>2021-07-31T08:52:16.000Z</time>
      </trkpt>
      <trkpt lat="49.80939" lon="4.86595">
        <ele>282</ele>
        <time>2021-07-31T08:52:17.000Z</time>
      </trkpt>
      <trkpt lat="49.80938" lon="4.86594">
        <ele>282</ele>
        <time>2021-07-31T08:52:18.000Z</time>
      </trkpt>
      <trkpt lat="49.80936" lon="4.86594">
        <ele>282</ele>
        <time>2021-07-31T08:52:19.000Z</time>
      </trkpt>
      <trkpt lat="49.80935" lon="4.86593">
        <ele>283</ele>
        <time>2021-07-31T08:52:20.000Z</time>
      </trkpt>
      <trkpt lat="49.80933" lon="4.86593">
        <ele>283</ele>
        <time>2021-07-31T08:52:21.000Z</time>
      </trkpt>
      <trkpt lat="49.80932" lon="4.86593">
        <ele>283</ele>
        <time>2021-07-31T08:52:22.000Z</time>
      </trkpt>
      <trkpt lat="49.80931" lon="4.86593">
        <ele>283</ele>
        <time>2021-07-31T08:52:23.000Z</time>
      </trkpt>
      <trkpt lat="49.8093" lon="4.86593">
        <ele>283</ele>
        <time>2021-07-31T08:52:24.000Z</time>
      </trkpt>
      <trkpt lat="49.80929" lon="4.86592">
        <ele>283</ele>
        <time>2021-07-31T08:52:25.000Z</time>
      </trkpt>
      <trkpt lat="49.80928" lon="4.86592">
        <ele>283</ele>
        <time>2021-07-31T08:52:26.000Z</time>
      </trkpt>
      <trkpt lat="49.80926" lon="4.86593">
        <ele>283</ele>
        <time>2021-07-31T08:52:27.000Z</time>
      </trkpt>
      <trkpt lat="49.80925" lon="4.86593">
        <ele>284</ele>
        <time>2021-07-31T08:52:28.000Z</time>
      </trkpt>
      <trkpt lat="49.80924" lon="4.86593">
        <ele>284</ele>
        <time>2021-07-31T08:52:29.000Z</time>
      </trkpt>
      <trkpt lat="49.80923" lon="4.86593">
        <ele>284</ele>
        <time>2021-07-31T08:52:30.000Z</time>
      </trkpt>
      <trkpt lat="49.80921" lon="4.86593">
        <ele>284</ele>
        <time>2021-07-31T08:52:31.000Z</time>
      </trkpt>
      <trkpt lat="49.8092" lon="4.86594">
        <ele>284</ele>
        <time>2021-07-31T08:52:32.000Z</time>
      </trkpt>
      <trkpt lat="49.8092" lon="4.86595">
        <ele>284</ele>
        <time>2021-07-31T08:52:33.000Z</time>
      </trkpt>
      <trkpt lat="49.80919" lon="4.86595">
        <ele>284</ele>
        <time>2021-07-31T08:52:34.000Z</time>
      </trkpt>
      <trkpt lat="49.80919" lon="4.86596">
        <ele>285</ele>
        <time>2021-07-31T08:52:35.000Z</time>
      </trkpt>
      <trkpt lat="49.80918" lon="4.86596">
        <ele>284</ele>
        <time>2021-07-31T08:52:36.000Z</time>
      </trkpt>
      <trkpt lat="49.80918" lon="4.86597">
        <ele>284</ele>
        <time>2021-07-31T08:52:37.000Z</time>
      </trkpt>
      <trkpt lat="49.80919" lon="4.86598">
        <ele>284</ele>
        <time>2021-07-31T08:52:38.000Z</time>
      </trkpt>
      <trkpt lat="49.80919" lon="4.866">
        <ele>284</ele>
        <time>2021-07-31T08:52:39.000Z</time>
      </trkpt>
      <trkpt lat="49.80919" lon="4.86602">
        <ele>285</ele>
        <time>2021-07-31T08:52:40.000Z</time>
      </trkpt>
      <trkpt lat="49.80921" lon="4.86604">
        <ele>285</ele>
        <time>2021-07-31T08:52:41.000Z</time>
      </trkpt>
      <trkpt lat="49.80922" lon="4.86607">
        <ele>285</ele>
        <time>2021-07-31T08:52:42.000Z</time>
      </trkpt>
      <trkpt lat="49.80925" lon="4.86611">
        <ele>285</ele>
        <time>2021-07-31T08:52:43.000Z</time>
      </trkpt>
      <trkpt lat="49.80927" lon="4.86615">
        <ele>285</ele>
        <time>2021-07-31T08:52:44.000Z</time>
      </trkpt>
      <trkpt lat="49.8093" lon="4.8662">
        <ele>285</ele>
        <time>2021-07-31T08:52:45.000Z</time>
      </trkpt>
      <trkpt lat="49.80933" lon="4.86625">
        <ele>285</ele>
        <time>2021-07-31T08:52:46.000Z</time>
      </trkpt>
      <trkpt lat="49.80936" lon="4.8663">
        <ele>285</ele>
        <time>2021-07-31T08:52:47.000Z</time>
      </trkpt>
      <trkpt lat="49.80939" lon="4.86635">
        <ele>286</ele>
        <time>2021-07-31T08:52:48.000Z</time>
      </trkpt>
      <trkpt lat="49.80942" lon="4.8664">
        <ele>286</ele>
        <time>2021-07-31T08:52:49.000Z</time>
      </trkpt>
      <trkpt lat="49.80945" lon="4.86645">
        <ele>286</ele>
        <time>2021-07-31T08:52:50.000Z</time>
      </trkpt>
      <trkpt lat="49.80947" lon="4.86649">
        <ele>286</ele>
        <time>2021-07-31T08:52:51.000Z</time>
      </trkpt>
      <trkpt lat="49.80949" lon="4.86654">
        <ele>286</ele>
        <time>2021-07-31T08:52:52.000Z</time>
      </trkpt>
      <trkpt lat="49.80951" lon="4.86657">
        <ele>286</ele>
        <time>2021-07-31T08:52:53.000Z</time>
      </trkpt>
      <trkpt lat="49.80953" lon="4.86661">
        <ele>287</ele>
        <time>2021-07-31T08:52:54.000Z</time>
      </trkpt>
      <trkpt lat="49.80954" lon="4.86666">
        <ele>287</ele>
        <time>2021-07-31T08:52:55.000Z</time>
      </trkpt>
      <trkpt lat="49.80956" lon="4.8667">
        <ele>287</ele>
        <time>2021-07-31T08:52:56.000Z</time>
      </trkpt>
      <trkpt lat="49.80957" lon="4.86674">
        <ele>287</ele>
        <time>2021-07-31T08:52:57.000Z</time>
      </trkpt>
      <trkpt lat="49.80958" lon="4.86677">
        <ele>287</ele>
        <time>2021-07-31T08:52:58.000Z</time>
      </trkpt>
      <trkpt lat="49.80958" lon="4.86681">
        <ele>288</ele>
        <time>2021-07-31T08:52:59.000Z</time>
      </trkpt>
      <trkpt lat="49.8096" lon="4.86685">
        <ele>288</ele>
        <time>2021-07-31T08:53:00.000Z</time>
      </trkpt>
      <trkpt lat="49.8096" lon="4.8669">
        <ele>288</ele>
        <time>2021-07-31T08:53:01.000Z</time>
      </trkpt>
      <trkpt lat="49.80961" lon="4.86693">
        <ele>288</ele>
        <time>2021-07-31T08:53:02.000Z</time>
      </trkpt>
      <trkpt lat="49.80962" lon="4.86696">
        <ele>289</ele>
        <time>2021-07-31T08:53:03.000Z</time>
      </trkpt>
      <trkpt lat="49.80962" lon="4.86698">
        <ele>289</ele>
        <time>2021-07-31T08:53:04.000Z</time>
      </trkpt>
      <trkpt lat="49.80963" lon="4.86702">
        <ele>289</ele>
        <time>2021-07-31T08:53:05.000Z</time>
      </trkpt>
      <trkpt lat="49.80964" lon="4.86705">
        <ele>289</ele>
        <time>2021-07-31T08:53:06.000Z</time>
      </trkpt>
      <trkpt lat="49.80965" lon="4.86709">
        <ele>289</ele>
        <time>2021-07-31T08:53:07.000Z</time>
      </trkpt>
      <trkpt lat="49.80965" lon="4.86713">
        <ele>290</ele>
        <time>2021-07-31T08:53:08.000Z</time>
      </trkpt>
      <trkpt lat="49.80966" lon="4.86717">
        <ele>290</ele>
        <time>2021-07-31T08:53:09.000Z</time>
      </trkpt>
      <trkpt lat="49.80967" lon="4.86722">
        <ele>290</ele>
        <time>2021-07-31T08:53:10.000Z</time>
      </trkpt>
      <trkpt lat="49.80968" lon="4.86726">
        <ele>290</ele>
        <time>2021-07-31T08:53:11.000Z</time>
      </trkpt>
      <trkpt lat="49.80968" lon="4.86731">
        <ele>290</ele>
        <time>2021-07-31T08:53:12.000Z</time>
      </trkpt>
      <trkpt lat="49.80969" lon="4.86736">
        <ele>290</ele>
        <time>2021-07-31T08:53:13.000Z</time>
      </trkpt>
      <trkpt lat="49.8097" lon="4.86742">
        <ele>290</ele>
        <time>2021-07-31T08:53:14.000Z</time>
      </trkpt>
      <trkpt lat="49.8097" lon="4.86748">
        <ele>291</ele>
        <time>2021-07-31T08:53:15.000Z</time>
      </trkpt>
      <trkpt lat="49.8097" lon="4.86754">
        <ele>291</ele>
        <time>2021-07-31T08:53:16.000Z</time>
      </trkpt>
      <trkpt lat="49.8097" lon="4.8676">
        <ele>291</ele>
        <time>2021-07-31T08:53:17.000Z</time>
      </trkpt>
      <trkpt lat="49.80971" lon="4.86766">
        <ele>291</ele>
        <time>2021-07-31T08:53:18.000Z</time>
      </trkpt>
      <trkpt lat="49.80972" lon="4.86772">
        <ele>291</ele>
        <time>2021-07-31T08:53:19.000Z</time>
      </trkpt>
      <trkpt lat="49.80972" lon="4.86778">
        <ele>291</ele>
        <time>2021-07-31T08:53:20.000Z</time>
      </trkpt>
      <trkpt lat="49.80972" lon="4.86785">
        <ele>291</ele>
        <time>2021-07-31T08:53:21.000Z</time>
      </trkpt>
      <trkpt lat="49.80972" lon="4.86792">
        <ele>291</ele>
        <time>2021-07-31T08:53:22.000Z</time>
      </trkpt>
      <trkpt lat="49.80972" lon="4.86799">
        <ele>291</ele>
        <time>2021-07-31T08:53:23.000Z</time>
      </trkpt>
      <trkpt lat="49.80972" lon="4.86807">
        <ele>291</ele>
        <time>2021-07-31T08:53:24.000Z</time>
      </trkpt>
      <trkpt lat="49.80972" lon="4.86814">
        <ele>291</ele>
        <time>2021-07-31T08:53:25.000Z</time>
      </trkpt>
      <trkpt lat="49.80971" lon="4.86822">
        <ele>291</ele>
        <time>2021-07-31T08:53:26.000Z</time>
      </trkpt>
      <trkpt lat="49.80971" lon="4.86829">
        <ele>291</ele>
        <time>2021-07-31T08:53:27.000Z</time>
      </trkpt>
      <trkpt lat="49.8097" lon="4.86837">
        <ele>291</ele>
        <time>2021-07-31T08:53:28.000Z</time>
      </trkpt>
      <trkpt lat="49.8097" lon="4.86844">
        <ele>291</ele>
        <time>2021-07-31T08:53:29.000Z</time>
      </trkpt>
      <trkpt lat="49.8097" lon="4.86851">
        <ele>291</ele>
        <time>2021-07-31T08:53:30.000Z</time>
      </trkpt>
      <trkpt lat="49.8097" lon="4.86858">
        <ele>291</ele>
        <time>2021-07-31T08:53:31.000Z</time>
      </trkpt>
      <trkpt lat="49.80969" lon="4.86866">
        <ele>291</ele>
        <time>2021-07-31T08:53:32.000Z</time>
      </trkpt>
      <trkpt lat="49.80969" lon="4.86873">
        <ele>291</ele>
        <time>2021-07-31T08:53:33.000Z</time>
      </trkpt>
      <trkpt lat="49.80969" lon="4.8688">
        <ele>291</ele>
        <time>2021-07-31T08:53:34.000Z</time>
      </trkpt>
      <trkpt lat="49.80969" lon="4.86888">
        <ele>291</ele>
        <time>2021-07-31T08:53:35.000Z</time>
      </trkpt>
      <trkpt lat="49.80969" lon="4.86896">
        <ele>291</ele>
        <time>2021-07-31T08:53:36.000Z</time>
      </trkpt>
      <trkpt lat="49.80968" lon="4.86904">
        <ele>291</ele>
        <time>2021-07-31T08:53:37.000Z</time>
      </trkpt>
      <trkpt lat="49.80968" lon="4.86912">
        <ele>291</ele>
        <time>2021-07-31T08:53:38.000Z</time>
      </trkpt>
      <trkpt lat="49.80969" lon="4.86919">
        <ele>291</ele>
        <time>2021-07-31T08:53:39.000Z</time>
      </trkpt>
      <trkpt lat="49.80969" lon="4.86927">
        <ele>291</ele>
        <time>2021-07-31T08:53:40.000Z</time>
      </trkpt>
      <trkpt lat="49.80969" lon="4.86934">
        <ele>291</ele>
        <time>2021-07-31T08:53:41.000Z</time>
      </trkpt>
      <trkpt lat="49.8097" lon="4.86941">
        <ele>291</ele>
        <time>2021-07-31T08:53:42.000Z</time>
      </trkpt>
      <trkpt lat="49.80971" lon="4.86947">
        <ele>292</ele>
        <time>2021-07-31T08:53:43.000Z</time>
      </trkpt>
      <trkpt lat="49.80971" lon="4.86953">
        <ele>292</ele>
        <time>2021-07-31T08:53:44.000Z</time>
      </trkpt>
      <trkpt lat="49.80971" lon="4.86959">
        <ele>292</ele>
        <time>2021-07-31T08:53:45.000Z</time>
      </trkpt>
      <trkpt lat="49.80972" lon="4.86965">
        <ele>292</ele>
        <time>2021-07-31T08:53:46.000Z</time>
      </trkpt>
      <trkpt lat="49.80972" lon="4.86972">
        <ele>292</ele>
        <time>2021-07-31T08:53:47.000Z</time>
      </trkpt>
      <trkpt lat="49.80973" lon="4.86978">
        <ele>292</ele>
        <time>2021-07-31T08:53:48.000Z</time>
      </trkpt>
      <trkpt lat="49.80974" lon="4.86984">
        <ele>292</ele>
        <time>2021-07-31T08:53:49.000Z</time>
      </trkpt>
      <trkpt lat="49.80974" lon="4.86988">
        <ele>292</ele>
        <time>2021-07-31T08:53:50.000Z</time>
      </trkpt>
      <trkpt lat="49.80974" lon="4.86991">
        <ele>293</ele>
        <time>2021-07-31T08:53:51.000Z</time>
      </trkpt>
      <trkpt lat="49.80975" lon="4.86993">
        <ele>293</ele>
        <time>2021-07-31T08:53:52.000Z</time>
      </trkpt>
      <trkpt lat="49.80975" lon="4.86993">
        <ele>293</ele>
        <time>2021-07-31T08:53:53.000Z</time>
      </trkpt>
      <trkpt lat="49.80975" lon="4.86993">
        <ele>293</ele>
        <time>2021-07-31T08:53:54.000Z</time>
      </trkpt>
      <trkpt lat="49.80976" lon="4.86993">
        <ele>293</ele>
        <time>2021-07-31T08:53:55.000Z</time>
      </trkpt>
      <trkpt lat="49.80976" lon="4.86994">
        <ele>293</ele>
        <time>2021-07-31T08:53:56.000Z</time>
      </trkpt>
      <trkpt lat="49.80976" lon="4.86994">
        <ele>293</ele>
        <time>2021-07-31T08:53:57.000Z</time>
      </trkpt>
      <trkpt lat="49.80976" lon="4.86994">
        <ele>294</ele>
        <time>2021-07-31T08:53:58.000Z</time>
      </trkpt>
      <trkpt lat="49.80976" lon="4.86995">
        <ele>294</ele>
        <time>2021-07-31T08:53:59.000Z</time>
      </trkpt>
      <trkpt lat="49.80976" lon="4.86995">
        <ele>294</ele>
        <time>2021-07-31T08:54:00.000Z</time>
      </trkpt>
      <trkpt lat="49.80976" lon="4.86995">
        <ele>294</ele>
        <time>2021-07-31T08:54:01.000Z</time>
      </trkpt>
      <trkpt lat="49.80976" lon="4.86995">
        <ele>294</ele>
        <time>2021-07-31T08:54:02.000Z</time>
      </trkpt>
      <trkpt lat="49.80977" lon="4.86995">
        <ele>294</ele>
        <time>2021-07-31T08:54:03.000Z</time>
      </trkpt>
      <trkpt lat="49.80977" lon="4.86996">
        <ele>294</ele>
        <time>2021-07-31T08:54:04.000Z</time>
      </trkpt>
      <trkpt lat="49.80977" lon="4.86996">
        <ele>294</ele>
        <time>2021-07-31T08:54:05.000Z</time>
      </trkpt>
      <trkpt lat="49.80977" lon="4.86996">
        <ele>294</ele>
        <time>2021-07-31T08:54:06.000Z</time>
      </trkpt>
      <trkpt lat="49.80977" lon="4.86996">
        <ele>294</ele>
        <time>2021-07-31T08:54:07.000Z</time>
      </trkpt>
      <trkpt lat="49.80977" lon="4.86996">
        <ele>294</ele>
        <time>2021-07-31T08:54:08.000Z</time>
      </trkpt>
      <trkpt lat="49.80977" lon="4.86996">
        <ele>295</ele>
        <time>2021-07-31T08:54:09.000Z</time>
      </trkpt>
      <trkpt lat="49.80977" lon="4.86996">
        <ele>295</ele>
        <time>2021-07-31T08:54:10.000Z</time>
      </trkpt>
      <trkpt lat="49.80977" lon="4.86996">
        <ele>295</ele>
        <time>2021-07-31T08:54:11.000Z</time>
      </trkpt>
      <trkpt lat="49.80977" lon="4.86996">
        <ele>295</ele>
        <time>2021-07-31T08:54:12.000Z</time>
      </trkpt>
      <trkpt lat="49.80977" lon="4.86996">
        <ele>295</ele>
        <time>2021-07-31T08:54:13.000Z</time>
      </trkpt>
      <trkpt lat="49.80977" lon="4.86997">
        <ele>295</ele>
        <time>2021-07-31T08:54:14.000Z</time>
      </trkpt>
      <trkpt lat="49.80977" lon="4.86997">
        <ele>295</ele>
        <time>2021-07-31T08:54:15.000Z</time>
      </trkpt>
      <trkpt lat="49.80977" lon="4.86997">
        <ele>295</ele>
        <time>2021-07-31T08:54:16.000Z</time>
      </trkpt>
      <trkpt lat="49.80977" lon="4.86997">
        <ele>295</ele>
        <time>2021-07-31T08:54:17.000Z</time>
      </trkpt>
      <trkpt lat="49.80977" lon="4.86997">
        <ele>295</ele>
        <time>2021-07-31T08:54:18.000Z</time>
      </trkpt>
      <trkpt lat="49.80977" lon="4.86997">
        <ele>295</ele>
        <time>2021-07-31T08:54:19.000Z</time>
      </trkpt>
      <trkpt lat="49.80977" lon="4.86997">
        <ele>295</ele>
        <time>2021-07-31T08:54:20.000Z</time>
      </trkpt>
      <trkpt lat="49.80977" lon="4.86997">
        <ele>295</ele>
        <time>2021-07-31T08:54:21.000Z</time>
      </trkpt>
      <trkpt lat="49.80977" lon="4.86997">
        <ele>295</ele>
        <time>2021-07-31T08:54:22.000Z</time>
      </trkpt>
      <trkpt lat="49.80977" lon="4.86997">
        <ele>295</ele>
        <time>2021-07-31T08:54:23.000Z</time>
      </trkpt>
      <trkpt lat="49.80977" lon="4.86997">
        <ele>295</ele>
        <time>2021-07-31T08:54:24.000Z</time>
      </trkpt>
      <trkpt lat="49.80977" lon="4.86997">
        <ele>295</ele>
        <time>2021-07-31T08:54:25.000Z</time>
      </trkpt>
      <trkpt lat="49.80977" lon="4.86997">
        <ele>295</ele>
        <time>2021-07-31T08:54:26.000Z</time>
      </trkpt>
      <trkpt lat="49.80977" lon="4.86997">
        <ele>295</ele>
        <time>2021-07-31T08:54:27.000Z</time>
      </trkpt>
      <trkpt lat="49.80977" lon="4.86997">
        <ele>296</ele>
        <time>2021-07-31T08:54:28.000Z</time>
      </trkpt>
      <trkpt lat="49.80977" lon="4.86997">
        <ele>296</ele>
        <time>2021-07-31T08:54:29.000Z</time>
      </trkpt>
      <trkpt lat="49.80977" lon="4.86997">
        <ele>296</ele>
        <time>2021-07-31T08:54:30.000Z</time>
      </trkpt>
      <trkpt lat="49.80977" lon="4.86997">
        <ele>296</ele>
        <time>2021-07-31T08:54:31.000Z</time>
      </trkpt>
      <trkpt lat="49.80977" lon="4.86996">
        <ele>296</ele>
        <time>2021-07-31T08:54:32.000Z</time>
      </trkpt>
      <trkpt lat="49.80977" lon="4.86996">
        <ele>296</ele>
        <time>2021-07-31T08:54:33.000Z</time>
      </trkpt>
      <trkpt lat="49.80977" lon="4.86996">
        <ele>296</ele>
        <time>2021-07-31T08:54:34.000Z</time>
      </trkpt>
      <trkpt lat="49.80977" lon="4.86996">
        <ele>297</ele>
        <time>2021-07-31T08:54:35.000Z</time>
      </trkpt>
      <trkpt lat="49.80977" lon="4.86996">
        <ele>297</ele>
        <time>2021-07-31T08:54:36.000Z</time>
      </trkpt>
      <trkpt lat="49.80977" lon="4.86995">
        <ele>297</ele>
        <time>2021-07-31T08:54:37.000Z</time>
      </trkpt>
      <trkpt lat="49.80977" lon="4.86995">
        <ele>297</ele>
        <time>2021-07-31T08:54:38.000Z</time>
      </trkpt>
      <trkpt lat="49.80977" lon="4.86995">
        <ele>297</ele>
        <time>2021-07-31T08:54:39.000Z</time>
      </trkpt>
      <trkpt lat="49.80977" lon="4.86995">
        <ele>297</ele>
        <time>2021-07-31T08:54:40.000Z</time>
      </trkpt>
      <trkpt lat="49.80977" lon="4.86995">
        <ele>298</ele>
        <time>2021-07-31T08:54:41.000Z</time>
      </trkpt>
      <trkpt lat="49.80977" lon="4.86995">
        <ele>298</ele>
        <time>2021-07-31T08:54:42.000Z</time>
      </trkpt>
      <trkpt lat="49.80977" lon="4.86995">
        <ele>298</ele>
        <time>2021-07-31T08:54:43.000Z</time>
      </trkpt>
      <trkpt lat="49.80977" lon="4.86995">
        <ele>298</ele>
        <time>2021-07-31T08:54:44.000Z</time>
      </trkpt>
      <trkpt lat="49.80977" lon="4.86994">
        <ele>298</ele>
        <time>2021-07-31T08:54:45.000Z</time>
      </trkpt>
      <trkpt lat="49.80977" lon="4.86994">
        <ele>298</ele>
        <time>2021-07-31T08:54:46.000Z</time>
      </trkpt>
      <trkpt lat="49.80977" lon="4.86994">
        <ele>298</ele>
        <time>2021-07-31T08:54:47.000Z</time>
      </trkpt>
      <trkpt lat="49.80977" lon="4.86993">
        <ele>298</ele>
        <time>2021-07-31T08:54:48.000Z</time>
      </trkpt>
      <trkpt lat="49.80977" lon="4.86993">
        <ele>299</ele>
        <time>2021-07-31T08:54:49.000Z</time>
      </trkpt>
      <trkpt lat="49.80977" lon="4.86993">
        <ele>299</ele>
        <time>2021-07-31T08:54:50.000Z</time>
      </trkpt>
      <trkpt lat="49.80978" lon="4.86993">
        <ele>299</ele>
        <time>2021-07-31T08:54:51.000Z</time>
      </trkpt>
      <trkpt lat="49.80978" lon="4.86993">
        <ele>299</ele>
        <time>2021-07-31T08:54:52.000Z</time>
      </trkpt>
      <trkpt lat="49.80978" lon="4.86993">
        <ele>299</ele>
        <time>2021-07-31T08:54:53.000Z</time>
      </trkpt>
      <trkpt lat="49.80978" lon="4.86993">
        <ele>299</ele>
        <time>2021-07-31T08:54:54.000Z</time>
      </trkpt>
      <trkpt lat="49.80978" lon="4.86993">
        <ele>299</ele>
        <time>2021-07-31T08:54:55.000Z</time>
      </trkpt>
      <trkpt lat="49.80978" lon="4.86993">
        <ele>299</ele>
        <time>2021-07-31T08:54:56.000Z</time>
      </trkpt>
      <trkpt lat="49.80978" lon="4.86993">
        <ele>299</ele>
        <time>2021-07-31T08:54:57.000Z</time>
      </trkpt>
      <trkpt lat="49.80978" lon="4.86993">
        <ele>299</ele>
        <time>2021-07-31T08:54:58.000Z</time>
      </trkpt>
      <trkpt lat="49.80978" lon="4.86992">
        <ele>299</ele>
        <time>2021-07-31T08:54:59.000Z</time>
      </trkpt>
      <trkpt lat="49.80978" lon="4.86992">
        <ele>299</ele>
        <time>2021-07-31T08:55:00.000Z</time>
      </trkpt>
      <trkpt lat="49.80978" lon="4.86992">
        <ele>299</ele>
        <time>2021-07-31T08:55:01.000Z</time>
      </trkpt>
      <trkpt lat="49.80978" lon="4.86992">
        <ele>299</ele>
        <time>2021-07-31T08:55:02.000Z</time>
      </trkpt>
      <trkpt lat="49.80978" lon="4.86992">
        <ele>299</ele>
        <time>2021-07-31T08:55:03.000Z</time>
      </trkpt>
      <trkpt lat="49.80978" lon="4.86992">
        <ele>300</ele>
        <time>2021-07-31T08:55:04.000Z</time>
      </trkpt>
      <trkpt lat="49.80978" lon="4.86992">
        <ele>300</ele>
        <time>2021-07-31T08:55:05.000Z</time>
      </trkpt>
      <trkpt lat="49.80978" lon="4.86993">
        <ele>300</ele>
        <time>2021-07-31T08:55:06.000Z</time>
      </trkpt>
      <trkpt lat="49.80978" lon="4.86993">
        <ele>300</ele>
        <time>2021-07-31T08:55:07.000Z</time>
      </trkpt>
      <trkpt lat="49.80978" lon="4.86993">
        <ele>300</ele>
        <time>2021-07-31T08:55:08.000Z</time>
      </trkpt>
      <trkpt lat="49.80978" lon="4.86993">
        <ele>300</ele>
        <time>2021-07-31T08:55:09.000Z</time>
      </trkpt>
      <trkpt lat="49.80978" lon="4.86993">
        <ele>300</ele>
        <time>2021-07-31T08:55:10.000Z</time>
      </trkpt>
      <trkpt lat="49.80978" lon="4.86993">
        <ele>300</ele>
        <time>2021-07-31T08:55:11.000Z</time>
      </trkpt>
      <trkpt lat="49.80978" lon="4.86993">
        <ele>300</ele>
        <time>2021-07-31T08:55:12.000Z</time>
      </trkpt>
      <trkpt lat="49.80979" lon="4.86993">
        <ele>300</ele>
        <time>2021-07-31T08:55:13.000Z</time>
      </trkpt>
      <trkpt lat="49.80979" lon="4.86993">
        <ele>300</ele>
        <time>2021-07-31T08:55:14.000Z</time>
      </trkpt>
      <trkpt lat="49.80979" lon="4.86993">
        <ele>300</ele>
        <time>2021-07-31T08:55:15.000Z</time>
      </trkpt>
      <trkpt lat="49.80979" lon="4.86993">
        <ele>301</ele>
        <time>2021-07-31T08:55:16.000Z</time>
      </trkpt>
      <trkpt lat="49.80979" lon="4.86993">
        <ele>301</ele>
        <time>2021-07-31T08:55:17.000Z</time>
      </trkpt>
      <trkpt lat="49.80979" lon="4.86993">
        <ele>301</ele>
        <time>2021-07-31T08:55:18.000Z</time>
      </trkpt>
      <trkpt lat="49.80979" lon="4.86993">
        <ele>301</ele>
        <time>2021-07-31T08:55:19.000Z</time>
      </trkpt>
      <trkpt lat="49.80979" lon="4.86993">
        <ele>301</ele>
        <time>2021-07-31T08:55:20.000Z</time>
      </trkpt>
      <trkpt lat="49.80979" lon="4.86993">
        <ele>301</ele>
        <time>2021-07-31T08:55:21.000Z</time>
      </trkpt>
      <trkpt lat="49.80979" lon="4.86993">
        <ele>301</ele>
        <time>2021-07-31T08:55:22.000Z</time>
      </trkpt>
      <trkpt lat="49.80979" lon="4.86993">
        <ele>301</ele>
        <time>2021-07-31T08:55:23.000Z</time>
      </trkpt>
      <trkpt lat="49.80979" lon="4.86993">
        <ele>301</ele>
        <time>2021-07-31T08:55:24.000Z</time>
      </trkpt>
      <trkpt lat="49.80979" lon="4.86993">
        <ele>301</ele>
        <time>2021-07-31T08:55:25.000Z</time>
      </trkpt>
      <trkpt lat="49.80979" lon="4.86993">
        <ele>301</ele>
        <time>2021-07-31T08:55:26.000Z</time>
      </trkpt>
      <trkpt lat="49.80979" lon="4.86993">
        <ele>301</ele>
        <time>2021-07-31T08:55:27.000Z</time>
      </trkpt>
      <trkpt lat="49.80979" lon="4.86993">
        <ele>301</ele>
        <time>2021-07-31T08:55:28.000Z</time>
      </trkpt>
      <trkpt lat="49.80979" lon="4.86993">
        <ele>301</ele>
        <time>2021-07-31T08:55:29.000Z</time>
      </trkpt>
      <trkpt lat="49.80979" lon="4.86993">
        <ele>301</ele>
        <time>2021-07-31T08:55:30.000Z</time>
      </trkpt>
      <trkpt lat="49.80979" lon="4.86993">
        <ele>301</ele>
        <time>2021-07-31T08:55:31.000Z</time>
      </trkpt>
      <trkpt lat="49.80979" lon="4.86993">
        <ele>301</ele>
        <time>2021-07-31T08:55:32.000Z</time>
      </trkpt>
      <trkpt lat="49.80979" lon="4.86993">
        <ele>301</ele>
        <time>2021-07-31T08:55:33.000Z</time>
      </trkpt>
      <trkpt lat="49.80979" lon="4.86993">
        <ele>301</ele>
        <time>2021-07-31T08:55:34.000Z</time>
      </trkpt>
      <trkpt lat="49.80979" lon="4.86993">
        <ele>301</ele>
        <time>2021-07-31T08:55:35.000Z</time>
      </trkpt>
      <trkpt lat="49.80979" lon="4.86993">
        <ele>301</ele>
        <time>2021-07-31T08:55:36.000Z</time>
      </trkpt>
      <trkpt lat="49.80979" lon="4.86993">
        <ele>301</ele>
        <time>2021-07-31T08:55:37.000Z</time>
      </trkpt>
      <trkpt lat="49.80979" lon="4.86993">
        <ele>301</ele>
        <time>2021-07-31T08:55:38.000Z</time>
      </trkpt>
      <trkpt lat="49.80979" lon="4.86993">
        <ele>301</ele>
        <time>2021-07-31T08:55:39.000Z</time>
      </trkpt>
      <trkpt lat="49.80979" lon="4.86994">
        <ele>301</ele>
        <time>2021-07-31T08:55:40.000Z</time>
      </trkpt>
      <trkpt lat="49.80979" lon="4.86994">
        <ele>301</ele>
        <time>2021-07-31T08:55:41.000Z</time>
      </trkpt>
      <trkpt lat="49.80979" lon="4.86994">
        <ele>301</ele>
        <time>2021-07-31T08:55:42.000Z</time>
      </trkpt>
      <trkpt lat="49.80979" lon="4.86994">
        <ele>301</ele>
        <time>2021-07-31T08:55:43.000Z</time>
      </trkpt>
      <trkpt lat="49.80979" lon="4.86994">
        <ele>301</ele>
        <time>2021-07-31T08:55:44.000Z</time>
      </trkpt>
      <trkpt lat="49.80979" lon="4.86994">
        <ele>301</ele>
        <time>2021-07-31T08:55:45.000Z</time>
      </trkpt>
      <trkpt lat="49.80979" lon="4.86994">
        <ele>301</ele>
        <time>2021-07-31T08:55:46.000Z</time>
      </trkpt>
      <trkpt lat="49.80979" lon="4.86994">
        <ele>301</ele>
        <time>2021-07-31T08:55:47.000Z</time>
      </trkpt>
      <trkpt lat="49.80979" lon="4.86994">
        <ele>301</ele>
        <time>2021-07-31T08:55:48.000Z</time>
      </trkpt>
      <trkpt lat="49.80979" lon="4.86994">
        <ele>301</ele>
        <time>2021-07-31T08:55:49.000Z</time>
      </trkpt>
      <trkpt lat="49.80979" lon="4.86994">
        <ele>301</ele>
        <time>2021-07-31T08:55:50.000Z</time>
      </trkpt>
      <trkpt lat="49.80979" lon="4.86994">
        <ele>301</ele>
        <time>2021-07-31T08:55:51.000Z</time>
      </trkpt>
      <trkpt lat="49.80979" lon="4.86994">
        <ele>301</ele>
        <time>2021-07-31T08:55:52.000Z</time>
      </trkpt>
      <trkpt lat="49.80979" lon="4.86994">
        <ele>301</ele>
        <time>2021-07-31T08:55:53.000Z</time>
      </trkpt>
      <trkpt lat="49.80979" lon="4.86994">
        <ele>301</ele>
        <time>2021-07-31T08:55:54.000Z</time>
      </trkpt>
      <trkpt lat="49.80979" lon="4.86994">
        <ele>301</ele>
        <time>2021-07-31T08:55:55.000Z</time>
      </trkpt>
      <trkpt lat="49.80979" lon="4.86994">
        <ele>301</ele>
        <time>2021-07-31T08:55:56.000Z</time>
      </trkpt>
      <trkpt lat="49.80979" lon="4.86994">
        <ele>301</ele>
        <time>2021-07-31T08:55:57.000Z</time>
      </trkpt>
      <trkpt lat="49.80979" lon="4.86994">
        <ele>301</ele>
        <time>2021-07-31T08:55:58.000Z</time>
      </trkpt>
      <trkpt lat="49.80979" lon="4.86994">
        <ele>301</ele>
        <time>2021-07-31T08:55:59.000Z</time>
      </trkpt>
      <trkpt lat="49.80979" lon="4.86994">
        <ele>301</ele>
        <time>2021-07-31T08:56:00.000Z</time>
      </trkpt>
      <trkpt lat="49.80979" lon="4.86994">
        <ele>301</ele>
        <time>2021-07-31T08:56:01.000Z</time>
      </trkpt>
      <trkpt lat="49.80979" lon="4.86994">
        <ele>301</ele>
        <time>2021-07-31T08:56:02.000Z</time>
      </trkpt>
      <trkpt lat="49.80979" lon="4.86994">
        <ele>301</ele>
        <time>2021-07-31T08:56:03.000Z</time>
      </trkpt>
      <trkpt lat="49.80979" lon="4.86994">
        <ele>301</ele>
        <time>2021-07-31T08:56:04.000Z</time>
      </trkpt>
      <trkpt lat="49.80979" lon="4.86994">
        <ele>301</ele>
        <time>2021-07-31T08:56:05.000Z</time>
      </trkpt>
      <trkpt lat="49.80979" lon="4.86994">
        <ele>301</ele>
        <time>2021-07-31T08:56:06.000Z</time>
      </trkpt>
      <trkpt lat="49.80979" lon="4.86994">
        <ele>301</ele>
        <time>2021-07-31T08:56:07.000Z</time>
      </trkpt>
      <trkpt lat="49.80979" lon="4.86994">
        <ele>301</ele>
        <time>2021-07-31T08:56:08.000Z</time>
      </trkpt>
      <trkpt lat="49.80979" lon="4.86994">
        <ele>301</ele>
        <time>2021-07-31T08:56:09.000Z</time>
      </trkpt>
      <trkpt lat="49.80979" lon="4.86994">
        <ele>301</ele>
        <time>2021-07-31T08:56:10.000Z</time>
      </trkpt>
      <trkpt lat="49.80979" lon="4.86994">
        <ele>301</ele>
        <time>2021-07-31T08:56:11.000Z</time>
      </trkpt>
      <trkpt lat="49.80979" lon="4.86994">
        <ele>301</ele>
        <time>2021-07-31T08:56:12.000Z</time>
      </trkpt>
      <trkpt lat="49.80979" lon="4.86994">
        <ele>301</ele>
        <time>2021-07-31T08:56:13.000Z</time>
      </trkpt>
      <trkpt lat="49.80979" lon="4.86994">
        <ele>301</ele>
        <time>2021-07-31T08:56:14.000Z</time>
      </trkpt>
      <trkpt lat="49.80979" lon="4.86994">
        <ele>302</ele>
        <time>2021-07-31T08:56:15.000Z</time>
      </trkpt>
      <trkpt lat="49.80979" lon="4.86994">
        <ele>302</ele>
        <time>2021-07-31T08:56:16.000Z</time>
      </trkpt>
      <trkpt lat="49.80979" lon="4.86994">
        <ele>302</ele>
        <time>2021-07-31T08:56:17.000Z</time>
      </trkpt>
      <trkpt lat="49.80979" lon="4.86994">
        <ele>302</ele>
        <time>2021-07-31T08:56:18.000Z</time>
      </trkpt>
      <trkpt lat="49.80979" lon="4.86994">
        <ele>302</ele>
        <time>2021-07-31T08:56:19.000Z</time>
      </trkpt>
      <trkpt lat="49.80979" lon="4.86994">
        <ele>302</ele>
        <time>2021-07-31T08:56:20.000Z</time>
      </trkpt>
      <trkpt lat="49.80979" lon="4.86994">
        <ele>302</ele>
        <time>2021-07-31T08:56:21.000Z</time>
      </trkpt>
      <trkpt lat="49.80979" lon="4.86994">
        <ele>302</ele>
        <time>2021-07-31T08:56:22.000Z</time>
      </trkpt>
      <trkpt lat="49.80979" lon="4.86994">
        <ele>302</ele>
        <time>2021-07-31T08:56:23.000Z</time>
      </trkpt>
      <trkpt lat="49.80979" lon="4.86994">
        <ele>302</ele>
        <time>2021-07-31T08:56:24.000Z</time>
      </trkpt>
      <trkpt lat="49.80979" lon="4.86994">
        <ele>302</ele>
        <time>2021-07-31T08:56:25.000Z</time>
      </trkpt>
      <trkpt lat="49.80979" lon="4.86994">
        <ele>302</ele>
        <time>2021-07-31T08:56:26.000Z</time>
      </trkpt>
      <trkpt lat="49.80979" lon="4.86994">
        <ele>302</ele>
        <time>2021-07-31T08:56:27.000Z</time>
      </trkpt>
      <trkpt lat="49.80979" lon="4.86995">
        <ele>302</ele>
        <time>2021-07-31T08:56:28.000Z</time>
      </trkpt>
      <trkpt lat="49.80979" lon="4.86995">
        <ele>302</ele>
        <time>2021-07-31T08:56:29.000Z</time>
      </trkpt>
      <trkpt lat="49.80979" lon="4.86994">
        <ele>302</ele>
        <time>2021-07-31T08:56:30.000Z</time>
      </trkpt>
      <trkpt lat="49.80979" lon="4.86994">
        <ele>302</ele>
        <time>2021-07-31T08:56:31.000Z</time>
      </trkpt>
      <trkpt lat="49.80979" lon="4.86994">
        <ele>302</ele>
        <time>2021-07-31T08:56:32.000Z</time>
      </trkpt>
      <trkpt lat="49.80979" lon="4.86994">
        <ele>302</ele>
        <time>2021-07-31T08:56:33.000Z</time>
      </trkpt>
      <trkpt lat="49.80979" lon="4.86994">
        <ele>302</ele>
        <time>2021-07-31T08:56:34.000Z</time>
      </trkpt>
      <trkpt lat="49.80979" lon="4.86994">
        <ele>303</ele>
        <time>2021-07-31T08:56:35.000Z</time>
      </trkpt>
      <trkpt lat="49.80979" lon="4.86994">
        <ele>303</ele>
        <time>2021-07-31T08:56:36.000Z</time>
      </trkpt>
      <trkpt lat="49.80979" lon="4.86994">
        <ele>303</ele>
        <time>2021-07-31T08:56:37.000Z</time>
      </trkpt>
      <trkpt lat="49.80979" lon="4.86994">
        <ele>303</ele>
        <time>2021-07-31T08:56:38.000Z</time>
      </trkpt>
      <trkpt lat="49.80979" lon="4.86994">
        <ele>303</ele>
        <time>2021-07-31T08:56:39.000Z</time>
      </trkpt>
      <trkpt lat="49.80979" lon="4.86994">
        <ele>303</ele>
        <time>2021-07-31T08:56:40.000Z</time>
      </trkpt>
      <trkpt lat="49.8098" lon="4.86994">
        <ele>303</ele>
        <time>2021-07-31T08:56:41.000Z</time>
      </trkpt>
      <trkpt lat="49.8098" lon="4.86994">
        <ele>303</ele>
        <time>2021-07-31T08:56:42.000Z</time>
      </trkpt>
      <trkpt lat="49.8098" lon="4.86994">
        <ele>303</ele>
        <time>2021-07-31T08:56:43.000Z</time>
      </trkpt>
      <trkpt lat="49.8098" lon="4.86994">
        <ele>303</ele>
        <time>2021-07-31T08:56:44.000Z</time>
      </trkpt>
      <trkpt lat="49.8098" lon="4.86994">
        <ele>303</ele>
        <time>2021-07-31T08:56:45.000Z</time>
      </trkpt>
      <trkpt lat="49.8098" lon="4.86994">
        <ele>303</ele>
        <time>2021-07-31T08:56:46.000Z</time>
      </trkpt>
      <trkpt lat="49.8098" lon="4.86994">
        <ele>303</ele>
        <time>2021-07-31T08:56:47.000Z</time>
      </trkpt>
      <trkpt lat="49.8098" lon="4.86994">
        <ele>303</ele>
        <time>2021-07-31T08:56:48.000Z</time>
      </trkpt>
      <trkpt lat="49.8098" lon="4.86994">
        <ele>303</ele>
        <time>2021-07-31T08:56:49.000Z</time>
      </trkpt>
      <trkpt lat="49.8098" lon="4.86994">
        <ele>303</ele>
        <time>2021-07-31T08:56:50.000Z</time>
      </trkpt>
      <trkpt lat="49.8098" lon="4.86994">
        <ele>303</ele>
        <time>2021-07-31T08:56:51.000Z</time>
      </trkpt>
      <trkpt lat="49.8098" lon="4.86994">
        <ele>303</ele>
        <time>2021-07-31T08:56:52.000Z</time>
      </trkpt>
      <trkpt lat="49.8098" lon="4.86994">
        <ele>303</ele>
        <time>2021-07-31T08:56:53.000Z</time>
      </trkpt>
      <trkpt lat="49.8098" lon="4.86994">
        <ele>303</ele>
        <time>2021-07-31T08:56:54.000Z</time>
      </trkpt>
      <trkpt lat="49.8098" lon="4.86994">
        <ele>303</ele>
        <time>2021-07-31T08:56:55.000Z</time>
      </trkpt>
      <trkpt lat="49.8098" lon="4.86994">
        <ele>303</ele>
        <time>2021-07-31T08:56:56.000Z</time>
      </trkpt>
      <trkpt lat="49.8098" lon="4.86994">
        <ele>303</ele>
        <time>2021-07-31T08:56:57.000Z</time>
      </trkpt>
      <trkpt lat="49.80981" lon="4.86994">
        <ele>303</ele>
        <time>2021-07-31T08:56:58.000Z</time>
      </trkpt>
      <trkpt lat="49.80981" lon="4.86994">
        <ele>303</ele>
        <time>2021-07-31T08:56:59.000Z</time>
      </trkpt>
      <trkpt lat="49.80981" lon="4.86994">
        <ele>303</ele>
        <time>2021-07-31T08:57:00.000Z</time>
      </trkpt>
      <trkpt lat="49.80981" lon="4.86994">
        <ele>303</ele>
        <time>2021-07-31T08:57:01.000Z</time>
      </trkpt>
      <trkpt lat="49.80981" lon="4.86994">
        <ele>303</ele>
        <time>2021-07-31T08:57:02.000Z</time>
      </trkpt>
      <trkpt lat="49.80981" lon="4.86994">
        <ele>303</ele>
        <time>2021-07-31T08:57:03.000Z</time>
      </trkpt>
      <trkpt lat="49.80981" lon="4.86994">
        <ele>304</ele>
        <time>2021-07-31T08:57:04.000Z</time>
      </trkpt>
      <trkpt lat="49.80981" lon="4.86994">
        <ele>304</ele>
        <time>2021-07-31T08:57:05.000Z</time>
      </trkpt>
      <trkpt lat="49.80981" lon="4.86994">
        <ele>304</ele>
        <time>2021-07-31T08:57:06.000Z</time>
      </trkpt>
      <trkpt lat="49.80981" lon="4.86994">
        <ele>304</ele>
        <time>2021-07-31T08:57:07.000Z</time>
      </trkpt>
      <trkpt lat="49.80981" lon="4.86994">
        <ele>304</ele>
        <time>2021-07-31T08:57:08.000Z</time>
      </trkpt>
      <trkpt lat="49.80981" lon="4.86994">
        <ele>304</ele>
        <time>2021-07-31T08:57:09.000Z</time>
      </trkpt>
      <trkpt lat="49.80981" lon="4.86994">
        <ele>304</ele>
        <time>2021-07-31T08:57:10.000Z</time>
      </trkpt>
      <trkpt lat="49.80981" lon="4.86994">
        <ele>304</ele>
        <time>2021-07-31T08:57:11.000Z</time>
      </trkpt>
      <trkpt lat="49.80981" lon="4.86993">
        <ele>304</ele>
        <time>2021-07-31T08:57:12.000Z</time>
      </trkpt>
      <trkpt lat="49.80981" lon="4.86994">
        <ele>304</ele>
        <time>2021-07-31T08:57:13.000Z</time>
      </trkpt>
      <trkpt lat="49.80981" lon="4.86994">
        <ele>304</ele>
        <time>2021-07-31T08:57:14.000Z</time>
      </trkpt>
      <trkpt lat="49.80981" lon="4.86994">
        <ele>304</ele>
        <time>2021-07-31T08:57:15.000Z</time>
      </trkpt>
      <trkpt lat="49.80981" lon="4.86994">
        <ele>304</ele>
        <time>2021-07-31T08:57:16.000Z</time>
      </trkpt>
      <trkpt lat="49.80981" lon="4.86994">
        <ele>304</ele>
        <time>2021-07-31T08:57:17.000Z</time>
      </trkpt>
      <trkpt lat="49.80981" lon="4.86994">
        <ele>304</ele>
        <time>2021-07-31T08:57:18.000Z</time>
      </trkpt>
      <trkpt lat="49.80981" lon="4.86994">
        <ele>304</ele>
        <time>2021-07-31T08:57:19.000Z</time>
      </trkpt>
      <trkpt lat="49.80981" lon="4.86994">
        <ele>304</ele>
        <time>2021-07-31T08:57:20.000Z</time>
      </trkpt>
      <trkpt lat="49.80981" lon="4.86994">
        <ele>304</ele>
        <time>2021-07-31T08:57:21.000Z</time>
      </trkpt>
      <trkpt lat="49.80982" lon="4.86994">
        <ele>304</ele>
        <time>2021-07-31T08:57:22.000Z</time>
      </trkpt>
      <trkpt lat="49.80982" lon="4.86994">
        <ele>304</ele>
        <time>2021-07-31T08:57:23.000Z</time>
      </trkpt>
      <trkpt lat="49.80982" lon="4.86994">
        <ele>304</ele>
        <time>2021-07-31T08:57:24.000Z</time>
      </trkpt>
      <trkpt lat="49.80982" lon="4.86994">
        <ele>304</ele>
        <time>2021-07-31T08:57:25.000Z</time>
      </trkpt>
      <trkpt lat="49.80982" lon="4.86994">
        <ele>304</ele>
        <time>2021-07-31T08:57:26.000Z</time>
      </trkpt>
      <trkpt lat="49.80982" lon="4.86994">
        <ele>304</ele>
        <time>2021-07-31T08:57:27.000Z</time>
      </trkpt>
      <trkpt lat="49.80982" lon="4.86994">
        <ele>304</ele>
        <time>2021-07-31T08:57:28.000Z</time>
      </trkpt>
      <trkpt lat="49.80982" lon="4.86994">
        <ele>304</ele>
        <time>2021-07-31T08:57:29.000Z</time>
      </trkpt>
      <trkpt lat="49.80982" lon="4.86994">
        <ele>304</ele>
        <time>2021-07-31T08:57:30.000Z</time>
      </trkpt>
      <trkpt lat="49.80982" lon="4.86994">
        <ele>304</ele>
        <time>2021-07-31T08:57:31.000Z</time>
      </trkpt>
      <trkpt lat="49.80982" lon="4.86994">
        <ele>304</ele>
        <time>2021-07-31T08:57:32.000Z</time>
      </trkpt>
      <trkpt lat="49.80982" lon="4.86994">
        <ele>304</ele>
        <time>2021-07-31T08:57:33.000Z</time>
      </trkpt>
      <trkpt lat="49.80982" lon="4.86994">
        <ele>304</ele>
        <time>2021-07-31T08:57:34.000Z</time>
      </trkpt>
      <trkpt lat="49.80982" lon="4.86994">
        <ele>304</ele>
        <time>2021-07-31T08:57:35.000Z</time>
      </trkpt>
      <trkpt lat="49.80982" lon="4.86993">
        <ele>304</ele>
        <time>2021-07-31T08:57:36.000Z</time>
      </trkpt>
      <trkpt lat="49.80982" lon="4.86993">
        <ele>304</ele>
        <time>2021-07-31T08:57:37.000Z</time>
      </trkpt>
      <trkpt lat="49.80982" lon="4.86993">
        <ele>304</ele>
        <time>2021-07-31T08:57:38.000Z</time>
      </trkpt>
      <trkpt lat="49.80982" lon="4.86993">
        <ele>304</ele>
        <time>2021-07-31T08:57:39.000Z</time>
      </trkpt>
      <trkpt lat="49.80982" lon="4.86993">
        <ele>304</ele>
        <time>2021-07-31T08:57:40.000Z</time>
      </trkpt>
      <trkpt lat="49.80982" lon="4.86993">
        <ele>304</ele>
        <time>2021-07-31T08:57:41.000Z</time>
      </trkpt>
      <trkpt lat="49.80982" lon="4.86993">
        <ele>304</ele>
        <time>2021-07-31T08:57:42.000Z</time>
      </trkpt>
      <trkpt lat="49.80982" lon="4.86993">
        <ele>304</ele>
        <time>2021-07-31T08:57:43.000Z</time>
      </trkpt>
      <trkpt lat="49.80982" lon="4.86993">
        <ele>304</ele>
        <time>2021-07-31T08:57:44.000Z</time>
      </trkpt>
      <trkpt lat="49.80982" lon="4.86993">
        <ele>304</ele>
        <time>2021-07-31T08:57:45.000Z</time>
      </trkpt>
      <trkpt lat="49.80982" lon="4.86993">
        <ele>303</ele>
        <time>2021-07-31T08:57:46.000Z</time>
      </trkpt>
      <trkpt lat="49.80982" lon="4.86993">
        <ele>303</ele>
        <time>2021-07-31T08:57:47.000Z</time>
      </trkpt>
      <trkpt lat="49.80982" lon="4.86993">
        <ele>303</ele>
        <time>2021-07-31T08:57:48.000Z</time>
      </trkpt>
      <trkpt lat="49.80982" lon="4.86993">
        <ele>303</ele>
        <time>2021-07-31T08:57:49.000Z</time>
      </trkpt>
      <trkpt lat="49.80982" lon="4.86993">
        <ele>303</ele>
        <time>2021-07-31T08:57:50.000Z</time>
      </trkpt>
      <trkpt lat="49.80982" lon="4.86993">
        <ele>303</ele>
        <time>2021-07-31T08:57:51.000Z</time>
      </trkpt>
      <trkpt lat="49.80983" lon="4.86993">
        <ele>303</ele>
        <time>2021-07-31T08:57:52.000Z</time>
      </trkpt>
      <trkpt lat="49.80983" lon="4.86993">
        <ele>303</ele>
        <time>2021-07-31T08:57:53.000Z</time>
      </trkpt>
      <trkpt lat="49.80983" lon="4.86993">
        <ele>303</ele>
        <time>2021-07-31T08:57:54.000Z</time>
      </trkpt>
      <trkpt lat="49.80982" lon="4.86993">
        <ele>304</ele>
        <time>2021-07-31T08:57:55.000Z</time>
      </trkpt>
      <trkpt lat="49.80982" lon="4.86993">
        <ele>304</ele>
        <time>2021-07-31T08:57:56.000Z</time>
      </trkpt>
      <trkpt lat="49.80983" lon="4.86994">
        <ele>304</ele>
        <time>2021-07-31T08:57:57.000Z</time>
      </trkpt>
      <trkpt lat="49.80983" lon="4.86994">
        <ele>304</ele>
        <time>2021-07-31T08:57:58.000Z</time>
      </trkpt>
      <trkpt lat="49.80983" lon="4.86994">
        <ele>304</ele>
        <time>2021-07-31T08:57:59.000Z</time>
      </trkpt>
      <trkpt lat="49.80983" lon="4.86994">
        <ele>304</ele>
        <time>2021-07-31T08:58:00.000Z</time>
      </trkpt>
      <trkpt lat="49.80983" lon="4.86994">
        <ele>304</ele>
        <time>2021-07-31T08:58:01.000Z</time>
      </trkpt>
      <trkpt lat="49.80983" lon="4.86994">
        <ele>304</ele>
        <time>2021-07-31T08:58:02.000Z</time>
      </trkpt>
      <trkpt lat="49.80983" lon="4.86994">
        <ele>304</ele>
        <time>2021-07-31T08:58:03.000Z</time>
      </trkpt>
      <trkpt lat="49.80982" lon="4.86995">
        <ele>303</ele>
        <time>2021-07-31T08:58:04.000Z</time>
      </trkpt>
      <trkpt lat="49.80982" lon="4.86995">
        <ele>303</ele>
        <time>2021-07-31T08:58:05.000Z</time>
      </trkpt>
      <trkpt lat="49.80982" lon="4.86995">
        <ele>303</ele>
        <time>2021-07-31T08:58:06.000Z</time>
      </trkpt>
      <trkpt lat="49.80982" lon="4.86995">
        <ele>303</ele>
        <time>2021-07-31T08:58:07.000Z</time>
      </trkpt>
      <trkpt lat="49.80982" lon="4.86995">
        <ele>303</ele>
        <time>2021-07-31T08:58:08.000Z</time>
      </trkpt>
      <trkpt lat="49.80982" lon="4.86995">
        <ele>303</ele>
        <time>2021-07-31T08:58:09.000Z</time>
      </trkpt>
      <trkpt lat="49.80982" lon="4.86995">
        <ele>303</ele>
        <time>2021-07-31T08:58:10.000Z</time>
      </trkpt>
      <trkpt lat="49.80982" lon="4.86995">
        <ele>303</ele>
        <time>2021-07-31T08:58:11.000Z</time>
      </trkpt>
      <trkpt lat="49.80982" lon="4.86995">
        <ele>303</ele>
        <time>2021-07-31T08:58:12.000Z</time>
      </trkpt>
      <trkpt lat="49.80982" lon="4.86995">
        <ele>303</ele>
        <time>2021-07-31T08:58:13.000Z</time>
      </trkpt>
      <trkpt lat="49.80982" lon="4.86995">
        <ele>303</ele>
        <time>2021-07-31T08:58:14.000Z</time>
      </trkpt>
      <trkpt lat="49.80982" lon="4.86995">
        <ele>303</ele>
        <time>2021-07-31T08:58:15.000Z</time>
      </trkpt>
      <trkpt lat="49.80982" lon="4.86995">
        <ele>303</ele>
        <time>2021-07-31T08:58:16.000Z</time>
      </trkpt>
      <trkpt lat="49.80982" lon="4.86994">
        <ele>303</ele>
        <time>2021-07-31T08:58:17.000Z</time>
      </trkpt>
      <trkpt lat="49.80982" lon="4.86995">
        <ele>303</ele>
        <time>2021-07-31T08:58:18.000Z</time>
      </trkpt>
      <trkpt lat="49.80982" lon="4.86995">
        <ele>303</ele>
        <time>2021-07-31T08:58:19.000Z</time>
      </trkpt>
      <trkpt lat="49.80982" lon="4.86994">
        <ele>303</ele>
        <time>2021-07-31T08:58:20.000Z</time>
      </trkpt>
      <trkpt lat="49.80982" lon="4.86994">
        <ele>303</ele>
        <time>2021-07-31T08:58:21.000Z</time>
      </trkpt>
      <trkpt lat="49.80982" lon="4.86994">
        <ele>303</ele>
        <time>2021-07-31T08:58:22.000Z</time>
      </trkpt>
      <trkpt lat="49.80982" lon="4.86994">
        <ele>303</ele>
        <time>2021-07-31T08:58:23.000Z</time>
      </trkpt>
      <trkpt lat="49.80982" lon="4.86994">
        <ele>303</ele>
        <time>2021-07-31T08:58:24.000Z</time>
      </trkpt>
      <trkpt lat="49.80982" lon="4.86994">
        <ele>303</ele>
        <time>2021-07-31T08:58:25.000Z</time>
      </trkpt>
      <trkpt lat="49.80982" lon="4.86994">
        <ele>303</ele>
        <time>2021-07-31T08:58:26.000Z</time>
      </trkpt>
      <trkpt lat="49.80983" lon="4.86993">
        <ele>303</ele>
        <time>2021-07-31T08:58:27.000Z</time>
      </trkpt>
      <trkpt lat="49.80983" lon="4.86993">
        <ele>303</ele>
        <time>2021-07-31T08:58:28.000Z</time>
      </trkpt>
      <trkpt lat="49.80983" lon="4.86993">
        <ele>303</ele>
        <time>2021-07-31T08:58:29.000Z</time>
      </trkpt>
      <trkpt lat="49.80983" lon="4.86993">
        <ele>303</ele>
        <time>2021-07-31T08:58:30.000Z</time>
      </trkpt>
      <trkpt lat="49.80983" lon="4.86993">
        <ele>303</ele>
        <time>2021-07-31T08:58:31.000Z</time>
      </trkpt>
      <trkpt lat="49.80983" lon="4.86993">
        <ele>303</ele>
        <time>2021-07-31T08:58:32.000Z</time>
      </trkpt>
      <trkpt lat="49.80984" lon="4.86993">
        <ele>303</ele>
        <time>2021-07-31T08:58:33.000Z</time>
      </trkpt>
      <trkpt lat="49.80984" lon="4.86993">
        <ele>303</ele>
        <time>2021-07-31T08:58:34.000Z</time>
      </trkpt>
      <trkpt lat="49.80984" lon="4.86993">
        <ele>303</ele>
        <time>2021-07-31T08:58:35.000Z</time>
      </trkpt>
      <trkpt lat="49.80984" lon="4.86993">
        <ele>303</ele>
        <time>2021-07-31T08:58:36.000Z</time>
      </trkpt>
      <trkpt lat="49.80984" lon="4.86993">
        <ele>303</ele>
        <time>2021-07-31T08:58:37.000Z</time>
      </trkpt>
      <trkpt lat="49.80984" lon="4.86993">
        <ele>303</ele>
        <time>2021-07-31T08:58:38.000Z</time>
      </trkpt>
      <trkpt lat="49.80984" lon="4.86993">
        <ele>303</ele>
        <time>2021-07-31T08:58:39.000Z</time>
      </trkpt>
      <trkpt lat="49.80984" lon="4.86993">
        <ele>303</ele>
        <time>2021-07-31T08:58:40.000Z</time>
      </trkpt>
      <trkpt lat="49.80985" lon="4.86993">
        <ele>303</ele>
        <time>2021-07-31T08:58:41.000Z</time>
      </trkpt>
      <trkpt lat="49.80985" lon="4.86993">
        <ele>303</ele>
        <time>2021-07-31T08:58:42.000Z</time>
      </trkpt>
      <trkpt lat="49.80985" lon="4.86993">
        <ele>303</ele>
        <time>2021-07-31T08:58:43.000Z</time>
      </trkpt>
      <trkpt lat="49.80985" lon="4.86993">
        <ele>303</ele>
        <time>2021-07-31T08:58:44.000Z</time>
      </trkpt>
      <trkpt lat="49.80985" lon="4.86993">
        <ele>303</ele>
        <time>2021-07-31T08:58:45.000Z</time>
      </trkpt>
      <trkpt lat="49.80985" lon="4.86993">
        <ele>303</ele>
        <time>2021-07-31T08:58:46.000Z</time>
      </trkpt>
      <trkpt lat="49.80985" lon="4.86993">
        <ele>303</ele>
        <time>2021-07-31T08:58:47.000Z</time>
      </trkpt>
      <trkpt lat="49.80985" lon="4.86992">
        <ele>303</ele>
        <time>2021-07-31T08:58:48.000Z</time>
      </trkpt>
      <trkpt lat="49.80985" lon="4.86992">
        <ele>303</ele>
        <time>2021-07-31T08:58:49.000Z</time>
      </trkpt>
      <trkpt lat="49.80985" lon="4.86992">
        <ele>303</ele>
        <time>2021-07-31T08:58:50.000Z</time>
      </trkpt>
      <trkpt lat="49.80985" lon="4.86992">
        <ele>303</ele>
        <time>2021-07-31T08:58:51.000Z</time>
      </trkpt>
      <trkpt lat="49.80985" lon="4.86992">
        <ele>303</ele>
        <time>2021-07-31T08:58:52.000Z</time>
      </trkpt>
      <trkpt lat="49.80985" lon="4.86992">
        <ele>303</ele>
        <time>2021-07-31T08:58:53.000Z</time>
      </trkpt>
      <trkpt lat="49.80985" lon="4.86992">
        <ele>303</ele>
        <time>2021-07-31T08:58:54.000Z</time>
      </trkpt>
      <trkpt lat="49.80985" lon="4.86992">
        <ele>303</ele>
        <time>2021-07-31T08:58:55.000Z</time>
      </trkpt>
      <trkpt lat="49.80985" lon="4.86992">
        <ele>303</ele>
        <time>2021-07-31T08:58:56.000Z</time>
      </trkpt>
      <trkpt lat="49.80985" lon="4.86992">
        <ele>303</ele>
        <time>2021-07-31T08:58:57.000Z</time>
      </trkpt>
      <trkpt lat="49.80985" lon="4.86992">
        <ele>303</ele>
        <time>2021-07-31T08:58:58.000Z</time>
      </trkpt>
      <trkpt lat="49.80985" lon="4.86992">
        <ele>303</ele>
        <time>2021-07-31T08:58:59.000Z</time>
      </trkpt>
      <trkpt lat="49.80985" lon="4.86992">
        <ele>303</ele>
        <time>2021-07-31T08:59:00.000Z</time>
      </trkpt>
      <trkpt lat="49.80985" lon="4.86992">
        <ele>303</ele>
        <time>2021-07-31T08:59:01.000Z</time>
      </trkpt>
      <trkpt lat="49.80985" lon="4.86992">
        <ele>303</ele>
        <time>2021-07-31T08:59:02.000Z</time>
      </trkpt>
      <trkpt lat="49.80985" lon="4.86992">
        <ele>303</ele>
        <time>2021-07-31T08:59:03.000Z</time>
      </trkpt>
      <trkpt lat="49.80985" lon="4.86992">
        <ele>303</ele>
        <time>2021-07-31T08:59:04.000Z</time>
      </trkpt>
      <trkpt lat="49.80985" lon="4.86992">
        <ele>303</ele>
        <time>2021-07-31T08:59:05.000Z</time>
      </trkpt>
      <trkpt lat="49.80985" lon="4.86992">
        <ele>303</ele>
        <time>2021-07-31T08:59:06.000Z</time>
      </trkpt>
      <trkpt lat="49.80985" lon="4.86992">
        <ele>303</ele>
        <time>2021-07-31T08:59:07.000Z</time>
      </trkpt>
      <trkpt lat="49.80985" lon="4.86992">
        <ele>303</ele>
        <time>2021-07-31T08:59:08.000Z</time>
      </trkpt>
      <trkpt lat="49.80985" lon="4.86992">
        <ele>303</ele>
        <time>2021-07-31T08:59:09.000Z</time>
      </trkpt>
      <trkpt lat="49.80985" lon="4.86992">
        <ele>303</ele>
        <time>2021-07-31T08:59:10.000Z</time>
      </trkpt>
      <trkpt lat="49.80985" lon="4.86992">
        <ele>303</ele>
        <time>2021-07-31T08:59:11.000Z</time>
      </trkpt>
      <trkpt lat="49.80984" lon="4.86992">
        <ele>303</ele>
        <time>2021-07-31T08:59:12.000Z</time>
      </trkpt>
      <trkpt lat="49.80984" lon="4.86992">
        <ele>303</ele>
        <time>2021-07-31T08:59:13.000Z</time>
      </trkpt>
      <trkpt lat="49.80984" lon="4.86992">
        <ele>303</ele>
        <time>2021-07-31T08:59:14.000Z</time>
      </trkpt>
      <trkpt lat="49.80984" lon="4.86992">
        <ele>303</ele>
        <time>2021-07-31T08:59:15.000Z</time>
      </trkpt>
      <trkpt lat="49.80984" lon="4.86992">
        <ele>303</ele>
        <time>2021-07-31T08:59:16.000Z</time>
      </trkpt>
      <trkpt lat="49.80984" lon="4.86992">
        <ele>303</ele>
        <time>2021-07-31T08:59:17.000Z</time>
      </trkpt>
      <trkpt lat="49.80984" lon="4.86992">
        <ele>303</ele>
        <time>2021-07-31T08:59:18.000Z</time>
      </trkpt>
      <trkpt lat="49.80984" lon="4.86992">
        <ele>303</ele>
        <time>2021-07-31T08:59:19.000Z</time>
      </trkpt>
      <trkpt lat="49.80984" lon="4.86992">
        <ele>303</ele>
        <time>2021-07-31T08:59:20.000Z</time>
      </trkpt>
      <trkpt lat="49.80984" lon="4.86992">
        <ele>304</ele>
        <time>2021-07-31T08:59:21.000Z</time>
      </trkpt>
      <trkpt lat="49.80984" lon="4.86992">
        <ele>304</ele>
        <time>2021-07-31T08:59:22.000Z</time>
      </trkpt>
      <trkpt lat="49.80984" lon="4.86992">
        <ele>304</ele>
        <time>2021-07-31T08:59:23.000Z</time>
      </trkpt>
      <trkpt lat="49.80984" lon="4.86992">
        <ele>304</ele>
        <time>2021-07-31T08:59:24.000Z</time>
      </trkpt>
      <trkpt lat="49.80984" lon="4.86992">
        <ele>304</ele>
        <time>2021-07-31T08:59:25.000Z</time>
      </trkpt>
      <trkpt lat="49.80984" lon="4.86993">
        <ele>304</ele>
        <time>2021-07-31T08:59:26.000Z</time>
      </trkpt>
      <trkpt lat="49.80985" lon="4.86993">
        <ele>304</ele>
        <time>2021-07-31T08:59:27.000Z</time>
      </trkpt>
      <trkpt lat="49.80984" lon="4.86993">
        <ele>304</ele>
        <time>2021-07-31T08:59:28.000Z</time>
      </trkpt>
      <trkpt lat="49.80984" lon="4.86993">
        <ele>304</ele>
        <time>2021-07-31T08:59:29.000Z</time>
      </trkpt>
      <trkpt lat="49.80985" lon="4.86993">
        <ele>304</ele>
        <time>2021-07-31T08:59:30.000Z</time>
      </trkpt>
      <trkpt lat="49.80984" lon="4.86993">
        <ele>304</ele>
        <time>2021-07-31T08:59:31.000Z</time>
      </trkpt>
      <trkpt lat="49.80985" lon="4.86993">
        <ele>303</ele>
        <time>2021-07-31T08:59:32.000Z</time>
      </trkpt>
      <trkpt lat="49.80984" lon="4.86993">
        <ele>303</ele>
        <time>2021-07-31T08:59:33.000Z</time>
      </trkpt>
      <trkpt lat="49.80985" lon="4.86993">
        <ele>303</ele>
        <time>2021-07-31T08:59:34.000Z</time>
      </trkpt>
      <trkpt lat="49.80985" lon="4.86994">
        <ele>303</ele>
        <time>2021-07-31T08:59:35.000Z</time>
      </trkpt>
      <trkpt lat="49.80985" lon="4.86994">
        <ele>303</ele>
        <time>2021-07-31T08:59:36.000Z</time>
      </trkpt>
      <trkpt lat="49.80985" lon="4.86993">
        <ele>304</ele>
        <time>2021-07-31T08:59:37.000Z</time>
      </trkpt>
      <trkpt lat="49.80985" lon="4.86993">
        <ele>304</ele>
        <time>2021-07-31T08:59:38.000Z</time>
      </trkpt>
      <trkpt lat="49.80985" lon="4.86993">
        <ele>304</ele>
        <time>2021-07-31T08:59:39.000Z</time>
      </trkpt>
      <trkpt lat="49.80985" lon="4.86993">
        <ele>304</ele>
        <time>2021-07-31T08:59:40.000Z</time>
      </trkpt>
      <trkpt lat="49.80985" lon="4.86993">
        <ele>304</ele>
        <time>2021-07-31T08:59:41.000Z</time>
      </trkpt>
      <trkpt lat="49.80985" lon="4.86993">
        <ele>304</ele>
        <time>2021-07-31T08:59:42.000Z</time>
      </trkpt>
      <trkpt lat="49.80985" lon="4.86993">
        <ele>304</ele>
        <time>2021-07-31T08:59:43.000Z</time>
      </trkpt>
      <trkpt lat="49.80985" lon="4.86993">
        <ele>304</ele>
        <time>2021-07-31T08:59:44.000Z</time>
      </trkpt>
      <trkpt lat="49.80986" lon="4.86993">
        <ele>304</ele>
        <time>2021-07-31T08:59:45.000Z</time>
      </trkpt>
      <trkpt lat="49.80986" lon="4.86993">
        <ele>304</ele>
        <time>2021-07-31T08:59:46.000Z</time>
      </trkpt>
      <trkpt lat="49.80986" lon="4.86993">
        <ele>304</ele>
        <time>2021-07-31T08:59:47.000Z</time>
      </trkpt>
      <trkpt lat="49.80986" lon="4.86993">
        <ele>304</ele>
        <time>2021-07-31T08:59:48.000Z</time>
      </trkpt>
      <trkpt lat="49.80986" lon="4.86993">
        <ele>304</ele>
        <time>2021-07-31T08:59:49.000Z</time>
      </trkpt>
      <trkpt lat="49.80986" lon="4.86993">
        <ele>304</ele>
        <time>2021-07-31T08:59:50.000Z</time>
      </trkpt>
      <trkpt lat="49.80986" lon="4.86993">
        <ele>304</ele>
        <time>2021-07-31T08:59:51.000Z</time>
      </trkpt>
      <trkpt lat="49.80986" lon="4.86993">
        <ele>304</ele>
        <time>2021-07-31T08:59:52.000Z</time>
      </trkpt>
      <trkpt lat="49.80986" lon="4.86993">
        <ele>304</ele>
        <time>2021-07-31T08:59:53.000Z</time>
      </trkpt>
      <trkpt lat="49.80986" lon="4.86993">
        <ele>304</ele>
        <time>2021-07-31T08:59:54.000Z</time>
      </trkpt>
      <trkpt lat="49.80986" lon="4.86993">
        <ele>304</ele>
        <time>2021-07-31T08:59:55.000Z</time>
      </trkpt>
      <trkpt lat="49.80986" lon="4.86993">
        <ele>304</ele>
        <time>2021-07-31T08:59:56.000Z</time>
      </trkpt>
      <trkpt lat="49.80986" lon="4.86993">
        <ele>304</ele>
        <time>2021-07-31T08:59:57.000Z</time>
      </trkpt>
      <trkpt lat="49.80986" lon="4.86993">
        <ele>304</ele>
        <time>2021-07-31T08:59:58.000Z</time>
      </trkpt>
      <trkpt lat="49.80986" lon="4.86993">
        <ele>304</ele>
        <time>2021-07-31T08:59:59.000Z</time>
      </trkpt>
      <trkpt lat="49.80986" lon="4.86993">
        <ele>304</ele>
        <time>2021-07-31T09:00:00.000Z</time>
      </trkpt>
      <trkpt lat="49.80986" lon="4.86993">
        <ele>304</ele>
        <time>2021-07-31T09:00:01.000Z</time>
      </trkpt>
      <trkpt lat="49.80986" lon="4.86993">
        <ele>304</ele>
        <time>2021-07-31T09:00:02.000Z</time>
      </trkpt>
      <trkpt lat="49.80986" lon="4.86993">
        <ele>304</ele>
        <time>2021-07-31T09:00:03.000Z</time>
      </trkpt>
      <trkpt lat="49.80986" lon="4.86993">
        <ele>304</ele>
        <time>2021-07-31T09:00:04.000Z</time>
      </trkpt>
      <trkpt lat="49.80986" lon="4.86993">
        <ele>304</ele>
        <time>2021-07-31T09:00:05.000Z</time>
      </trkpt>
      <trkpt lat="49.80986" lon="4.86993">
        <ele>304</ele>
        <time>2021-07-31T09:00:06.000Z</time>
      </trkpt>
      <trkpt lat="49.80986" lon="4.86993">
        <ele>304</ele>
        <time>2021-07-31T09:00:07.000Z</time>
      </trkpt>
      <trkpt lat="49.80986" lon="4.86993">
        <ele>304</ele>
        <time>2021-07-31T09:00:08.000Z</time>
      </trkpt>
      <trkpt lat="49.80986" lon="4.86993">
        <ele>304</ele>
        <time>2021-07-31T09:00:09.000Z</time>
      </trkpt>
      <trkpt lat="49.80986" lon="4.86993">
        <ele>304</ele>
        <time>2021-07-31T09:00:10.000Z</time>
      </trkpt>
      <trkpt lat="49.80986" lon="4.86993">
        <ele>304</ele>
        <time>2021-07-31T09:00:11.000Z</time>
      </trkpt>
      <trkpt lat="49.80986" lon="4.86993">
        <ele>304</ele>
        <time>2021-07-31T09:00:12.000Z</time>
      </trkpt>
      <trkpt lat="49.80986" lon="4.86993">
        <ele>304</ele>
        <time>2021-07-31T09:00:13.000Z</time>
      </trkpt>
      <trkpt lat="49.80986" lon="4.86993">
        <ele>304</ele>
        <time>2021-07-31T09:00:14.000Z</time>
      </trkpt>
      <trkpt lat="49.80986" lon="4.86993">
        <ele>304</ele>
        <time>2021-07-31T09:00:15.000Z</time>
      </trkpt>
      <trkpt lat="49.80986" lon="4.86993">
        <ele>304</ele>
        <time>2021-07-31T09:00:16.000Z</time>
      </trkpt>
      <trkpt lat="49.80986" lon="4.86993">
        <ele>304</ele>
        <time>2021-07-31T09:00:17.000Z</time>
      </trkpt>
      <trkpt lat="49.80986" lon="4.86993">
        <ele>304</ele>
        <time>2021-07-31T09:00:18.000Z</time>
      </trkpt>
      <trkpt lat="49.80986" lon="4.86993">
        <ele>304</ele>
        <time>2021-07-31T09:00:19.000Z</time>
      </trkpt>
      <trkpt lat="49.80986" lon="4.86993">
        <ele>304</ele>
        <time>2021-07-31T09:00:20.000Z</time>
      </trkpt>
      <trkpt lat="49.80986" lon="4.86993">
        <ele>304</ele>
        <time>2021-07-31T09:00:21.000Z</time>
      </trkpt>
      <trkpt lat="49.80986" lon="4.86993">
        <ele>304</ele>
        <time>2021-07-31T09:00:22.000Z</time>
      </trkpt>
      <trkpt lat="49.80986" lon="4.86993">
        <ele>304</ele>
        <time>2021-07-31T09:00:23.000Z</time>
      </trkpt>
      <trkpt lat="49.80986" lon="4.86993">
        <ele>304</ele>
        <time>2021-07-31T09:00:24.000Z</time>
      </trkpt>
      <trkpt lat="49.80986" lon="4.86993">
        <ele>304</ele>
        <time>2021-07-31T09:00:25.000Z</time>
      </trkpt>
      <trkpt lat="49.80986" lon="4.86993">
        <ele>304</ele>
        <time>2021-07-31T09:00:26.000Z</time>
      </trkpt>
      <trkpt lat="49.80986" lon="4.86993">
        <ele>304</ele>
        <time>2021-07-31T09:00:27.000Z</time>
      </trkpt>
      <trkpt lat="49.80986" lon="4.86992">
        <ele>304</ele>
        <time>2021-07-31T09:00:28.000Z</time>
      </trkpt>
      <trkpt lat="49.80986" lon="4.86992">
        <ele>304</ele>
        <time>2021-07-31T09:00:29.000Z</time>
      </trkpt>
      <trkpt lat="49.80986" lon="4.86992">
        <ele>304</ele>
        <time>2021-07-31T09:00:30.000Z</time>
      </trkpt>
      <trkpt lat="49.80986" lon="4.86993">
        <ele>304</ele>
        <time>2021-07-31T09:00:31.000Z</time>
      </trkpt>
      <trkpt lat="49.80986" lon="4.86993">
        <ele>304</ele>
        <time>2021-07-31T09:00:32.000Z</time>
      </trkpt>
      <trkpt lat="49.80986" lon="4.86993">
        <ele>304</ele>
        <time>2021-07-31T09:00:33.000Z</time>
      </trkpt>
      <trkpt lat="49.80986" lon="4.86993">
        <ele>304</ele>
        <time>2021-07-31T09:00:34.000Z</time>
      </trkpt>
      <trkpt lat="49.80986" lon="4.86993">
        <ele>304</ele>
        <time>2021-07-31T09:00:35.000Z</time>
      </trkpt>
      <trkpt lat="49.80986" lon="4.86993">
        <ele>304</ele>
        <time>2021-07-31T09:00:36.000Z</time>
      </trkpt>
      <trkpt lat="49.80986" lon="4.86993">
        <ele>304</ele>
        <time>2021-07-31T09:00:37.000Z</time>
      </trkpt>
      <trkpt lat="49.80986" lon="4.86993">
        <ele>304</ele>
        <time>2021-07-31T09:00:38.000Z</time>
      </trkpt>
      <trkpt lat="49.80986" lon="4.86993">
        <ele>304</ele>
        <time>2021-07-31T09:00:39.000Z</time>
      </trkpt>
      <trkpt lat="49.80986" lon="4.86993">
        <ele>304</ele>
        <time>2021-07-31T09:00:40.000Z</time>
      </trkpt>
      <trkpt lat="49.80986" lon="4.86993">
        <ele>304</ele>
        <time>2021-07-31T09:00:41.000Z</time>
      </trkpt>
      <trkpt lat="49.80986" lon="4.86993">
        <ele>304</ele>
        <time>2021-07-31T09:00:42.000Z</time>
      </trkpt>
      <trkpt lat="49.80986" lon="4.86994">
        <ele>304</ele>
        <time>2021-07-31T09:00:43.000Z</time>
      </trkpt>
      <trkpt lat="49.80986" lon="4.86994">
        <ele>304</ele>
        <time>2021-07-31T09:00:44.000Z</time>
      </trkpt>
      <trkpt lat="49.80986" lon="4.86994">
        <ele>304</ele>
        <time>2021-07-31T09:00:45.000Z</time>
      </trkpt>
      <trkpt lat="49.80986" lon="4.86994">
        <ele>304</ele>
        <time>2021-07-31T09:00:46.000Z</time>
      </trkpt>
      <trkpt lat="49.80986" lon="4.86994">
        <ele>304</ele>
        <time>2021-07-31T09:00:47.000Z</time>
      </trkpt>
      <trkpt lat="49.80986" lon="4.86994">
        <ele>304</ele>
        <time>2021-07-31T09:00:48.000Z</time>
      </trkpt>
      <trkpt lat="49.80986" lon="4.86994">
        <ele>304</ele>
        <time>2021-07-31T09:00:49.000Z</time>
      </trkpt>
      <trkpt lat="49.80986" lon="4.86994">
        <ele>304</ele>
        <time>2021-07-31T09:00:50.000Z</time>
      </trkpt>
      <trkpt lat="49.80986" lon="4.86994">
        <ele>304</ele>
        <time>2021-07-31T09:00:51.000Z</time>
      </trkpt>
      <trkpt lat="49.80986" lon="4.86994">
        <ele>304</ele>
        <time>2021-07-31T09:00:52.000Z</time>
      </trkpt>
      <trkpt lat="49.80986" lon="4.86994">
        <ele>304</ele>
        <time>2021-07-31T09:00:53.000Z</time>
      </trkpt>
      <trkpt lat="49.80986" lon="4.86995">
        <ele>304</ele>
        <time>2021-07-31T09:00:54.000Z</time>
      </trkpt>
      <trkpt lat="49.80986" lon="4.86995">
        <ele>304</ele>
        <time>2021-07-31T09:00:55.000Z</time>
      </trkpt>
      <trkpt lat="49.80986" lon="4.86995">
        <ele>304</ele>
        <time>2021-07-31T09:00:56.000Z</time>
      </trkpt>
      <trkpt lat="49.80986" lon="4.86995">
        <ele>304</ele>
        <time>2021-07-31T09:00:57.000Z</time>
      </trkpt>
      <trkpt lat="49.80986" lon="4.86995">
        <ele>304</ele>
        <time>2021-07-31T09:00:58.000Z</time>
      </trkpt>
      <trkpt lat="49.80986" lon="4.86995">
        <ele>304</ele>
        <time>2021-07-31T09:00:59.000Z</time>
      </trkpt>
      <trkpt lat="49.80986" lon="4.86995">
        <ele>304</ele>
        <time>2021-07-31T09:01:00.000Z</time>
      </trkpt>
      <trkpt lat="49.80985" lon="4.86995">
        <ele>304</ele>
        <time>2021-07-31T09:01:01.000Z</time>
      </trkpt>
      <trkpt lat="49.80985" lon="4.86995">
        <ele>304</ele>
        <time>2021-07-31T09:01:02.000Z</time>
      </trkpt>
      <trkpt lat="49.80985" lon="4.86995">
        <ele>304</ele>
        <time>2021-07-31T09:01:03.000Z</time>
      </trkpt>
      <trkpt lat="49.80985" lon="4.86995">
        <ele>304</ele>
        <time>2021-07-31T09:01:04.000Z</time>
      </trkpt>
      <trkpt lat="49.80985" lon="4.86995">
        <ele>304</ele>
        <time>2021-07-31T09:01:05.000Z</time>
      </trkpt>
      <trkpt lat="49.80985" lon="4.86995">
        <ele>304</ele>
        <time>2021-07-31T09:01:06.000Z</time>
      </trkpt>
      <trkpt lat="49.80985" lon="4.86995">
        <ele>304</ele>
        <time>2021-07-31T09:01:07.000Z</time>
      </trkpt>
      <trkpt lat="49.80985" lon="4.86995">
        <ele>304</ele>
        <time>2021-07-31T09:01:08.000Z</time>
      </trkpt>
      <trkpt lat="49.80985" lon="4.86995">
        <ele>304</ele>
        <time>2021-07-31T09:01:09.000Z</time>
      </trkpt>
      <trkpt lat="49.80985" lon="4.86995">
        <ele>304</ele>
        <time>2021-07-31T09:01:10.000Z</time>
      </trkpt>
      <trkpt lat="49.80985" lon="4.86995">
        <ele>304</ele>
        <time>2021-07-31T09:01:11.000Z</time>
      </trkpt>
      <trkpt lat="49.80985" lon="4.86995">
        <ele>304</ele>
        <time>2021-07-31T09:01:12.000Z</time>
      </trkpt>
      <trkpt lat="49.80985" lon="4.86995">
        <ele>304</ele>
        <time>2021-07-31T09:01:13.000Z</time>
      </trkpt>
      <trkpt lat="49.80985" lon="4.86995">
        <ele>304</ele>
        <time>2021-07-31T09:01:14.000Z</time>
      </trkpt>
      <trkpt lat="49.80985" lon="4.86995">
        <ele>304</ele>
        <time>2021-07-31T09:01:15.000Z</time>
      </trkpt>
      <trkpt lat="49.80985" lon="4.86995">
        <ele>304</ele>
        <time>2021-07-31T09:01:16.000Z</time>
      </trkpt>
      <trkpt lat="49.80985" lon="4.86995">
        <ele>304</ele>
        <time>2021-07-31T09:01:17.000Z</time>
      </trkpt>
      <trkpt lat="49.80985" lon="4.86995">
        <ele>304</ele>
        <time>2021-07-31T09:01:18.000Z</time>
      </trkpt>
      <trkpt lat="49.80984" lon="4.86995">
        <ele>304</ele>
        <time>2021-07-31T09:01:19.000Z</time>
      </trkpt>
      <trkpt lat="49.80984" lon="4.86995">
        <ele>304</ele>
        <time>2021-07-31T09:01:20.000Z</time>
      </trkpt>
      <trkpt lat="49.80984" lon="4.86995">
        <ele>304</ele>
        <time>2021-07-31T09:01:21.000Z</time>
      </trkpt>
      <trkpt lat="49.80984" lon="4.86995">
        <ele>304</ele>
        <time>2021-07-31T09:01:22.000Z</time>
      </trkpt>
      <trkpt lat="49.80984" lon="4.86995">
        <ele>304</ele>
        <time>2021-07-31T09:01:23.000Z</time>
      </trkpt>
      <trkpt lat="49.80984" lon="4.86995">
        <ele>304</ele>
        <time>2021-07-31T09:01:24.000Z</time>
      </trkpt>
      <trkpt lat="49.80984" lon="4.86995">
        <ele>304</ele>
        <time>2021-07-31T09:01:25.000Z</time>
      </trkpt>
      <trkpt lat="49.80984" lon="4.86995">
        <ele>304</ele>
        <time>2021-07-31T09:01:26.000Z</time>
      </trkpt>
      <trkpt lat="49.80984" lon="4.86995">
        <ele>304</ele>
        <time>2021-07-31T09:01:27.000Z</time>
      </trkpt>
      <trkpt lat="49.80984" lon="4.86995">
        <ele>304</ele>
        <time>2021-07-31T09:01:28.000Z</time>
      </trkpt>
      <trkpt lat="49.80984" lon="4.86995">
        <ele>304</ele>
        <time>2021-07-31T09:01:29.000Z</time>
      </trkpt>
      <trkpt lat="49.80984" lon="4.86995">
        <ele>304</ele>
        <time>2021-07-31T09:01:30.000Z</time>
      </trkpt>
      <trkpt lat="49.80984" lon="4.86995">
        <ele>304</ele>
        <time>2021-07-31T09:01:31.000Z</time>
      </trkpt>
      <trkpt lat="49.80984" lon="4.86995">
        <ele>304</ele>
        <time>2021-07-31T09:01:32.000Z</time>
      </trkpt>
      <trkpt lat="49.80984" lon="4.86995">
        <ele>304</ele>
        <time>2021-07-31T09:01:33.000Z</time>
      </trkpt>
      <trkpt lat="49.80984" lon="4.86995">
        <ele>304</ele>
        <time>2021-07-31T09:01:34.000Z</time>
      </trkpt>
      <trkpt lat="49.80984" lon="4.86995">
        <ele>304</ele>
        <time>2021-07-31T09:01:35.000Z</time>
      </trkpt>
      <trkpt lat="49.80984" lon="4.86995">
        <ele>304</ele>
        <time>2021-07-31T09:01:36.000Z</time>
      </trkpt>
      <trkpt lat="49.80985" lon="4.86995">
        <ele>304</ele>
        <time>2021-07-31T09:01:37.000Z</time>
      </trkpt>
      <trkpt lat="49.80985" lon="4.86995">
        <ele>304</ele>
        <time>2021-07-31T09:01:38.000Z</time>
      </trkpt>
      <trkpt lat="49.80985" lon="4.86995">
        <ele>304</ele>
        <time>2021-07-31T09:01:39.000Z</time>
      </trkpt>
      <trkpt lat="49.80984" lon="4.86995">
        <ele>304</ele>
        <time>2021-07-31T09:01:40.000Z</time>
      </trkpt>
      <trkpt lat="49.80984" lon="4.86995">
        <ele>304</ele>
        <time>2021-07-31T09:01:41.000Z</time>
      </trkpt>
      <trkpt lat="49.80984" lon="4.86996">
        <ele>304</ele>
        <time>2021-07-31T09:01:42.000Z</time>
      </trkpt>
      <trkpt lat="49.80984" lon="4.86996">
        <ele>304</ele>
        <time>2021-07-31T09:01:43.000Z</time>
      </trkpt>
      <trkpt lat="49.80984" lon="4.86996">
        <ele>304</ele>
        <time>2021-07-31T09:01:44.000Z</time>
      </trkpt>
      <trkpt lat="49.80984" lon="4.86996">
        <ele>304</ele>
        <time>2021-07-31T09:01:45.000Z</time>
      </trkpt>
      <trkpt lat="49.80984" lon="4.86996">
        <ele>304</ele>
        <time>2021-07-31T09:01:46.000Z</time>
      </trkpt>
      <trkpt lat="49.80984" lon="4.86996">
        <ele>304</ele>
        <time>2021-07-31T09:01:47.000Z</time>
      </trkpt>
      <trkpt lat="49.80984" lon="4.86996">
        <ele>304</ele>
        <time>2021-07-31T09:01:48.000Z</time>
      </trkpt>
      <trkpt lat="49.80984" lon="4.86996">
        <ele>304</ele>
        <time>2021-07-31T09:01:49.000Z</time>
      </trkpt>
      <trkpt lat="49.80984" lon="4.86996">
        <ele>304</ele>
        <time>2021-07-31T09:01:50.000Z</time>
      </trkpt>
      <trkpt lat="49.80984" lon="4.86996">
        <ele>304</ele>
        <time>2021-07-31T09:01:51.000Z</time>
      </trkpt>
      <trkpt lat="49.80984" lon="4.86996">
        <ele>304</ele>
        <time>2021-07-31T09:01:52.000Z</time>
      </trkpt>
      <trkpt lat="49.80984" lon="4.86996">
        <ele>304</ele>
        <time>2021-07-31T09:01:53.000Z</time>
      </trkpt>
      <trkpt lat="49.80984" lon="4.86996">
        <ele>304</ele>
        <time>2021-07-31T09:01:54.000Z</time>
      </trkpt>
      <trkpt lat="49.80984" lon="4.86996">
        <ele>304</ele>
        <time>2021-07-31T09:01:55.000Z</time>
      </trkpt>
      <trkpt lat="49.80984" lon="4.86996">
        <ele>304</ele>
        <time>2021-07-31T09:01:56.000Z</time>
      </trkpt>
      <trkpt lat="49.80984" lon="4.86996">
        <ele>304</ele>
        <time>2021-07-31T09:01:57.000Z</time>
      </trkpt>
      <trkpt lat="49.80984" lon="4.86996">
        <ele>304</ele>
        <time>2021-07-31T09:01:58.000Z</time>
      </trkpt>
      <trkpt lat="49.80984" lon="4.86996">
        <ele>304</ele>
        <time>2021-07-31T09:01:59.000Z</time>
      </trkpt>
      <trkpt lat="49.80984" lon="4.86997">
        <ele>304</ele>
        <time>2021-07-31T09:02:00.000Z</time>
      </trkpt>
      <trkpt lat="49.80984" lon="4.86997">
        <ele>304</ele>
        <time>2021-07-31T09:02:01.000Z</time>
      </trkpt>
      <trkpt lat="49.80984" lon="4.86997">
        <ele>303</ele>
        <time>2021-07-31T09:02:02.000Z</time>
      </trkpt>
      <trkpt lat="49.80983" lon="4.86997">
        <ele>303</ele>
        <time>2021-07-31T09:02:03.000Z</time>
      </trkpt>
      <trkpt lat="49.80983" lon="4.86997">
        <ele>303</ele>
        <time>2021-07-31T09:02:04.000Z</time>
      </trkpt>
      <trkpt lat="49.80983" lon="4.86997">
        <ele>303</ele>
        <time>2021-07-31T09:02:05.000Z</time>
      </trkpt>
      <trkpt lat="49.80983" lon="4.86997">
        <ele>303</ele>
        <time>2021-07-31T09:02:06.000Z</time>
      </trkpt>
      <trkpt lat="49.80983" lon="4.86997">
        <ele>303</ele>
        <time>2021-07-31T09:02:07.000Z</time>
      </trkpt>
      <trkpt lat="49.80983" lon="4.86997">
        <ele>302</ele>
        <time>2021-07-31T09:02:08.000Z</time>
      </trkpt>
      <trkpt lat="49.80982" lon="4.86997">
        <ele>302</ele>
        <time>2021-07-31T09:02:09.000Z</time>
      </trkpt>
      <trkpt lat="49.80982" lon="4.86997">
        <ele>302</ele>
        <time>2021-07-31T09:02:10.000Z</time>
      </trkpt>
      <trkpt lat="49.80982" lon="4.86997">
        <ele>302</ele>
        <time>2021-07-31T09:02:11.000Z</time>
      </trkpt>
      <trkpt lat="49.80982" lon="4.86997">
        <ele>302</ele>
        <time>2021-07-31T09:02:12.000Z</time>
      </trkpt>
      <trkpt lat="49.80982" lon="4.86996">
        <ele>302</ele>
        <time>2021-07-31T09:02:13.000Z</time>
      </trkpt>
      <trkpt lat="49.80982" lon="4.86996">
        <ele>302</ele>
        <time>2021-07-31T09:02:14.000Z</time>
      </trkpt>
      <trkpt lat="49.80981" lon="4.86996">
        <ele>302</ele>
        <time>2021-07-31T09:02:15.000Z</time>
      </trkpt>
      <trkpt lat="49.80981" lon="4.86996">
        <ele>302</ele>
        <time>2021-07-31T09:02:16.000Z</time>
      </trkpt>
      <trkpt lat="49.80981" lon="4.86996">
        <ele>302</ele>
        <time>2021-07-31T09:02:17.000Z</time>
      </trkpt>
      <trkpt lat="49.80981" lon="4.86996">
        <ele>301</ele>
        <time>2021-07-31T09:02:18.000Z</time>
      </trkpt>
      <trkpt lat="49.80981" lon="4.86996">
        <ele>301</ele>
        <time>2021-07-31T09:02:19.000Z</time>
      </trkpt>
      <trkpt lat="49.80981" lon="4.86996">
        <ele>301</ele>
        <time>2021-07-31T09:02:20.000Z</time>
      </trkpt>
      <trkpt lat="49.80981" lon="4.86996">
        <ele>301</ele>
        <time>2021-07-31T09:02:21.000Z</time>
      </trkpt>
      <trkpt lat="49.80981" lon="4.86996">
        <ele>301</ele>
        <time>2021-07-31T09:02:22.000Z</time>
      </trkpt>
      <trkpt lat="49.80981" lon="4.86995">
        <ele>301</ele>
        <time>2021-07-31T09:02:23.000Z</time>
      </trkpt>
      <trkpt lat="49.80981" lon="4.86995">
        <ele>301</ele>
        <time>2021-07-31T09:02:24.000Z</time>
      </trkpt>
      <trkpt lat="49.80981" lon="4.86995">
        <ele>301</ele>
        <time>2021-07-31T09:02:25.000Z</time>
      </trkpt>
      <trkpt lat="49.80981" lon="4.86995">
        <ele>301</ele>
        <time>2021-07-31T09:02:26.000Z</time>
      </trkpt>
      <trkpt lat="49.80981" lon="4.86995">
        <ele>301</ele>
        <time>2021-07-31T09:02:27.000Z</time>
      </trkpt>
      <trkpt lat="49.80981" lon="4.86995">
        <ele>301</ele>
        <time>2021-07-31T09:02:28.000Z</time>
      </trkpt>
      <trkpt lat="49.80981" lon="4.86995">
        <ele>301</ele>
        <time>2021-07-31T09:02:29.000Z</time>
      </trkpt>
      <trkpt lat="49.80981" lon="4.86995">
        <ele>302</ele>
        <time>2021-07-31T09:02:30.000Z</time>
      </trkpt>
      <trkpt lat="49.80981" lon="4.86995">
        <ele>302</ele>
        <time>2021-07-31T09:02:31.000Z</time>
      </trkpt>
      <trkpt lat="49.80981" lon="4.86995">
        <ele>302</ele>
        <time>2021-07-31T09:02:32.000Z</time>
      </trkpt>
      <trkpt lat="49.80981" lon="4.86995">
        <ele>302</ele>
        <time>2021-07-31T09:02:33.000Z</time>
      </trkpt>
      <trkpt lat="49.80981" lon="4.86995">
        <ele>302</ele>
        <time>2021-07-31T09:02:34.000Z</time>
      </trkpt>
      <trkpt lat="49.80981" lon="4.86995">
        <ele>302</ele>
        <time>2021-07-31T09:02:35.000Z</time>
      </trkpt>
      <trkpt lat="49.80982" lon="4.86995">
        <ele>302</ele>
        <time>2021-07-31T09:02:36.000Z</time>
      </trkpt>
      <trkpt lat="49.80982" lon="4.86995">
        <ele>302</ele>
        <time>2021-07-31T09:02:37.000Z</time>
      </trkpt>
      <trkpt lat="49.80982" lon="4.86995">
        <ele>302</ele>
        <time>2021-07-31T09:02:38.000Z</time>
      </trkpt>
      <trkpt lat="49.80982" lon="4.86994">
        <ele>302</ele>
        <time>2021-07-31T09:02:39.000Z</time>
      </trkpt>
      <trkpt lat="49.80982" lon="4.86994">
        <ele>302</ele>
        <time>2021-07-31T09:02:40.000Z</time>
      </trkpt>
      <trkpt lat="49.80982" lon="4.86994">
        <ele>303</ele>
        <time>2021-07-31T09:02:41.000Z</time>
      </trkpt>
      <trkpt lat="49.80983" lon="4.86994">
        <ele>303</ele>
        <time>2021-07-31T09:02:42.000Z</time>
      </trkpt>
      <trkpt lat="49.80983" lon="4.86994">
        <ele>303</ele>
        <time>2021-07-31T09:02:43.000Z</time>
      </trkpt>
      <trkpt lat="49.80983" lon="4.86994">
        <ele>303</ele>
        <time>2021-07-31T09:02:44.000Z</time>
      </trkpt>
      <trkpt lat="49.80983" lon="4.86994">
        <ele>303</ele>
        <time>2021-07-31T09:02:45.000Z</time>
      </trkpt>
      <trkpt lat="49.80983" lon="4.86994">
        <ele>303</ele>
        <time>2021-07-31T09:02:46.000Z</time>
      </trkpt>
      <trkpt lat="49.80983" lon="4.86994">
        <ele>303</ele>
        <time>2021-07-31T09:02:47.000Z</time>
      </trkpt>
      <trkpt lat="49.80983" lon="4.86994">
        <ele>303</ele>
        <time>2021-07-31T09:02:48.000Z</time>
      </trkpt>
      <trkpt lat="49.80983" lon="4.86994">
        <ele>303</ele>
        <time>2021-07-31T09:02:49.000Z</time>
      </trkpt>
      <trkpt lat="49.80983" lon="4.86994">
        <ele>303</ele>
        <time>2021-07-31T09:02:50.000Z</time>
      </trkpt>
      <trkpt lat="49.80984" lon="4.86994">
        <ele>303</ele>
        <time>2021-07-31T09:02:51.000Z</time>
      </trkpt>
      <trkpt lat="49.80984" lon="4.86994">
        <ele>303</ele>
        <time>2021-07-31T09:02:52.000Z</time>
      </trkpt>
      <trkpt lat="49.80984" lon="4.86994">
        <ele>303</ele>
        <time>2021-07-31T09:02:53.000Z</time>
      </trkpt>
      <trkpt lat="49.80984" lon="4.86994">
        <ele>303</ele>
        <time>2021-07-31T09:02:54.000Z</time>
      </trkpt>
      <trkpt lat="49.80984" lon="4.86994">
        <ele>303</ele>
        <time>2021-07-31T09:02:55.000Z</time>
      </trkpt>
      <trkpt lat="49.80984" lon="4.86993">
        <ele>303</ele>
        <time>2021-07-31T09:02:56.000Z</time>
      </trkpt>
      <trkpt lat="49.80984" lon="4.86993">
        <ele>303</ele>
        <time>2021-07-31T09:02:57.000Z</time>
      </trkpt>
      <trkpt lat="49.80984" lon="4.86993">
        <ele>303</ele>
        <time>2021-07-31T09:02:58.000Z</time>
      </trkpt>
      <trkpt lat="49.80984" lon="4.86993">
        <ele>303</ele>
        <time>2021-07-31T09:02:59.000Z</time>
      </trkpt>
      <trkpt lat="49.80984" lon="4.86993">
        <ele>303</ele>
        <time>2021-07-31T09:03:00.000Z</time>
      </trkpt>
      <trkpt lat="49.80984" lon="4.86993">
        <ele>303</ele>
        <time>2021-07-31T09:03:01.000Z</time>
      </trkpt>
      <trkpt lat="49.80984" lon="4.86994">
        <ele>303</ele>
        <time>2021-07-31T09:03:02.000Z</time>
      </trkpt>
      <trkpt lat="49.80983" lon="4.86994">
        <ele>303</ele>
        <time>2021-07-31T09:03:03.000Z</time>
      </trkpt>
      <trkpt lat="49.80984" lon="4.86994">
        <ele>303</ele>
        <time>2021-07-31T09:03:04.000Z</time>
      </trkpt>
      <trkpt lat="49.80984" lon="4.86994">
        <ele>303</ele>
        <time>2021-07-31T09:03:05.000Z</time>
      </trkpt>
      <trkpt lat="49.80984" lon="4.86994">
        <ele>303</ele>
        <time>2021-07-31T09:03:06.000Z</time>
      </trkpt>
      <trkpt lat="49.80984" lon="4.86994">
        <ele>303</ele>
        <time>2021-07-31T09:03:07.000Z</time>
      </trkpt>
      <trkpt lat="49.80984" lon="4.86994">
        <ele>303</ele>
        <time>2021-07-31T09:03:08.000Z</time>
      </trkpt>
      <trkpt lat="49.80984" lon="4.86994">
        <ele>303</ele>
        <time>2021-07-31T09:03:09.000Z</time>
      </trkpt>
      <trkpt lat="49.80984" lon="4.86994">
        <ele>303</ele>
        <time>2021-07-31T09:03:10.000Z</time>
      </trkpt>
      <trkpt lat="49.80985" lon="4.86994">
        <ele>303</ele>
        <time>2021-07-31T09:03:11.000Z</time>
      </trkpt>
      <trkpt lat="49.80985" lon="4.86994">
        <ele>304</ele>
        <time>2021-07-31T09:03:12.000Z</time>
      </trkpt>
      <trkpt lat="49.80985" lon="4.86994">
        <ele>304</ele>
        <time>2021-07-31T09:03:13.000Z</time>
      </trkpt>
      <trkpt lat="49.80985" lon="4.86994">
        <ele>304</ele>
        <time>2021-07-31T09:03:14.000Z</time>
      </trkpt>
      <trkpt lat="49.80985" lon="4.86994">
        <ele>304</ele>
        <time>2021-07-31T09:03:15.000Z</time>
      </trkpt>
      <trkpt lat="49.80985" lon="4.86994">
        <ele>304</ele>
        <time>2021-07-31T09:03:16.000Z</time>
      </trkpt>
      <trkpt lat="49.80985" lon="4.86994">
        <ele>304</ele>
        <time>2021-07-31T09:03:17.000Z</time>
      </trkpt>
      <trkpt lat="49.80985" lon="4.86993">
        <ele>304</ele>
        <time>2021-07-31T09:03:18.000Z</time>
      </trkpt>
      <trkpt lat="49.80985" lon="4.86993">
        <ele>304</ele>
        <time>2021-07-31T09:03:19.000Z</time>
      </trkpt>
      <trkpt lat="49.80985" lon="4.86993">
        <ele>304</ele>
        <time>2021-07-31T09:03:20.000Z</time>
      </trkpt>
      <trkpt lat="49.80985" lon="4.86993">
        <ele>304</ele>
        <time>2021-07-31T09:03:21.000Z</time>
      </trkpt>
      <trkpt lat="49.80985" lon="4.86993">
        <ele>304</ele>
        <time>2021-07-31T09:03:22.000Z</time>
      </trkpt>
      <trkpt lat="49.80985" lon="4.86993">
        <ele>304</ele>
        <time>2021-07-31T09:03:23.000Z</time>
      </trkpt>
      <trkpt lat="49.80985" lon="4.86992">
        <ele>304</ele>
        <time>2021-07-31T09:03:24.000Z</time>
      </trkpt>
      <trkpt lat="49.80985" lon="4.86992">
        <ele>304</ele>
        <time>2021-07-31T09:03:25.000Z</time>
      </trkpt>
      <trkpt lat="49.80985" lon="4.86993">
        <ele>304</ele>
        <time>2021-07-31T09:03:26.000Z</time>
      </trkpt>
      <trkpt lat="49.80985" lon="4.86993">
        <ele>304</ele>
        <time>2021-07-31T09:03:27.000Z</time>
      </trkpt>
      <trkpt lat="49.80985" lon="4.86993">
        <ele>304</ele>
        <time>2021-07-31T09:03:28.000Z</time>
      </trkpt>
      <trkpt lat="49.80985" lon="4.86993">
        <ele>304</ele>
        <time>2021-07-31T09:03:29.000Z</time>
      </trkpt>
      <trkpt lat="49.80985" lon="4.86993">
        <ele>305</ele>
        <time>2021-07-31T09:03:30.000Z</time>
      </trkpt>
      <trkpt lat="49.80985" lon="4.86993">
        <ele>305</ele>
        <time>2021-07-31T09:03:31.000Z</time>
      </trkpt>
      <trkpt lat="49.80985" lon="4.86993">
        <ele>305</ele>
        <time>2021-07-31T09:03:32.000Z</time>
      </trkpt>
      <trkpt lat="49.80985" lon="4.86993">
        <ele>305</ele>
        <time>2021-07-31T09:03:33.000Z</time>
      </trkpt>
      <trkpt lat="49.80985" lon="4.86993">
        <ele>305</ele>
        <time>2021-07-31T09:03:34.000Z</time>
      </trkpt>
      <trkpt lat="49.80985" lon="4.86993">
        <ele>305</ele>
        <time>2021-07-31T09:03:35.000Z</time>
      </trkpt>
      <trkpt lat="49.80985" lon="4.86993">
        <ele>305</ele>
        <time>2021-07-31T09:03:36.000Z</time>
      </trkpt>
      <trkpt lat="49.80985" lon="4.86993">
        <ele>305</ele>
        <time>2021-07-31T09:03:37.000Z</time>
      </trkpt>
      <trkpt lat="49.80985" lon="4.86993">
        <ele>305</ele>
        <time>2021-07-31T09:03:38.000Z</time>
      </trkpt>
      <trkpt lat="49.80985" lon="4.86993">
        <ele>306</ele>
        <time>2021-07-31T09:03:39.000Z</time>
      </trkpt>
      <trkpt lat="49.80985" lon="4.86993">
        <ele>306</ele>
        <time>2021-07-31T09:03:40.000Z</time>
      </trkpt>
      <trkpt lat="49.80985" lon="4.86993">
        <ele>306</ele>
        <time>2021-07-31T09:03:41.000Z</time>
      </trkpt>
      <trkpt lat="49.80985" lon="4.86993">
        <ele>306</ele>
        <time>2021-07-31T09:03:42.000Z</time>
      </trkpt>
      <trkpt lat="49.80985" lon="4.86993">
        <ele>306</ele>
        <time>2021-07-31T09:03:43.000Z</time>
      </trkpt>
      <trkpt lat="49.80985" lon="4.86993">
        <ele>306</ele>
        <time>2021-07-31T09:03:44.000Z</time>
      </trkpt>
      <trkpt lat="49.80985" lon="4.86993">
        <ele>306</ele>
        <time>2021-07-31T09:03:45.000Z</time>
      </trkpt>
      <trkpt lat="49.80985" lon="4.86993">
        <ele>306</ele>
        <time>2021-07-31T09:03:46.000Z</time>
      </trkpt>
      <trkpt lat="49.80985" lon="4.86993">
        <ele>306</ele>
        <time>2021-07-31T09:03:47.000Z</time>
      </trkpt>
      <trkpt lat="49.80985" lon="4.86993">
        <ele>306</ele>
        <time>2021-07-31T09:03:48.000Z</time>
      </trkpt>
      <trkpt lat="49.80985" lon="4.86993">
        <ele>306</ele>
        <time>2021-07-31T09:03:49.000Z</time>
      </trkpt>
      <trkpt lat="49.80985" lon="4.86993">
        <ele>306</ele>
        <time>2021-07-31T09:03:50.000Z</time>
      </trkpt>
      <trkpt lat="49.80985" lon="4.86993">
        <ele>306</ele>
        <time>2021-07-31T09:03:51.000Z</time>
      </trkpt>
      <trkpt lat="49.80985" lon="4.86993">
        <ele>306</ele>
        <time>2021-07-31T09:03:52.000Z</time>
      </trkpt>
      <trkpt lat="49.80985" lon="4.86993">
        <ele>306</ele>
        <time>2021-07-31T09:03:53.000Z</time>
      </trkpt>
      <trkpt lat="49.80985" lon="4.86993">
        <ele>306</ele>
        <time>2021-07-31T09:03:54.000Z</time>
      </trkpt>
      <trkpt lat="49.80985" lon="4.86993">
        <ele>306</ele>
        <time>2021-07-31T09:03:55.000Z</time>
      </trkpt>
      <trkpt lat="49.80985" lon="4.86993">
        <ele>306</ele>
        <time>2021-07-31T09:03:56.000Z</time>
      </trkpt>
      <trkpt lat="49.80985" lon="4.86993">
        <ele>306</ele>
        <time>2021-07-31T09:03:57.000Z</time>
      </trkpt>
      <trkpt lat="49.80985" lon="4.86993">
        <ele>306</ele>
        <time>2021-07-31T09:03:58.000Z</time>
      </trkpt>
      <trkpt lat="49.80985" lon="4.86994">
        <ele>306</ele>
        <time>2021-07-31T09:03:59.000Z</time>
      </trkpt>
      <trkpt lat="49.80985" lon="4.86994">
        <ele>306</ele>
        <time>2021-07-31T09:04:00.000Z</time>
      </trkpt>
      <trkpt lat="49.80984" lon="4.86993">
        <ele>306</ele>
        <time>2021-07-31T09:04:01.000Z</time>
      </trkpt>
      <trkpt lat="49.80984" lon="4.86993">
        <ele>306</ele>
        <time>2021-07-31T09:04:02.000Z</time>
      </trkpt>
      <trkpt lat="49.80984" lon="4.86993">
        <ele>306</ele>
        <time>2021-07-31T09:04:03.000Z</time>
      </trkpt>
      <trkpt lat="49.80984" lon="4.86993">
        <ele>306</ele>
        <time>2021-07-31T09:04:04.000Z</time>
      </trkpt>
      <trkpt lat="49.80984" lon="4.86993">
        <ele>306</ele>
        <time>2021-07-31T09:04:05.000Z</time>
      </trkpt>
      <trkpt lat="49.80984" lon="4.86993">
        <ele>306</ele>
        <time>2021-07-31T09:04:06.000Z</time>
      </trkpt>
      <trkpt lat="49.80984" lon="4.86993">
        <ele>306</ele>
        <time>2021-07-31T09:04:07.000Z</time>
      </trkpt>
      <trkpt lat="49.80984" lon="4.86993">
        <ele>306</ele>
        <time>2021-07-31T09:04:08.000Z</time>
      </trkpt>
      <trkpt lat="49.80984" lon="4.86993">
        <ele>306</ele>
        <time>2021-07-31T09:04:09.000Z</time>
      </trkpt>
      <trkpt lat="49.80984" lon="4.86993">
        <ele>306</ele>
        <time>2021-07-31T09:04:10.000Z</time>
      </trkpt>
      <trkpt lat="49.80984" lon="4.86993">
        <ele>306</ele>
        <time>2021-07-31T09:04:11.000Z</time>
      </trkpt>
      <trkpt lat="49.80984" lon="4.86993">
        <ele>306</ele>
        <time>2021-07-31T09:04:12.000Z</time>
      </trkpt>
      <trkpt lat="49.80983" lon="4.86992">
        <ele>306</ele>
        <time>2021-07-31T09:04:13.000Z</time>
      </trkpt>
      <trkpt lat="49.80983" lon="4.86991">
        <ele>306</ele>
        <time>2021-07-31T09:04:14.000Z</time>
      </trkpt>
      <trkpt lat="49.80983" lon="4.86991">
        <ele>306</ele>
        <time>2021-07-31T09:04:15.000Z</time>
      </trkpt>
      <trkpt lat="49.80983" lon="4.86991">
        <ele>306</ele>
        <time>2021-07-31T09:04:16.000Z</time>
      </trkpt>
      <trkpt lat="49.80983" lon="4.86991">
        <ele>306</ele>
        <time>2021-07-31T09:04:17.000Z</time>
      </trkpt>
      <trkpt lat="49.80983" lon="4.86991">
        <ele>306</ele>
        <time>2021-07-31T09:04:18.000Z</time>
      </trkpt>
      <trkpt lat="49.80982" lon="4.8699">
        <ele>306</ele>
        <time>2021-07-31T09:04:19.000Z</time>
      </trkpt>
      <trkpt lat="49.80982" lon="4.86989">
        <ele>306</ele>
        <time>2021-07-31T09:04:20.000Z</time>
      </trkpt>
      <trkpt lat="49.80982" lon="4.86988">
        <ele>305</ele>
        <time>2021-07-31T09:04:21.000Z</time>
      </trkpt>
      <trkpt lat="49.80982" lon="4.86988">
        <ele>305</ele>
        <time>2021-07-31T09:04:22.000Z</time>
      </trkpt>
      <trkpt lat="49.80982" lon="4.86986">
        <ele>305</ele>
        <time>2021-07-31T09:04:23.000Z</time>
      </trkpt>
      <trkpt lat="49.80982" lon="4.86983">
        <ele>305</ele>
        <time>2021-07-31T09:04:24.000Z</time>
      </trkpt>
      <trkpt lat="49.80982" lon="4.86979">
        <ele>305</ele>
        <time>2021-07-31T09:04:25.000Z</time>
      </trkpt>
      <trkpt lat="49.80982" lon="4.86975">
        <ele>305</ele>
        <time>2021-07-31T09:04:26.000Z</time>
      </trkpt>
      <trkpt lat="49.80981" lon="4.8697">
        <ele>305</ele>
        <time>2021-07-31T09:04:27.000Z</time>
      </trkpt>
      <trkpt lat="49.8098" lon="4.86964">
        <ele>305</ele>
        <time>2021-07-31T09:04:28.000Z</time>
      </trkpt>
      <trkpt lat="49.80978" lon="4.86959">
        <ele>305</ele>
        <time>2021-07-31T09:04:29.000Z</time>
      </trkpt>
      <trkpt lat="49.80977" lon="4.86953">
        <ele>305</ele>
        <time>2021-07-31T09:04:30.000Z</time>
      </trkpt>
      <trkpt lat="49.80976" lon="4.86946">
        <ele>305</ele>
        <time>2021-07-31T09:04:31.000Z</time>
      </trkpt>
      <trkpt lat="49.80975" lon="4.86939">
        <ele>304</ele>
        <time>2021-07-31T09:04:32.000Z</time>
      </trkpt>
      <trkpt lat="49.80974" lon="4.86932">
        <ele>304</ele>
        <time>2021-07-31T09:04:33.000Z</time>
      </trkpt>
      <trkpt lat="49.80973" lon="4.86924">
        <ele>304</ele>
        <time>2021-07-31T09:04:34.000Z</time>
      </trkpt>
      <trkpt lat="49.80972" lon="4.86916">
        <ele>304</ele>
        <time>2021-07-31T09:04:35.000Z</time>
      </trkpt>
      <trkpt lat="49.80971" lon="4.86908">
        <ele>303</ele>
        <time>2021-07-31T09:04:36.000Z</time>
      </trkpt>
      <trkpt lat="49.8097" lon="4.86901">
        <ele>303</ele>
        <time>2021-07-31T09:04:37.000Z</time>
      </trkpt>
      <trkpt lat="49.8097" lon="4.86894">
        <ele>303</ele>
        <time>2021-07-31T09:04:38.000Z</time>
      </trkpt>
      <trkpt lat="49.8097" lon="4.86886">
        <ele>302</ele>
        <time>2021-07-31T09:04:39.000Z</time>
      </trkpt>
      <trkpt lat="49.80969" lon="4.86879">
        <ele>302</ele>
        <time>2021-07-31T09:04:40.000Z</time>
      </trkpt>
      <trkpt lat="49.80969" lon="4.86872">
        <ele>302</ele>
        <time>2021-07-31T09:04:41.000Z</time>
      </trkpt>
      <trkpt lat="49.8097" lon="4.86866">
        <ele>301</ele>
        <time>2021-07-31T09:04:42.000Z</time>
      </trkpt>
      <trkpt lat="49.8097" lon="4.86859">
        <ele>301</ele>
        <time>2021-07-31T09:04:43.000Z</time>
      </trkpt>
      <trkpt lat="49.8097" lon="4.86853">
        <ele>300</ele>
        <time>2021-07-31T09:04:44.000Z</time>
      </trkpt>
      <trkpt lat="49.8097" lon="4.86845">
        <ele>300</ele>
        <time>2021-07-31T09:04:45.000Z</time>
      </trkpt>
      <trkpt lat="49.8097" lon="4.86838">
        <ele>299</ele>
        <time>2021-07-31T09:04:46.000Z</time>
      </trkpt>
      <trkpt lat="49.80971" lon="4.8683">
        <ele>299</ele>
        <time>2021-07-31T09:04:47.000Z</time>
      </trkpt>
      <trkpt lat="49.80971" lon="4.86823">
        <ele>299</ele>
        <time>2021-07-31T09:04:48.000Z</time>
      </trkpt>
      <trkpt lat="49.80972" lon="4.86816">
        <ele>298</ele>
        <time>2021-07-31T09:04:49.000Z</time>
      </trkpt>
      <trkpt lat="49.80972" lon="4.86809">
        <ele>298</ele>
        <time>2021-07-31T09:04:50.000Z</time>
      </trkpt>
      <trkpt lat="49.80973" lon="4.86801">
        <ele>298</ele>
        <time>2021-07-31T09:04:51.000Z</time>
      </trkpt>
      <trkpt lat="49.80973" lon="4.86794">
        <ele>297</ele>
        <time>2021-07-31T09:04:52.000Z</time>
      </trkpt>
      <trkpt lat="49.80973" lon="4.86786">
        <ele>297</ele>
        <time>2021-07-31T09:04:53.000Z</time>
      </trkpt>
      <trkpt lat="49.80973" lon="4.86779">
        <ele>297</ele>
        <time>2021-07-31T09:04:54.000Z</time>
      </trkpt>
      <trkpt lat="49.80972" lon="4.86771">
        <ele>297</ele>
        <time>2021-07-31T09:04:55.000Z</time>
      </trkpt>
      <trkpt lat="49.80971" lon="4.86763">
        <ele>296</ele>
        <time>2021-07-31T09:04:56.000Z</time>
      </trkpt>
      <trkpt lat="49.8097" lon="4.86756">
        <ele>296</ele>
        <time>2021-07-31T09:04:57.000Z</time>
      </trkpt>
      <trkpt lat="49.8097" lon="4.86748">
        <ele>296</ele>
        <time>2021-07-31T09:04:58.000Z</time>
      </trkpt>
      <trkpt lat="49.80969" lon="4.86741">
        <ele>296</ele>
        <time>2021-07-31T09:04:59.000Z</time>
      </trkpt>
      <trkpt lat="49.80968" lon="4.86734">
        <ele>296</ele>
        <time>2021-07-31T09:05:00.000Z</time>
      </trkpt>
      <trkpt lat="49.80967" lon="4.86727">
        <ele>295</ele>
        <time>2021-07-31T09:05:01.000Z</time>
      </trkpt>
      <trkpt lat="49.80966" lon="4.86719">
        <ele>295</ele>
        <time>2021-07-31T09:05:02.000Z</time>
      </trkpt>
      <trkpt lat="49.80965" lon="4.86712">
        <ele>295</ele>
        <time>2021-07-31T09:05:03.000Z</time>
      </trkpt>
      <trkpt lat="49.80964" lon="4.86705">
        <ele>295</ele>
        <time>2021-07-31T09:05:04.000Z</time>
      </trkpt>
      <trkpt lat="49.80962" lon="4.86697">
        <ele>295</ele>
        <time>2021-07-31T09:05:05.000Z</time>
      </trkpt>
      <trkpt lat="49.80961" lon="4.86688">
        <ele>295</ele>
        <time>2021-07-31T09:05:06.000Z</time>
      </trkpt>
      <trkpt lat="49.80959" lon="4.86679">
        <ele>295</ele>
        <time>2021-07-31T09:05:07.000Z</time>
      </trkpt>
      <trkpt lat="49.80957" lon="4.8667">
        <ele>294</ele>
        <time>2021-07-31T09:05:08.000Z</time>
      </trkpt>
      <trkpt lat="49.80954" lon="4.86662">
        <ele>294</ele>
        <time>2021-07-31T09:05:09.000Z</time>
      </trkpt>
      <trkpt lat="49.80951" lon="4.86654">
        <ele>294</ele>
        <time>2021-07-31T09:05:10.000Z</time>
      </trkpt>
      <trkpt lat="49.80948" lon="4.86648">
        <ele>294</ele>
        <time>2021-07-31T09:05:11.000Z</time>
      </trkpt>
      <trkpt lat="49.80945" lon="4.86642">
        <ele>294</ele>
        <time>2021-07-31T09:05:12.000Z</time>
      </trkpt>
      <trkpt lat="49.80942" lon="4.86637">
        <ele>294</ele>
        <time>2021-07-31T09:05:13.000Z</time>
      </trkpt>
      <trkpt lat="49.8094" lon="4.86631">
        <ele>294</ele>
        <time>2021-07-31T09:05:14.000Z</time>
      </trkpt>
      <trkpt lat="49.80937" lon="4.86627">
        <ele>294</ele>
        <time>2021-07-31T09:05:15.000Z</time>
      </trkpt>
      <trkpt lat="49.80935" lon="4.86622">
        <ele>294</ele>
        <time>2021-07-31T09:05:16.000Z</time>
      </trkpt>
      <trkpt lat="49.80932" lon="4.86617">
        <ele>294</ele>
        <time>2021-07-31T09:05:17.000Z</time>
      </trkpt>
      <trkpt lat="49.80929" lon="4.86612">
        <ele>294</ele>
        <time>2021-07-31T09:05:18.000Z</time>
      </trkpt>
      <trkpt lat="49.80926" lon="4.86607">
        <ele>294</ele>
        <time>2021-07-31T09:05:19.000Z</time>
      </trkpt>
      <trkpt lat="49.80925" lon="4.86603">
        <ele>294</ele>
        <time>2021-07-31T09:05:20.000Z</time>
      </trkpt>
      <trkpt lat="49.80923" lon="4.866">
        <ele>294</ele>
        <time>2021-07-31T09:05:21.000Z</time>
      </trkpt>
      <trkpt lat="49.8092" lon="4.86597">
        <ele>295</ele>
        <time>2021-07-31T09:05:22.000Z</time>
      </trkpt>
      <trkpt lat="49.80918" lon="4.86594">
        <ele>295</ele>
        <time>2021-07-31T09:05:23.000Z</time>
      </trkpt>
      <trkpt lat="49.80916" lon="4.86591">
        <ele>295</ele>
        <time>2021-07-31T09:05:24.000Z</time>
      </trkpt>
      <trkpt lat="49.80914" lon="4.86588">
        <ele>295</ele>
        <time>2021-07-31T09:05:25.000Z</time>
      </trkpt>
      <trkpt lat="49.80913" lon="4.86587">
        <ele>295</ele>
        <time>2021-07-31T09:05:26.000Z</time>
      </trkpt>
      <trkpt lat="49.80912" lon="4.86585">
        <ele>295</ele>
        <time>2021-07-31T09:05:27.000Z</time>
      </trkpt>
      <trkpt lat="49.8091" lon="4.86582">
        <ele>295</ele>
        <time>2021-07-31T09:05:28.000Z</time>
      </trkpt>
      <trkpt lat="49.80909" lon="4.8658">
        <ele>295</ele>
        <time>2021-07-31T09:05:29.000Z</time>
      </trkpt>
      <trkpt lat="49.80907" lon="4.86577">
        <ele>295</ele>
        <time>2021-07-31T09:05:30.000Z</time>
      </trkpt>
      <trkpt lat="49.80905" lon="4.86575">
        <ele>295</ele>
        <time>2021-07-31T09:05:31.000Z</time>
      </trkpt>
      <trkpt lat="49.80904" lon="4.86573">
        <ele>295</ele>
        <time>2021-07-31T09:05:32.000Z</time>
      </trkpt>
      <trkpt lat="49.80902" lon="4.86571">
        <ele>295</ele>
        <time>2021-07-31T09:05:33.000Z</time>
      </trkpt>
      <trkpt lat="49.809" lon="4.86568">
        <ele>295</ele>
        <time>2021-07-31T09:05:34.000Z</time>
      </trkpt>
      <trkpt lat="49.80899" lon="4.86566">
        <ele>296</ele>
        <time>2021-07-31T09:05:35.000Z</time>
      </trkpt>
      <trkpt lat="49.80897" lon="4.86564">
        <ele>296</ele>
        <time>2021-07-31T09:05:36.000Z</time>
      </trkpt>
      <trkpt lat="49.80896" lon="4.86562">
        <ele>296</ele>
        <time>2021-07-31T09:05:37.000Z</time>
      </trkpt>
      <trkpt lat="49.80895" lon="4.8656">
        <ele>296</ele>
        <time>2021-07-31T09:05:38.000Z</time>
      </trkpt>
      <trkpt lat="49.80893" lon="4.86558">
        <ele>296</ele>
        <time>2021-07-31T09:05:39.000Z</time>
      </trkpt>
      <trkpt lat="49.80892" lon="4.86556">
        <ele>297</ele>
        <time>2021-07-31T09:05:40.000Z</time>
      </trkpt>
      <trkpt lat="49.8089" lon="4.86555">
        <ele>297</ele>
        <time>2021-07-31T09:05:41.000Z</time>
      </trkpt>
      <trkpt lat="49.80889" lon="4.86553">
        <ele>297</ele>
        <time>2021-07-31T09:05:42.000Z</time>
      </trkpt>
      <trkpt lat="49.80887" lon="4.86552">
        <ele>297</ele>
        <time>2021-07-31T09:05:43.000Z</time>
      </trkpt>
      <trkpt lat="49.80886" lon="4.8655">
        <ele>297</ele>
        <time>2021-07-31T09:05:44.000Z</time>
      </trkpt>
      <trkpt lat="49.80885" lon="4.86548">
        <ele>298</ele>
        <time>2021-07-31T09:05:45.000Z</time>
      </trkpt>
      <trkpt lat="49.80883" lon="4.86546">
        <ele>298</ele>
        <time>2021-07-31T09:05:46.000Z</time>
      </trkpt>
      <trkpt lat="49.80881" lon="4.86543">
        <ele>298</ele>
        <time>2021-07-31T09:05:47.000Z</time>
      </trkpt>
      <trkpt lat="49.8088" lon="4.86541">
        <ele>299</ele>
        <time>2021-07-31T09:05:48.000Z</time>
      </trkpt>
      <trkpt lat="49.80879" lon="4.86539">
        <ele>299</ele>
        <time>2021-07-31T09:05:49.000Z</time>
      </trkpt>
      <trkpt lat="49.80877" lon="4.86536">
        <ele>299</ele>
        <time>2021-07-31T09:05:50.000Z</time>
      </trkpt>
      <trkpt lat="49.80876" lon="4.86534">
        <ele>299</ele>
        <time>2021-07-31T09:05:51.000Z</time>
      </trkpt>
      <trkpt lat="49.80874" lon="4.86532">
        <ele>300</ele>
        <time>2021-07-31T09:05:52.000Z</time>
      </trkpt>
      <trkpt lat="49.80872" lon="4.8653">
        <ele>300</ele>
        <time>2021-07-31T09:05:53.000Z</time>
      </trkpt>
      <trkpt lat="49.80871" lon="4.86528">
        <ele>300</ele>
        <time>2021-07-31T09:05:54.000Z</time>
      </trkpt>
      <trkpt lat="49.80869" lon="4.86526">
        <ele>300</ele>
        <time>2021-07-31T09:05:55.000Z</time>
      </trkpt>
      <trkpt lat="49.80868" lon="4.86524">
        <ele>301</ele>
        <time>2021-07-31T09:05:56.000Z</time>
      </trkpt>
      <trkpt lat="49.80867" lon="4.86521">
        <ele>301</ele>
        <time>2021-07-31T09:05:57.000Z</time>
      </trkpt>
      <trkpt lat="49.80866" lon="4.86518">
        <ele>301</ele>
        <time>2021-07-31T09:05:58.000Z</time>
      </trkpt>
      <trkpt lat="49.80865" lon="4.86515">
        <ele>301</ele>
        <time>2021-07-31T09:05:59.000Z</time>
      </trkpt>
      <trkpt lat="49.80865" lon="4.86512">
        <ele>301</ele>
        <time>2021-07-31T09:06:00.000Z</time>
      </trkpt>
      <trkpt lat="49.80865" lon="4.86509">
        <ele>301</ele>
        <time>2021-07-31T09:06:01.000Z</time>
      </trkpt>
      <trkpt lat="49.80864" lon="4.86507">
        <ele>301</ele>
        <time>2021-07-31T09:06:02.000Z</time>
      </trkpt>
      <trkpt lat="49.80863" lon="4.86505">
        <ele>301</ele>
        <time>2021-07-31T09:06:03.000Z</time>
      </trkpt>
      <trkpt lat="49.80862" lon="4.86504">
        <ele>301</ele>
        <time>2021-07-31T09:06:04.000Z</time>
      </trkpt>
      <trkpt lat="49.80861" lon="4.86502">
        <ele>302</ele>
        <time>2021-07-31T09:06:05.000Z</time>
      </trkpt>
      <trkpt lat="49.80859" lon="4.86501">
        <ele>302</ele>
        <time>2021-07-31T09:06:06.000Z</time>
      </trkpt>
      <trkpt lat="49.80858" lon="4.865">
        <ele>302</ele>
        <time>2021-07-31T09:06:07.000Z</time>
      </trkpt>
      <trkpt lat="49.80856" lon="4.86498">
        <ele>302</ele>
        <time>2021-07-31T09:06:08.000Z</time>
      </trkpt>
      <trkpt lat="49.80855" lon="4.86497">
        <ele>302</ele>
        <time>2021-07-31T09:06:09.000Z</time>
      </trkpt>
      <trkpt lat="49.80855" lon="4.86497">
        <ele>302</ele>
        <time>2021-07-31T09:06:10.000Z</time>
      </trkpt>
      <trkpt lat="49.80855" lon="4.86496">
        <ele>302</ele>
        <time>2021-07-31T09:06:11.000Z</time>
      </trkpt>
      <trkpt lat="49.80855" lon="4.86496">
        <ele>302</ele>
        <time>2021-07-31T09:06:12.000Z</time>
      </trkpt>
      <trkpt lat="49.80854" lon="4.86495">
        <ele>302</ele>
        <time>2021-07-31T09:06:13.000Z</time>
      </trkpt>
      <trkpt lat="49.80854" lon="4.86495">
        <ele>302</ele>
        <time>2021-07-31T09:06:14.000Z</time>
      </trkpt>
      <trkpt lat="49.80854" lon="4.86494">
        <ele>302</ele>
        <time>2021-07-31T09:06:15.000Z</time>
      </trkpt>
      <trkpt lat="49.80853" lon="4.86493">
        <ele>302</ele>
        <time>2021-07-31T09:06:16.000Z</time>
      </trkpt>
      <trkpt lat="49.80852" lon="4.86491">
        <ele>302</ele>
        <time>2021-07-31T09:06:17.000Z</time>
      </trkpt>
      <trkpt lat="49.80851" lon="4.8649">
        <ele>302</ele>
        <time>2021-07-31T09:06:18.000Z</time>
      </trkpt>
      <trkpt lat="49.8085" lon="4.86488">
        <ele>302</ele>
        <time>2021-07-31T09:06:19.000Z</time>
      </trkpt>
      <trkpt lat="49.80849" lon="4.86487">
        <ele>303</ele>
        <time>2021-07-31T09:06:20.000Z</time>
      </trkpt>
      <trkpt lat="49.80849" lon="4.86485">
        <ele>303</ele>
        <time>2021-07-31T09:06:21.000Z</time>
      </trkpt>
      <trkpt lat="49.80848" lon="4.86484">
        <ele>303</ele>
        <time>2021-07-31T09:06:22.000Z</time>
      </trkpt>
      <trkpt lat="49.80847" lon="4.86483">
        <ele>303</ele>
        <time>2021-07-31T09:06:23.000Z</time>
      </trkpt>
      <trkpt lat="49.80847" lon="4.86481">
        <ele>304</ele>
        <time>2021-07-31T09:06:24.000Z</time>
      </trkpt>
      <trkpt lat="49.80846" lon="4.86479">
        <ele>304</ele>
        <time>2021-07-31T09:06:25.000Z</time>
      </trkpt>
      <trkpt lat="49.80845" lon="4.86477">
        <ele>305</ele>
        <time>2021-07-31T09:06:26.000Z</time>
      </trkpt>
      <trkpt lat="49.80845" lon="4.86476">
        <ele>305</ele>
        <time>2021-07-31T09:06:27.000Z</time>
      </trkpt>
      <trkpt lat="49.80845" lon="4.86475">
        <ele>305</ele>
        <time>2021-07-31T09:06:28.000Z</time>
      </trkpt>
      <trkpt lat="49.80844" lon="4.86474">
        <ele>306</ele>
        <time>2021-07-31T09:06:29.000Z</time>
      </trkpt>
      <trkpt lat="49.80844" lon="4.86473">
        <ele>306</ele>
        <time>2021-07-31T09:06:30.000Z</time>
      </trkpt>
      <trkpt lat="49.80843" lon="4.86473">
        <ele>307</ele>
        <time>2021-07-31T09:06:31.000Z</time>
      </trkpt>
      <trkpt lat="49.80842" lon="4.86472">
        <ele>307</ele>
        <time>2021-07-31T09:06:32.000Z</time>
      </trkpt>
      <trkpt lat="49.80842" lon="4.86472">
        <ele>308</ele>
        <time>2021-07-31T09:06:33.000Z</time>
      </trkpt>
      <trkpt lat="49.80841" lon="4.86472">
        <ele>308</ele>
        <time>2021-07-31T09:06:34.000Z</time>
      </trkpt>
      <trkpt lat="49.80839" lon="4.86472">
        <ele>308</ele>
        <time>2021-07-31T09:06:35.000Z</time>
      </trkpt>
      <trkpt lat="49.80838" lon="4.86472">
        <ele>309</ele>
        <time>2021-07-31T09:06:36.000Z</time>
      </trkpt>
      <trkpt lat="49.80836" lon="4.86472">
        <ele>309</ele>
        <time>2021-07-31T09:06:37.000Z</time>
      </trkpt>
      <trkpt lat="49.80834" lon="4.86472">
        <ele>309</ele>
        <time>2021-07-31T09:06:38.000Z</time>
      </trkpt>
      <trkpt lat="49.80833" lon="4.86472">
        <ele>309</ele>
        <time>2021-07-31T09:06:39.000Z</time>
      </trkpt>
      <trkpt lat="49.80831" lon="4.86472">
        <ele>310</ele>
        <time>2021-07-31T09:06:40.000Z</time>
      </trkpt>
      <trkpt lat="49.8083" lon="4.86471">
        <ele>310</ele>
        <time>2021-07-31T09:06:41.000Z</time>
      </trkpt>
      <trkpt lat="49.80829" lon="4.86471">
        <ele>310</ele>
        <time>2021-07-31T09:06:42.000Z</time>
      </trkpt>
      <trkpt lat="49.80827" lon="4.8647">
        <ele>310</ele>
        <time>2021-07-31T09:06:43.000Z</time>
      </trkpt>
      <trkpt lat="49.80826" lon="4.8647">
        <ele>311</ele>
        <time>2021-07-31T09:06:44.000Z</time>
      </trkpt>
      <trkpt lat="49.80825" lon="4.8647">
        <ele>311</ele>
        <time>2021-07-31T09:06:45.000Z</time>
      </trkpt>
      <trkpt lat="49.80824" lon="4.8647">
        <ele>311</ele>
        <time>2021-07-31T09:06:46.000Z</time>
      </trkpt>
      <trkpt lat="49.80822" lon="4.86469">
        <ele>311</ele>
        <time>2021-07-31T09:06:47.000Z</time>
      </trkpt>
      <trkpt lat="49.80821" lon="4.86469">
        <ele>311</ele>
        <time>2021-07-31T09:06:48.000Z</time>
      </trkpt>
      <trkpt lat="49.8082" lon="4.86469">
        <ele>312</ele>
        <time>2021-07-31T09:06:49.000Z</time>
      </trkpt>
      <trkpt lat="49.80819" lon="4.86469">
        <ele>312</ele>
        <time>2021-07-31T09:06:50.000Z</time>
      </trkpt>
      <trkpt lat="49.80819" lon="4.86469">
        <ele>312</ele>
        <time>2021-07-31T09:06:51.000Z</time>
      </trkpt>
      <trkpt lat="49.80818" lon="4.86469">
        <ele>312</ele>
        <time>2021-07-31T09:06:52.000Z</time>
      </trkpt>
      <trkpt lat="49.80818" lon="4.86469">
        <ele>312</ele>
        <time>2021-07-31T09:06:53.000Z</time>
      </trkpt>
      <trkpt lat="49.80817" lon="4.86469">
        <ele>313</ele>
        <time>2021-07-31T09:06:54.000Z</time>
      </trkpt>
      <trkpt lat="49.80816" lon="4.86469">
        <ele>313</ele>
        <time>2021-07-31T09:06:55.000Z</time>
      </trkpt>
      <trkpt lat="49.80816" lon="4.86469">
        <ele>313</ele>
        <time>2021-07-31T09:06:56.000Z</time>
      </trkpt>
      <trkpt lat="49.80815" lon="4.86469">
        <ele>313</ele>
        <time>2021-07-31T09:06:57.000Z</time>
      </trkpt>
      <trkpt lat="49.80814" lon="4.86468">
        <ele>313</ele>
        <time>2021-07-31T09:06:58.000Z</time>
      </trkpt>
      <trkpt lat="49.80813" lon="4.86468">
        <ele>313</ele>
        <time>2021-07-31T09:06:59.000Z</time>
      </trkpt>
      <trkpt lat="49.80813" lon="4.86468">
        <ele>313</ele>
        <time>2021-07-31T09:07:00.000Z</time>
      </trkpt>
      <trkpt lat="49.80812" lon="4.86468">
        <ele>313</ele>
        <time>2021-07-31T09:07:01.000Z</time>
      </trkpt>
      <trkpt lat="49.80811" lon="4.86467">
        <ele>314</ele>
        <time>2021-07-31T09:07:02.000Z</time>
      </trkpt>
      <trkpt lat="49.80809" lon="4.86467">
        <ele>314</ele>
        <time>2021-07-31T09:07:03.000Z</time>
      </trkpt>
      <trkpt lat="49.80808" lon="4.86466">
        <ele>314</ele>
        <time>2021-07-31T09:07:04.000Z</time>
      </trkpt>
      <trkpt lat="49.80807" lon="4.86466">
        <ele>314</ele>
        <time>2021-07-31T09:07:05.000Z</time>
      </trkpt>
      <trkpt lat="49.80806" lon="4.86465">
        <ele>314</ele>
        <time>2021-07-31T09:07:06.000Z</time>
      </trkpt>
      <trkpt lat="49.80805" lon="4.86465">
        <ele>315</ele>
        <time>2021-07-31T09:07:07.000Z</time>
      </trkpt>
      <trkpt lat="49.80804" lon="4.86464">
        <ele>315</ele>
        <time>2021-07-31T09:07:08.000Z</time>
      </trkpt>
      <trkpt lat="49.80802" lon="4.86464">
        <ele>315</ele>
        <time>2021-07-31T09:07:09.000Z</time>
      </trkpt>
      <trkpt lat="49.80801" lon="4.86463">
        <ele>315</ele>
        <time>2021-07-31T09:07:10.000Z</time>
      </trkpt>
      <trkpt lat="49.80801" lon="4.86463">
        <ele>315</ele>
        <time>2021-07-31T09:07:11.000Z</time>
      </trkpt>
      <trkpt lat="49.808" lon="4.86463">
        <ele>315</ele>
        <time>2021-07-31T09:07:12.000Z</time>
      </trkpt>
      <trkpt lat="49.80799" lon="4.86463">
        <ele>316</ele>
        <time>2021-07-31T09:07:13.000Z</time>
      </trkpt>
      <trkpt lat="49.80797" lon="4.86463">
        <ele>316</ele>
        <time>2021-07-31T09:07:14.000Z</time>
      </trkpt>
      <trkpt lat="49.80796" lon="4.86463">
        <ele>316</ele>
        <time>2021-07-31T09:07:15.000Z</time>
      </trkpt>
      <trkpt lat="49.80795" lon="4.86463">
        <ele>316</ele>
        <time>2021-07-31T09:07:16.000Z</time>
      </trkpt>
      <trkpt lat="49.80793" lon="4.86463">
        <ele>317</ele>
        <time>2021-07-31T09:07:17.000Z</time>
      </trkpt>
      <trkpt lat="49.80792" lon="4.86463">
        <ele>317</ele>
        <time>2021-07-31T09:07:18.000Z</time>
      </trkpt>
      <trkpt lat="49.80791" lon="4.86462">
        <ele>317</ele>
        <time>2021-07-31T09:07:19.000Z</time>
      </trkpt>
      <trkpt lat="49.80789" lon="4.86462">
        <ele>317</ele>
        <time>2021-07-31T09:07:20.000Z</time>
      </trkpt>
      <trkpt lat="49.80788" lon="4.86462">
        <ele>317</ele>
        <time>2021-07-31T09:07:21.000Z</time>
      </trkpt>
      <trkpt lat="49.80787" lon="4.86462">
        <ele>318</ele>
        <time>2021-07-31T09:07:22.000Z</time>
      </trkpt>
      <trkpt lat="49.80785" lon="4.86461">
        <ele>318</ele>
        <time>2021-07-31T09:07:23.000Z</time>
      </trkpt>
      <trkpt lat="49.80784" lon="4.86461">
        <ele>318</ele>
        <time>2021-07-31T09:07:24.000Z</time>
      </trkpt>
      <trkpt lat="49.80783" lon="4.8646">
        <ele>318</ele>
        <time>2021-07-31T09:07:25.000Z</time>
      </trkpt>
      <trkpt lat="49.80781" lon="4.8646">
        <ele>319</ele>
        <time>2021-07-31T09:07:26.000Z</time>
      </trkpt>
      <trkpt lat="49.8078" lon="4.86459">
        <ele>319</ele>
        <time>2021-07-31T09:07:27.000Z</time>
      </trkpt>
      <trkpt lat="49.80779" lon="4.86459">
        <ele>319</ele>
        <time>2021-07-31T09:07:28.000Z</time>
      </trkpt>
      <trkpt lat="49.80778" lon="4.86458">
        <ele>319</ele>
        <time>2021-07-31T09:07:29.000Z</time>
      </trkpt>
      <trkpt lat="49.80776" lon="4.86458">
        <ele>320</ele>
        <time>2021-07-31T09:07:30.000Z</time>
      </trkpt>
      <trkpt lat="49.80775" lon="4.86457">
        <ele>320</ele>
        <time>2021-07-31T09:07:31.000Z</time>
      </trkpt>
      <trkpt lat="49.80774" lon="4.86457">
        <ele>320</ele>
        <time>2021-07-31T09:07:32.000Z</time>
      </trkpt>
      <trkpt lat="49.80772" lon="4.86457">
        <ele>320</ele>
        <time>2021-07-31T09:07:33.000Z</time>
      </trkpt>
      <trkpt lat="49.80771" lon="4.86456">
        <ele>320</ele>
        <time>2021-07-31T09:07:34.000Z</time>
      </trkpt>
      <trkpt lat="49.80769" lon="4.86455">
        <ele>321</ele>
        <time>2021-07-31T09:07:35.000Z</time>
      </trkpt>
      <trkpt lat="49.80768" lon="4.86455">
        <ele>321</ele>
        <time>2021-07-31T09:07:36.000Z</time>
      </trkpt>
      <trkpt lat="49.80767" lon="4.86454">
        <ele>321</ele>
        <time>2021-07-31T09:07:37.000Z</time>
      </trkpt>
      <trkpt lat="49.80765" lon="4.86454">
        <ele>321</ele>
        <time>2021-07-31T09:07:38.000Z</time>
      </trkpt>
      <trkpt lat="49.80764" lon="4.86453">
        <ele>322</ele>
        <time>2021-07-31T09:07:39.000Z</time>
      </trkpt>
      <trkpt lat="49.80763" lon="4.86453">
        <ele>322</ele>
        <time>2021-07-31T09:07:40.000Z</time>
      </trkpt>
      <trkpt lat="49.80761" lon="4.86452">
        <ele>322</ele>
        <time>2021-07-31T09:07:41.000Z</time>
      </trkpt>
      <trkpt lat="49.8076" lon="4.86452">
        <ele>323</ele>
        <time>2021-07-31T09:07:42.000Z</time>
      </trkpt>
      <trkpt lat="49.80758" lon="4.86452">
        <ele>323</ele>
        <time>2021-07-31T09:07:43.000Z</time>
      </trkpt>
      <trkpt lat="49.80757" lon="4.86452">
        <ele>323</ele>
        <time>2021-07-31T09:07:44.000Z</time>
      </trkpt>
      <trkpt lat="49.80756" lon="4.86451">
        <ele>324</ele>
        <time>2021-07-31T09:07:45.000Z</time>
      </trkpt>
      <trkpt lat="49.80754" lon="4.86451">
        <ele>324</ele>
        <time>2021-07-31T09:07:46.000Z</time>
      </trkpt>
      <trkpt lat="49.80753" lon="4.86452">
        <ele>324</ele>
        <time>2021-07-31T09:07:47.000Z</time>
      </trkpt>
      <trkpt lat="49.80752" lon="4.86452">
        <ele>324</ele>
        <time>2021-07-31T09:07:48.000Z</time>
      </trkpt>
      <trkpt lat="49.80752" lon="4.86452">
        <ele>325</ele>
        <time>2021-07-31T09:07:49.000Z</time>
      </trkpt>
      <trkpt lat="49.80751" lon="4.86451">
        <ele>325</ele>
        <time>2021-07-31T09:07:50.000Z</time>
      </trkpt>
      <trkpt lat="49.8075" lon="4.86452">
        <ele>325</ele>
        <time>2021-07-31T09:07:51.000Z</time>
      </trkpt>
      <trkpt lat="49.80749" lon="4.86451">
        <ele>326</ele>
        <time>2021-07-31T09:07:52.000Z</time>
      </trkpt>
      <trkpt lat="49.80748" lon="4.86451">
        <ele>326</ele>
        <time>2021-07-31T09:07:53.000Z</time>
      </trkpt>
      <trkpt lat="49.80746" lon="4.8645">
        <ele>326</ele>
        <time>2021-07-31T09:07:54.000Z</time>
      </trkpt>
      <trkpt lat="49.80745" lon="4.8645">
        <ele>326</ele>
        <time>2021-07-31T09:07:55.000Z</time>
      </trkpt>
      <trkpt lat="49.80743" lon="4.8645">
        <ele>327</ele>
        <time>2021-07-31T09:07:56.000Z</time>
      </trkpt>
      <trkpt lat="49.80742" lon="4.8645">
        <ele>327</ele>
        <time>2021-07-31T09:07:57.000Z</time>
      </trkpt>
      <trkpt lat="49.8074" lon="4.8645">
        <ele>327</ele>
        <time>2021-07-31T09:07:58.000Z</time>
      </trkpt>
      <trkpt lat="49.80738" lon="4.8645">
        <ele>327</ele>
        <time>2021-07-31T09:07:59.000Z</time>
      </trkpt>
      <trkpt lat="49.80736" lon="4.86449">
        <ele>327</ele>
        <time>2021-07-31T09:08:00.000Z</time>
      </trkpt>
      <trkpt lat="49.80735" lon="4.86447">
        <ele>328</ele>
        <time>2021-07-31T09:08:01.000Z</time>
      </trkpt>
      <trkpt lat="49.80734" lon="4.86445">
        <ele>328</ele>
        <time>2021-07-31T09:08:02.000Z</time>
      </trkpt>
      <trkpt lat="49.80734" lon="4.86443">
        <ele>328</ele>
        <time>2021-07-31T09:08:03.000Z</time>
      </trkpt>
      <trkpt lat="49.80733" lon="4.86441">
        <ele>328</ele>
        <time>2021-07-31T09:08:04.000Z</time>
      </trkpt>
      <trkpt lat="49.80732" lon="4.86438">
        <ele>329</ele>
        <time>2021-07-31T09:08:05.000Z</time>
      </trkpt>
      <trkpt lat="49.80732" lon="4.86435">
        <ele>329</ele>
        <time>2021-07-31T09:08:06.000Z</time>
      </trkpt>
      <trkpt lat="49.80731" lon="4.86433">
        <ele>330</ele>
        <time>2021-07-31T09:08:07.000Z</time>
      </trkpt>
      <trkpt lat="49.8073" lon="4.8643">
        <ele>330</ele>
        <time>2021-07-31T09:08:08.000Z</time>
      </trkpt>
      <trkpt lat="49.8073" lon="4.86427">
        <ele>330</ele>
        <time>2021-07-31T09:08:09.000Z</time>
      </trkpt>
      <trkpt lat="49.8073" lon="4.86425">
        <ele>330</ele>
        <time>2021-07-31T09:08:10.000Z</time>
      </trkpt>
      <trkpt lat="49.80729" lon="4.86422">
        <ele>330</ele>
        <time>2021-07-31T09:08:11.000Z</time>
      </trkpt>
      <trkpt lat="49.80729" lon="4.86421">
        <ele>331</ele>
        <time>2021-07-31T09:08:12.000Z</time>
      </trkpt>
      <trkpt lat="49.80729" lon="4.86418">
        <ele>331</ele>
        <time>2021-07-31T09:08:13.000Z</time>
      </trkpt>
      <trkpt lat="49.80729" lon="4.86416">
        <ele>331</ele>
        <time>2021-07-31T09:08:14.000Z</time>
      </trkpt>
      <trkpt lat="49.80729" lon="4.86413">
        <ele>331</ele>
        <time>2021-07-31T09:08:15.000Z</time>
      </trkpt>
      <trkpt lat="49.80728" lon="4.8641">
        <ele>332</ele>
        <time>2021-07-31T09:08:16.000Z</time>
      </trkpt>
      <trkpt lat="49.80728" lon="4.86407">
        <ele>332</ele>
        <time>2021-07-31T09:08:17.000Z</time>
      </trkpt>
      <trkpt lat="49.80728" lon="4.86404">
        <ele>332</ele>
        <time>2021-07-31T09:08:18.000Z</time>
      </trkpt>
      <trkpt lat="49.80728" lon="4.86401">
        <ele>332</ele>
        <time>2021-07-31T09:08:19.000Z</time>
      </trkpt>
      <trkpt lat="49.80728" lon="4.86398">
        <ele>333</ele>
        <time>2021-07-31T09:08:20.000Z</time>
      </trkpt>
      <trkpt lat="49.80728" lon="4.86395">
        <ele>333</ele>
        <time>2021-07-31T09:08:21.000Z</time>
      </trkpt>
      <trkpt lat="49.80728" lon="4.86392">
        <ele>333</ele>
        <time>2021-07-31T09:08:22.000Z</time>
      </trkpt>
      <trkpt lat="49.80728" lon="4.86389">
        <ele>333</ele>
        <time>2021-07-31T09:08:23.000Z</time>
      </trkpt>
      <trkpt lat="49.80728" lon="4.86385">
        <ele>334</ele>
        <time>2021-07-31T09:08:24.000Z</time>
      </trkpt>
      <trkpt lat="49.80728" lon="4.86382">
        <ele>334</ele>
        <time>2021-07-31T09:08:25.000Z</time>
      </trkpt>
      <trkpt lat="49.80728" lon="4.86379">
        <ele>334</ele>
        <time>2021-07-31T09:08:26.000Z</time>
      </trkpt>
      <trkpt lat="49.80729" lon="4.86376">
        <ele>334</ele>
        <time>2021-07-31T09:08:27.000Z</time>
      </trkpt>
      <trkpt lat="49.80729" lon="4.86373">
        <ele>335</ele>
        <time>2021-07-31T09:08:28.000Z</time>
      </trkpt>
      <trkpt lat="49.80729" lon="4.86369">
        <ele>335</ele>
        <time>2021-07-31T09:08:29.000Z</time>
      </trkpt>
      <trkpt lat="49.80729" lon="4.86366">
        <ele>335</ele>
        <time>2021-07-31T09:08:30.000Z</time>
      </trkpt>
      <trkpt lat="49.80729" lon="4.86363">
        <ele>335</ele>
        <time>2021-07-31T09:08:31.000Z</time>
      </trkpt>
      <trkpt lat="49.80729" lon="4.8636">
        <ele>336</ele>
        <time>2021-07-31T09:08:32.000Z</time>
      </trkpt>
      <trkpt lat="49.8073" lon="4.86357">
        <ele>336</ele>
        <time>2021-07-31T09:08:33.000Z</time>
      </trkpt>
      <trkpt lat="49.8073" lon="4.86354">
        <ele>336</ele>
        <time>2021-07-31T09:08:34.000Z</time>
      </trkpt>
      <trkpt lat="49.8073" lon="4.8635">
        <ele>336</ele>
        <time>2021-07-31T09:08:35.000Z</time>
      </trkpt>
      <trkpt lat="49.8073" lon="4.86347">
        <ele>337</ele>
        <time>2021-07-31T09:08:36.000Z</time>
      </trkpt>
      <trkpt lat="49.8073" lon="4.86344">
        <ele>337</ele>
        <time>2021-07-31T09:08:37.000Z</time>
      </trkpt>
      <trkpt lat="49.8073" lon="4.86341">
        <ele>337</ele>
        <time>2021-07-31T09:08:38.000Z</time>
      </trkpt>
      <trkpt lat="49.8073" lon="4.86337">
        <ele>337</ele>
        <time>2021-07-31T09:08:39.000Z</time>
      </trkpt>
      <trkpt lat="49.8073" lon="4.86334">
        <ele>338</ele>
        <time>2021-07-31T09:08:40.000Z</time>
      </trkpt>
      <trkpt lat="49.8073" lon="4.8633">
        <ele>338</ele>
        <time>2021-07-31T09:08:41.000Z</time>
      </trkpt>
      <trkpt lat="49.8073" lon="4.86327">
        <ele>338</ele>
        <time>2021-07-31T09:08:42.000Z</time>
      </trkpt>
      <trkpt lat="49.80729" lon="4.86323">
        <ele>338</ele>
        <time>2021-07-31T09:08:43.000Z</time>
      </trkpt>
      <trkpt lat="49.80729" lon="4.8632">
        <ele>338</ele>
        <time>2021-07-31T09:08:44.000Z</time>
      </trkpt>
      <trkpt lat="49.80729" lon="4.86317">
        <ele>338</ele>
        <time>2021-07-31T09:08:45.000Z</time>
      </trkpt>
      <trkpt lat="49.80729" lon="4.86313">
        <ele>339</ele>
        <time>2021-07-31T09:08:46.000Z</time>
      </trkpt>
      <trkpt lat="49.80729" lon="4.8631">
        <ele>339</ele>
        <time>2021-07-31T09:08:47.000Z</time>
      </trkpt>
      <trkpt lat="49.8073" lon="4.86307">
        <ele>339</ele>
        <time>2021-07-31T09:08:48.000Z</time>
      </trkpt>
      <trkpt lat="49.8073" lon="4.86304">
        <ele>339</ele>
        <time>2021-07-31T09:08:49.000Z</time>
      </trkpt>
      <trkpt lat="49.80731" lon="4.863">
        <ele>339</ele>
        <time>2021-07-31T09:08:50.000Z</time>
      </trkpt>
      <trkpt lat="49.80731" lon="4.86297">
        <ele>340</ele>
        <time>2021-07-31T09:08:51.000Z</time>
      </trkpt>
      <trkpt lat="49.80732" lon="4.86295">
        <ele>340</ele>
        <time>2021-07-31T09:08:52.000Z</time>
      </trkpt>
      <trkpt lat="49.80733" lon="4.86291">
        <ele>340</ele>
        <time>2021-07-31T09:08:53.000Z</time>
      </trkpt>
      <trkpt lat="49.80733" lon="4.86289">
        <ele>340</ele>
        <time>2021-07-31T09:08:54.000Z</time>
      </trkpt>
      <trkpt lat="49.80734" lon="4.86285">
        <ele>340</ele>
        <time>2021-07-31T09:08:55.000Z</time>
      </trkpt>
      <trkpt lat="49.80735" lon="4.86282">
        <ele>340</ele>
        <time>2021-07-31T09:08:56.000Z</time>
      </trkpt>
      <trkpt lat="49.80736" lon="4.86278">
        <ele>341</ele>
        <time>2021-07-31T09:08:57.000Z</time>
      </trkpt>
      <trkpt lat="49.80736" lon="4.86275">
        <ele>341</ele>
        <time>2021-07-31T09:08:58.000Z</time>
      </trkpt>
      <trkpt lat="49.80737" lon="4.86271">
        <ele>341</ele>
        <time>2021-07-31T09:08:59.000Z</time>
      </trkpt>
      <trkpt lat="49.80738" lon="4.86267">
        <ele>341</ele>
        <time>2021-07-31T09:09:00.000Z</time>
      </trkpt>
      <trkpt lat="49.80739" lon="4.86264">
        <ele>341</ele>
        <time>2021-07-31T09:09:01.000Z</time>
      </trkpt>
      <trkpt lat="49.80739" lon="4.8626">
        <ele>342</ele>
        <time>2021-07-31T09:09:02.000Z</time>
      </trkpt>
      <trkpt lat="49.8074" lon="4.86257">
        <ele>342</ele>
        <time>2021-07-31T09:09:03.000Z</time>
      </trkpt>
      <trkpt lat="49.80741" lon="4.86253">
        <ele>342</ele>
        <time>2021-07-31T09:09:04.000Z</time>
      </trkpt>
      <trkpt lat="49.80742" lon="4.8625">
        <ele>342</ele>
        <time>2021-07-31T09:09:05.000Z</time>
      </trkpt>
      <trkpt lat="49.80744" lon="4.86247">
        <ele>342</ele>
        <time>2021-07-31T09:09:06.000Z</time>
      </trkpt>
      <trkpt lat="49.80745" lon="4.86244">
        <ele>342</ele>
        <time>2021-07-31T09:09:07.000Z</time>
      </trkpt>
      <trkpt lat="49.80746" lon="4.8624">
        <ele>343</ele>
        <time>2021-07-31T09:09:08.000Z</time>
      </trkpt>
      <trkpt lat="49.80747" lon="4.86238">
        <ele>343</ele>
        <time>2021-07-31T09:09:09.000Z</time>
      </trkpt>
      <trkpt lat="49.80749" lon="4.86236">
        <ele>343</ele>
        <time>2021-07-31T09:09:10.000Z</time>
      </trkpt>
      <trkpt lat="49.8075" lon="4.86233">
        <ele>343</ele>
        <time>2021-07-31T09:09:11.000Z</time>
      </trkpt>
      <trkpt lat="49.80751" lon="4.8623">
        <ele>343</ele>
        <time>2021-07-31T09:09:12.000Z</time>
      </trkpt>
      <trkpt lat="49.80752" lon="4.86227">
        <ele>343</ele>
        <time>2021-07-31T09:09:13.000Z</time>
      </trkpt>
      <trkpt lat="49.80753" lon="4.86224">
        <ele>344</ele>
        <time>2021-07-31T09:09:14.000Z</time>
      </trkpt>
      <trkpt lat="49.80754" lon="4.86221">
        <ele>344</ele>
        <time>2021-07-31T09:09:15.000Z</time>
      </trkpt>
      <trkpt lat="49.80756" lon="4.86218">
        <ele>344</ele>
        <time>2021-07-31T09:09:16.000Z</time>
      </trkpt>
      <trkpt lat="49.80757" lon="4.86215">
        <ele>344</ele>
        <time>2021-07-31T09:09:17.000Z</time>
      </trkpt>
      <trkpt lat="49.80759" lon="4.86212">
        <ele>344</ele>
        <time>2021-07-31T09:09:18.000Z</time>
      </trkpt>
      <trkpt lat="49.8076" lon="4.8621">
        <ele>344</ele>
        <time>2021-07-31T09:09:19.000Z</time>
      </trkpt>
      <trkpt lat="49.80761" lon="4.86207">
        <ele>344</ele>
        <time>2021-07-31T09:09:20.000Z</time>
      </trkpt>
      <trkpt lat="49.80763" lon="4.86205">
        <ele>344</ele>
        <time>2021-07-31T09:09:21.000Z</time>
      </trkpt>
      <trkpt lat="49.80764" lon="4.86202">
        <ele>344</ele>
        <time>2021-07-31T09:09:22.000Z</time>
      </trkpt>
      <trkpt lat="49.80767" lon="4.862">
        <ele>344</ele>
        <time>2021-07-31T09:09:23.000Z</time>
      </trkpt>
      <trkpt lat="49.80769" lon="4.86199">
        <ele>344</ele>
        <time>2021-07-31T09:09:24.000Z</time>
      </trkpt>
      <trkpt lat="49.80771" lon="4.86197">
        <ele>344</ele>
        <time>2021-07-31T09:09:25.000Z</time>
      </trkpt>
      <trkpt lat="49.80772" lon="4.86195">
        <ele>344</ele>
        <time>2021-07-31T09:09:26.000Z</time>
      </trkpt>
      <trkpt lat="49.80774" lon="4.86192">
        <ele>345</ele>
        <time>2021-07-31T09:09:27.000Z</time>
      </trkpt>
      <trkpt lat="49.80776" lon="4.8619">
        <ele>345</ele>
        <time>2021-07-31T09:09:28.000Z</time>
      </trkpt>
      <trkpt lat="49.80778" lon="4.86188">
        <ele>345</ele>
        <time>2021-07-31T09:09:29.000Z</time>
      </trkpt>
      <trkpt lat="49.8078" lon="4.86185">
        <ele>345</ele>
        <time>2021-07-31T09:09:30.000Z</time>
      </trkpt>
      <trkpt lat="49.80782" lon="4.86183">
        <ele>345</ele>
        <time>2021-07-31T09:09:31.000Z</time>
      </trkpt>
      <trkpt lat="49.80784" lon="4.86181">
        <ele>346</ele>
        <time>2021-07-31T09:09:32.000Z</time>
      </trkpt>
      <trkpt lat="49.80786" lon="4.86178">
        <ele>346</ele>
        <time>2021-07-31T09:09:33.000Z</time>
      </trkpt>
      <trkpt lat="49.80788" lon="4.86175">
        <ele>346</ele>
        <time>2021-07-31T09:09:34.000Z</time>
      </trkpt>
      <trkpt lat="49.8079" lon="4.86173">
        <ele>346</ele>
        <time>2021-07-31T09:09:35.000Z</time>
      </trkpt>
      <trkpt lat="49.80792" lon="4.8617">
        <ele>346</ele>
        <time>2021-07-31T09:09:36.000Z</time>
      </trkpt>
      <trkpt lat="49.80794" lon="4.86168">
        <ele>346</ele>
        <time>2021-07-31T09:09:37.000Z</time>
      </trkpt>
      <trkpt lat="49.80796" lon="4.86166">
        <ele>347</ele>
        <time>2021-07-31T09:09:38.000Z</time>
      </trkpt>
      <trkpt lat="49.80799" lon="4.86163">
        <ele>347</ele>
        <time>2021-07-31T09:09:39.000Z</time>
      </trkpt>
      <trkpt lat="49.80801" lon="4.86161">
        <ele>347</ele>
        <time>2021-07-31T09:09:40.000Z</time>
      </trkpt>
      <trkpt lat="49.80803" lon="4.86158">
        <ele>347</ele>
        <time>2021-07-31T09:09:41.000Z</time>
      </trkpt>
      <trkpt lat="49.80805" lon="4.86156">
        <ele>347</ele>
        <time>2021-07-31T09:09:42.000Z</time>
      </trkpt>
      <trkpt lat="49.80807" lon="4.86154">
        <ele>347</ele>
        <time>2021-07-31T09:09:43.000Z</time>
      </trkpt>
      <trkpt lat="49.80809" lon="4.86151">
        <ele>347</ele>
        <time>2021-07-31T09:09:44.000Z</time>
      </trkpt>
      <trkpt lat="49.80811" lon="4.86149">
        <ele>347</ele>
        <time>2021-07-31T09:09:45.000Z</time>
      </trkpt>
      <trkpt lat="49.80813" lon="4.86146">
        <ele>347</ele>
        <time>2021-07-31T09:09:46.000Z</time>
      </trkpt>
      <trkpt lat="49.80815" lon="4.86143">
        <ele>348</ele>
        <time>2021-07-31T09:09:47.000Z</time>
      </trkpt>
      <trkpt lat="49.80817" lon="4.86141">
        <ele>348</ele>
        <time>2021-07-31T09:09:48.000Z</time>
      </trkpt>
      <trkpt lat="49.80819" lon="4.86138">
        <ele>348</ele>
        <time>2021-07-31T09:09:49.000Z</time>
      </trkpt>
      <trkpt lat="49.80821" lon="4.86136">
        <ele>348</ele>
        <time>2021-07-31T09:09:50.000Z</time>
      </trkpt>
      <trkpt lat="49.80823" lon="4.86133">
        <ele>348</ele>
        <time>2021-07-31T09:09:51.000Z</time>
      </trkpt>
      <trkpt lat="49.80824" lon="4.8613">
        <ele>348</ele>
        <time>2021-07-31T09:09:52.000Z</time>
      </trkpt>
      <trkpt lat="49.80826" lon="4.86126">
        <ele>348</ele>
        <time>2021-07-31T09:09:53.000Z</time>
      </trkpt>
      <trkpt lat="49.80827" lon="4.86123">
        <ele>348</ele>
        <time>2021-07-31T09:09:54.000Z</time>
      </trkpt>
      <trkpt lat="49.80828" lon="4.86119">
        <ele>348</ele>
        <time>2021-07-31T09:09:55.000Z</time>
      </trkpt>
      <trkpt lat="49.80829" lon="4.86115">
        <ele>348</ele>
        <time>2021-07-31T09:09:56.000Z</time>
      </trkpt>
      <trkpt lat="49.80829" lon="4.86112">
        <ele>349</ele>
        <time>2021-07-31T09:09:57.000Z</time>
      </trkpt>
      <trkpt lat="49.8083" lon="4.86108">
        <ele>349</ele>
        <time>2021-07-31T09:09:58.000Z</time>
      </trkpt>
      <trkpt lat="49.80831" lon="4.86104">
        <ele>349</ele>
        <time>2021-07-31T09:09:59.000Z</time>
      </trkpt>
      <trkpt lat="49.80832" lon="4.861">
        <ele>349</ele>
        <time>2021-07-31T09:10:00.000Z</time>
      </trkpt>
      <trkpt lat="49.80833" lon="4.86096">
        <ele>349</ele>
        <time>2021-07-31T09:10:01.000Z</time>
      </trkpt>
      <trkpt lat="49.80834" lon="4.86093">
        <ele>350</ele>
        <time>2021-07-31T09:10:02.000Z</time>
      </trkpt>
      <trkpt lat="49.80835" lon="4.86089">
        <ele>350</ele>
        <time>2021-07-31T09:10:03.000Z</time>
      </trkpt>
      <trkpt lat="49.80835" lon="4.86085">
        <ele>350</ele>
        <time>2021-07-31T09:10:04.000Z</time>
      </trkpt>
      <trkpt lat="49.80836" lon="4.86082">
        <ele>350</ele>
        <time>2021-07-31T09:10:05.000Z</time>
      </trkpt>
      <trkpt lat="49.80837" lon="4.86078">
        <ele>350</ele>
        <time>2021-07-31T09:10:06.000Z</time>
      </trkpt>
      <trkpt lat="49.80838" lon="4.86074">
        <ele>351</ele>
        <time>2021-07-31T09:10:07.000Z</time>
      </trkpt>
      <trkpt lat="49.80839" lon="4.86071">
        <ele>351</ele>
        <time>2021-07-31T09:10:08.000Z</time>
      </trkpt>
      <trkpt lat="49.80839" lon="4.86066">
        <ele>351</ele>
        <time>2021-07-31T09:10:09.000Z</time>
      </trkpt>
      <trkpt lat="49.8084" lon="4.86063">
        <ele>351</ele>
        <time>2021-07-31T09:10:10.000Z</time>
      </trkpt>
      <trkpt lat="49.8084" lon="4.86059">
        <ele>351</ele>
        <time>2021-07-31T09:10:11.000Z</time>
      </trkpt>
      <trkpt lat="49.80841" lon="4.86055">
        <ele>352</ele>
        <time>2021-07-31T09:10:12.000Z</time>
      </trkpt>
      <trkpt lat="49.80842" lon="4.86051">
        <ele>352</ele>
        <time>2021-07-31T09:10:13.000Z</time>
      </trkpt>
      <trkpt lat="49.80843" lon="4.86048">
        <ele>352</ele>
        <time>2021-07-31T09:10:14.000Z</time>
      </trkpt>
      <trkpt lat="49.80843" lon="4.86044">
        <ele>352</ele>
        <time>2021-07-31T09:10:15.000Z</time>
      </trkpt>
      <trkpt lat="49.80844" lon="4.8604">
        <ele>353</ele>
        <time>2021-07-31T09:10:16.000Z</time>
      </trkpt>
      <trkpt lat="49.80844" lon="4.86036">
        <ele>353</ele>
        <time>2021-07-31T09:10:17.000Z</time>
      </trkpt>
      <trkpt lat="49.80845" lon="4.86032">
        <ele>353</ele>
        <time>2021-07-31T09:10:18.000Z</time>
      </trkpt>
      <trkpt lat="49.80845" lon="4.86028">
        <ele>353</ele>
        <time>2021-07-31T09:10:19.000Z</time>
      </trkpt>
      <trkpt lat="49.80845" lon="4.86024">
        <ele>354</ele>
        <time>2021-07-31T09:10:20.000Z</time>
      </trkpt>
      <trkpt lat="49.80845" lon="4.86019">
        <ele>354</ele>
        <time>2021-07-31T09:10:21.000Z</time>
      </trkpt>
      <trkpt lat="49.80845" lon="4.86016">
        <ele>354</ele>
        <time>2021-07-31T09:10:22.000Z</time>
      </trkpt>
      <trkpt lat="49.80845" lon="4.86012">
        <ele>354</ele>
        <time>2021-07-31T09:10:23.000Z</time>
      </trkpt>
      <trkpt lat="49.80845" lon="4.86009">
        <ele>355</ele>
        <time>2021-07-31T09:10:24.000Z</time>
      </trkpt>
      <trkpt lat="49.80845" lon="4.86005">
        <ele>355</ele>
        <time>2021-07-31T09:10:25.000Z</time>
      </trkpt>
      <trkpt lat="49.80845" lon="4.86001">
        <ele>355</ele>
        <time>2021-07-31T09:10:26.000Z</time>
      </trkpt>
      <trkpt lat="49.80845" lon="4.85997">
        <ele>355</ele>
        <time>2021-07-31T09:10:27.000Z</time>
      </trkpt>
      <trkpt lat="49.80846" lon="4.85993">
        <ele>356</ele>
        <time>2021-07-31T09:10:28.000Z</time>
      </trkpt>
      <trkpt lat="49.80846" lon="4.85989">
        <ele>356</ele>
        <time>2021-07-31T09:10:29.000Z</time>
      </trkpt>
      <trkpt lat="49.80846" lon="4.85985">
        <ele>356</ele>
        <time>2021-07-31T09:10:30.000Z</time>
      </trkpt>
      <trkpt lat="49.80846" lon="4.85981">
        <ele>356</ele>
        <time>2021-07-31T09:10:31.000Z</time>
      </trkpt>
      <trkpt lat="49.80847" lon="4.85977">
        <ele>356</ele>
        <time>2021-07-31T09:10:32.000Z</time>
      </trkpt>
      <trkpt lat="49.80847" lon="4.85973">
        <ele>357</ele>
        <time>2021-07-31T09:10:33.000Z</time>
      </trkpt>
      <trkpt lat="49.80847" lon="4.8597">
        <ele>357</ele>
        <time>2021-07-31T09:10:34.000Z</time>
      </trkpt>
      <trkpt lat="49.80847" lon="4.85965">
        <ele>357</ele>
        <time>2021-07-31T09:10:35.000Z</time>
      </trkpt>
      <trkpt lat="49.80848" lon="4.8596">
        <ele>357</ele>
        <time>2021-07-31T09:10:36.000Z</time>
      </trkpt>
      <trkpt lat="49.80848" lon="4.85954">
        <ele>357</ele>
        <time>2021-07-31T09:10:37.000Z</time>
      </trkpt>
      <trkpt lat="49.80847" lon="4.85948">
        <ele>357</ele>
        <time>2021-07-31T09:10:38.000Z</time>
      </trkpt>
      <trkpt lat="49.80848" lon="4.85942">
        <ele>357</ele>
        <time>2021-07-31T09:10:39.000Z</time>
      </trkpt>
      <trkpt lat="49.80848" lon="4.85935">
        <ele>357</ele>
        <time>2021-07-31T09:10:40.000Z</time>
      </trkpt>
      <trkpt lat="49.80847" lon="4.85928">
        <ele>357</ele>
        <time>2021-07-31T09:10:41.000Z</time>
      </trkpt>
      <trkpt lat="49.80848" lon="4.8592">
        <ele>357</ele>
        <time>2021-07-31T09:10:42.000Z</time>
      </trkpt>
      <trkpt lat="49.80848" lon="4.85912">
        <ele>357</ele>
        <time>2021-07-31T09:10:43.000Z</time>
      </trkpt>
      <trkpt lat="49.80849" lon="4.85904">
        <ele>357</ele>
        <time>2021-07-31T09:10:44.000Z</time>
      </trkpt>
      <trkpt lat="49.8085" lon="4.85895">
        <ele>356</ele>
        <time>2021-07-31T09:10:45.000Z</time>
      </trkpt>
      <trkpt lat="49.80851" lon="4.85887">
        <ele>356</ele>
        <time>2021-07-31T09:10:46.000Z</time>
      </trkpt>
      <trkpt lat="49.80852" lon="4.85878">
        <ele>356</ele>
        <time>2021-07-31T09:10:47.000Z</time>
      </trkpt>
      <trkpt lat="49.80854" lon="4.85871">
        <ele>356</ele>
        <time>2021-07-31T09:10:48.000Z</time>
      </trkpt>
      <trkpt lat="49.80855" lon="4.85863">
        <ele>355</ele>
        <time>2021-07-31T09:10:49.000Z</time>
      </trkpt>
      <trkpt lat="49.80856" lon="4.85856">
        <ele>355</ele>
        <time>2021-07-31T09:10:50.000Z</time>
      </trkpt>
      <trkpt lat="49.80858" lon="4.85848">
        <ele>355</ele>
        <time>2021-07-31T09:10:51.000Z</time>
      </trkpt>
      <trkpt lat="49.8086" lon="4.8584">
        <ele>355</ele>
        <time>2021-07-31T09:10:52.000Z</time>
      </trkpt>
      <trkpt lat="49.80861" lon="4.85832">
        <ele>355</ele>
        <time>2021-07-31T09:10:53.000Z</time>
      </trkpt>
      <trkpt lat="49.80862" lon="4.85825">
        <ele>354</ele>
        <time>2021-07-31T09:10:54.000Z</time>
      </trkpt>
      <trkpt lat="49.80862" lon="4.85817">
        <ele>354</ele>
        <time>2021-07-31T09:10:55.000Z</time>
      </trkpt>
      <trkpt lat="49.80863" lon="4.8581">
        <ele>354</ele>
        <time>2021-07-31T09:10:56.000Z</time>
      </trkpt>
      <trkpt lat="49.80864" lon="4.85803">
        <ele>354</ele>
        <time>2021-07-31T09:10:57.000Z</time>
      </trkpt>
      <trkpt lat="49.80864" lon="4.85796">
        <ele>354</ele>
        <time>2021-07-31T09:10:58.000Z</time>
      </trkpt>
      <trkpt lat="49.80865" lon="4.85789">
        <ele>354</ele>
        <time>2021-07-31T09:10:59.000Z</time>
      </trkpt>
      <trkpt lat="49.80866" lon="4.85782">
        <ele>354</ele>
        <time>2021-07-31T09:11:00.000Z</time>
      </trkpt>
      <trkpt lat="49.80866" lon="4.85776">
        <ele>354</ele>
        <time>2021-07-31T09:11:01.000Z</time>
      </trkpt>
      <trkpt lat="49.80867" lon="4.85769">
        <ele>354</ele>
        <time>2021-07-31T09:11:02.000Z</time>
      </trkpt>
      <trkpt lat="49.80867" lon="4.85762">
        <ele>354</ele>
        <time>2021-07-31T09:11:03.000Z</time>
      </trkpt>
      <trkpt lat="49.80867" lon="4.85754">
        <ele>354</ele>
        <time>2021-07-31T09:11:04.000Z</time>
      </trkpt>
      <trkpt lat="49.80868" lon="4.85747">
        <ele>354</ele>
        <time>2021-07-31T09:11:05.000Z</time>
      </trkpt>
      <trkpt lat="49.80869" lon="4.85739">
        <ele>353</ele>
        <time>2021-07-31T09:11:06.000Z</time>
      </trkpt>
      <trkpt lat="49.80869" lon="4.85731">
        <ele>353</ele>
        <time>2021-07-31T09:11:07.000Z</time>
      </trkpt>
      <trkpt lat="49.8087" lon="4.85724">
        <ele>353</ele>
        <time>2021-07-31T09:11:08.000Z</time>
      </trkpt>
      <trkpt lat="49.80871" lon="4.85717">
        <ele>353</ele>
        <time>2021-07-31T09:11:09.000Z</time>
      </trkpt>
      <trkpt lat="49.80872" lon="4.8571">
        <ele>353</ele>
        <time>2021-07-31T09:11:10.000Z</time>
      </trkpt>
      <trkpt lat="49.80872" lon="4.85704">
        <ele>353</ele>
        <time>2021-07-31T09:11:11.000Z</time>
      </trkpt>
      <trkpt lat="49.80873" lon="4.85697">
        <ele>353</ele>
        <time>2021-07-31T09:11:12.000Z</time>
      </trkpt>
      <trkpt lat="49.80874" lon="4.85691">
        <ele>353</ele>
        <time>2021-07-31T09:11:13.000Z</time>
      </trkpt>
      <trkpt lat="49.80875" lon="4.85685">
        <ele>353</ele>
        <time>2021-07-31T09:11:14.000Z</time>
      </trkpt>
      <trkpt lat="49.80877" lon="4.8568">
        <ele>353</ele>
        <time>2021-07-31T09:11:15.000Z</time>
      </trkpt>
      <trkpt lat="49.80879" lon="4.85674">
        <ele>353</ele>
        <time>2021-07-31T09:11:16.000Z</time>
      </trkpt>
      <trkpt lat="49.80881" lon="4.85668">
        <ele>353</ele>
        <time>2021-07-31T09:11:17.000Z</time>
      </trkpt>
      <trkpt lat="49.80883" lon="4.85661">
        <ele>352</ele>
        <time>2021-07-31T09:11:18.000Z</time>
      </trkpt>
      <trkpt lat="49.80886" lon="4.85654">
        <ele>352</ele>
        <time>2021-07-31T09:11:19.000Z</time>
      </trkpt>
      <trkpt lat="49.80889" lon="4.85646">
        <ele>352</ele>
        <time>2021-07-31T09:11:20.000Z</time>
      </trkpt>
      <trkpt lat="49.80892" lon="4.85638">
        <ele>351</ele>
        <time>2021-07-31T09:11:21.000Z</time>
      </trkpt>
      <trkpt lat="49.80895" lon="4.85629">
        <ele>351</ele>
        <time>2021-07-31T09:11:22.000Z</time>
      </trkpt>
      <trkpt lat="49.80898" lon="4.85621">
        <ele>351</ele>
        <time>2021-07-31T09:11:23.000Z</time>
      </trkpt>
      <trkpt lat="49.80901" lon="4.85614">
        <ele>350</ele>
        <time>2021-07-31T09:11:24.000Z</time>
      </trkpt>
      <trkpt lat="49.80905" lon="4.85607">
        <ele>350</ele>
        <time>2021-07-31T09:11:25.000Z</time>
      </trkpt>
      <trkpt lat="49.80908" lon="4.85601">
        <ele>349</ele>
        <time>2021-07-31T09:11:26.000Z</time>
      </trkpt>
      <trkpt lat="49.80912" lon="4.85594">
        <ele>349</ele>
        <time>2021-07-31T09:11:27.000Z</time>
      </trkpt>
      <trkpt lat="49.80915" lon="4.85588">
        <ele>349</ele>
        <time>2021-07-31T09:11:28.000Z</time>
      </trkpt>
      <trkpt lat="49.80918" lon="4.85581">
        <ele>348</ele>
        <time>2021-07-31T09:11:29.000Z</time>
      </trkpt>
      <trkpt lat="49.80921" lon="4.85574">
        <ele>347</ele>
        <time>2021-07-31T09:11:30.000Z</time>
      </trkpt>
      <trkpt lat="49.80924" lon="4.85567">
        <ele>347</ele>
        <time>2021-07-31T09:11:31.000Z</time>
      </trkpt>
      <trkpt lat="49.80928" lon="4.8556">
        <ele>346</ele>
        <time>2021-07-31T09:11:32.000Z</time>
      </trkpt>
      <trkpt lat="49.80932" lon="4.85553">
        <ele>345</ele>
        <time>2021-07-31T09:11:33.000Z</time>
      </trkpt>
      <trkpt lat="49.80936" lon="4.85547">
        <ele>345</ele>
        <time>2021-07-31T09:11:34.000Z</time>
      </trkpt>
      <trkpt lat="49.8094" lon="4.85542">
        <ele>344</ele>
        <time>2021-07-31T09:11:35.000Z</time>
      </trkpt>
      <trkpt lat="49.80944" lon="4.85537">
        <ele>343</ele>
        <time>2021-07-31T09:11:36.000Z</time>
      </trkpt>
      <trkpt lat="49.80948" lon="4.85532">
        <ele>342</ele>
        <time>2021-07-31T09:11:37.000Z</time>
      </trkpt>
      <trkpt lat="49.80952" lon="4.85527">
        <ele>340</ele>
        <time>2021-07-31T09:11:38.000Z</time>
      </trkpt>
      <trkpt lat="49.80955" lon="4.85524">
        <ele>339</ele>
        <time>2021-07-31T09:11:39.000Z</time>
      </trkpt>
      <trkpt lat="49.80958" lon="4.8552">
        <ele>338</ele>
        <time>2021-07-31T09:11:40.000Z</time>
      </trkpt>
      <trkpt lat="49.80961" lon="4.85515">
        <ele>337</ele>
        <time>2021-07-31T09:11:41.000Z</time>
      </trkpt>
      <trkpt lat="49.80965" lon="4.85509">
        <ele>336</ele>
        <time>2021-07-31T09:11:42.000Z</time>
      </trkpt>
      <trkpt lat="49.80968" lon="4.85503">
        <ele>335</ele>
        <time>2021-07-31T09:11:43.000Z</time>
      </trkpt>
      <trkpt lat="49.80971" lon="4.85496">
        <ele>334</ele>
        <time>2021-07-31T09:11:44.000Z</time>
      </trkpt>
      <trkpt lat="49.80975" lon="4.8549">
        <ele>333</ele>
        <time>2021-07-31T09:11:45.000Z</time>
      </trkpt>
      <trkpt lat="49.80979" lon="4.85484">
        <ele>332</ele>
        <time>2021-07-31T09:11:46.000Z</time>
      </trkpt>
      <trkpt lat="49.80983" lon="4.85478">
        <ele>331</ele>
        <time>2021-07-31T09:11:47.000Z</time>
      </trkpt>
      <trkpt lat="49.80988" lon="4.85473">
        <ele>330</ele>
        <time>2021-07-31T09:11:48.000Z</time>
      </trkpt>
      <trkpt lat="49.80993" lon="4.85467">
        <ele>328</ele>
        <time>2021-07-31T09:11:49.000Z</time>
      </trkpt>
      <trkpt lat="49.80998" lon="4.85461">
        <ele>327</ele>
        <time>2021-07-31T09:11:50.000Z</time>
      </trkpt>
      <trkpt lat="49.81002" lon="4.85456">
        <ele>326</ele>
        <time>2021-07-31T09:11:51.000Z</time>
      </trkpt>
      <trkpt lat="49.81005" lon="4.85451">
        <ele>325</ele>
        <time>2021-07-31T09:11:52.000Z</time>
      </trkpt>
      <trkpt lat="49.81009" lon="4.85447">
        <ele>324</ele>
        <time>2021-07-31T09:11:53.000Z</time>
      </trkpt>
      <trkpt lat="49.81013" lon="4.85443">
        <ele>323</ele>
        <time>2021-07-31T09:11:54.000Z</time>
      </trkpt>
      <trkpt lat="49.81017" lon="4.85438">
        <ele>322</ele>
        <time>2021-07-31T09:11:55.000Z</time>
      </trkpt>
      <trkpt lat="49.81021" lon="4.85433">
        <ele>321</ele>
        <time>2021-07-31T09:11:56.000Z</time>
      </trkpt>
      <trkpt lat="49.81024" lon="4.85428">
        <ele>320</ele>
        <time>2021-07-31T09:11:57.000Z</time>
      </trkpt>
      <trkpt lat="49.81027" lon="4.85424">
        <ele>319</ele>
        <time>2021-07-31T09:11:58.000Z</time>
      </trkpt>
      <trkpt lat="49.81031" lon="4.8542">
        <ele>318</ele>
        <time>2021-07-31T09:11:59.000Z</time>
      </trkpt>
      <trkpt lat="49.81034" lon="4.85415">
        <ele>317</ele>
        <time>2021-07-31T09:12:00.000Z</time>
      </trkpt>
      <trkpt lat="49.81038" lon="4.8541">
        <ele>316</ele>
        <time>2021-07-31T09:12:01.000Z</time>
      </trkpt>
      <trkpt lat="49.81041" lon="4.85405">
        <ele>314</ele>
        <time>2021-07-31T09:12:02.000Z</time>
      </trkpt>
      <trkpt lat="49.81044" lon="4.854">
        <ele>313</ele>
        <time>2021-07-31T09:12:03.000Z</time>
      </trkpt>
      <trkpt lat="49.81047" lon="4.85395">
        <ele>312</ele>
        <time>2021-07-31T09:12:04.000Z</time>
      </trkpt>
      <trkpt lat="49.8105" lon="4.8539">
        <ele>310</ele>
        <time>2021-07-31T09:12:05.000Z</time>
      </trkpt>
      <trkpt lat="49.81053" lon="4.85385">
        <ele>309</ele>
        <time>2021-07-31T09:12:06.000Z</time>
      </trkpt>
      <trkpt lat="49.81057" lon="4.8538">
        <ele>308</ele>
        <time>2021-07-31T09:12:07.000Z</time>
      </trkpt>
      <trkpt lat="49.8106" lon="4.85374">
        <ele>306</ele>
        <time>2021-07-31T09:12:08.000Z</time>
      </trkpt>
      <trkpt lat="49.81063" lon="4.85369">
        <ele>305</ele>
        <time>2021-07-31T09:12:09.000Z</time>
      </trkpt>
      <trkpt lat="49.81065" lon="4.85366">
        <ele>304</ele>
        <time>2021-07-31T09:12:10.000Z</time>
      </trkpt>
      <trkpt lat="49.81066" lon="4.85364">
        <ele>303</ele>
        <time>2021-07-31T09:12:11.000Z</time>
      </trkpt>
      <trkpt lat="49.81067" lon="4.85362">
        <ele>302</ele>
        <time>2021-07-31T09:12:12.000Z</time>
      </trkpt>
      <trkpt lat="49.81067" lon="4.85362">
        <ele>301</ele>
        <time>2021-07-31T09:12:13.000Z</time>
      </trkpt>
      <trkpt lat="49.81068" lon="4.85361">
        <ele>300</ele>
        <time>2021-07-31T09:12:14.000Z</time>
      </trkpt>
      <trkpt lat="49.81068" lon="4.85361">
        <ele>299</ele>
        <time>2021-07-31T09:12:15.000Z</time>
      </trkpt>
      <trkpt lat="49.81068" lon="4.85361">
        <ele>299</ele>
        <time>2021-07-31T09:12:16.000Z</time>
      </trkpt>
      <trkpt lat="49.81068" lon="4.85361">
        <ele>298</ele>
        <time>2021-07-31T09:12:17.000Z</time>
      </trkpt>
      <trkpt lat="49.81068" lon="4.85361">
        <ele>298</ele>
        <time>2021-07-31T09:12:18.000Z</time>
      </trkpt>
      <trkpt lat="49.81068" lon="4.8536">
        <ele>298</ele>
        <time>2021-07-31T09:12:19.000Z</time>
      </trkpt>
      <trkpt lat="49.81068" lon="4.8536">
        <ele>297</ele>
        <time>2021-07-31T09:12:20.000Z</time>
      </trkpt>
      <trkpt lat="49.81068" lon="4.8536">
        <ele>297</ele>
        <time>2021-07-31T09:12:21.000Z</time>
      </trkpt>
      <trkpt lat="49.81068" lon="4.8536">
        <ele>297</ele>
        <time>2021-07-31T09:12:22.000Z</time>
      </trkpt>
      <trkpt lat="49.81068" lon="4.8536">
        <ele>296</ele>
        <time>2021-07-31T09:12:23.000Z</time>
      </trkpt>
      <trkpt lat="49.81068" lon="4.8536">
        <ele>296</ele>
        <time>2021-07-31T09:12:24.000Z</time>
      </trkpt>
      <trkpt lat="49.81068" lon="4.8536">
        <ele>296</ele>
        <time>2021-07-31T09:12:25.000Z</time>
      </trkpt>
      <trkpt lat="49.81068" lon="4.8536">
        <ele>296</ele>
        <time>2021-07-31T09:12:26.000Z</time>
      </trkpt>
      <trkpt lat="49.81069" lon="4.8536">
        <ele>296</ele>
        <time>2021-07-31T09:12:27.000Z</time>
      </trkpt>
      <trkpt lat="49.81069" lon="4.8536">
        <ele>295</ele>
        <time>2021-07-31T09:12:28.000Z</time>
      </trkpt>
      <trkpt lat="49.81068" lon="4.8536">
        <ele>295</ele>
        <time>2021-07-31T09:12:29.000Z</time>
      </trkpt>
      <trkpt lat="49.81068" lon="4.85359">
        <ele>295</ele>
        <time>2021-07-31T09:12:30.000Z</time>
      </trkpt>
      <trkpt lat="49.81068" lon="4.85359">
        <ele>295</ele>
        <time>2021-07-31T09:12:31.000Z</time>
      </trkpt>
      <trkpt lat="49.81068" lon="4.85359">
        <ele>295</ele>
        <time>2021-07-31T09:12:32.000Z</time>
      </trkpt>
      <trkpt lat="49.81068" lon="4.85359">
        <ele>295</ele>
        <time>2021-07-31T09:12:33.000Z</time>
      </trkpt>
      <trkpt lat="49.81069" lon="4.85358">
        <ele>295</ele>
        <time>2021-07-31T09:12:34.000Z</time>
      </trkpt>
      <trkpt lat="49.8107" lon="4.85356">
        <ele>295</ele>
        <time>2021-07-31T09:12:35.000Z</time>
      </trkpt>
      <trkpt lat="49.81071" lon="4.85352">
        <ele>294</ele>
        <time>2021-07-31T09:12:36.000Z</time>
      </trkpt>
      <trkpt lat="49.81073" lon="4.85347">
        <ele>294</ele>
        <time>2021-07-31T09:12:37.000Z</time>
      </trkpt>
      <trkpt lat="49.81074" lon="4.85342">
        <ele>294</ele>
        <time>2021-07-31T09:12:38.000Z</time>
      </trkpt>
      <trkpt lat="49.81076" lon="4.85337">
        <ele>294</ele>
        <time>2021-07-31T09:12:39.000Z</time>
      </trkpt>
      <trkpt lat="49.81078" lon="4.85334">
        <ele>294</ele>
        <time>2021-07-31T09:12:40.000Z</time>
      </trkpt>
      <trkpt lat="49.8108" lon="4.85331">
        <ele>293</ele>
        <time>2021-07-31T09:12:41.000Z</time>
      </trkpt>
      <trkpt lat="49.81083" lon="4.85327">
        <ele>293</ele>
        <time>2021-07-31T09:12:42.000Z</time>
      </trkpt>
      <trkpt lat="49.81086" lon="4.85323">
        <ele>293</ele>
        <time>2021-07-31T09:12:43.000Z</time>
      </trkpt>
      <trkpt lat="49.81091" lon="4.85318">
        <ele>292</ele>
        <time>2021-07-31T09:12:44.000Z</time>
      </trkpt>
      <trkpt lat="49.81096" lon="4.85313">
        <ele>292</ele>
        <time>2021-07-31T09:12:45.000Z</time>
      </trkpt>
      <trkpt lat="49.81101" lon="4.85306">
        <ele>291</ele>
        <time>2021-07-31T09:12:46.000Z</time>
      </trkpt>
      <trkpt lat="49.81106" lon="4.853">
        <ele>290</ele>
        <time>2021-07-31T09:12:47.000Z</time>
      </trkpt>
      <trkpt lat="49.81111" lon="4.85293">
        <ele>290</ele>
        <time>2021-07-31T09:12:48.000Z</time>
      </trkpt>
      <trkpt lat="49.81116" lon="4.85287">
        <ele>289</ele>
        <time>2021-07-31T09:12:49.000Z</time>
      </trkpt>
      <trkpt lat="49.8112" lon="4.85281">
        <ele>288</ele>
        <time>2021-07-31T09:12:50.000Z</time>
      </trkpt>
      <trkpt lat="49.81125" lon="4.85274">
        <ele>287</ele>
        <time>2021-07-31T09:12:51.000Z</time>
      </trkpt>
      <trkpt lat="49.8113" lon="4.85268">
        <ele>286</ele>
        <time>2021-07-31T09:12:52.000Z</time>
      </trkpt>
      <trkpt lat="49.81134" lon="4.85263">
        <ele>285</ele>
        <time>2021-07-31T09:12:53.000Z</time>
      </trkpt>
      <trkpt lat="49.81137" lon="4.85257">
        <ele>284</ele>
        <time>2021-07-31T09:12:54.000Z</time>
      </trkpt>
      <trkpt lat="49.81141" lon="4.85252">
        <ele>283</ele>
        <time>2021-07-31T09:12:55.000Z</time>
      </trkpt>
      <trkpt lat="49.81144" lon="4.85248">
        <ele>283</ele>
        <time>2021-07-31T09:12:56.000Z</time>
      </trkpt>
      <trkpt lat="49.81147" lon="4.85244">
        <ele>282</ele>
        <time>2021-07-31T09:12:57.000Z</time>
      </trkpt>
      <trkpt lat="49.81151" lon="4.85239">
        <ele>281</ele>
        <time>2021-07-31T09:12:58.000Z</time>
      </trkpt>
      <trkpt lat="49.81154" lon="4.85234">
        <ele>280</ele>
        <time>2021-07-31T09:12:59.000Z</time>
      </trkpt>
      <trkpt lat="49.81158" lon="4.8523">
        <ele>279</ele>
        <time>2021-07-31T09:13:00.000Z</time>
      </trkpt>
      <trkpt lat="49.81161" lon="4.85225">
        <ele>279</ele>
        <time>2021-07-31T09:13:01.000Z</time>
      </trkpt>
      <trkpt lat="49.81163" lon="4.85219">
        <ele>278</ele>
        <time>2021-07-31T09:13:02.000Z</time>
      </trkpt>
      <trkpt lat="49.81165" lon="4.85213">
        <ele>277</ele>
        <time>2021-07-31T09:13:03.000Z</time>
      </trkpt>
      <trkpt lat="49.81168" lon="4.85207">
        <ele>277</ele>
        <time>2021-07-31T09:13:04.000Z</time>
      </trkpt>
      <trkpt lat="49.81171" lon="4.85201">
        <ele>276</ele>
        <time>2021-07-31T09:13:05.000Z</time>
      </trkpt>
      <trkpt lat="49.81173" lon="4.85196">
        <ele>276</ele>
        <time>2021-07-31T09:13:06.000Z</time>
      </trkpt>
      <trkpt lat="49.81177" lon="4.85191">
        <ele>275</ele>
        <time>2021-07-31T09:13:07.000Z</time>
      </trkpt>
      <trkpt lat="49.8118" lon="4.85185">
        <ele>275</ele>
        <time>2021-07-31T09:13:08.000Z</time>
      </trkpt>
      <trkpt lat="49.81183" lon="4.8518">
        <ele>274</ele>
        <time>2021-07-31T09:13:09.000Z</time>
      </trkpt>
      <trkpt lat="49.81186" lon="4.85174">
        <ele>274</ele>
        <time>2021-07-31T09:13:10.000Z</time>
      </trkpt>
      <trkpt lat="49.81189" lon="4.85168">
        <ele>273</ele>
        <time>2021-07-31T09:13:11.000Z</time>
      </trkpt>
      <trkpt lat="49.81192" lon="4.85163">
        <ele>273</ele>
        <time>2021-07-31T09:13:12.000Z</time>
      </trkpt>
      <trkpt lat="49.81195" lon="4.85157">
        <ele>272</ele>
        <time>2021-07-31T09:13:13.000Z</time>
      </trkpt>
      <trkpt lat="49.81199" lon="4.85152">
        <ele>272</ele>
        <time>2021-07-31T09:13:14.000Z</time>
      </trkpt>
      <trkpt lat="49.81202" lon="4.85147">
        <ele>271</ele>
        <time>2021-07-31T09:13:15.000Z</time>
      </trkpt>
      <trkpt lat="49.81206" lon="4.85143">
        <ele>271</ele>
        <time>2021-07-31T09:13:16.000Z</time>
      </trkpt>
      <trkpt lat="49.81208" lon="4.85141">
        <ele>271</ele>
        <time>2021-07-31T09:13:17.000Z</time>
      </trkpt>
      <trkpt lat="49.81209" lon="4.8514">
        <ele>270</ele>
        <time>2021-07-31T09:13:18.000Z</time>
      </trkpt>
      <trkpt lat="49.8121" lon="4.85139">
        <ele>270</ele>
        <time>2021-07-31T09:13:19.000Z</time>
      </trkpt>
      <trkpt lat="49.81211" lon="4.85138">
        <ele>270</ele>
        <time>2021-07-31T09:13:20.000Z</time>
      </trkpt>
      <trkpt lat="49.81213" lon="4.85136">
        <ele>269</ele>
        <time>2021-07-31T09:13:21.000Z</time>
      </trkpt>
      <trkpt lat="49.81216" lon="4.85134">
        <ele>269</ele>
        <time>2021-07-31T09:13:22.000Z</time>
      </trkpt>
      <trkpt lat="49.81218" lon="4.85132">
        <ele>269</ele>
        <time>2021-07-31T09:13:23.000Z</time>
      </trkpt>
      <trkpt lat="49.81221" lon="4.8513">
        <ele>269</ele>
        <time>2021-07-31T09:13:24.000Z</time>
      </trkpt>
      <trkpt lat="49.81224" lon="4.85127">
        <ele>268</ele>
        <time>2021-07-31T09:13:25.000Z</time>
      </trkpt>
      <trkpt lat="49.81227" lon="4.85125">
        <ele>268</ele>
        <time>2021-07-31T09:13:26.000Z</time>
      </trkpt>
      <trkpt lat="49.8123" lon="4.85124">
        <ele>268</ele>
        <time>2021-07-31T09:13:27.000Z</time>
      </trkpt>
      <trkpt lat="49.81234" lon="4.85125">
        <ele>267</ele>
        <time>2021-07-31T09:13:28.000Z</time>
      </trkpt>
      <trkpt lat="49.81238" lon="4.85127">
        <ele>267</ele>
        <time>2021-07-31T09:13:29.000Z</time>
      </trkpt>
      <trkpt lat="49.81241" lon="4.8513">
        <ele>267</ele>
        <time>2021-07-31T09:13:30.000Z</time>
      </trkpt>
      <trkpt lat="49.81243" lon="4.85134">
        <ele>266</ele>
        <time>2021-07-31T09:13:31.000Z</time>
      </trkpt>
      <trkpt lat="49.81246" lon="4.85138">
        <ele>266</ele>
        <time>2021-07-31T09:13:32.000Z</time>
      </trkpt>
      <trkpt lat="49.81247" lon="4.85141">
        <ele>266</ele>
        <time>2021-07-31T09:13:33.000Z</time>
      </trkpt>
      <trkpt lat="49.81249" lon="4.85144">
        <ele>265</ele>
        <time>2021-07-31T09:13:34.000Z</time>
      </trkpt>
      <trkpt lat="49.8125" lon="4.85147">
        <ele>265</ele>
        <time>2021-07-31T09:13:35.000Z</time>
      </trkpt>
      <trkpt lat="49.81252" lon="4.85151">
        <ele>265</ele>
        <time>2021-07-31T09:13:36.000Z</time>
      </trkpt>
      <trkpt lat="49.81255" lon="4.85154">
        <ele>264</ele>
        <time>2021-07-31T09:13:37.000Z</time>
      </trkpt>
      <trkpt lat="49.81258" lon="4.85157">
        <ele>264</ele>
        <time>2021-07-31T09:13:38.000Z</time>
      </trkpt>
      <trkpt lat="49.81261" lon="4.8516">
        <ele>264</ele>
        <time>2021-07-31T09:13:39.000Z</time>
      </trkpt>
      <trkpt lat="49.81264" lon="4.85163">
        <ele>263</ele>
        <time>2021-07-31T09:13:40.000Z</time>
      </trkpt>
      <trkpt lat="49.81266" lon="4.85164">
        <ele>263</ele>
        <time>2021-07-31T09:13:41.000Z</time>
      </trkpt>
      <trkpt lat="49.81267" lon="4.85166">
        <ele>263</ele>
        <time>2021-07-31T09:13:42.000Z</time>
      </trkpt>
      <trkpt lat="49.81267" lon="4.85166">
        <ele>262</ele>
        <time>2021-07-31T09:13:43.000Z</time>
      </trkpt>
      <trkpt lat="49.81267" lon="4.85166">
        <ele>262</ele>
        <time>2021-07-31T09:13:44.000Z</time>
      </trkpt>
      <trkpt lat="49.81268" lon="4.85166">
        <ele>262</ele>
        <time>2021-07-31T09:13:45.000Z</time>
      </trkpt>
      <trkpt lat="49.81268" lon="4.85166">
        <ele>262</ele>
        <time>2021-07-31T09:13:46.000Z</time>
      </trkpt>
      <trkpt lat="49.81268" lon="4.85167">
        <ele>262</ele>
        <time>2021-07-31T09:13:47.000Z</time>
      </trkpt>
      <trkpt lat="49.81269" lon="4.85167">
        <ele>261</ele>
        <time>2021-07-31T09:13:48.000Z</time>
      </trkpt>
      <trkpt lat="49.81269" lon="4.85168">
        <ele>261</ele>
        <time>2021-07-31T09:13:49.000Z</time>
      </trkpt>
      <trkpt lat="49.81268" lon="4.8517">
        <ele>261</ele>
        <time>2021-07-31T09:13:50.000Z</time>
      </trkpt>
      <trkpt lat="49.81266" lon="4.85171">
        <ele>261</ele>
        <time>2021-07-31T09:13:51.000Z</time>
      </trkpt>
      <trkpt lat="49.81265" lon="4.85173">
        <ele>260</ele>
        <time>2021-07-31T09:13:52.000Z</time>
      </trkpt>
      <trkpt lat="49.81263" lon="4.85175">
        <ele>260</ele>
        <time>2021-07-31T09:13:53.000Z</time>
      </trkpt>
      <trkpt lat="49.81261" lon="4.85177">
        <ele>260</ele>
        <time>2021-07-31T09:13:54.000Z</time>
      </trkpt>
      <trkpt lat="49.81259" lon="4.85179">
        <ele>259</ele>
        <time>2021-07-31T09:13:55.000Z</time>
      </trkpt>
      <trkpt lat="49.81257" lon="4.85181">
        <ele>259</ele>
        <time>2021-07-31T09:13:56.000Z</time>
      </trkpt>
      <trkpt lat="49.81255" lon="4.85184">
        <ele>259</ele>
        <time>2021-07-31T09:13:57.000Z</time>
      </trkpt>
      <trkpt lat="49.81253" lon="4.85187">
        <ele>259</ele>
        <time>2021-07-31T09:13:58.000Z</time>
      </trkpt>
      <trkpt lat="49.8125" lon="4.85191">
        <ele>258</ele>
        <time>2021-07-31T09:13:59.000Z</time>
      </trkpt>
      <trkpt lat="49.81248" lon="4.85196">
        <ele>258</ele>
        <time>2021-07-31T09:14:00.000Z</time>
      </trkpt>
      <trkpt lat="49.81246" lon="4.852">
        <ele>258</ele>
        <time>2021-07-31T09:14:01.000Z</time>
      </trkpt>
      <trkpt lat="49.81244" lon="4.85205">
        <ele>257</ele>
        <time>2021-07-31T09:14:02.000Z</time>
      </trkpt>
      <trkpt lat="49.81243" lon="4.85209">
        <ele>257</ele>
        <time>2021-07-31T09:14:03.000Z</time>
      </trkpt>
      <trkpt lat="49.81241" lon="4.85213">
        <ele>257</ele>
        <time>2021-07-31T09:14:04.000Z</time>
      </trkpt>
      <trkpt lat="49.81239" lon="4.85218">
        <ele>257</ele>
        <time>2021-07-31T09:14:05.000Z</time>
      </trkpt>
      <trkpt lat="49.81237" lon="4.85222">
        <ele>256</ele>
        <time>2021-07-31T09:14:06.000Z</time>
      </trkpt>
      <trkpt lat="49.81236" lon="4.85226">
        <ele>256</ele>
        <time>2021-07-31T09:14:07.000Z</time>
      </trkpt>
      <trkpt lat="49.81234" lon="4.85231">
        <ele>255</ele>
        <time>2021-07-31T09:14:08.000Z</time>
      </trkpt>
      <trkpt lat="49.81232" lon="4.85235">
        <ele>255</ele>
        <time>2021-07-31T09:14:09.000Z</time>
      </trkpt>
      <trkpt lat="49.81231" lon="4.85239">
        <ele>255</ele>
        <time>2021-07-31T09:14:10.000Z</time>
      </trkpt>
      <trkpt lat="49.8123" lon="4.85244">
        <ele>255</ele>
        <time>2021-07-31T09:14:11.000Z</time>
      </trkpt>
      <trkpt lat="49.81228" lon="4.85248">
        <ele>254</ele>
        <time>2021-07-31T09:14:12.000Z</time>
      </trkpt>
      <trkpt lat="49.81227" lon="4.85252">
        <ele>254</ele>
        <time>2021-07-31T09:14:13.000Z</time>
      </trkpt>
      <trkpt lat="49.81226" lon="4.85257">
        <ele>254</ele>
        <time>2021-07-31T09:14:14.000Z</time>
      </trkpt>
      <trkpt lat="49.81225" lon="4.85262">
        <ele>253</ele>
        <time>2021-07-31T09:14:15.000Z</time>
      </trkpt>
      <trkpt lat="49.81224" lon="4.85267">
        <ele>253</ele>
        <time>2021-07-31T09:14:16.000Z</time>
      </trkpt>
      <trkpt lat="49.81223" lon="4.85272">
        <ele>253</ele>
        <time>2021-07-31T09:14:17.000Z</time>
      </trkpt>
      <trkpt lat="49.81222" lon="4.85278">
        <ele>253</ele>
        <time>2021-07-31T09:14:18.000Z</time>
      </trkpt>
      <trkpt lat="49.81221" lon="4.85282">
        <ele>252</ele>
        <time>2021-07-31T09:14:19.000Z</time>
      </trkpt>
      <trkpt lat="49.8122" lon="4.85287">
        <ele>252</ele>
        <time>2021-07-31T09:14:20.000Z</time>
      </trkpt>
      <trkpt lat="49.81219" lon="4.85291">
        <ele>252</ele>
        <time>2021-07-31T09:14:21.000Z</time>
      </trkpt>
      <trkpt lat="49.81218" lon="4.85295">
        <ele>252</ele>
        <time>2021-07-31T09:14:22.000Z</time>
      </trkpt>
      <trkpt lat="49.81217" lon="4.853">
        <ele>252</ele>
        <time>2021-07-31T09:14:23.000Z</time>
      </trkpt>
      <trkpt lat="49.81216" lon="4.85304">
        <ele>251</ele>
        <time>2021-07-31T09:14:24.000Z</time>
      </trkpt>
      <trkpt lat="49.81215" lon="4.85309">
        <ele>251</ele>
        <time>2021-07-31T09:14:25.000Z</time>
      </trkpt>
      <trkpt lat="49.81215" lon="4.85313">
        <ele>251</ele>
        <time>2021-07-31T09:14:26.000Z</time>
      </trkpt>
      <trkpt lat="49.81214" lon="4.85318">
        <ele>251</ele>
        <time>2021-07-31T09:14:27.000Z</time>
      </trkpt>
      <trkpt lat="49.81213" lon="4.85322">
        <ele>251</ele>
        <time>2021-07-31T09:14:28.000Z</time>
      </trkpt>
      <trkpt lat="49.81212" lon="4.85326">
        <ele>251</ele>
        <time>2021-07-31T09:14:29.000Z</time>
      </trkpt>
      <trkpt lat="49.81212" lon="4.85332">
        <ele>251</ele>
        <time>2021-07-31T09:14:30.000Z</time>
      </trkpt>
      <trkpt lat="49.81211" lon="4.85337">
        <ele>250</ele>
        <time>2021-07-31T09:14:31.000Z</time>
      </trkpt>
      <trkpt lat="49.8121" lon="4.85341">
        <ele>250</ele>
        <time>2021-07-31T09:14:32.000Z</time>
      </trkpt>
      <trkpt lat="49.8121" lon="4.85345">
        <ele>250</ele>
        <time>2021-07-31T09:14:33.000Z</time>
      </trkpt>
      <trkpt lat="49.8121" lon="4.8535">
        <ele>250</ele>
        <time>2021-07-31T09:14:34.000Z</time>
      </trkpt>
      <trkpt lat="49.81209" lon="4.85355">
        <ele>250</ele>
        <time>2021-07-31T09:14:35.000Z</time>
      </trkpt>
      <trkpt lat="49.81208" lon="4.8536">
        <ele>250</ele>
        <time>2021-07-31T09:14:36.000Z</time>
      </trkpt>
      <trkpt lat="49.81207" lon="4.85365">
        <ele>250</ele>
        <time>2021-07-31T09:14:37.000Z</time>
      </trkpt>
      <trkpt lat="49.81206" lon="4.85371">
        <ele>250</ele>
        <time>2021-07-31T09:14:38.000Z</time>
      </trkpt>
      <trkpt lat="49.81205" lon="4.85376">
        <ele>250</ele>
        <time>2021-07-31T09:14:39.000Z</time>
      </trkpt>
      <trkpt lat="49.81204" lon="4.85381">
        <ele>250</ele>
        <time>2021-07-31T09:14:40.000Z</time>
      </trkpt>
      <trkpt lat="49.81203" lon="4.85386">
        <ele>250</ele>
        <time>2021-07-31T09:14:41.000Z</time>
      </trkpt>
      <trkpt lat="49.81202" lon="4.85391">
        <ele>250</ele>
        <time>2021-07-31T09:14:42.000Z</time>
      </trkpt>
      <trkpt lat="49.81201" lon="4.85396">
        <ele>250</ele>
        <time>2021-07-31T09:14:43.000Z</time>
      </trkpt>
      <trkpt lat="49.812" lon="4.85401">
        <ele>250</ele>
        <time>2021-07-31T09:14:44.000Z</time>
      </trkpt>
      <trkpt lat="49.81199" lon="4.85406">
        <ele>250</ele>
        <time>2021-07-31T09:14:45.000Z</time>
      </trkpt>
      <trkpt lat="49.81199" lon="4.85412">
        <ele>251</ele>
        <time>2021-07-31T09:14:46.000Z</time>
      </trkpt>
      <trkpt lat="49.81198" lon="4.85417">
        <ele>251</ele>
        <time>2021-07-31T09:14:47.000Z</time>
      </trkpt>
      <trkpt lat="49.81197" lon="4.85423">
        <ele>251</ele>
        <time>2021-07-31T09:14:48.000Z</time>
      </trkpt>
      <trkpt lat="49.81196" lon="4.85428">
        <ele>251</ele>
        <time>2021-07-31T09:14:49.000Z</time>
      </trkpt>
      <trkpt lat="49.81195" lon="4.85434">
        <ele>251</ele>
        <time>2021-07-31T09:14:50.000Z</time>
      </trkpt>
      <trkpt lat="49.81194" lon="4.85439">
        <ele>251</ele>
        <time>2021-07-31T09:14:51.000Z</time>
      </trkpt>
      <trkpt lat="49.81193" lon="4.85445">
        <ele>251</ele>
        <time>2021-07-31T09:14:52.000Z</time>
      </trkpt>
      <trkpt lat="49.81193" lon="4.85451">
        <ele>251</ele>
        <time>2021-07-31T09:14:53.000Z</time>
      </trkpt>
      <trkpt lat="49.81192" lon="4.85457">
        <ele>251</ele>
        <time>2021-07-31T09:14:54.000Z</time>
      </trkpt>
      <trkpt lat="49.81191" lon="4.85462">
        <ele>251</ele>
        <time>2021-07-31T09:14:55.000Z</time>
      </trkpt>
      <trkpt lat="49.8119" lon="4.85467">
        <ele>251</ele>
        <time>2021-07-31T09:14:56.000Z</time>
      </trkpt>
      <trkpt lat="49.81189" lon="4.85472">
        <ele>251</ele>
        <time>2021-07-31T09:14:57.000Z</time>
      </trkpt>
      <trkpt lat="49.81188" lon="4.85476">
        <ele>251</ele>
        <time>2021-07-31T09:14:58.000Z</time>
      </trkpt>
      <trkpt lat="49.81188" lon="4.85481">
        <ele>251</ele>
        <time>2021-07-31T09:14:59.000Z</time>
      </trkpt>
      <trkpt lat="49.81187" lon="4.85486">
        <ele>251</ele>
        <time>2021-07-31T09:15:00.000Z</time>
      </trkpt>
      <trkpt lat="49.81186" lon="4.85491">
        <ele>251</ele>
        <time>2021-07-31T09:15:01.000Z</time>
      </trkpt>
      <trkpt lat="49.81185" lon="4.85496">
        <ele>251</ele>
        <time>2021-07-31T09:15:02.000Z</time>
      </trkpt>
      <trkpt lat="49.81184" lon="4.85501">
        <ele>251</ele>
        <time>2021-07-31T09:15:03.000Z</time>
      </trkpt>
      <trkpt lat="49.81183" lon="4.85506">
        <ele>251</ele>
        <time>2021-07-31T09:15:04.000Z</time>
      </trkpt>
      <trkpt lat="49.81182" lon="4.85511">
        <ele>251</ele>
        <time>2021-07-31T09:15:05.000Z</time>
      </trkpt>
      <trkpt lat="49.81182" lon="4.85516">
        <ele>251</ele>
        <time>2021-07-31T09:15:06.000Z</time>
      </trkpt>
      <trkpt lat="49.81181" lon="4.85521">
        <ele>251</ele>
        <time>2021-07-31T09:15:07.000Z</time>
      </trkpt>
      <trkpt lat="49.8118" lon="4.85526">
        <ele>251</ele>
        <time>2021-07-31T09:15:08.000Z</time>
      </trkpt>
      <trkpt lat="49.81179" lon="4.85531">
        <ele>251</ele>
        <time>2021-07-31T09:15:09.000Z</time>
      </trkpt>
      <trkpt lat="49.81178" lon="4.85535">
        <ele>251</ele>
        <time>2021-07-31T09:15:10.000Z</time>
      </trkpt>
      <trkpt lat="49.81177" lon="4.8554">
        <ele>251</ele>
        <time>2021-07-31T09:15:11.000Z</time>
      </trkpt>
      <trkpt lat="49.81176" lon="4.85545">
        <ele>251</ele>
        <time>2021-07-31T09:15:12.000Z</time>
      </trkpt>
      <trkpt lat="49.81175" lon="4.85549">
        <ele>251</ele>
        <time>2021-07-31T09:15:13.000Z</time>
      </trkpt>
      <trkpt lat="49.81174" lon="4.85554">
        <ele>251</ele>
        <time>2021-07-31T09:15:14.000Z</time>
      </trkpt>
      <trkpt lat="49.81173" lon="4.85559">
        <ele>251</ele>
        <time>2021-07-31T09:15:15.000Z</time>
      </trkpt>
      <trkpt lat="49.81173" lon="4.85564">
        <ele>251</ele>
        <time>2021-07-31T09:15:16.000Z</time>
      </trkpt>
      <trkpt lat="49.81172" lon="4.85569">
        <ele>251</ele>
        <time>2021-07-31T09:15:17.000Z</time>
      </trkpt>
      <trkpt lat="49.8117" lon="4.85573">
        <ele>251</ele>
        <time>2021-07-31T09:15:18.000Z</time>
      </trkpt>
      <trkpt lat="49.81169" lon="4.85577">
        <ele>251</ele>
        <time>2021-07-31T09:15:19.000Z</time>
      </trkpt>
      <trkpt lat="49.81169" lon="4.85582">
        <ele>251</ele>
        <time>2021-07-31T09:15:20.000Z</time>
      </trkpt>
      <trkpt lat="49.81168" lon="4.85587">
        <ele>251</ele>
        <time>2021-07-31T09:15:21.000Z</time>
      </trkpt>
      <trkpt lat="49.81167" lon="4.85592">
        <ele>251</ele>
        <time>2021-07-31T09:15:22.000Z</time>
      </trkpt>
      <trkpt lat="49.81166" lon="4.85597">
        <ele>251</ele>
        <time>2021-07-31T09:15:23.000Z</time>
      </trkpt>
      <trkpt lat="49.81165" lon="4.85602">
        <ele>251</ele>
        <time>2021-07-31T09:15:24.000Z</time>
      </trkpt>
      <trkpt lat="49.81164" lon="4.85607">
        <ele>251</ele>
        <time>2021-07-31T09:15:25.000Z</time>
      </trkpt>
      <trkpt lat="49.81163" lon="4.85612">
        <ele>251</ele>
        <time>2021-07-31T09:15:26.000Z</time>
      </trkpt>
      <trkpt lat="49.81162" lon="4.85617">
        <ele>251</ele>
        <time>2021-07-31T09:15:27.000Z</time>
      </trkpt>
      <trkpt lat="49.81161" lon="4.85622">
        <ele>252</ele>
        <time>2021-07-31T09:15:28.000Z</time>
      </trkpt>
      <trkpt lat="49.8116" lon="4.85627">
        <ele>252</ele>
        <time>2021-07-31T09:15:29.000Z</time>
      </trkpt>
      <trkpt lat="49.81159" lon="4.85633">
        <ele>252</ele>
        <time>2021-07-31T09:15:30.000Z</time>
      </trkpt>
      <trkpt lat="49.81159" lon="4.85638">
        <ele>252</ele>
        <time>2021-07-31T09:15:31.000Z</time>
      </trkpt>
      <trkpt lat="49.81158" lon="4.85643">
        <ele>252</ele>
        <time>2021-07-31T09:15:32.000Z</time>
      </trkpt>
      <trkpt lat="49.81157" lon="4.85648">
        <ele>252</ele>
        <time>2021-07-31T09:15:33.000Z</time>
      </trkpt>
      <trkpt lat="49.81156" lon="4.85652">
        <ele>252</ele>
        <time>2021-07-31T09:15:34.000Z</time>
      </trkpt>
      <trkpt lat="49.81155" lon="4.85657">
        <ele>252</ele>
        <time>2021-07-31T09:15:35.000Z</time>
      </trkpt>
      <trkpt lat="49.81154" lon="4.85661">
        <ele>252</ele>
        <time>2021-07-31T09:15:36.000Z</time>
      </trkpt>
      <trkpt lat="49.81153" lon="4.85666">
        <ele>252</ele>
        <time>2021-07-31T09:15:37.000Z</time>
      </trkpt>
      <trkpt lat="49.81152" lon="4.85671">
        <ele>252</ele>
        <time>2021-07-31T09:15:38.000Z</time>
      </trkpt>
      <trkpt lat="49.81151" lon="4.85675">
        <ele>252</ele>
        <time>2021-07-31T09:15:39.000Z</time>
      </trkpt>
      <trkpt lat="49.8115" lon="4.85679">
        <ele>252</ele>
        <time>2021-07-31T09:15:40.000Z</time>
      </trkpt>
      <trkpt lat="49.81149" lon="4.85684">
        <ele>252</ele>
        <time>2021-07-31T09:15:41.000Z</time>
      </trkpt>
      <trkpt lat="49.81149" lon="4.85688">
        <ele>252</ele>
        <time>2021-07-31T09:15:42.000Z</time>
      </trkpt>
      <trkpt lat="49.81148" lon="4.85692">
        <ele>252</ele>
        <time>2021-07-31T09:15:43.000Z</time>
      </trkpt>
      <trkpt lat="49.81147" lon="4.85697">
        <ele>252</ele>
        <time>2021-07-31T09:15:44.000Z</time>
      </trkpt>
      <trkpt lat="49.81147" lon="4.85701">
        <ele>252</ele>
        <time>2021-07-31T09:15:45.000Z</time>
      </trkpt>
      <trkpt lat="49.81146" lon="4.85706">
        <ele>252</ele>
        <time>2021-07-31T09:15:46.000Z</time>
      </trkpt>
      <trkpt lat="49.81145" lon="4.8571">
        <ele>252</ele>
        <time>2021-07-31T09:15:47.000Z</time>
      </trkpt>
      <trkpt lat="49.81144" lon="4.85714">
        <ele>252</ele>
        <time>2021-07-31T09:15:48.000Z</time>
      </trkpt>
      <trkpt lat="49.81144" lon="4.85718">
        <ele>252</ele>
        <time>2021-07-31T09:15:49.000Z</time>
      </trkpt>
      <trkpt lat="49.81143" lon="4.85723">
        <ele>252</ele>
        <time>2021-07-31T09:15:50.000Z</time>
      </trkpt>
      <trkpt lat="49.81142" lon="4.85727">
        <ele>253</ele>
        <time>2021-07-31T09:15:51.000Z</time>
      </trkpt>
      <trkpt lat="49.81141" lon="4.85732">
        <ele>253</ele>
        <time>2021-07-31T09:15:52.000Z</time>
      </trkpt>
      <trkpt lat="49.8114" lon="4.85737">
        <ele>253</ele>
        <time>2021-07-31T09:15:53.000Z</time>
      </trkpt>
      <trkpt lat="49.81139" lon="4.85742">
        <ele>253</ele>
        <time>2021-07-31T09:15:54.000Z</time>
      </trkpt>
      <trkpt lat="49.81138" lon="4.85746">
        <ele>253</ele>
        <time>2021-07-31T09:15:55.000Z</time>
      </trkpt>
      <trkpt lat="49.81137" lon="4.85751">
        <ele>253</ele>
        <time>2021-07-31T09:15:56.000Z</time>
      </trkpt>
      <trkpt lat="49.81136" lon="4.85756">
        <ele>253</ele>
        <time>2021-07-31T09:15:57.000Z</time>
      </trkpt>
      <trkpt lat="49.81136" lon="4.85761">
        <ele>253</ele>
        <time>2021-07-31T09:15:58.000Z</time>
      </trkpt>
      <trkpt lat="49.81135" lon="4.85766">
        <ele>253</ele>
        <time>2021-07-31T09:15:59.000Z</time>
      </trkpt>
      <trkpt lat="49.81134" lon="4.85771">
        <ele>253</ele>
        <time>2021-07-31T09:16:00.000Z</time>
      </trkpt>
      <trkpt lat="49.81133" lon="4.85776">
        <ele>253</ele>
        <time>2021-07-31T09:16:01.000Z</time>
      </trkpt>
      <trkpt lat="49.81132" lon="4.8578">
        <ele>253</ele>
        <time>2021-07-31T09:16:02.000Z</time>
      </trkpt>
      <trkpt lat="49.81132" lon="4.85784">
        <ele>253</ele>
        <time>2021-07-31T09:16:03.000Z</time>
      </trkpt>
      <trkpt lat="49.81131" lon="4.85786">
        <ele>253</ele>
        <time>2021-07-31T09:16:04.000Z</time>
      </trkpt>
      <trkpt lat="49.81131" lon="4.85786">
        <ele>253</ele>
        <time>2021-07-31T09:16:05.000Z</time>
      </trkpt>
      <trkpt lat="49.81131" lon="4.85787">
        <ele>254</ele>
        <time>2021-07-31T09:16:06.000Z</time>
      </trkpt>
      <trkpt lat="49.81131" lon="4.85787">
        <ele>254</ele>
        <time>2021-07-31T09:16:07.000Z</time>
      </trkpt>
      <trkpt lat="49.81132" lon="4.85787">
        <ele>254</ele>
        <time>2021-07-31T09:16:08.000Z</time>
      </trkpt>
      <trkpt lat="49.81131" lon="4.85788">
        <ele>254</ele>
        <time>2021-07-31T09:16:09.000Z</time>
      </trkpt>
      <trkpt lat="49.81131" lon="4.85789">
        <ele>254</ele>
        <time>2021-07-31T09:16:10.000Z</time>
      </trkpt>
      <trkpt lat="49.81131" lon="4.85789">
        <ele>254</ele>
        <time>2021-07-31T09:16:11.000Z</time>
      </trkpt>
      <trkpt lat="49.81131" lon="4.85789">
        <ele>254</ele>
        <time>2021-07-31T09:16:12.000Z</time>
      </trkpt>
      <trkpt lat="49.81131" lon="4.85789">
        <ele>254</ele>
        <time>2021-07-31T09:16:13.000Z</time>
      </trkpt>
      <trkpt lat="49.81131" lon="4.8579">
        <ele>255</ele>
        <time>2021-07-31T09:16:14.000Z</time>
      </trkpt>
      <trkpt lat="49.81131" lon="4.85791">
        <ele>255</ele>
        <time>2021-07-31T09:16:15.000Z</time>
      </trkpt>
      <trkpt lat="49.8113" lon="4.85792">
        <ele>255</ele>
        <time>2021-07-31T09:16:16.000Z</time>
      </trkpt>
      <trkpt lat="49.8113" lon="4.85795">
        <ele>255</ele>
        <time>2021-07-31T09:16:17.000Z</time>
      </trkpt>
      <trkpt lat="49.81129" lon="4.85798">
        <ele>255</ele>
        <time>2021-07-31T09:16:18.000Z</time>
      </trkpt>
      <trkpt lat="49.81129" lon="4.85802">
        <ele>255</ele>
        <time>2021-07-31T09:16:19.000Z</time>
      </trkpt>
      <trkpt lat="49.81128" lon="4.85805">
        <ele>255</ele>
        <time>2021-07-31T09:16:20.000Z</time>
      </trkpt>
      <trkpt lat="49.81127" lon="4.85807">
        <ele>255</ele>
        <time>2021-07-31T09:16:21.000Z</time>
      </trkpt>
      <trkpt lat="49.81127" lon="4.8581">
        <ele>255</ele>
        <time>2021-07-31T09:16:22.000Z</time>
      </trkpt>
      <trkpt lat="49.81126" lon="4.85813">
        <ele>255</ele>
        <time>2021-07-31T09:16:23.000Z</time>
      </trkpt>
      <trkpt lat="49.81126" lon="4.85816">
        <ele>256</ele>
        <time>2021-07-31T09:16:24.000Z</time>
      </trkpt>
      <trkpt lat="49.81125" lon="4.8582">
        <ele>256</ele>
        <time>2021-07-31T09:16:25.000Z</time>
      </trkpt>
      <trkpt lat="49.81124" lon="4.85823">
        <ele>256</ele>
        <time>2021-07-31T09:16:26.000Z</time>
      </trkpt>
      <trkpt lat="49.81123" lon="4.85827">
        <ele>256</ele>
        <time>2021-07-31T09:16:27.000Z</time>
      </trkpt>
      <trkpt lat="49.81123" lon="4.85831">
        <ele>256</ele>
        <time>2021-07-31T09:16:28.000Z</time>
      </trkpt>
      <trkpt lat="49.81122" lon="4.85835">
        <ele>256</ele>
        <time>2021-07-31T09:16:29.000Z</time>
      </trkpt>
      <trkpt lat="49.81121" lon="4.85838">
        <ele>256</ele>
        <time>2021-07-31T09:16:30.000Z</time>
      </trkpt>
      <trkpt lat="49.8112" lon="4.85842">
        <ele>256</ele>
        <time>2021-07-31T09:16:31.000Z</time>
      </trkpt>
      <trkpt lat="49.8112" lon="4.85845">
        <ele>256</ele>
        <time>2021-07-31T09:16:32.000Z</time>
      </trkpt>
      <trkpt lat="49.81119" lon="4.85849">
        <ele>256</ele>
        <time>2021-07-31T09:16:33.000Z</time>
      </trkpt>
      <trkpt lat="49.81118" lon="4.85853">
        <ele>256</ele>
        <time>2021-07-31T09:16:34.000Z</time>
      </trkpt>
      <trkpt lat="49.81117" lon="4.85858">
        <ele>256</ele>
        <time>2021-07-31T09:16:35.000Z</time>
      </trkpt>
      <trkpt lat="49.81116" lon="4.85862">
        <ele>256</ele>
        <time>2021-07-31T09:16:36.000Z</time>
      </trkpt>
      <trkpt lat="49.81116" lon="4.85866">
        <ele>257</ele>
        <time>2021-07-31T09:16:37.000Z</time>
      </trkpt>
      <trkpt lat="49.81115" lon="4.85869">
        <ele>257</ele>
        <time>2021-07-31T09:16:38.000Z</time>
      </trkpt>
      <trkpt lat="49.81115" lon="4.85873">
        <ele>257</ele>
        <time>2021-07-31T09:16:39.000Z</time>
      </trkpt>
      <trkpt lat="49.81114" lon="4.85876">
        <ele>257</ele>
        <time>2021-07-31T09:16:40.000Z</time>
      </trkpt>
      <trkpt lat="49.81113" lon="4.8588">
        <ele>257</ele>
        <time>2021-07-31T09:16:41.000Z</time>
      </trkpt>
      <trkpt lat="49.81112" lon="4.85883">
        <ele>258</ele>
        <time>2021-07-31T09:16:42.000Z</time>
      </trkpt>
      <trkpt lat="49.81112" lon="4.85887">
        <ele>258</ele>
        <time>2021-07-31T09:16:43.000Z</time>
      </trkpt>
      <trkpt lat="49.81111" lon="4.8589">
        <ele>258</ele>
        <time>2021-07-31T09:16:44.000Z</time>
      </trkpt>
      <trkpt lat="49.8111" lon="4.85894">
        <ele>258</ele>
        <time>2021-07-31T09:16:45.000Z</time>
      </trkpt>
      <trkpt lat="49.81109" lon="4.85898">
        <ele>259</ele>
        <time>2021-07-31T09:16:46.000Z</time>
      </trkpt>
      <trkpt lat="49.81108" lon="4.85901">
        <ele>259</ele>
        <time>2021-07-31T09:16:47.000Z</time>
      </trkpt>
      <trkpt lat="49.81107" lon="4.85905">
        <ele>259</ele>
        <time>2021-07-31T09:16:48.000Z</time>
      </trkpt>
      <trkpt lat="49.81106" lon="4.85908">
        <ele>259</ele>
        <time>2021-07-31T09:16:49.000Z</time>
      </trkpt>
      <trkpt lat="49.81105" lon="4.85911">
        <ele>260</ele>
        <time>2021-07-31T09:16:50.000Z</time>
      </trkpt>
      <trkpt lat="49.81104" lon="4.85915">
        <ele>260</ele>
        <time>2021-07-31T09:16:51.000Z</time>
      </trkpt>
      <trkpt lat="49.81103" lon="4.85918">
        <ele>260</ele>
        <time>2021-07-31T09:16:52.000Z</time>
      </trkpt>
      <trkpt lat="49.81102" lon="4.85921">
        <ele>260</ele>
        <time>2021-07-31T09:16:53.000Z</time>
      </trkpt>
      <trkpt lat="49.81101" lon="4.85925">
        <ele>260</ele>
        <time>2021-07-31T09:16:54.000Z</time>
      </trkpt>
      <trkpt lat="49.811" lon="4.85928">
        <ele>261</ele>
        <time>2021-07-31T09:16:55.000Z</time>
      </trkpt>
      <trkpt lat="49.81099" lon="4.85931">
        <ele>261</ele>
        <time>2021-07-31T09:16:56.000Z</time>
      </trkpt>
      <trkpt lat="49.81099" lon="4.85934">
        <ele>261</ele>
        <time>2021-07-31T09:16:57.000Z</time>
      </trkpt>
      <trkpt lat="49.81098" lon="4.85937">
        <ele>261</ele>
        <time>2021-07-31T09:16:58.000Z</time>
      </trkpt>
      <trkpt lat="49.81098" lon="4.85939">
        <ele>261</ele>
        <time>2021-07-31T09:16:59.000Z</time>
      </trkpt>
      <trkpt lat="49.81097" lon="4.85943">
        <ele>261</ele>
        <time>2021-07-31T09:17:00.000Z</time>
      </trkpt>
      <trkpt lat="49.81097" lon="4.85946">
        <ele>262</ele>
        <time>2021-07-31T09:17:01.000Z</time>
      </trkpt>
      <trkpt lat="49.81096" lon="4.8595">
        <ele>262</ele>
        <time>2021-07-31T09:17:02.000Z</time>
      </trkpt>
      <trkpt lat="49.81095" lon="4.85954">
        <ele>262</ele>
        <time>2021-07-31T09:17:03.000Z</time>
      </trkpt>
      <trkpt lat="49.81095" lon="4.85957">
        <ele>262</ele>
        <time>2021-07-31T09:17:04.000Z</time>
      </trkpt>
      <trkpt lat="49.81094" lon="4.85961">
        <ele>262</ele>
        <time>2021-07-31T09:17:05.000Z</time>
      </trkpt>
      <trkpt lat="49.81093" lon="4.85965">
        <ele>262</ele>
        <time>2021-07-31T09:17:06.000Z</time>
      </trkpt>
      <trkpt lat="49.81092" lon="4.85968">
        <ele>262</ele>
        <time>2021-07-31T09:17:07.000Z</time>
      </trkpt>
      <trkpt lat="49.81091" lon="4.85972">
        <ele>262</ele>
        <time>2021-07-31T09:17:08.000Z</time>
      </trkpt>
      <trkpt lat="49.81091" lon="4.85976">
        <ele>262</ele>
        <time>2021-07-31T09:17:09.000Z</time>
      </trkpt>
      <trkpt lat="49.8109" lon="4.8598">
        <ele>262</ele>
        <time>2021-07-31T09:17:10.000Z</time>
      </trkpt>
      <trkpt lat="49.8109" lon="4.85984">
        <ele>263</ele>
        <time>2021-07-31T09:17:11.000Z</time>
      </trkpt>
      <trkpt lat="49.81089" lon="4.85988">
        <ele>263</ele>
        <time>2021-07-31T09:17:12.000Z</time>
      </trkpt>
      <trkpt lat="49.81089" lon="4.85992">
        <ele>263</ele>
        <time>2021-07-31T09:17:13.000Z</time>
      </trkpt>
      <trkpt lat="49.81088" lon="4.85996">
        <ele>263</ele>
        <time>2021-07-31T09:17:14.000Z</time>
      </trkpt>
      <trkpt lat="49.81087" lon="4.85999">
        <ele>263</ele>
        <time>2021-07-31T09:17:15.000Z</time>
      </trkpt>
      <trkpt lat="49.81087" lon="4.86003">
        <ele>263</ele>
        <time>2021-07-31T09:17:16.000Z</time>
      </trkpt>
      <trkpt lat="49.81086" lon="4.86006">
        <ele>264</ele>
        <time>2021-07-31T09:17:17.000Z</time>
      </trkpt>
      <trkpt lat="49.81086" lon="4.8601">
        <ele>264</ele>
        <time>2021-07-31T09:17:18.000Z</time>
      </trkpt>
      <trkpt lat="49.81085" lon="4.86014">
        <ele>264</ele>
        <time>2021-07-31T09:17:19.000Z</time>
      </trkpt>
      <trkpt lat="49.81085" lon="4.86018">
        <ele>264</ele>
        <time>2021-07-31T09:17:20.000Z</time>
      </trkpt>
      <trkpt lat="49.81084" lon="4.86022">
        <ele>264</ele>
        <time>2021-07-31T09:17:21.000Z</time>
      </trkpt>
      <trkpt lat="49.81084" lon="4.86026">
        <ele>264</ele>
        <time>2021-07-31T09:17:22.000Z</time>
      </trkpt>
      <trkpt lat="49.81083" lon="4.86029">
        <ele>264</ele>
        <time>2021-07-31T09:17:23.000Z</time>
      </trkpt>
      <trkpt lat="49.81082" lon="4.86032">
        <ele>264</ele>
        <time>2021-07-31T09:17:24.000Z</time>
      </trkpt>
      <trkpt lat="49.81082" lon="4.86035">
        <ele>265</ele>
        <time>2021-07-31T09:17:25.000Z</time>
      </trkpt>
      <trkpt lat="49.81082" lon="4.86038">
        <ele>265</ele>
        <time>2021-07-31T09:17:26.000Z</time>
      </trkpt>
      <trkpt lat="49.81081" lon="4.86041">
        <ele>265</ele>
        <time>2021-07-31T09:17:27.000Z</time>
      </trkpt>
      <trkpt lat="49.81081" lon="4.86044">
        <ele>265</ele>
        <time>2021-07-31T09:17:28.000Z</time>
      </trkpt>
      <trkpt lat="49.8108" lon="4.86047">
        <ele>265</ele>
        <time>2021-07-31T09:17:29.000Z</time>
      </trkpt>
      <trkpt lat="49.8108" lon="4.86049">
        <ele>265</ele>
        <time>2021-07-31T09:17:30.000Z</time>
      </trkpt>
      <trkpt lat="49.8108" lon="4.86053">
        <ele>265</ele>
        <time>2021-07-31T09:17:31.000Z</time>
      </trkpt>
      <trkpt lat="49.81079" lon="4.86056">
        <ele>266</ele>
        <time>2021-07-31T09:17:32.000Z</time>
      </trkpt>
      <trkpt lat="49.81079" lon="4.86059">
        <ele>266</ele>
        <time>2021-07-31T09:17:33.000Z</time>
      </trkpt>
      <trkpt lat="49.81078" lon="4.86062">
        <ele>266</ele>
        <time>2021-07-31T09:17:34.000Z</time>
      </trkpt>
      <trkpt lat="49.81078" lon="4.86065">
        <ele>266</ele>
        <time>2021-07-31T09:17:35.000Z</time>
      </trkpt>
      <trkpt lat="49.81078" lon="4.86067">
        <ele>266</ele>
        <time>2021-07-31T09:17:36.000Z</time>
      </trkpt>
      <trkpt lat="49.81077" lon="4.86071">
        <ele>266</ele>
        <time>2021-07-31T09:17:37.000Z</time>
      </trkpt>
      <trkpt lat="49.81077" lon="4.86073">
        <ele>266</ele>
        <time>2021-07-31T09:17:38.000Z</time>
      </trkpt>
      <trkpt lat="49.81077" lon="4.86076">
        <ele>266</ele>
        <time>2021-07-31T09:17:39.000Z</time>
      </trkpt>
      <trkpt lat="49.81076" lon="4.86079">
        <ele>266</ele>
        <time>2021-07-31T09:17:40.000Z</time>
      </trkpt>
      <trkpt lat="49.81076" lon="4.86082">
        <ele>266</ele>
        <time>2021-07-31T09:17:41.000Z</time>
      </trkpt>
      <trkpt lat="49.81076" lon="4.86085">
        <ele>266</ele>
        <time>2021-07-31T09:17:42.000Z</time>
      </trkpt>
      <trkpt lat="49.81075" lon="4.86089">
        <ele>266</ele>
        <time>2021-07-31T09:17:43.000Z</time>
      </trkpt>
      <trkpt lat="49.81075" lon="4.86091">
        <ele>266</ele>
        <time>2021-07-31T09:17:44.000Z</time>
      </trkpt>
      <trkpt lat="49.81075" lon="4.86094">
        <ele>267</ele>
        <time>2021-07-31T09:17:45.000Z</time>
      </trkpt>
      <trkpt lat="49.81075" lon="4.86097">
        <ele>267</ele>
        <time>2021-07-31T09:17:46.000Z</time>
      </trkpt>
      <trkpt lat="49.81075" lon="4.861">
        <ele>267</ele>
        <time>2021-07-31T09:17:47.000Z</time>
      </trkpt>
      <trkpt lat="49.81075" lon="4.86103">
        <ele>267</ele>
        <time>2021-07-31T09:17:48.000Z</time>
      </trkpt>
      <trkpt lat="49.81074" lon="4.86106">
        <ele>267</ele>
        <time>2021-07-31T09:17:49.000Z</time>
      </trkpt>
      <trkpt lat="49.81074" lon="4.86108">
        <ele>267</ele>
        <time>2021-07-31T09:17:50.000Z</time>
      </trkpt>
      <trkpt lat="49.81074" lon="4.86112">
        <ele>267</ele>
        <time>2021-07-31T09:17:51.000Z</time>
      </trkpt>
      <trkpt lat="49.81074" lon="4.86115">
        <ele>267</ele>
        <time>2021-07-31T09:17:52.000Z</time>
      </trkpt>
      <trkpt lat="49.81074" lon="4.86118">
        <ele>267</ele>
        <time>2021-07-31T09:17:53.000Z</time>
      </trkpt>
      <trkpt lat="49.81074" lon="4.86121">
        <ele>267</ele>
        <time>2021-07-31T09:17:54.000Z</time>
      </trkpt>
      <trkpt lat="49.81074" lon="4.86125">
        <ele>267</ele>
        <time>2021-07-31T09:17:55.000Z</time>
      </trkpt>
      <trkpt lat="49.81074" lon="4.86128">
        <ele>267</ele>
        <time>2021-07-31T09:17:56.000Z</time>
      </trkpt>
      <trkpt lat="49.81074" lon="4.86132">
        <ele>267</ele>
        <time>2021-07-31T09:17:57.000Z</time>
      </trkpt>
      <trkpt lat="49.81075" lon="4.86135">
        <ele>268</ele>
        <time>2021-07-31T09:17:58.000Z</time>
      </trkpt>
      <trkpt lat="49.81075" lon="4.86138">
        <ele>268</ele>
        <time>2021-07-31T09:17:59.000Z</time>
      </trkpt>
      <trkpt lat="49.81075" lon="4.86142">
        <ele>268</ele>
        <time>2021-07-31T09:18:00.000Z</time>
      </trkpt>
      <trkpt lat="49.81075" lon="4.86145">
        <ele>268</ele>
        <time>2021-07-31T09:18:01.000Z</time>
      </trkpt>
      <trkpt lat="49.81075" lon="4.86149">
        <ele>268</ele>
        <time>2021-07-31T09:18:02.000Z</time>
      </trkpt>
      <trkpt lat="49.81076" lon="4.86152">
        <ele>268</ele>
        <time>2021-07-31T09:18:03.000Z</time>
      </trkpt>
      <trkpt lat="49.81076" lon="4.86156">
        <ele>268</ele>
        <time>2021-07-31T09:18:04.000Z</time>
      </trkpt>
      <trkpt lat="49.81077" lon="4.8616">
        <ele>268</ele>
        <time>2021-07-31T09:18:05.000Z</time>
      </trkpt>
      <trkpt lat="49.81077" lon="4.86164">
        <ele>268</ele>
        <time>2021-07-31T09:18:06.000Z</time>
      </trkpt>
      <trkpt lat="49.81078" lon="4.86168">
        <ele>269</ele>
        <time>2021-07-31T09:18:07.000Z</time>
      </trkpt>
      <trkpt lat="49.81079" lon="4.86171">
        <ele>269</ele>
        <time>2021-07-31T09:18:08.000Z</time>
      </trkpt>
      <trkpt lat="49.81079" lon="4.86175">
        <ele>269</ele>
        <time>2021-07-31T09:18:09.000Z</time>
      </trkpt>
      <trkpt lat="49.8108" lon="4.86179">
        <ele>269</ele>
        <time>2021-07-31T09:18:10.000Z</time>
      </trkpt>
      <trkpt lat="49.81081" lon="4.86183">
        <ele>269</ele>
        <time>2021-07-31T09:18:11.000Z</time>
      </trkpt>
      <trkpt lat="49.81082" lon="4.86186">
        <ele>269</ele>
        <time>2021-07-31T09:18:12.000Z</time>
      </trkpt>
      <trkpt lat="49.81082" lon="4.8619">
        <ele>269</ele>
        <time>2021-07-31T09:18:13.000Z</time>
      </trkpt>
      <trkpt lat="49.81083" lon="4.86193">
        <ele>269</ele>
        <time>2021-07-31T09:18:14.000Z</time>
      </trkpt>
      <trkpt lat="49.81084" lon="4.86197">
        <ele>269</ele>
        <time>2021-07-31T09:18:15.000Z</time>
      </trkpt>
      <trkpt lat="49.81085" lon="4.862">
        <ele>270</ele>
        <time>2021-07-31T09:18:16.000Z</time>
      </trkpt>
      <trkpt lat="49.81086" lon="4.86203">
        <ele>270</ele>
        <time>2021-07-31T09:18:17.000Z</time>
      </trkpt>
      <trkpt lat="49.81087" lon="4.86207">
        <ele>270</ele>
        <time>2021-07-31T09:18:18.000Z</time>
      </trkpt>
      <trkpt lat="49.81088" lon="4.8621">
        <ele>270</ele>
        <time>2021-07-31T09:18:19.000Z</time>
      </trkpt>
      <trkpt lat="49.81089" lon="4.86214">
        <ele>270</ele>
        <time>2021-07-31T09:18:20.000Z</time>
      </trkpt>
      <trkpt lat="49.8109" lon="4.86217">
        <ele>270</ele>
        <time>2021-07-31T09:18:21.000Z</time>
      </trkpt>
      <trkpt lat="49.81091" lon="4.8622">
        <ele>270</ele>
        <time>2021-07-31T09:18:22.000Z</time>
      </trkpt>
      <trkpt lat="49.81092" lon="4.86222">
        <ele>270</ele>
        <time>2021-07-31T09:18:23.000Z</time>
      </trkpt>
      <trkpt lat="49.81094" lon="4.86225">
        <ele>270</ele>
        <time>2021-07-31T09:18:24.000Z</time>
      </trkpt>
      <trkpt lat="49.81095" lon="4.86228">
        <ele>270</ele>
        <time>2021-07-31T09:18:25.000Z</time>
      </trkpt>
      <trkpt lat="49.81096" lon="4.86231">
        <ele>271</ele>
        <time>2021-07-31T09:18:26.000Z</time>
      </trkpt>
      <trkpt lat="49.81097" lon="4.86234">
        <ele>271</ele>
        <time>2021-07-31T09:18:27.000Z</time>
      </trkpt>
      <trkpt lat="49.81098" lon="4.86237">
        <ele>271</ele>
        <time>2021-07-31T09:18:28.000Z</time>
      </trkpt>
      <trkpt lat="49.81099" lon="4.8624">
        <ele>271</ele>
        <time>2021-07-31T09:18:29.000Z</time>
      </trkpt>
      <trkpt lat="49.81101" lon="4.86244">
        <ele>271</ele>
        <time>2021-07-31T09:18:30.000Z</time>
      </trkpt>
      <trkpt lat="49.81102" lon="4.86247">
        <ele>271</ele>
        <time>2021-07-31T09:18:31.000Z</time>
      </trkpt>
      <trkpt lat="49.81104" lon="4.86251">
        <ele>271</ele>
        <time>2021-07-31T09:18:32.000Z</time>
      </trkpt>
      <trkpt lat="49.81105" lon="4.86255">
        <ele>271</ele>
        <time>2021-07-31T09:18:33.000Z</time>
      </trkpt>
      <trkpt lat="49.81107" lon="4.86259">
        <ele>271</ele>
        <time>2021-07-31T09:18:34.000Z</time>
      </trkpt>
      <trkpt lat="49.81108" lon="4.86262">
        <ele>271</ele>
        <time>2021-07-31T09:18:35.000Z</time>
      </trkpt>
      <trkpt lat="49.81109" lon="4.86266">
        <ele>271</ele>
        <time>2021-07-31T09:18:36.000Z</time>
      </trkpt>
      <trkpt lat="49.81111" lon="4.8627">
        <ele>272</ele>
        <time>2021-07-31T09:18:37.000Z</time>
      </trkpt>
      <trkpt lat="49.81112" lon="4.86274">
        <ele>272</ele>
        <time>2021-07-31T09:18:38.000Z</time>
      </trkpt>
      <trkpt lat="49.81114" lon="4.86278">
        <ele>272</ele>
        <time>2021-07-31T09:18:39.000Z</time>
      </trkpt>
      <trkpt lat="49.81115" lon="4.86283">
        <ele>272</ele>
        <time>2021-07-31T09:18:40.000Z</time>
      </trkpt>
      <trkpt lat="49.81116" lon="4.86288">
        <ele>272</ele>
        <time>2021-07-31T09:18:41.000Z</time>
      </trkpt>
      <trkpt lat="49.81118" lon="4.86292">
        <ele>272</ele>
        <time>2021-07-31T09:18:42.000Z</time>
      </trkpt>
      <trkpt lat="49.81119" lon="4.86296">
        <ele>272</ele>
        <time>2021-07-31T09:18:43.000Z</time>
      </trkpt>
      <trkpt lat="49.81121" lon="4.863">
        <ele>272</ele>
        <time>2021-07-31T09:18:44.000Z</time>
      </trkpt>
      <trkpt lat="49.81122" lon="4.86303">
        <ele>272</ele>
        <time>2021-07-31T09:18:45.000Z</time>
      </trkpt>
      <trkpt lat="49.81123" lon="4.86306">
        <ele>272</ele>
        <time>2021-07-31T09:18:46.000Z</time>
      </trkpt>
      <trkpt lat="49.81124" lon="4.8631">
        <ele>272</ele>
        <time>2021-07-31T09:18:47.000Z</time>
      </trkpt>
      <trkpt lat="49.81124" lon="4.86313">
        <ele>272</ele>
        <time>2021-07-31T09:18:48.000Z</time>
      </trkpt>
      <trkpt lat="49.81125" lon="4.86317">
        <ele>272</ele>
        <time>2021-07-31T09:18:49.000Z</time>
      </trkpt>
      <trkpt lat="49.81126" lon="4.8632">
        <ele>273</ele>
        <time>2021-07-31T09:18:50.000Z</time>
      </trkpt>
      <trkpt lat="49.81127" lon="4.86324">
        <ele>273</ele>
        <time>2021-07-31T09:18:51.000Z</time>
      </trkpt>
      <trkpt lat="49.81128" lon="4.86328">
        <ele>273</ele>
        <time>2021-07-31T09:18:52.000Z</time>
      </trkpt>
      <trkpt lat="49.81129" lon="4.86332">
        <ele>273</ele>
        <time>2021-07-31T09:18:53.000Z</time>
      </trkpt>
      <trkpt lat="49.81129" lon="4.86336">
        <ele>273</ele>
        <time>2021-07-31T09:18:54.000Z</time>
      </trkpt>
      <trkpt lat="49.8113" lon="4.8634">
        <ele>273</ele>
        <time>2021-07-31T09:18:55.000Z</time>
      </trkpt>
      <trkpt lat="49.81131" lon="4.86344">
        <ele>273</ele>
        <time>2021-07-31T09:18:56.000Z</time>
      </trkpt>
      <trkpt lat="49.81131" lon="4.86347">
        <ele>273</ele>
        <time>2021-07-31T09:18:57.000Z</time>
      </trkpt>
      <trkpt lat="49.81132" lon="4.86351">
        <ele>273</ele>
        <time>2021-07-31T09:18:58.000Z</time>
      </trkpt>
      <trkpt lat="49.81132" lon="4.86355">
        <ele>273</ele>
        <time>2021-07-31T09:18:59.000Z</time>
      </trkpt>
      <trkpt lat="49.81133" lon="4.86359">
        <ele>273</ele>
        <time>2021-07-31T09:19:00.000Z</time>
      </trkpt>
      <trkpt lat="49.81133" lon="4.86363">
        <ele>273</ele>
        <time>2021-07-31T09:19:01.000Z</time>
      </trkpt>
      <trkpt lat="49.81133" lon="4.86367">
        <ele>273</ele>
        <time>2021-07-31T09:19:02.000Z</time>
      </trkpt>
      <trkpt lat="49.81133" lon="4.86371">
        <ele>273</ele>
        <time>2021-07-31T09:19:03.000Z</time>
      </trkpt>
      <trkpt lat="49.81133" lon="4.86375">
        <ele>273</ele>
        <time>2021-07-31T09:19:04.000Z</time>
      </trkpt>
      <trkpt lat="49.81133" lon="4.86379">
        <ele>274</ele>
        <time>2021-07-31T09:19:05.000Z</time>
      </trkpt>
      <trkpt lat="49.81133" lon="4.86384">
        <ele>274</ele>
        <time>2021-07-31T09:19:06.000Z</time>
      </trkpt>
      <trkpt lat="49.81133" lon="4.86388">
        <ele>274</ele>
        <time>2021-07-31T09:19:07.000Z</time>
      </trkpt>
      <trkpt lat="49.81133" lon="4.86392">
        <ele>274</ele>
        <time>2021-07-31T09:19:08.000Z</time>
      </trkpt>
      <trkpt lat="49.81134" lon="4.86395">
        <ele>274</ele>
        <time>2021-07-31T09:19:09.000Z</time>
      </trkpt>
      <trkpt lat="49.81134" lon="4.864">
        <ele>274</ele>
        <time>2021-07-31T09:19:10.000Z</time>
      </trkpt>
      <trkpt lat="49.81134" lon="4.86404">
        <ele>274</ele>
        <time>2021-07-31T09:19:11.000Z</time>
      </trkpt>
      <trkpt lat="49.81134" lon="4.86408">
        <ele>274</ele>
        <time>2021-07-31T09:19:12.000Z</time>
      </trkpt>
      <trkpt lat="49.81134" lon="4.86411">
        <ele>274</ele>
        <time>2021-07-31T09:19:13.000Z</time>
      </trkpt>
      <trkpt lat="49.81133" lon="4.86414">
        <ele>275</ele>
        <time>2021-07-31T09:19:14.000Z</time>
      </trkpt>
      <trkpt lat="49.81132" lon="4.86417">
        <ele>275</ele>
        <time>2021-07-31T09:19:15.000Z</time>
      </trkpt>
      <trkpt lat="49.81131" lon="4.8642">
        <ele>275</ele>
        <time>2021-07-31T09:19:16.000Z</time>
      </trkpt>
      <trkpt lat="49.8113" lon="4.86423">
        <ele>275</ele>
        <time>2021-07-31T09:19:17.000Z</time>
      </trkpt>
      <trkpt lat="49.8113" lon="4.86426">
        <ele>275</ele>
        <time>2021-07-31T09:19:18.000Z</time>
      </trkpt>
      <trkpt lat="49.81129" lon="4.86429">
        <ele>275</ele>
        <time>2021-07-31T09:19:19.000Z</time>
      </trkpt>
      <trkpt lat="49.81128" lon="4.86431">
        <ele>275</ele>
        <time>2021-07-31T09:19:20.000Z</time>
      </trkpt>
      <trkpt lat="49.81126" lon="4.86434">
        <ele>275</ele>
        <time>2021-07-31T09:19:21.000Z</time>
      </trkpt>
      <trkpt lat="49.81125" lon="4.86436">
        <ele>275</ele>
        <time>2021-07-31T09:19:22.000Z</time>
      </trkpt>
      <trkpt lat="49.81124" lon="4.86439">
        <ele>275</ele>
        <time>2021-07-31T09:19:23.000Z</time>
      </trkpt>
      <trkpt lat="49.81122" lon="4.86442">
        <ele>275</ele>
        <time>2021-07-31T09:19:24.000Z</time>
      </trkpt>
      <trkpt lat="49.8112" lon="4.86444">
        <ele>274</ele>
        <time>2021-07-31T09:19:25.000Z</time>
      </trkpt>
      <trkpt lat="49.81118" lon="4.86446">
        <ele>274</ele>
        <time>2021-07-31T09:19:26.000Z</time>
      </trkpt>
      <trkpt lat="49.81117" lon="4.86448">
        <ele>274</ele>
        <time>2021-07-31T09:19:27.000Z</time>
      </trkpt>
      <trkpt lat="49.81115" lon="4.86451">
        <ele>274</ele>
        <time>2021-07-31T09:19:28.000Z</time>
      </trkpt>
      <trkpt lat="49.81113" lon="4.86453">
        <ele>274</ele>
        <time>2021-07-31T09:19:29.000Z</time>
      </trkpt>
      <trkpt lat="49.8111" lon="4.86454">
        <ele>274</ele>
        <time>2021-07-31T09:19:30.000Z</time>
      </trkpt>
      <trkpt lat="49.81108" lon="4.86456">
        <ele>274</ele>
        <time>2021-07-31T09:19:31.000Z</time>
      </trkpt>
      <trkpt lat="49.81106" lon="4.86457">
        <ele>274</ele>
        <time>2021-07-31T09:19:32.000Z</time>
      </trkpt>
      <trkpt lat="49.81104" lon="4.86458">
        <ele>274</ele>
        <time>2021-07-31T09:19:33.000Z</time>
      </trkpt>
      <trkpt lat="49.81101" lon="4.86459">
        <ele>274</ele>
        <time>2021-07-31T09:19:34.000Z</time>
      </trkpt>
      <trkpt lat="49.81099" lon="4.86459">
        <ele>274</ele>
        <time>2021-07-31T09:19:35.000Z</time>
      </trkpt>
      <trkpt lat="49.81097" lon="4.86459">
        <ele>274</ele>
        <time>2021-07-31T09:19:36.000Z</time>
      </trkpt>
      <trkpt lat="49.81095" lon="4.86458">
        <ele>274</ele>
        <time>2021-07-31T09:19:37.000Z</time>
      </trkpt>
      <trkpt lat="49.81093" lon="4.86457">
        <ele>274</ele>
        <time>2021-07-31T09:19:38.000Z</time>
      </trkpt>
      <trkpt lat="49.8109" lon="4.86457">
        <ele>274</ele>
        <time>2021-07-31T09:19:39.000Z</time>
      </trkpt>
      <trkpt lat="49.81089" lon="4.86456">
        <ele>274</ele>
        <time>2021-07-31T09:19:40.000Z</time>
      </trkpt>
      <trkpt lat="49.81087" lon="4.86455">
        <ele>274</ele>
        <time>2021-07-31T09:19:41.000Z</time>
      </trkpt>
      <trkpt lat="49.81085" lon="4.86455">
        <ele>274</ele>
        <time>2021-07-31T09:19:42.000Z</time>
      </trkpt>
      <trkpt lat="49.81083" lon="4.86454">
        <ele>274</ele>
        <time>2021-07-31T09:19:43.000Z</time>
      </trkpt>
      <trkpt lat="49.81081" lon="4.86453">
        <ele>274</ele>
        <time>2021-07-31T09:19:44.000Z</time>
      </trkpt>
      <trkpt lat="49.81079" lon="4.86453">
        <ele>274</ele>
        <time>2021-07-31T09:19:45.000Z</time>
      </trkpt>
      <trkpt lat="49.81077" lon="4.86452">
        <ele>274</ele>
        <time>2021-07-31T09:19:46.000Z</time>
      </trkpt>
      <trkpt lat="49.81075" lon="4.86451">
        <ele>274</ele>
        <time>2021-07-31T09:19:47.000Z</time>
      </trkpt>
      <trkpt lat="49.81073" lon="4.8645">
        <ele>274</ele>
        <time>2021-07-31T09:19:48.000Z</time>
      </trkpt>
      <trkpt lat="49.81072" lon="4.86449">
        <ele>275</ele>
        <time>2021-07-31T09:19:49.000Z</time>
      </trkpt>
      <trkpt lat="49.8107" lon="4.86448">
        <ele>275</ele>
        <time>2021-07-31T09:19:50.000Z</time>
      </trkpt>
      <trkpt lat="49.81068" lon="4.86447">
        <ele>275</ele>
        <time>2021-07-31T09:19:51.000Z</time>
      </trkpt>
      <trkpt lat="49.81066" lon="4.86446">
        <ele>275</ele>
        <time>2021-07-31T09:19:52.000Z</time>
      </trkpt>
      <trkpt lat="49.81064" lon="4.86445">
        <ele>275</ele>
        <time>2021-07-31T09:19:53.000Z</time>
      </trkpt>
      <trkpt lat="49.81062" lon="4.86444">
        <ele>276</ele>
        <time>2021-07-31T09:19:54.000Z</time>
      </trkpt>
      <trkpt lat="49.8106" lon="4.86444">
        <ele>276</ele>
        <time>2021-07-31T09:19:55.000Z</time>
      </trkpt>
      <trkpt lat="49.81058" lon="4.86443">
        <ele>276</ele>
        <time>2021-07-31T09:19:56.000Z</time>
      </trkpt>
      <trkpt lat="49.81057" lon="4.86441">
        <ele>276</ele>
        <time>2021-07-31T09:19:57.000Z</time>
      </trkpt>
      <trkpt lat="49.81055" lon="4.8644">
        <ele>277</ele>
        <time>2021-07-31T09:19:58.000Z</time>
      </trkpt>
      <trkpt lat="49.81053" lon="4.86439">
        <ele>277</ele>
        <time>2021-07-31T09:19:59.000Z</time>
      </trkpt>
      <trkpt lat="49.81051" lon="4.86438">
        <ele>277</ele>
        <time>2021-07-31T09:20:00.000Z</time>
      </trkpt>
      <trkpt lat="49.81049" lon="4.86436">
        <ele>277</ele>
        <time>2021-07-31T09:20:01.000Z</time>
      </trkpt>
      <trkpt lat="49.81048" lon="4.86436">
        <ele>277</ele>
        <time>2021-07-31T09:20:02.000Z</time>
      </trkpt>
      <trkpt lat="49.81046" lon="4.86435">
        <ele>278</ele>
        <time>2021-07-31T09:20:03.000Z</time>
      </trkpt>
      <trkpt lat="49.81045" lon="4.86434">
        <ele>278</ele>
        <time>2021-07-31T09:20:04.000Z</time>
      </trkpt>
      <trkpt lat="49.81043" lon="4.86433">
        <ele>278</ele>
        <time>2021-07-31T09:20:05.000Z</time>
      </trkpt>
      <trkpt lat="49.81041" lon="4.86432">
        <ele>278</ele>
        <time>2021-07-31T09:20:06.000Z</time>
      </trkpt>
      <trkpt lat="49.8104" lon="4.86431">
        <ele>279</ele>
        <time>2021-07-31T09:20:07.000Z</time>
      </trkpt>
      <trkpt lat="49.81038" lon="4.8643">
        <ele>279</ele>
        <time>2021-07-31T09:20:08.000Z</time>
      </trkpt>
      <trkpt lat="49.81037" lon="4.86429">
        <ele>279</ele>
        <time>2021-07-31T09:20:09.000Z</time>
      </trkpt>
      <trkpt lat="49.81035" lon="4.86429">
        <ele>279</ele>
        <time>2021-07-31T09:20:10.000Z</time>
      </trkpt>
      <trkpt lat="49.81034" lon="4.86428">
        <ele>279</ele>
        <time>2021-07-31T09:20:11.000Z</time>
      </trkpt>
      <trkpt lat="49.81032" lon="4.86426">
        <ele>280</ele>
        <time>2021-07-31T09:20:12.000Z</time>
      </trkpt>
      <trkpt lat="49.8103" lon="4.86426">
        <ele>280</ele>
        <time>2021-07-31T09:20:13.000Z</time>
      </trkpt>
      <trkpt lat="49.81029" lon="4.86425">
        <ele>280</ele>
        <time>2021-07-31T09:20:14.000Z</time>
      </trkpt>
      <trkpt lat="49.81027" lon="4.86424">
        <ele>280</ele>
        <time>2021-07-31T09:20:15.000Z</time>
      </trkpt>
      <trkpt lat="49.81026" lon="4.86423">
        <ele>280</ele>
        <time>2021-07-31T09:20:16.000Z</time>
      </trkpt>
      <trkpt lat="49.81024" lon="4.86423">
        <ele>281</ele>
        <time>2021-07-31T09:20:17.000Z</time>
      </trkpt>
      <trkpt lat="49.81023" lon="4.86422">
        <ele>281</ele>
        <time>2021-07-31T09:20:18.000Z</time>
      </trkpt>
      <trkpt lat="49.81022" lon="4.86421">
        <ele>281</ele>
        <time>2021-07-31T09:20:19.000Z</time>
      </trkpt>
      <trkpt lat="49.8102" lon="4.8642">
        <ele>281</ele>
        <time>2021-07-31T09:20:20.000Z</time>
      </trkpt>
      <trkpt lat="49.81018" lon="4.8642">
        <ele>282</ele>
        <time>2021-07-31T09:20:21.000Z</time>
      </trkpt>
      <trkpt lat="49.81016" lon="4.86419">
        <ele>282</ele>
        <time>2021-07-31T09:20:22.000Z</time>
      </trkpt>
      <trkpt lat="49.81015" lon="4.86418">
        <ele>282</ele>
        <time>2021-07-31T09:20:23.000Z</time>
      </trkpt>
      <trkpt lat="49.81013" lon="4.86417">
        <ele>282</ele>
        <time>2021-07-31T09:20:24.000Z</time>
      </trkpt>
      <trkpt lat="49.81012" lon="4.86416">
        <ele>282</ele>
        <time>2021-07-31T09:20:25.000Z</time>
      </trkpt>
      <trkpt lat="49.8101" lon="4.86416">
        <ele>283</ele>
        <time>2021-07-31T09:20:26.000Z</time>
      </trkpt>
      <trkpt lat="49.81009" lon="4.86415">
        <ele>283</ele>
        <time>2021-07-31T09:20:27.000Z</time>
      </trkpt>
      <trkpt lat="49.81007" lon="4.86414">
        <ele>283</ele>
        <time>2021-07-31T09:20:28.000Z</time>
      </trkpt>
      <trkpt lat="49.81006" lon="4.86414">
        <ele>283</ele>
        <time>2021-07-31T09:20:29.000Z</time>
      </trkpt>
      <trkpt lat="49.81004" lon="4.86413">
        <ele>284</ele>
        <time>2021-07-31T09:20:30.000Z</time>
      </trkpt>
      <trkpt lat="49.81003" lon="4.86412">
        <ele>284</ele>
        <time>2021-07-31T09:20:31.000Z</time>
      </trkpt>
      <trkpt lat="49.81001" lon="4.86411">
        <ele>284</ele>
        <time>2021-07-31T09:20:32.000Z</time>
      </trkpt>
      <trkpt lat="49.81" lon="4.8641">
        <ele>285</ele>
        <time>2021-07-31T09:20:33.000Z</time>
      </trkpt>
      <trkpt lat="49.80998" lon="4.86409">
        <ele>285</ele>
        <time>2021-07-31T09:20:34.000Z</time>
      </trkpt>
      <trkpt lat="49.80997" lon="4.86408">
        <ele>285</ele>
        <time>2021-07-31T09:20:35.000Z</time>
      </trkpt>
      <trkpt lat="49.80996" lon="4.86408">
        <ele>285</ele>
        <time>2021-07-31T09:20:36.000Z</time>
      </trkpt>
      <trkpt lat="49.80995" lon="4.86407">
        <ele>286</ele>
        <time>2021-07-31T09:20:37.000Z</time>
      </trkpt>
      <trkpt lat="49.80993" lon="4.86407">
        <ele>286</ele>
        <time>2021-07-31T09:20:38.000Z</time>
      </trkpt>
      <trkpt lat="49.80992" lon="4.86406">
        <ele>286</ele>
        <time>2021-07-31T09:20:39.000Z</time>
      </trkpt>
      <trkpt lat="49.80991" lon="4.86406">
        <ele>286</ele>
        <time>2021-07-31T09:20:40.000Z</time>
      </trkpt>
      <trkpt lat="49.8099" lon="4.86405">
        <ele>286</ele>
        <time>2021-07-31T09:20:41.000Z</time>
      </trkpt>
      <trkpt lat="49.80989" lon="4.86404">
        <ele>286</ele>
        <time>2021-07-31T09:20:42.000Z</time>
      </trkpt>
      <trkpt lat="49.80988" lon="4.86404">
        <ele>286</ele>
        <time>2021-07-31T09:20:43.000Z</time>
      </trkpt>
      <trkpt lat="49.80986" lon="4.86403">
        <ele>286</ele>
        <time>2021-07-31T09:20:44.000Z</time>
      </trkpt>
      <trkpt lat="49.80985" lon="4.86403">
        <ele>287</ele>
        <time>2021-07-31T09:20:45.000Z</time>
      </trkpt>
      <trkpt lat="49.80983" lon="4.86402">
        <ele>287</ele>
        <time>2021-07-31T09:20:46.000Z</time>
      </trkpt>
      <trkpt lat="49.80982" lon="4.86401">
        <ele>287</ele>
        <time>2021-07-31T09:20:47.000Z</time>
      </trkpt>
      <trkpt lat="49.8098" lon="4.864">
        <ele>287</ele>
        <time>2021-07-31T09:20:48.000Z</time>
      </trkpt>
      <trkpt lat="49.80979" lon="4.86399">
        <ele>287</ele>
        <time>2021-07-31T09:20:49.000Z</time>
      </trkpt>
      <trkpt lat="49.80977" lon="4.86399">
        <ele>288</ele>
        <time>2021-07-31T09:20:50.000Z</time>
      </trkpt>
      <trkpt lat="49.80975" lon="4.86398">
        <ele>288</ele>
        <time>2021-07-31T09:20:51.000Z</time>
      </trkpt>
      <trkpt lat="49.80974" lon="4.86397">
        <ele>288</ele>
        <time>2021-07-31T09:20:52.000Z</time>
      </trkpt>
      <trkpt lat="49.80972" lon="4.86397">
        <ele>289</ele>
        <time>2021-07-31T09:20:53.000Z</time>
      </trkpt>
      <trkpt lat="49.8097" lon="4.86396">
        <ele>289</ele>
        <time>2021-07-31T09:20:54.000Z</time>
      </trkpt>
      <trkpt lat="49.80969" lon="4.86395">
        <ele>289</ele>
        <time>2021-07-31T09:20:55.000Z</time>
      </trkpt>
      <trkpt lat="49.80967" lon="4.86394">
        <ele>289</ele>
        <time>2021-07-31T09:20:56.000Z</time>
      </trkpt>
      <trkpt lat="49.80965" lon="4.86394">
        <ele>290</ele>
        <time>2021-07-31T09:20:57.000Z</time>
      </trkpt>
      <trkpt lat="49.80962" lon="4.86392">
        <ele>290</ele>
        <time>2021-07-31T09:20:58.000Z</time>
      </trkpt>
      <trkpt lat="49.8096" lon="4.86392">
        <ele>290</ele>
        <time>2021-07-31T09:20:59.000Z</time>
      </trkpt>
      <trkpt lat="49.80958" lon="4.86391">
        <ele>290</ele>
        <time>2021-07-31T09:21:00.000Z</time>
      </trkpt>
      <trkpt lat="49.80956" lon="4.86389">
        <ele>291</ele>
        <time>2021-07-31T09:21:01.000Z</time>
      </trkpt>
      <trkpt lat="49.80955" lon="4.86389">
        <ele>291</ele>
        <time>2021-07-31T09:21:02.000Z</time>
      </trkpt>
      <trkpt lat="49.80954" lon="4.86388">
        <ele>291</ele>
        <time>2021-07-31T09:21:03.000Z</time>
      </trkpt>
      <trkpt lat="49.80952" lon="4.86387">
        <ele>291</ele>
        <time>2021-07-31T09:21:04.000Z</time>
      </trkpt>
      <trkpt lat="49.8095" lon="4.86386">
        <ele>292</ele>
        <time>2021-07-31T09:21:05.000Z</time>
      </trkpt>
      <trkpt lat="49.80948" lon="4.86385">
        <ele>292</ele>
        <time>2021-07-31T09:21:06.000Z</time>
      </trkpt>
      <trkpt lat="49.80946" lon="4.86384">
        <ele>292</ele>
        <time>2021-07-31T09:21:07.000Z</time>
      </trkpt>
      <trkpt lat="49.80944" lon="4.86383">
        <ele>292</ele>
        <time>2021-07-31T09:21:08.000Z</time>
      </trkpt>
      <trkpt lat="49.80942" lon="4.86382">
        <ele>293</ele>
        <time>2021-07-31T09:21:09.000Z</time>
      </trkpt>
      <trkpt lat="49.80941" lon="4.86382">
        <ele>293</ele>
        <time>2021-07-31T09:21:10.000Z</time>
      </trkpt>
      <trkpt lat="49.80939" lon="4.86382">
        <ele>293</ele>
        <time>2021-07-31T09:21:11.000Z</time>
      </trkpt>
      <trkpt lat="49.80937" lon="4.86382">
        <ele>294</ele>
        <time>2021-07-31T09:21:12.000Z</time>
      </trkpt>
      <trkpt lat="49.80935" lon="4.86382">
        <ele>294</ele>
        <time>2021-07-31T09:21:13.000Z</time>
      </trkpt>
      <trkpt lat="49.80933" lon="4.86382">
        <ele>294</ele>
        <time>2021-07-31T09:21:14.000Z</time>
      </trkpt>
      <trkpt lat="49.80931" lon="4.86384">
        <ele>294</ele>
        <time>2021-07-31T09:21:15.000Z</time>
      </trkpt>
      <trkpt lat="49.8093" lon="4.86385">
        <ele>294</ele>
        <time>2021-07-31T09:21:16.000Z</time>
      </trkpt>
      <trkpt lat="49.80928" lon="4.86385">
        <ele>295</ele>
        <time>2021-07-31T09:21:17.000Z</time>
      </trkpt>
      <trkpt lat="49.80926" lon="4.86386">
        <ele>295</ele>
        <time>2021-07-31T09:21:18.000Z</time>
      </trkpt>
      <trkpt lat="49.80924" lon="4.86387">
        <ele>295</ele>
        <time>2021-07-31T09:21:19.000Z</time>
      </trkpt>
      <trkpt lat="49.80922" lon="4.86388">
        <ele>295</ele>
        <time>2021-07-31T09:21:20.000Z</time>
      </trkpt>
      <trkpt lat="49.8092" lon="4.86389">
        <ele>295</ele>
        <time>2021-07-31T09:21:21.000Z</time>
      </trkpt>
      <trkpt lat="49.80918" lon="4.86391">
        <ele>296</ele>
        <time>2021-07-31T09:21:22.000Z</time>
      </trkpt>
      <trkpt lat="49.80916" lon="4.86393">
        <ele>296</ele>
        <time>2021-07-31T09:21:23.000Z</time>
      </trkpt>
      <trkpt lat="49.80914" lon="4.86395">
        <ele>296</ele>
        <time>2021-07-31T09:21:24.000Z</time>
      </trkpt>
      <trkpt lat="49.80912" lon="4.86398">
        <ele>296</ele>
        <time>2021-07-31T09:21:25.000Z</time>
      </trkpt>
      <trkpt lat="49.8091" lon="4.864">
        <ele>296</ele>
        <time>2021-07-31T09:21:26.000Z</time>
      </trkpt>
      <trkpt lat="49.80909" lon="4.86402">
        <ele>297</ele>
        <time>2021-07-31T09:21:27.000Z</time>
      </trkpt>
      <trkpt lat="49.80907" lon="4.86404">
        <ele>297</ele>
        <time>2021-07-31T09:21:28.000Z</time>
      </trkpt>
      <trkpt lat="49.80906" lon="4.86406">
        <ele>297</ele>
        <time>2021-07-31T09:21:29.000Z</time>
      </trkpt>
      <trkpt lat="49.80904" lon="4.86407">
        <ele>298</ele>
        <time>2021-07-31T09:21:30.000Z</time>
      </trkpt>
      <trkpt lat="49.80903" lon="4.86409">
        <ele>298</ele>
        <time>2021-07-31T09:21:31.000Z</time>
      </trkpt>
      <trkpt lat="49.80901" lon="4.8641">
        <ele>298</ele>
        <time>2021-07-31T09:21:32.000Z</time>
      </trkpt>
      <trkpt lat="49.80899" lon="4.86412">
        <ele>298</ele>
        <time>2021-07-31T09:21:33.000Z</time>
      </trkpt>
      <trkpt lat="49.80898" lon="4.86414">
        <ele>298</ele>
        <time>2021-07-31T09:21:34.000Z</time>
      </trkpt>
      <trkpt lat="49.80896" lon="4.86415">
        <ele>299</ele>
        <time>2021-07-31T09:21:35.000Z</time>
      </trkpt>
      <trkpt lat="49.80894" lon="4.86417">
        <ele>299</ele>
        <time>2021-07-31T09:21:36.000Z</time>
      </trkpt>
      <trkpt lat="49.80893" lon="4.86419">
        <ele>299</ele>
        <time>2021-07-31T09:21:37.000Z</time>
      </trkpt>
      <trkpt lat="49.80891" lon="4.86421">
        <ele>299</ele>
        <time>2021-07-31T09:21:38.000Z</time>
      </trkpt>
      <trkpt lat="49.80889" lon="4.86422">
        <ele>299</ele>
        <time>2021-07-31T09:21:39.000Z</time>
      </trkpt>
      <trkpt lat="49.80887" lon="4.86425">
        <ele>300</ele>
        <time>2021-07-31T09:21:40.000Z</time>
      </trkpt>
      <trkpt lat="49.80885" lon="4.86427">
        <ele>300</ele>
        <time>2021-07-31T09:21:41.000Z</time>
      </trkpt>
      <trkpt lat="49.80883" lon="4.86428">
        <ele>300</ele>
        <time>2021-07-31T09:21:42.000Z</time>
      </trkpt>
      <trkpt lat="49.80881" lon="4.86431">
        <ele>300</ele>
        <time>2021-07-31T09:21:43.000Z</time>
      </trkpt>
      <trkpt lat="49.80879" lon="4.86432">
        <ele>301</ele>
        <time>2021-07-31T09:21:44.000Z</time>
      </trkpt>
      <trkpt lat="49.80877" lon="4.86435">
        <ele>301</ele>
        <time>2021-07-31T09:21:45.000Z</time>
      </trkpt>
      <trkpt lat="49.80875" lon="4.86437">
        <ele>301</ele>
        <time>2021-07-31T09:21:46.000Z</time>
      </trkpt>
      <trkpt lat="49.80873" lon="4.86439">
        <ele>301</ele>
        <time>2021-07-31T09:21:47.000Z</time>
      </trkpt>
      <trkpt lat="49.80872" lon="4.86441">
        <ele>302</ele>
        <time>2021-07-31T09:21:48.000Z</time>
      </trkpt>
      <trkpt lat="49.8087" lon="4.86442">
        <ele>302</ele>
        <time>2021-07-31T09:21:49.000Z</time>
      </trkpt>
      <trkpt lat="49.80869" lon="4.86443">
        <ele>302</ele>
        <time>2021-07-31T09:21:50.000Z</time>
      </trkpt>
      <trkpt lat="49.80868" lon="4.86445">
        <ele>302</ele>
        <time>2021-07-31T09:21:51.000Z</time>
      </trkpt>
      <trkpt lat="49.80868" lon="4.86446">
        <ele>302</ele>
        <time>2021-07-31T09:21:52.000Z</time>
      </trkpt>
      <trkpt lat="49.80867" lon="4.86446">
        <ele>302</ele>
        <time>2021-07-31T09:21:53.000Z</time>
      </trkpt>
      <trkpt lat="49.80867" lon="4.86447">
        <ele>303</ele>
        <time>2021-07-31T09:21:54.000Z</time>
      </trkpt>
      <trkpt lat="49.80866" lon="4.86447">
        <ele>303</ele>
        <time>2021-07-31T09:21:55.000Z</time>
      </trkpt>
      <trkpt lat="49.80866" lon="4.86447">
        <ele>303</ele>
        <time>2021-07-31T09:21:56.000Z</time>
      </trkpt>
      <trkpt lat="49.80866" lon="4.86448">
        <ele>303</ele>
        <time>2021-07-31T09:21:57.000Z</time>
      </trkpt>
      <trkpt lat="49.80866" lon="4.86448">
        <ele>303</ele>
        <time>2021-07-31T09:21:58.000Z</time>
      </trkpt>
      <trkpt lat="49.80866" lon="4.86448">
        <ele>303</ele>
        <time>2021-07-31T09:21:59.000Z</time>
      </trkpt>
      <trkpt lat="49.80866" lon="4.86449">
        <ele>303</ele>
        <time>2021-07-31T09:22:00.000Z</time>
      </trkpt>
      <trkpt lat="49.80865" lon="4.86449">
        <ele>303</ele>
        <time>2021-07-31T09:22:01.000Z</time>
      </trkpt>
      <trkpt lat="49.80865" lon="4.8645">
        <ele>303</ele>
        <time>2021-07-31T09:22:02.000Z</time>
      </trkpt>
      <trkpt lat="49.80864" lon="4.8645">
        <ele>303</ele>
        <time>2021-07-31T09:22:03.000Z</time>
      </trkpt>
      <trkpt lat="49.80864" lon="4.86451">
        <ele>303</ele>
        <time>2021-07-31T09:22:04.000Z</time>
      </trkpt>
      <trkpt lat="49.80863" lon="4.86451">
        <ele>304</ele>
        <time>2021-07-31T09:22:05.000Z</time>
      </trkpt>
      <trkpt lat="49.80863" lon="4.86452">
        <ele>304</ele>
        <time>2021-07-31T09:22:06.000Z</time>
      </trkpt>
      <trkpt lat="49.80863" lon="4.86452">
        <ele>304</ele>
        <time>2021-07-31T09:22:07.000Z</time>
      </trkpt>
      <trkpt lat="49.80863" lon="4.86453">
        <ele>304</ele>
        <time>2021-07-31T09:22:08.000Z</time>
      </trkpt>
      <trkpt lat="49.80863" lon="4.86453">
        <ele>304</ele>
        <time>2021-07-31T09:22:09.000Z</time>
      </trkpt>
      <trkpt lat="49.80862" lon="4.86454">
        <ele>304</ele>
        <time>2021-07-31T09:22:10.000Z</time>
      </trkpt>
      <trkpt lat="49.80862" lon="4.86455">
        <ele>304</ele>
        <time>2021-07-31T09:22:11.000Z</time>
      </trkpt>
      <trkpt lat="49.80861" lon="4.86456">
        <ele>304</ele>
        <time>2021-07-31T09:22:12.000Z</time>
      </trkpt>
      <trkpt lat="49.8086" lon="4.86456">
        <ele>304</ele>
        <time>2021-07-31T09:22:13.000Z</time>
      </trkpt>
      <trkpt lat="49.8086" lon="4.86457">
        <ele>304</ele>
        <time>2021-07-31T09:22:14.000Z</time>
      </trkpt>
      <trkpt lat="49.80858" lon="4.86458">
        <ele>305</ele>
        <time>2021-07-31T09:22:15.000Z</time>
      </trkpt>
      <trkpt lat="49.80857" lon="4.8646">
        <ele>305</ele>
        <time>2021-07-31T09:22:16.000Z</time>
      </trkpt>
      <trkpt lat="49.80856" lon="4.86461">
        <ele>305</ele>
        <time>2021-07-31T09:22:17.000Z</time>
      </trkpt>
      <trkpt lat="49.80855" lon="4.86463">
        <ele>305</ele>
        <time>2021-07-31T09:22:18.000Z</time>
      </trkpt>
      <trkpt lat="49.80854" lon="4.86464">
        <ele>305</ele>
        <time>2021-07-31T09:22:19.000Z</time>
      </trkpt>
      <trkpt lat="49.80852" lon="4.86465">
        <ele>305</ele>
        <time>2021-07-31T09:22:20.000Z</time>
      </trkpt>
      <trkpt lat="49.80851" lon="4.86465">
        <ele>305</ele>
        <time>2021-07-31T09:22:21.000Z</time>
      </trkpt>
      <trkpt lat="49.80851" lon="4.86466">
        <ele>305</ele>
        <time>2021-07-31T09:22:22.000Z</time>
      </trkpt>
      <trkpt lat="49.8085" lon="4.86466">
        <ele>305</ele>
        <time>2021-07-31T09:22:23.000Z</time>
      </trkpt>
      <trkpt lat="49.80849" lon="4.86466">
        <ele>305</ele>
        <time>2021-07-31T09:22:24.000Z</time>
      </trkpt>
      <trkpt lat="49.80848" lon="4.86467">
        <ele>306</ele>
        <time>2021-07-31T09:22:25.000Z</time>
      </trkpt>
      <trkpt lat="49.80846" lon="4.86467">
        <ele>306</ele>
        <time>2021-07-31T09:22:26.000Z</time>
      </trkpt>
      <trkpt lat="49.80846" lon="4.86468">
        <ele>306</ele>
        <time>2021-07-31T09:22:27.000Z</time>
      </trkpt>
      <trkpt lat="49.80845" lon="4.86468">
        <ele>306</ele>
        <time>2021-07-31T09:22:28.000Z</time>
      </trkpt>
      <trkpt lat="49.80844" lon="4.86469">
        <ele>306</ele>
        <time>2021-07-31T09:22:29.000Z</time>
      </trkpt>
      <trkpt lat="49.80844" lon="4.86469">
        <ele>306</ele>
        <time>2021-07-31T09:22:30.000Z</time>
      </trkpt>
      <trkpt lat="49.80843" lon="4.86469">
        <ele>306</ele>
        <time>2021-07-31T09:22:31.000Z</time>
      </trkpt>
      <trkpt lat="49.80843" lon="4.86469">
        <ele>306</ele>
        <time>2021-07-31T09:22:32.000Z</time>
      </trkpt>
      <trkpt lat="49.80843" lon="4.86469">
        <ele>307</ele>
        <time>2021-07-31T09:22:33.000Z</time>
      </trkpt>
      <trkpt lat="49.80843" lon="4.8647">
        <ele>307</ele>
        <time>2021-07-31T09:22:34.000Z</time>
      </trkpt>
      <trkpt lat="49.80843" lon="4.8647">
        <ele>307</ele>
        <time>2021-07-31T09:22:35.000Z</time>
      </trkpt>
      <trkpt lat="49.80843" lon="4.8647">
        <ele>308</ele>
        <time>2021-07-31T09:22:36.000Z</time>
      </trkpt>
      <trkpt lat="49.80843" lon="4.8647">
        <ele>308</ele>
        <time>2021-07-31T09:22:37.000Z</time>
      </trkpt>
      <trkpt lat="49.80843" lon="4.8647">
        <ele>308</ele>
        <time>2021-07-31T09:22:38.000Z</time>
      </trkpt>
      <trkpt lat="49.80843" lon="4.8647">
        <ele>308</ele>
        <time>2021-07-31T09:22:39.000Z</time>
      </trkpt>
      <trkpt lat="49.80843" lon="4.8647">
        <ele>308</ele>
        <time>2021-07-31T09:22:40.000Z</time>
      </trkpt>
      <trkpt lat="49.80843" lon="4.86471">
        <ele>308</ele>
        <time>2021-07-31T09:22:41.000Z</time>
      </trkpt>
      <trkpt lat="49.80843" lon="4.86473">
        <ele>309</ele>
        <time>2021-07-31T09:22:42.000Z</time>
      </trkpt>
      <trkpt lat="49.80843" lon="4.86476">
        <ele>309</ele>
        <time>2021-07-31T09:22:43.000Z</time>
      </trkpt>
      <trkpt lat="49.80844" lon="4.86479">
        <ele>309</ele>
        <time>2021-07-31T09:22:44.000Z</time>
      </trkpt>
      <trkpt lat="49.80845" lon="4.86482">
        <ele>309</ele>
        <time>2021-07-31T09:22:45.000Z</time>
      </trkpt>
      <trkpt lat="49.80846" lon="4.86483">
        <ele>309</ele>
        <time>2021-07-31T09:22:46.000Z</time>
      </trkpt>
      <trkpt lat="49.80848" lon="4.86484">
        <ele>309</ele>
        <time>2021-07-31T09:22:47.000Z</time>
      </trkpt>
      <trkpt lat="49.8085" lon="4.86485">
        <ele>309</ele>
        <time>2021-07-31T09:22:48.000Z</time>
      </trkpt>
      <trkpt lat="49.80851" lon="4.86487">
        <ele>309</ele>
        <time>2021-07-31T09:22:49.000Z</time>
      </trkpt>
      <trkpt lat="49.80852" lon="4.86489">
        <ele>309</ele>
        <time>2021-07-31T09:22:50.000Z</time>
      </trkpt>
      <trkpt lat="49.80854" lon="4.86491">
        <ele>309</ele>
        <time>2021-07-31T09:22:51.000Z</time>
      </trkpt>
      <trkpt lat="49.80857" lon="4.86493">
        <ele>309</ele>
        <time>2021-07-31T09:22:52.000Z</time>
      </trkpt>
      <trkpt lat="49.80859" lon="4.86495">
        <ele>309</ele>
        <time>2021-07-31T09:22:53.000Z</time>
      </trkpt>
      <trkpt lat="49.80861" lon="4.86496">
        <ele>309</ele>
        <time>2021-07-31T09:22:54.000Z</time>
      </trkpt>
      <trkpt lat="49.80861" lon="4.86498">
        <ele>309</ele>
        <time>2021-07-31T09:22:55.000Z</time>
      </trkpt>
      <trkpt lat="49.80862" lon="4.865">
        <ele>309</ele>
        <time>2021-07-31T09:22:56.000Z</time>
      </trkpt>
      <trkpt lat="49.80862" lon="4.86503">
        <ele>308</ele>
        <time>2021-07-31T09:22:57.000Z</time>
      </trkpt>
      <trkpt lat="49.80863" lon="4.86506">
        <ele>308</ele>
        <time>2021-07-31T09:22:58.000Z</time>
      </trkpt>
      <trkpt lat="49.80864" lon="4.8651">
        <ele>308</ele>
        <time>2021-07-31T09:22:59.000Z</time>
      </trkpt>
      <trkpt lat="49.80865" lon="4.86513">
        <ele>308</ele>
        <time>2021-07-31T09:23:00.000Z</time>
      </trkpt>
      <trkpt lat="49.80867" lon="4.86516">
        <ele>308</ele>
        <time>2021-07-31T09:23:01.000Z</time>
      </trkpt>
      <trkpt lat="49.80868" lon="4.86519">
        <ele>308</ele>
        <time>2021-07-31T09:23:02.000Z</time>
      </trkpt>
      <trkpt lat="49.8087" lon="4.86521">
        <ele>307</ele>
        <time>2021-07-31T09:23:03.000Z</time>
      </trkpt>
      <trkpt lat="49.80872" lon="4.86523">
        <ele>307</ele>
        <time>2021-07-31T09:23:04.000Z</time>
      </trkpt>
      <trkpt lat="49.80874" lon="4.86525">
        <ele>307</ele>
        <time>2021-07-31T09:23:05.000Z</time>
      </trkpt>
      <trkpt lat="49.80876" lon="4.86528">
        <ele>307</ele>
        <time>2021-07-31T09:23:06.000Z</time>
      </trkpt>
      <trkpt lat="49.80878" lon="4.86532">
        <ele>307</ele>
        <time>2021-07-31T09:23:07.000Z</time>
      </trkpt>
      <trkpt lat="49.8088" lon="4.86535">
        <ele>307</ele>
        <time>2021-07-31T09:23:08.000Z</time>
      </trkpt>
      <trkpt lat="49.80882" lon="4.86539">
        <ele>307</ele>
        <time>2021-07-31T09:23:09.000Z</time>
      </trkpt>
      <trkpt lat="49.80885" lon="4.86543">
        <ele>306</ele>
        <time>2021-07-31T09:23:10.000Z</time>
      </trkpt>
      <trkpt lat="49.80888" lon="4.86547">
        <ele>306</ele>
        <time>2021-07-31T09:23:11.000Z</time>
      </trkpt>
      <trkpt lat="49.80892" lon="4.86553">
        <ele>306</ele>
        <time>2021-07-31T09:23:12.000Z</time>
      </trkpt>
      <trkpt lat="49.80897" lon="4.8656">
        <ele>306</ele>
        <time>2021-07-31T09:23:13.000Z</time>
      </trkpt>
      <trkpt lat="49.80903" lon="4.86567">
        <ele>305</ele>
        <time>2021-07-31T09:23:14.000Z</time>
      </trkpt>
      <trkpt lat="49.80908" lon="4.86573">
        <ele>305</ele>
        <time>2021-07-31T09:23:15.000Z</time>
      </trkpt>
      <trkpt lat="49.80912" lon="4.86578">
        <ele>305</ele>
        <time>2021-07-31T09:23:16.000Z</time>
      </trkpt>
      <trkpt lat="49.80915" lon="4.86581">
        <ele>305</ele>
        <time>2021-07-31T09:23:17.000Z</time>
      </trkpt>
      <trkpt lat="49.80918" lon="4.86584">
        <ele>304</ele>
        <time>2021-07-31T09:23:18.000Z</time>
      </trkpt>
      <trkpt lat="49.80919" lon="4.86587">
        <ele>304</ele>
        <time>2021-07-31T09:23:19.000Z</time>
      </trkpt>
      <trkpt lat="49.8092" lon="4.86591">
        <ele>304</ele>
        <time>2021-07-31T09:23:20.000Z</time>
      </trkpt>
      <trkpt lat="49.80922" lon="4.86594">
        <ele>304</ele>
        <time>2021-07-31T09:23:21.000Z</time>
      </trkpt>
      <trkpt lat="49.80924" lon="4.86598">
        <ele>304</ele>
        <time>2021-07-31T09:23:22.000Z</time>
      </trkpt>
      <trkpt lat="49.80927" lon="4.86602">
        <ele>303</ele>
        <time>2021-07-31T09:23:23.000Z</time>
      </trkpt>
      <trkpt lat="49.8093" lon="4.86608">
        <ele>303</ele>
        <time>2021-07-31T09:23:24.000Z</time>
      </trkpt>
      <trkpt lat="49.80933" lon="4.86614">
        <ele>303</ele>
        <time>2021-07-31T09:23:25.000Z</time>
      </trkpt>
      <trkpt lat="49.80937" lon="4.86621">
        <ele>303</ele>
        <time>2021-07-31T09:23:26.000Z</time>
      </trkpt>
      <trkpt lat="49.8094" lon="4.86627">
        <ele>302</ele>
        <time>2021-07-31T09:23:27.000Z</time>
      </trkpt>
      <trkpt lat="49.80943" lon="4.86633">
        <ele>302</ele>
        <time>2021-07-31T09:23:28.000Z</time>
      </trkpt>
      <trkpt lat="49.80946" lon="4.86639">
        <ele>302</ele>
        <time>2021-07-31T09:23:29.000Z</time>
      </trkpt>
      <trkpt lat="49.80949" lon="4.86645">
        <ele>302</ele>
        <time>2021-07-31T09:23:30.000Z</time>
      </trkpt>
      <trkpt lat="49.80952" lon="4.8665">
        <ele>301</ele>
        <time>2021-07-31T09:23:31.000Z</time>
      </trkpt>
      <trkpt lat="49.80955" lon="4.86657">
        <ele>301</ele>
        <time>2021-07-31T09:23:32.000Z</time>
      </trkpt>
      <trkpt lat="49.80957" lon="4.86664">
        <ele>301</ele>
        <time>2021-07-31T09:23:33.000Z</time>
      </trkpt>
      <trkpt lat="49.80959" lon="4.86671">
        <ele>300</ele>
        <time>2021-07-31T09:23:34.000Z</time>
      </trkpt>
      <trkpt lat="49.8096" lon="4.86678">
        <ele>300</ele>
        <time>2021-07-31T09:23:35.000Z</time>
      </trkpt>
      <trkpt lat="49.80962" lon="4.86685">
        <ele>300</ele>
        <time>2021-07-31T09:23:36.000Z</time>
      </trkpt>
      <trkpt lat="49.80963" lon="4.86692">
        <ele>300</ele>
        <time>2021-07-31T09:23:37.000Z</time>
      </trkpt>
      <trkpt lat="49.80964" lon="4.86699">
        <ele>299</ele>
        <time>2021-07-31T09:23:38.000Z</time>
      </trkpt>
      <trkpt lat="49.80965" lon="4.86706">
        <ele>299</ele>
        <time>2021-07-31T09:23:39.000Z</time>
      </trkpt>
      <trkpt lat="49.80967" lon="4.86713">
        <ele>299</ele>
        <time>2021-07-31T09:23:40.000Z</time>
      </trkpt>
      <trkpt lat="49.80968" lon="4.8672">
        <ele>299</ele>
        <time>2021-07-31T09:23:41.000Z</time>
      </trkpt>
      <trkpt lat="49.80968" lon="4.86728">
        <ele>298</ele>
        <time>2021-07-31T09:23:42.000Z</time>
      </trkpt>
      <trkpt lat="49.80969" lon="4.86735">
        <ele>298</ele>
        <time>2021-07-31T09:23:43.000Z</time>
      </trkpt>
      <trkpt lat="49.8097" lon="4.86742">
        <ele>298</ele>
        <time>2021-07-31T09:23:44.000Z</time>
      </trkpt>
      <trkpt lat="49.8097" lon="4.86749">
        <ele>298</ele>
        <time>2021-07-31T09:23:45.000Z</time>
      </trkpt>
      <trkpt lat="49.80971" lon="4.86756">
        <ele>298</ele>
        <time>2021-07-31T09:23:46.000Z</time>
      </trkpt>
      <trkpt lat="49.80971" lon="4.86763">
        <ele>297</ele>
        <time>2021-07-31T09:23:47.000Z</time>
      </trkpt>
      <trkpt lat="49.80972" lon="4.86771">
        <ele>297</ele>
        <time>2021-07-31T09:23:48.000Z</time>
      </trkpt>
      <trkpt lat="49.80972" lon="4.86778">
        <ele>297</ele>
        <time>2021-07-31T09:23:49.000Z</time>
      </trkpt>
      <trkpt lat="49.80972" lon="4.86786">
        <ele>297</ele>
        <time>2021-07-31T09:23:50.000Z</time>
      </trkpt>
      <trkpt lat="49.80972" lon="4.86793">
        <ele>297</ele>
        <time>2021-07-31T09:23:51.000Z</time>
      </trkpt>
      <trkpt lat="49.80972" lon="4.86801">
        <ele>297</ele>
        <time>2021-07-31T09:23:52.000Z</time>
      </trkpt>
      <trkpt lat="49.80972" lon="4.8681">
        <ele>296</ele>
        <time>2021-07-31T09:23:53.000Z</time>
      </trkpt>
      <trkpt lat="49.80971" lon="4.86818">
        <ele>296</ele>
        <time>2021-07-31T09:23:54.000Z</time>
      </trkpt>
      <trkpt lat="49.80971" lon="4.86827">
        <ele>296</ele>
        <time>2021-07-31T09:23:55.000Z</time>
      </trkpt>
      <trkpt lat="49.80971" lon="4.86835">
        <ele>296</ele>
        <time>2021-07-31T09:23:56.000Z</time>
      </trkpt>
      <trkpt lat="49.8097" lon="4.86844">
        <ele>295</ele>
        <time>2021-07-31T09:23:57.000Z</time>
      </trkpt>
      <trkpt lat="49.8097" lon="4.86852">
        <ele>295</ele>
        <time>2021-07-31T09:23:58.000Z</time>
      </trkpt>
      <trkpt lat="49.80969" lon="4.8686">
        <ele>295</ele>
        <time>2021-07-31T09:23:59.000Z</time>
      </trkpt>
      <trkpt lat="49.80969" lon="4.86868">
        <ele>294</ele>
        <time>2021-07-31T09:24:00.000Z</time>
      </trkpt>
      <trkpt lat="49.80968" lon="4.86875">
        <ele>294</ele>
        <time>2021-07-31T09:24:01.000Z</time>
      </trkpt>
      <trkpt lat="49.80968" lon="4.86883">
        <ele>294</ele>
        <time>2021-07-31T09:24:02.000Z</time>
      </trkpt>
      <trkpt lat="49.80968" lon="4.8689">
        <ele>294</ele>
        <time>2021-07-31T09:24:03.000Z</time>
      </trkpt>
      <trkpt lat="49.80968" lon="4.86898">
        <ele>294</ele>
        <time>2021-07-31T09:24:04.000Z</time>
      </trkpt>
      <trkpt lat="49.80969" lon="4.86906">
        <ele>294</ele>
        <time>2021-07-31T09:24:05.000Z</time>
      </trkpt>
      <trkpt lat="49.80969" lon="4.86913">
        <ele>293</ele>
        <time>2021-07-31T09:24:06.000Z</time>
      </trkpt>
      <trkpt lat="49.8097" lon="4.86921">
        <ele>293</ele>
        <time>2021-07-31T09:24:07.000Z</time>
      </trkpt>
      <trkpt lat="49.8097" lon="4.86928">
        <ele>293</ele>
        <time>2021-07-31T09:24:08.000Z</time>
      </trkpt>
      <trkpt lat="49.80971" lon="4.86935">
        <ele>293</ele>
        <time>2021-07-31T09:24:09.000Z</time>
      </trkpt>
      <trkpt lat="49.80972" lon="4.86942">
        <ele>293</ele>
        <time>2021-07-31T09:24:10.000Z</time>
      </trkpt>
      <trkpt lat="49.80973" lon="4.86949">
        <ele>293</ele>
        <time>2021-07-31T09:24:11.000Z</time>
      </trkpt>
      <trkpt lat="49.80974" lon="4.86956">
        <ele>293</ele>
        <time>2021-07-31T09:24:12.000Z</time>
      </trkpt>
      <trkpt lat="49.80975" lon="4.86962">
        <ele>293</ele>
        <time>2021-07-31T09:24:13.000Z</time>
      </trkpt>
      <trkpt lat="49.80975" lon="4.86969">
        <ele>293</ele>
        <time>2021-07-31T09:24:14.000Z</time>
      </trkpt>
      <trkpt lat="49.80976" lon="4.86975">
        <ele>293</ele>
        <time>2021-07-31T09:24:15.000Z</time>
      </trkpt>
      <trkpt lat="49.80976" lon="4.8698">
        <ele>293</ele>
        <time>2021-07-31T09:24:16.000Z</time>
      </trkpt>
      <trkpt lat="49.80977" lon="4.86984">
        <ele>293</ele>
        <time>2021-07-31T09:24:17.000Z</time>
      </trkpt>
      <trkpt lat="49.80977" lon="4.86989">
        <ele>293</ele>
        <time>2021-07-31T09:24:18.000Z</time>
      </trkpt>
      <trkpt lat="49.80978" lon="4.86994">
        <ele>293</ele>
        <time>2021-07-31T09:24:19.000Z</time>
      </trkpt>
      <trkpt lat="49.80979" lon="4.86999">
        <ele>293</ele>
        <time>2021-07-31T09:24:20.000Z</time>
      </trkpt>
      <trkpt lat="49.8098" lon="4.87006">
        <ele>293</ele>
        <time>2021-07-31T09:24:21.000Z</time>
      </trkpt>
      <trkpt lat="49.80981" lon="4.87012">
        <ele>293</ele>
        <time>2021-07-31T09:24:22.000Z</time>
      </trkpt>
      <trkpt lat="49.80982" lon="4.87019">
        <ele>293</ele>
        <time>2021-07-31T09:24:23.000Z</time>
      </trkpt>
      <trkpt lat="49.80983" lon="4.87028">
        <ele>293</ele>
        <time>2021-07-31T09:24:24.000Z</time>
      </trkpt>
      <trkpt lat="49.80982" lon="4.87037">
        <ele>293</ele>
        <time>2021-07-31T09:24:25.000Z</time>
      </trkpt>
      <trkpt lat="49.80981" lon="4.87047">
        <ele>293</ele>
        <time>2021-07-31T09:24:26.000Z</time>
      </trkpt>
      <trkpt lat="49.80979" lon="4.87057">
        <ele>293</ele>
        <time>2021-07-31T09:24:27.000Z</time>
      </trkpt>
      <trkpt lat="49.80975" lon="4.87066">
        <ele>292</ele>
        <time>2021-07-31T09:24:28.000Z</time>
      </trkpt>
      <trkpt lat="49.80971" lon="4.87075">
        <ele>292</ele>
        <time>2021-07-31T09:24:29.000Z</time>
      </trkpt>
      <trkpt lat="49.80966" lon="4.87084">
        <ele>292</ele>
        <time>2021-07-31T09:24:30.000Z</time>
      </trkpt>
      <trkpt lat="49.80963" lon="4.87094">
        <ele>292</ele>
        <time>2021-07-31T09:24:31.000Z</time>
      </trkpt>
      <trkpt lat="49.80959" lon="4.87104">
        <ele>291</ele>
        <time>2021-07-31T09:24:32.000Z</time>
      </trkpt>
      <trkpt lat="49.80955" lon="4.87113">
        <ele>291</ele>
        <time>2021-07-31T09:24:33.000Z</time>
      </trkpt>
      <trkpt lat="49.80951" lon="4.87122">
        <ele>291</ele>
        <time>2021-07-31T09:24:34.000Z</time>
      </trkpt>
      <trkpt lat="49.80947" lon="4.87131">
        <ele>290</ele>
        <time>2021-07-31T09:24:35.000Z</time>
      </trkpt>
      <trkpt lat="49.80943" lon="4.87141">
        <ele>290</ele>
        <time>2021-07-31T09:24:36.000Z</time>
      </trkpt>
      <trkpt lat="49.80939" lon="4.87152">
        <ele>290</ele>
        <time>2021-07-31T09:24:37.000Z</time>
      </trkpt>
      <trkpt lat="49.80936" lon="4.87161">
        <ele>289</ele>
        <time>2021-07-31T09:24:38.000Z</time>
      </trkpt>
      <trkpt lat="49.80933" lon="4.87169">
        <ele>289</ele>
        <time>2021-07-31T09:24:39.000Z</time>
      </trkpt>
      <trkpt lat="49.80929" lon="4.87176">
        <ele>289</ele>
        <time>2021-07-31T09:24:40.000Z</time>
      </trkpt>
      <trkpt lat="49.80925" lon="4.87181">
        <ele>289</ele>
        <time>2021-07-31T09:24:41.000Z</time>
      </trkpt>
      <trkpt lat="49.80921" lon="4.87186">
        <ele>288</ele>
        <time>2021-07-31T09:24:42.000Z</time>
      </trkpt>
      <trkpt lat="49.80917" lon="4.87191">
        <ele>288</ele>
        <time>2021-07-31T09:24:43.000Z</time>
      </trkpt>
      <trkpt lat="49.80913" lon="4.87195">
        <ele>288</ele>
        <time>2021-07-31T09:24:44.000Z</time>
      </trkpt>
      <trkpt lat="49.8091" lon="4.872">
        <ele>287</ele>
        <time>2021-07-31T09:24:45.000Z</time>
      </trkpt>
      <trkpt lat="49.80908" lon="4.87205">
        <ele>287</ele>
        <time>2021-07-31T09:24:46.000Z</time>
      </trkpt>
      <trkpt lat="49.80906" lon="4.8721">
        <ele>287</ele>
        <time>2021-07-31T09:24:47.000Z</time>
      </trkpt>
      <trkpt lat="49.80905" lon="4.87215">
        <ele>287</ele>
        <time>2021-07-31T09:24:48.000Z</time>
      </trkpt>
      <trkpt lat="49.80904" lon="4.87222">
        <ele>287</ele>
        <time>2021-07-31T09:24:49.000Z</time>
      </trkpt>
      <trkpt lat="49.80903" lon="4.87229">
        <ele>286</ele>
        <time>2021-07-31T09:24:50.000Z</time>
      </trkpt>
      <trkpt lat="49.80901" lon="4.87236">
        <ele>286</ele>
        <time>2021-07-31T09:24:51.000Z</time>
      </trkpt>
      <trkpt lat="49.80898" lon="4.8724">
        <ele>286</ele>
        <time>2021-07-31T09:24:52.000Z</time>
      </trkpt>
      <trkpt lat="49.80896" lon="4.87243">
        <ele>286</ele>
        <time>2021-07-31T09:24:53.000Z</time>
      </trkpt>
      <trkpt lat="49.80893" lon="4.87245">
        <ele>286</ele>
        <time>2021-07-31T09:24:54.000Z</time>
      </trkpt>
      <trkpt lat="49.8089" lon="4.87248">
        <ele>286</ele>
        <time>2021-07-31T09:24:55.000Z</time>
      </trkpt>
      <trkpt lat="49.80888" lon="4.8725">
        <ele>285</ele>
        <time>2021-07-31T09:24:56.000Z</time>
      </trkpt>
      <trkpt lat="49.80886" lon="4.87254">
        <ele>285</ele>
        <time>2021-07-31T09:24:57.000Z</time>
      </trkpt>
      <trkpt lat="49.80884" lon="4.87257">
        <ele>285</ele>
        <time>2021-07-31T09:24:58.000Z</time>
      </trkpt>
      <trkpt lat="49.80882" lon="4.87259">
        <ele>285</ele>
        <time>2021-07-31T09:24:59.000Z</time>
      </trkpt>
      <trkpt lat="49.80879" lon="4.87261">
        <ele>285</ele>
        <time>2021-07-31T09:25:00.000Z</time>
      </trkpt>
      <trkpt lat="49.80877" lon="4.87263">
        <ele>285</ele>
        <time>2021-07-31T09:25:01.000Z</time>
      </trkpt>
      <trkpt lat="49.80875" lon="4.87266">
        <ele>285</ele>
        <time>2021-07-31T09:25:02.000Z</time>
      </trkpt>
      <trkpt lat="49.80872" lon="4.87269">
        <ele>285</ele>
        <time>2021-07-31T09:25:03.000Z</time>
      </trkpt>
      <trkpt lat="49.8087" lon="4.87272">
        <ele>285</ele>
        <time>2021-07-31T09:25:04.000Z</time>
      </trkpt>
      <trkpt lat="49.80868" lon="4.87274">
        <ele>285</ele>
        <time>2021-07-31T09:25:05.000Z</time>
      </trkpt>
      <trkpt lat="49.80866" lon="4.87276">
        <ele>285</ele>
        <time>2021-07-31T09:25:06.000Z</time>
      </trkpt>
      <trkpt lat="49.80864" lon="4.87278">
        <ele>285</ele>
        <time>2021-07-31T09:25:07.000Z</time>
      </trkpt>
      <trkpt lat="49.80862" lon="4.8728">
        <ele>285</ele>
        <time>2021-07-31T09:25:08.000Z</time>
      </trkpt>
      <trkpt lat="49.80859" lon="4.87282">
        <ele>285</ele>
        <time>2021-07-31T09:25:09.000Z</time>
      </trkpt>
      <trkpt lat="49.80857" lon="4.87285">
        <ele>285</ele>
        <time>2021-07-31T09:25:10.000Z</time>
      </trkpt>
      <trkpt lat="49.80854" lon="4.87287">
        <ele>285</ele>
        <time>2021-07-31T09:25:11.000Z</time>
      </trkpt>
      <trkpt lat="49.80852" lon="4.8729">
        <ele>285</ele>
        <time>2021-07-31T09:25:12.000Z</time>
      </trkpt>
      <trkpt lat="49.8085" lon="4.87292">
        <ele>285</ele>
        <time>2021-07-31T09:25:13.000Z</time>
      </trkpt>
      <trkpt lat="49.80847" lon="4.87295">
        <ele>285</ele>
        <time>2021-07-31T09:25:14.000Z</time>
      </trkpt>
      <trkpt lat="49.80845" lon="4.87298">
        <ele>285</ele>
        <time>2021-07-31T09:25:15.000Z</time>
      </trkpt>
      <trkpt lat="49.80843" lon="4.87302">
        <ele>285</ele>
        <time>2021-07-31T09:25:16.000Z</time>
      </trkpt>
      <trkpt lat="49.80841" lon="4.87305">
        <ele>286</ele>
        <time>2021-07-31T09:25:17.000Z</time>
      </trkpt>
      <trkpt lat="49.80839" lon="4.87308">
        <ele>286</ele>
        <time>2021-07-31T09:25:18.000Z</time>
      </trkpt>
      <trkpt lat="49.80838" lon="4.87311">
        <ele>286</ele>
        <time>2021-07-31T09:25:19.000Z</time>
      </trkpt>
      <trkpt lat="49.80836" lon="4.87313">
        <ele>286</ele>
        <time>2021-07-31T09:25:20.000Z</time>
      </trkpt>
      <trkpt lat="49.80834" lon="4.87316">
        <ele>286</ele>
        <time>2021-07-31T09:25:21.000Z</time>
      </trkpt>
      <trkpt lat="49.80832" lon="4.87319">
        <ele>287</ele>
        <time>2021-07-31T09:25:22.000Z</time>
      </trkpt>
      <trkpt lat="49.80831" lon="4.87323">
        <ele>287</ele>
        <time>2021-07-31T09:25:23.000Z</time>
      </trkpt>
      <trkpt lat="49.80829" lon="4.87326">
        <ele>287</ele>
        <time>2021-07-31T09:25:24.000Z</time>
      </trkpt>
      <trkpt lat="49.80827" lon="4.87328">
        <ele>287</ele>
        <time>2021-07-31T09:25:25.000Z</time>
      </trkpt>
      <trkpt lat="49.80825" lon="4.8733">
        <ele>288</ele>
        <time>2021-07-31T09:25:26.000Z</time>
      </trkpt>
      <trkpt lat="49.80823" lon="4.87331">
        <ele>288</ele>
        <time>2021-07-31T09:25:27.000Z</time>
      </trkpt>
      <trkpt lat="49.80821" lon="4.87331">
        <ele>288</ele>
        <time>2021-07-31T09:25:28.000Z</time>
      </trkpt>
      <trkpt lat="49.8082" lon="4.87329">
        <ele>289</ele>
        <time>2021-07-31T09:25:29.000Z</time>
      </trkpt>
      <trkpt lat="49.80818" lon="4.87327">
        <ele>289</ele>
        <time>2021-07-31T09:25:30.000Z</time>
      </trkpt>
      <trkpt lat="49.80817" lon="4.87324">
        <ele>289</ele>
        <time>2021-07-31T09:25:31.000Z</time>
      </trkpt>
      <trkpt lat="49.80816" lon="4.87321">
        <ele>290</ele>
        <time>2021-07-31T09:25:32.000Z</time>
      </trkpt>
      <trkpt lat="49.80815" lon="4.87317">
        <ele>290</ele>
        <time>2021-07-31T09:25:33.000Z</time>
      </trkpt>
      <trkpt lat="49.80815" lon="4.87313">
        <ele>290</ele>
        <time>2021-07-31T09:25:34.000Z</time>
      </trkpt>
      <trkpt lat="49.80815" lon="4.87308">
        <ele>291</ele>
        <time>2021-07-31T09:25:35.000Z</time>
      </trkpt>
      <trkpt lat="49.80816" lon="4.87304">
        <ele>291</ele>
        <time>2021-07-31T09:25:36.000Z</time>
      </trkpt>
      <trkpt lat="49.80816" lon="4.87301">
        <ele>291</ele>
        <time>2021-07-31T09:25:37.000Z</time>
      </trkpt>
      <trkpt lat="49.80815" lon="4.87297">
        <ele>292</ele>
        <time>2021-07-31T09:25:38.000Z</time>
      </trkpt>
      <trkpt lat="49.80815" lon="4.87293">
        <ele>292</ele>
        <time>2021-07-31T09:25:39.000Z</time>
      </trkpt>
      <trkpt lat="49.80815" lon="4.87289">
        <ele>293</ele>
        <time>2021-07-31T09:25:40.000Z</time>
      </trkpt>
      <trkpt lat="49.80815" lon="4.87285">
        <ele>293</ele>
        <time>2021-07-31T09:25:41.000Z</time>
      </trkpt>
      <trkpt lat="49.80814" lon="4.8728">
        <ele>294</ele>
        <time>2021-07-31T09:25:42.000Z</time>
      </trkpt>
      <trkpt lat="49.80813" lon="4.87276">
        <ele>294</ele>
        <time>2021-07-31T09:25:43.000Z</time>
      </trkpt>
      <trkpt lat="49.80813" lon="4.87271">
        <ele>294</ele>
        <time>2021-07-31T09:25:44.000Z</time>
      </trkpt>
      <trkpt lat="49.80812" lon="4.87266">
        <ele>294</ele>
        <time>2021-07-31T09:25:45.000Z</time>
      </trkpt>
      <trkpt lat="49.80812" lon="4.87261">
        <ele>295</ele>
        <time>2021-07-31T09:25:46.000Z</time>
      </trkpt>
      <trkpt lat="49.80813" lon="4.87256">
        <ele>295</ele>
        <time>2021-07-31T09:25:47.000Z</time>
      </trkpt>
      <trkpt lat="49.80813" lon="4.8725">
        <ele>295</ele>
        <time>2021-07-31T09:25:48.000Z</time>
      </trkpt>
      <trkpt lat="49.80813" lon="4.87245">
        <ele>295</ele>
        <time>2021-07-31T09:25:49.000Z</time>
      </trkpt>
      <trkpt lat="49.80813" lon="4.8724">
        <ele>296</ele>
        <time>2021-07-31T09:25:50.000Z</time>
      </trkpt>
      <trkpt lat="49.80813" lon="4.87235">
        <ele>296</ele>
        <time>2021-07-31T09:25:51.000Z</time>
      </trkpt>
      <trkpt lat="49.80813" lon="4.8723">
        <ele>296</ele>
        <time>2021-07-31T09:25:52.000Z</time>
      </trkpt>
      <trkpt lat="49.80814" lon="4.87226">
        <ele>297</ele>
        <time>2021-07-31T09:25:53.000Z</time>
      </trkpt>
      <trkpt lat="49.80814" lon="4.87223">
        <ele>297</ele>
        <time>2021-07-31T09:25:54.000Z</time>
      </trkpt>
      <trkpt lat="49.80815" lon="4.8722">
        <ele>297</ele>
        <time>2021-07-31T09:25:55.000Z</time>
      </trkpt>
      <trkpt lat="49.80816" lon="4.87217">
        <ele>297</ele>
        <time>2021-07-31T09:25:56.000Z</time>
      </trkpt>
      <trkpt lat="49.80816" lon="4.87213">
        <ele>298</ele>
        <time>2021-07-31T09:25:57.000Z</time>
      </trkpt>
      <trkpt lat="49.80817" lon="4.87209">
        <ele>298</ele>
        <time>2021-07-31T09:25:58.000Z</time>
      </trkpt>
      <trkpt lat="49.80818" lon="4.87205">
        <ele>298</ele>
        <time>2021-07-31T09:25:59.000Z</time>
      </trkpt>
      <trkpt lat="49.8082" lon="4.87201">
        <ele>298</ele>
        <time>2021-07-31T09:26:00.000Z</time>
      </trkpt>
      <trkpt lat="49.80821" lon="4.87197">
        <ele>299</ele>
        <time>2021-07-31T09:26:01.000Z</time>
      </trkpt>
      <trkpt lat="49.80822" lon="4.87193">
        <ele>299</ele>
        <time>2021-07-31T09:26:02.000Z</time>
      </trkpt>
      <trkpt lat="49.80823" lon="4.87189">
        <ele>299</ele>
        <time>2021-07-31T09:26:03.000Z</time>
      </trkpt>
      <trkpt lat="49.80825" lon="4.87185">
        <ele>299</ele>
        <time>2021-07-31T09:26:04.000Z</time>
      </trkpt>
      <trkpt lat="49.80826" lon="4.87181">
        <ele>299</ele>
        <time>2021-07-31T09:26:05.000Z</time>
      </trkpt>
      <trkpt lat="49.80827" lon="4.87177">
        <ele>300</ele>
        <time>2021-07-31T09:26:06.000Z</time>
      </trkpt>
      <trkpt lat="49.80829" lon="4.87173">
        <ele>300</ele>
        <time>2021-07-31T09:26:07.000Z</time>
      </trkpt>
      <trkpt lat="49.80831" lon="4.87169">
        <ele>300</ele>
        <time>2021-07-31T09:26:08.000Z</time>
      </trkpt>
      <trkpt lat="49.80832" lon="4.87166">
        <ele>300</ele>
        <time>2021-07-31T09:26:09.000Z</time>
      </trkpt>
      <trkpt lat="49.80834" lon="4.87163">
        <ele>300</ele>
        <time>2021-07-31T09:26:10.000Z</time>
      </trkpt>
      <trkpt lat="49.80835" lon="4.8716">
        <ele>301</ele>
        <time>2021-07-31T09:26:11.000Z</time>
      </trkpt>
      <trkpt lat="49.80837" lon="4.87158">
        <ele>301</ele>
        <time>2021-07-31T09:26:12.000Z</time>
      </trkpt>
      <trkpt lat="49.80839" lon="4.87155">
        <ele>301</ele>
        <time>2021-07-31T09:26:13.000Z</time>
      </trkpt>
      <trkpt lat="49.8084" lon="4.87152">
        <ele>301</ele>
        <time>2021-07-31T09:26:14.000Z</time>
      </trkpt>
      <trkpt lat="49.80842" lon="4.8715">
        <ele>301</ele>
        <time>2021-07-31T09:26:15.000Z</time>
      </trkpt>
      <trkpt lat="49.80843" lon="4.87148">
        <ele>302</ele>
        <time>2021-07-31T09:26:16.000Z</time>
      </trkpt>
      <trkpt lat="49.80845" lon="4.87146">
        <ele>302</ele>
        <time>2021-07-31T09:26:17.000Z</time>
      </trkpt>
      <trkpt lat="49.80847" lon="4.87144">
        <ele>302</ele>
        <time>2021-07-31T09:26:18.000Z</time>
      </trkpt>
      <trkpt lat="49.80849" lon="4.87142">
        <ele>302</ele>
        <time>2021-07-31T09:26:19.000Z</time>
      </trkpt>
      <trkpt lat="49.80851" lon="4.8714">
        <ele>303</ele>
        <time>2021-07-31T09:26:20.000Z</time>
      </trkpt>
      <trkpt lat="49.80852" lon="4.87139">
        <ele>303</ele>
        <time>2021-07-31T09:26:21.000Z</time>
      </trkpt>
      <trkpt lat="49.80854" lon="4.87137">
        <ele>303</ele>
        <time>2021-07-31T09:26:22.000Z</time>
      </trkpt>
      <trkpt lat="49.80855" lon="4.87135">
        <ele>303</ele>
        <time>2021-07-31T09:26:23.000Z</time>
      </trkpt>
      <trkpt lat="49.80857" lon="4.87133">
        <ele>304</ele>
        <time>2021-07-31T09:26:24.000Z</time>
      </trkpt>
      <trkpt lat="49.80859" lon="4.8713">
        <ele>304</ele>
        <time>2021-07-31T09:26:25.000Z</time>
      </trkpt>
      <trkpt lat="49.8086" lon="4.87128">
        <ele>304</ele>
        <time>2021-07-31T09:26:26.000Z</time>
      </trkpt>
      <trkpt lat="49.80862" lon="4.87126">
        <ele>304</ele>
        <time>2021-07-31T09:26:27.000Z</time>
      </trkpt>
      <trkpt lat="49.80864" lon="4.87124">
        <ele>305</ele>
        <time>2021-07-31T09:26:28.000Z</time>
      </trkpt>
      <trkpt lat="49.80866" lon="4.87122">
        <ele>305</ele>
        <time>2021-07-31T09:26:29.000Z</time>
      </trkpt>
      <trkpt lat="49.80868" lon="4.8712">
        <ele>305</ele>
        <time>2021-07-31T09:26:30.000Z</time>
      </trkpt>
      <trkpt lat="49.80869" lon="4.87118">
        <ele>305</ele>
        <time>2021-07-31T09:26:31.000Z</time>
      </trkpt>
      <trkpt lat="49.80871" lon="4.87116">
        <ele>306</ele>
        <time>2021-07-31T09:26:32.000Z</time>
      </trkpt>
      <trkpt lat="49.80873" lon="4.87114">
        <ele>306</ele>
        <time>2021-07-31T09:26:33.000Z</time>
      </trkpt>
      <trkpt lat="49.80875" lon="4.87112">
        <ele>306</ele>
        <time>2021-07-31T09:26:34.000Z</time>
      </trkpt>
      <trkpt lat="49.80876" lon="4.8711">
        <ele>306</ele>
        <time>2021-07-31T09:26:35.000Z</time>
      </trkpt>
      <trkpt lat="49.80878" lon="4.87108">
        <ele>307</ele>
        <time>2021-07-31T09:26:36.000Z</time>
      </trkpt>
      <trkpt lat="49.8088" lon="4.87106">
        <ele>307</ele>
        <time>2021-07-31T09:26:37.000Z</time>
      </trkpt>
      <trkpt lat="49.80881" lon="4.87103">
        <ele>307</ele>
        <time>2021-07-31T09:26:38.000Z</time>
      </trkpt>
      <trkpt lat="49.80884" lon="4.871">
        <ele>307</ele>
        <time>2021-07-31T09:26:39.000Z</time>
      </trkpt>
      <trkpt lat="49.80886" lon="4.87097">
        <ele>307</ele>
        <time>2021-07-31T09:26:40.000Z</time>
      </trkpt>
      <trkpt lat="49.80888" lon="4.87094">
        <ele>308</ele>
        <time>2021-07-31T09:26:41.000Z</time>
      </trkpt>
      <trkpt lat="49.80891" lon="4.87092">
        <ele>308</ele>
        <time>2021-07-31T09:26:42.000Z</time>
      </trkpt>
      <trkpt lat="49.80893" lon="4.8709">
        <ele>308</ele>
        <time>2021-07-31T09:26:43.000Z</time>
      </trkpt>
      <trkpt lat="49.80895" lon="4.87088">
        <ele>309</ele>
        <time>2021-07-31T09:26:44.000Z</time>
      </trkpt>
      <trkpt lat="49.80897" lon="4.87087">
        <ele>309</ele>
        <time>2021-07-31T09:26:45.000Z</time>
      </trkpt>
      <trkpt lat="49.80899" lon="4.87085">
        <ele>309</ele>
        <time>2021-07-31T09:26:46.000Z</time>
      </trkpt>
      <trkpt lat="49.80901" lon="4.87083">
        <ele>310</ele>
        <time>2021-07-31T09:26:47.000Z</time>
      </trkpt>
      <trkpt lat="49.80903" lon="4.87081">
        <ele>310</ele>
        <time>2021-07-31T09:26:48.000Z</time>
      </trkpt>
      <trkpt lat="49.80905" lon="4.87079">
        <ele>310</ele>
        <time>2021-07-31T09:26:49.000Z</time>
      </trkpt>
      <trkpt lat="49.80906" lon="4.87077">
        <ele>311</ele>
        <time>2021-07-31T09:26:50.000Z</time>
      </trkpt>
      <trkpt lat="49.80908" lon="4.87075">
        <ele>311</ele>
        <time>2021-07-31T09:26:51.000Z</time>
      </trkpt>
      <trkpt lat="49.8091" lon="4.87073">
        <ele>311</ele>
        <time>2021-07-31T09:26:52.000Z</time>
      </trkpt>
      <trkpt lat="49.80911" lon="4.8707">
        <ele>312</ele>
        <time>2021-07-31T09:26:53.000Z</time>
      </trkpt>
      <trkpt lat="49.80913" lon="4.87067">
        <ele>312</ele>
        <time>2021-07-31T09:26:54.000Z</time>
      </trkpt>
      <trkpt lat="49.80915" lon="4.87063">
        <ele>312</ele>
        <time>2021-07-31T09:26:55.000Z</time>
      </trkpt>
      <trkpt lat="49.80916" lon="4.8706">
        <ele>312</ele>
        <time>2021-07-31T09:26:56.000Z</time>
      </trkpt>
      <trkpt lat="49.80918" lon="4.87057">
        <ele>312</ele>
        <time>2021-07-31T09:26:57.000Z</time>
      </trkpt>
      <trkpt lat="49.80919" lon="4.87053">
        <ele>313</ele>
        <time>2021-07-31T09:26:58.000Z</time>
      </trkpt>
      <trkpt lat="49.80921" lon="4.8705">
        <ele>313</ele>
        <time>2021-07-31T09:26:59.000Z</time>
      </trkpt>
      <trkpt lat="49.80922" lon="4.87046">
        <ele>313</ele>
        <time>2021-07-31T09:27:00.000Z</time>
      </trkpt>
      <trkpt lat="49.80923" lon="4.87042">
        <ele>313</ele>
        <time>2021-07-31T09:27:01.000Z</time>
      </trkpt>
      <trkpt lat="49.80923" lon="4.87039">
        <ele>313</ele>
        <time>2021-07-31T09:27:02.000Z</time>
      </trkpt>
      <trkpt lat="49.80923" lon="4.87035">
        <ele>313</ele>
        <time>2021-07-31T09:27:03.000Z</time>
      </trkpt>
      <trkpt lat="49.80923" lon="4.87031">
        <ele>313</ele>
        <time>2021-07-31T09:27:04.000Z</time>
      </trkpt>
      <trkpt lat="49.80922" lon="4.87026">
        <ele>313</ele>
        <time>2021-07-31T09:27:05.000Z</time>
      </trkpt>
      <trkpt lat="49.80921" lon="4.87023">
        <ele>314</ele>
        <time>2021-07-31T09:27:06.000Z</time>
      </trkpt>
      <trkpt lat="49.80921" lon="4.87019">
        <ele>314</ele>
        <time>2021-07-31T09:27:07.000Z</time>
      </trkpt>
      <trkpt lat="49.8092" lon="4.87015">
        <ele>314</ele>
        <time>2021-07-31T09:27:08.000Z</time>
      </trkpt>
      <trkpt lat="49.80919" lon="4.87011">
        <ele>314</ele>
        <time>2021-07-31T09:27:09.000Z</time>
      </trkpt>
      <trkpt lat="49.80919" lon="4.87008">
        <ele>314</ele>
        <time>2021-07-31T09:27:10.000Z</time>
      </trkpt>
      <trkpt lat="49.80918" lon="4.87004">
        <ele>315</ele>
        <time>2021-07-31T09:27:11.000Z</time>
      </trkpt>
      <trkpt lat="49.80917" lon="4.87002">
        <ele>315</ele>
        <time>2021-07-31T09:27:12.000Z</time>
      </trkpt>
      <trkpt lat="49.80916" lon="4.86999">
        <ele>315</ele>
        <time>2021-07-31T09:27:13.000Z</time>
      </trkpt>
      <trkpt lat="49.80916" lon="4.86995">
        <ele>315</ele>
        <time>2021-07-31T09:27:14.000Z</time>
      </trkpt>
      <trkpt lat="49.80915" lon="4.86992">
        <ele>316</ele>
        <time>2021-07-31T09:27:15.000Z</time>
      </trkpt>
      <trkpt lat="49.80914" lon="4.86988">
        <ele>316</ele>
        <time>2021-07-31T09:27:16.000Z</time>
      </trkpt>
      <trkpt lat="49.80914" lon="4.86985">
        <ele>316</ele>
        <time>2021-07-31T09:27:17.000Z</time>
      </trkpt>
      <trkpt lat="49.80913" lon="4.86982">
        <ele>317</ele>
        <time>2021-07-31T09:27:18.000Z</time>
      </trkpt>
      <trkpt lat="49.80912" lon="4.86978">
        <ele>317</ele>
        <time>2021-07-31T09:27:19.000Z</time>
      </trkpt>
      <trkpt lat="49.80911" lon="4.86975">
        <ele>318</ele>
        <time>2021-07-31T09:27:20.000Z</time>
      </trkpt>
      <trkpt lat="49.80911" lon="4.86972">
        <ele>318</ele>
        <time>2021-07-31T09:27:21.000Z</time>
      </trkpt>
      <trkpt lat="49.80911" lon="4.86968">
        <ele>318</ele>
        <time>2021-07-31T09:27:22.000Z</time>
      </trkpt>
      <trkpt lat="49.8091" lon="4.86965">
        <ele>319</ele>
        <time>2021-07-31T09:27:23.000Z</time>
      </trkpt>
      <trkpt lat="49.8091" lon="4.86961">
        <ele>319</ele>
        <time>2021-07-31T09:27:24.000Z</time>
      </trkpt>
      <trkpt lat="49.80909" lon="4.86958">
        <ele>320</ele>
        <time>2021-07-31T09:27:25.000Z</time>
      </trkpt>
      <trkpt lat="49.80908" lon="4.86955">
        <ele>320</ele>
        <time>2021-07-31T09:27:26.000Z</time>
      </trkpt>
      <trkpt lat="49.80908" lon="4.86953">
        <ele>320</ele>
        <time>2021-07-31T09:27:27.000Z</time>
      </trkpt>
      <trkpt lat="49.80908" lon="4.8695">
        <ele>321</ele>
        <time>2021-07-31T09:27:28.000Z</time>
      </trkpt>
      <trkpt lat="49.80907" lon="4.86946">
        <ele>321</ele>
        <time>2021-07-31T09:27:29.000Z</time>
      </trkpt>
      <trkpt lat="49.80907" lon="4.86943">
        <ele>322</ele>
        <time>2021-07-31T09:27:30.000Z</time>
      </trkpt>
      <trkpt lat="49.80906" lon="4.8694">
        <ele>322</ele>
        <time>2021-07-31T09:27:31.000Z</time>
      </trkpt>
      <trkpt lat="49.80905" lon="4.86937">
        <ele>322</ele>
        <time>2021-07-31T09:27:32.000Z</time>
      </trkpt>
      <trkpt lat="49.80904" lon="4.86934">
        <ele>323</ele>
        <time>2021-07-31T09:27:33.000Z</time>
      </trkpt>
      <trkpt lat="49.80904" lon="4.8693">
        <ele>323</ele>
        <time>2021-07-31T09:27:34.000Z</time>
      </trkpt>
      <trkpt lat="49.80903" lon="4.86927">
        <ele>323</ele>
        <time>2021-07-31T09:27:35.000Z</time>
      </trkpt>
      <trkpt lat="49.80902" lon="4.86923">
        <ele>324</ele>
        <time>2021-07-31T09:27:36.000Z</time>
      </trkpt>
      <trkpt lat="49.80902" lon="4.8692">
        <ele>324</ele>
        <time>2021-07-31T09:27:37.000Z</time>
      </trkpt>
      <trkpt lat="49.80901" lon="4.86916">
        <ele>324</ele>
        <time>2021-07-31T09:27:38.000Z</time>
      </trkpt>
      <trkpt lat="49.80901" lon="4.86913">
        <ele>325</ele>
        <time>2021-07-31T09:27:39.000Z</time>
      </trkpt>
      <trkpt lat="49.809" lon="4.86909">
        <ele>325</ele>
        <time>2021-07-31T09:27:40.000Z</time>
      </trkpt>
      <trkpt lat="49.80899" lon="4.86906">
        <ele>325</ele>
        <time>2021-07-31T09:27:41.000Z</time>
      </trkpt>
      <trkpt lat="49.80899" lon="4.86903">
        <ele>326</ele>
        <time>2021-07-31T09:27:42.000Z</time>
      </trkpt>
      <trkpt lat="49.80899" lon="4.869">
        <ele>326</ele>
        <time>2021-07-31T09:27:43.000Z</time>
      </trkpt>
      <trkpt lat="49.80898" lon="4.86897">
        <ele>326</ele>
        <time>2021-07-31T09:27:44.000Z</time>
      </trkpt>
      <trkpt lat="49.80898" lon="4.86893">
        <ele>326</ele>
        <time>2021-07-31T09:27:45.000Z</time>
      </trkpt>
      <trkpt lat="49.80897" lon="4.8689">
        <ele>326</ele>
        <time>2021-07-31T09:27:46.000Z</time>
      </trkpt>
      <trkpt lat="49.80897" lon="4.86886">
        <ele>327</ele>
        <time>2021-07-31T09:27:47.000Z</time>
      </trkpt>
      <trkpt lat="49.80896" lon="4.86882">
        <ele>327</ele>
        <time>2021-07-31T09:27:48.000Z</time>
      </trkpt>
      <trkpt lat="49.80896" lon="4.86879">
        <ele>327</ele>
        <time>2021-07-31T09:27:49.000Z</time>
      </trkpt>
      <trkpt lat="49.80896" lon="4.86876">
        <ele>327</ele>
        <time>2021-07-31T09:27:50.000Z</time>
      </trkpt>
      <trkpt lat="49.80896" lon="4.86873">
        <ele>327</ele>
        <time>2021-07-31T09:27:51.000Z</time>
      </trkpt>
      <trkpt lat="49.80895" lon="4.8687">
        <ele>328</ele>
        <time>2021-07-31T09:27:52.000Z</time>
      </trkpt>
      <trkpt lat="49.80895" lon="4.86866">
        <ele>328</ele>
        <time>2021-07-31T09:27:53.000Z</time>
      </trkpt>
      <trkpt lat="49.80895" lon="4.86863">
        <ele>328</ele>
        <time>2021-07-31T09:27:54.000Z</time>
      </trkpt>
      <trkpt lat="49.80895" lon="4.8686">
        <ele>328</ele>
        <time>2021-07-31T09:27:55.000Z</time>
      </trkpt>
      <trkpt lat="49.80894" lon="4.86857">
        <ele>328</ele>
        <time>2021-07-31T09:27:56.000Z</time>
      </trkpt>
      <trkpt lat="49.80894" lon="4.86853">
        <ele>328</ele>
        <time>2021-07-31T09:27:57.000Z</time>
      </trkpt>
      <trkpt lat="49.80894" lon="4.8685">
        <ele>328</ele>
        <time>2021-07-31T09:27:58.000Z</time>
      </trkpt>
      <trkpt lat="49.80893" lon="4.86846">
        <ele>329</ele>
        <time>2021-07-31T09:27:59.000Z</time>
      </trkpt>
      <trkpt lat="49.80893" lon="4.86842">
        <ele>329</ele>
        <time>2021-07-31T09:28:00.000Z</time>
      </trkpt>
      <trkpt lat="49.80892" lon="4.86839">
        <ele>329</ele>
        <time>2021-07-31T09:28:01.000Z</time>
      </trkpt>
      <trkpt lat="49.80892" lon="4.86835">
        <ele>329</ele>
        <time>2021-07-31T09:28:02.000Z</time>
      </trkpt>
      <trkpt lat="49.80891" lon="4.86831">
        <ele>329</ele>
        <time>2021-07-31T09:28:03.000Z</time>
      </trkpt>
      <trkpt lat="49.80891" lon="4.86826">
        <ele>329</ele>
        <time>2021-07-31T09:28:04.000Z</time>
      </trkpt>
      <trkpt lat="49.8089" lon="4.86822">
        <ele>330</ele>
        <time>2021-07-31T09:28:05.000Z</time>
      </trkpt>
      <trkpt lat="49.8089" lon="4.86818">
        <ele>330</ele>
        <time>2021-07-31T09:28:06.000Z</time>
      </trkpt>
      <trkpt lat="49.80889" lon="4.86814">
        <ele>330</ele>
        <time>2021-07-31T09:28:07.000Z</time>
      </trkpt>
      <trkpt lat="49.80889" lon="4.86811">
        <ele>330</ele>
        <time>2021-07-31T09:28:08.000Z</time>
      </trkpt>
      <trkpt lat="49.80888" lon="4.86808">
        <ele>331</ele>
        <time>2021-07-31T09:28:09.000Z</time>
      </trkpt>
      <trkpt lat="49.80887" lon="4.86804">
        <ele>331</ele>
        <time>2021-07-31T09:28:10.000Z</time>
      </trkpt>
      <trkpt lat="49.80887" lon="4.868">
        <ele>331</ele>
        <time>2021-07-31T09:28:11.000Z</time>
      </trkpt>
      <trkpt lat="49.80886" lon="4.86796">
        <ele>331</ele>
        <time>2021-07-31T09:28:12.000Z</time>
      </trkpt>
      <trkpt lat="49.80885" lon="4.86792">
        <ele>332</ele>
        <time>2021-07-31T09:28:13.000Z</time>
      </trkpt>
      <trkpt lat="49.80884" lon="4.86787">
        <ele>332</ele>
        <time>2021-07-31T09:28:14.000Z</time>
      </trkpt>
      <trkpt lat="49.80883" lon="4.86783">
        <ele>332</ele>
        <time>2021-07-31T09:28:15.000Z</time>
      </trkpt>
      <trkpt lat="49.80882" lon="4.86779">
        <ele>332</ele>
        <time>2021-07-31T09:28:16.000Z</time>
      </trkpt>
      <trkpt lat="49.80881" lon="4.86775">
        <ele>333</ele>
        <time>2021-07-31T09:28:17.000Z</time>
      </trkpt>
      <trkpt lat="49.8088" lon="4.86772">
        <ele>333</ele>
        <time>2021-07-31T09:28:18.000Z</time>
      </trkpt>
      <trkpt lat="49.80878" lon="4.86769">
        <ele>333</ele>
        <time>2021-07-31T09:28:19.000Z</time>
      </trkpt>
      <trkpt lat="49.80877" lon="4.86765">
        <ele>333</ele>
        <time>2021-07-31T09:28:20.000Z</time>
      </trkpt>
      <trkpt lat="49.80875" lon="4.86762">
        <ele>333</ele>
        <time>2021-07-31T09:28:21.000Z</time>
      </trkpt>
      <trkpt lat="49.80873" lon="4.86759">
        <ele>333</ele>
        <time>2021-07-31T09:28:22.000Z</time>
      </trkpt>
      <trkpt lat="49.80871" lon="4.86757">
        <ele>333</ele>
        <time>2021-07-31T09:28:23.000Z</time>
      </trkpt>
      <trkpt lat="49.80869" lon="4.86755">
        <ele>333</ele>
        <time>2021-07-31T09:28:24.000Z</time>
      </trkpt>
      <trkpt lat="49.80867" lon="4.86753">
        <ele>333</ele>
        <time>2021-07-31T09:28:25.000Z</time>
      </trkpt>
      <trkpt lat="49.80865" lon="4.86752">
        <ele>333</ele>
        <time>2021-07-31T09:28:26.000Z</time>
      </trkpt>
      <trkpt lat="49.80863" lon="4.86751">
        <ele>333</ele>
        <time>2021-07-31T09:28:27.000Z</time>
      </trkpt>
      <trkpt lat="49.8086" lon="4.86751">
        <ele>333</ele>
        <time>2021-07-31T09:28:28.000Z</time>
      </trkpt>
      <trkpt lat="49.80858" lon="4.8675">
        <ele>334</ele>
        <time>2021-07-31T09:28:29.000Z</time>
      </trkpt>
      <trkpt lat="49.80856" lon="4.86748">
        <ele>334</ele>
        <time>2021-07-31T09:28:30.000Z</time>
      </trkpt>
      <trkpt lat="49.80855" lon="4.86748">
        <ele>334</ele>
        <time>2021-07-31T09:28:31.000Z</time>
      </trkpt>
      <trkpt lat="49.80855" lon="4.86748">
        <ele>333</ele>
        <time>2021-07-31T09:28:32.000Z</time>
      </trkpt>
      <trkpt lat="49.80855" lon="4.86748">
        <ele>333</ele>
        <time>2021-07-31T09:28:33.000Z</time>
      </trkpt>
      <trkpt lat="49.80855" lon="4.86748">
        <ele>333</ele>
        <time>2021-07-31T09:28:34.000Z</time>
      </trkpt>
      <trkpt lat="49.80855" lon="4.86748">
        <ele>333</ele>
        <time>2021-07-31T09:28:35.000Z</time>
      </trkpt>
      <trkpt lat="49.80854" lon="4.86749">
        <ele>333</ele>
        <time>2021-07-31T09:28:36.000Z</time>
      </trkpt>
      <trkpt lat="49.80854" lon="4.86749">
        <ele>333</ele>
        <time>2021-07-31T09:28:37.000Z</time>
      </trkpt>
      <trkpt lat="49.80854" lon="4.86749">
        <ele>333</ele>
        <time>2021-07-31T09:28:38.000Z</time>
      </trkpt>
      <trkpt lat="49.80854" lon="4.86749">
        <ele>333</ele>
        <time>2021-07-31T09:28:39.000Z</time>
      </trkpt>
      <trkpt lat="49.80854" lon="4.86749">
        <ele>333</ele>
        <time>2021-07-31T09:28:40.000Z</time>
      </trkpt>
      <trkpt lat="49.80854" lon="4.86749">
        <ele>333</ele>
        <time>2021-07-31T09:28:41.000Z</time>
      </trkpt>
      <trkpt lat="49.80854" lon="4.8675">
        <ele>333</ele>
        <time>2021-07-31T09:28:42.000Z</time>
      </trkpt>
      <trkpt lat="49.80853" lon="4.8675">
        <ele>333</ele>
        <time>2021-07-31T09:28:43.000Z</time>
      </trkpt>
      <trkpt lat="49.80853" lon="4.8675">
        <ele>333</ele>
        <time>2021-07-31T09:28:44.000Z</time>
      </trkpt>
      <trkpt lat="49.80853" lon="4.86751">
        <ele>333</ele>
        <time>2021-07-31T09:28:45.000Z</time>
      </trkpt>
      <trkpt lat="49.80853" lon="4.86751">
        <ele>333</ele>
        <time>2021-07-31T09:28:46.000Z</time>
      </trkpt>
      <trkpt lat="49.80853" lon="4.86751">
        <ele>333</ele>
        <time>2021-07-31T09:28:47.000Z</time>
      </trkpt>
      <trkpt lat="49.80853" lon="4.86752">
        <ele>333</ele>
        <time>2021-07-31T09:28:48.000Z</time>
      </trkpt>
      <trkpt lat="49.80852" lon="4.86752">
        <ele>333</ele>
        <time>2021-07-31T09:28:49.000Z</time>
      </trkpt>
      <trkpt lat="49.80852" lon="4.86752">
        <ele>333</ele>
        <time>2021-07-31T09:28:50.000Z</time>
      </trkpt>
      <trkpt lat="49.80852" lon="4.86752">
        <ele>332</ele>
        <time>2021-07-31T09:28:51.000Z</time>
      </trkpt>
      <trkpt lat="49.80852" lon="4.86752">
        <ele>332</ele>
        <time>2021-07-31T09:28:52.000Z</time>
      </trkpt>
      <trkpt lat="49.80852" lon="4.86752">
        <ele>332</ele>
        <time>2021-07-31T09:28:53.000Z</time>
      </trkpt>
      <trkpt lat="49.80852" lon="4.86753">
        <ele>332</ele>
        <time>2021-07-31T09:28:54.000Z</time>
      </trkpt>
      <trkpt lat="49.80852" lon="4.86753">
        <ele>332</ele>
        <time>2021-07-31T09:28:55.000Z</time>
      </trkpt>
      <trkpt lat="49.80852" lon="4.86753">
        <ele>332</ele>
        <time>2021-07-31T09:28:56.000Z</time>
      </trkpt>
      <trkpt lat="49.80852" lon="4.86753">
        <ele>332</ele>
        <time>2021-07-31T09:28:57.000Z</time>
      </trkpt>
      <trkpt lat="49.80852" lon="4.86753">
        <ele>332</ele>
        <time>2021-07-31T09:28:58.000Z</time>
      </trkpt>
      <trkpt lat="49.80852" lon="4.86753">
        <ele>332</ele>
        <time>2021-07-31T09:28:59.000Z</time>
      </trkpt>
      <trkpt lat="49.80852" lon="4.86753">
        <ele>332</ele>
        <time>2021-07-31T09:29:00.000Z</time>
      </trkpt>
      <trkpt lat="49.80852" lon="4.86753">
        <ele>332</ele>
        <time>2021-07-31T09:29:01.000Z</time>
      </trkpt>
      <trkpt lat="49.80852" lon="4.86753">
        <ele>332</ele>
        <time>2021-07-31T09:29:02.000Z</time>
      </trkpt>
      <trkpt lat="49.80852" lon="4.86753">
        <ele>332</ele>
        <time>2021-07-31T09:29:03.000Z</time>
      </trkpt>
      <trkpt lat="49.80852" lon="4.86753">
        <ele>332</ele>
        <time>2021-07-31T09:29:04.000Z</time>
      </trkpt>
      <trkpt lat="49.80852" lon="4.86753">
        <ele>332</ele>
        <time>2021-07-31T09:29:05.000Z</time>
      </trkpt>
      <trkpt lat="49.80852" lon="4.86753">
        <ele>332</ele>
        <time>2021-07-31T09:29:06.000Z</time>
      </trkpt>
      <trkpt lat="49.80852" lon="4.86753">
        <ele>332</ele>
        <time>2021-07-31T09:29:07.000Z</time>
      </trkpt>
      <trkpt lat="49.80851" lon="4.86753">
        <ele>332</ele>
        <time>2021-07-31T09:29:08.000Z</time>
      </trkpt>
      <trkpt lat="49.80851" lon="4.86753">
        <ele>332</ele>
        <time>2021-07-31T09:29:09.000Z</time>
      </trkpt>
      <trkpt lat="49.80851" lon="4.86753">
        <ele>332</ele>
        <time>2021-07-31T09:29:10.000Z</time>
      </trkpt>
      <trkpt lat="49.80851" lon="4.86753">
        <ele>332</ele>
        <time>2021-07-31T09:29:11.000Z</time>
      </trkpt>
      <trkpt lat="49.80851" lon="4.86753">
        <ele>332</ele>
        <time>2021-07-31T09:29:12.000Z</time>
      </trkpt>
      <trkpt lat="49.80851" lon="4.86753">
        <ele>332</ele>
        <time>2021-07-31T09:29:13.000Z</time>
      </trkpt>
      <trkpt lat="49.80851" lon="4.86753">
        <ele>332</ele>
        <time>2021-07-31T09:29:14.000Z</time>
      </trkpt>
      <trkpt lat="49.80851" lon="4.86753">
        <ele>332</ele>
        <time>2021-07-31T09:29:15.000Z</time>
      </trkpt>
      <trkpt lat="49.80851" lon="4.86753">
        <ele>332</ele>
        <time>2021-07-31T09:29:16.000Z</time>
      </trkpt>
      <trkpt lat="49.80851" lon="4.86753">
        <ele>332</ele>
        <time>2021-07-31T09:29:17.000Z</time>
      </trkpt>
      <trkpt lat="49.80851" lon="4.86753">
        <ele>332</ele>
        <time>2021-07-31T09:29:18.000Z</time>
      </trkpt>
      <trkpt lat="49.80851" lon="4.86753">
        <ele>332</ele>
        <time>2021-07-31T09:29:19.000Z</time>
      </trkpt>
      <trkpt lat="49.80851" lon="4.86753">
        <ele>332</ele>
        <time>2021-07-31T09:29:20.000Z</time>
      </trkpt>
      <trkpt lat="49.80851" lon="4.86753">
        <ele>332</ele>
        <time>2021-07-31T09:29:21.000Z</time>
      </trkpt>
      <trkpt lat="49.80851" lon="4.86753">
        <ele>332</ele>
        <time>2021-07-31T09:29:22.000Z</time>
      </trkpt>
      <trkpt lat="49.80851" lon="4.86753">
        <ele>332</ele>
        <time>2021-07-31T09:29:23.000Z</time>
      </trkpt>
      <trkpt lat="49.80851" lon="4.86753">
        <ele>332</ele>
        <time>2021-07-31T09:29:24.000Z</time>
      </trkpt>
      <trkpt lat="49.80851" lon="4.86753">
        <ele>332</ele>
        <time>2021-07-31T09:29:25.000Z</time>
      </trkpt>
      <trkpt lat="49.80851" lon="4.86753">
        <ele>332</ele>
        <time>2021-07-31T09:29:26.000Z</time>
      </trkpt>
      <trkpt lat="49.80851" lon="4.86753">
        <ele>332</ele>
        <time>2021-07-31T09:29:27.000Z</time>
      </trkpt>
      <trkpt lat="49.80851" lon="4.86753">
        <ele>332</ele>
        <time>2021-07-31T09:29:28.000Z</time>
      </trkpt>
      <trkpt lat="49.80851" lon="4.86753">
        <ele>332</ele>
        <time>2021-07-31T09:29:29.000Z</time>
      </trkpt>
      <trkpt lat="49.80851" lon="4.86753">
        <ele>332</ele>
        <time>2021-07-31T09:29:30.000Z</time>
      </trkpt>
      <trkpt lat="49.80851" lon="4.86753">
        <ele>332</ele>
        <time>2021-07-31T09:29:31.000Z</time>
      </trkpt>
      <trkpt lat="49.80851" lon="4.86753">
        <ele>332</ele>
        <time>2021-07-31T09:29:32.000Z</time>
      </trkpt>
      <trkpt lat="49.80851" lon="4.86753">
        <ele>332</ele>
        <time>2021-07-31T09:29:33.000Z</time>
      </trkpt>
      <trkpt lat="49.80851" lon="4.86753">
        <ele>332</ele>
        <time>2021-07-31T09:29:34.000Z</time>
      </trkpt>
      <trkpt lat="49.8085" lon="4.86753">
        <ele>332</ele>
        <time>2021-07-31T09:29:35.000Z</time>
      </trkpt>
      <trkpt lat="49.8085" lon="4.86753">
        <ele>332</ele>
        <time>2021-07-31T09:29:36.000Z</time>
      </trkpt>
      <trkpt lat="49.80851" lon="4.86753">
        <ele>332</ele>
        <time>2021-07-31T09:29:37.000Z</time>
      </trkpt>
      <trkpt lat="49.80851" lon="4.86753">
        <ele>332</ele>
        <time>2021-07-31T09:29:38.000Z</time>
      </trkpt>
      <trkpt lat="49.80851" lon="4.86753">
        <ele>332</ele>
        <time>2021-07-31T09:29:39.000Z</time>
      </trkpt>
      <trkpt lat="49.80851" lon="4.86753">
        <ele>332</ele>
        <time>2021-07-31T09:29:40.000Z</time>
      </trkpt>
      <trkpt lat="49.80851" lon="4.86753">
        <ele>332</ele>
        <time>2021-07-31T09:29:41.000Z</time>
      </trkpt>
      <trkpt lat="49.80851" lon="4.86754">
        <ele>332</ele>
        <time>2021-07-31T09:29:42.000Z</time>
      </trkpt>
      <trkpt lat="49.80851" lon="4.86754">
        <ele>332</ele>
        <time>2021-07-31T09:29:43.000Z</time>
      </trkpt>
      <trkpt lat="49.80851" lon="4.86754">
        <ele>332</ele>
        <time>2021-07-31T09:29:44.000Z</time>
      </trkpt>
      <trkpt lat="49.80851" lon="4.86754">
        <ele>332</ele>
        <time>2021-07-31T09:29:45.000Z</time>
      </trkpt>
      <trkpt lat="49.80851" lon="4.86754">
        <ele>332</ele>
        <time>2021-07-31T09:29:46.000Z</time>
      </trkpt>
      <trkpt lat="49.80851" lon="4.86754">
        <ele>332</ele>
        <time>2021-07-31T09:29:47.000Z</time>
      </trkpt>
      <trkpt lat="49.80851" lon="4.86754">
        <ele>332</ele>
        <time>2021-07-31T09:29:48.000Z</time>
      </trkpt>
      <trkpt lat="49.80851" lon="4.86754">
        <ele>332</ele>
        <time>2021-07-31T09:29:49.000Z</time>
      </trkpt>
      <trkpt lat="49.80851" lon="4.86754">
        <ele>332</ele>
        <time>2021-07-31T09:29:50.000Z</time>
      </trkpt>
      <trkpt lat="49.80851" lon="4.86754">
        <ele>332</ele>
        <time>2021-07-31T09:29:51.000Z</time>
      </trkpt>
      <trkpt lat="49.80851" lon="4.86754">
        <ele>332</ele>
        <time>2021-07-31T09:29:52.000Z</time>
      </trkpt>
      <trkpt lat="49.80851" lon="4.86754">
        <ele>332</ele>
        <time>2021-07-31T09:29:53.000Z</time>
      </trkpt>
      <trkpt lat="49.80851" lon="4.86754">
        <ele>332</ele>
        <time>2021-07-31T09:29:54.000Z</time>
      </trkpt>
      <trkpt lat="49.80851" lon="4.86754">
        <ele>332</ele>
        <time>2021-07-31T09:29:55.000Z</time>
      </trkpt>
      <trkpt lat="49.80851" lon="4.86754">
        <ele>332</ele>
        <time>2021-07-31T09:29:56.000Z</time>
      </trkpt>
      <trkpt lat="49.80851" lon="4.86754">
        <ele>332</ele>
        <time>2021-07-31T09:29:57.000Z</time>
      </trkpt>
      <trkpt lat="49.80851" lon="4.86754">
        <ele>332</ele>
        <time>2021-07-31T09:29:58.000Z</time>
      </trkpt>
      <trkpt lat="49.80851" lon="4.86754">
        <ele>332</ele>
        <time>2021-07-31T09:29:59.000Z</time>
      </trkpt>
      <trkpt lat="49.80851" lon="4.86754">
        <ele>332</ele>
        <time>2021-07-31T09:30:00.000Z</time>
      </trkpt>
      <trkpt lat="49.80851" lon="4.86754">
        <ele>332</ele>
        <time>2021-07-31T09:30:01.000Z</time>
      </trkpt>
      <trkpt lat="49.80851" lon="4.86754">
        <ele>332</ele>
        <time>2021-07-31T09:30:02.000Z</time>
      </trkpt>
      <trkpt lat="49.80851" lon="4.86754">
        <ele>332</ele>
        <time>2021-07-31T09:30:03.000Z</time>
      </trkpt>
      <trkpt lat="49.80851" lon="4.86754">
        <ele>332</ele>
        <time>2021-07-31T09:30:04.000Z</time>
      </trkpt>
      <trkpt lat="49.80851" lon="4.86754">
        <ele>332</ele>
        <time>2021-07-31T09:30:05.000Z</time>
      </trkpt>
      <trkpt lat="49.80851" lon="4.86754">
        <ele>332</ele>
        <time>2021-07-31T09:30:06.000Z</time>
      </trkpt>
      <trkpt lat="49.80851" lon="4.86754">
        <ele>332</ele>
        <time>2021-07-31T09:30:07.000Z</time>
      </trkpt>
      <trkpt lat="49.80851" lon="4.86755">
        <ele>332</ele>
        <time>2021-07-31T09:30:08.000Z</time>
      </trkpt>
      <trkpt lat="49.80851" lon="4.86755">
        <ele>332</ele>
        <time>2021-07-31T09:30:09.000Z</time>
      </trkpt>
      <trkpt lat="49.80851" lon="4.86755">
        <ele>332</ele>
        <time>2021-07-31T09:30:10.000Z</time>
      </trkpt>
      <trkpt lat="49.80851" lon="4.86755">
        <ele>332</ele>
        <time>2021-07-31T09:30:11.000Z</time>
      </trkpt>
      <trkpt lat="49.8085" lon="4.86755">
        <ele>332</ele>
        <time>2021-07-31T09:30:12.000Z</time>
      </trkpt>
      <trkpt lat="49.8085" lon="4.86755">
        <ele>332</ele>
        <time>2021-07-31T09:30:13.000Z</time>
      </trkpt>
      <trkpt lat="49.8085" lon="4.86755">
        <ele>332</ele>
        <time>2021-07-31T09:30:14.000Z</time>
      </trkpt>
      <trkpt lat="49.8085" lon="4.86755">
        <ele>332</ele>
        <time>2021-07-31T09:30:15.000Z</time>
      </trkpt>
      <trkpt lat="49.8085" lon="4.86755">
        <ele>332</ele>
        <time>2021-07-31T09:30:16.000Z</time>
      </trkpt>
      <trkpt lat="49.8085" lon="4.86755">
        <ele>332</ele>
        <time>2021-07-31T09:30:17.000Z</time>
      </trkpt>
      <trkpt lat="49.80849" lon="4.86754">
        <ele>332</ele>
        <time>2021-07-31T09:30:18.000Z</time>
      </trkpt>
      <trkpt lat="49.80849" lon="4.86754">
        <ele>332</ele>
        <time>2021-07-31T09:30:19.000Z</time>
      </trkpt>
      <trkpt lat="49.8085" lon="4.86754">
        <ele>331</ele>
        <time>2021-07-31T09:30:20.000Z</time>
      </trkpt>
      <trkpt lat="49.8085" lon="4.86754">
        <ele>331</ele>
        <time>2021-07-31T09:30:21.000Z</time>
      </trkpt>
      <trkpt lat="49.8085" lon="4.86754">
        <ele>331</ele>
        <time>2021-07-31T09:30:22.000Z</time>
      </trkpt>
      <trkpt lat="49.8085" lon="4.86754">
        <ele>331</ele>
        <time>2021-07-31T09:30:23.000Z</time>
      </trkpt>
      <trkpt lat="49.8085" lon="4.86754">
        <ele>331</ele>
        <time>2021-07-31T09:30:24.000Z</time>
      </trkpt>
      <trkpt lat="49.8085" lon="4.86754">
        <ele>331</ele>
        <time>2021-07-31T09:30:25.000Z</time>
      </trkpt>
      <trkpt lat="49.8085" lon="4.86754">
        <ele>331</ele>
        <time>2021-07-31T09:30:26.000Z</time>
      </trkpt>
      <trkpt lat="49.8085" lon="4.86755">
        <ele>331</ele>
        <time>2021-07-31T09:30:27.000Z</time>
      </trkpt>
      <trkpt lat="49.8085" lon="4.86755">
        <ele>331</ele>
        <time>2021-07-31T09:30:28.000Z</time>
      </trkpt>
      <trkpt lat="49.8085" lon="4.86755">
        <ele>331</ele>
        <time>2021-07-31T09:30:29.000Z</time>
      </trkpt>
      <trkpt lat="49.8085" lon="4.86755">
        <ele>331</ele>
        <time>2021-07-31T09:30:30.000Z</time>
      </trkpt>
      <trkpt lat="49.8085" lon="4.86755">
        <ele>331</ele>
        <time>2021-07-31T09:30:31.000Z</time>
      </trkpt>
      <trkpt lat="49.8085" lon="4.86755">
        <ele>331</ele>
        <time>2021-07-31T09:30:32.000Z</time>
      </trkpt>
      <trkpt lat="49.8085" lon="4.86755">
        <ele>331</ele>
        <time>2021-07-31T09:30:33.000Z</time>
      </trkpt>
      <trkpt lat="49.8085" lon="4.86755">
        <ele>331</ele>
        <time>2021-07-31T09:30:34.000Z</time>
      </trkpt>
      <trkpt lat="49.8085" lon="4.86755">
        <ele>331</ele>
        <time>2021-07-31T09:30:35.000Z</time>
      </trkpt>
      <trkpt lat="49.8085" lon="4.86755">
        <ele>331</ele>
        <time>2021-07-31T09:30:36.000Z</time>
      </trkpt>
      <trkpt lat="49.8085" lon="4.86755">
        <ele>331</ele>
        <time>2021-07-31T09:30:37.000Z</time>
      </trkpt>
      <trkpt lat="49.8085" lon="4.86755">
        <ele>331</ele>
        <time>2021-07-31T09:30:38.000Z</time>
      </trkpt>
      <trkpt lat="49.8085" lon="4.86755">
        <ele>331</ele>
        <time>2021-07-31T09:30:39.000Z</time>
      </trkpt>
      <trkpt lat="49.8085" lon="4.86755">
        <ele>330</ele>
        <time>2021-07-31T09:30:40.000Z</time>
      </trkpt>
      <trkpt lat="49.8085" lon="4.86755">
        <ele>330</ele>
        <time>2021-07-31T09:30:41.000Z</time>
      </trkpt>
      <trkpt lat="49.8085" lon="4.86755">
        <ele>330</ele>
        <time>2021-07-31T09:30:42.000Z</time>
      </trkpt>
      <trkpt lat="49.8085" lon="4.86755">
        <ele>330</ele>
        <time>2021-07-31T09:30:43.000Z</time>
      </trkpt>
      <trkpt lat="49.8085" lon="4.86755">
        <ele>330</ele>
        <time>2021-07-31T09:30:44.000Z</time>
      </trkpt>
      <trkpt lat="49.8085" lon="4.86755">
        <ele>330</ele>
        <time>2021-07-31T09:30:45.000Z</time>
      </trkpt>
      <trkpt lat="49.8085" lon="4.86755">
        <ele>330</ele>
        <time>2021-07-31T09:30:46.000Z</time>
      </trkpt>
      <trkpt lat="49.8085" lon="4.86755">
        <ele>330</ele>
        <time>2021-07-31T09:30:47.000Z</time>
      </trkpt>
      <trkpt lat="49.8085" lon="4.86755">
        <ele>330</ele>
        <time>2021-07-31T09:30:48.000Z</time>
      </trkpt>
      <trkpt lat="49.8085" lon="4.86755">
        <ele>330</ele>
        <time>2021-07-31T09:30:49.000Z</time>
      </trkpt>
      <trkpt lat="49.8085" lon="4.86755">
        <ele>330</ele>
        <time>2021-07-31T09:30:50.000Z</time>
      </trkpt>
      <trkpt lat="49.8085" lon="4.86755">
        <ele>330</ele>
        <time>2021-07-31T09:30:51.000Z</time>
      </trkpt>
      <trkpt lat="49.8085" lon="4.86755">
        <ele>330</ele>
        <time>2021-07-31T09:30:52.000Z</time>
      </trkpt>
      <trkpt lat="49.8085" lon="4.86755">
        <ele>330</ele>
        <time>2021-07-31T09:30:53.000Z</time>
      </trkpt>
      <trkpt lat="49.8085" lon="4.86755">
        <ele>330</ele>
        <time>2021-07-31T09:30:54.000Z</time>
      </trkpt>
      <trkpt lat="49.8085" lon="4.86755">
        <ele>330</ele>
        <time>2021-07-31T09:30:55.000Z</time>
      </trkpt>
      <trkpt lat="49.8085" lon="4.86755">
        <ele>330</ele>
        <time>2021-07-31T09:30:56.000Z</time>
      </trkpt>
      <trkpt lat="49.8085" lon="4.86755">
        <ele>330</ele>
        <time>2021-07-31T09:30:57.000Z</time>
      </trkpt>
      <trkpt lat="49.8085" lon="4.86755">
        <ele>330</ele>
        <time>2021-07-31T09:30:58.000Z</time>
      </trkpt>
      <trkpt lat="49.8085" lon="4.86755">
        <ele>330</ele>
        <time>2021-07-31T09:30:59.000Z</time>
      </trkpt>
      <trkpt lat="49.8085" lon="4.86755">
        <ele>330</ele>
        <time>2021-07-31T09:31:00.000Z</time>
      </trkpt>
      <trkpt lat="49.8085" lon="4.86755">
        <ele>330</ele>
        <time>2021-07-31T09:31:01.000Z</time>
      </trkpt>
      <trkpt lat="49.8085" lon="4.86755">
        <ele>330</ele>
        <time>2021-07-31T09:31:02.000Z</time>
      </trkpt>
      <trkpt lat="49.8085" lon="4.86755">
        <ele>330</ele>
        <time>2021-07-31T09:31:03.000Z</time>
      </trkpt>
      <trkpt lat="49.8085" lon="4.86755">
        <ele>330</ele>
        <time>2021-07-31T09:31:04.000Z</time>
      </trkpt>
      <trkpt lat="49.8085" lon="4.86755">
        <ele>330</ele>
        <time>2021-07-31T09:31:05.000Z</time>
      </trkpt>
      <trkpt lat="49.8085" lon="4.86755">
        <ele>330</ele>
        <time>2021-07-31T09:31:06.000Z</time>
      </trkpt>
      <trkpt lat="49.8085" lon="4.86755">
        <ele>330</ele>
        <time>2021-07-31T09:31:07.000Z</time>
      </trkpt>
      <trkpt lat="49.8085" lon="4.86755">
        <ele>330</ele>
        <time>2021-07-31T09:31:08.000Z</time>
      </trkpt>
      <trkpt lat="49.8085" lon="4.86756">
        <ele>330</ele>
        <time>2021-07-31T09:31:09.000Z</time>
      </trkpt>
      <trkpt lat="49.8085" lon="4.86756">
        <ele>330</ele>
        <time>2021-07-31T09:31:10.000Z</time>
      </trkpt>
      <trkpt lat="49.8085" lon="4.86756">
        <ele>330</ele>
        <time>2021-07-31T09:31:11.000Z</time>
      </trkpt>
      <trkpt lat="49.8085" lon="4.86756">
        <ele>330</ele>
        <time>2021-07-31T09:31:12.000Z</time>
      </trkpt>
      <trkpt lat="49.80849" lon="4.86756">
        <ele>330</ele>
        <time>2021-07-31T09:31:13.000Z</time>
      </trkpt>
      <trkpt lat="49.80849" lon="4.86756">
        <ele>330</ele>
        <time>2021-07-31T09:31:14.000Z</time>
      </trkpt>
      <trkpt lat="49.80849" lon="4.86756">
        <ele>330</ele>
        <time>2021-07-31T09:31:15.000Z</time>
      </trkpt>
      <trkpt lat="49.80849" lon="4.86756">
        <ele>330</ele>
        <time>2021-07-31T09:31:16.000Z</time>
      </trkpt>
      <trkpt lat="49.80849" lon="4.86756">
        <ele>330</ele>
        <time>2021-07-31T09:31:17.000Z</time>
      </trkpt>
      <trkpt lat="49.80849" lon="4.86756">
        <ele>330</ele>
        <time>2021-07-31T09:31:18.000Z</time>
      </trkpt>
      <trkpt lat="49.80849" lon="4.86756">
        <ele>330</ele>
        <time>2021-07-31T09:31:19.000Z</time>
      </trkpt>
      <trkpt lat="49.80848" lon="4.86756">
        <ele>330</ele>
        <time>2021-07-31T09:31:20.000Z</time>
      </trkpt>
      <trkpt lat="49.80847" lon="4.86756">
        <ele>330</ele>
        <time>2021-07-31T09:31:21.000Z</time>
      </trkpt>
      <trkpt lat="49.80845" lon="4.86756">
        <ele>330</ele>
        <time>2021-07-31T09:31:22.000Z</time>
      </trkpt>
      <trkpt lat="49.80843" lon="4.86756">
        <ele>330</ele>
        <time>2021-07-31T09:31:23.000Z</time>
      </trkpt>
      <trkpt lat="49.80842" lon="4.86755">
        <ele>330</ele>
        <time>2021-07-31T09:31:24.000Z</time>
      </trkpt>
      <trkpt lat="49.8084" lon="4.86755">
        <ele>330</ele>
        <time>2021-07-31T09:31:25.000Z</time>
      </trkpt>
      <trkpt lat="49.80838" lon="4.86755">
        <ele>330</ele>
        <time>2021-07-31T09:31:26.000Z</time>
      </trkpt>
      <trkpt lat="49.80835" lon="4.86754">
        <ele>330</ele>
        <time>2021-07-31T09:31:27.000Z</time>
      </trkpt>
      <trkpt lat="49.80832" lon="4.86754">
        <ele>330</ele>
        <time>2021-07-31T09:31:28.000Z</time>
      </trkpt>
      <trkpt lat="49.80828" lon="4.86755">
        <ele>330</ele>
        <time>2021-07-31T09:31:29.000Z</time>
      </trkpt>
      <trkpt lat="49.80824" lon="4.86754">
        <ele>330</ele>
        <time>2021-07-31T09:31:30.000Z</time>
      </trkpt>
      <trkpt lat="49.80821" lon="4.86753">
        <ele>331</ele>
        <time>2021-07-31T09:31:31.000Z</time>
      </trkpt>
      <trkpt lat="49.80816" lon="4.86752">
        <ele>331</ele>
        <time>2021-07-31T09:31:32.000Z</time>
      </trkpt>
      <trkpt lat="49.80812" lon="4.86751">
        <ele>331</ele>
        <time>2021-07-31T09:31:33.000Z</time>
      </trkpt>
      <trkpt lat="49.80808" lon="4.86749">
        <ele>331</ele>
        <time>2021-07-31T09:31:34.000Z</time>
      </trkpt>
      <trkpt lat="49.80803" lon="4.86747">
        <ele>331</ele>
        <time>2021-07-31T09:31:35.000Z</time>
      </trkpt>
      <trkpt lat="49.80799" lon="4.86745">
        <ele>332</ele>
        <time>2021-07-31T09:31:36.000Z</time>
      </trkpt>
      <trkpt lat="49.80795" lon="4.86743">
        <ele>332</ele>
        <time>2021-07-31T09:31:37.000Z</time>
      </trkpt>
      <trkpt lat="49.80791" lon="4.86741">
        <ele>332</ele>
        <time>2021-07-31T09:31:38.000Z</time>
      </trkpt>
      <trkpt lat="49.80786" lon="4.8674">
        <ele>332</ele>
        <time>2021-07-31T09:31:39.000Z</time>
      </trkpt>
      <trkpt lat="49.80782" lon="4.86739">
        <ele>332</ele>
        <time>2021-07-31T09:31:40.000Z</time>
      </trkpt>
      <trkpt lat="49.80777" lon="4.86738">
        <ele>333</ele>
        <time>2021-07-31T09:31:41.000Z</time>
      </trkpt>
      <trkpt lat="49.80771" lon="4.86737">
        <ele>333</ele>
        <time>2021-07-31T09:31:42.000Z</time>
      </trkpt>
      <trkpt lat="49.80765" lon="4.86735">
        <ele>333</ele>
        <time>2021-07-31T09:31:43.000Z</time>
      </trkpt>
      <trkpt lat="49.80759" lon="4.86734">
        <ele>333</ele>
        <time>2021-07-31T09:31:44.000Z</time>
      </trkpt>
      <trkpt lat="49.80753" lon="4.86733">
        <ele>333</ele>
        <time>2021-07-31T09:31:45.000Z</time>
      </trkpt>
      <trkpt lat="49.80747" lon="4.86731">
        <ele>334</ele>
        <time>2021-07-31T09:31:46.000Z</time>
      </trkpt>
      <trkpt lat="49.80741" lon="4.8673">
        <ele>334</ele>
        <time>2021-07-31T09:31:47.000Z</time>
      </trkpt>
      <trkpt lat="49.80735" lon="4.86728">
        <ele>334</ele>
        <time>2021-07-31T09:31:48.000Z</time>
      </trkpt>
      <trkpt lat="49.8073" lon="4.86727">
        <ele>334</ele>
        <time>2021-07-31T09:31:49.000Z</time>
      </trkpt>
      <trkpt lat="49.80725" lon="4.86726">
        <ele>335</ele>
        <time>2021-07-31T09:31:50.000Z</time>
      </trkpt>
      <trkpt lat="49.8072" lon="4.86727">
        <ele>335</ele>
        <time>2021-07-31T09:31:51.000Z</time>
      </trkpt>
      <trkpt lat="49.80716" lon="4.86729">
        <ele>335</ele>
        <time>2021-07-31T09:31:52.000Z</time>
      </trkpt>
      <trkpt lat="49.80713" lon="4.86732">
        <ele>335</ele>
        <time>2021-07-31T09:31:53.000Z</time>
      </trkpt>
      <trkpt lat="49.8071" lon="4.86737">
        <ele>335</ele>
        <time>2021-07-31T09:31:54.000Z</time>
      </trkpt>
      <trkpt lat="49.80708" lon="4.86741">
        <ele>336</ele>
        <time>2021-07-31T09:31:55.000Z</time>
      </trkpt>
      <trkpt lat="49.80707" lon="4.86745">
        <ele>336</ele>
        <time>2021-07-31T09:31:56.000Z</time>
      </trkpt>
      <trkpt lat="49.80705" lon="4.86749">
        <ele>336</ele>
        <time>2021-07-31T09:31:57.000Z</time>
      </trkpt>
      <trkpt lat="49.80703" lon="4.86754">
        <ele>336</ele>
        <time>2021-07-31T09:31:58.000Z</time>
      </trkpt>
      <trkpt lat="49.80702" lon="4.8676">
        <ele>336</ele>
        <time>2021-07-31T09:31:59.000Z</time>
      </trkpt>
      <trkpt lat="49.80702" lon="4.86765">
        <ele>337</ele>
        <time>2021-07-31T09:32:00.000Z</time>
      </trkpt>
      <trkpt lat="49.807" lon="4.8677">
        <ele>337</ele>
        <time>2021-07-31T09:32:01.000Z</time>
      </trkpt>
      <trkpt lat="49.80699" lon="4.86776">
        <ele>337</ele>
        <time>2021-07-31T09:32:02.000Z</time>
      </trkpt>
      <trkpt lat="49.80698" lon="4.86782">
        <ele>337</ele>
        <time>2021-07-31T09:32:03.000Z</time>
      </trkpt>
      <trkpt lat="49.80697" lon="4.86788">
        <ele>338</ele>
        <time>2021-07-31T09:32:04.000Z</time>
      </trkpt>
      <trkpt lat="49.80697" lon="4.86794">
        <ele>338</ele>
        <time>2021-07-31T09:32:05.000Z</time>
      </trkpt>
      <trkpt lat="49.80696" lon="4.86801">
        <ele>338</ele>
        <time>2021-07-31T09:32:06.000Z</time>
      </trkpt>
      <trkpt lat="49.80694" lon="4.86807">
        <ele>338</ele>
        <time>2021-07-31T09:32:07.000Z</time>
      </trkpt>
      <trkpt lat="49.80693" lon="4.86812">
        <ele>339</ele>
        <time>2021-07-31T09:32:08.000Z</time>
      </trkpt>
      <trkpt lat="49.80691" lon="4.86817">
        <ele>339</ele>
        <time>2021-07-31T09:32:09.000Z</time>
      </trkpt>
      <trkpt lat="49.8069" lon="4.86823">
        <ele>339</ele>
        <time>2021-07-31T09:32:10.000Z</time>
      </trkpt>
      <trkpt lat="49.80688" lon="4.86828">
        <ele>339</ele>
        <time>2021-07-31T09:32:11.000Z</time>
      </trkpt>
      <trkpt lat="49.80686" lon="4.86834">
        <ele>340</ele>
        <time>2021-07-31T09:32:12.000Z</time>
      </trkpt>
      <trkpt lat="49.80684" lon="4.8684">
        <ele>340</ele>
        <time>2021-07-31T09:32:13.000Z</time>
      </trkpt>
      <trkpt lat="49.80683" lon="4.86847">
        <ele>340</ele>
        <time>2021-07-31T09:32:14.000Z</time>
      </trkpt>
      <trkpt lat="49.80682" lon="4.86852">
        <ele>341</ele>
        <time>2021-07-31T09:32:15.000Z</time>
      </trkpt>
      <trkpt lat="49.80681" lon="4.86858">
        <ele>341</ele>
        <time>2021-07-31T09:32:16.000Z</time>
      </trkpt>
      <trkpt lat="49.80679" lon="4.86865">
        <ele>341</ele>
        <time>2021-07-31T09:32:17.000Z</time>
      </trkpt>
      <trkpt lat="49.80678" lon="4.86871">
        <ele>341</ele>
        <time>2021-07-31T09:32:18.000Z</time>
      </trkpt>
      <trkpt lat="49.80677" lon="4.86877">
        <ele>342</ele>
        <time>2021-07-31T09:32:19.000Z</time>
      </trkpt>
      <trkpt lat="49.80676" lon="4.86883">
        <ele>342</ele>
        <time>2021-07-31T09:32:20.000Z</time>
      </trkpt>
      <trkpt lat="49.80674" lon="4.86889">
        <ele>342</ele>
        <time>2021-07-31T09:32:21.000Z</time>
      </trkpt>
      <trkpt lat="49.80672" lon="4.86894">
        <ele>342</ele>
        <time>2021-07-31T09:32:22.000Z</time>
      </trkpt>
      <trkpt lat="49.8067" lon="4.86898">
        <ele>342</ele>
        <time>2021-07-31T09:32:23.000Z</time>
      </trkpt>
      <trkpt lat="49.80668" lon="4.86902">
        <ele>343</ele>
        <time>2021-07-31T09:32:24.000Z</time>
      </trkpt>
      <trkpt lat="49.80666" lon="4.86906">
        <ele>343</ele>
        <time>2021-07-31T09:32:25.000Z</time>
      </trkpt>
      <trkpt lat="49.80665" lon="4.86908">
        <ele>343</ele>
        <time>2021-07-31T09:32:26.000Z</time>
      </trkpt>
      <trkpt lat="49.80663" lon="4.86911">
        <ele>343</ele>
        <time>2021-07-31T09:32:27.000Z</time>
      </trkpt>
      <trkpt lat="49.8066" lon="4.86913">
        <ele>344</ele>
        <time>2021-07-31T09:32:28.000Z</time>
      </trkpt>
      <trkpt lat="49.80658" lon="4.86915">
        <ele>344</ele>
        <time>2021-07-31T09:32:29.000Z</time>
      </trkpt>
      <trkpt lat="49.80655" lon="4.86916">
        <ele>344</ele>
        <time>2021-07-31T09:32:30.000Z</time>
      </trkpt>
      <trkpt lat="49.80652" lon="4.86917">
        <ele>344</ele>
        <time>2021-07-31T09:32:31.000Z</time>
      </trkpt>
      <trkpt lat="49.80648" lon="4.86919">
        <ele>344</ele>
        <time>2021-07-31T09:32:32.000Z</time>
      </trkpt>
      <trkpt lat="49.80645" lon="4.86921">
        <ele>344</ele>
        <time>2021-07-31T09:32:33.000Z</time>
      </trkpt>
      <trkpt lat="49.80641" lon="4.86922">
        <ele>344</ele>
        <time>2021-07-31T09:32:34.000Z</time>
      </trkpt>
      <trkpt lat="49.80638" lon="4.86923">
        <ele>344</ele>
        <time>2021-07-31T09:32:35.000Z</time>
      </trkpt>
      <trkpt lat="49.80635" lon="4.86924">
        <ele>344</ele>
        <time>2021-07-31T09:32:36.000Z</time>
      </trkpt>
      <trkpt lat="49.80632" lon="4.86925">
        <ele>344</ele>
        <time>2021-07-31T09:32:37.000Z</time>
      </trkpt>
      <trkpt lat="49.80629" lon="4.86925">
        <ele>344</ele>
        <time>2021-07-31T09:32:38.000Z</time>
      </trkpt>
      <trkpt lat="49.80625" lon="4.86927">
        <ele>344</ele>
        <time>2021-07-31T09:32:39.000Z</time>
      </trkpt>
      <trkpt lat="49.80621" lon="4.86928">
        <ele>344</ele>
        <time>2021-07-31T09:32:40.000Z</time>
      </trkpt>
      <trkpt lat="49.80617" lon="4.86929">
        <ele>344</ele>
        <time>2021-07-31T09:32:41.000Z</time>
      </trkpt>
      <trkpt lat="49.80613" lon="4.86931">
        <ele>344</ele>
        <time>2021-07-31T09:32:42.000Z</time>
      </trkpt>
      <trkpt lat="49.80609" lon="4.86933">
        <ele>344</ele>
        <time>2021-07-31T09:32:43.000Z</time>
      </trkpt>
      <trkpt lat="49.80605" lon="4.86935">
        <ele>344</ele>
        <time>2021-07-31T09:32:44.000Z</time>
      </trkpt>
      <trkpt lat="49.806" lon="4.86937">
        <ele>343</ele>
        <time>2021-07-31T09:32:45.000Z</time>
      </trkpt>
      <trkpt lat="49.80595" lon="4.86939">
        <ele>343</ele>
        <time>2021-07-31T09:32:46.000Z</time>
      </trkpt>
      <trkpt lat="49.8059" lon="4.8694">
        <ele>343</ele>
        <time>2021-07-31T09:32:47.000Z</time>
      </trkpt>
      <trkpt lat="49.80584" lon="4.86942">
        <ele>343</ele>
        <time>2021-07-31T09:32:48.000Z</time>
      </trkpt>
      <trkpt lat="49.80579" lon="4.86944">
        <ele>342</ele>
        <time>2021-07-31T09:32:49.000Z</time>
      </trkpt>
      <trkpt lat="49.80573" lon="4.86945">
        <ele>342</ele>
        <time>2021-07-31T09:32:50.000Z</time>
      </trkpt>
      <trkpt lat="49.80566" lon="4.86947">
        <ele>342</ele>
        <time>2021-07-31T09:32:51.000Z</time>
      </trkpt>
      <trkpt lat="49.80559" lon="4.86949">
        <ele>342</ele>
        <time>2021-07-31T09:32:52.000Z</time>
      </trkpt>
      <trkpt lat="49.80553" lon="4.8695">
        <ele>341</ele>
        <time>2021-07-31T09:32:53.000Z</time>
      </trkpt>
      <trkpt lat="49.80546" lon="4.86952">
        <ele>341</ele>
        <time>2021-07-31T09:32:54.000Z</time>
      </trkpt>
      <trkpt lat="49.80539" lon="4.86953">
        <ele>341</ele>
        <time>2021-07-31T09:32:55.000Z</time>
      </trkpt>
      <trkpt lat="49.80533" lon="4.86953">
        <ele>341</ele>
        <time>2021-07-31T09:32:56.000Z</time>
      </trkpt>
      <trkpt lat="49.80527" lon="4.86953">
        <ele>341</ele>
        <time>2021-07-31T09:32:57.000Z</time>
      </trkpt>
      <trkpt lat="49.80521" lon="4.86953">
        <ele>340</ele>
        <time>2021-07-31T09:32:58.000Z</time>
      </trkpt>
      <trkpt lat="49.80516" lon="4.86954">
        <ele>340</ele>
        <time>2021-07-31T09:32:59.000Z</time>
      </trkpt>
      <trkpt lat="49.80512" lon="4.86954">
        <ele>340</ele>
        <time>2021-07-31T09:33:00.000Z</time>
      </trkpt>
      <trkpt lat="49.80507" lon="4.86954">
        <ele>340</ele>
        <time>2021-07-31T09:33:01.000Z</time>
      </trkpt>
      <trkpt lat="49.80503" lon="4.86954">
        <ele>341</ele>
        <time>2021-07-31T09:33:02.000Z</time>
      </trkpt>
      <trkpt lat="49.80498" lon="4.86953">
        <ele>341</ele>
        <time>2021-07-31T09:33:03.000Z</time>
      </trkpt>
      <trkpt lat="49.80494" lon="4.86953">
        <ele>341</ele>
        <time>2021-07-31T09:33:04.000Z</time>
      </trkpt>
      <trkpt lat="49.80489" lon="4.86953">
        <ele>341</ele>
        <time>2021-07-31T09:33:05.000Z</time>
      </trkpt>
      <trkpt lat="49.80485" lon="4.86952">
        <ele>341</ele>
        <time>2021-07-31T09:33:06.000Z</time>
      </trkpt>
      <trkpt lat="49.8048" lon="4.86952">
        <ele>341</ele>
        <time>2021-07-31T09:33:07.000Z</time>
      </trkpt>
      <trkpt lat="49.80476" lon="4.86951">
        <ele>341</ele>
        <time>2021-07-31T09:33:08.000Z</time>
      </trkpt>
      <trkpt lat="49.80471" lon="4.86951">
        <ele>341</ele>
        <time>2021-07-31T09:33:09.000Z</time>
      </trkpt>
      <trkpt lat="49.80466" lon="4.8695">
        <ele>341</ele>
        <time>2021-07-31T09:33:10.000Z</time>
      </trkpt>
      <trkpt lat="49.80462" lon="4.86949">
        <ele>341</ele>
        <time>2021-07-31T09:33:11.000Z</time>
      </trkpt>
      <trkpt lat="49.80458" lon="4.86949">
        <ele>341</ele>
        <time>2021-07-31T09:33:12.000Z</time>
      </trkpt>
      <trkpt lat="49.80453" lon="4.86948">
        <ele>342</ele>
        <time>2021-07-31T09:33:13.000Z</time>
      </trkpt>
      <trkpt lat="49.80449" lon="4.86948">
        <ele>342</ele>
        <time>2021-07-31T09:33:14.000Z</time>
      </trkpt>
      <trkpt lat="49.80444" lon="4.86947">
        <ele>342</ele>
        <time>2021-07-31T09:33:15.000Z</time>
      </trkpt>
      <trkpt lat="49.8044" lon="4.86946">
        <ele>342</ele>
        <time>2021-07-31T09:33:16.000Z</time>
      </trkpt>
      <trkpt lat="49.80435" lon="4.86945">
        <ele>342</ele>
        <time>2021-07-31T09:33:17.000Z</time>
      </trkpt>
      <trkpt lat="49.8043" lon="4.86945">
        <ele>343</ele>
        <time>2021-07-31T09:33:18.000Z</time>
      </trkpt>
      <trkpt lat="49.80425" lon="4.86945">
        <ele>343</ele>
        <time>2021-07-31T09:33:19.000Z</time>
      </trkpt>
      <trkpt lat="49.8042" lon="4.86944">
        <ele>343</ele>
        <time>2021-07-31T09:33:20.000Z</time>
      </trkpt>
      <trkpt lat="49.80415" lon="4.86943">
        <ele>343</ele>
        <time>2021-07-31T09:33:21.000Z</time>
      </trkpt>
      <trkpt lat="49.8041" lon="4.86941">
        <ele>343</ele>
        <time>2021-07-31T09:33:22.000Z</time>
      </trkpt>
      <trkpt lat="49.80405" lon="4.86939">
        <ele>344</ele>
        <time>2021-07-31T09:33:23.000Z</time>
      </trkpt>
      <trkpt lat="49.804" lon="4.86939">
        <ele>344</ele>
        <time>2021-07-31T09:33:24.000Z</time>
      </trkpt>
      <trkpt lat="49.80395" lon="4.86938">
        <ele>344</ele>
        <time>2021-07-31T09:33:25.000Z</time>
      </trkpt>
      <trkpt lat="49.8039" lon="4.86936">
        <ele>344</ele>
        <time>2021-07-31T09:33:26.000Z</time>
      </trkpt>
      <trkpt lat="49.80385" lon="4.86936">
        <ele>344</ele>
        <time>2021-07-31T09:33:27.000Z</time>
      </trkpt>
      <trkpt lat="49.8038" lon="4.86936">
        <ele>345</ele>
        <time>2021-07-31T09:33:28.000Z</time>
      </trkpt>
      <trkpt lat="49.80375" lon="4.86935">
        <ele>345</ele>
        <time>2021-07-31T09:33:29.000Z</time>
      </trkpt>
      <trkpt lat="49.80371" lon="4.86934">
        <ele>345</ele>
        <time>2021-07-31T09:33:30.000Z</time>
      </trkpt>
      <trkpt lat="49.80367" lon="4.86934">
        <ele>345</ele>
        <time>2021-07-31T09:33:31.000Z</time>
      </trkpt>
      <trkpt lat="49.80363" lon="4.86933">
        <ele>346</ele>
        <time>2021-07-31T09:33:32.000Z</time>
      </trkpt>
      <trkpt lat="49.80359" lon="4.86932">
        <ele>346</ele>
        <time>2021-07-31T09:33:33.000Z</time>
      </trkpt>
      <trkpt lat="49.80355" lon="4.86931">
        <ele>346</ele>
        <time>2021-07-31T09:33:34.000Z</time>
      </trkpt>
      <trkpt lat="49.80351" lon="4.86929">
        <ele>346</ele>
        <time>2021-07-31T09:33:35.000Z</time>
      </trkpt>
      <trkpt lat="49.80347" lon="4.86928">
        <ele>346</ele>
        <time>2021-07-31T09:33:36.000Z</time>
      </trkpt>
      <trkpt lat="49.80343" lon="4.86927">
        <ele>346</ele>
        <time>2021-07-31T09:33:37.000Z</time>
      </trkpt>
      <trkpt lat="49.80339" lon="4.86926">
        <ele>347</ele>
        <time>2021-07-31T09:33:38.000Z</time>
      </trkpt>
      <trkpt lat="49.80336" lon="4.86926">
        <ele>347</ele>
        <time>2021-07-31T09:33:39.000Z</time>
      </trkpt>
      <trkpt lat="49.80332" lon="4.86925">
        <ele>347</ele>
        <time>2021-07-31T09:33:40.000Z</time>
      </trkpt>
      <trkpt lat="49.80328" lon="4.86924">
        <ele>347</ele>
        <time>2021-07-31T09:33:41.000Z</time>
      </trkpt>
      <trkpt lat="49.80323" lon="4.86922">
        <ele>347</ele>
        <time>2021-07-31T09:33:42.000Z</time>
      </trkpt>
      <trkpt lat="49.80319" lon="4.8692">
        <ele>348</ele>
        <time>2021-07-31T09:33:43.000Z</time>
      </trkpt>
      <trkpt lat="49.80314" lon="4.86918">
        <ele>348</ele>
        <time>2021-07-31T09:33:44.000Z</time>
      </trkpt>
      <trkpt lat="49.8031" lon="4.86916">
        <ele>348</ele>
        <time>2021-07-31T09:33:45.000Z</time>
      </trkpt>
      <trkpt lat="49.80305" lon="4.86914">
        <ele>348</ele>
        <time>2021-07-31T09:33:46.000Z</time>
      </trkpt>
      <trkpt lat="49.80301" lon="4.86911">
        <ele>348</ele>
        <time>2021-07-31T09:33:47.000Z</time>
      </trkpt>
      <trkpt lat="49.80297" lon="4.86909">
        <ele>349</ele>
        <time>2021-07-31T09:33:48.000Z</time>
      </trkpt>
      <trkpt lat="49.80293" lon="4.86907">
        <ele>349</ele>
        <time>2021-07-31T09:33:49.000Z</time>
      </trkpt>
      <trkpt lat="49.80289" lon="4.86904">
        <ele>349</ele>
        <time>2021-07-31T09:33:50.000Z</time>
      </trkpt>
      <trkpt lat="49.80286" lon="4.869">
        <ele>349</ele>
        <time>2021-07-31T09:33:51.000Z</time>
      </trkpt>
      <trkpt lat="49.80283" lon="4.86895">
        <ele>350</ele>
        <time>2021-07-31T09:33:52.000Z</time>
      </trkpt>
      <trkpt lat="49.80281" lon="4.8689">
        <ele>350</ele>
        <time>2021-07-31T09:33:53.000Z</time>
      </trkpt>
      <trkpt lat="49.80279" lon="4.86885">
        <ele>350</ele>
        <time>2021-07-31T09:33:54.000Z</time>
      </trkpt>
      <trkpt lat="49.80276" lon="4.86881">
        <ele>350</ele>
        <time>2021-07-31T09:33:55.000Z</time>
      </trkpt>
      <trkpt lat="49.80274" lon="4.86876">
        <ele>350</ele>
        <time>2021-07-31T09:33:56.000Z</time>
      </trkpt>
      <trkpt lat="49.80271" lon="4.86872">
        <ele>351</ele>
        <time>2021-07-31T09:33:57.000Z</time>
      </trkpt>
      <trkpt lat="49.80268" lon="4.86867">
        <ele>351</ele>
        <time>2021-07-31T09:33:58.000Z</time>
      </trkpt>
      <trkpt lat="49.80265" lon="4.86862">
        <ele>351</ele>
        <time>2021-07-31T09:33:59.000Z</time>
      </trkpt>
      <trkpt lat="49.80262" lon="4.86856">
        <ele>351</ele>
        <time>2021-07-31T09:34:00.000Z</time>
      </trkpt>
      <trkpt lat="49.80259" lon="4.86851">
        <ele>351</ele>
        <time>2021-07-31T09:34:01.000Z</time>
      </trkpt>
      <trkpt lat="49.80256" lon="4.86846">
        <ele>351</ele>
        <time>2021-07-31T09:34:02.000Z</time>
      </trkpt>
      <trkpt lat="49.80253" lon="4.86841">
        <ele>351</ele>
        <time>2021-07-31T09:34:03.000Z</time>
      </trkpt>
      <trkpt lat="49.8025" lon="4.86836">
        <ele>350</ele>
        <time>2021-07-31T09:34:04.000Z</time>
      </trkpt>
      <trkpt lat="49.80247" lon="4.86831">
        <ele>350</ele>
        <time>2021-07-31T09:34:05.000Z</time>
      </trkpt>
      <trkpt lat="49.80244" lon="4.86826">
        <ele>350</ele>
        <time>2021-07-31T09:34:06.000Z</time>
      </trkpt>
      <trkpt lat="49.8024" lon="4.86821">
        <ele>350</ele>
        <time>2021-07-31T09:34:07.000Z</time>
      </trkpt>
      <trkpt lat="49.80237" lon="4.86816">
        <ele>350</ele>
        <time>2021-07-31T09:34:08.000Z</time>
      </trkpt>
      <trkpt lat="49.80233" lon="4.86812">
        <ele>350</ele>
        <time>2021-07-31T09:34:09.000Z</time>
      </trkpt>
      <trkpt lat="49.8023" lon="4.86808">
        <ele>350</ele>
        <time>2021-07-31T09:34:10.000Z</time>
      </trkpt>
      <trkpt lat="49.80227" lon="4.86805">
        <ele>350</ele>
        <time>2021-07-31T09:34:11.000Z</time>
      </trkpt>
      <trkpt lat="49.80224" lon="4.86802">
        <ele>350</ele>
        <time>2021-07-31T09:34:12.000Z</time>
      </trkpt>
      <trkpt lat="49.80221" lon="4.86799">
        <ele>350</ele>
        <time>2021-07-31T09:34:13.000Z</time>
      </trkpt>
      <trkpt lat="49.80218" lon="4.86796">
        <ele>350</ele>
        <time>2021-07-31T09:34:14.000Z</time>
      </trkpt>
      <trkpt lat="49.80215" lon="4.86792">
        <ele>350</ele>
        <time>2021-07-31T09:34:15.000Z</time>
      </trkpt>
      <trkpt lat="49.80213" lon="4.86789">
        <ele>350</ele>
        <time>2021-07-31T09:34:16.000Z</time>
      </trkpt>
      <trkpt lat="49.8021" lon="4.86787">
        <ele>350</ele>
        <time>2021-07-31T09:34:17.000Z</time>
      </trkpt>
      <trkpt lat="49.80208" lon="4.86784">
        <ele>350</ele>
        <time>2021-07-31T09:34:18.000Z</time>
      </trkpt>
      <trkpt lat="49.80205" lon="4.86781">
        <ele>350</ele>
        <time>2021-07-31T09:34:19.000Z</time>
      </trkpt>
      <trkpt lat="49.80203" lon="4.86778">
        <ele>350</ele>
        <time>2021-07-31T09:34:20.000Z</time>
      </trkpt>
      <trkpt lat="49.802" lon="4.86775">
        <ele>351</ele>
        <time>2021-07-31T09:34:21.000Z</time>
      </trkpt>
      <trkpt lat="49.80198" lon="4.86772">
        <ele>351</ele>
        <time>2021-07-31T09:34:22.000Z</time>
      </trkpt>
      <trkpt lat="49.80195" lon="4.8677">
        <ele>351</ele>
        <time>2021-07-31T09:34:23.000Z</time>
      </trkpt>
      <trkpt lat="49.80193" lon="4.86767">
        <ele>351</ele>
        <time>2021-07-31T09:34:24.000Z</time>
      </trkpt>
      <trkpt lat="49.80191" lon="4.86765">
        <ele>351</ele>
        <time>2021-07-31T09:34:25.000Z</time>
      </trkpt>
      <trkpt lat="49.8019" lon="4.86763">
        <ele>351</ele>
        <time>2021-07-31T09:34:26.000Z</time>
      </trkpt>
      <trkpt lat="49.80188" lon="4.86762">
        <ele>351</ele>
        <time>2021-07-31T09:34:27.000Z</time>
      </trkpt>
      <trkpt lat="49.80186" lon="4.8676">
        <ele>352</ele>
        <time>2021-07-31T09:34:28.000Z</time>
      </trkpt>
      <trkpt lat="49.80184" lon="4.86759">
        <ele>352</ele>
        <time>2021-07-31T09:34:29.000Z</time>
      </trkpt>
      <trkpt lat="49.80183" lon="4.86757">
        <ele>352</ele>
        <time>2021-07-31T09:34:30.000Z</time>
      </trkpt>
      <trkpt lat="49.80181" lon="4.86756">
        <ele>352</ele>
        <time>2021-07-31T09:34:31.000Z</time>
      </trkpt>
      <trkpt lat="49.80179" lon="4.86755">
        <ele>352</ele>
        <time>2021-07-31T09:34:32.000Z</time>
      </trkpt>
      <trkpt lat="49.80177" lon="4.86754">
        <ele>352</ele>
        <time>2021-07-31T09:34:33.000Z</time>
      </trkpt>
      <trkpt lat="49.80176" lon="4.86753">
        <ele>352</ele>
        <time>2021-07-31T09:34:34.000Z</time>
      </trkpt>
      <trkpt lat="49.80174" lon="4.86752">
        <ele>352</ele>
        <time>2021-07-31T09:34:35.000Z</time>
      </trkpt>
      <trkpt lat="49.80172" lon="4.86751">
        <ele>352</ele>
        <time>2021-07-31T09:34:36.000Z</time>
      </trkpt>
      <trkpt lat="49.80171" lon="4.8675">
        <ele>353</ele>
        <time>2021-07-31T09:34:37.000Z</time>
      </trkpt>
      <trkpt lat="49.80169" lon="4.86749">
        <ele>353</ele>
        <time>2021-07-31T09:34:38.000Z</time>
      </trkpt>
      <trkpt lat="49.80167" lon="4.86748">
        <ele>353</ele>
        <time>2021-07-31T09:34:39.000Z</time>
      </trkpt>
      <trkpt lat="49.80165" lon="4.86747">
        <ele>353</ele>
        <time>2021-07-31T09:34:40.000Z</time>
      </trkpt>
      <trkpt lat="49.80163" lon="4.86746">
        <ele>353</ele>
        <time>2021-07-31T09:34:41.000Z</time>
      </trkpt>
      <trkpt lat="49.80161" lon="4.86746">
        <ele>353</ele>
        <time>2021-07-31T09:34:42.000Z</time>
      </trkpt>
      <trkpt lat="49.80159" lon="4.86745">
        <ele>353</ele>
        <time>2021-07-31T09:34:43.000Z</time>
      </trkpt>
      <trkpt lat="49.80156" lon="4.86745">
        <ele>353</ele>
        <time>2021-07-31T09:34:44.000Z</time>
      </trkpt>
      <trkpt lat="49.80154" lon="4.86744">
        <ele>353</ele>
        <time>2021-07-31T09:34:45.000Z</time>
      </trkpt>
      <trkpt lat="49.80151" lon="4.86743">
        <ele>353</ele>
        <time>2021-07-31T09:34:46.000Z</time>
      </trkpt>
      <trkpt lat="49.80148" lon="4.86742">
        <ele>353</ele>
        <time>2021-07-31T09:34:47.000Z</time>
      </trkpt>
      <trkpt lat="49.80146" lon="4.86742">
        <ele>353</ele>
        <time>2021-07-31T09:34:48.000Z</time>
      </trkpt>
      <trkpt lat="49.80143" lon="4.86742">
        <ele>353</ele>
        <time>2021-07-31T09:34:49.000Z</time>
      </trkpt>
      <trkpt lat="49.80139" lon="4.86741">
        <ele>353</ele>
        <time>2021-07-31T09:34:50.000Z</time>
      </trkpt>
      <trkpt lat="49.80136" lon="4.86741">
        <ele>353</ele>
        <time>2021-07-31T09:34:51.000Z</time>
      </trkpt>
      <trkpt lat="49.80132" lon="4.86741">
        <ele>353</ele>
        <time>2021-07-31T09:34:52.000Z</time>
      </trkpt>
      <trkpt lat="49.80128" lon="4.86741">
        <ele>353</ele>
        <time>2021-07-31T09:34:53.000Z</time>
      </trkpt>
      <trkpt lat="49.80123" lon="4.86742">
        <ele>353</ele>
        <time>2021-07-31T09:34:54.000Z</time>
      </trkpt>
      <trkpt lat="49.80119" lon="4.86744">
        <ele>353</ele>
        <time>2021-07-31T09:34:55.000Z</time>
      </trkpt>
      <trkpt lat="49.80115" lon="4.86747">
        <ele>353</ele>
        <time>2021-07-31T09:34:56.000Z</time>
      </trkpt>
      <trkpt lat="49.80111" lon="4.8675">
        <ele>353</ele>
        <time>2021-07-31T09:34:57.000Z</time>
      </trkpt>
      <trkpt lat="49.80106" lon="4.86753">
        <ele>353</ele>
        <time>2021-07-31T09:34:58.000Z</time>
      </trkpt>
      <trkpt lat="49.80102" lon="4.86756">
        <ele>353</ele>
        <time>2021-07-31T09:34:59.000Z</time>
      </trkpt>
      <trkpt lat="49.80097" lon="4.86759">
        <ele>353</ele>
        <time>2021-07-31T09:35:00.000Z</time>
      </trkpt>
      <trkpt lat="49.80093" lon="4.86761">
        <ele>353</ele>
        <time>2021-07-31T09:35:01.000Z</time>
      </trkpt>
      <trkpt lat="49.80088" lon="4.86765">
        <ele>353</ele>
        <time>2021-07-31T09:35:02.000Z</time>
      </trkpt>
      <trkpt lat="49.80083" lon="4.86768">
        <ele>353</ele>
        <time>2021-07-31T09:35:03.000Z</time>
      </trkpt>
      <trkpt lat="49.80078" lon="4.86771">
        <ele>354</ele>
        <time>2021-07-31T09:35:04.000Z</time>
      </trkpt>
      <trkpt lat="49.80074" lon="4.86773">
        <ele>354</ele>
        <time>2021-07-31T09:35:05.000Z</time>
      </trkpt>
      <trkpt lat="49.8007" lon="4.86774">
        <ele>354</ele>
        <time>2021-07-31T09:35:06.000Z</time>
      </trkpt>
      <trkpt lat="49.80067" lon="4.86775">
        <ele>354</ele>
        <time>2021-07-31T09:35:07.000Z</time>
      </trkpt>
      <trkpt lat="49.80065" lon="4.86776">
        <ele>354</ele>
        <time>2021-07-31T09:35:08.000Z</time>
      </trkpt>
      <trkpt lat="49.80062" lon="4.86777">
        <ele>354</ele>
        <time>2021-07-31T09:35:09.000Z</time>
      </trkpt>
      <trkpt lat="49.8006" lon="4.86778">
        <ele>354</ele>
        <time>2021-07-31T09:35:10.000Z</time>
      </trkpt>
      <trkpt lat="49.80057" lon="4.86779">
        <ele>354</ele>
        <time>2021-07-31T09:35:11.000Z</time>
      </trkpt>
      <trkpt lat="49.80054" lon="4.86779">
        <ele>354</ele>
        <time>2021-07-31T09:35:12.000Z</time>
      </trkpt>
      <trkpt lat="49.80052" lon="4.8678">
        <ele>354</ele>
        <time>2021-07-31T09:35:13.000Z</time>
      </trkpt>
      <trkpt lat="49.80049" lon="4.8678">
        <ele>354</ele>
        <time>2021-07-31T09:35:14.000Z</time>
      </trkpt>
      <trkpt lat="49.80046" lon="4.8678">
        <ele>354</ele>
        <time>2021-07-31T09:35:15.000Z</time>
      </trkpt>
      <trkpt lat="49.80043" lon="4.86781">
        <ele>354</ele>
        <time>2021-07-31T09:35:16.000Z</time>
      </trkpt>
      <trkpt lat="49.8004" lon="4.86781">
        <ele>354</ele>
        <time>2021-07-31T09:35:17.000Z</time>
      </trkpt>
      <trkpt lat="49.80037" lon="4.86782">
        <ele>354</ele>
        <time>2021-07-31T09:35:18.000Z</time>
      </trkpt>
      <trkpt lat="49.80033" lon="4.86781">
        <ele>354</ele>
        <time>2021-07-31T09:35:19.000Z</time>
      </trkpt>
      <trkpt lat="49.8003" lon="4.86781">
        <ele>354</ele>
        <time>2021-07-31T09:35:20.000Z</time>
      </trkpt>
      <trkpt lat="49.80026" lon="4.8678">
        <ele>354</ele>
        <time>2021-07-31T09:35:21.000Z</time>
      </trkpt>
      <trkpt lat="49.80023" lon="4.86779">
        <ele>354</ele>
        <time>2021-07-31T09:35:22.000Z</time>
      </trkpt>
      <trkpt lat="49.80019" lon="4.86778">
        <ele>355</ele>
        <time>2021-07-31T09:35:23.000Z</time>
      </trkpt>
      <trkpt lat="49.80017" lon="4.86776">
        <ele>355</ele>
        <time>2021-07-31T09:35:24.000Z</time>
      </trkpt>
      <trkpt lat="49.80015" lon="4.86773">
        <ele>355</ele>
        <time>2021-07-31T09:35:25.000Z</time>
      </trkpt>
      <trkpt lat="49.80014" lon="4.86769">
        <ele>355</ele>
        <time>2021-07-31T09:35:26.000Z</time>
      </trkpt>
      <trkpt lat="49.80013" lon="4.86765">
        <ele>355</ele>
        <time>2021-07-31T09:35:27.000Z</time>
      </trkpt>
      <trkpt lat="49.80012" lon="4.86761">
        <ele>355</ele>
        <time>2021-07-31T09:35:28.000Z</time>
      </trkpt>
      <trkpt lat="49.8001" lon="4.86757">
        <ele>355</ele>
        <time>2021-07-31T09:35:29.000Z</time>
      </trkpt>
      <trkpt lat="49.80008" lon="4.86753">
        <ele>355</ele>
        <time>2021-07-31T09:35:30.000Z</time>
      </trkpt>
      <trkpt lat="49.80007" lon="4.86749">
        <ele>355</ele>
        <time>2021-07-31T09:35:31.000Z</time>
      </trkpt>
      <trkpt lat="49.80005" lon="4.86745">
        <ele>355</ele>
        <time>2021-07-31T09:35:32.000Z</time>
      </trkpt>
      <trkpt lat="49.80003" lon="4.86742">
        <ele>355</ele>
        <time>2021-07-31T09:35:33.000Z</time>
      </trkpt>
      <trkpt lat="49.80001" lon="4.86739">
        <ele>356</ele>
        <time>2021-07-31T09:35:34.000Z</time>
      </trkpt>
      <trkpt lat="49.79999" lon="4.86736">
        <ele>356</ele>
        <time>2021-07-31T09:35:35.000Z</time>
      </trkpt>
      <trkpt lat="49.79998" lon="4.86733">
        <ele>356</ele>
        <time>2021-07-31T09:35:36.000Z</time>
      </trkpt>
      <trkpt lat="49.79996" lon="4.86731">
        <ele>356</ele>
        <time>2021-07-31T09:35:37.000Z</time>
      </trkpt>
      <trkpt lat="49.79995" lon="4.86728">
        <ele>356</ele>
        <time>2021-07-31T09:35:38.000Z</time>
      </trkpt>
      <trkpt lat="49.79994" lon="4.86726">
        <ele>356</ele>
        <time>2021-07-31T09:35:39.000Z</time>
      </trkpt>
      <trkpt lat="49.79992" lon="4.86723">
        <ele>356</ele>
        <time>2021-07-31T09:35:40.000Z</time>
      </trkpt>
      <trkpt lat="49.79991" lon="4.86721">
        <ele>356</ele>
        <time>2021-07-31T09:35:41.000Z</time>
      </trkpt>
      <trkpt lat="49.7999" lon="4.86719">
        <ele>356</ele>
        <time>2021-07-31T09:35:42.000Z</time>
      </trkpt>
      <trkpt lat="49.79989" lon="4.86716">
        <ele>356</ele>
        <time>2021-07-31T09:35:43.000Z</time>
      </trkpt>
      <trkpt lat="49.79987" lon="4.86714">
        <ele>356</ele>
        <time>2021-07-31T09:35:44.000Z</time>
      </trkpt>
      <trkpt lat="49.79985" lon="4.86711">
        <ele>357</ele>
        <time>2021-07-31T09:35:45.000Z</time>
      </trkpt>
      <trkpt lat="49.79983" lon="4.86709">
        <ele>357</ele>
        <time>2021-07-31T09:35:46.000Z</time>
      </trkpt>
      <trkpt lat="49.79981" lon="4.86707">
        <ele>357</ele>
        <time>2021-07-31T09:35:47.000Z</time>
      </trkpt>
      <trkpt lat="49.79978" lon="4.86704">
        <ele>357</ele>
        <time>2021-07-31T09:35:48.000Z</time>
      </trkpt>
      <trkpt lat="49.79975" lon="4.86702">
        <ele>357</ele>
        <time>2021-07-31T09:35:49.000Z</time>
      </trkpt>
      <trkpt lat="49.79972" lon="4.867">
        <ele>357</ele>
        <time>2021-07-31T09:35:50.000Z</time>
      </trkpt>
      <trkpt lat="49.7997" lon="4.86698">
        <ele>357</ele>
        <time>2021-07-31T09:35:51.000Z</time>
      </trkpt>
      <trkpt lat="49.79967" lon="4.86696">
        <ele>357</ele>
        <time>2021-07-31T09:35:52.000Z</time>
      </trkpt>
      <trkpt lat="49.79963" lon="4.86694">
        <ele>357</ele>
        <time>2021-07-31T09:35:53.000Z</time>
      </trkpt>
      <trkpt lat="49.7996" lon="4.86693">
        <ele>358</ele>
        <time>2021-07-31T09:35:54.000Z</time>
      </trkpt>
      <trkpt lat="49.79957" lon="4.86691">
        <ele>358</ele>
        <time>2021-07-31T09:35:55.000Z</time>
      </trkpt>
      <trkpt lat="49.79954" lon="4.8669">
        <ele>358</ele>
        <time>2021-07-31T09:35:56.000Z</time>
      </trkpt>
      <trkpt lat="49.79951" lon="4.86688">
        <ele>358</ele>
        <time>2021-07-31T09:35:57.000Z</time>
      </trkpt>
      <trkpt lat="49.79948" lon="4.86686">
        <ele>358</ele>
        <time>2021-07-31T09:35:58.000Z</time>
      </trkpt>
      <trkpt lat="49.79946" lon="4.86685">
        <ele>358</ele>
        <time>2021-07-31T09:35:59.000Z</time>
      </trkpt>
      <trkpt lat="49.79943" lon="4.86684">
        <ele>358</ele>
        <time>2021-07-31T09:36:00.000Z</time>
      </trkpt>
      <trkpt lat="49.79941" lon="4.86684">
        <ele>358</ele>
        <time>2021-07-31T09:36:01.000Z</time>
      </trkpt>
      <trkpt lat="49.79939" lon="4.86682">
        <ele>358</ele>
        <time>2021-07-31T09:36:02.000Z</time>
      </trkpt>
      <trkpt lat="49.79937" lon="4.86681">
        <ele>358</ele>
        <time>2021-07-31T09:36:03.000Z</time>
      </trkpt>
      <trkpt lat="49.79934" lon="4.86679">
        <ele>358</ele>
        <time>2021-07-31T09:36:04.000Z</time>
      </trkpt>
      <trkpt lat="49.79931" lon="4.86679">
        <ele>358</ele>
        <time>2021-07-31T09:36:05.000Z</time>
      </trkpt>
      <trkpt lat="49.79929" lon="4.86677">
        <ele>359</ele>
        <time>2021-07-31T09:36:06.000Z</time>
      </trkpt>
      <trkpt lat="49.79926" lon="4.86675">
        <ele>359</ele>
        <time>2021-07-31T09:36:07.000Z</time>
      </trkpt>
      <trkpt lat="49.79923" lon="4.86672">
        <ele>359</ele>
        <time>2021-07-31T09:36:08.000Z</time>
      </trkpt>
      <trkpt lat="49.7992" lon="4.86669">
        <ele>359</ele>
        <time>2021-07-31T09:36:09.000Z</time>
      </trkpt>
      <trkpt lat="49.79917" lon="4.86665">
        <ele>359</ele>
        <time>2021-07-31T09:36:10.000Z</time>
      </trkpt>
      <trkpt lat="49.79914" lon="4.86662">
        <ele>359</ele>
        <time>2021-07-31T09:36:11.000Z</time>
      </trkpt>
      <trkpt lat="49.79912" lon="4.86659">
        <ele>359</ele>
        <time>2021-07-31T09:36:12.000Z</time>
      </trkpt>
      <trkpt lat="49.7991" lon="4.86655">
        <ele>359</ele>
        <time>2021-07-31T09:36:13.000Z</time>
      </trkpt>
      <trkpt lat="49.79908" lon="4.86651">
        <ele>359</ele>
        <time>2021-07-31T09:36:14.000Z</time>
      </trkpt>
      <trkpt lat="49.79905" lon="4.86646">
        <ele>360</ele>
        <time>2021-07-31T09:36:15.000Z</time>
      </trkpt>
      <trkpt lat="49.79903" lon="4.86641">
        <ele>360</ele>
        <time>2021-07-31T09:36:16.000Z</time>
      </trkpt>
      <trkpt lat="49.79901" lon="4.86636">
        <ele>360</ele>
        <time>2021-07-31T09:36:17.000Z</time>
      </trkpt>
      <trkpt lat="49.799" lon="4.8663">
        <ele>360</ele>
        <time>2021-07-31T09:36:18.000Z</time>
      </trkpt>
      <trkpt lat="49.79899" lon="4.86625">
        <ele>360</ele>
        <time>2021-07-31T09:36:19.000Z</time>
      </trkpt>
      <trkpt lat="49.79897" lon="4.8662">
        <ele>360</ele>
        <time>2021-07-31T09:36:20.000Z</time>
      </trkpt>
      <trkpt lat="49.79896" lon="4.86615">
        <ele>360</ele>
        <time>2021-07-31T09:36:21.000Z</time>
      </trkpt>
      <trkpt lat="49.79895" lon="4.8661">
        <ele>360</ele>
        <time>2021-07-31T09:36:22.000Z</time>
      </trkpt>
      <trkpt lat="49.79894" lon="4.86605">
        <ele>360</ele>
        <time>2021-07-31T09:36:23.000Z</time>
      </trkpt>
      <trkpt lat="49.79892" lon="4.866">
        <ele>360</ele>
        <time>2021-07-31T09:36:24.000Z</time>
      </trkpt>
      <trkpt lat="49.7989" lon="4.86594">
        <ele>360</ele>
        <time>2021-07-31T09:36:25.000Z</time>
      </trkpt>
      <trkpt lat="49.7989" lon="4.86588">
        <ele>360</ele>
        <time>2021-07-31T09:36:26.000Z</time>
      </trkpt>
      <trkpt lat="49.79889" lon="4.86583">
        <ele>361</ele>
        <time>2021-07-31T09:36:27.000Z</time>
      </trkpt>
      <trkpt lat="49.79889" lon="4.86578">
        <ele>361</ele>
        <time>2021-07-31T09:36:28.000Z</time>
      </trkpt>
      <trkpt lat="49.79889" lon="4.86572">
        <ele>361</ele>
        <time>2021-07-31T09:36:29.000Z</time>
      </trkpt>
      <trkpt lat="49.79888" lon="4.86567">
        <ele>361</ele>
        <time>2021-07-31T09:36:30.000Z</time>
      </trkpt>
      <trkpt lat="49.79888" lon="4.86561">
        <ele>362</ele>
        <time>2021-07-31T09:36:31.000Z</time>
      </trkpt>
      <trkpt lat="49.79888" lon="4.86556">
        <ele>362</ele>
        <time>2021-07-31T09:36:32.000Z</time>
      </trkpt>
      <trkpt lat="49.79888" lon="4.86549">
        <ele>362</ele>
        <time>2021-07-31T09:36:33.000Z</time>
      </trkpt>
      <trkpt lat="49.79888" lon="4.86542">
        <ele>363</ele>
        <time>2021-07-31T09:36:34.000Z</time>
      </trkpt>
      <trkpt lat="49.79889" lon="4.86535">
        <ele>363</ele>
        <time>2021-07-31T09:36:35.000Z</time>
      </trkpt>
      <trkpt lat="49.79889" lon="4.86528">
        <ele>363</ele>
        <time>2021-07-31T09:36:36.000Z</time>
      </trkpt>
      <trkpt lat="49.79889" lon="4.86521">
        <ele>364</ele>
        <time>2021-07-31T09:36:37.000Z</time>
      </trkpt>
      <trkpt lat="49.7989" lon="4.86515">
        <ele>364</ele>
        <time>2021-07-31T09:36:38.000Z</time>
      </trkpt>
      <trkpt lat="49.79891" lon="4.86511">
        <ele>364</ele>
        <time>2021-07-31T09:36:39.000Z</time>
      </trkpt>
      <trkpt lat="49.79892" lon="4.86507">
        <ele>364</ele>
        <time>2021-07-31T09:36:40.000Z</time>
      </trkpt>
      <trkpt lat="49.79893" lon="4.86503">
        <ele>364</ele>
        <time>2021-07-31T09:36:41.000Z</time>
      </trkpt>
      <trkpt lat="49.79894" lon="4.86499">
        <ele>364</ele>
        <time>2021-07-31T09:36:42.000Z</time>
      </trkpt>
      <trkpt lat="49.79894" lon="4.86495">
        <ele>365</ele>
        <time>2021-07-31T09:36:43.000Z</time>
      </trkpt>
      <trkpt lat="49.79895" lon="4.8649">
        <ele>365</ele>
        <time>2021-07-31T09:36:44.000Z</time>
      </trkpt>
      <trkpt lat="49.79895" lon="4.86487">
        <ele>365</ele>
        <time>2021-07-31T09:36:45.000Z</time>
      </trkpt>
      <trkpt lat="49.79895" lon="4.86483">
        <ele>365</ele>
        <time>2021-07-31T09:36:46.000Z</time>
      </trkpt>
      <trkpt lat="49.79896" lon="4.8648">
        <ele>365</ele>
        <time>2021-07-31T09:36:47.000Z</time>
      </trkpt>
      <trkpt lat="49.79896" lon="4.86475">
        <ele>365</ele>
        <time>2021-07-31T09:36:48.000Z</time>
      </trkpt>
      <trkpt lat="49.79897" lon="4.86471">
        <ele>365</ele>
        <time>2021-07-31T09:36:49.000Z</time>
      </trkpt>
      <trkpt lat="49.79896" lon="4.86466">
        <ele>366</ele>
        <time>2021-07-31T09:36:50.000Z</time>
      </trkpt>
      <trkpt lat="49.79897" lon="4.86461">
        <ele>366</ele>
        <time>2021-07-31T09:36:51.000Z</time>
      </trkpt>
      <trkpt lat="49.79897" lon="4.86456">
        <ele>366</ele>
        <time>2021-07-31T09:36:52.000Z</time>
      </trkpt>
      <trkpt lat="49.79898" lon="4.86451">
        <ele>366</ele>
        <time>2021-07-31T09:36:53.000Z</time>
      </trkpt>
      <trkpt lat="49.79898" lon="4.86446">
        <ele>367</ele>
        <time>2021-07-31T09:36:54.000Z</time>
      </trkpt>
      <trkpt lat="49.79899" lon="4.86441">
        <ele>367</ele>
        <time>2021-07-31T09:36:55.000Z</time>
      </trkpt>
      <trkpt lat="49.799" lon="4.86436">
        <ele>367</ele>
        <time>2021-07-31T09:36:56.000Z</time>
      </trkpt>
      <trkpt lat="49.799" lon="4.86432">
        <ele>367</ele>
        <time>2021-07-31T09:36:57.000Z</time>
      </trkpt>
      <trkpt lat="49.79901" lon="4.86427">
        <ele>368</ele>
        <time>2021-07-31T09:36:58.000Z</time>
      </trkpt>
      <trkpt lat="49.79901" lon="4.86422">
        <ele>368</ele>
        <time>2021-07-31T09:36:59.000Z</time>
      </trkpt>
      <trkpt lat="49.79902" lon="4.86417">
        <ele>368</ele>
        <time>2021-07-31T09:37:00.000Z</time>
      </trkpt>
      <trkpt lat="49.79902" lon="4.86412">
        <ele>369</ele>
        <time>2021-07-31T09:37:01.000Z</time>
      </trkpt>
      <trkpt lat="49.79903" lon="4.86406">
        <ele>369</ele>
        <time>2021-07-31T09:37:02.000Z</time>
      </trkpt>
      <trkpt lat="49.79903" lon="4.86401">
        <ele>369</ele>
        <time>2021-07-31T09:37:03.000Z</time>
      </trkpt>
      <trkpt lat="49.79904" lon="4.86396">
        <ele>369</ele>
        <time>2021-07-31T09:37:04.000Z</time>
      </trkpt>
      <trkpt lat="49.79904" lon="4.86393">
        <ele>370</ele>
        <time>2021-07-31T09:37:05.000Z</time>
      </trkpt>
      <trkpt lat="49.79904" lon="4.8639">
        <ele>370</ele>
        <time>2021-07-31T09:37:06.000Z</time>
      </trkpt>
      <trkpt lat="49.79903" lon="4.86386">
        <ele>370</ele>
        <time>2021-07-31T09:37:07.000Z</time>
      </trkpt>
      <trkpt lat="49.79904" lon="4.86382">
        <ele>370</ele>
        <time>2021-07-31T09:37:08.000Z</time>
      </trkpt>
      <trkpt lat="49.79903" lon="4.86378">
        <ele>371</ele>
        <time>2021-07-31T09:37:09.000Z</time>
      </trkpt>
      <trkpt lat="49.79903" lon="4.86374">
        <ele>371</ele>
        <time>2021-07-31T09:37:10.000Z</time>
      </trkpt>
      <trkpt lat="49.79903" lon="4.8637">
        <ele>372</ele>
        <time>2021-07-31T09:37:11.000Z</time>
      </trkpt>
      <trkpt lat="49.79903" lon="4.86366">
        <ele>372</ele>
        <time>2021-07-31T09:37:12.000Z</time>
      </trkpt>
      <trkpt lat="49.79903" lon="4.86362">
        <ele>372</ele>
        <time>2021-07-31T09:37:13.000Z</time>
      </trkpt>
      <trkpt lat="49.79903" lon="4.86358">
        <ele>373</ele>
        <time>2021-07-31T09:37:14.000Z</time>
      </trkpt>
      <trkpt lat="49.79904" lon="4.86354">
        <ele>373</ele>
        <time>2021-07-31T09:37:15.000Z</time>
      </trkpt>
      <trkpt lat="49.79904" lon="4.8635">
        <ele>373</ele>
        <time>2021-07-31T09:37:16.000Z</time>
      </trkpt>
      <trkpt lat="49.79904" lon="4.86346">
        <ele>374</ele>
        <time>2021-07-31T09:37:17.000Z</time>
      </trkpt>
      <trkpt lat="49.79904" lon="4.86342">
        <ele>374</ele>
        <time>2021-07-31T09:37:18.000Z</time>
      </trkpt>
      <trkpt lat="49.79904" lon="4.86338">
        <ele>375</ele>
        <time>2021-07-31T09:37:19.000Z</time>
      </trkpt>
      <trkpt lat="49.79905" lon="4.86334">
        <ele>375</ele>
        <time>2021-07-31T09:37:20.000Z</time>
      </trkpt>
      <trkpt lat="49.79905" lon="4.8633">
        <ele>375</ele>
        <time>2021-07-31T09:37:21.000Z</time>
      </trkpt>
      <trkpt lat="49.79905" lon="4.86326">
        <ele>376</ele>
        <time>2021-07-31T09:37:22.000Z</time>
      </trkpt>
      <trkpt lat="49.79905" lon="4.86323">
        <ele>376</ele>
        <time>2021-07-31T09:37:23.000Z</time>
      </trkpt>
      <trkpt lat="49.79905" lon="4.8632">
        <ele>376</ele>
        <time>2021-07-31T09:37:24.000Z</time>
      </trkpt>
      <trkpt lat="49.79905" lon="4.86317">
        <ele>376</ele>
        <time>2021-07-31T09:37:25.000Z</time>
      </trkpt>
      <trkpt lat="49.79905" lon="4.86313">
        <ele>377</ele>
        <time>2021-07-31T09:37:26.000Z</time>
      </trkpt>
      <trkpt lat="49.79905" lon="4.86309">
        <ele>377</ele>
        <time>2021-07-31T09:37:27.000Z</time>
      </trkpt>
      <trkpt lat="49.79904" lon="4.86306">
        <ele>377</ele>
        <time>2021-07-31T09:37:28.000Z</time>
      </trkpt>
      <trkpt lat="49.79904" lon="4.86302">
        <ele>378</ele>
        <time>2021-07-31T09:37:29.000Z</time>
      </trkpt>
      <trkpt lat="49.79905" lon="4.86299">
        <ele>378</ele>
        <time>2021-07-31T09:37:30.000Z</time>
      </trkpt>
      <trkpt lat="49.79905" lon="4.86296">
        <ele>379</ele>
        <time>2021-07-31T09:37:31.000Z</time>
      </trkpt>
      <trkpt lat="49.79904" lon="4.86293">
        <ele>379</ele>
        <time>2021-07-31T09:37:32.000Z</time>
      </trkpt>
      <trkpt lat="49.79904" lon="4.8629">
        <ele>379</ele>
        <time>2021-07-31T09:37:33.000Z</time>
      </trkpt>
      <trkpt lat="49.79904" lon="4.86287">
        <ele>380</ele>
        <time>2021-07-31T09:37:34.000Z</time>
      </trkpt>
      <trkpt lat="49.79904" lon="4.86284">
        <ele>380</ele>
        <time>2021-07-31T09:37:35.000Z</time>
      </trkpt>
      <trkpt lat="49.79904" lon="4.86281">
        <ele>381</ele>
        <time>2021-07-31T09:37:36.000Z</time>
      </trkpt>
      <trkpt lat="49.79904" lon="4.86279">
        <ele>381</ele>
        <time>2021-07-31T09:37:37.000Z</time>
      </trkpt>
      <trkpt lat="49.79904" lon="4.86276">
        <ele>381</ele>
        <time>2021-07-31T09:37:38.000Z</time>
      </trkpt>
      <trkpt lat="49.79904" lon="4.86273">
        <ele>382</ele>
        <time>2021-07-31T09:37:39.000Z</time>
      </trkpt>
      <trkpt lat="49.79904" lon="4.8627">
        <ele>382</ele>
        <time>2021-07-31T09:37:40.000Z</time>
      </trkpt>
      <trkpt lat="49.79904" lon="4.86267">
        <ele>383</ele>
        <time>2021-07-31T09:37:41.000Z</time>
      </trkpt>
      <trkpt lat="49.79905" lon="4.86264">
        <ele>383</ele>
        <time>2021-07-31T09:37:42.000Z</time>
      </trkpt>
      <trkpt lat="49.79905" lon="4.86261">
        <ele>383</ele>
        <time>2021-07-31T09:37:43.000Z</time>
      </trkpt>
      <trkpt lat="49.79905" lon="4.86258">
        <ele>384</ele>
        <time>2021-07-31T09:37:44.000Z</time>
      </trkpt>
      <trkpt lat="49.79904" lon="4.86255">
        <ele>384</ele>
        <time>2021-07-31T09:37:45.000Z</time>
      </trkpt>
      <trkpt lat="49.79904" lon="4.86251">
        <ele>385</ele>
        <time>2021-07-31T09:37:46.000Z</time>
      </trkpt>
      <trkpt lat="49.79904" lon="4.86248">
        <ele>385</ele>
        <time>2021-07-31T09:37:47.000Z</time>
      </trkpt>
      <trkpt lat="49.79903" lon="4.86245">
        <ele>385</ele>
        <time>2021-07-31T09:37:48.000Z</time>
      </trkpt>
      <trkpt lat="49.79903" lon="4.86242">
        <ele>386</ele>
        <time>2021-07-31T09:37:49.000Z</time>
      </trkpt>
      <trkpt lat="49.79903" lon="4.8624">
        <ele>386</ele>
        <time>2021-07-31T09:37:50.000Z</time>
      </trkpt>
      <trkpt lat="49.79904" lon="4.86238">
        <ele>386</ele>
        <time>2021-07-31T09:37:51.000Z</time>
      </trkpt>
      <trkpt lat="49.79904" lon="4.86236">
        <ele>387</ele>
        <time>2021-07-31T09:37:52.000Z</time>
      </trkpt>
      <trkpt lat="49.79903" lon="4.86233">
        <ele>387</ele>
        <time>2021-07-31T09:37:53.000Z</time>
      </trkpt>
      <trkpt lat="49.79903" lon="4.86231">
        <ele>387</ele>
        <time>2021-07-31T09:37:54.000Z</time>
      </trkpt>
      <trkpt lat="49.79903" lon="4.86229">
        <ele>387</ele>
        <time>2021-07-31T09:37:55.000Z</time>
      </trkpt>
      <trkpt lat="49.79903" lon="4.86227">
        <ele>388</ele>
        <time>2021-07-31T09:37:56.000Z</time>
      </trkpt>
      <trkpt lat="49.79904" lon="4.86225">
        <ele>388</ele>
        <time>2021-07-31T09:37:57.000Z</time>
      </trkpt>
      <trkpt lat="49.79904" lon="4.86222">
        <ele>388</ele>
        <time>2021-07-31T09:37:58.000Z</time>
      </trkpt>
      <trkpt lat="49.79904" lon="4.8622">
        <ele>388</ele>
        <time>2021-07-31T09:37:59.000Z</time>
      </trkpt>
      <trkpt lat="49.79904" lon="4.86217">
        <ele>388</ele>
        <time>2021-07-31T09:38:00.000Z</time>
      </trkpt>
      <trkpt lat="49.79905" lon="4.86214">
        <ele>389</ele>
        <time>2021-07-31T09:38:01.000Z</time>
      </trkpt>
      <trkpt lat="49.79905" lon="4.86211">
        <ele>389</ele>
        <time>2021-07-31T09:38:02.000Z</time>
      </trkpt>
      <trkpt lat="49.79905" lon="4.86208">
        <ele>389</ele>
        <time>2021-07-31T09:38:03.000Z</time>
      </trkpt>
      <trkpt lat="49.79905" lon="4.86205">
        <ele>389</ele>
        <time>2021-07-31T09:38:04.000Z</time>
      </trkpt>
      <trkpt lat="49.79905" lon="4.86202">
        <ele>389</ele>
        <time>2021-07-31T09:38:05.000Z</time>
      </trkpt>
      <trkpt lat="49.79905" lon="4.862">
        <ele>390</ele>
        <time>2021-07-31T09:38:06.000Z</time>
      </trkpt>
      <trkpt lat="49.79904" lon="4.86197">
        <ele>390</ele>
        <time>2021-07-31T09:38:07.000Z</time>
      </trkpt>
      <trkpt lat="49.79903" lon="4.86194">
        <ele>390</ele>
        <time>2021-07-31T09:38:08.000Z</time>
      </trkpt>
      <trkpt lat="49.79903" lon="4.8619">
        <ele>390</ele>
        <time>2021-07-31T09:38:09.000Z</time>
      </trkpt>
      <trkpt lat="49.79902" lon="4.86187">
        <ele>390</ele>
        <time>2021-07-31T09:38:10.000Z</time>
      </trkpt>
      <trkpt lat="49.79902" lon="4.86184">
        <ele>390</ele>
        <time>2021-07-31T09:38:11.000Z</time>
      </trkpt>
      <trkpt lat="49.79901" lon="4.86181">
        <ele>390</ele>
        <time>2021-07-31T09:38:12.000Z</time>
      </trkpt>
      <trkpt lat="49.79901" lon="4.86178">
        <ele>391</ele>
        <time>2021-07-31T09:38:13.000Z</time>
      </trkpt>
      <trkpt lat="49.799" lon="4.86176">
        <ele>391</ele>
        <time>2021-07-31T09:38:14.000Z</time>
      </trkpt>
      <trkpt lat="49.799" lon="4.86173">
        <ele>391</ele>
        <time>2021-07-31T09:38:15.000Z</time>
      </trkpt>
      <trkpt lat="49.79899" lon="4.8617">
        <ele>391</ele>
        <time>2021-07-31T09:38:16.000Z</time>
      </trkpt>
      <trkpt lat="49.79898" lon="4.86166">
        <ele>391</ele>
        <time>2021-07-31T09:38:17.000Z</time>
      </trkpt>
      <trkpt lat="49.79896" lon="4.86164">
        <ele>391</ele>
        <time>2021-07-31T09:38:18.000Z</time>
      </trkpt>
      <trkpt lat="49.79895" lon="4.86161">
        <ele>391</ele>
        <time>2021-07-31T09:38:19.000Z</time>
      </trkpt>
      <trkpt lat="49.79894" lon="4.86158">
        <ele>391</ele>
        <time>2021-07-31T09:38:20.000Z</time>
      </trkpt>
      <trkpt lat="49.79893" lon="4.86155">
        <ele>392</ele>
        <time>2021-07-31T09:38:21.000Z</time>
      </trkpt>
      <trkpt lat="49.79892" lon="4.86152">
        <ele>392</ele>
        <time>2021-07-31T09:38:22.000Z</time>
      </trkpt>
      <trkpt lat="49.7989" lon="4.86149">
        <ele>392</ele>
        <time>2021-07-31T09:38:23.000Z</time>
      </trkpt>
      <trkpt lat="49.79889" lon="4.86146">
        <ele>392</ele>
        <time>2021-07-31T09:38:24.000Z</time>
      </trkpt>
      <trkpt lat="49.79887" lon="4.86143">
        <ele>392</ele>
        <time>2021-07-31T09:38:25.000Z</time>
      </trkpt>
      <trkpt lat="49.79886" lon="4.8614">
        <ele>392</ele>
        <time>2021-07-31T09:38:26.000Z</time>
      </trkpt>
      <trkpt lat="49.79884" lon="4.86137">
        <ele>392</ele>
        <time>2021-07-31T09:38:27.000Z</time>
      </trkpt>
      <trkpt lat="49.79882" lon="4.86135">
        <ele>392</ele>
        <time>2021-07-31T09:38:28.000Z</time>
      </trkpt>
      <trkpt lat="49.79881" lon="4.86133">
        <ele>392</ele>
        <time>2021-07-31T09:38:29.000Z</time>
      </trkpt>
      <trkpt lat="49.79879" lon="4.8613">
        <ele>392</ele>
        <time>2021-07-31T09:38:30.000Z</time>
      </trkpt>
      <trkpt lat="49.79877" lon="4.86128">
        <ele>392</ele>
        <time>2021-07-31T09:38:31.000Z</time>
      </trkpt>
      <trkpt lat="49.79875" lon="4.86126">
        <ele>392</ele>
        <time>2021-07-31T09:38:32.000Z</time>
      </trkpt>
      <trkpt lat="49.79873" lon="4.86123">
        <ele>392</ele>
        <time>2021-07-31T09:38:33.000Z</time>
      </trkpt>
      <trkpt lat="49.79871" lon="4.86121">
        <ele>392</ele>
        <time>2021-07-31T09:38:34.000Z</time>
      </trkpt>
      <trkpt lat="49.7987" lon="4.86118">
        <ele>392</ele>
        <time>2021-07-31T09:38:35.000Z</time>
      </trkpt>
      <trkpt lat="49.79868" lon="4.86116">
        <ele>392</ele>
        <time>2021-07-31T09:38:36.000Z</time>
      </trkpt>
      <trkpt lat="49.79866" lon="4.86113">
        <ele>392</ele>
        <time>2021-07-31T09:38:37.000Z</time>
      </trkpt>
      <trkpt lat="49.79864" lon="4.8611">
        <ele>392</ele>
        <time>2021-07-31T09:38:38.000Z</time>
      </trkpt>
      <trkpt lat="49.79862" lon="4.86108">
        <ele>392</ele>
        <time>2021-07-31T09:38:39.000Z</time>
      </trkpt>
      <trkpt lat="49.79859" lon="4.86106">
        <ele>392</ele>
        <time>2021-07-31T09:38:40.000Z</time>
      </trkpt>
      <trkpt lat="49.79857" lon="4.86103">
        <ele>392</ele>
        <time>2021-07-31T09:38:41.000Z</time>
      </trkpt>
      <trkpt lat="49.79855" lon="4.86101">
        <ele>392</ele>
        <time>2021-07-31T09:38:42.000Z</time>
      </trkpt>
      <trkpt lat="49.79853" lon="4.86099">
        <ele>392</ele>
        <time>2021-07-31T09:38:43.000Z</time>
      </trkpt>
      <trkpt lat="49.79851" lon="4.86098">
        <ele>392</ele>
        <time>2021-07-31T09:38:44.000Z</time>
      </trkpt>
      <trkpt lat="49.79849" lon="4.86097">
        <ele>392</ele>
        <time>2021-07-31T09:38:45.000Z</time>
      </trkpt>
      <trkpt lat="49.79848" lon="4.86096">
        <ele>392</ele>
        <time>2021-07-31T09:38:46.000Z</time>
      </trkpt>
      <trkpt lat="49.79848" lon="4.86096">
        <ele>392</ele>
        <time>2021-07-31T09:38:47.000Z</time>
      </trkpt>
      <trkpt lat="49.79848" lon="4.86095">
        <ele>392</ele>
        <time>2021-07-31T09:38:48.000Z</time>
      </trkpt>
      <trkpt lat="49.79847" lon="4.86095">
        <ele>392</ele>
        <time>2021-07-31T09:38:49.000Z</time>
      </trkpt>
      <trkpt lat="49.79847" lon="4.86095">
        <ele>392</ele>
        <time>2021-07-31T09:38:50.000Z</time>
      </trkpt>
      <trkpt lat="49.79847" lon="4.86094">
        <ele>392</ele>
        <time>2021-07-31T09:38:51.000Z</time>
      </trkpt>
      <trkpt lat="49.79846" lon="4.86094">
        <ele>392</ele>
        <time>2021-07-31T09:38:52.000Z</time>
      </trkpt>
      <trkpt lat="49.79846" lon="4.86094">
        <ele>392</ele>
        <time>2021-07-31T09:38:53.000Z</time>
      </trkpt>
      <trkpt lat="49.79845" lon="4.86094">
        <ele>392</ele>
        <time>2021-07-31T09:38:54.000Z</time>
      </trkpt>
      <trkpt lat="49.79845" lon="4.86094">
        <ele>392</ele>
        <time>2021-07-31T09:38:55.000Z</time>
      </trkpt>
      <trkpt lat="49.79843" lon="4.86095">
        <ele>392</ele>
        <time>2021-07-31T09:38:56.000Z</time>
      </trkpt>
      <trkpt lat="49.79842" lon="4.86096">
        <ele>392</ele>
        <time>2021-07-31T09:38:57.000Z</time>
      </trkpt>
      <trkpt lat="49.79841" lon="4.86097">
        <ele>392</ele>
        <time>2021-07-31T09:38:58.000Z</time>
      </trkpt>
      <trkpt lat="49.79839" lon="4.86098">
        <ele>392</ele>
        <time>2021-07-31T09:38:59.000Z</time>
      </trkpt>
      <trkpt lat="49.79838" lon="4.861">
        <ele>392</ele>
        <time>2021-07-31T09:39:00.000Z</time>
      </trkpt>
      <trkpt lat="49.79836" lon="4.86101">
        <ele>392</ele>
        <time>2021-07-31T09:39:01.000Z</time>
      </trkpt>
      <trkpt lat="49.79834" lon="4.86102">
        <ele>392</ele>
        <time>2021-07-31T09:39:02.000Z</time>
      </trkpt>
      <trkpt lat="49.79833" lon="4.86104">
        <ele>392</ele>
        <time>2021-07-31T09:39:03.000Z</time>
      </trkpt>
      <trkpt lat="49.79831" lon="4.86105">
        <ele>392</ele>
        <time>2021-07-31T09:39:04.000Z</time>
      </trkpt>
      <trkpt lat="49.79829" lon="4.86106">
        <ele>392</ele>
        <time>2021-07-31T09:39:05.000Z</time>
      </trkpt>
      <trkpt lat="49.79827" lon="4.86108">
        <ele>392</ele>
        <time>2021-07-31T09:39:06.000Z</time>
      </trkpt>
      <trkpt lat="49.79826" lon="4.86109">
        <ele>392</ele>
        <time>2021-07-31T09:39:07.000Z</time>
      </trkpt>
      <trkpt lat="49.79824" lon="4.86111">
        <ele>392</ele>
        <time>2021-07-31T09:39:08.000Z</time>
      </trkpt>
      <trkpt lat="49.79823" lon="4.86113">
        <ele>392</ele>
        <time>2021-07-31T09:39:09.000Z</time>
      </trkpt>
      <trkpt lat="49.79822" lon="4.86116">
        <ele>392</ele>
        <time>2021-07-31T09:39:10.000Z</time>
      </trkpt>
      <trkpt lat="49.7982" lon="4.86118">
        <ele>392</ele>
        <time>2021-07-31T09:39:11.000Z</time>
      </trkpt>
      <trkpt lat="49.79818" lon="4.8612">
        <ele>392</ele>
        <time>2021-07-31T09:39:12.000Z</time>
      </trkpt>
      <trkpt lat="49.79817" lon="4.86123">
        <ele>392</ele>
        <time>2021-07-31T09:39:13.000Z</time>
      </trkpt>
      <trkpt lat="49.79815" lon="4.86126">
        <ele>392</ele>
        <time>2021-07-31T09:39:14.000Z</time>
      </trkpt>
      <trkpt lat="49.79814" lon="4.86128">
        <ele>392</ele>
        <time>2021-07-31T09:39:15.000Z</time>
      </trkpt>
      <trkpt lat="49.79812" lon="4.86131">
        <ele>392</ele>
        <time>2021-07-31T09:39:16.000Z</time>
      </trkpt>
      <trkpt lat="49.7981" lon="4.86133">
        <ele>392</ele>
        <time>2021-07-31T09:39:17.000Z</time>
      </trkpt>
      <trkpt lat="49.79808" lon="4.86135">
        <ele>392</ele>
        <time>2021-07-31T09:39:18.000Z</time>
      </trkpt>
      <trkpt lat="49.79806" lon="4.86137">
        <ele>392</ele>
        <time>2021-07-31T09:39:19.000Z</time>
      </trkpt>
      <trkpt lat="49.79804" lon="4.86141">
        <ele>392</ele>
        <time>2021-07-31T09:39:20.000Z</time>
      </trkpt>
      <trkpt lat="49.79802" lon="4.86144">
        <ele>392</ele>
        <time>2021-07-31T09:39:21.000Z</time>
      </trkpt>
      <trkpt lat="49.798" lon="4.86147">
        <ele>392</ele>
        <time>2021-07-31T09:39:22.000Z</time>
      </trkpt>
      <trkpt lat="49.79798" lon="4.8615">
        <ele>392</ele>
        <time>2021-07-31T09:39:23.000Z</time>
      </trkpt>
      <trkpt lat="49.79796" lon="4.86153">
        <ele>392</ele>
        <time>2021-07-31T09:39:24.000Z</time>
      </trkpt>
      <trkpt lat="49.79795" lon="4.86156">
        <ele>393</ele>
        <time>2021-07-31T09:39:25.000Z</time>
      </trkpt>
      <trkpt lat="49.79793" lon="4.8616">
        <ele>393</ele>
        <time>2021-07-31T09:39:26.000Z</time>
      </trkpt>
      <trkpt lat="49.79792" lon="4.86163">
        <ele>393</ele>
        <time>2021-07-31T09:39:27.000Z</time>
      </trkpt>
      <trkpt lat="49.7979" lon="4.86166">
        <ele>393</ele>
        <time>2021-07-31T09:39:28.000Z</time>
      </trkpt>
      <trkpt lat="49.79789" lon="4.8617">
        <ele>394</ele>
        <time>2021-07-31T09:39:29.000Z</time>
      </trkpt>
      <trkpt lat="49.79787" lon="4.86173">
        <ele>394</ele>
        <time>2021-07-31T09:39:30.000Z</time>
      </trkpt>
      <trkpt lat="49.79785" lon="4.86176">
        <ele>394</ele>
        <time>2021-07-31T09:39:31.000Z</time>
      </trkpt>
      <trkpt lat="49.79784" lon="4.86179">
        <ele>394</ele>
        <time>2021-07-31T09:39:32.000Z</time>
      </trkpt>
      <trkpt lat="49.79783" lon="4.86182">
        <ele>395</ele>
        <time>2021-07-31T09:39:33.000Z</time>
      </trkpt>
      <trkpt lat="49.79781" lon="4.86186">
        <ele>395</ele>
        <time>2021-07-31T09:39:34.000Z</time>
      </trkpt>
      <trkpt lat="49.79779" lon="4.86189">
        <ele>395</ele>
        <time>2021-07-31T09:39:35.000Z</time>
      </trkpt>
      <trkpt lat="49.79778" lon="4.86194">
        <ele>396</ele>
        <time>2021-07-31T09:39:36.000Z</time>
      </trkpt>
      <trkpt lat="49.79776" lon="4.86198">
        <ele>396</ele>
        <time>2021-07-31T09:39:37.000Z</time>
      </trkpt>
      <trkpt lat="49.79775" lon="4.86202">
        <ele>396</ele>
        <time>2021-07-31T09:39:38.000Z</time>
      </trkpt>
      <trkpt lat="49.79774" lon="4.86207">
        <ele>397</ele>
        <time>2021-07-31T09:39:39.000Z</time>
      </trkpt>
      <trkpt lat="49.79772" lon="4.86212">
        <ele>397</ele>
        <time>2021-07-31T09:39:40.000Z</time>
      </trkpt>
      <trkpt lat="49.7977" lon="4.86216">
        <ele>397</ele>
        <time>2021-07-31T09:39:41.000Z</time>
      </trkpt>
      <trkpt lat="49.79768" lon="4.8622">
        <ele>398</ele>
        <time>2021-07-31T09:39:42.000Z</time>
      </trkpt>
      <trkpt lat="49.79767" lon="4.86224">
        <ele>398</ele>
        <time>2021-07-31T09:39:43.000Z</time>
      </trkpt>
      <trkpt lat="49.79765" lon="4.86228">
        <ele>398</ele>
        <time>2021-07-31T09:39:44.000Z</time>
      </trkpt>
      <trkpt lat="49.79764" lon="4.86232">
        <ele>398</ele>
        <time>2021-07-31T09:39:45.000Z</time>
      </trkpt>
      <trkpt lat="49.79762" lon="4.86236">
        <ele>398</ele>
        <time>2021-07-31T09:39:46.000Z</time>
      </trkpt>
      <trkpt lat="49.79761" lon="4.8624">
        <ele>398</ele>
        <time>2021-07-31T09:39:47.000Z</time>
      </trkpt>
      <trkpt lat="49.79759" lon="4.86243">
        <ele>399</ele>
        <time>2021-07-31T09:39:48.000Z</time>
      </trkpt>
      <trkpt lat="49.79757" lon="4.86248">
        <ele>399</ele>
        <time>2021-07-31T09:39:49.000Z</time>
      </trkpt>
      <trkpt lat="49.79756" lon="4.86251">
        <ele>399</ele>
        <time>2021-07-31T09:39:50.000Z</time>
      </trkpt>
      <trkpt lat="49.79755" lon="4.86255">
        <ele>399</ele>
        <time>2021-07-31T09:39:51.000Z</time>
      </trkpt>
      <trkpt lat="49.79753" lon="4.86259">
        <ele>399</ele>
        <time>2021-07-31T09:39:52.000Z</time>
      </trkpt>
      <trkpt lat="49.79751" lon="4.86263">
        <ele>399</ele>
        <time>2021-07-31T09:39:53.000Z</time>
      </trkpt>
      <trkpt lat="49.7975" lon="4.86267">
        <ele>399</ele>
        <time>2021-07-31T09:39:54.000Z</time>
      </trkpt>
      <trkpt lat="49.79749" lon="4.8627">
        <ele>400</ele>
        <time>2021-07-31T09:39:55.000Z</time>
      </trkpt>
      <trkpt lat="49.79747" lon="4.86274">
        <ele>400</ele>
        <time>2021-07-31T09:39:56.000Z</time>
      </trkpt>
      <trkpt lat="49.79746" lon="4.86278">
        <ele>400</ele>
        <time>2021-07-31T09:39:57.000Z</time>
      </trkpt>
      <trkpt lat="49.79745" lon="4.86282">
        <ele>400</ele>
        <time>2021-07-31T09:39:58.000Z</time>
      </trkpt>
      <trkpt lat="49.79743" lon="4.86286">
        <ele>400</ele>
        <time>2021-07-31T09:39:59.000Z</time>
      </trkpt>
      <trkpt lat="49.79742" lon="4.86289">
        <ele>401</ele>
        <time>2021-07-31T09:40:00.000Z</time>
      </trkpt>
      <trkpt lat="49.79741" lon="4.86293">
        <ele>401</ele>
        <time>2021-07-31T09:40:01.000Z</time>
      </trkpt>
      <trkpt lat="49.79739" lon="4.86296">
        <ele>401</ele>
        <time>2021-07-31T09:40:02.000Z</time>
      </trkpt>
      <trkpt lat="49.79738" lon="4.863">
        <ele>402</ele>
        <time>2021-07-31T09:40:03.000Z</time>
      </trkpt>
      <trkpt lat="49.79737" lon="4.86304">
        <ele>402</ele>
        <time>2021-07-31T09:40:04.000Z</time>
      </trkpt>
      <trkpt lat="49.79736" lon="4.86308">
        <ele>402</ele>
        <time>2021-07-31T09:40:05.000Z</time>
      </trkpt>
      <trkpt lat="49.79734" lon="4.86312">
        <ele>403</ele>
        <time>2021-07-31T09:40:06.000Z</time>
      </trkpt>
      <trkpt lat="49.79732" lon="4.86315">
        <ele>403</ele>
        <time>2021-07-31T09:40:07.000Z</time>
      </trkpt>
      <trkpt lat="49.7973" lon="4.86319">
        <ele>403</ele>
        <time>2021-07-31T09:40:08.000Z</time>
      </trkpt>
      <trkpt lat="49.79729" lon="4.86322">
        <ele>403</ele>
        <time>2021-07-31T09:40:09.000Z</time>
      </trkpt>
      <trkpt lat="49.79727" lon="4.86326">
        <ele>404</ele>
        <time>2021-07-31T09:40:10.000Z</time>
      </trkpt>
      <trkpt lat="49.79725" lon="4.8633">
        <ele>404</ele>
        <time>2021-07-31T09:40:11.000Z</time>
      </trkpt>
      <trkpt lat="49.79724" lon="4.86335">
        <ele>404</ele>
        <time>2021-07-31T09:40:12.000Z</time>
      </trkpt>
      <trkpt lat="49.79722" lon="4.86339">
        <ele>404</ele>
        <time>2021-07-31T09:40:13.000Z</time>
      </trkpt>
      <trkpt lat="49.79721" lon="4.86344">
        <ele>404</ele>
        <time>2021-07-31T09:40:14.000Z</time>
      </trkpt>
      <trkpt lat="49.79719" lon="4.86348">
        <ele>405</ele>
        <time>2021-07-31T09:40:15.000Z</time>
      </trkpt>
      <trkpt lat="49.79718" lon="4.86352">
        <ele>405</ele>
        <time>2021-07-31T09:40:16.000Z</time>
      </trkpt>
      <trkpt lat="49.79716" lon="4.86356">
        <ele>405</ele>
        <time>2021-07-31T09:40:17.000Z</time>
      </trkpt>
      <trkpt lat="49.79715" lon="4.8636">
        <ele>405</ele>
        <time>2021-07-31T09:40:18.000Z</time>
      </trkpt>
      <trkpt lat="49.79713" lon="4.86364">
        <ele>405</ele>
        <time>2021-07-31T09:40:19.000Z</time>
      </trkpt>
      <trkpt lat="49.79712" lon="4.86367">
        <ele>405</ele>
        <time>2021-07-31T09:40:20.000Z</time>
      </trkpt>
      <trkpt lat="49.79711" lon="4.86371">
        <ele>405</ele>
        <time>2021-07-31T09:40:21.000Z</time>
      </trkpt>
      <trkpt lat="49.79709" lon="4.86375">
        <ele>406</ele>
        <time>2021-07-31T09:40:22.000Z</time>
      </trkpt>
      <trkpt lat="49.79708" lon="4.8638">
        <ele>406</ele>
        <time>2021-07-31T09:40:23.000Z</time>
      </trkpt>
      <trkpt lat="49.79706" lon="4.86384">
        <ele>406</ele>
        <time>2021-07-31T09:40:24.000Z</time>
      </trkpt>
      <trkpt lat="49.79705" lon="4.86388">
        <ele>406</ele>
        <time>2021-07-31T09:40:25.000Z</time>
      </trkpt>
      <trkpt lat="49.79703" lon="4.86392">
        <ele>407</ele>
        <time>2021-07-31T09:40:26.000Z</time>
      </trkpt>
      <trkpt lat="49.79702" lon="4.86396">
        <ele>407</ele>
        <time>2021-07-31T09:40:27.000Z</time>
      </trkpt>
      <trkpt lat="49.79701" lon="4.864">
        <ele>407</ele>
        <time>2021-07-31T09:40:28.000Z</time>
      </trkpt>
      <trkpt lat="49.79699" lon="4.86404">
        <ele>407</ele>
        <time>2021-07-31T09:40:29.000Z</time>
      </trkpt>
      <trkpt lat="49.79698" lon="4.86408">
        <ele>407</ele>
        <time>2021-07-31T09:40:30.000Z</time>
      </trkpt>
      <trkpt lat="49.79696" lon="4.86411">
        <ele>408</ele>
        <time>2021-07-31T09:40:31.000Z</time>
      </trkpt>
      <trkpt lat="49.79695" lon="4.86415">
        <ele>408</ele>
        <time>2021-07-31T09:40:32.000Z</time>
      </trkpt>
      <trkpt lat="49.79693" lon="4.86419">
        <ele>408</ele>
        <time>2021-07-31T09:40:33.000Z</time>
      </trkpt>
      <trkpt lat="49.79692" lon="4.86423">
        <ele>408</ele>
        <time>2021-07-31T09:40:34.000Z</time>
      </trkpt>
      <trkpt lat="49.7969" lon="4.86428">
        <ele>408</ele>
        <time>2021-07-31T09:40:35.000Z</time>
      </trkpt>
      <trkpt lat="49.79689" lon="4.86431">
        <ele>409</ele>
        <time>2021-07-31T09:40:36.000Z</time>
      </trkpt>
      <trkpt lat="49.79687" lon="4.86435">
        <ele>409</ele>
        <time>2021-07-31T09:40:37.000Z</time>
      </trkpt>
      <trkpt lat="49.79686" lon="4.86439">
        <ele>409</ele>
        <time>2021-07-31T09:40:38.000Z</time>
      </trkpt>
      <trkpt lat="49.79685" lon="4.86443">
        <ele>409</ele>
        <time>2021-07-31T09:40:39.000Z</time>
      </trkpt>
      <trkpt lat="49.79684" lon="4.86447">
        <ele>409</ele>
        <time>2021-07-31T09:40:40.000Z</time>
      </trkpt>
      <trkpt lat="49.79682" lon="4.8645">
        <ele>409</ele>
        <time>2021-07-31T09:40:41.000Z</time>
      </trkpt>
      <trkpt lat="49.79681" lon="4.86454">
        <ele>410</ele>
        <time>2021-07-31T09:40:42.000Z</time>
      </trkpt>
      <trkpt lat="49.79679" lon="4.86458">
        <ele>410</ele>
        <time>2021-07-31T09:40:43.000Z</time>
      </trkpt>
      <trkpt lat="49.79678" lon="4.86462">
        <ele>410</ele>
        <time>2021-07-31T09:40:44.000Z</time>
      </trkpt>
      <trkpt lat="49.79677" lon="4.86466">
        <ele>410</ele>
        <time>2021-07-31T09:40:45.000Z</time>
      </trkpt>
      <trkpt lat="49.79675" lon="4.8647">
        <ele>410</ele>
        <time>2021-07-31T09:40:46.000Z</time>
      </trkpt>
      <trkpt lat="49.79674" lon="4.86474">
        <ele>410</ele>
        <time>2021-07-31T09:40:47.000Z</time>
      </trkpt>
      <trkpt lat="49.79672" lon="4.86479">
        <ele>411</ele>
        <time>2021-07-31T09:40:48.000Z</time>
      </trkpt>
      <trkpt lat="49.79671" lon="4.86483">
        <ele>411</ele>
        <time>2021-07-31T09:40:49.000Z</time>
      </trkpt>
      <trkpt lat="49.79669" lon="4.86487">
        <ele>411</ele>
        <time>2021-07-31T09:40:50.000Z</time>
      </trkpt>
      <trkpt lat="49.79667" lon="4.86491">
        <ele>411</ele>
        <time>2021-07-31T09:40:51.000Z</time>
      </trkpt>
      <trkpt lat="49.79665" lon="4.86495">
        <ele>411</ele>
        <time>2021-07-31T09:40:52.000Z</time>
      </trkpt>
      <trkpt lat="49.79663" lon="4.86499">
        <ele>411</ele>
        <time>2021-07-31T09:40:53.000Z</time>
      </trkpt>
      <trkpt lat="49.79661" lon="4.86504">
        <ele>411</ele>
        <time>2021-07-31T09:40:54.000Z</time>
      </trkpt>
      <trkpt lat="49.79659" lon="4.86508">
        <ele>411</ele>
        <time>2021-07-31T09:40:55.000Z</time>
      </trkpt>
      <trkpt lat="49.79656" lon="4.86513">
        <ele>411</ele>
        <time>2021-07-31T09:40:56.000Z</time>
      </trkpt>
      <trkpt lat="49.79654" lon="4.86517">
        <ele>411</ele>
        <time>2021-07-31T09:40:57.000Z</time>
      </trkpt>
      <trkpt lat="49.79653" lon="4.8652">
        <ele>411</ele>
        <time>2021-07-31T09:40:58.000Z</time>
      </trkpt>
      <trkpt lat="49.79651" lon="4.86524">
        <ele>411</ele>
        <time>2021-07-31T09:40:59.000Z</time>
      </trkpt>
      <trkpt lat="49.79648" lon="4.86527">
        <ele>411</ele>
        <time>2021-07-31T09:41:00.000Z</time>
      </trkpt>
      <trkpt lat="49.79646" lon="4.8653">
        <ele>411</ele>
        <time>2021-07-31T09:41:01.000Z</time>
      </trkpt>
      <trkpt lat="49.79643" lon="4.86534">
        <ele>411</ele>
        <time>2021-07-31T09:41:02.000Z</time>
      </trkpt>
      <trkpt lat="49.79641" lon="4.86538">
        <ele>411</ele>
        <time>2021-07-31T09:41:03.000Z</time>
      </trkpt>
      <trkpt lat="49.79638" lon="4.86542">
        <ele>411</ele>
        <time>2021-07-31T09:41:04.000Z</time>
      </trkpt>
      <trkpt lat="49.79635" lon="4.86546">
        <ele>411</ele>
        <time>2021-07-31T09:41:05.000Z</time>
      </trkpt>
      <trkpt lat="49.79631" lon="4.8655">
        <ele>411</ele>
        <time>2021-07-31T09:41:06.000Z</time>
      </trkpt>
      <trkpt lat="49.79628" lon="4.86554">
        <ele>411</ele>
        <time>2021-07-31T09:41:07.000Z</time>
      </trkpt>
      <trkpt lat="49.79625" lon="4.86557">
        <ele>412</ele>
        <time>2021-07-31T09:41:08.000Z</time>
      </trkpt>
      <trkpt lat="49.79622" lon="4.86561">
        <ele>412</ele>
        <time>2021-07-31T09:41:09.000Z</time>
      </trkpt>
      <trkpt lat="49.79618" lon="4.86563">
        <ele>412</ele>
        <time>2021-07-31T09:41:10.000Z</time>
      </trkpt>
      <trkpt lat="49.79615" lon="4.86566">
        <ele>412</ele>
        <time>2021-07-31T09:41:11.000Z</time>
      </trkpt>
      <trkpt lat="49.79612" lon="4.86569">
        <ele>411</ele>
        <time>2021-07-31T09:41:12.000Z</time>
      </trkpt>
      <trkpt lat="49.7961" lon="4.86572">
        <ele>411</ele>
        <time>2021-07-31T09:41:13.000Z</time>
      </trkpt>
      <trkpt lat="49.79608" lon="4.86575">
        <ele>411</ele>
        <time>2021-07-31T09:41:14.000Z</time>
      </trkpt>
      <trkpt lat="49.79606" lon="4.86578">
        <ele>411</ele>
        <time>2021-07-31T09:41:15.000Z</time>
      </trkpt>
      <trkpt lat="49.79604" lon="4.86582">
        <ele>411</ele>
        <time>2021-07-31T09:41:16.000Z</time>
      </trkpt>
      <trkpt lat="49.79601" lon="4.86585">
        <ele>411</ele>
        <time>2021-07-31T09:41:17.000Z</time>
      </trkpt>
      <trkpt lat="49.79599" lon="4.86589">
        <ele>411</ele>
        <time>2021-07-31T09:41:18.000Z</time>
      </trkpt>
      <trkpt lat="49.79597" lon="4.86594">
        <ele>411</ele>
        <time>2021-07-31T09:41:19.000Z</time>
      </trkpt>
      <trkpt lat="49.79594" lon="4.86597">
        <ele>411</ele>
        <time>2021-07-31T09:41:20.000Z</time>
      </trkpt>
      <trkpt lat="49.79592" lon="4.86602">
        <ele>411</ele>
        <time>2021-07-31T09:41:21.000Z</time>
      </trkpt>
      <trkpt lat="49.79589" lon="4.86606">
        <ele>411</ele>
        <time>2021-07-31T09:41:22.000Z</time>
      </trkpt>
      <trkpt lat="49.79586" lon="4.8661">
        <ele>411</ele>
        <time>2021-07-31T09:41:23.000Z</time>
      </trkpt>
      <trkpt lat="49.79583" lon="4.86613">
        <ele>411</ele>
        <time>2021-07-31T09:41:24.000Z</time>
      </trkpt>
      <trkpt lat="49.79581" lon="4.86617">
        <ele>411</ele>
        <time>2021-07-31T09:41:25.000Z</time>
      </trkpt>
      <trkpt lat="49.79578" lon="4.86621">
        <ele>411</ele>
        <time>2021-07-31T09:41:26.000Z</time>
      </trkpt>
      <trkpt lat="49.79575" lon="4.86626">
        <ele>411</ele>
        <time>2021-07-31T09:41:27.000Z</time>
      </trkpt>
      <trkpt lat="49.79572" lon="4.8663">
        <ele>411</ele>
        <time>2021-07-31T09:41:28.000Z</time>
      </trkpt>
      <trkpt lat="49.79569" lon="4.86634">
        <ele>411</ele>
        <time>2021-07-31T09:41:29.000Z</time>
      </trkpt>
      <trkpt lat="49.79567" lon="4.8664">
        <ele>411</ele>
        <time>2021-07-31T09:41:30.000Z</time>
      </trkpt>
      <trkpt lat="49.79564" lon="4.86646">
        <ele>411</ele>
        <time>2021-07-31T09:41:31.000Z</time>
      </trkpt>
      <trkpt lat="49.79563" lon="4.86652">
        <ele>411</ele>
        <time>2021-07-31T09:41:32.000Z</time>
      </trkpt>
      <trkpt lat="49.79561" lon="4.86658">
        <ele>411</ele>
        <time>2021-07-31T09:41:33.000Z</time>
      </trkpt>
      <trkpt lat="49.79559" lon="4.86663">
        <ele>411</ele>
        <time>2021-07-31T09:41:34.000Z</time>
      </trkpt>
      <trkpt lat="49.79557" lon="4.86666">
        <ele>411</ele>
        <time>2021-07-31T09:41:35.000Z</time>
      </trkpt>
      <trkpt lat="49.79556" lon="4.86667">
        <ele>410</ele>
        <time>2021-07-31T09:41:36.000Z</time>
      </trkpt>
      <trkpt lat="49.79554" lon="4.86668">
        <ele>410</ele>
        <time>2021-07-31T09:41:37.000Z</time>
      </trkpt>
      <trkpt lat="49.79551" lon="4.86668">
        <ele>410</ele>
        <time>2021-07-31T09:41:38.000Z</time>
      </trkpt>
      <trkpt lat="49.79549" lon="4.86667">
        <ele>410</ele>
        <time>2021-07-31T09:41:39.000Z</time>
      </trkpt>
      <trkpt lat="49.79547" lon="4.86665">
        <ele>410</ele>
        <time>2021-07-31T09:41:40.000Z</time>
      </trkpt>
      <trkpt lat="49.79545" lon="4.86663">
        <ele>410</ele>
        <time>2021-07-31T09:41:41.000Z</time>
      </trkpt>
      <trkpt lat="49.79543" lon="4.86662">
        <ele>410</ele>
        <time>2021-07-31T09:41:42.000Z</time>
      </trkpt>
      <trkpt lat="49.7954" lon="4.86659">
        <ele>409</ele>
        <time>2021-07-31T09:41:43.000Z</time>
      </trkpt>
      <trkpt lat="49.79536" lon="4.86656">
        <ele>409</ele>
        <time>2021-07-31T09:41:44.000Z</time>
      </trkpt>
      <trkpt lat="49.79533" lon="4.86653">
        <ele>409</ele>
        <time>2021-07-31T09:41:45.000Z</time>
      </trkpt>
      <trkpt lat="49.79529" lon="4.8665">
        <ele>409</ele>
        <time>2021-07-31T09:41:46.000Z</time>
      </trkpt>
      <trkpt lat="49.79524" lon="4.86646">
        <ele>409</ele>
        <time>2021-07-31T09:41:47.000Z</time>
      </trkpt>
      <trkpt lat="49.7952" lon="4.86642">
        <ele>408</ele>
        <time>2021-07-31T09:41:48.000Z</time>
      </trkpt>
      <trkpt lat="49.79516" lon="4.86639">
        <ele>408</ele>
        <time>2021-07-31T09:41:49.000Z</time>
      </trkpt>
      <trkpt lat="49.79512" lon="4.86636">
        <ele>408</ele>
        <time>2021-07-31T09:41:50.000Z</time>
      </trkpt>
      <trkpt lat="49.79508" lon="4.86633">
        <ele>408</ele>
        <time>2021-07-31T09:41:51.000Z</time>
      </trkpt>
      <trkpt lat="49.79504" lon="4.86629">
        <ele>407</ele>
        <time>2021-07-31T09:41:52.000Z</time>
      </trkpt>
      <trkpt lat="49.795" lon="4.86625">
        <ele>407</ele>
        <time>2021-07-31T09:41:53.000Z</time>
      </trkpt>
      <trkpt lat="49.79496" lon="4.86621">
        <ele>407</ele>
        <time>2021-07-31T09:41:54.000Z</time>
      </trkpt>
      <trkpt lat="49.79491" lon="4.86617">
        <ele>406</ele>
        <time>2021-07-31T09:41:55.000Z</time>
      </trkpt>
      <trkpt lat="49.79485" lon="4.86614">
        <ele>406</ele>
        <time>2021-07-31T09:41:56.000Z</time>
      </trkpt>
      <trkpt lat="49.7948" lon="4.8661">
        <ele>406</ele>
        <time>2021-07-31T09:41:57.000Z</time>
      </trkpt>
      <trkpt lat="49.79474" lon="4.86606">
        <ele>405</ele>
        <time>2021-07-31T09:41:58.000Z</time>
      </trkpt>
      <trkpt lat="49.79468" lon="4.86602">
        <ele>405</ele>
        <time>2021-07-31T09:41:59.000Z</time>
      </trkpt>
      <trkpt lat="49.79462" lon="4.86598">
        <ele>404</ele>
        <time>2021-07-31T09:42:00.000Z</time>
      </trkpt>
      <trkpt lat="49.79456" lon="4.86593">
        <ele>403</ele>
        <time>2021-07-31T09:42:01.000Z</time>
      </trkpt>
      <trkpt lat="49.7945" lon="4.86589">
        <ele>402</ele>
        <time>2021-07-31T09:42:02.000Z</time>
      </trkpt>
      <trkpt lat="49.79443" lon="4.86585">
        <ele>402</ele>
        <time>2021-07-31T09:42:03.000Z</time>
      </trkpt>
      <trkpt lat="49.79436" lon="4.86582">
        <ele>401</ele>
        <time>2021-07-31T09:42:04.000Z</time>
      </trkpt>
      <trkpt lat="49.79428" lon="4.8658">
        <ele>400</ele>
        <time>2021-07-31T09:42:05.000Z</time>
      </trkpt>
      <trkpt lat="49.7942" lon="4.86578">
        <ele>399</ele>
        <time>2021-07-31T09:42:06.000Z</time>
      </trkpt>
      <trkpt lat="49.79412" lon="4.86578">
        <ele>398</ele>
        <time>2021-07-31T09:42:07.000Z</time>
      </trkpt>
      <trkpt lat="49.79404" lon="4.86578">
        <ele>397</ele>
        <time>2021-07-31T09:42:08.000Z</time>
      </trkpt>
      <trkpt lat="49.79397" lon="4.86578">
        <ele>396</ele>
        <time>2021-07-31T09:42:09.000Z</time>
      </trkpt>
      <trkpt lat="49.7939" lon="4.86579">
        <ele>396</ele>
        <time>2021-07-31T09:42:10.000Z</time>
      </trkpt>
      <trkpt lat="49.79385" lon="4.8658">
        <ele>395</ele>
        <time>2021-07-31T09:42:11.000Z</time>
      </trkpt>
      <trkpt lat="49.79381" lon="4.86581">
        <ele>394</ele>
        <time>2021-07-31T09:42:12.000Z</time>
      </trkpt>
      <trkpt lat="49.79379" lon="4.86581">
        <ele>394</ele>
        <time>2021-07-31T09:42:13.000Z</time>
      </trkpt>
      <trkpt lat="49.79377" lon="4.86581">
        <ele>393</ele>
        <time>2021-07-31T09:42:14.000Z</time>
      </trkpt>
      <trkpt lat="49.79375" lon="4.8658">
        <ele>393</ele>
        <time>2021-07-31T09:42:15.000Z</time>
      </trkpt>
      <trkpt lat="49.79374" lon="4.86579">
        <ele>392</ele>
        <time>2021-07-31T09:42:16.000Z</time>
      </trkpt>
      <trkpt lat="49.79372" lon="4.86578">
        <ele>392</ele>
        <time>2021-07-31T09:42:17.000Z</time>
      </trkpt>
      <trkpt lat="49.79371" lon="4.86579">
        <ele>391</ele>
        <time>2021-07-31T09:42:18.000Z</time>
      </trkpt>
      <trkpt lat="49.79371" lon="4.8658">
        <ele>391</ele>
        <time>2021-07-31T09:42:19.000Z</time>
      </trkpt>
      <trkpt lat="49.79371" lon="4.86581">
        <ele>390</ele>
        <time>2021-07-31T09:42:20.000Z</time>
      </trkpt>
      <trkpt lat="49.79372" lon="4.86581">
        <ele>390</ele>
        <time>2021-07-31T09:42:21.000Z</time>
      </trkpt>
      <trkpt lat="49.79373" lon="4.86582">
        <ele>389</ele>
        <time>2021-07-31T09:42:22.000Z</time>
      </trkpt>
      <trkpt lat="49.79375" lon="4.86582">
        <ele>389</ele>
        <time>2021-07-31T09:42:23.000Z</time>
      </trkpt>
      <trkpt lat="49.79377" lon="4.86581">
        <ele>388</ele>
        <time>2021-07-31T09:42:24.000Z</time>
      </trkpt>
      <trkpt lat="49.7938" lon="4.8658">
        <ele>388</ele>
        <time>2021-07-31T09:42:25.000Z</time>
      </trkpt>
      <trkpt lat="49.79383" lon="4.86579">
        <ele>388</ele>
        <time>2021-07-31T09:42:26.000Z</time>
      </trkpt>
      <trkpt lat="49.79385" lon="4.86579">
        <ele>387</ele>
        <time>2021-07-31T09:42:27.000Z</time>
      </trkpt>
      <trkpt lat="49.79388" lon="4.86579">
        <ele>387</ele>
        <time>2021-07-31T09:42:28.000Z</time>
      </trkpt>
      <trkpt lat="49.79391" lon="4.86578">
        <ele>387</ele>
        <time>2021-07-31T09:42:29.000Z</time>
      </trkpt>
      <trkpt lat="49.79394" lon="4.86578">
        <ele>387</ele>
        <time>2021-07-31T09:42:30.000Z</time>
      </trkpt>
      <trkpt lat="49.79397" lon="4.86578">
        <ele>386</ele>
        <time>2021-07-31T09:42:31.000Z</time>
      </trkpt>
      <trkpt lat="49.794" lon="4.86578">
        <ele>386</ele>
        <time>2021-07-31T09:42:32.000Z</time>
      </trkpt>
      <trkpt lat="49.79403" lon="4.86577">
        <ele>386</ele>
        <time>2021-07-31T09:42:33.000Z</time>
      </trkpt>
      <trkpt lat="49.79406" lon="4.86577">
        <ele>386</ele>
        <time>2021-07-31T09:42:34.000Z</time>
      </trkpt>
      <trkpt lat="49.79409" lon="4.86577">
        <ele>386</ele>
        <time>2021-07-31T09:42:35.000Z</time>
      </trkpt>
      <trkpt lat="49.79411" lon="4.86578">
        <ele>386</ele>
        <time>2021-07-31T09:42:36.000Z</time>
      </trkpt>
      <trkpt lat="49.79414" lon="4.86579">
        <ele>386</ele>
        <time>2021-07-31T09:42:37.000Z</time>
      </trkpt>
      <trkpt lat="49.79416" lon="4.86579">
        <ele>386</ele>
        <time>2021-07-31T09:42:38.000Z</time>
      </trkpt>
      <trkpt lat="49.79419" lon="4.86579">
        <ele>386</ele>
        <time>2021-07-31T09:42:39.000Z</time>
      </trkpt>
      <trkpt lat="49.79422" lon="4.86579">
        <ele>386</ele>
        <time>2021-07-31T09:42:40.000Z</time>
      </trkpt>
      <trkpt lat="49.79425" lon="4.8658">
        <ele>387</ele>
        <time>2021-07-31T09:42:41.000Z</time>
      </trkpt>
      <trkpt lat="49.79427" lon="4.8658">
        <ele>387</ele>
        <time>2021-07-31T09:42:42.000Z</time>
      </trkpt>
      <trkpt lat="49.7943" lon="4.86581">
        <ele>387</ele>
        <time>2021-07-31T09:42:43.000Z</time>
      </trkpt>
      <trkpt lat="49.79432" lon="4.86582">
        <ele>387</ele>
        <time>2021-07-31T09:42:44.000Z</time>
      </trkpt>
      <trkpt lat="49.79434" lon="4.86583">
        <ele>387</ele>
        <time>2021-07-31T09:42:45.000Z</time>
      </trkpt>
      <trkpt lat="49.79437" lon="4.86583">
        <ele>387</ele>
        <time>2021-07-31T09:42:46.000Z</time>
      </trkpt>
      <trkpt lat="49.79441" lon="4.86584">
        <ele>387</ele>
        <time>2021-07-31T09:42:47.000Z</time>
      </trkpt>
      <trkpt lat="49.79444" lon="4.86585">
        <ele>387</ele>
        <time>2021-07-31T09:42:48.000Z</time>
      </trkpt>
      <trkpt lat="49.79447" lon="4.86586">
        <ele>388</ele>
        <time>2021-07-31T09:42:49.000Z</time>
      </trkpt>
      <trkpt lat="49.7945" lon="4.86587">
        <ele>388</ele>
        <time>2021-07-31T09:42:50.000Z</time>
      </trkpt>
      <trkpt lat="49.79453" lon="4.86589">
        <ele>388</ele>
        <time>2021-07-31T09:42:51.000Z</time>
      </trkpt>
      <trkpt lat="49.79455" lon="4.8659">
        <ele>388</ele>
        <time>2021-07-31T09:42:52.000Z</time>
      </trkpt>
      <trkpt lat="49.79458" lon="4.86592">
        <ele>388</ele>
        <time>2021-07-31T09:42:53.000Z</time>
      </trkpt>
      <trkpt lat="49.79461" lon="4.86594">
        <ele>388</ele>
        <time>2021-07-31T09:42:54.000Z</time>
      </trkpt>
      <trkpt lat="49.79463" lon="4.86596">
        <ele>389</ele>
        <time>2021-07-31T09:42:55.000Z</time>
      </trkpt>
      <trkpt lat="49.79465" lon="4.86599">
        <ele>389</ele>
        <time>2021-07-31T09:42:56.000Z</time>
      </trkpt>
      <trkpt lat="49.79467" lon="4.86601">
        <ele>389</ele>
        <time>2021-07-31T09:42:57.000Z</time>
      </trkpt>
      <trkpt lat="49.79469" lon="4.86604">
        <ele>389</ele>
        <time>2021-07-31T09:42:58.000Z</time>
      </trkpt>
      <trkpt lat="49.7947" lon="4.86607">
        <ele>389</ele>
        <time>2021-07-31T09:42:59.000Z</time>
      </trkpt>
      <trkpt lat="49.79473" lon="4.86609">
        <ele>390</ele>
        <time>2021-07-31T09:43:00.000Z</time>
      </trkpt>
      <trkpt lat="49.79475" lon="4.86611">
        <ele>390</ele>
        <time>2021-07-31T09:43:01.000Z</time>
      </trkpt>
      <trkpt lat="49.79478" lon="4.86613">
        <ele>390</ele>
        <time>2021-07-31T09:43:02.000Z</time>
      </trkpt>
      <trkpt lat="49.7948" lon="4.86615">
        <ele>390</ele>
        <time>2021-07-31T09:43:03.000Z</time>
      </trkpt>
      <trkpt lat="49.79482" lon="4.86617">
        <ele>391</ele>
        <time>2021-07-31T09:43:04.000Z</time>
      </trkpt>
      <trkpt lat="49.79485" lon="4.86619">
        <ele>391</ele>
        <time>2021-07-31T09:43:05.000Z</time>
      </trkpt>
      <trkpt lat="49.79487" lon="4.86621">
        <ele>391</ele>
        <time>2021-07-31T09:43:06.000Z</time>
      </trkpt>
      <trkpt lat="49.79489" lon="4.86623">
        <ele>392</ele>
        <time>2021-07-31T09:43:07.000Z</time>
      </trkpt>
      <trkpt lat="49.7949" lon="4.86623">
        <ele>392</ele>
        <time>2021-07-31T09:43:08.000Z</time>
      </trkpt>
      <trkpt lat="49.79491" lon="4.86622">
        <ele>392</ele>
        <time>2021-07-31T09:43:09.000Z</time>
      </trkpt>
      <trkpt lat="49.79492" lon="4.86621">
        <ele>392</ele>
        <time>2021-07-31T09:43:10.000Z</time>
      </trkpt>
      <trkpt lat="49.79492" lon="4.8662">
        <ele>393</ele>
        <time>2021-07-31T09:43:11.000Z</time>
      </trkpt>
      <trkpt lat="49.79492" lon="4.86619">
        <ele>393</ele>
        <time>2021-07-31T09:43:12.000Z</time>
      </trkpt>
      <trkpt lat="49.79492" lon="4.86617">
        <ele>393</ele>
        <time>2021-07-31T09:43:13.000Z</time>
      </trkpt>
      <trkpt lat="49.7949" lon="4.86615">
        <ele>393</ele>
        <time>2021-07-31T09:43:14.000Z</time>
      </trkpt>
      <trkpt lat="49.79489" lon="4.86613">
        <ele>394</ele>
        <time>2021-07-31T09:43:15.000Z</time>
      </trkpt>
      <trkpt lat="49.79487" lon="4.8661">
        <ele>394</ele>
        <time>2021-07-31T09:43:16.000Z</time>
      </trkpt>
      <trkpt lat="49.79485" lon="4.86607">
        <ele>394</ele>
        <time>2021-07-31T09:43:17.000Z</time>
      </trkpt>
      <trkpt lat="49.79483" lon="4.86604">
        <ele>394</ele>
        <time>2021-07-31T09:43:18.000Z</time>
      </trkpt>
      <trkpt lat="49.79481" lon="4.866">
        <ele>394</ele>
        <time>2021-07-31T09:43:19.000Z</time>
      </trkpt>
      <trkpt lat="49.79478" lon="4.86596">
        <ele>394</ele>
        <time>2021-07-31T09:43:20.000Z</time>
      </trkpt>
      <trkpt lat="49.79476" lon="4.86591">
        <ele>394</ele>
        <time>2021-07-31T09:43:21.000Z</time>
      </trkpt>
      <trkpt lat="49.79474" lon="4.86587">
        <ele>394</ele>
        <time>2021-07-31T09:43:22.000Z</time>
      </trkpt>
      <trkpt lat="49.79472" lon="4.86583">
        <ele>394</ele>
        <time>2021-07-31T09:43:23.000Z</time>
      </trkpt>
      <trkpt lat="49.7947" lon="4.86577">
        <ele>395</ele>
        <time>2021-07-31T09:43:24.000Z</time>
      </trkpt>
      <trkpt lat="49.79468" lon="4.86572">
        <ele>395</ele>
        <time>2021-07-31T09:43:25.000Z</time>
      </trkpt>
      <trkpt lat="49.79465" lon="4.86567">
        <ele>395</ele>
        <time>2021-07-31T09:43:26.000Z</time>
      </trkpt>
      <trkpt lat="49.79463" lon="4.86561">
        <ele>395</ele>
        <time>2021-07-31T09:43:27.000Z</time>
      </trkpt>
      <trkpt lat="49.79461" lon="4.86556">
        <ele>395</ele>
        <time>2021-07-31T09:43:28.000Z</time>
      </trkpt>
      <trkpt lat="49.79459" lon="4.8655">
        <ele>395</ele>
        <time>2021-07-31T09:43:29.000Z</time>
      </trkpt>
      <trkpt lat="49.79457" lon="4.86545">
        <ele>395</ele>
        <time>2021-07-31T09:43:30.000Z</time>
      </trkpt>
      <trkpt lat="49.79454" lon="4.86539">
        <ele>395</ele>
        <time>2021-07-31T09:43:31.000Z</time>
      </trkpt>
      <trkpt lat="49.79452" lon="4.86534">
        <ele>395</ele>
        <time>2021-07-31T09:43:32.000Z</time>
      </trkpt>
      <trkpt lat="49.7945" lon="4.86529">
        <ele>395</ele>
        <time>2021-07-31T09:43:33.000Z</time>
      </trkpt>
      <trkpt lat="49.79447" lon="4.86524">
        <ele>395</ele>
        <time>2021-07-31T09:43:34.000Z</time>
      </trkpt>
      <trkpt lat="49.79445" lon="4.86518">
        <ele>395</ele>
        <time>2021-07-31T09:43:35.000Z</time>
      </trkpt>
      <trkpt lat="49.79442" lon="4.86513">
        <ele>395</ele>
        <time>2021-07-31T09:43:36.000Z</time>
      </trkpt>
      <trkpt lat="49.7944" lon="4.86507">
        <ele>395</ele>
        <time>2021-07-31T09:43:37.000Z</time>
      </trkpt>
      <trkpt lat="49.79437" lon="4.86502">
        <ele>395</ele>
        <time>2021-07-31T09:43:38.000Z</time>
      </trkpt>
      <trkpt lat="49.79434" lon="4.86497">
        <ele>395</ele>
        <time>2021-07-31T09:43:39.000Z</time>
      </trkpt>
      <trkpt lat="49.7943" lon="4.86492">
        <ele>395</ele>
        <time>2021-07-31T09:43:40.000Z</time>
      </trkpt>
      <trkpt lat="49.79427" lon="4.86486">
        <ele>395</ele>
        <time>2021-07-31T09:43:41.000Z</time>
      </trkpt>
      <trkpt lat="49.79423" lon="4.8648">
        <ele>395</ele>
        <time>2021-07-31T09:43:42.000Z</time>
      </trkpt>
      <trkpt lat="49.79419" lon="4.86475">
        <ele>395</ele>
        <time>2021-07-31T09:43:43.000Z</time>
      </trkpt>
      <trkpt lat="49.79415" lon="4.8647">
        <ele>394</ele>
        <time>2021-07-31T09:43:44.000Z</time>
      </trkpt>
      <trkpt lat="49.79411" lon="4.86464">
        <ele>394</ele>
        <time>2021-07-31T09:43:45.000Z</time>
      </trkpt>
      <trkpt lat="49.79407" lon="4.86459">
        <ele>394</ele>
        <time>2021-07-31T09:43:46.000Z</time>
      </trkpt>
      <trkpt lat="49.79404" lon="4.86454">
        <ele>394</ele>
        <time>2021-07-31T09:43:47.000Z</time>
      </trkpt>
      <trkpt lat="49.794" lon="4.86449">
        <ele>394</ele>
        <time>2021-07-31T09:43:48.000Z</time>
      </trkpt>
      <trkpt lat="49.79395" lon="4.86443">
        <ele>394</ele>
        <time>2021-07-31T09:43:49.000Z</time>
      </trkpt>
      <trkpt lat="49.7939" lon="4.86438">
        <ele>394</ele>
        <time>2021-07-31T09:43:50.000Z</time>
      </trkpt>
      <trkpt lat="49.79385" lon="4.86433">
        <ele>394</ele>
        <time>2021-07-31T09:43:51.000Z</time>
      </trkpt>
      <trkpt lat="49.7938" lon="4.86428">
        <ele>393</ele>
        <time>2021-07-31T09:43:52.000Z</time>
      </trkpt>
      <trkpt lat="49.79376" lon="4.86423">
        <ele>393</ele>
        <time>2021-07-31T09:43:53.000Z</time>
      </trkpt>
      <trkpt lat="49.79371" lon="4.86418">
        <ele>393</ele>
        <time>2021-07-31T09:43:54.000Z</time>
      </trkpt>
      <trkpt lat="49.79365" lon="4.86414">
        <ele>393</ele>
        <time>2021-07-31T09:43:55.000Z</time>
      </trkpt>
      <trkpt lat="49.7936" lon="4.86411">
        <ele>392</ele>
        <time>2021-07-31T09:43:56.000Z</time>
      </trkpt>
      <trkpt lat="49.79355" lon="4.86407">
        <ele>392</ele>
        <time>2021-07-31T09:43:57.000Z</time>
      </trkpt>
      <trkpt lat="49.7935" lon="4.86403">
        <ele>392</ele>
        <time>2021-07-31T09:43:58.000Z</time>
      </trkpt>
      <trkpt lat="49.79345" lon="4.86401">
        <ele>392</ele>
        <time>2021-07-31T09:43:59.000Z</time>
      </trkpt>
      <trkpt lat="49.7934" lon="4.86398">
        <ele>391</ele>
        <time>2021-07-31T09:44:00.000Z</time>
      </trkpt>
      <trkpt lat="49.79336" lon="4.86396">
        <ele>391</ele>
        <time>2021-07-31T09:44:01.000Z</time>
      </trkpt>
      <trkpt lat="49.79331" lon="4.86394">
        <ele>391</ele>
        <time>2021-07-31T09:44:02.000Z</time>
      </trkpt>
      <trkpt lat="49.79326" lon="4.86391">
        <ele>391</ele>
        <time>2021-07-31T09:44:03.000Z</time>
      </trkpt>
      <trkpt lat="49.79322" lon="4.86389">
        <ele>391</ele>
        <time>2021-07-31T09:44:04.000Z</time>
      </trkpt>
      <trkpt lat="49.79318" lon="4.86387">
        <ele>391</ele>
        <time>2021-07-31T09:44:05.000Z</time>
      </trkpt>
      <trkpt lat="49.79314" lon="4.86385">
        <ele>390</ele>
        <time>2021-07-31T09:44:06.000Z</time>
      </trkpt>
      <trkpt lat="49.79311" lon="4.86383">
        <ele>390</ele>
        <time>2021-07-31T09:44:07.000Z</time>
      </trkpt>
      <trkpt lat="49.79307" lon="4.86382">
        <ele>390</ele>
        <time>2021-07-31T09:44:08.000Z</time>
      </trkpt>
      <trkpt lat="49.79304" lon="4.86381">
        <ele>390</ele>
        <time>2021-07-31T09:44:09.000Z</time>
      </trkpt>
      <trkpt lat="49.79301" lon="4.86381">
        <ele>389</ele>
        <time>2021-07-31T09:44:10.000Z</time>
      </trkpt>
      <trkpt lat="49.79298" lon="4.8638">
        <ele>389</ele>
        <time>2021-07-31T09:44:11.000Z</time>
      </trkpt>
      <trkpt lat="49.79295" lon="4.86378">
        <ele>389</ele>
        <time>2021-07-31T09:44:12.000Z</time>
      </trkpt>
      <trkpt lat="49.79291" lon="4.86376">
        <ele>389</ele>
        <time>2021-07-31T09:44:13.000Z</time>
      </trkpt>
      <trkpt lat="49.79288" lon="4.86374">
        <ele>389</ele>
        <time>2021-07-31T09:44:14.000Z</time>
      </trkpt>
      <trkpt lat="49.79284" lon="4.86372">
        <ele>389</ele>
        <time>2021-07-31T09:44:15.000Z</time>
      </trkpt>
      <trkpt lat="49.7928" lon="4.8637">
        <ele>389</ele>
        <time>2021-07-31T09:44:16.000Z</time>
      </trkpt>
      <trkpt lat="49.79277" lon="4.86367">
        <ele>389</ele>
        <time>2021-07-31T09:44:17.000Z</time>
      </trkpt>
      <trkpt lat="49.79274" lon="4.86365">
        <ele>388</ele>
        <time>2021-07-31T09:44:18.000Z</time>
      </trkpt>
      <trkpt lat="49.7927" lon="4.86362">
        <ele>388</ele>
        <time>2021-07-31T09:44:19.000Z</time>
      </trkpt>
      <trkpt lat="49.79267" lon="4.8636">
        <ele>388</ele>
        <time>2021-07-31T09:44:20.000Z</time>
      </trkpt>
      <trkpt lat="49.79264" lon="4.86358">
        <ele>388</ele>
        <time>2021-07-31T09:44:21.000Z</time>
      </trkpt>
      <trkpt lat="49.7926" lon="4.86356">
        <ele>388</ele>
        <time>2021-07-31T09:44:22.000Z</time>
      </trkpt>
      <trkpt lat="49.79257" lon="4.86353">
        <ele>387</ele>
        <time>2021-07-31T09:44:23.000Z</time>
      </trkpt>
      <trkpt lat="49.79253" lon="4.86351">
        <ele>387</ele>
        <time>2021-07-31T09:44:24.000Z</time>
      </trkpt>
      <trkpt lat="49.7925" lon="4.86348">
        <ele>387</ele>
        <time>2021-07-31T09:44:25.000Z</time>
      </trkpt>
      <trkpt lat="49.79246" lon="4.86346">
        <ele>387</ele>
        <time>2021-07-31T09:44:26.000Z</time>
      </trkpt>
      <trkpt lat="49.79243" lon="4.86344">
        <ele>387</ele>
        <time>2021-07-31T09:44:27.000Z</time>
      </trkpt>
      <trkpt lat="49.7924" lon="4.86342">
        <ele>387</ele>
        <time>2021-07-31T09:44:28.000Z</time>
      </trkpt>
      <trkpt lat="49.79237" lon="4.86339">
        <ele>387</ele>
        <time>2021-07-31T09:44:29.000Z</time>
      </trkpt>
      <trkpt lat="49.79233" lon="4.86338">
        <ele>388</ele>
        <time>2021-07-31T09:44:30.000Z</time>
      </trkpt>
      <trkpt lat="49.79229" lon="4.86336">
        <ele>388</ele>
        <time>2021-07-31T09:44:31.000Z</time>
      </trkpt>
      <trkpt lat="49.79225" lon="4.86334">
        <ele>388</ele>
        <time>2021-07-31T09:44:32.000Z</time>
      </trkpt>
      <trkpt lat="49.79222" lon="4.86331">
        <ele>388</ele>
        <time>2021-07-31T09:44:33.000Z</time>
      </trkpt>
      <trkpt lat="49.79219" lon="4.86329">
        <ele>388</ele>
        <time>2021-07-31T09:44:34.000Z</time>
      </trkpt>
      <trkpt lat="49.79216" lon="4.86328">
        <ele>388</ele>
        <time>2021-07-31T09:44:35.000Z</time>
      </trkpt>
      <trkpt lat="49.79213" lon="4.86326">
        <ele>388</ele>
        <time>2021-07-31T09:44:36.000Z</time>
      </trkpt>
      <trkpt lat="49.7921" lon="4.86324">
        <ele>388</ele>
        <time>2021-07-31T09:44:37.000Z</time>
      </trkpt>
      <trkpt lat="49.79206" lon="4.86323">
        <ele>388</ele>
        <time>2021-07-31T09:44:38.000Z</time>
      </trkpt>
      <trkpt lat="49.79202" lon="4.86322">
        <ele>388</ele>
        <time>2021-07-31T09:44:39.000Z</time>
      </trkpt>
      <trkpt lat="49.79199" lon="4.8632">
        <ele>388</ele>
        <time>2021-07-31T09:44:40.000Z</time>
      </trkpt>
      <trkpt lat="49.79196" lon="4.86318">
        <ele>388</ele>
        <time>2021-07-31T09:44:41.000Z</time>
      </trkpt>
      <trkpt lat="49.79193" lon="4.86318">
        <ele>388</ele>
        <time>2021-07-31T09:44:42.000Z</time>
      </trkpt>
      <trkpt lat="49.7919" lon="4.86316">
        <ele>388</ele>
        <time>2021-07-31T09:44:43.000Z</time>
      </trkpt>
      <trkpt lat="49.79187" lon="4.86314">
        <ele>388</ele>
        <time>2021-07-31T09:44:44.000Z</time>
      </trkpt>
      <trkpt lat="49.79183" lon="4.86312">
        <ele>388</ele>
        <time>2021-07-31T09:44:45.000Z</time>
      </trkpt>
      <trkpt lat="49.79179" lon="4.86311">
        <ele>388</ele>
        <time>2021-07-31T09:44:46.000Z</time>
      </trkpt>
      <trkpt lat="49.79174" lon="4.8631">
        <ele>388</ele>
        <time>2021-07-31T09:44:47.000Z</time>
      </trkpt>
      <trkpt lat="49.79169" lon="4.86308">
        <ele>388</ele>
        <time>2021-07-31T09:44:48.000Z</time>
      </trkpt>
      <trkpt lat="49.79164" lon="4.86306">
        <ele>388</ele>
        <time>2021-07-31T09:44:49.000Z</time>
      </trkpt>
      <trkpt lat="49.79159" lon="4.86303">
        <ele>388</ele>
        <time>2021-07-31T09:44:50.000Z</time>
      </trkpt>
      <trkpt lat="49.79155" lon="4.86301">
        <ele>388</ele>
        <time>2021-07-31T09:44:51.000Z</time>
      </trkpt>
      <trkpt lat="49.7915" lon="4.86299">
        <ele>388</ele>
        <time>2021-07-31T09:44:52.000Z</time>
      </trkpt>
      <trkpt lat="49.79146" lon="4.86297">
        <ele>389</ele>
        <time>2021-07-31T09:44:53.000Z</time>
      </trkpt>
      <trkpt lat="49.79142" lon="4.86296">
        <ele>389</ele>
        <time>2021-07-31T09:44:54.000Z</time>
      </trkpt>
      <trkpt lat="49.79138" lon="4.86294">
        <ele>389</ele>
        <time>2021-07-31T09:44:55.000Z</time>
      </trkpt>
      <trkpt lat="49.79134" lon="4.86293">
        <ele>389</ele>
        <time>2021-07-31T09:44:56.000Z</time>
      </trkpt>
      <trkpt lat="49.79131" lon="4.86291">
        <ele>389</ele>
        <time>2021-07-31T09:44:57.000Z</time>
      </trkpt>
      <trkpt lat="49.79127" lon="4.86289">
        <ele>389</ele>
        <time>2021-07-31T09:44:58.000Z</time>
      </trkpt>
      <trkpt lat="49.79123" lon="4.86287">
        <ele>389</ele>
        <time>2021-07-31T09:44:59.000Z</time>
      </trkpt>
      <trkpt lat="49.7912" lon="4.86285">
        <ele>389</ele>
        <time>2021-07-31T09:45:00.000Z</time>
      </trkpt>
      <trkpt lat="49.79116" lon="4.86282">
        <ele>389</ele>
        <time>2021-07-31T09:45:01.000Z</time>
      </trkpt>
      <trkpt lat="49.79112" lon="4.86281">
        <ele>389</ele>
        <time>2021-07-31T09:45:02.000Z</time>
      </trkpt>
      <trkpt lat="49.79108" lon="4.86279">
        <ele>389</ele>
        <time>2021-07-31T09:45:03.000Z</time>
      </trkpt>
      <trkpt lat="49.79104" lon="4.86278">
        <ele>389</ele>
        <time>2021-07-31T09:45:04.000Z</time>
      </trkpt>
      <trkpt lat="49.79101" lon="4.86275">
        <ele>388</ele>
        <time>2021-07-31T09:45:05.000Z</time>
      </trkpt>
      <trkpt lat="49.79097" lon="4.86273">
        <ele>388</ele>
        <time>2021-07-31T09:45:06.000Z</time>
      </trkpt>
      <trkpt lat="49.79093" lon="4.8627">
        <ele>388</ele>
        <time>2021-07-31T09:45:07.000Z</time>
      </trkpt>
      <trkpt lat="49.7909" lon="4.86268">
        <ele>388</ele>
        <time>2021-07-31T09:45:08.000Z</time>
      </trkpt>
      <trkpt lat="49.79086" lon="4.86265">
        <ele>387</ele>
        <time>2021-07-31T09:45:09.000Z</time>
      </trkpt>
      <trkpt lat="49.79083" lon="4.86263">
        <ele>387</ele>
        <time>2021-07-31T09:45:10.000Z</time>
      </trkpt>
      <trkpt lat="49.79079" lon="4.8626">
        <ele>387</ele>
        <time>2021-07-31T09:45:11.000Z</time>
      </trkpt>
      <trkpt lat="49.79076" lon="4.86258">
        <ele>387</ele>
        <time>2021-07-31T09:45:12.000Z</time>
      </trkpt>
      <trkpt lat="49.79072" lon="4.86256">
        <ele>386</ele>
        <time>2021-07-31T09:45:13.000Z</time>
      </trkpt>
      <trkpt lat="49.79068" lon="4.86254">
        <ele>386</ele>
        <time>2021-07-31T09:45:14.000Z</time>
      </trkpt>
      <trkpt lat="49.79064" lon="4.86253">
        <ele>386</ele>
        <time>2021-07-31T09:45:15.000Z</time>
      </trkpt>
      <trkpt lat="49.7906" lon="4.8625">
        <ele>386</ele>
        <time>2021-07-31T09:45:16.000Z</time>
      </trkpt>
      <trkpt lat="49.79055" lon="4.86248">
        <ele>386</ele>
        <time>2021-07-31T09:45:17.000Z</time>
      </trkpt>
      <trkpt lat="49.7905" lon="4.86245">
        <ele>386</ele>
        <time>2021-07-31T09:45:18.000Z</time>
      </trkpt>
      <trkpt lat="49.79045" lon="4.86243">
        <ele>386</ele>
        <time>2021-07-31T09:45:19.000Z</time>
      </trkpt>
      <trkpt lat="49.7904" lon="4.8624">
        <ele>385</ele>
        <time>2021-07-31T09:45:20.000Z</time>
      </trkpt>
      <trkpt lat="49.79036" lon="4.86236">
        <ele>385</ele>
        <time>2021-07-31T09:45:21.000Z</time>
      </trkpt>
      <trkpt lat="49.79033" lon="4.86232">
        <ele>385</ele>
        <time>2021-07-31T09:45:22.000Z</time>
      </trkpt>
      <trkpt lat="49.79028" lon="4.86228">
        <ele>385</ele>
        <time>2021-07-31T09:45:23.000Z</time>
      </trkpt>
      <trkpt lat="49.79024" lon="4.86224">
        <ele>384</ele>
        <time>2021-07-31T09:45:24.000Z</time>
      </trkpt>
      <trkpt lat="49.79018" lon="4.8622">
        <ele>384</ele>
        <time>2021-07-31T09:45:25.000Z</time>
      </trkpt>
      <trkpt lat="49.79014" lon="4.86215">
        <ele>384</ele>
        <time>2021-07-31T09:45:26.000Z</time>
      </trkpt>
      <trkpt lat="49.7901" lon="4.86211">
        <ele>383</ele>
        <time>2021-07-31T09:45:27.000Z</time>
      </trkpt>
      <trkpt lat="49.79005" lon="4.86208">
        <ele>383</ele>
        <time>2021-07-31T09:45:28.000Z</time>
      </trkpt>
      <trkpt lat="49.79001" lon="4.86206">
        <ele>383</ele>
        <time>2021-07-31T09:45:29.000Z</time>
      </trkpt>
      <trkpt lat="49.78997" lon="4.86202">
        <ele>383</ele>
        <time>2021-07-31T09:45:30.000Z</time>
      </trkpt>
      <trkpt lat="49.78993" lon="4.86199">
        <ele>383</ele>
        <time>2021-07-31T09:45:31.000Z</time>
      </trkpt>
      <trkpt lat="49.78988" lon="4.86196">
        <ele>383</ele>
        <time>2021-07-31T09:45:32.000Z</time>
      </trkpt>
      <trkpt lat="49.78984" lon="4.86192">
        <ele>383</ele>
        <time>2021-07-31T09:45:33.000Z</time>
      </trkpt>
      <trkpt lat="49.7898" lon="4.86189">
        <ele>382</ele>
        <time>2021-07-31T09:45:34.000Z</time>
      </trkpt>
      <trkpt lat="49.78976" lon="4.86187">
        <ele>382</ele>
        <time>2021-07-31T09:45:35.000Z</time>
      </trkpt>
      <trkpt lat="49.78972" lon="4.86184">
        <ele>382</ele>
        <time>2021-07-31T09:45:36.000Z</time>
      </trkpt>
      <trkpt lat="49.78968" lon="4.86181">
        <ele>382</ele>
        <time>2021-07-31T09:45:37.000Z</time>
      </trkpt>
      <trkpt lat="49.78963" lon="4.86178">
        <ele>382</ele>
        <time>2021-07-31T09:45:38.000Z</time>
      </trkpt>
      <trkpt lat="49.78958" lon="4.86174">
        <ele>381</ele>
        <time>2021-07-31T09:45:39.000Z</time>
      </trkpt>
      <trkpt lat="49.78952" lon="4.86169">
        <ele>381</ele>
        <time>2021-07-31T09:45:40.000Z</time>
      </trkpt>
      <trkpt lat="49.78948" lon="4.86164">
        <ele>381</ele>
        <time>2021-07-31T09:45:41.000Z</time>
      </trkpt>
      <trkpt lat="49.78944" lon="4.8616">
        <ele>381</ele>
        <time>2021-07-31T09:45:42.000Z</time>
      </trkpt>
      <trkpt lat="49.7894" lon="4.86155">
        <ele>380</ele>
        <time>2021-07-31T09:45:43.000Z</time>
      </trkpt>
      <trkpt lat="49.78937" lon="4.86152">
        <ele>380</ele>
        <time>2021-07-31T09:45:44.000Z</time>
      </trkpt>
      <trkpt lat="49.78936" lon="4.8615">
        <ele>380</ele>
        <time>2021-07-31T09:45:45.000Z</time>
      </trkpt>
      <trkpt lat="49.78934" lon="4.86149">
        <ele>380</ele>
        <time>2021-07-31T09:45:46.000Z</time>
      </trkpt>
      <trkpt lat="49.78932" lon="4.86147">
        <ele>379</ele>
        <time>2021-07-31T09:45:47.000Z</time>
      </trkpt>
      <trkpt lat="49.78929" lon="4.86146">
        <ele>379</ele>
        <time>2021-07-31T09:45:48.000Z</time>
      </trkpt>
      <trkpt lat="49.78927" lon="4.86144">
        <ele>379</ele>
        <time>2021-07-31T09:45:49.000Z</time>
      </trkpt>
      <trkpt lat="49.78924" lon="4.86142">
        <ele>379</ele>
        <time>2021-07-31T09:45:50.000Z</time>
      </trkpt>
      <trkpt lat="49.78921" lon="4.86139">
        <ele>378</ele>
        <time>2021-07-31T09:45:51.000Z</time>
      </trkpt>
      <trkpt lat="49.78918" lon="4.86136">
        <ele>378</ele>
        <time>2021-07-31T09:45:52.000Z</time>
      </trkpt>
      <trkpt lat="49.78914" lon="4.86132">
        <ele>378</ele>
        <time>2021-07-31T09:45:53.000Z</time>
      </trkpt>
      <trkpt lat="49.78912" lon="4.86129">
        <ele>378</ele>
        <time>2021-07-31T09:45:54.000Z</time>
      </trkpt>
      <trkpt lat="49.78908" lon="4.86126">
        <ele>377</ele>
        <time>2021-07-31T09:45:55.000Z</time>
      </trkpt>
      <trkpt lat="49.78905" lon="4.86123">
        <ele>377</ele>
        <time>2021-07-31T09:45:56.000Z</time>
      </trkpt>
      <trkpt lat="49.78902" lon="4.8612">
        <ele>377</ele>
        <time>2021-07-31T09:45:57.000Z</time>
      </trkpt>
      <trkpt lat="49.78898" lon="4.86118">
        <ele>376</ele>
        <time>2021-07-31T09:45:58.000Z</time>
      </trkpt>
      <trkpt lat="49.78894" lon="4.86115">
        <ele>376</ele>
        <time>2021-07-31T09:45:59.000Z</time>
      </trkpt>
      <trkpt lat="49.78889" lon="4.86111">
        <ele>375</ele>
        <time>2021-07-31T09:46:00.000Z</time>
      </trkpt>
      <trkpt lat="49.78885" lon="4.86108">
        <ele>375</ele>
        <time>2021-07-31T09:46:01.000Z</time>
      </trkpt>
      <trkpt lat="49.78881" lon="4.86105">
        <ele>375</ele>
        <time>2021-07-31T09:46:02.000Z</time>
      </trkpt>
      <trkpt lat="49.78877" lon="4.86102">
        <ele>374</ele>
        <time>2021-07-31T09:46:03.000Z</time>
      </trkpt>
      <trkpt lat="49.78874" lon="4.861">
        <ele>374</ele>
        <time>2021-07-31T09:46:04.000Z</time>
      </trkpt>
      <trkpt lat="49.78871" lon="4.86097">
        <ele>374</ele>
        <time>2021-07-31T09:46:05.000Z</time>
      </trkpt>
      <trkpt lat="49.78868" lon="4.86095">
        <ele>373</ele>
        <time>2021-07-31T09:46:06.000Z</time>
      </trkpt>
      <trkpt lat="49.78864" lon="4.86093">
        <ele>373</ele>
        <time>2021-07-31T09:46:07.000Z</time>
      </trkpt>
      <trkpt lat="49.78861" lon="4.86091">
        <ele>373</ele>
        <time>2021-07-31T09:46:08.000Z</time>
      </trkpt>
      <trkpt lat="49.78858" lon="4.86089">
        <ele>373</ele>
        <time>2021-07-31T09:46:09.000Z</time>
      </trkpt>
      <trkpt lat="49.78854" lon="4.86087">
        <ele>372</ele>
        <time>2021-07-31T09:46:10.000Z</time>
      </trkpt>
      <trkpt lat="49.78851" lon="4.86086">
        <ele>372</ele>
        <time>2021-07-31T09:46:11.000Z</time>
      </trkpt>
      <trkpt lat="49.78847" lon="4.86085">
        <ele>372</ele>
        <time>2021-07-31T09:46:12.000Z</time>
      </trkpt>
      <trkpt lat="49.78843" lon="4.86084">
        <ele>371</ele>
        <time>2021-07-31T09:46:13.000Z</time>
      </trkpt>
      <trkpt lat="49.78839" lon="4.86083">
        <ele>371</ele>
        <time>2021-07-31T09:46:14.000Z</time>
      </trkpt>
      <trkpt lat="49.78835" lon="4.86081">
        <ele>371</ele>
        <time>2021-07-31T09:46:15.000Z</time>
      </trkpt>
      <trkpt lat="49.78831" lon="4.8608">
        <ele>371</ele>
        <time>2021-07-31T09:46:16.000Z</time>
      </trkpt>
      <trkpt lat="49.78828" lon="4.86079">
        <ele>370</ele>
        <time>2021-07-31T09:46:17.000Z</time>
      </trkpt>
      <trkpt lat="49.78826" lon="4.86078">
        <ele>370</ele>
        <time>2021-07-31T09:46:18.000Z</time>
      </trkpt>
      <trkpt lat="49.78825" lon="4.86076">
        <ele>370</ele>
        <time>2021-07-31T09:46:19.000Z</time>
      </trkpt>
      <trkpt lat="49.78824" lon="4.86076">
        <ele>369</ele>
        <time>2021-07-31T09:46:20.000Z</time>
      </trkpt>
      <trkpt lat="49.78823" lon="4.86076">
        <ele>369</ele>
        <time>2021-07-31T09:46:21.000Z</time>
      </trkpt>
      <trkpt lat="49.78822" lon="4.86077">
        <ele>369</ele>
        <time>2021-07-31T09:46:22.000Z</time>
      </trkpt>
      <trkpt lat="49.7882" lon="4.86077">
        <ele>369</ele>
        <time>2021-07-31T09:46:23.000Z</time>
      </trkpt>
      <trkpt lat="49.78818" lon="4.86076">
        <ele>368</ele>
        <time>2021-07-31T09:46:24.000Z</time>
      </trkpt>
      <trkpt lat="49.78815" lon="4.86076">
        <ele>368</ele>
        <time>2021-07-31T09:46:25.000Z</time>
      </trkpt>
      <trkpt lat="49.78813" lon="4.86075">
        <ele>368</ele>
        <time>2021-07-31T09:46:26.000Z</time>
      </trkpt>
      <trkpt lat="49.7881" lon="4.86074">
        <ele>368</ele>
        <time>2021-07-31T09:46:27.000Z</time>
      </trkpt>
      <trkpt lat="49.78807" lon="4.86074">
        <ele>367</ele>
        <time>2021-07-31T09:46:28.000Z</time>
      </trkpt>
      <trkpt lat="49.78804" lon="4.86073">
        <ele>367</ele>
        <time>2021-07-31T09:46:29.000Z</time>
      </trkpt>
      <trkpt lat="49.78802" lon="4.86073">
        <ele>367</ele>
        <time>2021-07-31T09:46:30.000Z</time>
      </trkpt>
      <trkpt lat="49.78799" lon="4.86072">
        <ele>367</ele>
        <time>2021-07-31T09:46:31.000Z</time>
      </trkpt>
      <trkpt lat="49.78796" lon="4.86071">
        <ele>366</ele>
        <time>2021-07-31T09:46:32.000Z</time>
      </trkpt>
      <trkpt lat="49.78794" lon="4.8607">
        <ele>366</ele>
        <time>2021-07-31T09:46:33.000Z</time>
      </trkpt>
      <trkpt lat="49.78791" lon="4.86069">
        <ele>366</ele>
        <time>2021-07-31T09:46:34.000Z</time>
      </trkpt>
      <trkpt lat="49.78788" lon="4.86068">
        <ele>366</ele>
        <time>2021-07-31T09:46:35.000Z</time>
      </trkpt>
      <trkpt lat="49.78784" lon="4.86067">
        <ele>366</ele>
        <time>2021-07-31T09:46:36.000Z</time>
      </trkpt>
      <trkpt lat="49.78781" lon="4.86066">
        <ele>365</ele>
        <time>2021-07-31T09:46:37.000Z</time>
      </trkpt>
      <trkpt lat="49.78777" lon="4.86065">
        <ele>365</ele>
        <time>2021-07-31T09:46:38.000Z</time>
      </trkpt>
      <trkpt lat="49.78773" lon="4.86063">
        <ele>365</ele>
        <time>2021-07-31T09:46:39.000Z</time>
      </trkpt>
      <trkpt lat="49.78769" lon="4.86061">
        <ele>365</ele>
        <time>2021-07-31T09:46:40.000Z</time>
      </trkpt>
      <trkpt lat="49.78765" lon="4.86059">
        <ele>365</ele>
        <time>2021-07-31T09:46:41.000Z</time>
      </trkpt>
      <trkpt lat="49.78761" lon="4.86056">
        <ele>364</ele>
        <time>2021-07-31T09:46:42.000Z</time>
      </trkpt>
      <trkpt lat="49.78758" lon="4.86053">
        <ele>364</ele>
        <time>2021-07-31T09:46:43.000Z</time>
      </trkpt>
      <trkpt lat="49.78754" lon="4.8605">
        <ele>364</ele>
        <time>2021-07-31T09:46:44.000Z</time>
      </trkpt>
      <trkpt lat="49.78751" lon="4.86048">
        <ele>364</ele>
        <time>2021-07-31T09:46:45.000Z</time>
      </trkpt>
      <trkpt lat="49.78748" lon="4.86046">
        <ele>364</ele>
        <time>2021-07-31T09:46:46.000Z</time>
      </trkpt>
      <trkpt lat="49.78744" lon="4.86044">
        <ele>363</ele>
        <time>2021-07-31T09:46:47.000Z</time>
      </trkpt>
      <trkpt lat="49.78741" lon="4.86041">
        <ele>363</ele>
        <time>2021-07-31T09:46:48.000Z</time>
      </trkpt>
      <trkpt lat="49.78738" lon="4.86039">
        <ele>363</ele>
        <time>2021-07-31T09:46:49.000Z</time>
      </trkpt>
      <trkpt lat="49.78734" lon="4.86036">
        <ele>363</ele>
        <time>2021-07-31T09:46:50.000Z</time>
      </trkpt>
      <trkpt lat="49.78731" lon="4.86033">
        <ele>363</ele>
        <time>2021-07-31T09:46:51.000Z</time>
      </trkpt>
      <trkpt lat="49.78728" lon="4.8603">
        <ele>362</ele>
        <time>2021-07-31T09:46:52.000Z</time>
      </trkpt>
      <trkpt lat="49.78723" lon="4.86027">
        <ele>362</ele>
        <time>2021-07-31T09:46:53.000Z</time>
      </trkpt>
      <trkpt lat="49.78719" lon="4.86023">
        <ele>362</ele>
        <time>2021-07-31T09:46:54.000Z</time>
      </trkpt>
      <trkpt lat="49.78714" lon="4.86019">
        <ele>362</ele>
        <time>2021-07-31T09:46:55.000Z</time>
      </trkpt>
      <trkpt lat="49.7871" lon="4.86017">
        <ele>361</ele>
        <time>2021-07-31T09:46:56.000Z</time>
      </trkpt>
      <trkpt lat="49.78708" lon="4.86015">
        <ele>361</ele>
        <time>2021-07-31T09:46:57.000Z</time>
      </trkpt>
      <trkpt lat="49.78705" lon="4.86013">
        <ele>361</ele>
        <time>2021-07-31T09:46:58.000Z</time>
      </trkpt>
      <trkpt lat="49.78702" lon="4.86011">
        <ele>361</ele>
        <time>2021-07-31T09:46:59.000Z</time>
      </trkpt>
      <trkpt lat="49.78701" lon="4.8601">
        <ele>360</ele>
        <time>2021-07-31T09:47:00.000Z</time>
      </trkpt>
      <trkpt lat="49.78699" lon="4.86008">
        <ele>360</ele>
        <time>2021-07-31T09:47:01.000Z</time>
      </trkpt>
      <trkpt lat="49.78696" lon="4.86006">
        <ele>360</ele>
        <time>2021-07-31T09:47:02.000Z</time>
      </trkpt>
      <trkpt lat="49.78693" lon="4.86004">
        <ele>360</ele>
        <time>2021-07-31T09:47:03.000Z</time>
      </trkpt>
      <trkpt lat="49.78691" lon="4.86003">
        <ele>359</ele>
        <time>2021-07-31T09:47:04.000Z</time>
      </trkpt>
      <trkpt lat="49.78689" lon="4.86001">
        <ele>359</ele>
        <time>2021-07-31T09:47:05.000Z</time>
      </trkpt>
      <trkpt lat="49.78686" lon="4.85999">
        <ele>359</ele>
        <time>2021-07-31T09:47:06.000Z</time>
      </trkpt>
      <trkpt lat="49.78684" lon="4.85997">
        <ele>358</ele>
        <time>2021-07-31T09:47:07.000Z</time>
      </trkpt>
      <trkpt lat="49.78681" lon="4.85996">
        <ele>358</ele>
        <time>2021-07-31T09:47:08.000Z</time>
      </trkpt>
      <trkpt lat="49.78679" lon="4.85994">
        <ele>358</ele>
        <time>2021-07-31T09:47:09.000Z</time>
      </trkpt>
      <trkpt lat="49.78676" lon="4.85992">
        <ele>358</ele>
        <time>2021-07-31T09:47:10.000Z</time>
      </trkpt>
      <trkpt lat="49.78672" lon="4.8599">
        <ele>357</ele>
        <time>2021-07-31T09:47:11.000Z</time>
      </trkpt>
      <trkpt lat="49.78669" lon="4.85987">
        <ele>357</ele>
        <time>2021-07-31T09:47:12.000Z</time>
      </trkpt>
      <trkpt lat="49.78665" lon="4.85985">
        <ele>357</ele>
        <time>2021-07-31T09:47:13.000Z</time>
      </trkpt>
      <trkpt lat="49.78661" lon="4.85982">
        <ele>357</ele>
        <time>2021-07-31T09:47:14.000Z</time>
      </trkpt>
      <trkpt lat="49.78657" lon="4.85979">
        <ele>356</ele>
        <time>2021-07-31T09:47:15.000Z</time>
      </trkpt>
      <trkpt lat="49.78652" lon="4.85976">
        <ele>356</ele>
        <time>2021-07-31T09:47:16.000Z</time>
      </trkpt>
      <trkpt lat="49.78647" lon="4.85972">
        <ele>356</ele>
        <time>2021-07-31T09:47:17.000Z</time>
      </trkpt>
      <trkpt lat="49.78643" lon="4.85968">
        <ele>356</ele>
        <time>2021-07-31T09:47:18.000Z</time>
      </trkpt>
      <trkpt lat="49.78639" lon="4.85965">
        <ele>355</ele>
        <time>2021-07-31T09:47:19.000Z</time>
      </trkpt>
      <trkpt lat="49.78636" lon="4.85961">
        <ele>355</ele>
        <time>2021-07-31T09:47:20.000Z</time>
      </trkpt>
      <trkpt lat="49.78631" lon="4.85957">
        <ele>355</ele>
        <time>2021-07-31T09:47:21.000Z</time>
      </trkpt>
      <trkpt lat="49.78626" lon="4.85953">
        <ele>355</ele>
        <time>2021-07-31T09:47:22.000Z</time>
      </trkpt>
      <trkpt lat="49.78622" lon="4.8595">
        <ele>354</ele>
        <time>2021-07-31T09:47:23.000Z</time>
      </trkpt>
      <trkpt lat="49.78618" lon="4.85947">
        <ele>354</ele>
        <time>2021-07-31T09:47:24.000Z</time>
      </trkpt>
      <trkpt lat="49.78616" lon="4.85946">
        <ele>354</ele>
        <time>2021-07-31T09:47:25.000Z</time>
      </trkpt>
      <trkpt lat="49.78615" lon="4.85943">
        <ele>354</ele>
        <time>2021-07-31T09:47:26.000Z</time>
      </trkpt>
      <trkpt lat="49.78614" lon="4.85942">
        <ele>353</ele>
        <time>2021-07-31T09:47:27.000Z</time>
      </trkpt>
      <trkpt lat="49.78614" lon="4.8594">
        <ele>353</ele>
        <time>2021-07-31T09:47:28.000Z</time>
      </trkpt>
      <trkpt lat="49.78614" lon="4.85939">
        <ele>353</ele>
        <time>2021-07-31T09:47:29.000Z</time>
      </trkpt>
      <trkpt lat="49.78615" lon="4.85937">
        <ele>352</ele>
        <time>2021-07-31T09:47:30.000Z</time>
      </trkpt>
      <trkpt lat="49.78616" lon="4.85935">
        <ele>352</ele>
        <time>2021-07-31T09:47:31.000Z</time>
      </trkpt>
      <trkpt lat="49.78618" lon="4.85932">
        <ele>351</ele>
        <time>2021-07-31T09:47:32.000Z</time>
      </trkpt>
      <trkpt lat="49.7862" lon="4.85927">
        <ele>351</ele>
        <time>2021-07-31T09:47:33.000Z</time>
      </trkpt>
      <trkpt lat="49.78623" lon="4.8592">
        <ele>351</ele>
        <time>2021-07-31T09:47:34.000Z</time>
      </trkpt>
      <trkpt lat="49.78625" lon="4.85913">
        <ele>350</ele>
        <time>2021-07-31T09:47:35.000Z</time>
      </trkpt>
      <trkpt lat="49.78627" lon="4.85907">
        <ele>350</ele>
        <time>2021-07-31T09:47:36.000Z</time>
      </trkpt>
      <trkpt lat="49.7863" lon="4.859">
        <ele>350</ele>
        <time>2021-07-31T09:47:37.000Z</time>
      </trkpt>
      <trkpt lat="49.78633" lon="4.85893">
        <ele>350</ele>
        <time>2021-07-31T09:47:38.000Z</time>
      </trkpt>
      <trkpt lat="49.78635" lon="4.85888">
        <ele>350</ele>
        <time>2021-07-31T09:47:39.000Z</time>
      </trkpt>
      <trkpt lat="49.78638" lon="4.85881">
        <ele>350</ele>
        <time>2021-07-31T09:47:40.000Z</time>
      </trkpt>
      <trkpt lat="49.7864" lon="4.85875">
        <ele>349</ele>
        <time>2021-07-31T09:47:41.000Z</time>
      </trkpt>
      <trkpt lat="49.78642" lon="4.85867">
        <ele>349</ele>
        <time>2021-07-31T09:47:42.000Z</time>
      </trkpt>
      <trkpt lat="49.78644" lon="4.85859">
        <ele>349</ele>
        <time>2021-07-31T09:47:43.000Z</time>
      </trkpt>
      <trkpt lat="49.78647" lon="4.85851">
        <ele>349</ele>
        <time>2021-07-31T09:47:44.000Z</time>
      </trkpt>
      <trkpt lat="49.78649" lon="4.85843">
        <ele>349</ele>
        <time>2021-07-31T09:47:45.000Z</time>
      </trkpt>
      <trkpt lat="49.78651" lon="4.85835">
        <ele>349</ele>
        <time>2021-07-31T09:47:46.000Z</time>
      </trkpt>
      <trkpt lat="49.78654" lon="4.85828">
        <ele>349</ele>
        <time>2021-07-31T09:47:47.000Z</time>
      </trkpt>
      <trkpt lat="49.78655" lon="4.85823">
        <ele>349</ele>
        <time>2021-07-31T09:47:48.000Z</time>
      </trkpt>
      <trkpt lat="49.78657" lon="4.85818">
        <ele>349</ele>
        <time>2021-07-31T09:47:49.000Z</time>
      </trkpt>
      <trkpt lat="49.78658" lon="4.85811">
        <ele>349</ele>
        <time>2021-07-31T09:47:50.000Z</time>
      </trkpt>
      <trkpt lat="49.7866" lon="4.85805">
        <ele>349</ele>
        <time>2021-07-31T09:47:51.000Z</time>
      </trkpt>
      <trkpt lat="49.78661" lon="4.85799">
        <ele>348</ele>
        <time>2021-07-31T09:47:52.000Z</time>
      </trkpt>
      <trkpt lat="49.78663" lon="4.85794">
        <ele>348</ele>
        <time>2021-07-31T09:47:53.000Z</time>
      </trkpt>
      <trkpt lat="49.78665" lon="4.85788">
        <ele>348</ele>
        <time>2021-07-31T09:47:54.000Z</time>
      </trkpt>
      <trkpt lat="49.78668" lon="4.85783">
        <ele>348</ele>
        <time>2021-07-31T09:47:55.000Z</time>
      </trkpt>
      <trkpt lat="49.7867" lon="4.85778">
        <ele>347</ele>
        <time>2021-07-31T09:47:56.000Z</time>
      </trkpt>
      <trkpt lat="49.78672" lon="4.85774">
        <ele>347</ele>
        <time>2021-07-31T09:47:57.000Z</time>
      </trkpt>
      <trkpt lat="49.78675" lon="4.85768">
        <ele>347</ele>
        <time>2021-07-31T09:47:58.000Z</time>
      </trkpt>
      <trkpt lat="49.78676" lon="4.85763">
        <ele>346</ele>
        <time>2021-07-31T09:47:59.000Z</time>
      </trkpt>
      <trkpt lat="49.78678" lon="4.85759">
        <ele>346</ele>
        <time>2021-07-31T09:48:00.000Z</time>
      </trkpt>
      <trkpt lat="49.78678" lon="4.85754">
        <ele>345</ele>
        <time>2021-07-31T09:48:01.000Z</time>
      </trkpt>
      <trkpt lat="49.78678" lon="4.85747">
        <ele>345</ele>
        <time>2021-07-31T09:48:02.000Z</time>
      </trkpt>
      <trkpt lat="49.78678" lon="4.85741">
        <ele>344</ele>
        <time>2021-07-31T09:48:03.000Z</time>
      </trkpt>
      <trkpt lat="49.78678" lon="4.85736">
        <ele>344</ele>
        <time>2021-07-31T09:48:04.000Z</time>
      </trkpt>
      <trkpt lat="49.78679" lon="4.85729">
        <ele>343</ele>
        <time>2021-07-31T09:48:05.000Z</time>
      </trkpt>
      <trkpt lat="49.7868" lon="4.85722">
        <ele>343</ele>
        <time>2021-07-31T09:48:06.000Z</time>
      </trkpt>
      <trkpt lat="49.78681" lon="4.85715">
        <ele>342</ele>
        <time>2021-07-31T09:48:07.000Z</time>
      </trkpt>
      <trkpt lat="49.78682" lon="4.85709">
        <ele>341</ele>
        <time>2021-07-31T09:48:08.000Z</time>
      </trkpt>
      <trkpt lat="49.78683" lon="4.85704">
        <ele>341</ele>
        <time>2021-07-31T09:48:09.000Z</time>
      </trkpt>
      <trkpt lat="49.78683" lon="4.85701">
        <ele>340</ele>
        <time>2021-07-31T09:48:10.000Z</time>
      </trkpt>
      <trkpt lat="49.78683" lon="4.85698">
        <ele>340</ele>
        <time>2021-07-31T09:48:11.000Z</time>
      </trkpt>
      <trkpt lat="49.78682" lon="4.85696">
        <ele>339</ele>
        <time>2021-07-31T09:48:12.000Z</time>
      </trkpt>
      <trkpt lat="49.78681" lon="4.85692">
        <ele>339</ele>
        <time>2021-07-31T09:48:13.000Z</time>
      </trkpt>
      <trkpt lat="49.78679" lon="4.85689">
        <ele>338</ele>
        <time>2021-07-31T09:48:14.000Z</time>
      </trkpt>
      <trkpt lat="49.78677" lon="4.85684">
        <ele>337</ele>
        <time>2021-07-31T09:48:15.000Z</time>
      </trkpt>
      <trkpt lat="49.78675" lon="4.85679">
        <ele>337</ele>
        <time>2021-07-31T09:48:16.000Z</time>
      </trkpt>
      <trkpt lat="49.78673" lon="4.85672">
        <ele>336</ele>
        <time>2021-07-31T09:48:17.000Z</time>
      </trkpt>
      <trkpt lat="49.78672" lon="4.85664">
        <ele>335</ele>
        <time>2021-07-31T09:48:18.000Z</time>
      </trkpt>
      <trkpt lat="49.7867" lon="4.85655">
        <ele>334</ele>
        <time>2021-07-31T09:48:19.000Z</time>
      </trkpt>
      <trkpt lat="49.78669" lon="4.85647">
        <ele>333</ele>
        <time>2021-07-31T09:48:20.000Z</time>
      </trkpt>
      <trkpt lat="49.78668" lon="4.8564">
        <ele>332</ele>
        <time>2021-07-31T09:48:21.000Z</time>
      </trkpt>
      <trkpt lat="49.78667" lon="4.85633">
        <ele>331</ele>
        <time>2021-07-31T09:48:22.000Z</time>
      </trkpt>
      <trkpt lat="49.78665" lon="4.85627">
        <ele>331</ele>
        <time>2021-07-31T09:48:23.000Z</time>
      </trkpt>
      <trkpt lat="49.78663" lon="4.85622">
        <ele>330</ele>
        <time>2021-07-31T09:48:24.000Z</time>
      </trkpt>
      <trkpt lat="49.78661" lon="4.85618">
        <ele>329</ele>
        <time>2021-07-31T09:48:25.000Z</time>
      </trkpt>
      <trkpt lat="49.78659" lon="4.85614">
        <ele>328</ele>
        <time>2021-07-31T09:48:26.000Z</time>
      </trkpt>
      <trkpt lat="49.78657" lon="4.85612">
        <ele>327</ele>
        <time>2021-07-31T09:48:27.000Z</time>
      </trkpt>
      <trkpt lat="49.78656" lon="4.85609">
        <ele>327</ele>
        <time>2021-07-31T09:48:28.000Z</time>
      </trkpt>
      <trkpt lat="49.78654" lon="4.85606">
        <ele>326</ele>
        <time>2021-07-31T09:48:29.000Z</time>
      </trkpt>
      <trkpt lat="49.78651" lon="4.85601">
        <ele>325</ele>
        <time>2021-07-31T09:48:30.000Z</time>
      </trkpt>
      <trkpt lat="49.78647" lon="4.85596">
        <ele>324</ele>
        <time>2021-07-31T09:48:31.000Z</time>
      </trkpt>
      <trkpt lat="49.78643" lon="4.8559">
        <ele>324</ele>
        <time>2021-07-31T09:48:32.000Z</time>
      </trkpt>
      <trkpt lat="49.78638" lon="4.85583">
        <ele>323</ele>
        <time>2021-07-31T09:48:33.000Z</time>
      </trkpt>
      <trkpt lat="49.78633" lon="4.85575">
        <ele>322</ele>
        <time>2021-07-31T09:48:34.000Z</time>
      </trkpt>
      <trkpt lat="49.7863" lon="4.85568">
        <ele>321</ele>
        <time>2021-07-31T09:48:35.000Z</time>
      </trkpt>
      <trkpt lat="49.78626" lon="4.85561">
        <ele>321</ele>
        <time>2021-07-31T09:48:36.000Z</time>
      </trkpt>
      <trkpt lat="49.78625" lon="4.85556">
        <ele>320</ele>
        <time>2021-07-31T09:48:37.000Z</time>
      </trkpt>
      <trkpt lat="49.78624" lon="4.85551">
        <ele>320</ele>
        <time>2021-07-31T09:48:38.000Z</time>
      </trkpt>
      <trkpt lat="49.78625" lon="4.85546">
        <ele>319</ele>
        <time>2021-07-31T09:48:39.000Z</time>
      </trkpt>
      <trkpt lat="49.78626" lon="4.85541">
        <ele>319</ele>
        <time>2021-07-31T09:48:40.000Z</time>
      </trkpt>
      <trkpt lat="49.78627" lon="4.85536">
        <ele>318</ele>
        <time>2021-07-31T09:48:41.000Z</time>
      </trkpt>
      <trkpt lat="49.78628" lon="4.85529">
        <ele>318</ele>
        <time>2021-07-31T09:48:42.000Z</time>
      </trkpt>
      <trkpt lat="49.78629" lon="4.85523">
        <ele>317</ele>
        <time>2021-07-31T09:48:43.000Z</time>
      </trkpt>
      <trkpt lat="49.78631" lon="4.85516">
        <ele>317</ele>
        <time>2021-07-31T09:48:44.000Z</time>
      </trkpt>
      <trkpt lat="49.78633" lon="4.85511">
        <ele>316</ele>
        <time>2021-07-31T09:48:45.000Z</time>
      </trkpt>
      <trkpt lat="49.78636" lon="4.85508">
        <ele>316</ele>
        <time>2021-07-31T09:48:46.000Z</time>
      </trkpt>
      <trkpt lat="49.7864" lon="4.85505">
        <ele>316</ele>
        <time>2021-07-31T09:48:47.000Z</time>
      </trkpt>
      <trkpt lat="49.78644" lon="4.85503">
        <ele>315</ele>
        <time>2021-07-31T09:48:48.000Z</time>
      </trkpt>
      <trkpt lat="49.78648" lon="4.85504">
        <ele>315</ele>
        <time>2021-07-31T09:48:49.000Z</time>
      </trkpt>
      <trkpt lat="49.78651" lon="4.85505">
        <ele>315</ele>
        <time>2021-07-31T09:48:50.000Z</time>
      </trkpt>
      <trkpt lat="49.78655" lon="4.85506">
        <ele>314</ele>
        <time>2021-07-31T09:48:51.000Z</time>
      </trkpt>
      <trkpt lat="49.78659" lon="4.85506">
        <ele>314</ele>
        <time>2021-07-31T09:48:52.000Z</time>
      </trkpt>
      <trkpt lat="49.78663" lon="4.85507">
        <ele>313</ele>
        <time>2021-07-31T09:48:53.000Z</time>
      </trkpt>
      <trkpt lat="49.78666" lon="4.8551">
        <ele>313</ele>
        <time>2021-07-31T09:48:54.000Z</time>
      </trkpt>
      <trkpt lat="49.7867" lon="4.85513">
        <ele>312</ele>
        <time>2021-07-31T09:48:55.000Z</time>
      </trkpt>
      <trkpt lat="49.78674" lon="4.85516">
        <ele>312</ele>
        <time>2021-07-31T09:48:56.000Z</time>
      </trkpt>
      <trkpt lat="49.78678" lon="4.85518">
        <ele>311</ele>
        <time>2021-07-31T09:48:57.000Z</time>
      </trkpt>
      <trkpt lat="49.78681" lon="4.85522">
        <ele>311</ele>
        <time>2021-07-31T09:48:58.000Z</time>
      </trkpt>
      <trkpt lat="49.78684" lon="4.85525">
        <ele>310</ele>
        <time>2021-07-31T09:48:59.000Z</time>
      </trkpt>
      <trkpt lat="49.78688" lon="4.85528">
        <ele>310</ele>
        <time>2021-07-31T09:49:00.000Z</time>
      </trkpt>
      <trkpt lat="49.78692" lon="4.8553">
        <ele>309</ele>
        <time>2021-07-31T09:49:01.000Z</time>
      </trkpt>
      <trkpt lat="49.78696" lon="4.85533">
        <ele>309</ele>
        <time>2021-07-31T09:49:02.000Z</time>
      </trkpt>
      <trkpt lat="49.78699" lon="4.85536">
        <ele>309</ele>
        <time>2021-07-31T09:49:03.000Z</time>
      </trkpt>
      <trkpt lat="49.78703" lon="4.85539">
        <ele>308</ele>
        <time>2021-07-31T09:49:04.000Z</time>
      </trkpt>
      <trkpt lat="49.78706" lon="4.85541">
        <ele>308</ele>
        <time>2021-07-31T09:49:05.000Z</time>
      </trkpt>
      <trkpt lat="49.78708" lon="4.85543">
        <ele>307</ele>
        <time>2021-07-31T09:49:06.000Z</time>
      </trkpt>
      <trkpt lat="49.78711" lon="4.85545">
        <ele>307</ele>
        <time>2021-07-31T09:49:07.000Z</time>
      </trkpt>
      <trkpt lat="49.78714" lon="4.85547">
        <ele>307</ele>
        <time>2021-07-31T09:49:08.000Z</time>
      </trkpt>
      <trkpt lat="49.78718" lon="4.85548">
        <ele>306</ele>
        <time>2021-07-31T09:49:09.000Z</time>
      </trkpt>
      <trkpt lat="49.78722" lon="4.85549">
        <ele>306</ele>
        <time>2021-07-31T09:49:10.000Z</time>
      </trkpt>
      <trkpt lat="49.78727" lon="4.8555">
        <ele>305</ele>
        <time>2021-07-31T09:49:11.000Z</time>
      </trkpt>
      <trkpt lat="49.78731" lon="4.85552">
        <ele>305</ele>
        <time>2021-07-31T09:49:12.000Z</time>
      </trkpt>
      <trkpt lat="49.78736" lon="4.85552">
        <ele>304</ele>
        <time>2021-07-31T09:49:13.000Z</time>
      </trkpt>
      <trkpt lat="49.7874" lon="4.85552">
        <ele>304</ele>
        <time>2021-07-31T09:49:14.000Z</time>
      </trkpt>
      <trkpt lat="49.78745" lon="4.85551">
        <ele>303</ele>
        <time>2021-07-31T09:49:15.000Z</time>
      </trkpt>
      <trkpt lat="49.7875" lon="4.8555">
        <ele>303</ele>
        <time>2021-07-31T09:49:16.000Z</time>
      </trkpt>
      <trkpt lat="49.78754" lon="4.85548">
        <ele>303</ele>
        <time>2021-07-31T09:49:17.000Z</time>
      </trkpt>
      <trkpt lat="49.78758" lon="4.85546">
        <ele>302</ele>
        <time>2021-07-31T09:49:18.000Z</time>
      </trkpt>
      <trkpt lat="49.78763" lon="4.85542">
        <ele>302</ele>
        <time>2021-07-31T09:49:19.000Z</time>
      </trkpt>
      <trkpt lat="49.78767" lon="4.85539">
        <ele>302</ele>
        <time>2021-07-31T09:49:20.000Z</time>
      </trkpt>
      <trkpt lat="49.7877" lon="4.85536">
        <ele>301</ele>
        <time>2021-07-31T09:49:21.000Z</time>
      </trkpt>
      <trkpt lat="49.78772" lon="4.85535">
        <ele>301</ele>
        <time>2021-07-31T09:49:22.000Z</time>
      </trkpt>
      <trkpt lat="49.78775" lon="4.85533">
        <ele>301</ele>
        <time>2021-07-31T09:49:23.000Z</time>
      </trkpt>
      <trkpt lat="49.78776" lon="4.85529">
        <ele>301</ele>
        <time>2021-07-31T09:49:24.000Z</time>
      </trkpt>
      <trkpt lat="49.78778" lon="4.85526">
        <ele>300</ele>
        <time>2021-07-31T09:49:25.000Z</time>
      </trkpt>
      <trkpt lat="49.78779" lon="4.85521">
        <ele>300</ele>
        <time>2021-07-31T09:49:26.000Z</time>
      </trkpt>
      <trkpt lat="49.78781" lon="4.85517">
        <ele>300</ele>
        <time>2021-07-31T09:49:27.000Z</time>
      </trkpt>
      <trkpt lat="49.78783" lon="4.85512">
        <ele>300</ele>
        <time>2021-07-31T09:49:28.000Z</time>
      </trkpt>
      <trkpt lat="49.78786" lon="4.85506">
        <ele>300</ele>
        <time>2021-07-31T09:49:29.000Z</time>
      </trkpt>
      <trkpt lat="49.78788" lon="4.855">
        <ele>300</ele>
        <time>2021-07-31T09:49:30.000Z</time>
      </trkpt>
      <trkpt lat="49.7879" lon="4.85494">
        <ele>300</ele>
        <time>2021-07-31T09:49:31.000Z</time>
      </trkpt>
      <trkpt lat="49.78792" lon="4.85489">
        <ele>300</ele>
        <time>2021-07-31T09:49:32.000Z</time>
      </trkpt>
      <trkpt lat="49.78793" lon="4.85483">
        <ele>300</ele>
        <time>2021-07-31T09:49:33.000Z</time>
      </trkpt>
      <trkpt lat="49.78794" lon="4.85477">
        <ele>300</ele>
        <time>2021-07-31T09:49:34.000Z</time>
      </trkpt>
      <trkpt lat="49.78796" lon="4.85472">
        <ele>300</ele>
        <time>2021-07-31T09:49:35.000Z</time>
      </trkpt>
      <trkpt lat="49.78798" lon="4.85466">
        <ele>300</ele>
        <time>2021-07-31T09:49:36.000Z</time>
      </trkpt>
      <trkpt lat="49.78799" lon="4.85461">
        <ele>301</ele>
        <time>2021-07-31T09:49:37.000Z</time>
      </trkpt>
      <trkpt lat="49.78801" lon="4.85456">
        <ele>301</ele>
        <time>2021-07-31T09:49:38.000Z</time>
      </trkpt>
      <trkpt lat="49.78803" lon="4.85452">
        <ele>301</ele>
        <time>2021-07-31T09:49:39.000Z</time>
      </trkpt>
      <trkpt lat="49.78805" lon="4.85447">
        <ele>301</ele>
        <time>2021-07-31T09:49:40.000Z</time>
      </trkpt>
      <trkpt lat="49.78806" lon="4.85442">
        <ele>301</ele>
        <time>2021-07-31T09:49:41.000Z</time>
      </trkpt>
      <trkpt lat="49.78808" lon="4.85437">
        <ele>301</ele>
        <time>2021-07-31T09:49:42.000Z</time>
      </trkpt>
      <trkpt lat="49.78811" lon="4.85434">
        <ele>300</ele>
        <time>2021-07-31T09:49:43.000Z</time>
      </trkpt>
      <trkpt lat="49.78814" lon="4.8543">
        <ele>300</ele>
        <time>2021-07-31T09:49:44.000Z</time>
      </trkpt>
      <trkpt lat="49.78816" lon="4.85426">
        <ele>300</ele>
        <time>2021-07-31T09:49:45.000Z</time>
      </trkpt>
      <trkpt lat="49.78819" lon="4.85422">
        <ele>300</ele>
        <time>2021-07-31T09:49:46.000Z</time>
      </trkpt>
      <trkpt lat="49.78822" lon="4.85418">
        <ele>300</ele>
        <time>2021-07-31T09:49:47.000Z</time>
      </trkpt>
      <trkpt lat="49.78826" lon="4.85412">
        <ele>300</ele>
        <time>2021-07-31T09:49:48.000Z</time>
      </trkpt>
      <trkpt lat="49.78829" lon="4.85406">
        <ele>300</ele>
        <time>2021-07-31T09:49:49.000Z</time>
      </trkpt>
      <trkpt lat="49.78834" lon="4.85398">
        <ele>300</ele>
        <time>2021-07-31T09:49:50.000Z</time>
      </trkpt>
      <trkpt lat="49.78838" lon="4.85389">
        <ele>299</ele>
        <time>2021-07-31T09:49:51.000Z</time>
      </trkpt>
      <trkpt lat="49.78842" lon="4.85381">
        <ele>299</ele>
        <time>2021-07-31T09:49:52.000Z</time>
      </trkpt>
      <trkpt lat="49.78845" lon="4.85374">
        <ele>299</ele>
        <time>2021-07-31T09:49:53.000Z</time>
      </trkpt>
      <trkpt lat="49.78847" lon="4.85367">
        <ele>299</ele>
        <time>2021-07-31T09:49:54.000Z</time>
      </trkpt>
      <trkpt lat="49.7885" lon="4.8536">
        <ele>299</ele>
        <time>2021-07-31T09:49:55.000Z</time>
      </trkpt>
      <trkpt lat="49.78852" lon="4.85353">
        <ele>298</ele>
        <time>2021-07-31T09:49:56.000Z</time>
      </trkpt>
      <trkpt lat="49.78854" lon="4.85347">
        <ele>298</ele>
        <time>2021-07-31T09:49:57.000Z</time>
      </trkpt>
      <trkpt lat="49.78856" lon="4.85342">
        <ele>298</ele>
        <time>2021-07-31T09:49:58.000Z</time>
      </trkpt>
      <trkpt lat="49.78858" lon="4.85336">
        <ele>298</ele>
        <time>2021-07-31T09:49:59.000Z</time>
      </trkpt>
      <trkpt lat="49.7886" lon="4.85331">
        <ele>297</ele>
        <time>2021-07-31T09:50:00.000Z</time>
      </trkpt>
      <trkpt lat="49.78862" lon="4.85325">
        <ele>297</ele>
        <time>2021-07-31T09:50:01.000Z</time>
      </trkpt>
      <trkpt lat="49.78863" lon="4.85319">
        <ele>297</ele>
        <time>2021-07-31T09:50:02.000Z</time>
      </trkpt>
      <trkpt lat="49.78865" lon="4.85314">
        <ele>297</ele>
        <time>2021-07-31T09:50:03.000Z</time>
      </trkpt>
      <trkpt lat="49.78867" lon="4.8531">
        <ele>297</ele>
        <time>2021-07-31T09:50:04.000Z</time>
      </trkpt>
      <trkpt lat="49.78869" lon="4.85306">
        <ele>297</ele>
        <time>2021-07-31T09:50:05.000Z</time>
      </trkpt>
      <trkpt lat="49.7887" lon="4.85301">
        <ele>296</ele>
        <time>2021-07-31T09:50:06.000Z</time>
      </trkpt>
      <trkpt lat="49.78872" lon="4.85296">
        <ele>296</ele>
        <time>2021-07-31T09:50:07.000Z</time>
      </trkpt>
      <trkpt lat="49.78873" lon="4.85292">
        <ele>296</ele>
        <time>2021-07-31T09:50:08.000Z</time>
      </trkpt>
      <trkpt lat="49.78875" lon="4.85288">
        <ele>296</ele>
        <time>2021-07-31T09:50:09.000Z</time>
      </trkpt>
      <trkpt lat="49.78876" lon="4.85284">
        <ele>296</ele>
        <time>2021-07-31T09:50:10.000Z</time>
      </trkpt>
      <trkpt lat="49.78878" lon="4.8528">
        <ele>296</ele>
        <time>2021-07-31T09:50:11.000Z</time>
      </trkpt>
      <trkpt lat="49.78879" lon="4.85276">
        <ele>296</ele>
        <time>2021-07-31T09:50:12.000Z</time>
      </trkpt>
      <trkpt lat="49.78881" lon="4.85272">
        <ele>296</ele>
        <time>2021-07-31T09:50:13.000Z</time>
      </trkpt>
      <trkpt lat="49.78882" lon="4.85268">
        <ele>296</ele>
        <time>2021-07-31T09:50:14.000Z</time>
      </trkpt>
      <trkpt lat="49.78883" lon="4.85265">
        <ele>296</ele>
        <time>2021-07-31T09:50:15.000Z</time>
      </trkpt>
      <trkpt lat="49.78885" lon="4.85262">
        <ele>296</ele>
        <time>2021-07-31T09:50:16.000Z</time>
      </trkpt>
      <trkpt lat="49.78885" lon="4.85259">
        <ele>296</ele>
        <time>2021-07-31T09:50:17.000Z</time>
      </trkpt>
      <trkpt lat="49.78886" lon="4.85256">
        <ele>296</ele>
        <time>2021-07-31T09:50:18.000Z</time>
      </trkpt>
      <trkpt lat="49.78887" lon="4.85253">
        <ele>296</ele>
        <time>2021-07-31T09:50:19.000Z</time>
      </trkpt>
      <trkpt lat="49.78888" lon="4.85249">
        <ele>297</ele>
        <time>2021-07-31T09:50:20.000Z</time>
      </trkpt>
      <trkpt lat="49.78889" lon="4.85245">
        <ele>297</ele>
        <time>2021-07-31T09:50:21.000Z</time>
      </trkpt>
      <trkpt lat="49.78891" lon="4.85241">
        <ele>297</ele>
        <time>2021-07-31T09:50:22.000Z</time>
      </trkpt>
      <trkpt lat="49.78893" lon="4.85238">
        <ele>296</ele>
        <time>2021-07-31T09:50:23.000Z</time>
      </trkpt>
      <trkpt lat="49.78894" lon="4.85234">
        <ele>296</ele>
        <time>2021-07-31T09:50:24.000Z</time>
      </trkpt>
      <trkpt lat="49.78896" lon="4.85231">
        <ele>296</ele>
        <time>2021-07-31T09:50:25.000Z</time>
      </trkpt>
      <trkpt lat="49.78897" lon="4.85229">
        <ele>296</ele>
        <time>2021-07-31T09:50:26.000Z</time>
      </trkpt>
      <trkpt lat="49.78898" lon="4.85226">
        <ele>296</ele>
        <time>2021-07-31T09:50:27.000Z</time>
      </trkpt>
      <trkpt lat="49.78899" lon="4.85222">
        <ele>296</ele>
        <time>2021-07-31T09:50:28.000Z</time>
      </trkpt>
      <trkpt lat="49.789" lon="4.85219">
        <ele>296</ele>
        <time>2021-07-31T09:50:29.000Z</time>
      </trkpt>
      <trkpt lat="49.78901" lon="4.85215">
        <ele>296</ele>
        <time>2021-07-31T09:50:30.000Z</time>
      </trkpt>
      <trkpt lat="49.78902" lon="4.85211">
        <ele>296</ele>
        <time>2021-07-31T09:50:31.000Z</time>
      </trkpt>
      <trkpt lat="49.78902" lon="4.85208">
        <ele>296</ele>
        <time>2021-07-31T09:50:32.000Z</time>
      </trkpt>
      <trkpt lat="49.78903" lon="4.85204">
        <ele>297</ele>
        <time>2021-07-31T09:50:33.000Z</time>
      </trkpt>
      <trkpt lat="49.78904" lon="4.85201">
        <ele>297</ele>
        <time>2021-07-31T09:50:34.000Z</time>
      </trkpt>
      <trkpt lat="49.78904" lon="4.85198">
        <ele>297</ele>
        <time>2021-07-31T09:50:35.000Z</time>
      </trkpt>
      <trkpt lat="49.78905" lon="4.85194">
        <ele>297</ele>
        <time>2021-07-31T09:50:36.000Z</time>
      </trkpt>
      <trkpt lat="49.78906" lon="4.8519">
        <ele>297</ele>
        <time>2021-07-31T09:50:37.000Z</time>
      </trkpt>
      <trkpt lat="49.78907" lon="4.85187">
        <ele>297</ele>
        <time>2021-07-31T09:50:38.000Z</time>
      </trkpt>
      <trkpt lat="49.78908" lon="4.85183">
        <ele>298</ele>
        <time>2021-07-31T09:50:39.000Z</time>
      </trkpt>
      <trkpt lat="49.78909" lon="4.8518">
        <ele>298</ele>
        <time>2021-07-31T09:50:40.000Z</time>
      </trkpt>
      <trkpt lat="49.7891" lon="4.85177">
        <ele>298</ele>
        <time>2021-07-31T09:50:41.000Z</time>
      </trkpt>
      <trkpt lat="49.78911" lon="4.85173">
        <ele>298</ele>
        <time>2021-07-31T09:50:42.000Z</time>
      </trkpt>
      <trkpt lat="49.78912" lon="4.8517">
        <ele>298</ele>
        <time>2021-07-31T09:50:43.000Z</time>
      </trkpt>
      <trkpt lat="49.78913" lon="4.85166">
        <ele>298</ele>
        <time>2021-07-31T09:50:44.000Z</time>
      </trkpt>
      <trkpt lat="49.78915" lon="4.85163">
        <ele>298</ele>
        <time>2021-07-31T09:50:45.000Z</time>
      </trkpt>
      <trkpt lat="49.78916" lon="4.8516">
        <ele>298</ele>
        <time>2021-07-31T09:50:46.000Z</time>
      </trkpt>
      <trkpt lat="49.78918" lon="4.85157">
        <ele>298</ele>
        <time>2021-07-31T09:50:47.000Z</time>
      </trkpt>
      <trkpt lat="49.78921" lon="4.85155">
        <ele>298</ele>
        <time>2021-07-31T09:50:48.000Z</time>
      </trkpt>
      <trkpt lat="49.78923" lon="4.85152">
        <ele>298</ele>
        <time>2021-07-31T09:50:49.000Z</time>
      </trkpt>
      <trkpt lat="49.78925" lon="4.8515">
        <ele>298</ele>
        <time>2021-07-31T09:50:50.000Z</time>
      </trkpt>
      <trkpt lat="49.78928" lon="4.85147">
        <ele>298</ele>
        <time>2021-07-31T09:50:51.000Z</time>
      </trkpt>
      <trkpt lat="49.7893" lon="4.85144">
        <ele>298</ele>
        <time>2021-07-31T09:50:52.000Z</time>
      </trkpt>
      <trkpt lat="49.78931" lon="4.85142">
        <ele>298</ele>
        <time>2021-07-31T09:50:53.000Z</time>
      </trkpt>
      <trkpt lat="49.78933" lon="4.85139">
        <ele>298</ele>
        <time>2021-07-31T09:50:54.000Z</time>
      </trkpt>
      <trkpt lat="49.78935" lon="4.85136">
        <ele>298</ele>
        <time>2021-07-31T09:50:55.000Z</time>
      </trkpt>
      <trkpt lat="49.78937" lon="4.85133">
        <ele>298</ele>
        <time>2021-07-31T09:50:56.000Z</time>
      </trkpt>
      <trkpt lat="49.78938" lon="4.8513">
        <ele>298</ele>
        <time>2021-07-31T09:50:57.000Z</time>
      </trkpt>
      <trkpt lat="49.78939" lon="4.85126">
        <ele>298</ele>
        <time>2021-07-31T09:50:58.000Z</time>
      </trkpt>
      <trkpt lat="49.78941" lon="4.85123">
        <ele>298</ele>
        <time>2021-07-31T09:50:59.000Z</time>
      </trkpt>
      <trkpt lat="49.78943" lon="4.8512">
        <ele>298</ele>
        <time>2021-07-31T09:51:00.000Z</time>
      </trkpt>
      <trkpt lat="49.78945" lon="4.85117">
        <ele>298</ele>
        <time>2021-07-31T09:51:01.000Z</time>
      </trkpt>
      <trkpt lat="49.78947" lon="4.85114">
        <ele>299</ele>
        <time>2021-07-31T09:51:02.000Z</time>
      </trkpt>
      <trkpt lat="49.78949" lon="4.85111">
        <ele>299</ele>
        <time>2021-07-31T09:51:03.000Z</time>
      </trkpt>
      <trkpt lat="49.78951" lon="4.85108">
        <ele>299</ele>
        <time>2021-07-31T09:51:04.000Z</time>
      </trkpt>
      <trkpt lat="49.78952" lon="4.85105">
        <ele>299</ele>
        <time>2021-07-31T09:51:05.000Z</time>
      </trkpt>
      <trkpt lat="49.78954" lon="4.85102">
        <ele>299</ele>
        <time>2021-07-31T09:51:06.000Z</time>
      </trkpt>
      <trkpt lat="49.78956" lon="4.851">
        <ele>299</ele>
        <time>2021-07-31T09:51:07.000Z</time>
      </trkpt>
      <trkpt lat="49.78957" lon="4.85098">
        <ele>299</ele>
        <time>2021-07-31T09:51:08.000Z</time>
      </trkpt>
      <trkpt lat="49.78957" lon="4.85096">
        <ele>299</ele>
        <time>2021-07-31T09:51:09.000Z</time>
      </trkpt>
      <trkpt lat="49.78959" lon="4.85093">
        <ele>299</ele>
        <time>2021-07-31T09:51:10.000Z</time>
      </trkpt>
      <trkpt lat="49.7896" lon="4.8509">
        <ele>300</ele>
        <time>2021-07-31T09:51:11.000Z</time>
      </trkpt>
      <trkpt lat="49.78962" lon="4.85087">
        <ele>300</ele>
        <time>2021-07-31T09:51:12.000Z</time>
      </trkpt>
      <trkpt lat="49.78964" lon="4.85084">
        <ele>300</ele>
        <time>2021-07-31T09:51:13.000Z</time>
      </trkpt>
      <trkpt lat="49.78965" lon="4.85081">
        <ele>300</ele>
        <time>2021-07-31T09:51:14.000Z</time>
      </trkpt>
      <trkpt lat="49.78967" lon="4.85078">
        <ele>300</ele>
        <time>2021-07-31T09:51:15.000Z</time>
      </trkpt>
      <trkpt lat="49.78969" lon="4.85075">
        <ele>300</ele>
        <time>2021-07-31T09:51:16.000Z</time>
      </trkpt>
      <trkpt lat="49.7897" lon="4.85073">
        <ele>300</ele>
        <time>2021-07-31T09:51:17.000Z</time>
      </trkpt>
      <trkpt lat="49.78972" lon="4.8507">
        <ele>300</ele>
        <time>2021-07-31T09:51:18.000Z</time>
      </trkpt>
      <trkpt lat="49.78973" lon="4.85067">
        <ele>300</ele>
        <time>2021-07-31T09:51:19.000Z</time>
      </trkpt>
      <trkpt lat="49.78975" lon="4.85065">
        <ele>300</ele>
        <time>2021-07-31T09:51:20.000Z</time>
      </trkpt>
      <trkpt lat="49.78977" lon="4.85062">
        <ele>300</ele>
        <time>2021-07-31T09:51:21.000Z</time>
      </trkpt>
      <trkpt lat="49.78978" lon="4.85059">
        <ele>300</ele>
        <time>2021-07-31T09:51:22.000Z</time>
      </trkpt>
      <trkpt lat="49.7898" lon="4.85056">
        <ele>300</ele>
        <time>2021-07-31T09:51:23.000Z</time>
      </trkpt>
      <trkpt lat="49.78982" lon="4.85053">
        <ele>300</ele>
        <time>2021-07-31T09:51:24.000Z</time>
      </trkpt>
      <trkpt lat="49.78983" lon="4.85051">
        <ele>300</ele>
        <time>2021-07-31T09:51:25.000Z</time>
      </trkpt>
      <trkpt lat="49.78985" lon="4.85048">
        <ele>300</ele>
        <time>2021-07-31T09:51:26.000Z</time>
      </trkpt>
      <trkpt lat="49.78987" lon="4.85045">
        <ele>300</ele>
        <time>2021-07-31T09:51:27.000Z</time>
      </trkpt>
      <trkpt lat="49.78988" lon="4.85042">
        <ele>300</ele>
        <time>2021-07-31T09:51:28.000Z</time>
      </trkpt>
      <trkpt lat="49.7899" lon="4.85039">
        <ele>300</ele>
        <time>2021-07-31T09:51:29.000Z</time>
      </trkpt>
      <trkpt lat="49.78992" lon="4.85035">
        <ele>301</ele>
        <time>2021-07-31T09:51:30.000Z</time>
      </trkpt>
      <trkpt lat="49.78994" lon="4.85032">
        <ele>301</ele>
        <time>2021-07-31T09:51:31.000Z</time>
      </trkpt>
      <trkpt lat="49.78996" lon="4.85029">
        <ele>301</ele>
        <time>2021-07-31T09:51:32.000Z</time>
      </trkpt>
      <trkpt lat="49.78998" lon="4.85025">
        <ele>301</ele>
        <time>2021-07-31T09:51:33.000Z</time>
      </trkpt>
      <trkpt lat="49.78999" lon="4.85022">
        <ele>301</ele>
        <time>2021-07-31T09:51:34.000Z</time>
      </trkpt>
      <trkpt lat="49.79001" lon="4.85018">
        <ele>301</ele>
        <time>2021-07-31T09:51:35.000Z</time>
      </trkpt>
      <trkpt lat="49.79002" lon="4.85015">
        <ele>302</ele>
        <time>2021-07-31T09:51:36.000Z</time>
      </trkpt>
      <trkpt lat="49.79003" lon="4.85011">
        <ele>302</ele>
        <time>2021-07-31T09:51:37.000Z</time>
      </trkpt>
      <trkpt lat="49.79004" lon="4.85008">
        <ele>302</ele>
        <time>2021-07-31T09:51:38.000Z</time>
      </trkpt>
      <trkpt lat="49.79005" lon="4.85004">
        <ele>302</ele>
        <time>2021-07-31T09:51:39.000Z</time>
      </trkpt>
      <trkpt lat="49.79006" lon="4.85">
        <ele>302</ele>
        <time>2021-07-31T09:51:40.000Z</time>
      </trkpt>
      <trkpt lat="49.79007" lon="4.84998">
        <ele>302</ele>
        <time>2021-07-31T09:51:41.000Z</time>
      </trkpt>
      <trkpt lat="49.79008" lon="4.84996">
        <ele>303</ele>
        <time>2021-07-31T09:51:42.000Z</time>
      </trkpt>
      <trkpt lat="49.7901" lon="4.84993">
        <ele>303</ele>
        <time>2021-07-31T09:51:43.000Z</time>
      </trkpt>
      <trkpt lat="49.79011" lon="4.8499">
        <ele>303</ele>
        <time>2021-07-31T09:51:44.000Z</time>
      </trkpt>
      <trkpt lat="49.79012" lon="4.84986">
        <ele>303</ele>
        <time>2021-07-31T09:51:45.000Z</time>
      </trkpt>
      <trkpt lat="49.79014" lon="4.84982">
        <ele>303</ele>
        <time>2021-07-31T09:51:46.000Z</time>
      </trkpt>
      <trkpt lat="49.79016" lon="4.84979">
        <ele>303</ele>
        <time>2021-07-31T09:51:47.000Z</time>
      </trkpt>
      <trkpt lat="49.79018" lon="4.84976">
        <ele>303</ele>
        <time>2021-07-31T09:51:48.000Z</time>
      </trkpt>
      <trkpt lat="49.7902" lon="4.84972">
        <ele>303</ele>
        <time>2021-07-31T09:51:49.000Z</time>
      </trkpt>
      <trkpt lat="49.79022" lon="4.84969">
        <ele>303</ele>
        <time>2021-07-31T09:51:50.000Z</time>
      </trkpt>
      <trkpt lat="49.79024" lon="4.84966">
        <ele>303</ele>
        <time>2021-07-31T09:51:51.000Z</time>
      </trkpt>
      <trkpt lat="49.79026" lon="4.84963">
        <ele>303</ele>
        <time>2021-07-31T09:51:52.000Z</time>
      </trkpt>
      <trkpt lat="49.79028" lon="4.84959">
        <ele>303</ele>
        <time>2021-07-31T09:51:53.000Z</time>
      </trkpt>
      <trkpt lat="49.7903" lon="4.84954">
        <ele>303</ele>
        <time>2021-07-31T09:51:54.000Z</time>
      </trkpt>
      <trkpt lat="49.79033" lon="4.84949">
        <ele>303</ele>
        <time>2021-07-31T09:51:55.000Z</time>
      </trkpt>
      <trkpt lat="49.79035" lon="4.84944">
        <ele>303</ele>
        <time>2021-07-31T09:51:56.000Z</time>
      </trkpt>
      <trkpt lat="49.79038" lon="4.84938">
        <ele>303</ele>
        <time>2021-07-31T09:51:57.000Z</time>
      </trkpt>
      <trkpt lat="49.79041" lon="4.84932">
        <ele>303</ele>
        <time>2021-07-31T09:51:58.000Z</time>
      </trkpt>
      <trkpt lat="49.79043" lon="4.84925">
        <ele>303</ele>
        <time>2021-07-31T09:51:59.000Z</time>
      </trkpt>
      <trkpt lat="49.79046" lon="4.84919">
        <ele>303</ele>
        <time>2021-07-31T09:52:00.000Z</time>
      </trkpt>
      <trkpt lat="49.79048" lon="4.84913">
        <ele>303</ele>
        <time>2021-07-31T09:52:01.000Z</time>
      </trkpt>
      <trkpt lat="49.7905" lon="4.84906">
        <ele>303</ele>
        <time>2021-07-31T09:52:02.000Z</time>
      </trkpt>
      <trkpt lat="49.79053" lon="4.849">
        <ele>303</ele>
        <time>2021-07-31T09:52:03.000Z</time>
      </trkpt>
      <trkpt lat="49.79056" lon="4.84895">
        <ele>303</ele>
        <time>2021-07-31T09:52:04.000Z</time>
      </trkpt>
      <trkpt lat="49.79059" lon="4.84888">
        <ele>303</ele>
        <time>2021-07-31T09:52:05.000Z</time>
      </trkpt>
      <trkpt lat="49.79061" lon="4.84882">
        <ele>303</ele>
        <time>2021-07-31T09:52:06.000Z</time>
      </trkpt>
      <trkpt lat="49.79064" lon="4.84877">
        <ele>303</ele>
        <time>2021-07-31T09:52:07.000Z</time>
      </trkpt>
      <trkpt lat="49.79067" lon="4.84872">
        <ele>303</ele>
        <time>2021-07-31T09:52:08.000Z</time>
      </trkpt>
      <trkpt lat="49.79069" lon="4.84866">
        <ele>303</ele>
        <time>2021-07-31T09:52:09.000Z</time>
      </trkpt>
      <trkpt lat="49.79071" lon="4.84861">
        <ele>303</ele>
        <time>2021-07-31T09:52:10.000Z</time>
      </trkpt>
      <trkpt lat="49.79074" lon="4.84856">
        <ele>303</ele>
        <time>2021-07-31T09:52:11.000Z</time>
      </trkpt>
      <trkpt lat="49.79076" lon="4.84851">
        <ele>303</ele>
        <time>2021-07-31T09:52:12.000Z</time>
      </trkpt>
      <trkpt lat="49.79079" lon="4.84846">
        <ele>303</ele>
        <time>2021-07-31T09:52:13.000Z</time>
      </trkpt>
      <trkpt lat="49.79082" lon="4.84841">
        <ele>303</ele>
        <time>2021-07-31T09:52:14.000Z</time>
      </trkpt>
      <trkpt lat="49.79085" lon="4.84836">
        <ele>303</ele>
        <time>2021-07-31T09:52:15.000Z</time>
      </trkpt>
      <trkpt lat="49.79088" lon="4.84832">
        <ele>302</ele>
        <time>2021-07-31T09:52:16.000Z</time>
      </trkpt>
      <trkpt lat="49.79091" lon="4.84827">
        <ele>302</ele>
        <time>2021-07-31T09:52:17.000Z</time>
      </trkpt>
      <trkpt lat="49.79094" lon="4.84823">
        <ele>302</ele>
        <time>2021-07-31T09:52:18.000Z</time>
      </trkpt>
      <trkpt lat="49.79097" lon="4.84818">
        <ele>302</ele>
        <time>2021-07-31T09:52:19.000Z</time>
      </trkpt>
      <trkpt lat="49.791" lon="4.84814">
        <ele>302</ele>
        <time>2021-07-31T09:52:20.000Z</time>
      </trkpt>
      <trkpt lat="49.79103" lon="4.84809">
        <ele>302</ele>
        <time>2021-07-31T09:52:21.000Z</time>
      </trkpt>
      <trkpt lat="49.79106" lon="4.84804">
        <ele>302</ele>
        <time>2021-07-31T09:52:22.000Z</time>
      </trkpt>
      <trkpt lat="49.79109" lon="4.84799">
        <ele>302</ele>
        <time>2021-07-31T09:52:23.000Z</time>
      </trkpt>
      <trkpt lat="49.79112" lon="4.84795">
        <ele>301</ele>
        <time>2021-07-31T09:52:24.000Z</time>
      </trkpt>
      <trkpt lat="49.79114" lon="4.8479">
        <ele>301</ele>
        <time>2021-07-31T09:52:25.000Z</time>
      </trkpt>
      <trkpt lat="49.79117" lon="4.84786">
        <ele>301</ele>
        <time>2021-07-31T09:52:26.000Z</time>
      </trkpt>
      <trkpt lat="49.7912" lon="4.84781">
        <ele>301</ele>
        <time>2021-07-31T09:52:27.000Z</time>
      </trkpt>
      <trkpt lat="49.79123" lon="4.84776">
        <ele>301</ele>
        <time>2021-07-31T09:52:28.000Z</time>
      </trkpt>
      <trkpt lat="49.79126" lon="4.84772">
        <ele>300</ele>
        <time>2021-07-31T09:52:29.000Z</time>
      </trkpt>
      <trkpt lat="49.79129" lon="4.84768">
        <ele>300</ele>
        <time>2021-07-31T09:52:30.000Z</time>
      </trkpt>
      <trkpt lat="49.79133" lon="4.84763">
        <ele>300</ele>
        <time>2021-07-31T09:52:31.000Z</time>
      </trkpt>
      <trkpt lat="49.79137" lon="4.84759">
        <ele>299</ele>
        <time>2021-07-31T09:52:32.000Z</time>
      </trkpt>
      <trkpt lat="49.79141" lon="4.84755">
        <ele>299</ele>
        <time>2021-07-31T09:52:33.000Z</time>
      </trkpt>
      <trkpt lat="49.79145" lon="4.84751">
        <ele>299</ele>
        <time>2021-07-31T09:52:34.000Z</time>
      </trkpt>
      <trkpt lat="49.79149" lon="4.84747">
        <ele>299</ele>
        <time>2021-07-31T09:52:35.000Z</time>
      </trkpt>
      <trkpt lat="49.79153" lon="4.84743">
        <ele>299</ele>
        <time>2021-07-31T09:52:36.000Z</time>
      </trkpt>
      <trkpt lat="49.79156" lon="4.84736">
        <ele>299</ele>
        <time>2021-07-31T09:52:37.000Z</time>
      </trkpt>
      <trkpt lat="49.79159" lon="4.8473">
        <ele>299</ele>
        <time>2021-07-31T09:52:38.000Z</time>
      </trkpt>
      <trkpt lat="49.79162" lon="4.84724">
        <ele>299</ele>
        <time>2021-07-31T09:52:39.000Z</time>
      </trkpt>
      <trkpt lat="49.79165" lon="4.84718">
        <ele>299</ele>
        <time>2021-07-31T09:52:40.000Z</time>
      </trkpt>
      <trkpt lat="49.79168" lon="4.84712">
        <ele>299</ele>
        <time>2021-07-31T09:52:41.000Z</time>
      </trkpt>
      <trkpt lat="49.7917" lon="4.84705">
        <ele>298</ele>
        <time>2021-07-31T09:52:42.000Z</time>
      </trkpt>
      <trkpt lat="49.79172" lon="4.84697">
        <ele>298</ele>
        <time>2021-07-31T09:52:43.000Z</time>
      </trkpt>
      <trkpt lat="49.79174" lon="4.84689">
        <ele>298</ele>
        <time>2021-07-31T09:52:44.000Z</time>
      </trkpt>
      <trkpt lat="49.79175" lon="4.84684">
        <ele>298</ele>
        <time>2021-07-31T09:52:45.000Z</time>
      </trkpt>
      <trkpt lat="49.79175" lon="4.8468">
        <ele>298</ele>
        <time>2021-07-31T09:52:46.000Z</time>
      </trkpt>
      <trkpt lat="49.79174" lon="4.84676">
        <ele>298</ele>
        <time>2021-07-31T09:52:47.000Z</time>
      </trkpt>
      <trkpt lat="49.79173" lon="4.84672">
        <ele>297</ele>
        <time>2021-07-31T09:52:48.000Z</time>
      </trkpt>
      <trkpt lat="49.79173" lon="4.84668">
        <ele>297</ele>
        <time>2021-07-31T09:52:49.000Z</time>
      </trkpt>
      <trkpt lat="49.79172" lon="4.84664">
        <ele>297</ele>
        <time>2021-07-31T09:52:50.000Z</time>
      </trkpt>
      <trkpt lat="49.7917" lon="4.8466">
        <ele>297</ele>
        <time>2021-07-31T09:52:51.000Z</time>
      </trkpt>
      <trkpt lat="49.79168" lon="4.84656">
        <ele>296</ele>
        <time>2021-07-31T09:52:52.000Z</time>
      </trkpt>
      <trkpt lat="49.79165" lon="4.84652">
        <ele>296</ele>
        <time>2021-07-31T09:52:53.000Z</time>
      </trkpt>
      <trkpt lat="49.79162" lon="4.84647">
        <ele>295</ele>
        <time>2021-07-31T09:52:54.000Z</time>
      </trkpt>
      <trkpt lat="49.7916" lon="4.84642">
        <ele>294</ele>
        <time>2021-07-31T09:52:55.000Z</time>
      </trkpt>
      <trkpt lat="49.79156" lon="4.84637">
        <ele>294</ele>
        <time>2021-07-31T09:52:56.000Z</time>
      </trkpt>
      <trkpt lat="49.79153" lon="4.84631">
        <ele>293</ele>
        <time>2021-07-31T09:52:57.000Z</time>
      </trkpt>
      <trkpt lat="49.79149" lon="4.84626">
        <ele>293</ele>
        <time>2021-07-31T09:52:58.000Z</time>
      </trkpt>
      <trkpt lat="49.79145" lon="4.84623">
        <ele>292</ele>
        <time>2021-07-31T09:52:59.000Z</time>
      </trkpt>
      <trkpt lat="49.79142" lon="4.8462">
        <ele>291</ele>
        <time>2021-07-31T09:53:00.000Z</time>
      </trkpt>
      <trkpt lat="49.7914" lon="4.84616">
        <ele>291</ele>
        <time>2021-07-31T09:53:01.000Z</time>
      </trkpt>
      <trkpt lat="49.79137" lon="4.84613">
        <ele>290</ele>
        <time>2021-07-31T09:53:02.000Z</time>
      </trkpt>
      <trkpt lat="49.79134" lon="4.84609">
        <ele>289</ele>
        <time>2021-07-31T09:53:03.000Z</time>
      </trkpt>
      <trkpt lat="49.79131" lon="4.84605">
        <ele>288</ele>
        <time>2021-07-31T09:53:04.000Z</time>
      </trkpt>
      <trkpt lat="49.79128" lon="4.84601">
        <ele>288</ele>
        <time>2021-07-31T09:53:05.000Z</time>
      </trkpt>
      <trkpt lat="49.79124" lon="4.84597">
        <ele>287</ele>
        <time>2021-07-31T09:53:06.000Z</time>
      </trkpt>
      <trkpt lat="49.79121" lon="4.84593">
        <ele>286</ele>
        <time>2021-07-31T09:53:07.000Z</time>
      </trkpt>
      <trkpt lat="49.79118" lon="4.8459">
        <ele>286</ele>
        <time>2021-07-31T09:53:08.000Z</time>
      </trkpt>
      <trkpt lat="49.79114" lon="4.84587">
        <ele>285</ele>
        <time>2021-07-31T09:53:09.000Z</time>
      </trkpt>
      <trkpt lat="49.79111" lon="4.84584">
        <ele>284</ele>
        <time>2021-07-31T09:53:10.000Z</time>
      </trkpt>
      <trkpt lat="49.79108" lon="4.8458">
        <ele>283</ele>
        <time>2021-07-31T09:53:11.000Z</time>
      </trkpt>
      <trkpt lat="49.79105" lon="4.84576">
        <ele>282</ele>
        <time>2021-07-31T09:53:12.000Z</time>
      </trkpt>
      <trkpt lat="49.79102" lon="4.84572">
        <ele>282</ele>
        <time>2021-07-31T09:53:13.000Z</time>
      </trkpt>
      <trkpt lat="49.79099" lon="4.84569">
        <ele>281</ele>
        <time>2021-07-31T09:53:14.000Z</time>
      </trkpt>
      <trkpt lat="49.79096" lon="4.84566">
        <ele>280</ele>
        <time>2021-07-31T09:53:15.000Z</time>
      </trkpt>
      <trkpt lat="49.79093" lon="4.84563">
        <ele>279</ele>
        <time>2021-07-31T09:53:16.000Z</time>
      </trkpt>
      <trkpt lat="49.79091" lon="4.84561">
        <ele>278</ele>
        <time>2021-07-31T09:53:17.000Z</time>
      </trkpt>
      <trkpt lat="49.79089" lon="4.84559">
        <ele>277</ele>
        <time>2021-07-31T09:53:18.000Z</time>
      </trkpt>
      <trkpt lat="49.79087" lon="4.84557">
        <ele>276</ele>
        <time>2021-07-31T09:53:19.000Z</time>
      </trkpt>
      <trkpt lat="49.79085" lon="4.84555">
        <ele>276</ele>
        <time>2021-07-31T09:53:20.000Z</time>
      </trkpt>
      <trkpt lat="49.79082" lon="4.84552">
        <ele>275</ele>
        <time>2021-07-31T09:53:21.000Z</time>
      </trkpt>
      <trkpt lat="49.7908" lon="4.8455">
        <ele>274</ele>
        <time>2021-07-31T09:53:22.000Z</time>
      </trkpt>
      <trkpt lat="49.79077" lon="4.84548">
        <ele>273</ele>
        <time>2021-07-31T09:53:23.000Z</time>
      </trkpt>
      <trkpt lat="49.79075" lon="4.84546">
        <ele>272</ele>
        <time>2021-07-31T09:53:24.000Z</time>
      </trkpt>
      <trkpt lat="49.79073" lon="4.84543">
        <ele>271</ele>
        <time>2021-07-31T09:53:25.000Z</time>
      </trkpt>
      <trkpt lat="49.7907" lon="4.84541">
        <ele>270</ele>
        <time>2021-07-31T09:53:26.000Z</time>
      </trkpt>
      <trkpt lat="49.79067" lon="4.84538">
        <ele>269</ele>
        <time>2021-07-31T09:53:27.000Z</time>
      </trkpt>
      <trkpt lat="49.79064" lon="4.84534">
        <ele>268</ele>
        <time>2021-07-31T09:53:28.000Z</time>
      </trkpt>
      <trkpt lat="49.79061" lon="4.84531">
        <ele>267</ele>
        <time>2021-07-31T09:53:29.000Z</time>
      </trkpt>
      <trkpt lat="49.79058" lon="4.84528">
        <ele>267</ele>
        <time>2021-07-31T09:53:30.000Z</time>
      </trkpt>
      <trkpt lat="49.79056" lon="4.84525">
        <ele>266</ele>
        <time>2021-07-31T09:53:31.000Z</time>
      </trkpt>
      <trkpt lat="49.79053" lon="4.84522">
        <ele>265</ele>
        <time>2021-07-31T09:53:32.000Z</time>
      </trkpt>
      <trkpt lat="49.79051" lon="4.84519">
        <ele>264</ele>
        <time>2021-07-31T09:53:33.000Z</time>
      </trkpt>
      <trkpt lat="49.79048" lon="4.84516">
        <ele>263</ele>
        <time>2021-07-31T09:53:34.000Z</time>
      </trkpt>
      <trkpt lat="49.79046" lon="4.84513">
        <ele>262</ele>
        <time>2021-07-31T09:53:35.000Z</time>
      </trkpt>
      <trkpt lat="49.79043" lon="4.84511">
        <ele>261</ele>
        <time>2021-07-31T09:53:36.000Z</time>
      </trkpt>
      <trkpt lat="49.7904" lon="4.84508">
        <ele>260</ele>
        <time>2021-07-31T09:53:37.000Z</time>
      </trkpt>
      <trkpt lat="49.79038" lon="4.84506">
        <ele>259</ele>
        <time>2021-07-31T09:53:38.000Z</time>
      </trkpt>
      <trkpt lat="49.79035" lon="4.84504">
        <ele>258</ele>
        <time>2021-07-31T09:53:39.000Z</time>
      </trkpt>
      <trkpt lat="49.79033" lon="4.84501">
        <ele>258</ele>
        <time>2021-07-31T09:53:40.000Z</time>
      </trkpt>
      <trkpt lat="49.7903" lon="4.84499">
        <ele>257</ele>
        <time>2021-07-31T09:53:41.000Z</time>
      </trkpt>
      <trkpt lat="49.79027" lon="4.84496">
        <ele>256</ele>
        <time>2021-07-31T09:53:42.000Z</time>
      </trkpt>
      <trkpt lat="49.79024" lon="4.84494">
        <ele>255</ele>
        <time>2021-07-31T09:53:43.000Z</time>
      </trkpt>
      <trkpt lat="49.7902" lon="4.84491">
        <ele>254</ele>
        <time>2021-07-31T09:53:44.000Z</time>
      </trkpt>
      <trkpt lat="49.79017" lon="4.84487">
        <ele>254</ele>
        <time>2021-07-31T09:53:45.000Z</time>
      </trkpt>
      <trkpt lat="49.79014" lon="4.84485">
        <ele>253</ele>
        <time>2021-07-31T09:53:46.000Z</time>
      </trkpt>
      <trkpt lat="49.79011" lon="4.84483">
        <ele>252</ele>
        <time>2021-07-31T09:53:47.000Z</time>
      </trkpt>
      <trkpt lat="49.79008" lon="4.84479">
        <ele>251</ele>
        <time>2021-07-31T09:53:48.000Z</time>
      </trkpt>
      <trkpt lat="49.79005" lon="4.84475">
        <ele>251</ele>
        <time>2021-07-31T09:53:49.000Z</time>
      </trkpt>
      <trkpt lat="49.79002" lon="4.84472">
        <ele>250</ele>
        <time>2021-07-31T09:53:50.000Z</time>
      </trkpt>
      <trkpt lat="49.78999" lon="4.84469">
        <ele>249</ele>
        <time>2021-07-31T09:53:51.000Z</time>
      </trkpt>
      <trkpt lat="49.78996" lon="4.84467">
        <ele>249</ele>
        <time>2021-07-31T09:53:52.000Z</time>
      </trkpt>
      <trkpt lat="49.78993" lon="4.84464">
        <ele>248</ele>
        <time>2021-07-31T09:53:53.000Z</time>
      </trkpt>
      <trkpt lat="49.7899" lon="4.84461">
        <ele>247</ele>
        <time>2021-07-31T09:53:54.000Z</time>
      </trkpt>
      <trkpt lat="49.78987" lon="4.84457">
        <ele>247</ele>
        <time>2021-07-31T09:53:55.000Z</time>
      </trkpt>
      <trkpt lat="49.78985" lon="4.84454">
        <ele>246</ele>
        <time>2021-07-31T09:53:56.000Z</time>
      </trkpt>
      <trkpt lat="49.78982" lon="4.8445">
        <ele>245</ele>
        <time>2021-07-31T09:53:57.000Z</time>
      </trkpt>
      <trkpt lat="49.7898" lon="4.84447">
        <ele>245</ele>
        <time>2021-07-31T09:53:58.000Z</time>
      </trkpt>
      <trkpt lat="49.78977" lon="4.84443">
        <ele>244</ele>
        <time>2021-07-31T09:53:59.000Z</time>
      </trkpt>
      <trkpt lat="49.78975" lon="4.84439">
        <ele>243</ele>
        <time>2021-07-31T09:54:00.000Z</time>
      </trkpt>
      <trkpt lat="49.78972" lon="4.84435">
        <ele>243</ele>
        <time>2021-07-31T09:54:01.000Z</time>
      </trkpt>
      <trkpt lat="49.7897" lon="4.8443">
        <ele>242</ele>
        <time>2021-07-31T09:54:02.000Z</time>
      </trkpt>
      <trkpt lat="49.78968" lon="4.84426">
        <ele>242</ele>
        <time>2021-07-31T09:54:03.000Z</time>
      </trkpt>
      <trkpt lat="49.78966" lon="4.84423">
        <ele>241</ele>
        <time>2021-07-31T09:54:04.000Z</time>
      </trkpt>
      <trkpt lat="49.78964" lon="4.84419">
        <ele>241</ele>
        <time>2021-07-31T09:54:05.000Z</time>
      </trkpt>
      <trkpt lat="49.78961" lon="4.84414">
        <ele>240</ele>
        <time>2021-07-31T09:54:06.000Z</time>
      </trkpt>
      <trkpt lat="49.78958" lon="4.8441">
        <ele>240</ele>
        <time>2021-07-31T09:54:07.000Z</time>
      </trkpt>
      <trkpt lat="49.78955" lon="4.84406">
        <ele>239</ele>
        <time>2021-07-31T09:54:08.000Z</time>
      </trkpt>
      <trkpt lat="49.78952" lon="4.84403">
        <ele>239</ele>
        <time>2021-07-31T09:54:09.000Z</time>
      </trkpt>
      <trkpt lat="49.7895" lon="4.84399">
        <ele>239</ele>
        <time>2021-07-31T09:54:10.000Z</time>
      </trkpt>
      <trkpt lat="49.78948" lon="4.84395">
        <ele>238</ele>
        <time>2021-07-31T09:54:11.000Z</time>
      </trkpt>
      <trkpt lat="49.78946" lon="4.84391">
        <ele>238</ele>
        <time>2021-07-31T09:54:12.000Z</time>
      </trkpt>
      <trkpt lat="49.78944" lon="4.84386">
        <ele>238</ele>
        <time>2021-07-31T09:54:13.000Z</time>
      </trkpt>
      <trkpt lat="49.78942" lon="4.84381">
        <ele>237</ele>
        <time>2021-07-31T09:54:14.000Z</time>
      </trkpt>
      <trkpt lat="49.78941" lon="4.84378">
        <ele>237</ele>
        <time>2021-07-31T09:54:15.000Z</time>
      </trkpt>
      <trkpt lat="49.78939" lon="4.84374">
        <ele>236</ele>
        <time>2021-07-31T09:54:16.000Z</time>
      </trkpt>
      <trkpt lat="49.78937" lon="4.8437">
        <ele>236</ele>
        <time>2021-07-31T09:54:17.000Z</time>
      </trkpt>
      <trkpt lat="49.78936" lon="4.84365">
        <ele>235</ele>
        <time>2021-07-31T09:54:18.000Z</time>
      </trkpt>
      <trkpt lat="49.78934" lon="4.8436">
        <ele>235</ele>
        <time>2021-07-31T09:54:19.000Z</time>
      </trkpt>
      <trkpt lat="49.78932" lon="4.84354">
        <ele>234</ele>
        <time>2021-07-31T09:54:20.000Z</time>
      </trkpt>
      <trkpt lat="49.78931" lon="4.8435">
        <ele>234</ele>
        <time>2021-07-31T09:54:21.000Z</time>
      </trkpt>
      <trkpt lat="49.7893" lon="4.84347">
        <ele>233</ele>
        <time>2021-07-31T09:54:22.000Z</time>
      </trkpt>
      <trkpt lat="49.78929" lon="4.84345">
        <ele>233</ele>
        <time>2021-07-31T09:54:23.000Z</time>
      </trkpt>
      <trkpt lat="49.78928" lon="4.84344">
        <ele>233</ele>
        <time>2021-07-31T09:54:24.000Z</time>
      </trkpt>
      <trkpt lat="49.78928" lon="4.84342">
        <ele>232</ele>
        <time>2021-07-31T09:54:25.000Z</time>
      </trkpt>
      <trkpt lat="49.78927" lon="4.8434">
        <ele>232</ele>
        <time>2021-07-31T09:54:26.000Z</time>
      </trkpt>
      <trkpt lat="49.78927" lon="4.84339">
        <ele>232</ele>
        <time>2021-07-31T09:54:27.000Z</time>
      </trkpt>
      <trkpt lat="49.78927" lon="4.84337">
        <ele>231</ele>
        <time>2021-07-31T09:54:28.000Z</time>
      </trkpt>
      <trkpt lat="49.78927" lon="4.84336">
        <ele>231</ele>
        <time>2021-07-31T09:54:29.000Z</time>
      </trkpt>
      <trkpt lat="49.78926" lon="4.84335">
        <ele>230</ele>
        <time>2021-07-31T09:54:30.000Z</time>
      </trkpt>
      <trkpt lat="49.78926" lon="4.84334">
        <ele>230</ele>
        <time>2021-07-31T09:54:31.000Z</time>
      </trkpt>
      <trkpt lat="49.78926" lon="4.84333">
        <ele>230</ele>
        <time>2021-07-31T09:54:32.000Z</time>
      </trkpt>
      <trkpt lat="49.78926" lon="4.84332">
        <ele>230</ele>
        <time>2021-07-31T09:54:33.000Z</time>
      </trkpt>
      <trkpt lat="49.78926" lon="4.8433">
        <ele>229</ele>
        <time>2021-07-31T09:54:34.000Z</time>
      </trkpt>
      <trkpt lat="49.78927" lon="4.8433">
        <ele>229</ele>
        <time>2021-07-31T09:54:35.000Z</time>
      </trkpt>
      <trkpt lat="49.78927" lon="4.84328">
        <ele>228</ele>
        <time>2021-07-31T09:54:36.000Z</time>
      </trkpt>
      <trkpt lat="49.78927" lon="4.84325">
        <ele>228</ele>
        <time>2021-07-31T09:54:37.000Z</time>
      </trkpt>
      <trkpt lat="49.78926" lon="4.84322">
        <ele>228</ele>
        <time>2021-07-31T09:54:38.000Z</time>
      </trkpt>
      <trkpt lat="49.78926" lon="4.84319">
        <ele>227</ele>
        <time>2021-07-31T09:54:39.000Z</time>
      </trkpt>
      <trkpt lat="49.78925" lon="4.84317">
        <ele>227</ele>
        <time>2021-07-31T09:54:40.000Z</time>
      </trkpt>
      <trkpt lat="49.78924" lon="4.84316">
        <ele>227</ele>
        <time>2021-07-31T09:54:41.000Z</time>
      </trkpt>
      <trkpt lat="49.78922" lon="4.84316">
        <ele>226</ele>
        <time>2021-07-31T09:54:42.000Z</time>
      </trkpt>
      <trkpt lat="49.7892" lon="4.84316">
        <ele>226</ele>
        <time>2021-07-31T09:54:43.000Z</time>
      </trkpt>
      <trkpt lat="49.78918" lon="4.84316">
        <ele>226</ele>
        <time>2021-07-31T09:54:44.000Z</time>
      </trkpt>
      <trkpt lat="49.78916" lon="4.84317">
        <ele>225</ele>
        <time>2021-07-31T09:54:45.000Z</time>
      </trkpt>
      <trkpt lat="49.78914" lon="4.84319">
        <ele>225</ele>
        <time>2021-07-31T09:54:46.000Z</time>
      </trkpt>
      <trkpt lat="49.78911" lon="4.84321">
        <ele>225</ele>
        <time>2021-07-31T09:54:47.000Z</time>
      </trkpt>
      <trkpt lat="49.78908" lon="4.84321">
        <ele>225</ele>
        <time>2021-07-31T09:54:48.000Z</time>
      </trkpt>
      <trkpt lat="49.78905" lon="4.84323">
        <ele>224</ele>
        <time>2021-07-31T09:54:49.000Z</time>
      </trkpt>
      <trkpt lat="49.78901" lon="4.84324">
        <ele>224</ele>
        <time>2021-07-31T09:54:50.000Z</time>
      </trkpt>
      <trkpt lat="49.78897" lon="4.84326">
        <ele>223</ele>
        <time>2021-07-31T09:54:51.000Z</time>
      </trkpt>
      <trkpt lat="49.78893" lon="4.84327">
        <ele>223</ele>
        <time>2021-07-31T09:54:52.000Z</time>
      </trkpt>
      <trkpt lat="49.78889" lon="4.84328">
        <ele>223</ele>
        <time>2021-07-31T09:54:53.000Z</time>
      </trkpt>
      <trkpt lat="49.78884" lon="4.84328">
        <ele>222</ele>
        <time>2021-07-31T09:54:54.000Z</time>
      </trkpt>
      <trkpt lat="49.78879" lon="4.84328">
        <ele>222</ele>
        <time>2021-07-31T09:54:55.000Z</time>
      </trkpt>
      <trkpt lat="49.78873" lon="4.84328">
        <ele>222</ele>
        <time>2021-07-31T09:54:56.000Z</time>
      </trkpt>
      <trkpt lat="49.78868" lon="4.84328">
        <ele>221</ele>
        <time>2021-07-31T09:54:57.000Z</time>
      </trkpt>
      <trkpt lat="49.78862" lon="4.84327">
        <ele>221</ele>
        <time>2021-07-31T09:54:58.000Z</time>
      </trkpt>
      <trkpt lat="49.78856" lon="4.84326">
        <ele>221</ele>
        <time>2021-07-31T09:54:59.000Z</time>
      </trkpt>
      <trkpt lat="49.7885" lon="4.84325">
        <ele>220</ele>
        <time>2021-07-31T09:55:00.000Z</time>
      </trkpt>
      <trkpt lat="49.78844" lon="4.84324">
        <ele>220</ele>
        <time>2021-07-31T09:55:01.000Z</time>
      </trkpt>
      <trkpt lat="49.78837" lon="4.84324">
        <ele>220</ele>
        <time>2021-07-31T09:55:02.000Z</time>
      </trkpt>
      <trkpt lat="49.7883" lon="4.84323">
        <ele>219</ele>
        <time>2021-07-31T09:55:03.000Z</time>
      </trkpt>
      <trkpt lat="49.78823" lon="4.84323">
        <ele>219</ele>
        <time>2021-07-31T09:55:04.000Z</time>
      </trkpt>
      <trkpt lat="49.78816" lon="4.84323">
        <ele>218</ele>
        <time>2021-07-31T09:55:05.000Z</time>
      </trkpt>
      <trkpt lat="49.78809" lon="4.84322">
        <ele>218</ele>
        <time>2021-07-31T09:55:06.000Z</time>
      </trkpt>
      <trkpt lat="49.78802" lon="4.84322">
        <ele>218</ele>
        <time>2021-07-31T09:55:07.000Z</time>
      </trkpt>
      <trkpt lat="49.78795" lon="4.84321">
        <ele>217</ele>
        <time>2021-07-31T09:55:08.000Z</time>
      </trkpt>
      <trkpt lat="49.78789" lon="4.84321">
        <ele>217</ele>
        <time>2021-07-31T09:55:09.000Z</time>
      </trkpt>
      <trkpt lat="49.78782" lon="4.84321">
        <ele>217</ele>
        <time>2021-07-31T09:55:10.000Z</time>
      </trkpt>
      <trkpt lat="49.78775" lon="4.84321">
        <ele>216</ele>
        <time>2021-07-31T09:55:11.000Z</time>
      </trkpt>
      <trkpt lat="49.78769" lon="4.84321">
        <ele>216</ele>
        <time>2021-07-31T09:55:12.000Z</time>
      </trkpt>
      <trkpt lat="49.78762" lon="4.8432">
        <ele>215</ele>
        <time>2021-07-31T09:55:13.000Z</time>
      </trkpt>
      <trkpt lat="49.78756" lon="4.8432">
        <ele>215</ele>
        <time>2021-07-31T09:55:14.000Z</time>
      </trkpt>
      <trkpt lat="49.7875" lon="4.84319">
        <ele>215</ele>
        <time>2021-07-31T09:55:15.000Z</time>
      </trkpt>
      <trkpt lat="49.78743" lon="4.84319">
        <ele>214</ele>
        <time>2021-07-31T09:55:16.000Z</time>
      </trkpt>
      <trkpt lat="49.78736" lon="4.84319">
        <ele>214</ele>
        <time>2021-07-31T09:55:17.000Z</time>
      </trkpt>
      <trkpt lat="49.78729" lon="4.84318">
        <ele>213</ele>
        <time>2021-07-31T09:55:18.000Z</time>
      </trkpt>
      <trkpt lat="49.78722" lon="4.84318">
        <ele>213</ele>
        <time>2021-07-31T09:55:19.000Z</time>
      </trkpt>
      <trkpt lat="49.78715" lon="4.84318">
        <ele>212</ele>
        <time>2021-07-31T09:55:20.000Z</time>
      </trkpt>
      <trkpt lat="49.78709" lon="4.84318">
        <ele>212</ele>
        <time>2021-07-31T09:55:21.000Z</time>
      </trkpt>
      <trkpt lat="49.78702" lon="4.84318">
        <ele>211</ele>
        <time>2021-07-31T09:55:22.000Z</time>
      </trkpt>
      <trkpt lat="49.78695" lon="4.84317">
        <ele>210</ele>
        <time>2021-07-31T09:55:23.000Z</time>
      </trkpt>
      <trkpt lat="49.78688" lon="4.84317">
        <ele>210</ele>
        <time>2021-07-31T09:55:24.000Z</time>
      </trkpt>
      <trkpt lat="49.78681" lon="4.84317">
        <ele>209</ele>
        <time>2021-07-31T09:55:25.000Z</time>
      </trkpt>
      <trkpt lat="49.78673" lon="4.84317">
        <ele>209</ele>
        <time>2021-07-31T09:55:26.000Z</time>
      </trkpt>
      <trkpt lat="49.78666" lon="4.84316">
        <ele>208</ele>
        <time>2021-07-31T09:55:27.000Z</time>
      </trkpt>
      <trkpt lat="49.78659" lon="4.84315">
        <ele>208</ele>
        <time>2021-07-31T09:55:28.000Z</time>
      </trkpt>
      <trkpt lat="49.78651" lon="4.84315">
        <ele>207</ele>
        <time>2021-07-31T09:55:29.000Z</time>
      </trkpt>
      <trkpt lat="49.78643" lon="4.84315">
        <ele>207</ele>
        <time>2021-07-31T09:55:30.000Z</time>
      </trkpt>
      <trkpt lat="49.78636" lon="4.84314">
        <ele>206</ele>
        <time>2021-07-31T09:55:31.000Z</time>
      </trkpt>
      <trkpt lat="49.78628" lon="4.84313">
        <ele>206</ele>
        <time>2021-07-31T09:55:32.000Z</time>
      </trkpt>
      <trkpt lat="49.78621" lon="4.84313">
        <ele>205</ele>
        <time>2021-07-31T09:55:33.000Z</time>
      </trkpt>
      <trkpt lat="49.78614" lon="4.84312">
        <ele>205</ele>
        <time>2021-07-31T09:55:34.000Z</time>
      </trkpt>
      <trkpt lat="49.78607" lon="4.84311">
        <ele>205</ele>
        <time>2021-07-31T09:55:35.000Z</time>
      </trkpt>
      <trkpt lat="49.786" lon="4.84311">
        <ele>204</ele>
        <time>2021-07-31T09:55:36.000Z</time>
      </trkpt>
      <trkpt lat="49.78594" lon="4.84312">
        <ele>204</ele>
        <time>2021-07-31T09:55:37.000Z</time>
      </trkpt>
      <trkpt lat="49.78587" lon="4.84312">
        <ele>203</ele>
        <time>2021-07-31T09:55:38.000Z</time>
      </trkpt>
      <trkpt lat="49.7858" lon="4.84311">
        <ele>203</ele>
        <time>2021-07-31T09:55:39.000Z</time>
      </trkpt>
      <trkpt lat="49.78574" lon="4.84311">
        <ele>203</ele>
        <time>2021-07-31T09:55:40.000Z</time>
      </trkpt>
      <trkpt lat="49.78568" lon="4.8431">
        <ele>202</ele>
        <time>2021-07-31T09:55:41.000Z</time>
      </trkpt>
      <trkpt lat="49.78561" lon="4.8431">
        <ele>202</ele>
        <time>2021-07-31T09:55:42.000Z</time>
      </trkpt>
      <trkpt lat="49.78555" lon="4.8431">
        <ele>201</ele>
        <time>2021-07-31T09:55:43.000Z</time>
      </trkpt>
      <trkpt lat="49.78548" lon="4.8431">
        <ele>201</ele>
        <time>2021-07-31T09:55:44.000Z</time>
      </trkpt>
      <trkpt lat="49.78541" lon="4.84309">
        <ele>201</ele>
        <time>2021-07-31T09:55:45.000Z</time>
      </trkpt>
      <trkpt lat="49.78535" lon="4.84309">
        <ele>200</ele>
        <time>2021-07-31T09:55:46.000Z</time>
      </trkpt>
      <trkpt lat="49.78528" lon="4.84308">
        <ele>200</ele>
        <time>2021-07-31T09:55:47.000Z</time>
      </trkpt>
      <trkpt lat="49.78522" lon="4.84307">
        <ele>200</ele>
        <time>2021-07-31T09:55:48.000Z</time>
      </trkpt>
      <trkpt lat="49.78515" lon="4.84306">
        <ele>199</ele>
        <time>2021-07-31T09:55:49.000Z</time>
      </trkpt>
      <trkpt lat="49.78509" lon="4.84306">
        <ele>199</ele>
        <time>2021-07-31T09:55:50.000Z</time>
      </trkpt>
      <trkpt lat="49.78503" lon="4.84306">
        <ele>199</ele>
        <time>2021-07-31T09:55:51.000Z</time>
      </trkpt>
      <trkpt lat="49.78497" lon="4.84306">
        <ele>199</ele>
        <time>2021-07-31T09:55:52.000Z</time>
      </trkpt>
      <trkpt lat="49.78491" lon="4.84305">
        <ele>198</ele>
        <time>2021-07-31T09:55:53.000Z</time>
      </trkpt>
      <trkpt lat="49.78485" lon="4.84305">
        <ele>198</ele>
        <time>2021-07-31T09:55:54.000Z</time>
      </trkpt>
      <trkpt lat="49.78479" lon="4.84305">
        <ele>198</ele>
        <time>2021-07-31T09:55:55.000Z</time>
      </trkpt>
      <trkpt lat="49.78473" lon="4.84305">
        <ele>197</ele>
        <time>2021-07-31T09:55:56.000Z</time>
      </trkpt>
      <trkpt lat="49.78467" lon="4.84304">
        <ele>197</ele>
        <time>2021-07-31T09:55:57.000Z</time>
      </trkpt>
      <trkpt lat="49.78461" lon="4.84303">
        <ele>197</ele>
        <time>2021-07-31T09:55:58.000Z</time>
      </trkpt>
      <trkpt lat="49.78455" lon="4.84303">
        <ele>197</ele>
        <time>2021-07-31T09:55:59.000Z</time>
      </trkpt>
      <trkpt lat="49.78449" lon="4.84302">
        <ele>197</ele>
        <time>2021-07-31T09:56:00.000Z</time>
      </trkpt>
      <trkpt lat="49.78444" lon="4.84302">
        <ele>197</ele>
        <time>2021-07-31T09:56:01.000Z</time>
      </trkpt>
      <trkpt lat="49.78439" lon="4.84303">
        <ele>197</ele>
        <time>2021-07-31T09:56:02.000Z</time>
      </trkpt>
      <trkpt lat="49.78433" lon="4.84306">
        <ele>196</ele>
        <time>2021-07-31T09:56:03.000Z</time>
      </trkpt>
      <trkpt lat="49.78429" lon="4.84309">
        <ele>196</ele>
        <time>2021-07-31T09:56:04.000Z</time>
      </trkpt>
      <trkpt lat="49.78424" lon="4.84314">
        <ele>196</ele>
        <time>2021-07-31T09:56:05.000Z</time>
      </trkpt>
      <trkpt lat="49.78419" lon="4.84318">
        <ele>196</ele>
        <time>2021-07-31T09:56:06.000Z</time>
      </trkpt>
      <trkpt lat="49.78415" lon="4.84322">
        <ele>196</ele>
        <time>2021-07-31T09:56:07.000Z</time>
      </trkpt>
      <trkpt lat="49.7841" lon="4.84327">
        <ele>196</ele>
        <time>2021-07-31T09:56:08.000Z</time>
      </trkpt>
      <trkpt lat="49.78406" lon="4.84331">
        <ele>196</ele>
        <time>2021-07-31T09:56:09.000Z</time>
      </trkpt>
      <trkpt lat="49.78401" lon="4.84335">
        <ele>196</ele>
        <time>2021-07-31T09:56:10.000Z</time>
      </trkpt>
      <trkpt lat="49.78397" lon="4.8434">
        <ele>197</ele>
        <time>2021-07-31T09:56:11.000Z</time>
      </trkpt>
      <trkpt lat="49.78391" lon="4.84343">
        <ele>197</ele>
        <time>2021-07-31T09:56:12.000Z</time>
      </trkpt>
      <trkpt lat="49.78385" lon="4.84346">
        <ele>197</ele>
        <time>2021-07-31T09:56:13.000Z</time>
      </trkpt>
      <trkpt lat="49.78379" lon="4.84346">
        <ele>197</ele>
        <time>2021-07-31T09:56:14.000Z</time>
      </trkpt>
      <trkpt lat="49.78373" lon="4.84345">
        <ele>196</ele>
        <time>2021-07-31T09:56:15.000Z</time>
      </trkpt>
      <trkpt lat="49.78366" lon="4.84342">
        <ele>196</ele>
        <time>2021-07-31T09:56:16.000Z</time>
      </trkpt>
      <trkpt lat="49.7836" lon="4.84338">
        <ele>196</ele>
        <time>2021-07-31T09:56:17.000Z</time>
      </trkpt>
      <trkpt lat="49.78354" lon="4.84334">
        <ele>196</ele>
        <time>2021-07-31T09:56:18.000Z</time>
      </trkpt>
      <trkpt lat="49.78349" lon="4.84331">
        <ele>196</ele>
        <time>2021-07-31T09:56:19.000Z</time>
      </trkpt>
      <trkpt lat="49.78344" lon="4.84327">
        <ele>196</ele>
        <time>2021-07-31T09:56:20.000Z</time>
      </trkpt>
      <trkpt lat="49.78339" lon="4.84324">
        <ele>196</ele>
        <time>2021-07-31T09:56:21.000Z</time>
      </trkpt>
      <trkpt lat="49.78333" lon="4.8432">
        <ele>196</ele>
        <time>2021-07-31T09:56:22.000Z</time>
      </trkpt>
      <trkpt lat="49.78327" lon="4.84317">
        <ele>196</ele>
        <time>2021-07-31T09:56:23.000Z</time>
      </trkpt>
      <trkpt lat="49.78321" lon="4.84313">
        <ele>195</ele>
        <time>2021-07-31T09:56:24.000Z</time>
      </trkpt>
      <trkpt lat="49.78315" lon="4.84309">
        <ele>195</ele>
        <time>2021-07-31T09:56:25.000Z</time>
      </trkpt>
      <trkpt lat="49.78309" lon="4.84306">
        <ele>195</ele>
        <time>2021-07-31T09:56:26.000Z</time>
      </trkpt>
      <trkpt lat="49.78303" lon="4.84302">
        <ele>195</ele>
        <time>2021-07-31T09:56:27.000Z</time>
      </trkpt>
      <trkpt lat="49.78298" lon="4.84298">
        <ele>195</ele>
        <time>2021-07-31T09:56:28.000Z</time>
      </trkpt>
      <trkpt lat="49.78292" lon="4.84295">
        <ele>195</ele>
        <time>2021-07-31T09:56:29.000Z</time>
      </trkpt>
      <trkpt lat="49.78286" lon="4.84291">
        <ele>196</ele>
        <time>2021-07-31T09:56:30.000Z</time>
      </trkpt>
      <trkpt lat="49.7828" lon="4.84287">
        <ele>196</ele>
        <time>2021-07-31T09:56:31.000Z</time>
      </trkpt>
      <trkpt lat="49.78274" lon="4.84283">
        <ele>196</ele>
        <time>2021-07-31T09:56:32.000Z</time>
      </trkpt>
      <trkpt lat="49.78268" lon="4.84279">
        <ele>196</ele>
        <time>2021-07-31T09:56:33.000Z</time>
      </trkpt>
      <trkpt lat="49.78263" lon="4.84274">
        <ele>196</ele>
        <time>2021-07-31T09:56:34.000Z</time>
      </trkpt>
      <trkpt lat="49.78258" lon="4.84267">
        <ele>196</ele>
        <time>2021-07-31T09:56:35.000Z</time>
      </trkpt>
      <trkpt lat="49.78254" lon="4.8426">
        <ele>196</ele>
        <time>2021-07-31T09:56:36.000Z</time>
      </trkpt>
      <trkpt lat="49.7825" lon="4.84253">
        <ele>196</ele>
        <time>2021-07-31T09:56:37.000Z</time>
      </trkpt>
      <trkpt lat="49.78248" lon="4.84246">
        <ele>195</ele>
        <time>2021-07-31T09:56:38.000Z</time>
      </trkpt>
      <trkpt lat="49.78245" lon="4.84241">
        <ele>195</ele>
        <time>2021-07-31T09:56:39.000Z</time>
      </trkpt>
      <trkpt lat="49.78244" lon="4.84236">
        <ele>195</ele>
        <time>2021-07-31T09:56:40.000Z</time>
      </trkpt>
      <trkpt lat="49.78243" lon="4.84231">
        <ele>195</ele>
        <time>2021-07-31T09:56:41.000Z</time>
      </trkpt>
      <trkpt lat="49.78241" lon="4.84227">
        <ele>195</ele>
        <time>2021-07-31T09:56:42.000Z</time>
      </trkpt>
      <trkpt lat="49.7824" lon="4.84221">
        <ele>195</ele>
        <time>2021-07-31T09:56:43.000Z</time>
      </trkpt>
      <trkpt lat="49.78238" lon="4.84215">
        <ele>195</ele>
        <time>2021-07-31T09:56:44.000Z</time>
      </trkpt>
      <trkpt lat="49.78237" lon="4.84208">
        <ele>195</ele>
        <time>2021-07-31T09:56:45.000Z</time>
      </trkpt>
      <trkpt lat="49.78237" lon="4.84203">
        <ele>195</ele>
        <time>2021-07-31T09:56:46.000Z</time>
      </trkpt>
      <trkpt lat="49.78236" lon="4.84198">
        <ele>195</ele>
        <time>2021-07-31T09:56:47.000Z</time>
      </trkpt>
      <trkpt lat="49.78235" lon="4.84193">
        <ele>195</ele>
        <time>2021-07-31T09:56:48.000Z</time>
      </trkpt>
      <trkpt lat="49.78234" lon="4.84189">
        <ele>195</ele>
        <time>2021-07-31T09:56:49.000Z</time>
      </trkpt>
      <trkpt lat="49.78233" lon="4.84184">
        <ele>195</ele>
        <time>2021-07-31T09:56:50.000Z</time>
      </trkpt>
      <trkpt lat="49.78231" lon="4.8418">
        <ele>194</ele>
        <time>2021-07-31T09:56:51.000Z</time>
      </trkpt>
      <trkpt lat="49.78229" lon="4.84175">
        <ele>194</ele>
        <time>2021-07-31T09:56:52.000Z</time>
      </trkpt>
      <trkpt lat="49.78227" lon="4.84171">
        <ele>194</ele>
        <time>2021-07-31T09:56:53.000Z</time>
      </trkpt>
      <trkpt lat="49.78224" lon="4.84166">
        <ele>194</ele>
        <time>2021-07-31T09:56:54.000Z</time>
      </trkpt>
      <trkpt lat="49.78221" lon="4.84161">
        <ele>194</ele>
        <time>2021-07-31T09:56:55.000Z</time>
      </trkpt>
      <trkpt lat="49.78219" lon="4.84157">
        <ele>194</ele>
        <time>2021-07-31T09:56:56.000Z</time>
      </trkpt>
      <trkpt lat="49.78216" lon="4.84151">
        <ele>194</ele>
        <time>2021-07-31T09:56:57.000Z</time>
      </trkpt>
      <trkpt lat="49.78214" lon="4.84146">
        <ele>194</ele>
        <time>2021-07-31T09:56:58.000Z</time>
      </trkpt>
      <trkpt lat="49.7821" lon="4.84141">
        <ele>194</ele>
        <time>2021-07-31T09:56:59.000Z</time>
      </trkpt>
      <trkpt lat="49.78207" lon="4.84136">
        <ele>194</ele>
        <time>2021-07-31T09:57:00.000Z</time>
      </trkpt>
      <trkpt lat="49.78204" lon="4.84132">
        <ele>194</ele>
        <time>2021-07-31T09:57:01.000Z</time>
      </trkpt>
      <trkpt lat="49.782" lon="4.84129">
        <ele>194</ele>
        <time>2021-07-31T09:57:02.000Z</time>
      </trkpt>
      <trkpt lat="49.78197" lon="4.84126">
        <ele>194</ele>
        <time>2021-07-31T09:57:03.000Z</time>
      </trkpt>
      <trkpt lat="49.78194" lon="4.84123">
        <ele>194</ele>
        <time>2021-07-31T09:57:04.000Z</time>
      </trkpt>
      <trkpt lat="49.7819" lon="4.8412">
        <ele>194</ele>
        <time>2021-07-31T09:57:05.000Z</time>
      </trkpt>
      <trkpt lat="49.78187" lon="4.84118">
        <ele>194</ele>
        <time>2021-07-31T09:57:06.000Z</time>
      </trkpt>
      <trkpt lat="49.78183" lon="4.84115">
        <ele>193</ele>
        <time>2021-07-31T09:57:07.000Z</time>
      </trkpt>
      <trkpt lat="49.7818" lon="4.84113">
        <ele>193</ele>
        <time>2021-07-31T09:57:08.000Z</time>
      </trkpt>
      <trkpt lat="49.78177" lon="4.84111">
        <ele>193</ele>
        <time>2021-07-31T09:57:09.000Z</time>
      </trkpt>
      <trkpt lat="49.78174" lon="4.84108">
        <ele>193</ele>
        <time>2021-07-31T09:57:10.000Z</time>
      </trkpt>
      <trkpt lat="49.7817" lon="4.84106">
        <ele>193</ele>
        <time>2021-07-31T09:57:11.000Z</time>
      </trkpt>
      <trkpt lat="49.78167" lon="4.84104">
        <ele>193</ele>
        <time>2021-07-31T09:57:12.000Z</time>
      </trkpt>
      <trkpt lat="49.78163" lon="4.84102">
        <ele>193</ele>
        <time>2021-07-31T09:57:13.000Z</time>
      </trkpt>
      <trkpt lat="49.78159" lon="4.841">
        <ele>193</ele>
        <time>2021-07-31T09:57:14.000Z</time>
      </trkpt>
      <trkpt lat="49.78155" lon="4.84097">
        <ele>193</ele>
        <time>2021-07-31T09:57:15.000Z</time>
      </trkpt>
      <trkpt lat="49.78151" lon="4.84095">
        <ele>193</ele>
        <time>2021-07-31T09:57:16.000Z</time>
      </trkpt>
      <trkpt lat="49.78147" lon="4.84093">
        <ele>193</ele>
        <time>2021-07-31T09:57:17.000Z</time>
      </trkpt>
      <trkpt lat="49.78143" lon="4.84091">
        <ele>193</ele>
        <time>2021-07-31T09:57:18.000Z</time>
      </trkpt>
      <trkpt lat="49.7814" lon="4.84089">
        <ele>193</ele>
        <time>2021-07-31T09:57:19.000Z</time>
      </trkpt>
      <trkpt lat="49.78136" lon="4.84087">
        <ele>193</ele>
        <time>2021-07-31T09:57:20.000Z</time>
      </trkpt>
      <trkpt lat="49.78132" lon="4.84086">
        <ele>193</ele>
        <time>2021-07-31T09:57:21.000Z</time>
      </trkpt>
      <trkpt lat="49.78128" lon="4.84084">
        <ele>193</ele>
        <time>2021-07-31T09:57:22.000Z</time>
      </trkpt>
      <trkpt lat="49.78124" lon="4.84081">
        <ele>193</ele>
        <time>2021-07-31T09:57:23.000Z</time>
      </trkpt>
      <trkpt lat="49.7812" lon="4.84079">
        <ele>193</ele>
        <time>2021-07-31T09:57:24.000Z</time>
      </trkpt>
      <trkpt lat="49.78117" lon="4.84077">
        <ele>194</ele>
        <time>2021-07-31T09:57:25.000Z</time>
      </trkpt>
      <trkpt lat="49.78113" lon="4.84075">
        <ele>194</ele>
        <time>2021-07-31T09:57:26.000Z</time>
      </trkpt>
      <trkpt lat="49.78109" lon="4.84073">
        <ele>194</ele>
        <time>2021-07-31T09:57:27.000Z</time>
      </trkpt>
      <trkpt lat="49.78105" lon="4.8407">
        <ele>194</ele>
        <time>2021-07-31T09:57:28.000Z</time>
      </trkpt>
      <trkpt lat="49.78102" lon="4.84067">
        <ele>194</ele>
        <time>2021-07-31T09:57:29.000Z</time>
      </trkpt>
      <trkpt lat="49.78099" lon="4.84065">
        <ele>194</ele>
        <time>2021-07-31T09:57:30.000Z</time>
      </trkpt>
      <trkpt lat="49.78097" lon="4.84063">
        <ele>194</ele>
        <time>2021-07-31T09:57:31.000Z</time>
      </trkpt>
      <trkpt lat="49.78094" lon="4.84062">
        <ele>194</ele>
        <time>2021-07-31T09:57:32.000Z</time>
      </trkpt>
      <trkpt lat="49.7809" lon="4.8406">
        <ele>194</ele>
        <time>2021-07-31T09:57:33.000Z</time>
      </trkpt>
      <trkpt lat="49.78086" lon="4.84058">
        <ele>195</ele>
        <time>2021-07-31T09:57:34.000Z</time>
      </trkpt>
      <trkpt lat="49.78082" lon="4.84056">
        <ele>195</ele>
        <time>2021-07-31T09:57:35.000Z</time>
      </trkpt>
      <trkpt lat="49.78078" lon="4.84053">
        <ele>195</ele>
        <time>2021-07-31T09:57:36.000Z</time>
      </trkpt>
      <trkpt lat="49.78075" lon="4.84051">
        <ele>195</ele>
        <time>2021-07-31T09:57:37.000Z</time>
      </trkpt>
      <trkpt lat="49.78071" lon="4.84049">
        <ele>195</ele>
        <time>2021-07-31T09:57:38.000Z</time>
      </trkpt>
      <trkpt lat="49.78067" lon="4.84047">
        <ele>195</ele>
        <time>2021-07-31T09:57:39.000Z</time>
      </trkpt>
      <trkpt lat="49.78063" lon="4.84044">
        <ele>196</ele>
        <time>2021-07-31T09:57:40.000Z</time>
      </trkpt>
      <trkpt lat="49.78059" lon="4.84042">
        <ele>196</ele>
        <time>2021-07-31T09:57:41.000Z</time>
      </trkpt>
      <trkpt lat="49.78055" lon="4.8404">
        <ele>196</ele>
        <time>2021-07-31T09:57:42.000Z</time>
      </trkpt>
      <trkpt lat="49.78052" lon="4.84038">
        <ele>196</ele>
        <time>2021-07-31T09:57:43.000Z</time>
      </trkpt>
      <trkpt lat="49.78049" lon="4.84036">
        <ele>196</ele>
        <time>2021-07-31T09:57:44.000Z</time>
      </trkpt>
      <trkpt lat="49.78045" lon="4.84034">
        <ele>196</ele>
        <time>2021-07-31T09:57:45.000Z</time>
      </trkpt>
      <trkpt lat="49.78042" lon="4.84032">
        <ele>197</ele>
        <time>2021-07-31T09:57:46.000Z</time>
      </trkpt>
      <trkpt lat="49.78038" lon="4.8403">
        <ele>197</ele>
        <time>2021-07-31T09:57:47.000Z</time>
      </trkpt>
      <trkpt lat="49.78034" lon="4.84028">
        <ele>197</ele>
        <time>2021-07-31T09:57:48.000Z</time>
      </trkpt>
      <trkpt lat="49.78031" lon="4.84026">
        <ele>197</ele>
        <time>2021-07-31T09:57:49.000Z</time>
      </trkpt>
      <trkpt lat="49.78027" lon="4.84023">
        <ele>197</ele>
        <time>2021-07-31T09:57:50.000Z</time>
      </trkpt>
      <trkpt lat="49.78024" lon="4.8402">
        <ele>197</ele>
        <time>2021-07-31T09:57:51.000Z</time>
      </trkpt>
      <trkpt lat="49.7802" lon="4.84017">
        <ele>198</ele>
        <time>2021-07-31T09:57:52.000Z</time>
      </trkpt>
      <trkpt lat="49.78016" lon="4.84014">
        <ele>198</ele>
        <time>2021-07-31T09:57:53.000Z</time>
      </trkpt>
      <trkpt lat="49.78012" lon="4.8401">
        <ele>198</ele>
        <time>2021-07-31T09:57:54.000Z</time>
      </trkpt>
      <trkpt lat="49.78007" lon="4.84007">
        <ele>198</ele>
        <time>2021-07-31T09:57:55.000Z</time>
      </trkpt>
      <trkpt lat="49.78003" lon="4.84003">
        <ele>198</ele>
        <time>2021-07-31T09:57:56.000Z</time>
      </trkpt>
      <trkpt lat="49.77999" lon="4.83999">
        <ele>198</ele>
        <time>2021-07-31T09:57:57.000Z</time>
      </trkpt>
      <trkpt lat="49.77995" lon="4.83995">
        <ele>198</ele>
        <time>2021-07-31T09:57:58.000Z</time>
      </trkpt>
      <trkpt lat="49.77991" lon="4.83991">
        <ele>198</ele>
        <time>2021-07-31T09:57:59.000Z</time>
      </trkpt>
      <trkpt lat="49.77988" lon="4.83986">
        <ele>198</ele>
        <time>2021-07-31T09:58:00.000Z</time>
      </trkpt>
      <trkpt lat="49.77985" lon="4.83981">
        <ele>198</ele>
        <time>2021-07-31T09:58:01.000Z</time>
      </trkpt>
      <trkpt lat="49.77982" lon="4.83977">
        <ele>198</ele>
        <time>2021-07-31T09:58:02.000Z</time>
      </trkpt>
      <trkpt lat="49.77979" lon="4.83972">
        <ele>198</ele>
        <time>2021-07-31T09:58:03.000Z</time>
      </trkpt>
      <trkpt lat="49.77975" lon="4.83967">
        <ele>198</ele>
        <time>2021-07-31T09:58:04.000Z</time>
      </trkpt>
      <trkpt lat="49.77971" lon="4.83962">
        <ele>198</ele>
        <time>2021-07-31T09:58:05.000Z</time>
      </trkpt>
      <trkpt lat="49.77967" lon="4.83957">
        <ele>198</ele>
        <time>2021-07-31T09:58:06.000Z</time>
      </trkpt>
      <trkpt lat="49.77964" lon="4.83951">
        <ele>198</ele>
        <time>2021-07-31T09:58:07.000Z</time>
      </trkpt>
      <trkpt lat="49.7796" lon="4.83946">
        <ele>198</ele>
        <time>2021-07-31T09:58:08.000Z</time>
      </trkpt>
      <trkpt lat="49.77957" lon="4.83941">
        <ele>198</ele>
        <time>2021-07-31T09:58:09.000Z</time>
      </trkpt>
      <trkpt lat="49.77953" lon="4.83937">
        <ele>198</ele>
        <time>2021-07-31T09:58:10.000Z</time>
      </trkpt>
      <trkpt lat="49.7795" lon="4.83932">
        <ele>198</ele>
        <time>2021-07-31T09:58:11.000Z</time>
      </trkpt>
      <trkpt lat="49.77946" lon="4.83927">
        <ele>198</ele>
        <time>2021-07-31T09:58:12.000Z</time>
      </trkpt>
      <trkpt lat="49.77943" lon="4.83922">
        <ele>198</ele>
        <time>2021-07-31T09:58:13.000Z</time>
      </trkpt>
      <trkpt lat="49.77939" lon="4.83917">
        <ele>198</ele>
        <time>2021-07-31T09:58:14.000Z</time>
      </trkpt>
      <trkpt lat="49.77936" lon="4.83912">
        <ele>199</ele>
        <time>2021-07-31T09:58:15.000Z</time>
      </trkpt>
      <trkpt lat="49.77932" lon="4.83907">
        <ele>199</ele>
        <time>2021-07-31T09:58:16.000Z</time>
      </trkpt>
      <trkpt lat="49.77929" lon="4.83902">
        <ele>199</ele>
        <time>2021-07-31T09:58:17.000Z</time>
      </trkpt>
      <trkpt lat="49.77925" lon="4.83897">
        <ele>199</ele>
        <time>2021-07-31T09:58:18.000Z</time>
      </trkpt>
      <trkpt lat="49.77922" lon="4.83893">
        <ele>199</ele>
        <time>2021-07-31T09:58:19.000Z</time>
      </trkpt>
      <trkpt lat="49.77918" lon="4.83888">
        <ele>199</ele>
        <time>2021-07-31T09:58:20.000Z</time>
      </trkpt>
      <trkpt lat="49.77915" lon="4.83883">
        <ele>199</ele>
        <time>2021-07-31T09:58:21.000Z</time>
      </trkpt>
      <trkpt lat="49.77911" lon="4.83878">
        <ele>199</ele>
        <time>2021-07-31T09:58:22.000Z</time>
      </trkpt>
      <trkpt lat="49.77908" lon="4.83873">
        <ele>199</ele>
        <time>2021-07-31T09:58:23.000Z</time>
      </trkpt>
      <trkpt lat="49.77905" lon="4.83869">
        <ele>200</ele>
        <time>2021-07-31T09:58:24.000Z</time>
      </trkpt>
      <trkpt lat="49.77901" lon="4.83864">
        <ele>200</ele>
        <time>2021-07-31T09:58:25.000Z</time>
      </trkpt>
      <trkpt lat="49.77898" lon="4.83859">
        <ele>200</ele>
        <time>2021-07-31T09:58:26.000Z</time>
      </trkpt>
      <trkpt lat="49.77894" lon="4.83854">
        <ele>200</ele>
        <time>2021-07-31T09:58:27.000Z</time>
      </trkpt>
      <trkpt lat="49.77891" lon="4.83849">
        <ele>200</ele>
        <time>2021-07-31T09:58:28.000Z</time>
      </trkpt>
      <trkpt lat="49.77887" lon="4.83845">
        <ele>201</ele>
        <time>2021-07-31T09:58:29.000Z</time>
      </trkpt>
      <trkpt lat="49.77884" lon="4.8384">
        <ele>201</ele>
        <time>2021-07-31T09:58:30.000Z</time>
      </trkpt>
      <trkpt lat="49.7788" lon="4.83836">
        <ele>201</ele>
        <time>2021-07-31T09:58:31.000Z</time>
      </trkpt>
      <trkpt lat="49.77877" lon="4.83832">
        <ele>201</ele>
        <time>2021-07-31T09:58:32.000Z</time>
      </trkpt>
      <trkpt lat="49.77874" lon="4.83827">
        <ele>201</ele>
        <time>2021-07-31T09:58:33.000Z</time>
      </trkpt>
      <trkpt lat="49.77871" lon="4.83823">
        <ele>201</ele>
        <time>2021-07-31T09:58:34.000Z</time>
      </trkpt>
      <trkpt lat="49.77868" lon="4.83821">
        <ele>201</ele>
        <time>2021-07-31T09:58:35.000Z</time>
      </trkpt>
      <trkpt lat="49.77865" lon="4.83821">
        <ele>201</ele>
        <time>2021-07-31T09:58:36.000Z</time>
      </trkpt>
      <trkpt lat="49.77862" lon="4.83823">
        <ele>201</ele>
        <time>2021-07-31T09:58:37.000Z</time>
      </trkpt>
      <trkpt lat="49.77859" lon="4.83824">
        <ele>201</ele>
        <time>2021-07-31T09:58:38.000Z</time>
      </trkpt>
      <trkpt lat="49.77857" lon="4.83824">
        <ele>201</ele>
        <time>2021-07-31T09:58:39.000Z</time>
      </trkpt>
      <trkpt lat="49.77855" lon="4.83823">
        <ele>201</ele>
        <time>2021-07-31T09:58:40.000Z</time>
      </trkpt>
      <trkpt lat="49.77854" lon="4.83823">
        <ele>201</ele>
        <time>2021-07-31T09:58:41.000Z</time>
      </trkpt>
      <trkpt lat="49.77853" lon="4.83822">
        <ele>201</ele>
        <time>2021-07-31T09:58:42.000Z</time>
      </trkpt>
      <trkpt lat="49.77851" lon="4.83822">
        <ele>201</ele>
        <time>2021-07-31T09:58:43.000Z</time>
      </trkpt>
      <trkpt lat="49.77848" lon="4.83822">
        <ele>201</ele>
        <time>2021-07-31T09:58:44.000Z</time>
      </trkpt>
      <trkpt lat="49.77846" lon="4.83822">
        <ele>201</ele>
        <time>2021-07-31T09:58:45.000Z</time>
      </trkpt>
      <trkpt lat="49.77844" lon="4.83822">
        <ele>201</ele>
        <time>2021-07-31T09:58:46.000Z</time>
      </trkpt>
      <trkpt lat="49.77842" lon="4.83822">
        <ele>201</ele>
        <time>2021-07-31T09:58:47.000Z</time>
      </trkpt>
      <trkpt lat="49.7784" lon="4.83821">
        <ele>202</ele>
        <time>2021-07-31T09:58:48.000Z</time>
      </trkpt>
      <trkpt lat="49.77838" lon="4.8382">
        <ele>202</ele>
        <time>2021-07-31T09:58:49.000Z</time>
      </trkpt>
      <trkpt lat="49.77836" lon="4.8382">
        <ele>202</ele>
        <time>2021-07-31T09:58:50.000Z</time>
      </trkpt>
      <trkpt lat="49.77835" lon="4.83819">
        <ele>202</ele>
        <time>2021-07-31T09:58:51.000Z</time>
      </trkpt>
      <trkpt lat="49.77833" lon="4.83819">
        <ele>202</ele>
        <time>2021-07-31T09:58:52.000Z</time>
      </trkpt>
      <trkpt lat="49.77831" lon="4.83819">
        <ele>202</ele>
        <time>2021-07-31T09:58:53.000Z</time>
      </trkpt>
      <trkpt lat="49.77828" lon="4.83818">
        <ele>203</ele>
        <time>2021-07-31T09:58:54.000Z</time>
      </trkpt>
      <trkpt lat="49.77826" lon="4.83818">
        <ele>203</ele>
        <time>2021-07-31T09:58:55.000Z</time>
      </trkpt>
      <trkpt lat="49.77823" lon="4.83818">
        <ele>203</ele>
        <time>2021-07-31T09:58:56.000Z</time>
      </trkpt>
      <trkpt lat="49.77821" lon="4.83817">
        <ele>203</ele>
        <time>2021-07-31T09:58:57.000Z</time>
      </trkpt>
      <trkpt lat="49.7782" lon="4.83817">
        <ele>204</ele>
        <time>2021-07-31T09:58:58.000Z</time>
      </trkpt>
      <trkpt lat="49.77818" lon="4.83817">
        <ele>204</ele>
        <time>2021-07-31T09:58:59.000Z</time>
      </trkpt>
      <trkpt lat="49.77817" lon="4.83816">
        <ele>204</ele>
        <time>2021-07-31T09:59:00.000Z</time>
      </trkpt>
      <trkpt lat="49.77814" lon="4.83816">
        <ele>204</ele>
        <time>2021-07-31T09:59:01.000Z</time>
      </trkpt>
      <trkpt lat="49.77812" lon="4.83816">
        <ele>204</ele>
        <time>2021-07-31T09:59:02.000Z</time>
      </trkpt>
      <trkpt lat="49.7781" lon="4.83816">
        <ele>205</ele>
        <time>2021-07-31T09:59:03.000Z</time>
      </trkpt>
      <trkpt lat="49.77808" lon="4.83815">
        <ele>205</ele>
        <time>2021-07-31T09:59:04.000Z</time>
      </trkpt>
      <trkpt lat="49.77806" lon="4.83815">
        <ele>205</ele>
        <time>2021-07-31T09:59:05.000Z</time>
      </trkpt>
      <trkpt lat="49.77805" lon="4.83814">
        <ele>206</ele>
        <time>2021-07-31T09:59:06.000Z</time>
      </trkpt>
      <trkpt lat="49.77803" lon="4.83814">
        <ele>206</ele>
        <time>2021-07-31T09:59:07.000Z</time>
      </trkpt>
      <trkpt lat="49.77802" lon="4.83813">
        <ele>206</ele>
        <time>2021-07-31T09:59:08.000Z</time>
      </trkpt>
      <trkpt lat="49.778" lon="4.83812">
        <ele>206</ele>
        <time>2021-07-31T09:59:09.000Z</time>
      </trkpt>
      <trkpt lat="49.77799" lon="4.83812">
        <ele>206</ele>
        <time>2021-07-31T09:59:10.000Z</time>
      </trkpt>
      <trkpt lat="49.77796" lon="4.83811">
        <ele>207</ele>
        <time>2021-07-31T09:59:11.000Z</time>
      </trkpt>
      <trkpt lat="49.77794" lon="4.83811">
        <ele>207</ele>
        <time>2021-07-31T09:59:12.000Z</time>
      </trkpt>
      <trkpt lat="49.77792" lon="4.8381">
        <ele>207</ele>
        <time>2021-07-31T09:59:13.000Z</time>
      </trkpt>
      <trkpt lat="49.7779" lon="4.83809">
        <ele>207</ele>
        <time>2021-07-31T09:59:14.000Z</time>
      </trkpt>
      <trkpt lat="49.77788" lon="4.83809">
        <ele>207</ele>
        <time>2021-07-31T09:59:15.000Z</time>
      </trkpt>
      <trkpt lat="49.77786" lon="4.83808">
        <ele>207</ele>
        <time>2021-07-31T09:59:16.000Z</time>
      </trkpt>
      <trkpt lat="49.77784" lon="4.83808">
        <ele>208</ele>
        <time>2021-07-31T09:59:17.000Z</time>
      </trkpt>
      <trkpt lat="49.77782" lon="4.83808">
        <ele>208</ele>
        <time>2021-07-31T09:59:18.000Z</time>
      </trkpt>
      <trkpt lat="49.7778" lon="4.83808">
        <ele>208</ele>
        <time>2021-07-31T09:59:19.000Z</time>
      </trkpt>
      <trkpt lat="49.77777" lon="4.83808">
        <ele>208</ele>
        <time>2021-07-31T09:59:20.000Z</time>
      </trkpt>
      <trkpt lat="49.77776" lon="4.83808">
        <ele>209</ele>
        <time>2021-07-31T09:59:21.000Z</time>
      </trkpt>
      <trkpt lat="49.77774" lon="4.83808">
        <ele>209</ele>
        <time>2021-07-31T09:59:22.000Z</time>
      </trkpt>
      <trkpt lat="49.77772" lon="4.83808">
        <ele>209</ele>
        <time>2021-07-31T09:59:23.000Z</time>
      </trkpt>
      <trkpt lat="49.7777" lon="4.83807">
        <ele>209</ele>
        <time>2021-07-31T09:59:24.000Z</time>
      </trkpt>
      <trkpt lat="49.77768" lon="4.83807">
        <ele>210</ele>
        <time>2021-07-31T09:59:25.000Z</time>
      </trkpt>
      <trkpt lat="49.77766" lon="4.83806">
        <ele>210</ele>
        <time>2021-07-31T09:59:26.000Z</time>
      </trkpt>
      <trkpt lat="49.77765" lon="4.83806">
        <ele>210</ele>
        <time>2021-07-31T09:59:27.000Z</time>
      </trkpt>
      <trkpt lat="49.77763" lon="4.83806">
        <ele>210</ele>
        <time>2021-07-31T09:59:28.000Z</time>
      </trkpt>
      <trkpt lat="49.77761" lon="4.83804">
        <ele>211</ele>
        <time>2021-07-31T09:59:29.000Z</time>
      </trkpt>
      <trkpt lat="49.7776" lon="4.83804">
        <ele>211</ele>
        <time>2021-07-31T09:59:30.000Z</time>
      </trkpt>
      <trkpt lat="49.77758" lon="4.83803">
        <ele>211</ele>
        <time>2021-07-31T09:59:31.000Z</time>
      </trkpt>
      <trkpt lat="49.77756" lon="4.83802">
        <ele>212</ele>
        <time>2021-07-31T09:59:32.000Z</time>
      </trkpt>
      <trkpt lat="49.77754" lon="4.83802">
        <ele>212</ele>
        <time>2021-07-31T09:59:33.000Z</time>
      </trkpt>
      <trkpt lat="49.77752" lon="4.83802">
        <ele>212</ele>
        <time>2021-07-31T09:59:34.000Z</time>
      </trkpt>
      <trkpt lat="49.7775" lon="4.83801">
        <ele>212</ele>
        <time>2021-07-31T09:59:35.000Z</time>
      </trkpt>
      <trkpt lat="49.77748" lon="4.83801">
        <ele>213</ele>
        <time>2021-07-31T09:59:36.000Z</time>
      </trkpt>
      <trkpt lat="49.77746" lon="4.83801">
        <ele>213</ele>
        <time>2021-07-31T09:59:37.000Z</time>
      </trkpt>
      <trkpt lat="49.77744" lon="4.838">
        <ele>213</ele>
        <time>2021-07-31T09:59:38.000Z</time>
      </trkpt>
      <trkpt lat="49.77742" lon="4.838">
        <ele>213</ele>
        <time>2021-07-31T09:59:39.000Z</time>
      </trkpt>
      <trkpt lat="49.77739" lon="4.83799">
        <ele>214</ele>
        <time>2021-07-31T09:59:40.000Z</time>
      </trkpt>
      <trkpt lat="49.77737" lon="4.83798">
        <ele>214</ele>
        <time>2021-07-31T09:59:41.000Z</time>
      </trkpt>
      <trkpt lat="49.77735" lon="4.83798">
        <ele>214</ele>
        <time>2021-07-31T09:59:42.000Z</time>
      </trkpt>
      <trkpt lat="49.77733" lon="4.83797">
        <ele>214</ele>
        <time>2021-07-31T09:59:43.000Z</time>
      </trkpt>
      <trkpt lat="49.77732" lon="4.83797">
        <ele>215</ele>
        <time>2021-07-31T09:59:44.000Z</time>
      </trkpt>
      <trkpt lat="49.77731" lon="4.83796">
        <ele>215</ele>
        <time>2021-07-31T09:59:45.000Z</time>
      </trkpt>
      <trkpt lat="49.77729" lon="4.83796">
        <ele>215</ele>
        <time>2021-07-31T09:59:46.000Z</time>
      </trkpt>
      <trkpt lat="49.77727" lon="4.83795">
        <ele>216</ele>
        <time>2021-07-31T09:59:47.000Z</time>
      </trkpt>
      <trkpt lat="49.77726" lon="4.83795">
        <ele>216</ele>
        <time>2021-07-31T09:59:48.000Z</time>
      </trkpt>
      <trkpt lat="49.77724" lon="4.83795">
        <ele>216</ele>
        <time>2021-07-31T09:59:49.000Z</time>
      </trkpt>
      <trkpt lat="49.77722" lon="4.83794">
        <ele>216</ele>
        <time>2021-07-31T09:59:50.000Z</time>
      </trkpt>
      <trkpt lat="49.7772" lon="4.83793">
        <ele>217</ele>
        <time>2021-07-31T09:59:51.000Z</time>
      </trkpt>
      <trkpt lat="49.77719" lon="4.83793">
        <ele>217</ele>
        <time>2021-07-31T09:59:52.000Z</time>
      </trkpt>
      <trkpt lat="49.77717" lon="4.83793">
        <ele>217</ele>
        <time>2021-07-31T09:59:53.000Z</time>
      </trkpt>
      <trkpt lat="49.77716" lon="4.83793">
        <ele>218</ele>
        <time>2021-07-31T09:59:54.000Z</time>
      </trkpt>
      <trkpt lat="49.77715" lon="4.83792">
        <ele>218</ele>
        <time>2021-07-31T09:59:55.000Z</time>
      </trkpt>
      <trkpt lat="49.77713" lon="4.83791">
        <ele>218</ele>
        <time>2021-07-31T09:59:56.000Z</time>
      </trkpt>
      <trkpt lat="49.77712" lon="4.8379">
        <ele>219</ele>
        <time>2021-07-31T09:59:57.000Z</time>
      </trkpt>
      <trkpt lat="49.7771" lon="4.8379">
        <ele>219</ele>
        <time>2021-07-31T09:59:58.000Z</time>
      </trkpt>
      <trkpt lat="49.77709" lon="4.83788">
        <ele>219</ele>
        <time>2021-07-31T09:59:59.000Z</time>
      </trkpt>
      <trkpt lat="49.77708" lon="4.83786">
        <ele>220</ele>
        <time>2021-07-31T10:00:00.000Z</time>
      </trkpt>
      <trkpt lat="49.77707" lon="4.83784">
        <ele>220</ele>
        <time>2021-07-31T10:00:01.000Z</time>
      </trkpt>
      <trkpt lat="49.77706" lon="4.8378">
        <ele>220</ele>
        <time>2021-07-31T10:00:02.000Z</time>
      </trkpt>
      <trkpt lat="49.77705" lon="4.83775">
        <ele>220</ele>
        <time>2021-07-31T10:00:03.000Z</time>
      </trkpt>
      <trkpt lat="49.77704" lon="4.83771">
        <ele>220</ele>
        <time>2021-07-31T10:00:04.000Z</time>
      </trkpt>
      <trkpt lat="49.77703" lon="4.83766">
        <ele>220</ele>
        <time>2021-07-31T10:00:05.000Z</time>
      </trkpt>
      <trkpt lat="49.77702" lon="4.83762">
        <ele>220</ele>
        <time>2021-07-31T10:00:06.000Z</time>
      </trkpt>
      <trkpt lat="49.77701" lon="4.83757">
        <ele>220</ele>
        <time>2021-07-31T10:00:07.000Z</time>
      </trkpt>
      <trkpt lat="49.777" lon="4.83754">
        <ele>220</ele>
        <time>2021-07-31T10:00:08.000Z</time>
      </trkpt>
      <trkpt lat="49.77699" lon="4.83749">
        <ele>220</ele>
        <time>2021-07-31T10:00:09.000Z</time>
      </trkpt>
      <trkpt lat="49.77698" lon="4.83746">
        <ele>221</ele>
        <time>2021-07-31T10:00:10.000Z</time>
      </trkpt>
      <trkpt lat="49.77698" lon="4.83742">
        <ele>221</ele>
        <time>2021-07-31T10:00:11.000Z</time>
      </trkpt>
      <trkpt lat="49.77698" lon="4.83739">
        <ele>221</ele>
        <time>2021-07-31T10:00:12.000Z</time>
      </trkpt>
      <trkpt lat="49.77697" lon="4.83735">
        <ele>221</ele>
        <time>2021-07-31T10:00:13.000Z</time>
      </trkpt>
      <trkpt lat="49.77697" lon="4.83731">
        <ele>222</ele>
        <time>2021-07-31T10:00:14.000Z</time>
      </trkpt>
      <trkpt lat="49.77696" lon="4.83728">
        <ele>222</ele>
        <time>2021-07-31T10:00:15.000Z</time>
      </trkpt>
      <trkpt lat="49.77694" lon="4.83725">
        <ele>222</ele>
        <time>2021-07-31T10:00:16.000Z</time>
      </trkpt>
      <trkpt lat="49.77693" lon="4.83721">
        <ele>222</ele>
        <time>2021-07-31T10:00:17.000Z</time>
      </trkpt>
      <trkpt lat="49.77693" lon="4.83718">
        <ele>222</ele>
        <time>2021-07-31T10:00:18.000Z</time>
      </trkpt>
      <trkpt lat="49.77692" lon="4.83714">
        <ele>222</ele>
        <time>2021-07-31T10:00:19.000Z</time>
      </trkpt>
      <trkpt lat="49.77691" lon="4.83709">
        <ele>223</ele>
        <time>2021-07-31T10:00:20.000Z</time>
      </trkpt>
      <trkpt lat="49.7769" lon="4.83704">
        <ele>223</ele>
        <time>2021-07-31T10:00:21.000Z</time>
      </trkpt>
      <trkpt lat="49.77689" lon="4.83699">
        <ele>223</ele>
        <time>2021-07-31T10:00:22.000Z</time>
      </trkpt>
      <trkpt lat="49.77688" lon="4.83694">
        <ele>223</ele>
        <time>2021-07-31T10:00:23.000Z</time>
      </trkpt>
      <trkpt lat="49.77687" lon="4.83689">
        <ele>223</ele>
        <time>2021-07-31T10:00:24.000Z</time>
      </trkpt>
      <trkpt lat="49.77686" lon="4.83683">
        <ele>223</ele>
        <time>2021-07-31T10:00:25.000Z</time>
      </trkpt>
      <trkpt lat="49.77685" lon="4.83678">
        <ele>224</ele>
        <time>2021-07-31T10:00:26.000Z</time>
      </trkpt>
      <trkpt lat="49.77684" lon="4.83673">
        <ele>224</ele>
        <time>2021-07-31T10:00:27.000Z</time>
      </trkpt>
      <trkpt lat="49.77683" lon="4.83668">
        <ele>224</ele>
        <time>2021-07-31T10:00:28.000Z</time>
      </trkpt>
      <trkpt lat="49.77682" lon="4.83663">
        <ele>224</ele>
        <time>2021-07-31T10:00:29.000Z</time>
      </trkpt>
      <trkpt lat="49.77681" lon="4.83658">
        <ele>224</ele>
        <time>2021-07-31T10:00:30.000Z</time>
      </trkpt>
      <trkpt lat="49.77679" lon="4.83653">
        <ele>225</ele>
        <time>2021-07-31T10:00:31.000Z</time>
      </trkpt>
      <trkpt lat="49.77677" lon="4.83648">
        <ele>225</ele>
        <time>2021-07-31T10:00:32.000Z</time>
      </trkpt>
      <trkpt lat="49.77676" lon="4.83643">
        <ele>225</ele>
        <time>2021-07-31T10:00:33.000Z</time>
      </trkpt>
      <trkpt lat="49.77674" lon="4.83638">
        <ele>225</ele>
        <time>2021-07-31T10:00:34.000Z</time>
      </trkpt>
      <trkpt lat="49.77672" lon="4.83633">
        <ele>225</ele>
        <time>2021-07-31T10:00:35.000Z</time>
      </trkpt>
      <trkpt lat="49.7767" lon="4.83628">
        <ele>225</ele>
        <time>2021-07-31T10:00:36.000Z</time>
      </trkpt>
      <trkpt lat="49.77668" lon="4.83622">
        <ele>225</ele>
        <time>2021-07-31T10:00:37.000Z</time>
      </trkpt>
      <trkpt lat="49.77666" lon="4.83617">
        <ele>225</ele>
        <time>2021-07-31T10:00:38.000Z</time>
      </trkpt>
      <trkpt lat="49.77665" lon="4.83612">
        <ele>225</ele>
        <time>2021-07-31T10:00:39.000Z</time>
      </trkpt>
      <trkpt lat="49.77664" lon="4.83608">
        <ele>225</ele>
        <time>2021-07-31T10:00:40.000Z</time>
      </trkpt>
      <trkpt lat="49.77664" lon="4.83602">
        <ele>225</ele>
        <time>2021-07-31T10:00:41.000Z</time>
      </trkpt>
      <trkpt lat="49.77663" lon="4.83598">
        <ele>225</ele>
        <time>2021-07-31T10:00:42.000Z</time>
      </trkpt>
      <trkpt lat="49.77662" lon="4.83595">
        <ele>225</ele>
        <time>2021-07-31T10:00:43.000Z</time>
      </trkpt>
      <trkpt lat="49.7766" lon="4.83592">
        <ele>225</ele>
        <time>2021-07-31T10:00:44.000Z</time>
      </trkpt>
      <trkpt lat="49.77658" lon="4.83589">
        <ele>225</ele>
        <time>2021-07-31T10:00:45.000Z</time>
      </trkpt>
      <trkpt lat="49.77656" lon="4.83585">
        <ele>225</ele>
        <time>2021-07-31T10:00:46.000Z</time>
      </trkpt>
      <trkpt lat="49.77654" lon="4.83582">
        <ele>225</ele>
        <time>2021-07-31T10:00:47.000Z</time>
      </trkpt>
      <trkpt lat="49.77653" lon="4.83579">
        <ele>225</ele>
        <time>2021-07-31T10:00:48.000Z</time>
      </trkpt>
      <trkpt lat="49.77651" lon="4.83575">
        <ele>225</ele>
        <time>2021-07-31T10:00:49.000Z</time>
      </trkpt>
      <trkpt lat="49.7765" lon="4.83572">
        <ele>225</ele>
        <time>2021-07-31T10:00:50.000Z</time>
      </trkpt>
      <trkpt lat="49.77648" lon="4.83568">
        <ele>225</ele>
        <time>2021-07-31T10:00:51.000Z</time>
      </trkpt>
      <trkpt lat="49.77646" lon="4.83564">
        <ele>225</ele>
        <time>2021-07-31T10:00:52.000Z</time>
      </trkpt>
      <trkpt lat="49.77644" lon="4.8356">
        <ele>225</ele>
        <time>2021-07-31T10:00:53.000Z</time>
      </trkpt>
      <trkpt lat="49.77642" lon="4.83557">
        <ele>225</ele>
        <time>2021-07-31T10:00:54.000Z</time>
      </trkpt>
      <trkpt lat="49.7764" lon="4.83553">
        <ele>225</ele>
        <time>2021-07-31T10:00:55.000Z</time>
      </trkpt>
      <trkpt lat="49.77637" lon="4.83549">
        <ele>225</ele>
        <time>2021-07-31T10:00:56.000Z</time>
      </trkpt>
      <trkpt lat="49.77635" lon="4.83545">
        <ele>225</ele>
        <time>2021-07-31T10:00:57.000Z</time>
      </trkpt>
      <trkpt lat="49.77633" lon="4.83541">
        <ele>225</ele>
        <time>2021-07-31T10:00:58.000Z</time>
      </trkpt>
      <trkpt lat="49.77631" lon="4.83537">
        <ele>225</ele>
        <time>2021-07-31T10:00:59.000Z</time>
      </trkpt>
      <trkpt lat="49.77629" lon="4.83534">
        <ele>225</ele>
        <time>2021-07-31T10:01:00.000Z</time>
      </trkpt>
      <trkpt lat="49.77626" lon="4.8353">
        <ele>226</ele>
        <time>2021-07-31T10:01:01.000Z</time>
      </trkpt>
      <trkpt lat="49.77624" lon="4.83526">
        <ele>226</ele>
        <time>2021-07-31T10:01:02.000Z</time>
      </trkpt>
      <trkpt lat="49.77622" lon="4.83522">
        <ele>226</ele>
        <time>2021-07-31T10:01:03.000Z</time>
      </trkpt>
      <trkpt lat="49.7762" lon="4.83519">
        <ele>226</ele>
        <time>2021-07-31T10:01:04.000Z</time>
      </trkpt>
      <trkpt lat="49.77618" lon="4.83516">
        <ele>226</ele>
        <time>2021-07-31T10:01:05.000Z</time>
      </trkpt>
      <trkpt lat="49.77616" lon="4.83514">
        <ele>226</ele>
        <time>2021-07-31T10:01:06.000Z</time>
      </trkpt>
      <trkpt lat="49.77614" lon="4.83511">
        <ele>226</ele>
        <time>2021-07-31T10:01:07.000Z</time>
      </trkpt>
      <trkpt lat="49.77613" lon="4.83509">
        <ele>226</ele>
        <time>2021-07-31T10:01:08.000Z</time>
      </trkpt>
      <trkpt lat="49.77614" lon="4.83507">
        <ele>226</ele>
        <time>2021-07-31T10:01:09.000Z</time>
      </trkpt>
      <trkpt lat="49.77616" lon="4.83505">
        <ele>226</ele>
        <time>2021-07-31T10:01:10.000Z</time>
      </trkpt>
      <trkpt lat="49.77619" lon="4.83504">
        <ele>226</ele>
        <time>2021-07-31T10:01:11.000Z</time>
      </trkpt>
      <trkpt lat="49.77623" lon="4.83505">
        <ele>226</ele>
        <time>2021-07-31T10:01:12.000Z</time>
      </trkpt>
      <trkpt lat="49.77628" lon="4.83505">
        <ele>226</ele>
        <time>2021-07-31T10:01:13.000Z</time>
      </trkpt>
      <trkpt lat="49.77632" lon="4.83503">
        <ele>226</ele>
        <time>2021-07-31T10:01:14.000Z</time>
      </trkpt>
      <trkpt lat="49.77638" lon="4.83498">
        <ele>226</ele>
        <time>2021-07-31T10:01:15.000Z</time>
      </trkpt>
      <trkpt lat="49.77643" lon="4.83491">
        <ele>226</ele>
        <time>2021-07-31T10:01:16.000Z</time>
      </trkpt>
      <trkpt lat="49.77647" lon="4.83482">
        <ele>227</ele>
        <time>2021-07-31T10:01:17.000Z</time>
      </trkpt>
      <trkpt lat="49.7765" lon="4.83473">
        <ele>227</ele>
        <time>2021-07-31T10:01:18.000Z</time>
      </trkpt>
      <trkpt lat="49.77654" lon="4.83464">
        <ele>227</ele>
        <time>2021-07-31T10:01:19.000Z</time>
      </trkpt>
      <trkpt lat="49.77657" lon="4.83455">
        <ele>227</ele>
        <time>2021-07-31T10:01:20.000Z</time>
      </trkpt>
      <trkpt lat="49.77661" lon="4.83447">
        <ele>226</ele>
        <time>2021-07-31T10:01:21.000Z</time>
      </trkpt>
      <trkpt lat="49.77666" lon="4.83441">
        <ele>226</ele>
        <time>2021-07-31T10:01:22.000Z</time>
      </trkpt>
      <trkpt lat="49.77671" lon="4.83436">
        <ele>226</ele>
        <time>2021-07-31T10:01:23.000Z</time>
      </trkpt>
      <trkpt lat="49.77676" lon="4.83431">
        <ele>226</ele>
        <time>2021-07-31T10:01:24.000Z</time>
      </trkpt>
      <trkpt lat="49.77682" lon="4.83426">
        <ele>226</ele>
        <time>2021-07-31T10:01:25.000Z</time>
      </trkpt>
      <trkpt lat="49.77688" lon="4.8342">
        <ele>225</ele>
        <time>2021-07-31T10:01:26.000Z</time>
      </trkpt>
      <trkpt lat="49.77694" lon="4.83414">
        <ele>225</ele>
        <time>2021-07-31T10:01:27.000Z</time>
      </trkpt>
      <trkpt lat="49.77701" lon="4.83408">
        <ele>224</ele>
        <time>2021-07-31T10:01:28.000Z</time>
      </trkpt>
      <trkpt lat="49.77707" lon="4.834">
        <ele>224</ele>
        <time>2021-07-31T10:01:29.000Z</time>
      </trkpt>
      <trkpt lat="49.77713" lon="4.83393">
        <ele>223</ele>
        <time>2021-07-31T10:01:30.000Z</time>
      </trkpt>
      <trkpt lat="49.77719" lon="4.83384">
        <ele>223</ele>
        <time>2021-07-31T10:01:31.000Z</time>
      </trkpt>
      <trkpt lat="49.77724" lon="4.83375">
        <ele>223</ele>
        <time>2021-07-31T10:01:32.000Z</time>
      </trkpt>
      <trkpt lat="49.77729" lon="4.83366">
        <ele>222</ele>
        <time>2021-07-31T10:01:33.000Z</time>
      </trkpt>
      <trkpt lat="49.77734" lon="4.83357">
        <ele>222</ele>
        <time>2021-07-31T10:01:34.000Z</time>
      </trkpt>
      <trkpt lat="49.77739" lon="4.83347">
        <ele>221</ele>
        <time>2021-07-31T10:01:35.000Z</time>
      </trkpt>
      <trkpt lat="49.77743" lon="4.83337">
        <ele>221</ele>
        <time>2021-07-31T10:01:36.000Z</time>
      </trkpt>
      <trkpt lat="49.77747" lon="4.83327">
        <ele>221</ele>
        <time>2021-07-31T10:01:37.000Z</time>
      </trkpt>
      <trkpt lat="49.7775" lon="4.83316">
        <ele>220</ele>
        <time>2021-07-31T10:01:38.000Z</time>
      </trkpt>
      <trkpt lat="49.77752" lon="4.83306">
        <ele>220</ele>
        <time>2021-07-31T10:01:39.000Z</time>
      </trkpt>
      <trkpt lat="49.77755" lon="4.83297">
        <ele>220</ele>
        <time>2021-07-31T10:01:40.000Z</time>
      </trkpt>
      <trkpt lat="49.77758" lon="4.83288">
        <ele>220</ele>
        <time>2021-07-31T10:01:41.000Z</time>
      </trkpt>
      <trkpt lat="49.77762" lon="4.8328">
        <ele>219</ele>
        <time>2021-07-31T10:01:42.000Z</time>
      </trkpt>
      <trkpt lat="49.77765" lon="4.83271">
        <ele>219</ele>
        <time>2021-07-31T10:01:43.000Z</time>
      </trkpt>
      <trkpt lat="49.77769" lon="4.83264">
        <ele>219</ele>
        <time>2021-07-31T10:01:44.000Z</time>
      </trkpt>
      <trkpt lat="49.77772" lon="4.83255">
        <ele>219</ele>
        <time>2021-07-31T10:01:45.000Z</time>
      </trkpt>
      <trkpt lat="49.77775" lon="4.83247">
        <ele>219</ele>
        <time>2021-07-31T10:01:46.000Z</time>
      </trkpt>
      <trkpt lat="49.77778" lon="4.83238">
        <ele>220</ele>
        <time>2021-07-31T10:01:47.000Z</time>
      </trkpt>
      <trkpt lat="49.7778" lon="4.8323">
        <ele>220</ele>
        <time>2021-07-31T10:01:48.000Z</time>
      </trkpt>
      <trkpt lat="49.77782" lon="4.83221">
        <ele>220</ele>
        <time>2021-07-31T10:01:49.000Z</time>
      </trkpt>
      <trkpt lat="49.77783" lon="4.83213">
        <ele>220</ele>
        <time>2021-07-31T10:01:50.000Z</time>
      </trkpt>
      <trkpt lat="49.77784" lon="4.83205">
        <ele>220</ele>
        <time>2021-07-31T10:01:51.000Z</time>
      </trkpt>
      <trkpt lat="49.77784" lon="4.83197">
        <ele>220</ele>
        <time>2021-07-31T10:01:52.000Z</time>
      </trkpt>
      <trkpt lat="49.77785" lon="4.83189">
        <ele>221</ele>
        <time>2021-07-31T10:01:53.000Z</time>
      </trkpt>
      <trkpt lat="49.77784" lon="4.83181">
        <ele>221</ele>
        <time>2021-07-31T10:01:54.000Z</time>
      </trkpt>
      <trkpt lat="49.77785" lon="4.83174">
        <ele>221</ele>
        <time>2021-07-31T10:01:55.000Z</time>
      </trkpt>
      <trkpt lat="49.77785" lon="4.83167">
        <ele>221</ele>
        <time>2021-07-31T10:01:56.000Z</time>
      </trkpt>
      <trkpt lat="49.77785" lon="4.8316">
        <ele>221</ele>
        <time>2021-07-31T10:01:57.000Z</time>
      </trkpt>
      <trkpt lat="49.77784" lon="4.83153">
        <ele>221</ele>
        <time>2021-07-31T10:01:58.000Z</time>
      </trkpt>
      <trkpt lat="49.77783" lon="4.83146">
        <ele>221</ele>
        <time>2021-07-31T10:01:59.000Z</time>
      </trkpt>
      <trkpt lat="49.77782" lon="4.83139">
        <ele>221</ele>
        <time>2021-07-31T10:02:00.000Z</time>
      </trkpt>
      <trkpt lat="49.77781" lon="4.83132">
        <ele>221</ele>
        <time>2021-07-31T10:02:01.000Z</time>
      </trkpt>
      <trkpt lat="49.77779" lon="4.83125">
        <ele>221</ele>
        <time>2021-07-31T10:02:02.000Z</time>
      </trkpt>
      <trkpt lat="49.77776" lon="4.83119">
        <ele>221</ele>
        <time>2021-07-31T10:02:03.000Z</time>
      </trkpt>
      <trkpt lat="49.77772" lon="4.83113">
        <ele>221</ele>
        <time>2021-07-31T10:02:04.000Z</time>
      </trkpt>
      <trkpt lat="49.77769" lon="4.83107">
        <ele>221</ele>
        <time>2021-07-31T10:02:05.000Z</time>
      </trkpt>
      <trkpt lat="49.77765" lon="4.83101">
        <ele>221</ele>
        <time>2021-07-31T10:02:06.000Z</time>
      </trkpt>
      <trkpt lat="49.7776" lon="4.83096">
        <ele>221</ele>
        <time>2021-07-31T10:02:07.000Z</time>
      </trkpt>
      <trkpt lat="49.77756" lon="4.8309">
        <ele>221</ele>
        <time>2021-07-31T10:02:08.000Z</time>
      </trkpt>
      <trkpt lat="49.77752" lon="4.83084">
        <ele>221</ele>
        <time>2021-07-31T10:02:09.000Z</time>
      </trkpt>
      <trkpt lat="49.77747" lon="4.83079">
        <ele>221</ele>
        <time>2021-07-31T10:02:10.000Z</time>
      </trkpt>
      <trkpt lat="49.77742" lon="4.83074">
        <ele>221</ele>
        <time>2021-07-31T10:02:11.000Z</time>
      </trkpt>
      <trkpt lat="49.77738" lon="4.8307">
        <ele>221</ele>
        <time>2021-07-31T10:02:12.000Z</time>
      </trkpt>
      <trkpt lat="49.77733" lon="4.83066">
        <ele>221</ele>
        <time>2021-07-31T10:02:13.000Z</time>
      </trkpt>
      <trkpt lat="49.77728" lon="4.83062">
        <ele>221</ele>
        <time>2021-07-31T10:02:14.000Z</time>
      </trkpt>
      <trkpt lat="49.77723" lon="4.83058">
        <ele>221</ele>
        <time>2021-07-31T10:02:15.000Z</time>
      </trkpt>
      <trkpt lat="49.77718" lon="4.83054">
        <ele>220</ele>
        <time>2021-07-31T10:02:16.000Z</time>
      </trkpt>
      <trkpt lat="49.77713" lon="4.83049">
        <ele>220</ele>
        <time>2021-07-31T10:02:17.000Z</time>
      </trkpt>
      <trkpt lat="49.77709" lon="4.83045">
        <ele>220</ele>
        <time>2021-07-31T10:02:18.000Z</time>
      </trkpt>
      <trkpt lat="49.77705" lon="4.83041">
        <ele>220</ele>
        <time>2021-07-31T10:02:19.000Z</time>
      </trkpt>
      <trkpt lat="49.777" lon="4.83037">
        <ele>220</ele>
        <time>2021-07-31T10:02:20.000Z</time>
      </trkpt>
      <trkpt lat="49.77695" lon="4.83033">
        <ele>220</ele>
        <time>2021-07-31T10:02:21.000Z</time>
      </trkpt>
      <trkpt lat="49.77691" lon="4.83028">
        <ele>220</ele>
        <time>2021-07-31T10:02:22.000Z</time>
      </trkpt>
      <trkpt lat="49.77686" lon="4.83022">
        <ele>219</ele>
        <time>2021-07-31T10:02:23.000Z</time>
      </trkpt>
      <trkpt lat="49.77682" lon="4.83017">
        <ele>219</ele>
        <time>2021-07-31T10:02:24.000Z</time>
      </trkpt>
      <trkpt lat="49.77679" lon="4.83011">
        <ele>219</ele>
        <time>2021-07-31T10:02:25.000Z</time>
      </trkpt>
      <trkpt lat="49.77675" lon="4.83006">
        <ele>219</ele>
        <time>2021-07-31T10:02:26.000Z</time>
      </trkpt>
      <trkpt lat="49.77672" lon="4.83001">
        <ele>219</ele>
        <time>2021-07-31T10:02:27.000Z</time>
      </trkpt>
      <trkpt lat="49.77669" lon="4.82996">
        <ele>219</ele>
        <time>2021-07-31T10:02:28.000Z</time>
      </trkpt>
      <trkpt lat="49.77667" lon="4.82991">
        <ele>219</ele>
        <time>2021-07-31T10:02:29.000Z</time>
      </trkpt>
      <trkpt lat="49.77664" lon="4.82987">
        <ele>219</ele>
        <time>2021-07-31T10:02:30.000Z</time>
      </trkpt>
      <trkpt lat="49.77661" lon="4.82982">
        <ele>219</ele>
        <time>2021-07-31T10:02:31.000Z</time>
      </trkpt>
      <trkpt lat="49.77659" lon="4.82978">
        <ele>219</ele>
        <time>2021-07-31T10:02:32.000Z</time>
      </trkpt>
      <trkpt lat="49.77656" lon="4.82973">
        <ele>219</ele>
        <time>2021-07-31T10:02:33.000Z</time>
      </trkpt>
      <trkpt lat="49.77653" lon="4.82968">
        <ele>219</ele>
        <time>2021-07-31T10:02:34.000Z</time>
      </trkpt>
      <trkpt lat="49.7765" lon="4.82963">
        <ele>219</ele>
        <time>2021-07-31T10:02:35.000Z</time>
      </trkpt>
      <trkpt lat="49.77647" lon="4.82958">
        <ele>219</ele>
        <time>2021-07-31T10:02:36.000Z</time>
      </trkpt>
      <trkpt lat="49.77643" lon="4.82952">
        <ele>219</ele>
        <time>2021-07-31T10:02:37.000Z</time>
      </trkpt>
      <trkpt lat="49.7764" lon="4.82947">
        <ele>219</ele>
        <time>2021-07-31T10:02:38.000Z</time>
      </trkpt>
      <trkpt lat="49.77636" lon="4.82941">
        <ele>219</ele>
        <time>2021-07-31T10:02:39.000Z</time>
      </trkpt>
      <trkpt lat="49.77633" lon="4.82936">
        <ele>219</ele>
        <time>2021-07-31T10:02:40.000Z</time>
      </trkpt>
      <trkpt lat="49.77629" lon="4.8293">
        <ele>220</ele>
        <time>2021-07-31T10:02:41.000Z</time>
      </trkpt>
      <trkpt lat="49.77626" lon="4.82926">
        <ele>220</ele>
        <time>2021-07-31T10:02:42.000Z</time>
      </trkpt>
      <trkpt lat="49.77623" lon="4.82921">
        <ele>220</ele>
        <time>2021-07-31T10:02:43.000Z</time>
      </trkpt>
      <trkpt lat="49.77619" lon="4.82917">
        <ele>220</ele>
        <time>2021-07-31T10:02:44.000Z</time>
      </trkpt>
      <trkpt lat="49.77616" lon="4.82912">
        <ele>220</ele>
        <time>2021-07-31T10:02:45.000Z</time>
      </trkpt>
      <trkpt lat="49.77613" lon="4.82908">
        <ele>221</ele>
        <time>2021-07-31T10:02:46.000Z</time>
      </trkpt>
      <trkpt lat="49.7761" lon="4.82904">
        <ele>221</ele>
        <time>2021-07-31T10:02:47.000Z</time>
      </trkpt>
      <trkpt lat="49.77607" lon="4.82899">
        <ele>221</ele>
        <time>2021-07-31T10:02:48.000Z</time>
      </trkpt>
      <trkpt lat="49.77604" lon="4.82895">
        <ele>221</ele>
        <time>2021-07-31T10:02:49.000Z</time>
      </trkpt>
      <trkpt lat="49.77601" lon="4.82891">
        <ele>221</ele>
        <time>2021-07-31T10:02:50.000Z</time>
      </trkpt>
      <trkpt lat="49.77598" lon="4.82887">
        <ele>221</ele>
        <time>2021-07-31T10:02:51.000Z</time>
      </trkpt>
      <trkpt lat="49.77596" lon="4.82882">
        <ele>221</ele>
        <time>2021-07-31T10:02:52.000Z</time>
      </trkpt>
      <trkpt lat="49.77593" lon="4.82877">
        <ele>222</ele>
        <time>2021-07-31T10:02:53.000Z</time>
      </trkpt>
      <trkpt lat="49.7759" lon="4.82872">
        <ele>222</ele>
        <time>2021-07-31T10:02:54.000Z</time>
      </trkpt>
      <trkpt lat="49.77587" lon="4.82867">
        <ele>222</ele>
        <time>2021-07-31T10:02:55.000Z</time>
      </trkpt>
      <trkpt lat="49.77584" lon="4.82862">
        <ele>222</ele>
        <time>2021-07-31T10:02:56.000Z</time>
      </trkpt>
      <trkpt lat="49.77582" lon="4.82856">
        <ele>222</ele>
        <time>2021-07-31T10:02:57.000Z</time>
      </trkpt>
      <trkpt lat="49.77579" lon="4.82852">
        <ele>222</ele>
        <time>2021-07-31T10:02:58.000Z</time>
      </trkpt>
      <trkpt lat="49.77577" lon="4.82846">
        <ele>222</ele>
        <time>2021-07-31T10:02:59.000Z</time>
      </trkpt>
      <trkpt lat="49.77574" lon="4.8284">
        <ele>222</ele>
        <time>2021-07-31T10:03:00.000Z</time>
      </trkpt>
      <trkpt lat="49.77572" lon="4.82834">
        <ele>223</ele>
        <time>2021-07-31T10:03:01.000Z</time>
      </trkpt>
      <trkpt lat="49.7757" lon="4.82827">
        <ele>223</ele>
        <time>2021-07-31T10:03:02.000Z</time>
      </trkpt>
      <trkpt lat="49.77567" lon="4.8282">
        <ele>223</ele>
        <time>2021-07-31T10:03:03.000Z</time>
      </trkpt>
      <trkpt lat="49.77565" lon="4.82814">
        <ele>223</ele>
        <time>2021-07-31T10:03:04.000Z</time>
      </trkpt>
      <trkpt lat="49.77563" lon="4.82808">
        <ele>223</ele>
        <time>2021-07-31T10:03:05.000Z</time>
      </trkpt>
      <trkpt lat="49.77561" lon="4.82802">
        <ele>223</ele>
        <time>2021-07-31T10:03:06.000Z</time>
      </trkpt>
      <trkpt lat="49.77559" lon="4.82796">
        <ele>223</ele>
        <time>2021-07-31T10:03:07.000Z</time>
      </trkpt>
      <trkpt lat="49.77557" lon="4.82791">
        <ele>223</ele>
        <time>2021-07-31T10:03:08.000Z</time>
      </trkpt>
      <trkpt lat="49.77554" lon="4.82785">
        <ele>223</ele>
        <time>2021-07-31T10:03:09.000Z</time>
      </trkpt>
      <trkpt lat="49.77552" lon="4.8278">
        <ele>223</ele>
        <time>2021-07-31T10:03:10.000Z</time>
      </trkpt>
      <trkpt lat="49.77549" lon="4.82775">
        <ele>223</ele>
        <time>2021-07-31T10:03:11.000Z</time>
      </trkpt>
      <trkpt lat="49.77545" lon="4.82769">
        <ele>224</ele>
        <time>2021-07-31T10:03:12.000Z</time>
      </trkpt>
      <trkpt lat="49.77543" lon="4.82764">
        <ele>224</ele>
        <time>2021-07-31T10:03:13.000Z</time>
      </trkpt>
      <trkpt lat="49.77541" lon="4.82759">
        <ele>224</ele>
        <time>2021-07-31T10:03:14.000Z</time>
      </trkpt>
      <trkpt lat="49.77538" lon="4.82753">
        <ele>224</ele>
        <time>2021-07-31T10:03:15.000Z</time>
      </trkpt>
      <trkpt lat="49.77536" lon="4.82747">
        <ele>224</ele>
        <time>2021-07-31T10:03:16.000Z</time>
      </trkpt>
      <trkpt lat="49.77533" lon="4.82742">
        <ele>224</ele>
        <time>2021-07-31T10:03:17.000Z</time>
      </trkpt>
      <trkpt lat="49.7753" lon="4.82736">
        <ele>224</ele>
        <time>2021-07-31T10:03:18.000Z</time>
      </trkpt>
      <trkpt lat="49.77528" lon="4.82731">
        <ele>225</ele>
        <time>2021-07-31T10:03:19.000Z</time>
      </trkpt>
      <trkpt lat="49.77525" lon="4.82725">
        <ele>225</ele>
        <time>2021-07-31T10:03:20.000Z</time>
      </trkpt>
      <trkpt lat="49.77523" lon="4.8272">
        <ele>225</ele>
        <time>2021-07-31T10:03:21.000Z</time>
      </trkpt>
      <trkpt lat="49.77521" lon="4.82716">
        <ele>225</ele>
        <time>2021-07-31T10:03:22.000Z</time>
      </trkpt>
      <trkpt lat="49.77518" lon="4.82711">
        <ele>225</ele>
        <time>2021-07-31T10:03:23.000Z</time>
      </trkpt>
      <trkpt lat="49.77516" lon="4.82707">
        <ele>225</ele>
        <time>2021-07-31T10:03:24.000Z</time>
      </trkpt>
      <trkpt lat="49.77514" lon="4.82703">
        <ele>225</ele>
        <time>2021-07-31T10:03:25.000Z</time>
      </trkpt>
      <trkpt lat="49.77511" lon="4.82698">
        <ele>226</ele>
        <time>2021-07-31T10:03:26.000Z</time>
      </trkpt>
      <trkpt lat="49.77509" lon="4.82693">
        <ele>226</ele>
        <time>2021-07-31T10:03:27.000Z</time>
      </trkpt>
      <trkpt lat="49.77506" lon="4.82689">
        <ele>226</ele>
        <time>2021-07-31T10:03:28.000Z</time>
      </trkpt>
      <trkpt lat="49.77504" lon="4.82685">
        <ele>226</ele>
        <time>2021-07-31T10:03:29.000Z</time>
      </trkpt>
      <trkpt lat="49.77503" lon="4.8268">
        <ele>226</ele>
        <time>2021-07-31T10:03:30.000Z</time>
      </trkpt>
      <trkpt lat="49.77502" lon="4.82677">
        <ele>226</ele>
        <time>2021-07-31T10:03:31.000Z</time>
      </trkpt>
      <trkpt lat="49.775" lon="4.82672">
        <ele>226</ele>
        <time>2021-07-31T10:03:32.000Z</time>
      </trkpt>
      <trkpt lat="49.77498" lon="4.82668">
        <ele>227</ele>
        <time>2021-07-31T10:03:33.000Z</time>
      </trkpt>
      <trkpt lat="49.77496" lon="4.82663">
        <ele>227</ele>
        <time>2021-07-31T10:03:34.000Z</time>
      </trkpt>
      <trkpt lat="49.77494" lon="4.82658">
        <ele>227</ele>
        <time>2021-07-31T10:03:35.000Z</time>
      </trkpt>
      <trkpt lat="49.77492" lon="4.82654">
        <ele>227</ele>
        <time>2021-07-31T10:03:36.000Z</time>
      </trkpt>
      <trkpt lat="49.77489" lon="4.82649">
        <ele>227</ele>
        <time>2021-07-31T10:03:37.000Z</time>
      </trkpt>
      <trkpt lat="49.77486" lon="4.82645">
        <ele>227</ele>
        <time>2021-07-31T10:03:38.000Z</time>
      </trkpt>
      <trkpt lat="49.77484" lon="4.8264">
        <ele>227</ele>
        <time>2021-07-31T10:03:39.000Z</time>
      </trkpt>
      <trkpt lat="49.77481" lon="4.82634">
        <ele>227</ele>
        <time>2021-07-31T10:03:40.000Z</time>
      </trkpt>
      <trkpt lat="49.77478" lon="4.8263">
        <ele>227</ele>
        <time>2021-07-31T10:03:41.000Z</time>
      </trkpt>
      <trkpt lat="49.77474" lon="4.82626">
        <ele>227</ele>
        <time>2021-07-31T10:03:42.000Z</time>
      </trkpt>
      <trkpt lat="49.77471" lon="4.82623">
        <ele>227</ele>
        <time>2021-07-31T10:03:43.000Z</time>
      </trkpt>
      <trkpt lat="49.77468" lon="4.8262">
        <ele>227</ele>
        <time>2021-07-31T10:03:44.000Z</time>
      </trkpt>
      <trkpt lat="49.77465" lon="4.82617">
        <ele>226</ele>
        <time>2021-07-31T10:03:45.000Z</time>
      </trkpt>
      <trkpt lat="49.77462" lon="4.82614">
        <ele>226</ele>
        <time>2021-07-31T10:03:46.000Z</time>
      </trkpt>
      <trkpt lat="49.77458" lon="4.82611">
        <ele>226</ele>
        <time>2021-07-31T10:03:47.000Z</time>
      </trkpt>
      <trkpt lat="49.77455" lon="4.82608">
        <ele>226</ele>
        <time>2021-07-31T10:03:48.000Z</time>
      </trkpt>
      <trkpt lat="49.77451" lon="4.82605">
        <ele>226</ele>
        <time>2021-07-31T10:03:49.000Z</time>
      </trkpt>
      <trkpt lat="49.77448" lon="4.82602">
        <ele>226</ele>
        <time>2021-07-31T10:03:50.000Z</time>
      </trkpt>
      <trkpt lat="49.77444" lon="4.82599">
        <ele>226</ele>
        <time>2021-07-31T10:03:51.000Z</time>
      </trkpt>
      <trkpt lat="49.77439" lon="4.82596">
        <ele>226</ele>
        <time>2021-07-31T10:03:52.000Z</time>
      </trkpt>
      <trkpt lat="49.77435" lon="4.82594">
        <ele>226</ele>
        <time>2021-07-31T10:03:53.000Z</time>
      </trkpt>
      <trkpt lat="49.77431" lon="4.82591">
        <ele>226</ele>
        <time>2021-07-31T10:03:54.000Z</time>
      </trkpt>
      <trkpt lat="49.77427" lon="4.82589">
        <ele>226</ele>
        <time>2021-07-31T10:03:55.000Z</time>
      </trkpt>
      <trkpt lat="49.77423" lon="4.82588">
        <ele>225</ele>
        <time>2021-07-31T10:03:56.000Z</time>
      </trkpt>
      <trkpt lat="49.77418" lon="4.82587">
        <ele>225</ele>
        <time>2021-07-31T10:03:57.000Z</time>
      </trkpt>
      <trkpt lat="49.77413" lon="4.82587">
        <ele>225</ele>
        <time>2021-07-31T10:03:58.000Z</time>
      </trkpt>
      <trkpt lat="49.77409" lon="4.82586">
        <ele>225</ele>
        <time>2021-07-31T10:03:59.000Z</time>
      </trkpt>
      <trkpt lat="49.77405" lon="4.82586">
        <ele>225</ele>
        <time>2021-07-31T10:04:00.000Z</time>
      </trkpt>
      <trkpt lat="49.77401" lon="4.82586">
        <ele>225</ele>
        <time>2021-07-31T10:04:01.000Z</time>
      </trkpt>
      <trkpt lat="49.77397" lon="4.82585">
        <ele>225</ele>
        <time>2021-07-31T10:04:02.000Z</time>
      </trkpt>
      <trkpt lat="49.77394" lon="4.82583">
        <ele>225</ele>
        <time>2021-07-31T10:04:03.000Z</time>
      </trkpt>
      <trkpt lat="49.7739" lon="4.82581">
        <ele>225</ele>
        <time>2021-07-31T10:04:04.000Z</time>
      </trkpt>
      <trkpt lat="49.77386" lon="4.8258">
        <ele>225</ele>
        <time>2021-07-31T10:04:05.000Z</time>
      </trkpt>
      <trkpt lat="49.77382" lon="4.82578">
        <ele>225</ele>
        <time>2021-07-31T10:04:06.000Z</time>
      </trkpt>
      <trkpt lat="49.77378" lon="4.82577">
        <ele>225</ele>
        <time>2021-07-31T10:04:07.000Z</time>
      </trkpt>
      <trkpt lat="49.77374" lon="4.82575">
        <ele>225</ele>
        <time>2021-07-31T10:04:08.000Z</time>
      </trkpt>
      <trkpt lat="49.7737" lon="4.82574">
        <ele>225</ele>
        <time>2021-07-31T10:04:09.000Z</time>
      </trkpt>
      <trkpt lat="49.77366" lon="4.82572">
        <ele>225</ele>
        <time>2021-07-31T10:04:10.000Z</time>
      </trkpt>
      <trkpt lat="49.77363" lon="4.82571">
        <ele>225</ele>
        <time>2021-07-31T10:04:11.000Z</time>
      </trkpt>
      <trkpt lat="49.77359" lon="4.82571">
        <ele>226</ele>
        <time>2021-07-31T10:04:12.000Z</time>
      </trkpt>
      <trkpt lat="49.77356" lon="4.82573">
        <ele>226</ele>
        <time>2021-07-31T10:04:13.000Z</time>
      </trkpt>
      <trkpt lat="49.77352" lon="4.82575">
        <ele>226</ele>
        <time>2021-07-31T10:04:14.000Z</time>
      </trkpt>
      <trkpt lat="49.77349" lon="4.82578">
        <ele>226</ele>
        <time>2021-07-31T10:04:15.000Z</time>
      </trkpt>
      <trkpt lat="49.77346" lon="4.82581">
        <ele>226</ele>
        <time>2021-07-31T10:04:16.000Z</time>
      </trkpt>
      <trkpt lat="49.77342" lon="4.82584">
        <ele>227</ele>
        <time>2021-07-31T10:04:17.000Z</time>
      </trkpt>
      <trkpt lat="49.77339" lon="4.82586">
        <ele>227</ele>
        <time>2021-07-31T10:04:18.000Z</time>
      </trkpt>
      <trkpt lat="49.77337" lon="4.82588">
        <ele>227</ele>
        <time>2021-07-31T10:04:19.000Z</time>
      </trkpt>
      <trkpt lat="49.77335" lon="4.82591">
        <ele>227</ele>
        <time>2021-07-31T10:04:20.000Z</time>
      </trkpt>
      <trkpt lat="49.77333" lon="4.82593">
        <ele>228</ele>
        <time>2021-07-31T10:04:21.000Z</time>
      </trkpt>
      <trkpt lat="49.77331" lon="4.82595">
        <ele>228</ele>
        <time>2021-07-31T10:04:22.000Z</time>
      </trkpt>
      <trkpt lat="49.7733" lon="4.82598">
        <ele>228</ele>
        <time>2021-07-31T10:04:23.000Z</time>
      </trkpt>
      <trkpt lat="49.77329" lon="4.82601">
        <ele>228</ele>
        <time>2021-07-31T10:04:24.000Z</time>
      </trkpt>
      <trkpt lat="49.77328" lon="4.82603">
        <ele>229</ele>
        <time>2021-07-31T10:04:25.000Z</time>
      </trkpt>
      <trkpt lat="49.77328" lon="4.82605">
        <ele>229</ele>
        <time>2021-07-31T10:04:26.000Z</time>
      </trkpt>
      <trkpt lat="49.77329" lon="4.82606">
        <ele>229</ele>
        <time>2021-07-31T10:04:27.000Z</time>
      </trkpt>
      <trkpt lat="49.7733" lon="4.82606">
        <ele>230</ele>
        <time>2021-07-31T10:04:28.000Z</time>
      </trkpt>
      <trkpt lat="49.77332" lon="4.82607">
        <ele>230</ele>
        <time>2021-07-31T10:04:29.000Z</time>
      </trkpt>
      <trkpt lat="49.77334" lon="4.82607">
        <ele>230</ele>
        <time>2021-07-31T10:04:30.000Z</time>
      </trkpt>
      <trkpt lat="49.77336" lon="4.82607">
        <ele>231</ele>
        <time>2021-07-31T10:04:31.000Z</time>
      </trkpt>
      <trkpt lat="49.77337" lon="4.82607">
        <ele>231</ele>
        <time>2021-07-31T10:04:32.000Z</time>
      </trkpt>
      <trkpt lat="49.77339" lon="4.82607">
        <ele>231</ele>
        <time>2021-07-31T10:04:33.000Z</time>
      </trkpt>
      <trkpt lat="49.77341" lon="4.82606">
        <ele>232</ele>
        <time>2021-07-31T10:04:34.000Z</time>
      </trkpt>
      <trkpt lat="49.77343" lon="4.82605">
        <ele>232</ele>
        <time>2021-07-31T10:04:35.000Z</time>
      </trkpt>
      <trkpt lat="49.77345" lon="4.82605">
        <ele>232</ele>
        <time>2021-07-31T10:04:36.000Z</time>
      </trkpt>
      <trkpt lat="49.77347" lon="4.82603">
        <ele>233</ele>
        <time>2021-07-31T10:04:37.000Z</time>
      </trkpt>
      <trkpt lat="49.77349" lon="4.82603">
        <ele>233</ele>
        <time>2021-07-31T10:04:38.000Z</time>
      </trkpt>
      <trkpt lat="49.77352" lon="4.82603">
        <ele>233</ele>
        <time>2021-07-31T10:04:39.000Z</time>
      </trkpt>
      <trkpt lat="49.77354" lon="4.82602">
        <ele>233</ele>
        <time>2021-07-31T10:04:40.000Z</time>
      </trkpt>
      <trkpt lat="49.77356" lon="4.82602">
        <ele>234</ele>
        <time>2021-07-31T10:04:41.000Z</time>
      </trkpt>
      <trkpt lat="49.77359" lon="4.82603">
        <ele>234</ele>
        <time>2021-07-31T10:04:42.000Z</time>
      </trkpt>
      <trkpt lat="49.77361" lon="4.82605">
        <ele>234</ele>
        <time>2021-07-31T10:04:43.000Z</time>
      </trkpt>
      <trkpt lat="49.77363" lon="4.82606">
        <ele>234</ele>
        <time>2021-07-31T10:04:44.000Z</time>
      </trkpt>
      <trkpt lat="49.77365" lon="4.82608">
        <ele>235</ele>
        <time>2021-07-31T10:04:45.000Z</time>
      </trkpt>
      <trkpt lat="49.77366" lon="4.82611">
        <ele>235</ele>
        <time>2021-07-31T10:04:46.000Z</time>
      </trkpt>
      <trkpt lat="49.77369" lon="4.82613">
        <ele>235</ele>
        <time>2021-07-31T10:04:47.000Z</time>
      </trkpt>
      <trkpt lat="49.77371" lon="4.82615">
        <ele>235</ele>
        <time>2021-07-31T10:04:48.000Z</time>
      </trkpt>
      <trkpt lat="49.77371" lon="4.82618">
        <ele>235</ele>
        <time>2021-07-31T10:04:49.000Z</time>
      </trkpt>
      <trkpt lat="49.77372" lon="4.8262">
        <ele>235</ele>
        <time>2021-07-31T10:04:50.000Z</time>
      </trkpt>
      <trkpt lat="49.77372" lon="4.82623">
        <ele>236</ele>
        <time>2021-07-31T10:04:51.000Z</time>
      </trkpt>
      <trkpt lat="49.77372" lon="4.82626">
        <ele>236</ele>
        <time>2021-07-31T10:04:52.000Z</time>
      </trkpt>
      <trkpt lat="49.77373" lon="4.82629">
        <ele>236</ele>
        <time>2021-07-31T10:04:53.000Z</time>
      </trkpt>
      <trkpt lat="49.77374" lon="4.82633">
        <ele>237</ele>
        <time>2021-07-31T10:04:54.000Z</time>
      </trkpt>
      <trkpt lat="49.77375" lon="4.82637">
        <ele>237</ele>
        <time>2021-07-31T10:04:55.000Z</time>
      </trkpt>
      <trkpt lat="49.77376" lon="4.8264">
        <ele>237</ele>
        <time>2021-07-31T10:04:56.000Z</time>
      </trkpt>
      <trkpt lat="49.77377" lon="4.82644">
        <ele>237</ele>
        <time>2021-07-31T10:04:57.000Z</time>
      </trkpt>
      <trkpt lat="49.77377" lon="4.82648">
        <ele>238</ele>
        <time>2021-07-31T10:04:58.000Z</time>
      </trkpt>
      <trkpt lat="49.77378" lon="4.82652">
        <ele>238</ele>
        <time>2021-07-31T10:04:59.000Z</time>
      </trkpt>
      <trkpt lat="49.77378" lon="4.82655">
        <ele>238</ele>
        <time>2021-07-31T10:05:00.000Z</time>
      </trkpt>
      <trkpt lat="49.77378" lon="4.82658">
        <ele>238</ele>
        <time>2021-07-31T10:05:01.000Z</time>
      </trkpt>
      <trkpt lat="49.77378" lon="4.82661">
        <ele>238</ele>
        <time>2021-07-31T10:05:02.000Z</time>
      </trkpt>
      <trkpt lat="49.77378" lon="4.82665">
        <ele>239</ele>
        <time>2021-07-31T10:05:03.000Z</time>
      </trkpt>
      <trkpt lat="49.77379" lon="4.82668">
        <ele>239</ele>
        <time>2021-07-31T10:05:04.000Z</time>
      </trkpt>
      <trkpt lat="49.77379" lon="4.82672">
        <ele>239</ele>
        <time>2021-07-31T10:05:05.000Z</time>
      </trkpt>
      <trkpt lat="49.7738" lon="4.82675">
        <ele>240</ele>
        <time>2021-07-31T10:05:06.000Z</time>
      </trkpt>
      <trkpt lat="49.77381" lon="4.82679">
        <ele>240</ele>
        <time>2021-07-31T10:05:07.000Z</time>
      </trkpt>
      <trkpt lat="49.77382" lon="4.82682">
        <ele>240</ele>
        <time>2021-07-31T10:05:08.000Z</time>
      </trkpt>
      <trkpt lat="49.77383" lon="4.82686">
        <ele>240</ele>
        <time>2021-07-31T10:05:09.000Z</time>
      </trkpt>
      <trkpt lat="49.77384" lon="4.82689">
        <ele>240</ele>
        <time>2021-07-31T10:05:10.000Z</time>
      </trkpt>
      <trkpt lat="49.77386" lon="4.82692">
        <ele>240</ele>
        <time>2021-07-31T10:05:11.000Z</time>
      </trkpt>
      <trkpt lat="49.77386" lon="4.82694">
        <ele>241</ele>
        <time>2021-07-31T10:05:12.000Z</time>
      </trkpt>
      <trkpt lat="49.77387" lon="4.82697">
        <ele>241</ele>
        <time>2021-07-31T10:05:13.000Z</time>
      </trkpt>
      <trkpt lat="49.77388" lon="4.82699">
        <ele>241</ele>
        <time>2021-07-31T10:05:14.000Z</time>
      </trkpt>
      <trkpt lat="49.77389" lon="4.82702">
        <ele>241</ele>
        <time>2021-07-31T10:05:15.000Z</time>
      </trkpt>
      <trkpt lat="49.77391" lon="4.82704">
        <ele>241</ele>
        <time>2021-07-31T10:05:16.000Z</time>
      </trkpt>
      <trkpt lat="49.77393" lon="4.82707">
        <ele>241</ele>
        <time>2021-07-31T10:05:17.000Z</time>
      </trkpt>
      <trkpt lat="49.77395" lon="4.8271">
        <ele>241</ele>
        <time>2021-07-31T10:05:18.000Z</time>
      </trkpt>
      <trkpt lat="49.77396" lon="4.82713">
        <ele>241</ele>
        <time>2021-07-31T10:05:19.000Z</time>
      </trkpt>
      <trkpt lat="49.77398" lon="4.82715">
        <ele>241</ele>
        <time>2021-07-31T10:05:20.000Z</time>
      </trkpt>
      <trkpt lat="49.774" lon="4.82718">
        <ele>242</ele>
        <time>2021-07-31T10:05:21.000Z</time>
      </trkpt>
      <trkpt lat="49.77402" lon="4.82721">
        <ele>242</ele>
        <time>2021-07-31T10:05:22.000Z</time>
      </trkpt>
      <trkpt lat="49.77404" lon="4.82724">
        <ele>242</ele>
        <time>2021-07-31T10:05:23.000Z</time>
      </trkpt>
      <trkpt lat="49.77406" lon="4.82727">
        <ele>242</ele>
        <time>2021-07-31T10:05:24.000Z</time>
      </trkpt>
      <trkpt lat="49.77408" lon="4.8273">
        <ele>242</ele>
        <time>2021-07-31T10:05:25.000Z</time>
      </trkpt>
      <trkpt lat="49.7741" lon="4.82732">
        <ele>242</ele>
        <time>2021-07-31T10:05:26.000Z</time>
      </trkpt>
      <trkpt lat="49.77412" lon="4.82735">
        <ele>243</ele>
        <time>2021-07-31T10:05:27.000Z</time>
      </trkpt>
      <trkpt lat="49.77414" lon="4.82737">
        <ele>243</ele>
        <time>2021-07-31T10:05:28.000Z</time>
      </trkpt>
      <trkpt lat="49.77415" lon="4.8274">
        <ele>243</ele>
        <time>2021-07-31T10:05:29.000Z</time>
      </trkpt>
      <trkpt lat="49.77416" lon="4.82742">
        <ele>244</ele>
        <time>2021-07-31T10:05:30.000Z</time>
      </trkpt>
      <trkpt lat="49.77417" lon="4.82744">
        <ele>244</ele>
        <time>2021-07-31T10:05:31.000Z</time>
      </trkpt>
      <trkpt lat="49.77418" lon="4.82746">
        <ele>244</ele>
        <time>2021-07-31T10:05:32.000Z</time>
      </trkpt>
      <trkpt lat="49.77419" lon="4.82749">
        <ele>244</ele>
        <time>2021-07-31T10:05:33.000Z</time>
      </trkpt>
      <trkpt lat="49.77421" lon="4.82751">
        <ele>245</ele>
        <time>2021-07-31T10:05:34.000Z</time>
      </trkpt>
      <trkpt lat="49.77423" lon="4.82753">
        <ele>245</ele>
        <time>2021-07-31T10:05:35.000Z</time>
      </trkpt>
      <trkpt lat="49.77424" lon="4.82755">
        <ele>245</ele>
        <time>2021-07-31T10:05:36.000Z</time>
      </trkpt>
      <trkpt lat="49.77426" lon="4.82758">
        <ele>245</ele>
        <time>2021-07-31T10:05:37.000Z</time>
      </trkpt>
      <trkpt lat="49.77427" lon="4.82761">
        <ele>245</ele>
        <time>2021-07-31T10:05:38.000Z</time>
      </trkpt>
      <trkpt lat="49.77429" lon="4.82764">
        <ele>245</ele>
        <time>2021-07-31T10:05:39.000Z</time>
      </trkpt>
      <trkpt lat="49.77431" lon="4.82768">
        <ele>245</ele>
        <time>2021-07-31T10:05:40.000Z</time>
      </trkpt>
      <trkpt lat="49.77432" lon="4.82771">
        <ele>245</ele>
        <time>2021-07-31T10:05:41.000Z</time>
      </trkpt>
      <trkpt lat="49.77434" lon="4.82773">
        <ele>246</ele>
        <time>2021-07-31T10:05:42.000Z</time>
      </trkpt>
      <trkpt lat="49.77435" lon="4.82777">
        <ele>246</ele>
        <time>2021-07-31T10:05:43.000Z</time>
      </trkpt>
      <trkpt lat="49.77437" lon="4.82779">
        <ele>246</ele>
        <time>2021-07-31T10:05:44.000Z</time>
      </trkpt>
      <trkpt lat="49.77439" lon="4.82783">
        <ele>246</ele>
        <time>2021-07-31T10:05:45.000Z</time>
      </trkpt>
      <trkpt lat="49.77441" lon="4.82786">
        <ele>246</ele>
        <time>2021-07-31T10:05:46.000Z</time>
      </trkpt>
      <trkpt lat="49.77443" lon="4.82789">
        <ele>246</ele>
        <time>2021-07-31T10:05:47.000Z</time>
      </trkpt>
      <trkpt lat="49.77444" lon="4.82792">
        <ele>246</ele>
        <time>2021-07-31T10:05:48.000Z</time>
      </trkpt>
      <trkpt lat="49.77446" lon="4.82797">
        <ele>246</ele>
        <time>2021-07-31T10:05:49.000Z</time>
      </trkpt>
      <trkpt lat="49.77448" lon="4.828">
        <ele>246</ele>
        <time>2021-07-31T10:05:50.000Z</time>
      </trkpt>
      <trkpt lat="49.77449" lon="4.82804">
        <ele>247</ele>
        <time>2021-07-31T10:05:51.000Z</time>
      </trkpt>
      <trkpt lat="49.7745" lon="4.82808">
        <ele>247</ele>
        <time>2021-07-31T10:05:52.000Z</time>
      </trkpt>
      <trkpt lat="49.77451" lon="4.82812">
        <ele>247</ele>
        <time>2021-07-31T10:05:53.000Z</time>
      </trkpt>
      <trkpt lat="49.77453" lon="4.82816">
        <ele>247</ele>
        <time>2021-07-31T10:05:54.000Z</time>
      </trkpt>
      <trkpt lat="49.77454" lon="4.8282">
        <ele>247</ele>
        <time>2021-07-31T10:05:55.000Z</time>
      </trkpt>
      <trkpt lat="49.77456" lon="4.82824">
        <ele>248</ele>
        <time>2021-07-31T10:05:56.000Z</time>
      </trkpt>
      <trkpt lat="49.77457" lon="4.82828">
        <ele>248</ele>
        <time>2021-07-31T10:05:57.000Z</time>
      </trkpt>
      <trkpt lat="49.77459" lon="4.82833">
        <ele>248</ele>
        <time>2021-07-31T10:05:58.000Z</time>
      </trkpt>
      <trkpt lat="49.77461" lon="4.82837">
        <ele>248</ele>
        <time>2021-07-31T10:05:59.000Z</time>
      </trkpt>
      <trkpt lat="49.77462" lon="4.82842">
        <ele>248</ele>
        <time>2021-07-31T10:06:00.000Z</time>
      </trkpt>
      <trkpt lat="49.77464" lon="4.82846">
        <ele>248</ele>
        <time>2021-07-31T10:06:01.000Z</time>
      </trkpt>
      <trkpt lat="49.77465" lon="4.8285">
        <ele>249</ele>
        <time>2021-07-31T10:06:02.000Z</time>
      </trkpt>
      <trkpt lat="49.77467" lon="4.82853">
        <ele>249</ele>
        <time>2021-07-31T10:06:03.000Z</time>
      </trkpt>
      <trkpt lat="49.77469" lon="4.82857">
        <ele>249</ele>
        <time>2021-07-31T10:06:04.000Z</time>
      </trkpt>
      <trkpt lat="49.77471" lon="4.82861">
        <ele>249</ele>
        <time>2021-07-31T10:06:05.000Z</time>
      </trkpt>
      <trkpt lat="49.77474" lon="4.82865">
        <ele>249</ele>
        <time>2021-07-31T10:06:06.000Z</time>
      </trkpt>
      <trkpt lat="49.77476" lon="4.82869">
        <ele>250</ele>
        <time>2021-07-31T10:06:07.000Z</time>
      </trkpt>
      <trkpt lat="49.77479" lon="4.82873">
        <ele>250</ele>
        <time>2021-07-31T10:06:08.000Z</time>
      </trkpt>
      <trkpt lat="49.77481" lon="4.82876">
        <ele>250</ele>
        <time>2021-07-31T10:06:09.000Z</time>
      </trkpt>
      <trkpt lat="49.77483" lon="4.82879">
        <ele>250</ele>
        <time>2021-07-31T10:06:10.000Z</time>
      </trkpt>
      <trkpt lat="49.77485" lon="4.82883">
        <ele>250</ele>
        <time>2021-07-31T10:06:11.000Z</time>
      </trkpt>
      <trkpt lat="49.77487" lon="4.82886">
        <ele>250</ele>
        <time>2021-07-31T10:06:12.000Z</time>
      </trkpt>
      <trkpt lat="49.77489" lon="4.8289">
        <ele>250</ele>
        <time>2021-07-31T10:06:13.000Z</time>
      </trkpt>
      <trkpt lat="49.7749" lon="4.82894">
        <ele>250</ele>
        <time>2021-07-31T10:06:14.000Z</time>
      </trkpt>
      <trkpt lat="49.77491" lon="4.82898">
        <ele>250</ele>
        <time>2021-07-31T10:06:15.000Z</time>
      </trkpt>
      <trkpt lat="49.77491" lon="4.82901">
        <ele>250</ele>
        <time>2021-07-31T10:06:16.000Z</time>
      </trkpt>
      <trkpt lat="49.7749" lon="4.82904">
        <ele>250</ele>
        <time>2021-07-31T10:06:17.000Z</time>
      </trkpt>
      <trkpt lat="49.7749" lon="4.82906">
        <ele>250</ele>
        <time>2021-07-31T10:06:18.000Z</time>
      </trkpt>
      <trkpt lat="49.77489" lon="4.82909">
        <ele>250</ele>
        <time>2021-07-31T10:06:19.000Z</time>
      </trkpt>
      <trkpt lat="49.77488" lon="4.8291">
        <ele>250</ele>
        <time>2021-07-31T10:06:20.000Z</time>
      </trkpt>
      <trkpt lat="49.77487" lon="4.82912">
        <ele>250</ele>
        <time>2021-07-31T10:06:21.000Z</time>
      </trkpt>
      <trkpt lat="49.77486" lon="4.82914">
        <ele>251</ele>
        <time>2021-07-31T10:06:22.000Z</time>
      </trkpt>
      <trkpt lat="49.77485" lon="4.82916">
        <ele>251</ele>
        <time>2021-07-31T10:06:23.000Z</time>
      </trkpt>
      <trkpt lat="49.77485" lon="4.82918">
        <ele>251</ele>
        <time>2021-07-31T10:06:24.000Z</time>
      </trkpt>
      <trkpt lat="49.77484" lon="4.82919">
        <ele>251</ele>
        <time>2021-07-31T10:06:25.000Z</time>
      </trkpt>
      <trkpt lat="49.77483" lon="4.82921">
        <ele>251</ele>
        <time>2021-07-31T10:06:26.000Z</time>
      </trkpt>
      <trkpt lat="49.77482" lon="4.82923">
        <ele>251</ele>
        <time>2021-07-31T10:06:27.000Z</time>
      </trkpt>
      <trkpt lat="49.77481" lon="4.82926">
        <ele>251</ele>
        <time>2021-07-31T10:06:28.000Z</time>
      </trkpt>
      <trkpt lat="49.7748" lon="4.82929">
        <ele>252</ele>
        <time>2021-07-31T10:06:29.000Z</time>
      </trkpt>
      <trkpt lat="49.77478" lon="4.82933">
        <ele>252</ele>
        <time>2021-07-31T10:06:30.000Z</time>
      </trkpt>
      <trkpt lat="49.77477" lon="4.82936">
        <ele>252</ele>
        <time>2021-07-31T10:06:31.000Z</time>
      </trkpt>
      <trkpt lat="49.77476" lon="4.8294">
        <ele>253</ele>
        <time>2021-07-31T10:06:32.000Z</time>
      </trkpt>
      <trkpt lat="49.77475" lon="4.82943">
        <ele>253</ele>
        <time>2021-07-31T10:06:33.000Z</time>
      </trkpt>
      <trkpt lat="49.77473" lon="4.82947">
        <ele>253</ele>
        <time>2021-07-31T10:06:34.000Z</time>
      </trkpt>
      <trkpt lat="49.77472" lon="4.8295">
        <ele>253</ele>
        <time>2021-07-31T10:06:35.000Z</time>
      </trkpt>
      <trkpt lat="49.7747" lon="4.82953">
        <ele>253</ele>
        <time>2021-07-31T10:06:36.000Z</time>
      </trkpt>
      <trkpt lat="49.77469" lon="4.82957">
        <ele>254</ele>
        <time>2021-07-31T10:06:37.000Z</time>
      </trkpt>
      <trkpt lat="49.77467" lon="4.8296">
        <ele>254</ele>
        <time>2021-07-31T10:06:38.000Z</time>
      </trkpt>
      <trkpt lat="49.77466" lon="4.82963">
        <ele>255</ele>
        <time>2021-07-31T10:06:39.000Z</time>
      </trkpt>
      <trkpt lat="49.77465" lon="4.82966">
        <ele>255</ele>
        <time>2021-07-31T10:06:40.000Z</time>
      </trkpt>
      <trkpt lat="49.77465" lon="4.8297">
        <ele>255</ele>
        <time>2021-07-31T10:06:41.000Z</time>
      </trkpt>
      <trkpt lat="49.77464" lon="4.82973">
        <ele>256</ele>
        <time>2021-07-31T10:06:42.000Z</time>
      </trkpt>
      <trkpt lat="49.77464" lon="4.82976">
        <ele>256</ele>
        <time>2021-07-31T10:06:43.000Z</time>
      </trkpt>
      <trkpt lat="49.77462" lon="4.82978">
        <ele>257</ele>
        <time>2021-07-31T10:06:44.000Z</time>
      </trkpt>
      <trkpt lat="49.77461" lon="4.82979">
        <ele>257</ele>
        <time>2021-07-31T10:06:45.000Z</time>
      </trkpt>
      <trkpt lat="49.7746" lon="4.8298">
        <ele>258</ele>
        <time>2021-07-31T10:06:46.000Z</time>
      </trkpt>
      <trkpt lat="49.77459" lon="4.82981">
        <ele>258</ele>
        <time>2021-07-31T10:06:47.000Z</time>
      </trkpt>
      <trkpt lat="49.77458" lon="4.82984">
        <ele>258</ele>
        <time>2021-07-31T10:06:48.000Z</time>
      </trkpt>
      <trkpt lat="49.77456" lon="4.82986">
        <ele>258</ele>
        <time>2021-07-31T10:06:49.000Z</time>
      </trkpt>
      <trkpt lat="49.77454" lon="4.82987">
        <ele>259</ele>
        <time>2021-07-31T10:06:50.000Z</time>
      </trkpt>
      <trkpt lat="49.77452" lon="4.82987">
        <ele>259</ele>
        <time>2021-07-31T10:06:51.000Z</time>
      </trkpt>
      <trkpt lat="49.77449" lon="4.82986">
        <ele>259</ele>
        <time>2021-07-31T10:06:52.000Z</time>
      </trkpt>
      <trkpt lat="49.77447" lon="4.82984">
        <ele>259</ele>
        <time>2021-07-31T10:06:53.000Z</time>
      </trkpt>
      <trkpt lat="49.77444" lon="4.82982">
        <ele>259</ele>
        <time>2021-07-31T10:06:54.000Z</time>
      </trkpt>
      <trkpt lat="49.77441" lon="4.82979">
        <ele>259</ele>
        <time>2021-07-31T10:06:55.000Z</time>
      </trkpt>
      <trkpt lat="49.77437" lon="4.82976">
        <ele>259</ele>
        <time>2021-07-31T10:06:56.000Z</time>
      </trkpt>
      <trkpt lat="49.77434" lon="4.82972">
        <ele>259</ele>
        <time>2021-07-31T10:06:57.000Z</time>
      </trkpt>
      <trkpt lat="49.77431" lon="4.82969">
        <ele>259</ele>
        <time>2021-07-31T10:06:58.000Z</time>
      </trkpt>
      <trkpt lat="49.77427" lon="4.82966">
        <ele>259</ele>
        <time>2021-07-31T10:06:59.000Z</time>
      </trkpt>
      <trkpt lat="49.77423" lon="4.82962">
        <ele>259</ele>
        <time>2021-07-31T10:07:00.000Z</time>
      </trkpt>
      <trkpt lat="49.7742" lon="4.82959">
        <ele>259</ele>
        <time>2021-07-31T10:07:01.000Z</time>
      </trkpt>
      <trkpt lat="49.77416" lon="4.82955">
        <ele>259</ele>
        <time>2021-07-31T10:07:02.000Z</time>
      </trkpt>
      <trkpt lat="49.77413" lon="4.82952">
        <ele>258</ele>
        <time>2021-07-31T10:07:03.000Z</time>
      </trkpt>
      <trkpt lat="49.77409" lon="4.82948">
        <ele>258</ele>
        <time>2021-07-31T10:07:04.000Z</time>
      </trkpt>
      <trkpt lat="49.77406" lon="4.82945">
        <ele>258</ele>
        <time>2021-07-31T10:07:05.000Z</time>
      </trkpt>
      <trkpt lat="49.77402" lon="4.82942">
        <ele>258</ele>
        <time>2021-07-31T10:07:06.000Z</time>
      </trkpt>
      <trkpt lat="49.77399" lon="4.82938">
        <ele>258</ele>
        <time>2021-07-31T10:07:07.000Z</time>
      </trkpt>
      <trkpt lat="49.77396" lon="4.82936">
        <ele>258</ele>
        <time>2021-07-31T10:07:08.000Z</time>
      </trkpt>
      <trkpt lat="49.77393" lon="4.82936">
        <ele>258</ele>
        <time>2021-07-31T10:07:09.000Z</time>
      </trkpt>
      <trkpt lat="49.7739" lon="4.82938">
        <ele>257</ele>
        <time>2021-07-31T10:07:10.000Z</time>
      </trkpt>
      <trkpt lat="49.77388" lon="4.82942">
        <ele>257</ele>
        <time>2021-07-31T10:07:11.000Z</time>
      </trkpt>
      <trkpt lat="49.77387" lon="4.82945">
        <ele>257</ele>
        <time>2021-07-31T10:07:12.000Z</time>
      </trkpt>
      <trkpt lat="49.77386" lon="4.82948">
        <ele>257</ele>
        <time>2021-07-31T10:07:13.000Z</time>
      </trkpt>
      <trkpt lat="49.77385" lon="4.8295">
        <ele>257</ele>
        <time>2021-07-31T10:07:14.000Z</time>
      </trkpt>
      <trkpt lat="49.77384" lon="4.82952">
        <ele>257</ele>
        <time>2021-07-31T10:07:15.000Z</time>
      </trkpt>
      <trkpt lat="49.77382" lon="4.82954">
        <ele>257</ele>
        <time>2021-07-31T10:07:16.000Z</time>
      </trkpt>
      <trkpt lat="49.77381" lon="4.82956">
        <ele>257</ele>
        <time>2021-07-31T10:07:17.000Z</time>
      </trkpt>
      <trkpt lat="49.7738" lon="4.82958">
        <ele>257</ele>
        <time>2021-07-31T10:07:18.000Z</time>
      </trkpt>
      <trkpt lat="49.77378" lon="4.8296">
        <ele>257</ele>
        <time>2021-07-31T10:07:19.000Z</time>
      </trkpt>
      <trkpt lat="49.77377" lon="4.82962">
        <ele>257</ele>
        <time>2021-07-31T10:07:20.000Z</time>
      </trkpt>
      <trkpt lat="49.77376" lon="4.82963">
        <ele>257</ele>
        <time>2021-07-31T10:07:21.000Z</time>
      </trkpt>
      <trkpt lat="49.77374" lon="4.82965">
        <ele>257</ele>
        <time>2021-07-31T10:07:22.000Z</time>
      </trkpt>
      <trkpt lat="49.77373" lon="4.82967">
        <ele>257</ele>
        <time>2021-07-31T10:07:23.000Z</time>
      </trkpt>
      <trkpt lat="49.77372" lon="4.82969">
        <ele>258</ele>
        <time>2021-07-31T10:07:24.000Z</time>
      </trkpt>
      <trkpt lat="49.7737" lon="4.82971">
        <ele>258</ele>
        <time>2021-07-31T10:07:25.000Z</time>
      </trkpt>
      <trkpt lat="49.77369" lon="4.82973">
        <ele>258</ele>
        <time>2021-07-31T10:07:26.000Z</time>
      </trkpt>
      <trkpt lat="49.77368" lon="4.82976">
        <ele>258</ele>
        <time>2021-07-31T10:07:27.000Z</time>
      </trkpt>
      <trkpt lat="49.77367" lon="4.82978">
        <ele>258</ele>
        <time>2021-07-31T10:07:28.000Z</time>
      </trkpt>
      <trkpt lat="49.77365" lon="4.8298">
        <ele>258</ele>
        <time>2021-07-31T10:07:29.000Z</time>
      </trkpt>
      <trkpt lat="49.77364" lon="4.82982">
        <ele>259</ele>
        <time>2021-07-31T10:07:30.000Z</time>
      </trkpt>
      <trkpt lat="49.77362" lon="4.82984">
        <ele>259</ele>
        <time>2021-07-31T10:07:31.000Z</time>
      </trkpt>
      <trkpt lat="49.77362" lon="4.82985">
        <ele>259</ele>
        <time>2021-07-31T10:07:32.000Z</time>
      </trkpt>
      <trkpt lat="49.7736" lon="4.82988">
        <ele>259</ele>
        <time>2021-07-31T10:07:33.000Z</time>
      </trkpt>
      <trkpt lat="49.77359" lon="4.8299">
        <ele>259</ele>
        <time>2021-07-31T10:07:34.000Z</time>
      </trkpt>
      <trkpt lat="49.77357" lon="4.82992">
        <ele>260</ele>
        <time>2021-07-31T10:07:35.000Z</time>
      </trkpt>
      <trkpt lat="49.77356" lon="4.82994">
        <ele>260</ele>
        <time>2021-07-31T10:07:36.000Z</time>
      </trkpt>
      <trkpt lat="49.77355" lon="4.82996">
        <ele>260</ele>
        <time>2021-07-31T10:07:37.000Z</time>
      </trkpt>
      <trkpt lat="49.77354" lon="4.82998">
        <ele>260</ele>
        <time>2021-07-31T10:07:38.000Z</time>
      </trkpt>
      <trkpt lat="49.77353" lon="4.83">
        <ele>260</ele>
        <time>2021-07-31T10:07:39.000Z</time>
      </trkpt>
      <trkpt lat="49.77353" lon="4.83002">
        <ele>261</ele>
        <time>2021-07-31T10:07:40.000Z</time>
      </trkpt>
      <trkpt lat="49.77352" lon="4.83004">
        <ele>261</ele>
        <time>2021-07-31T10:07:41.000Z</time>
      </trkpt>
      <trkpt lat="49.77351" lon="4.83006">
        <ele>261</ele>
        <time>2021-07-31T10:07:42.000Z</time>
      </trkpt>
      <trkpt lat="49.7735" lon="4.83009">
        <ele>261</ele>
        <time>2021-07-31T10:07:43.000Z</time>
      </trkpt>
      <trkpt lat="49.77349" lon="4.83012">
        <ele>262</ele>
        <time>2021-07-31T10:07:44.000Z</time>
      </trkpt>
      <trkpt lat="49.77347" lon="4.83015">
        <ele>262</ele>
        <time>2021-07-31T10:07:45.000Z</time>
      </trkpt>
      <trkpt lat="49.77345" lon="4.83017">
        <ele>262</ele>
        <time>2021-07-31T10:07:46.000Z</time>
      </trkpt>
      <trkpt lat="49.77343" lon="4.83019">
        <ele>262</ele>
        <time>2021-07-31T10:07:47.000Z</time>
      </trkpt>
      <trkpt lat="49.77343" lon="4.8302">
        <ele>262</ele>
        <time>2021-07-31T10:07:48.000Z</time>
      </trkpt>
      <trkpt lat="49.77343" lon="4.83022">
        <ele>263</ele>
        <time>2021-07-31T10:07:49.000Z</time>
      </trkpt>
      <trkpt lat="49.77343" lon="4.83024">
        <ele>263</ele>
        <time>2021-07-31T10:07:50.000Z</time>
      </trkpt>
      <trkpt lat="49.77344" lon="4.83026">
        <ele>263</ele>
        <time>2021-07-31T10:07:51.000Z</time>
      </trkpt>
      <trkpt lat="49.77345" lon="4.83029">
        <ele>263</ele>
        <time>2021-07-31T10:07:52.000Z</time>
      </trkpt>
      <trkpt lat="49.77347" lon="4.83033">
        <ele>263</ele>
        <time>2021-07-31T10:07:53.000Z</time>
      </trkpt>
      <trkpt lat="49.77348" lon="4.83037">
        <ele>263</ele>
        <time>2021-07-31T10:07:54.000Z</time>
      </trkpt>
      <trkpt lat="49.7735" lon="4.8304">
        <ele>263</ele>
        <time>2021-07-31T10:07:55.000Z</time>
      </trkpt>
      <trkpt lat="49.77352" lon="4.83042">
        <ele>263</ele>
        <time>2021-07-31T10:07:56.000Z</time>
      </trkpt>
      <trkpt lat="49.77353" lon="4.83044">
        <ele>263</ele>
        <time>2021-07-31T10:07:57.000Z</time>
      </trkpt>
      <trkpt lat="49.77354" lon="4.83046">
        <ele>263</ele>
        <time>2021-07-31T10:07:58.000Z</time>
      </trkpt>
      <trkpt lat="49.77354" lon="4.83049">
        <ele>264</ele>
        <time>2021-07-31T10:07:59.000Z</time>
      </trkpt>
      <trkpt lat="49.77355" lon="4.83052">
        <ele>264</ele>
        <time>2021-07-31T10:08:00.000Z</time>
      </trkpt>
      <trkpt lat="49.77355" lon="4.83055">
        <ele>264</ele>
        <time>2021-07-31T10:08:01.000Z</time>
      </trkpt>
      <trkpt lat="49.77356" lon="4.83058">
        <ele>264</ele>
        <time>2021-07-31T10:08:02.000Z</time>
      </trkpt>
      <trkpt lat="49.77358" lon="4.83062">
        <ele>264</ele>
        <time>2021-07-31T10:08:03.000Z</time>
      </trkpt>
      <trkpt lat="49.77361" lon="4.83066">
        <ele>264</ele>
        <time>2021-07-31T10:08:04.000Z</time>
      </trkpt>
      <trkpt lat="49.77363" lon="4.8307">
        <ele>264</ele>
        <time>2021-07-31T10:08:05.000Z</time>
      </trkpt>
      <trkpt lat="49.77366" lon="4.83075">
        <ele>264</ele>
        <time>2021-07-31T10:08:06.000Z</time>
      </trkpt>
      <trkpt lat="49.77368" lon="4.8308">
        <ele>264</ele>
        <time>2021-07-31T10:08:07.000Z</time>
      </trkpt>
      <trkpt lat="49.77371" lon="4.83084">
        <ele>264</ele>
        <time>2021-07-31T10:08:08.000Z</time>
      </trkpt>
      <trkpt lat="49.77372" lon="4.83087">
        <ele>264</ele>
        <time>2021-07-31T10:08:09.000Z</time>
      </trkpt>
      <trkpt lat="49.77373" lon="4.83092">
        <ele>264</ele>
        <time>2021-07-31T10:08:10.000Z</time>
      </trkpt>
      <trkpt lat="49.77372" lon="4.83095">
        <ele>264</ele>
        <time>2021-07-31T10:08:11.000Z</time>
      </trkpt>
      <trkpt lat="49.77371" lon="4.83098">
        <ele>264</ele>
        <time>2021-07-31T10:08:12.000Z</time>
      </trkpt>
      <trkpt lat="49.77369" lon="4.83102">
        <ele>264</ele>
        <time>2021-07-31T10:08:13.000Z</time>
      </trkpt>
      <trkpt lat="49.77368" lon="4.83106">
        <ele>265</ele>
        <time>2021-07-31T10:08:14.000Z</time>
      </trkpt>
      <trkpt lat="49.77367" lon="4.83109">
        <ele>265</ele>
        <time>2021-07-31T10:08:15.000Z</time>
      </trkpt>
      <trkpt lat="49.77366" lon="4.83111">
        <ele>265</ele>
        <time>2021-07-31T10:08:16.000Z</time>
      </trkpt>
      <trkpt lat="49.77365" lon="4.83115">
        <ele>265</ele>
        <time>2021-07-31T10:08:17.000Z</time>
      </trkpt>
      <trkpt lat="49.77364" lon="4.83119">
        <ele>265</ele>
        <time>2021-07-31T10:08:18.000Z</time>
      </trkpt>
      <trkpt lat="49.77363" lon="4.83122">
        <ele>265</ele>
        <time>2021-07-31T10:08:19.000Z</time>
      </trkpt>
      <trkpt lat="49.77361" lon="4.83125">
        <ele>266</ele>
        <time>2021-07-31T10:08:20.000Z</time>
      </trkpt>
      <trkpt lat="49.7736" lon="4.83128">
        <ele>266</ele>
        <time>2021-07-31T10:08:21.000Z</time>
      </trkpt>
      <trkpt lat="49.77358" lon="4.83131">
        <ele>266</ele>
        <time>2021-07-31T10:08:22.000Z</time>
      </trkpt>
      <trkpt lat="49.77357" lon="4.83133">
        <ele>266</ele>
        <time>2021-07-31T10:08:23.000Z</time>
      </trkpt>
      <trkpt lat="49.77355" lon="4.83134">
        <ele>266</ele>
        <time>2021-07-31T10:08:24.000Z</time>
      </trkpt>
      <trkpt lat="49.77354" lon="4.83135">
        <ele>267</ele>
        <time>2021-07-31T10:08:25.000Z</time>
      </trkpt>
      <trkpt lat="49.77353" lon="4.83135">
        <ele>267</ele>
        <time>2021-07-31T10:08:26.000Z</time>
      </trkpt>
      <trkpt lat="49.77352" lon="4.83136">
        <ele>267</ele>
        <time>2021-07-31T10:08:27.000Z</time>
      </trkpt>
      <trkpt lat="49.77351" lon="4.83138">
        <ele>267</ele>
        <time>2021-07-31T10:08:28.000Z</time>
      </trkpt>
      <trkpt lat="49.7735" lon="4.8314">
        <ele>267</ele>
        <time>2021-07-31T10:08:29.000Z</time>
      </trkpt>
      <trkpt lat="49.7735" lon="4.83141">
        <ele>267</ele>
        <time>2021-07-31T10:08:30.000Z</time>
      </trkpt>
      <trkpt lat="49.7735" lon="4.83143">
        <ele>267</ele>
        <time>2021-07-31T10:08:31.000Z</time>
      </trkpt>
      <trkpt lat="49.77351" lon="4.83145">
        <ele>267</ele>
        <time>2021-07-31T10:08:32.000Z</time>
      </trkpt>
      <trkpt lat="49.77351" lon="4.83148">
        <ele>267</ele>
        <time>2021-07-31T10:08:33.000Z</time>
      </trkpt>
      <trkpt lat="49.77351" lon="4.83151">
        <ele>267</ele>
        <time>2021-07-31T10:08:34.000Z</time>
      </trkpt>
      <trkpt lat="49.77349" lon="4.83153">
        <ele>267</ele>
        <time>2021-07-31T10:08:35.000Z</time>
      </trkpt>
      <trkpt lat="49.77347" lon="4.83155">
        <ele>267</ele>
        <time>2021-07-31T10:08:36.000Z</time>
      </trkpt>
      <trkpt lat="49.77346" lon="4.83158">
        <ele>267</ele>
        <time>2021-07-31T10:08:37.000Z</time>
      </trkpt>
      <trkpt lat="49.77344" lon="4.83162">
        <ele>267</ele>
        <time>2021-07-31T10:08:38.000Z</time>
      </trkpt>
      <trkpt lat="49.77343" lon="4.83167">
        <ele>267</ele>
        <time>2021-07-31T10:08:39.000Z</time>
      </trkpt>
      <trkpt lat="49.77341" lon="4.83172">
        <ele>267</ele>
        <time>2021-07-31T10:08:40.000Z</time>
      </trkpt>
      <trkpt lat="49.7734" lon="4.83178">
        <ele>267</ele>
        <time>2021-07-31T10:08:41.000Z</time>
      </trkpt>
      <trkpt lat="49.77338" lon="4.83184">
        <ele>267</ele>
        <time>2021-07-31T10:08:42.000Z</time>
      </trkpt>
      <trkpt lat="49.77337" lon="4.8319">
        <ele>267</ele>
        <time>2021-07-31T10:08:43.000Z</time>
      </trkpt>
      <trkpt lat="49.77336" lon="4.83197">
        <ele>267</ele>
        <time>2021-07-31T10:08:44.000Z</time>
      </trkpt>
      <trkpt lat="49.77334" lon="4.83202">
        <ele>267</ele>
        <time>2021-07-31T10:08:45.000Z</time>
      </trkpt>
      <trkpt lat="49.77333" lon="4.83208">
        <ele>268</ele>
        <time>2021-07-31T10:08:46.000Z</time>
      </trkpt>
      <trkpt lat="49.77331" lon="4.83213">
        <ele>268</ele>
        <time>2021-07-31T10:08:47.000Z</time>
      </trkpt>
      <trkpt lat="49.77329" lon="4.83218">
        <ele>268</ele>
        <time>2021-07-31T10:08:48.000Z</time>
      </trkpt>
      <trkpt lat="49.77328" lon="4.83223">
        <ele>268</ele>
        <time>2021-07-31T10:08:49.000Z</time>
      </trkpt>
      <trkpt lat="49.77327" lon="4.83229">
        <ele>268</ele>
        <time>2021-07-31T10:08:50.000Z</time>
      </trkpt>
      <trkpt lat="49.77326" lon="4.83234">
        <ele>268</ele>
        <time>2021-07-31T10:08:51.000Z</time>
      </trkpt>
      <trkpt lat="49.77326" lon="4.83238">
        <ele>268</ele>
        <time>2021-07-31T10:08:52.000Z</time>
      </trkpt>
      <trkpt lat="49.77325" lon="4.83241">
        <ele>268</ele>
        <time>2021-07-31T10:08:53.000Z</time>
      </trkpt>
      <trkpt lat="49.77325" lon="4.83244">
        <ele>268</ele>
        <time>2021-07-31T10:08:54.000Z</time>
      </trkpt>
      <trkpt lat="49.77325" lon="4.83247">
        <ele>268</ele>
        <time>2021-07-31T10:08:55.000Z</time>
      </trkpt>
      <trkpt lat="49.77325" lon="4.8325">
        <ele>268</ele>
        <time>2021-07-31T10:08:56.000Z</time>
      </trkpt>
      <trkpt lat="49.77324" lon="4.83253">
        <ele>268</ele>
        <time>2021-07-31T10:08:57.000Z</time>
      </trkpt>
      <trkpt lat="49.77323" lon="4.83256">
        <ele>268</ele>
        <time>2021-07-31T10:08:58.000Z</time>
      </trkpt>
      <trkpt lat="49.77323" lon="4.8326">
        <ele>268</ele>
        <time>2021-07-31T10:08:59.000Z</time>
      </trkpt>
      <trkpt lat="49.77323" lon="4.83264">
        <ele>268</ele>
        <time>2021-07-31T10:09:00.000Z</time>
      </trkpt>
      <trkpt lat="49.77323" lon="4.83268">
        <ele>268</ele>
        <time>2021-07-31T10:09:01.000Z</time>
      </trkpt>
      <trkpt lat="49.77322" lon="4.83273">
        <ele>268</ele>
        <time>2021-07-31T10:09:02.000Z</time>
      </trkpt>
      <trkpt lat="49.77322" lon="4.83278">
        <ele>268</ele>
        <time>2021-07-31T10:09:03.000Z</time>
      </trkpt>
      <trkpt lat="49.77322" lon="4.83284">
        <ele>268</ele>
        <time>2021-07-31T10:09:04.000Z</time>
      </trkpt>
      <trkpt lat="49.77321" lon="4.8329">
        <ele>268</ele>
        <time>2021-07-31T10:09:05.000Z</time>
      </trkpt>
      <trkpt lat="49.77319" lon="4.83296">
        <ele>268</ele>
        <time>2021-07-31T10:09:06.000Z</time>
      </trkpt>
      <trkpt lat="49.77318" lon="4.83303">
        <ele>268</ele>
        <time>2021-07-31T10:09:07.000Z</time>
      </trkpt>
      <trkpt lat="49.77316" lon="4.83308">
        <ele>268</ele>
        <time>2021-07-31T10:09:08.000Z</time>
      </trkpt>
      <trkpt lat="49.77314" lon="4.83314">
        <ele>268</ele>
        <time>2021-07-31T10:09:09.000Z</time>
      </trkpt>
      <trkpt lat="49.77312" lon="4.83319">
        <ele>268</ele>
        <time>2021-07-31T10:09:10.000Z</time>
      </trkpt>
      <trkpt lat="49.77311" lon="4.83323">
        <ele>268</ele>
        <time>2021-07-31T10:09:11.000Z</time>
      </trkpt>
      <trkpt lat="49.7731" lon="4.83328">
        <ele>268</ele>
        <time>2021-07-31T10:09:12.000Z</time>
      </trkpt>
      <trkpt lat="49.77309" lon="4.83333">
        <ele>268</ele>
        <time>2021-07-31T10:09:13.000Z</time>
      </trkpt>
      <trkpt lat="49.77308" lon="4.83338">
        <ele>267</ele>
        <time>2021-07-31T10:09:14.000Z</time>
      </trkpt>
      <trkpt lat="49.77307" lon="4.83342">
        <ele>267</ele>
        <time>2021-07-31T10:09:15.000Z</time>
      </trkpt>
      <trkpt lat="49.77307" lon="4.83345">
        <ele>267</ele>
        <time>2021-07-31T10:09:16.000Z</time>
      </trkpt>
      <trkpt lat="49.77306" lon="4.8335">
        <ele>267</ele>
        <time>2021-07-31T10:09:17.000Z</time>
      </trkpt>
      <trkpt lat="49.77306" lon="4.83355">
        <ele>267</ele>
        <time>2021-07-31T10:09:18.000Z</time>
      </trkpt>
      <trkpt lat="49.77304" lon="4.8336">
        <ele>267</ele>
        <time>2021-07-31T10:09:19.000Z</time>
      </trkpt>
      <trkpt lat="49.77303" lon="4.83364">
        <ele>266</ele>
        <time>2021-07-31T10:09:20.000Z</time>
      </trkpt>
      <trkpt lat="49.77301" lon="4.83369">
        <ele>266</ele>
        <time>2021-07-31T10:09:21.000Z</time>
      </trkpt>
      <trkpt lat="49.773" lon="4.83374">
        <ele>266</ele>
        <time>2021-07-31T10:09:22.000Z</time>
      </trkpt>
      <trkpt lat="49.77299" lon="4.83379">
        <ele>266</ele>
        <time>2021-07-31T10:09:23.000Z</time>
      </trkpt>
      <trkpt lat="49.77298" lon="4.83384">
        <ele>266</ele>
        <time>2021-07-31T10:09:24.000Z</time>
      </trkpt>
      <trkpt lat="49.77297" lon="4.83389">
        <ele>266</ele>
        <time>2021-07-31T10:09:25.000Z</time>
      </trkpt>
      <trkpt lat="49.77295" lon="4.83393">
        <ele>266</ele>
        <time>2021-07-31T10:09:26.000Z</time>
      </trkpt>
      <trkpt lat="49.77294" lon="4.83397">
        <ele>265</ele>
        <time>2021-07-31T10:09:27.000Z</time>
      </trkpt>
      <trkpt lat="49.77292" lon="4.83398">
        <ele>265</ele>
        <time>2021-07-31T10:09:28.000Z</time>
      </trkpt>
      <trkpt lat="49.7729" lon="4.83399">
        <ele>265</ele>
        <time>2021-07-31T10:09:29.000Z</time>
      </trkpt>
      <trkpt lat="49.77288" lon="4.83399">
        <ele>265</ele>
        <time>2021-07-31T10:09:30.000Z</time>
      </trkpt>
      <trkpt lat="49.77287" lon="4.83397">
        <ele>265</ele>
        <time>2021-07-31T10:09:31.000Z</time>
      </trkpt>
      <trkpt lat="49.77285" lon="4.83396">
        <ele>265</ele>
        <time>2021-07-31T10:09:32.000Z</time>
      </trkpt>
      <trkpt lat="49.77284" lon="4.83394">
        <ele>265</ele>
        <time>2021-07-31T10:09:33.000Z</time>
      </trkpt>
      <trkpt lat="49.77281" lon="4.83393">
        <ele>264</ele>
        <time>2021-07-31T10:09:34.000Z</time>
      </trkpt>
      <trkpt lat="49.77278" lon="4.83391">
        <ele>264</ele>
        <time>2021-07-31T10:09:35.000Z</time>
      </trkpt>
      <trkpt lat="49.77275" lon="4.8339">
        <ele>263</ele>
        <time>2021-07-31T10:09:36.000Z</time>
      </trkpt>
      <trkpt lat="49.77272" lon="4.83388">
        <ele>263</ele>
        <time>2021-07-31T10:09:37.000Z</time>
      </trkpt>
      <trkpt lat="49.7727" lon="4.83387">
        <ele>263</ele>
        <time>2021-07-31T10:09:38.000Z</time>
      </trkpt>
      <trkpt lat="49.77267" lon="4.83385">
        <ele>263</ele>
        <time>2021-07-31T10:09:39.000Z</time>
      </trkpt>
      <trkpt lat="49.77265" lon="4.83384">
        <ele>262</ele>
        <time>2021-07-31T10:09:40.000Z</time>
      </trkpt>
      <trkpt lat="49.77263" lon="4.83383">
        <ele>262</ele>
        <time>2021-07-31T10:09:41.000Z</time>
      </trkpt>
      <trkpt lat="49.7726" lon="4.83382">
        <ele>262</ele>
        <time>2021-07-31T10:09:42.000Z</time>
      </trkpt>
      <trkpt lat="49.77257" lon="4.83381">
        <ele>262</ele>
        <time>2021-07-31T10:09:43.000Z</time>
      </trkpt>
      <trkpt lat="49.77255" lon="4.8338">
        <ele>262</ele>
        <time>2021-07-31T10:09:44.000Z</time>
      </trkpt>
      <trkpt lat="49.77253" lon="4.8338">
        <ele>261</ele>
        <time>2021-07-31T10:09:45.000Z</time>
      </trkpt>
      <trkpt lat="49.77252" lon="4.83378">
        <ele>261</ele>
        <time>2021-07-31T10:09:46.000Z</time>
      </trkpt>
      <trkpt lat="49.7725" lon="4.83377">
        <ele>261</ele>
        <time>2021-07-31T10:09:47.000Z</time>
      </trkpt>
      <trkpt lat="49.77248" lon="4.83376">
        <ele>261</ele>
        <time>2021-07-31T10:09:48.000Z</time>
      </trkpt>
      <trkpt lat="49.77246" lon="4.83375">
        <ele>261</ele>
        <time>2021-07-31T10:09:49.000Z</time>
      </trkpt>
      <trkpt lat="49.77244" lon="4.83374">
        <ele>261</ele>
        <time>2021-07-31T10:09:50.000Z</time>
      </trkpt>
      <trkpt lat="49.77242" lon="4.83374">
        <ele>261</ele>
        <time>2021-07-31T10:09:51.000Z</time>
      </trkpt>
      <trkpt lat="49.77239" lon="4.83373">
        <ele>261</ele>
        <time>2021-07-31T10:09:52.000Z</time>
      </trkpt>
      <trkpt lat="49.77237" lon="4.83372">
        <ele>261</ele>
        <time>2021-07-31T10:09:53.000Z</time>
      </trkpt>
      <trkpt lat="49.77235" lon="4.83372">
        <ele>261</ele>
        <time>2021-07-31T10:09:54.000Z</time>
      </trkpt>
      <trkpt lat="49.77233" lon="4.83372">
        <ele>261</ele>
        <time>2021-07-31T10:09:55.000Z</time>
      </trkpt>
      <trkpt lat="49.7723" lon="4.83372">
        <ele>260</ele>
        <time>2021-07-31T10:09:56.000Z</time>
      </trkpt>
      <trkpt lat="49.77228" lon="4.83371">
        <ele>260</ele>
        <time>2021-07-31T10:09:57.000Z</time>
      </trkpt>
      <trkpt lat="49.77225" lon="4.83371">
        <ele>260</ele>
        <time>2021-07-31T10:09:58.000Z</time>
      </trkpt>
      <trkpt lat="49.77223" lon="4.83371">
        <ele>260</ele>
        <time>2021-07-31T10:09:59.000Z</time>
      </trkpt>
      <trkpt lat="49.77221" lon="4.83371">
        <ele>260</ele>
        <time>2021-07-31T10:10:00.000Z</time>
      </trkpt>
      <trkpt lat="49.77219" lon="4.83371">
        <ele>260</ele>
        <time>2021-07-31T10:10:01.000Z</time>
      </trkpt>
      <trkpt lat="49.77216" lon="4.8337">
        <ele>260</ele>
        <time>2021-07-31T10:10:02.000Z</time>
      </trkpt>
      <trkpt lat="49.77214" lon="4.8337">
        <ele>261</ele>
        <time>2021-07-31T10:10:03.000Z</time>
      </trkpt>
      <trkpt lat="49.7721" lon="4.8337">
        <ele>261</ele>
        <time>2021-07-31T10:10:04.000Z</time>
      </trkpt>
      <trkpt lat="49.77208" lon="4.8337">
        <ele>261</ele>
        <time>2021-07-31T10:10:05.000Z</time>
      </trkpt>
      <trkpt lat="49.77206" lon="4.83368">
        <ele>261</ele>
        <time>2021-07-31T10:10:06.000Z</time>
      </trkpt>
      <trkpt lat="49.77204" lon="4.83368">
        <ele>261</ele>
        <time>2021-07-31T10:10:07.000Z</time>
      </trkpt>
      <trkpt lat="49.77202" lon="4.83367">
        <ele>261</ele>
        <time>2021-07-31T10:10:08.000Z</time>
      </trkpt>
      <trkpt lat="49.77199" lon="4.83368">
        <ele>261</ele>
        <time>2021-07-31T10:10:09.000Z</time>
      </trkpt>
      <trkpt lat="49.77196" lon="4.83369">
        <ele>261</ele>
        <time>2021-07-31T10:10:10.000Z</time>
      </trkpt>
      <trkpt lat="49.77193" lon="4.83369">
        <ele>261</ele>
        <time>2021-07-31T10:10:11.000Z</time>
      </trkpt>
      <trkpt lat="49.77191" lon="4.83368">
        <ele>261</ele>
        <time>2021-07-31T10:10:12.000Z</time>
      </trkpt>
      <trkpt lat="49.77188" lon="4.83368">
        <ele>261</ele>
        <time>2021-07-31T10:10:13.000Z</time>
      </trkpt>
      <trkpt lat="49.77186" lon="4.83369">
        <ele>261</ele>
        <time>2021-07-31T10:10:14.000Z</time>
      </trkpt>
      <trkpt lat="49.77183" lon="4.8337">
        <ele>261</ele>
        <time>2021-07-31T10:10:15.000Z</time>
      </trkpt>
      <trkpt lat="49.7718" lon="4.83371">
        <ele>261</ele>
        <time>2021-07-31T10:10:16.000Z</time>
      </trkpt>
      <trkpt lat="49.77177" lon="4.83372">
        <ele>261</ele>
        <time>2021-07-31T10:10:17.000Z</time>
      </trkpt>
      <trkpt lat="49.77175" lon="4.83372">
        <ele>261</ele>
        <time>2021-07-31T10:10:18.000Z</time>
      </trkpt>
      <trkpt lat="49.77173" lon="4.83373">
        <ele>261</ele>
        <time>2021-07-31T10:10:19.000Z</time>
      </trkpt>
      <trkpt lat="49.77171" lon="4.83374">
        <ele>262</ele>
        <time>2021-07-31T10:10:20.000Z</time>
      </trkpt>
      <trkpt lat="49.77169" lon="4.83376">
        <ele>262</ele>
        <time>2021-07-31T10:10:21.000Z</time>
      </trkpt>
      <trkpt lat="49.77167" lon="4.83377">
        <ele>262</ele>
        <time>2021-07-31T10:10:22.000Z</time>
      </trkpt>
      <trkpt lat="49.77165" lon="4.83378">
        <ele>262</ele>
        <time>2021-07-31T10:10:23.000Z</time>
      </trkpt>
      <trkpt lat="49.77163" lon="4.8338">
        <ele>262</ele>
        <time>2021-07-31T10:10:24.000Z</time>
      </trkpt>
      <trkpt lat="49.77161" lon="4.83381">
        <ele>263</ele>
        <time>2021-07-31T10:10:25.000Z</time>
      </trkpt>
      <trkpt lat="49.77158" lon="4.83382">
        <ele>263</ele>
        <time>2021-07-31T10:10:26.000Z</time>
      </trkpt>
      <trkpt lat="49.77155" lon="4.83384">
        <ele>263</ele>
        <time>2021-07-31T10:10:27.000Z</time>
      </trkpt>
      <trkpt lat="49.77153" lon="4.83386">
        <ele>263</ele>
        <time>2021-07-31T10:10:28.000Z</time>
      </trkpt>
      <trkpt lat="49.7715" lon="4.83388">
        <ele>264</ele>
        <time>2021-07-31T10:10:29.000Z</time>
      </trkpt>
      <trkpt lat="49.77147" lon="4.8339">
        <ele>264</ele>
        <time>2021-07-31T10:10:30.000Z</time>
      </trkpt>
      <trkpt lat="49.77145" lon="4.83391">
        <ele>264</ele>
        <time>2021-07-31T10:10:31.000Z</time>
      </trkpt>
      <trkpt lat="49.77142" lon="4.83393">
        <ele>264</ele>
        <time>2021-07-31T10:10:32.000Z</time>
      </trkpt>
      <trkpt lat="49.7714" lon="4.83394">
        <ele>264</ele>
        <time>2021-07-31T10:10:33.000Z</time>
      </trkpt>
      <trkpt lat="49.77137" lon="4.83395">
        <ele>265</ele>
        <time>2021-07-31T10:10:34.000Z</time>
      </trkpt>
      <trkpt lat="49.77135" lon="4.83396">
        <ele>265</ele>
        <time>2021-07-31T10:10:35.000Z</time>
      </trkpt>
      <trkpt lat="49.77133" lon="4.83397">
        <ele>265</ele>
        <time>2021-07-31T10:10:36.000Z</time>
      </trkpt>
      <trkpt lat="49.77131" lon="4.83398">
        <ele>265</ele>
        <time>2021-07-31T10:10:37.000Z</time>
      </trkpt>
      <trkpt lat="49.77129" lon="4.83398">
        <ele>266</ele>
        <time>2021-07-31T10:10:38.000Z</time>
      </trkpt>
      <trkpt lat="49.77127" lon="4.83399">
        <ele>266</ele>
        <time>2021-07-31T10:10:39.000Z</time>
      </trkpt>
      <trkpt lat="49.77125" lon="4.834">
        <ele>266</ele>
        <time>2021-07-31T10:10:40.000Z</time>
      </trkpt>
      <trkpt lat="49.77123" lon="4.83401">
        <ele>266</ele>
        <time>2021-07-31T10:10:41.000Z</time>
      </trkpt>
      <trkpt lat="49.77121" lon="4.83402">
        <ele>267</ele>
        <time>2021-07-31T10:10:42.000Z</time>
      </trkpt>
      <trkpt lat="49.77119" lon="4.83403">
        <ele>267</ele>
        <time>2021-07-31T10:10:43.000Z</time>
      </trkpt>
      <trkpt lat="49.77117" lon="4.83404">
        <ele>267</ele>
        <time>2021-07-31T10:10:44.000Z</time>
      </trkpt>
      <trkpt lat="49.77114" lon="4.83404">
        <ele>268</ele>
        <time>2021-07-31T10:10:45.000Z</time>
      </trkpt>
      <trkpt lat="49.77111" lon="4.83404">
        <ele>268</ele>
        <time>2021-07-31T10:10:46.000Z</time>
      </trkpt>
      <trkpt lat="49.77107" lon="4.83404">
        <ele>268</ele>
        <time>2021-07-31T10:10:47.000Z</time>
      </trkpt>
      <trkpt lat="49.77104" lon="4.83403">
        <ele>268</ele>
        <time>2021-07-31T10:10:48.000Z</time>
      </trkpt>
      <trkpt lat="49.77101" lon="4.83401">
        <ele>268</ele>
        <time>2021-07-31T10:10:49.000Z</time>
      </trkpt>
      <trkpt lat="49.77098" lon="4.834">
        <ele>268</ele>
        <time>2021-07-31T10:10:50.000Z</time>
      </trkpt>
      <trkpt lat="49.77094" lon="4.83399">
        <ele>269</ele>
        <time>2021-07-31T10:10:51.000Z</time>
      </trkpt>
      <trkpt lat="49.77091" lon="4.83397">
        <ele>269</ele>
        <time>2021-07-31T10:10:52.000Z</time>
      </trkpt>
      <trkpt lat="49.77088" lon="4.83395">
        <ele>269</ele>
        <time>2021-07-31T10:10:53.000Z</time>
      </trkpt>
      <trkpt lat="49.77085" lon="4.83395">
        <ele>269</ele>
        <time>2021-07-31T10:10:54.000Z</time>
      </trkpt>
      <trkpt lat="49.77083" lon="4.83395">
        <ele>269</ele>
        <time>2021-07-31T10:10:55.000Z</time>
      </trkpt>
      <trkpt lat="49.7708" lon="4.83394">
        <ele>269</ele>
        <time>2021-07-31T10:10:56.000Z</time>
      </trkpt>
      <trkpt lat="49.77078" lon="4.83392">
        <ele>268</ele>
        <time>2021-07-31T10:10:57.000Z</time>
      </trkpt>
      <trkpt lat="49.77075" lon="4.83391">
        <ele>268</ele>
        <time>2021-07-31T10:10:58.000Z</time>
      </trkpt>
      <trkpt lat="49.77072" lon="4.83389">
        <ele>268</ele>
        <time>2021-07-31T10:10:59.000Z</time>
      </trkpt>
      <trkpt lat="49.7707" lon="4.83387">
        <ele>268</ele>
        <time>2021-07-31T10:11:00.000Z</time>
      </trkpt>
      <trkpt lat="49.77067" lon="4.83386">
        <ele>268</ele>
        <time>2021-07-31T10:11:01.000Z</time>
      </trkpt>
      <trkpt lat="49.77064" lon="4.83384">
        <ele>268</ele>
        <time>2021-07-31T10:11:02.000Z</time>
      </trkpt>
      <trkpt lat="49.77061" lon="4.83382">
        <ele>268</ele>
        <time>2021-07-31T10:11:03.000Z</time>
      </trkpt>
      <trkpt lat="49.77057" lon="4.83381">
        <ele>268</ele>
        <time>2021-07-31T10:11:04.000Z</time>
      </trkpt>
      <trkpt lat="49.77054" lon="4.83379">
        <ele>267</ele>
        <time>2021-07-31T10:11:05.000Z</time>
      </trkpt>
      <trkpt lat="49.7705" lon="4.83378">
        <ele>267</ele>
        <time>2021-07-31T10:11:06.000Z</time>
      </trkpt>
      <trkpt lat="49.77047" lon="4.83377">
        <ele>267</ele>
        <time>2021-07-31T10:11:07.000Z</time>
      </trkpt>
      <trkpt lat="49.77043" lon="4.83375">
        <ele>267</ele>
        <time>2021-07-31T10:11:08.000Z</time>
      </trkpt>
      <trkpt lat="49.7704" lon="4.83374">
        <ele>267</ele>
        <time>2021-07-31T10:11:09.000Z</time>
      </trkpt>
      <trkpt lat="49.77036" lon="4.83373">
        <ele>267</ele>
        <time>2021-07-31T10:11:10.000Z</time>
      </trkpt>
      <trkpt lat="49.77032" lon="4.83371">
        <ele>266</ele>
        <time>2021-07-31T10:11:11.000Z</time>
      </trkpt>
      <trkpt lat="49.77028" lon="4.83369">
        <ele>266</ele>
        <time>2021-07-31T10:11:12.000Z</time>
      </trkpt>
      <trkpt lat="49.77024" lon="4.83367">
        <ele>266</ele>
        <time>2021-07-31T10:11:13.000Z</time>
      </trkpt>
      <trkpt lat="49.77021" lon="4.83365">
        <ele>266</ele>
        <time>2021-07-31T10:11:14.000Z</time>
      </trkpt>
      <trkpt lat="49.77017" lon="4.83363">
        <ele>266</ele>
        <time>2021-07-31T10:11:15.000Z</time>
      </trkpt>
      <trkpt lat="49.77014" lon="4.83361">
        <ele>266</ele>
        <time>2021-07-31T10:11:16.000Z</time>
      </trkpt>
      <trkpt lat="49.77011" lon="4.83359">
        <ele>266</ele>
        <time>2021-07-31T10:11:17.000Z</time>
      </trkpt>
      <trkpt lat="49.77008" lon="4.83356">
        <ele>266</ele>
        <time>2021-07-31T10:11:18.000Z</time>
      </trkpt>
      <trkpt lat="49.77005" lon="4.83354">
        <ele>266</ele>
        <time>2021-07-31T10:11:19.000Z</time>
      </trkpt>
      <trkpt lat="49.77002" lon="4.83352">
        <ele>266</ele>
        <time>2021-07-31T10:11:20.000Z</time>
      </trkpt>
      <trkpt lat="49.76998" lon="4.83349">
        <ele>267</ele>
        <time>2021-07-31T10:11:21.000Z</time>
      </trkpt>
      <trkpt lat="49.76995" lon="4.83345">
        <ele>267</ele>
        <time>2021-07-31T10:11:22.000Z</time>
      </trkpt>
      <trkpt lat="49.76992" lon="4.83342">
        <ele>267</ele>
        <time>2021-07-31T10:11:23.000Z</time>
      </trkpt>
      <trkpt lat="49.76989" lon="4.83338">
        <ele>267</ele>
        <time>2021-07-31T10:11:24.000Z</time>
      </trkpt>
      <trkpt lat="49.76987" lon="4.83335">
        <ele>267</ele>
        <time>2021-07-31T10:11:25.000Z</time>
      </trkpt>
      <trkpt lat="49.76985" lon="4.83331">
        <ele>267</ele>
        <time>2021-07-31T10:11:26.000Z</time>
      </trkpt>
      <trkpt lat="49.76983" lon="4.83328">
        <ele>267</ele>
        <time>2021-07-31T10:11:27.000Z</time>
      </trkpt>
      <trkpt lat="49.76981" lon="4.83324">
        <ele>267</ele>
        <time>2021-07-31T10:11:28.000Z</time>
      </trkpt>
      <trkpt lat="49.76979" lon="4.83319">
        <ele>267</ele>
        <time>2021-07-31T10:11:29.000Z</time>
      </trkpt>
      <trkpt lat="49.76978" lon="4.83315">
        <ele>267</ele>
        <time>2021-07-31T10:11:30.000Z</time>
      </trkpt>
      <trkpt lat="49.76975" lon="4.83311">
        <ele>267</ele>
        <time>2021-07-31T10:11:31.000Z</time>
      </trkpt>
      <trkpt lat="49.76974" lon="4.83307">
        <ele>266</ele>
        <time>2021-07-31T10:11:32.000Z</time>
      </trkpt>
      <trkpt lat="49.76972" lon="4.83303">
        <ele>266</ele>
        <time>2021-07-31T10:11:33.000Z</time>
      </trkpt>
      <trkpt lat="49.7697" lon="4.83299">
        <ele>266</ele>
        <time>2021-07-31T10:11:34.000Z</time>
      </trkpt>
      <trkpt lat="49.76969" lon="4.83294">
        <ele>266</ele>
        <time>2021-07-31T10:11:35.000Z</time>
      </trkpt>
      <trkpt lat="49.76967" lon="4.83289">
        <ele>266</ele>
        <time>2021-07-31T10:11:36.000Z</time>
      </trkpt>
      <trkpt lat="49.76965" lon="4.83284">
        <ele>266</ele>
        <time>2021-07-31T10:11:37.000Z</time>
      </trkpt>
      <trkpt lat="49.76964" lon="4.83279">
        <ele>266</ele>
        <time>2021-07-31T10:11:38.000Z</time>
      </trkpt>
      <trkpt lat="49.76961" lon="4.83274">
        <ele>266</ele>
        <time>2021-07-31T10:11:39.000Z</time>
      </trkpt>
      <trkpt lat="49.76959" lon="4.83269">
        <ele>266</ele>
        <time>2021-07-31T10:11:40.000Z</time>
      </trkpt>
      <trkpt lat="49.76957" lon="4.83264">
        <ele>266</ele>
        <time>2021-07-31T10:11:41.000Z</time>
      </trkpt>
      <trkpt lat="49.76954" lon="4.8326">
        <ele>266</ele>
        <time>2021-07-31T10:11:42.000Z</time>
      </trkpt>
      <trkpt lat="49.76952" lon="4.83255">
        <ele>266</ele>
        <time>2021-07-31T10:11:43.000Z</time>
      </trkpt>
      <trkpt lat="49.7695" lon="4.8325">
        <ele>266</ele>
        <time>2021-07-31T10:11:44.000Z</time>
      </trkpt>
      <trkpt lat="49.76948" lon="4.83246">
        <ele>266</ele>
        <time>2021-07-31T10:11:45.000Z</time>
      </trkpt>
      <trkpt lat="49.76946" lon="4.83242">
        <ele>266</ele>
        <time>2021-07-31T10:11:46.000Z</time>
      </trkpt>
      <trkpt lat="49.76944" lon="4.83237">
        <ele>266</ele>
        <time>2021-07-31T10:11:47.000Z</time>
      </trkpt>
      <trkpt lat="49.76941" lon="4.83232">
        <ele>267</ele>
        <time>2021-07-31T10:11:48.000Z</time>
      </trkpt>
      <trkpt lat="49.76938" lon="4.83227">
        <ele>267</ele>
        <time>2021-07-31T10:11:49.000Z</time>
      </trkpt>
      <trkpt lat="49.76935" lon="4.83222">
        <ele>267</ele>
        <time>2021-07-31T10:11:50.000Z</time>
      </trkpt>
      <trkpt lat="49.76933" lon="4.83216">
        <ele>267</ele>
        <time>2021-07-31T10:11:51.000Z</time>
      </trkpt>
      <trkpt lat="49.76931" lon="4.8321">
        <ele>267</ele>
        <time>2021-07-31T10:11:52.000Z</time>
      </trkpt>
      <trkpt lat="49.76931" lon="4.83204">
        <ele>267</ele>
        <time>2021-07-31T10:11:53.000Z</time>
      </trkpt>
      <trkpt lat="49.76931" lon="4.83198">
        <ele>267</ele>
        <time>2021-07-31T10:11:54.000Z</time>
      </trkpt>
      <trkpt lat="49.76932" lon="4.83192">
        <ele>267</ele>
        <time>2021-07-31T10:11:55.000Z</time>
      </trkpt>
      <trkpt lat="49.76934" lon="4.83187">
        <ele>267</ele>
        <time>2021-07-31T10:11:56.000Z</time>
      </trkpt>
      <trkpt lat="49.76936" lon="4.83181">
        <ele>267</ele>
        <time>2021-07-31T10:11:57.000Z</time>
      </trkpt>
      <trkpt lat="49.76938" lon="4.83176">
        <ele>267</ele>
        <time>2021-07-31T10:11:58.000Z</time>
      </trkpt>
      <trkpt lat="49.7694" lon="4.83171">
        <ele>267</ele>
        <time>2021-07-31T10:11:59.000Z</time>
      </trkpt>
      <trkpt lat="49.76942" lon="4.83166">
        <ele>267</ele>
        <time>2021-07-31T10:12:00.000Z</time>
      </trkpt>
      <trkpt lat="49.76942" lon="4.8316">
        <ele>267</ele>
        <time>2021-07-31T10:12:01.000Z</time>
      </trkpt>
      <trkpt lat="49.76942" lon="4.83154">
        <ele>268</ele>
        <time>2021-07-31T10:12:02.000Z</time>
      </trkpt>
      <trkpt lat="49.76941" lon="4.83148">
        <ele>268</ele>
        <time>2021-07-31T10:12:03.000Z</time>
      </trkpt>
      <trkpt lat="49.76939" lon="4.83142">
        <ele>268</ele>
        <time>2021-07-31T10:12:04.000Z</time>
      </trkpt>
      <trkpt lat="49.76937" lon="4.83136">
        <ele>268</ele>
        <time>2021-07-31T10:12:05.000Z</time>
      </trkpt>
      <trkpt lat="49.76934" lon="4.8313">
        <ele>268</ele>
        <time>2021-07-31T10:12:06.000Z</time>
      </trkpt>
      <trkpt lat="49.76932" lon="4.83124">
        <ele>268</ele>
        <time>2021-07-31T10:12:07.000Z</time>
      </trkpt>
      <trkpt lat="49.76929" lon="4.83117">
        <ele>268</ele>
        <time>2021-07-31T10:12:08.000Z</time>
      </trkpt>
      <trkpt lat="49.76926" lon="4.83111">
        <ele>268</ele>
        <time>2021-07-31T10:12:09.000Z</time>
      </trkpt>
      <trkpt lat="49.76923" lon="4.83105">
        <ele>268</ele>
        <time>2021-07-31T10:12:10.000Z</time>
      </trkpt>
      <trkpt lat="49.7692" lon="4.83099">
        <ele>267</ele>
        <time>2021-07-31T10:12:11.000Z</time>
      </trkpt>
      <trkpt lat="49.76917" lon="4.83093">
        <ele>267</ele>
        <time>2021-07-31T10:12:12.000Z</time>
      </trkpt>
      <trkpt lat="49.76914" lon="4.83087">
        <ele>267</ele>
        <time>2021-07-31T10:12:13.000Z</time>
      </trkpt>
      <trkpt lat="49.76911" lon="4.8308">
        <ele>267</ele>
        <time>2021-07-31T10:12:14.000Z</time>
      </trkpt>
      <trkpt lat="49.76908" lon="4.83073">
        <ele>267</ele>
        <time>2021-07-31T10:12:15.000Z</time>
      </trkpt>
      <trkpt lat="49.76905" lon="4.83066">
        <ele>267</ele>
        <time>2021-07-31T10:12:16.000Z</time>
      </trkpt>
      <trkpt lat="49.76902" lon="4.83059">
        <ele>267</ele>
        <time>2021-07-31T10:12:17.000Z</time>
      </trkpt>
      <trkpt lat="49.76899" lon="4.83052">
        <ele>267</ele>
        <time>2021-07-31T10:12:18.000Z</time>
      </trkpt>
      <trkpt lat="49.76896" lon="4.83045">
        <ele>267</ele>
        <time>2021-07-31T10:12:19.000Z</time>
      </trkpt>
      <trkpt lat="49.76893" lon="4.83038">
        <ele>267</ele>
        <time>2021-07-31T10:12:20.000Z</time>
      </trkpt>
      <trkpt lat="49.7689" lon="4.83031">
        <ele>267</ele>
        <time>2021-07-31T10:12:21.000Z</time>
      </trkpt>
      <trkpt lat="49.76887" lon="4.83025">
        <ele>267</ele>
        <time>2021-07-31T10:12:22.000Z</time>
      </trkpt>
      <trkpt lat="49.76884" lon="4.83018">
        <ele>266</ele>
        <time>2021-07-31T10:12:23.000Z</time>
      </trkpt>
      <trkpt lat="49.76881" lon="4.83012">
        <ele>266</ele>
        <time>2021-07-31T10:12:24.000Z</time>
      </trkpt>
      <trkpt lat="49.76878" lon="4.83005">
        <ele>266</ele>
        <time>2021-07-31T10:12:25.000Z</time>
      </trkpt>
      <trkpt lat="49.76875" lon="4.82999">
        <ele>266</ele>
        <time>2021-07-31T10:12:26.000Z</time>
      </trkpt>
      <trkpt lat="49.76872" lon="4.82992">
        <ele>266</ele>
        <time>2021-07-31T10:12:27.000Z</time>
      </trkpt>
      <trkpt lat="49.76869" lon="4.82985">
        <ele>266</ele>
        <time>2021-07-31T10:12:28.000Z</time>
      </trkpt>
      <trkpt lat="49.76866" lon="4.82978">
        <ele>266</ele>
        <time>2021-07-31T10:12:29.000Z</time>
      </trkpt>
      <trkpt lat="49.76863" lon="4.8297">
        <ele>265</ele>
        <time>2021-07-31T10:12:30.000Z</time>
      </trkpt>
      <trkpt lat="49.7686" lon="4.82963">
        <ele>265</ele>
        <time>2021-07-31T10:12:31.000Z</time>
      </trkpt>
      <trkpt lat="49.76857" lon="4.82955">
        <ele>265</ele>
        <time>2021-07-31T10:12:32.000Z</time>
      </trkpt>
      <trkpt lat="49.76854" lon="4.82948">
        <ele>265</ele>
        <time>2021-07-31T10:12:33.000Z</time>
      </trkpt>
      <trkpt lat="49.76852" lon="4.82941">
        <ele>265</ele>
        <time>2021-07-31T10:12:34.000Z</time>
      </trkpt>
      <trkpt lat="49.76849" lon="4.82934">
        <ele>265</ele>
        <time>2021-07-31T10:12:35.000Z</time>
      </trkpt>
      <trkpt lat="49.76846" lon="4.82927">
        <ele>264</ele>
        <time>2021-07-31T10:12:36.000Z</time>
      </trkpt>
      <trkpt lat="49.76843" lon="4.82921">
        <ele>264</ele>
        <time>2021-07-31T10:12:37.000Z</time>
      </trkpt>
      <trkpt lat="49.7684" lon="4.82914">
        <ele>264</ele>
        <time>2021-07-31T10:12:38.000Z</time>
      </trkpt>
      <trkpt lat="49.76837" lon="4.82906">
        <ele>264</ele>
        <time>2021-07-31T10:12:39.000Z</time>
      </trkpt>
      <trkpt lat="49.76834" lon="4.82899">
        <ele>263</ele>
        <time>2021-07-31T10:12:40.000Z</time>
      </trkpt>
      <trkpt lat="49.7683" lon="4.82892">
        <ele>263</ele>
        <time>2021-07-31T10:12:41.000Z</time>
      </trkpt>
      <trkpt lat="49.76827" lon="4.82884">
        <ele>263</ele>
        <time>2021-07-31T10:12:42.000Z</time>
      </trkpt>
      <trkpt lat="49.76823" lon="4.82877">
        <ele>263</ele>
        <time>2021-07-31T10:12:43.000Z</time>
      </trkpt>
      <trkpt lat="49.7682" lon="4.8287">
        <ele>263</ele>
        <time>2021-07-31T10:12:44.000Z</time>
      </trkpt>
      <trkpt lat="49.76817" lon="4.82863">
        <ele>263</ele>
        <time>2021-07-31T10:12:45.000Z</time>
      </trkpt>
      <trkpt lat="49.76814" lon="4.82857">
        <ele>262</ele>
        <time>2021-07-31T10:12:46.000Z</time>
      </trkpt>
      <trkpt lat="49.7681" lon="4.8285">
        <ele>262</ele>
        <time>2021-07-31T10:12:47.000Z</time>
      </trkpt>
      <trkpt lat="49.76807" lon="4.82843">
        <ele>262</ele>
        <time>2021-07-31T10:12:48.000Z</time>
      </trkpt>
      <trkpt lat="49.76803" lon="4.82835">
        <ele>262</ele>
        <time>2021-07-31T10:12:49.000Z</time>
      </trkpt>
      <trkpt lat="49.76799" lon="4.82828">
        <ele>262</ele>
        <time>2021-07-31T10:12:50.000Z</time>
      </trkpt>
      <trkpt lat="49.76796" lon="4.8282">
        <ele>261</ele>
        <time>2021-07-31T10:12:51.000Z</time>
      </trkpt>
      <trkpt lat="49.76792" lon="4.82813">
        <ele>261</ele>
        <time>2021-07-31T10:12:52.000Z</time>
      </trkpt>
      <trkpt lat="49.76788" lon="4.82805">
        <ele>261</ele>
        <time>2021-07-31T10:12:53.000Z</time>
      </trkpt>
      <trkpt lat="49.76784" lon="4.82797">
        <ele>261</ele>
        <time>2021-07-31T10:12:54.000Z</time>
      </trkpt>
      <trkpt lat="49.7678" lon="4.82789">
        <ele>260</ele>
        <time>2021-07-31T10:12:55.000Z</time>
      </trkpt>
      <trkpt lat="49.76776" lon="4.8278">
        <ele>260</ele>
        <time>2021-07-31T10:12:56.000Z</time>
      </trkpt>
      <trkpt lat="49.76772" lon="4.82771">
        <ele>260</ele>
        <time>2021-07-31T10:12:57.000Z</time>
      </trkpt>
      <trkpt lat="49.76768" lon="4.82762">
        <ele>259</ele>
        <time>2021-07-31T10:12:58.000Z</time>
      </trkpt>
      <trkpt lat="49.76764" lon="4.82753">
        <ele>259</ele>
        <time>2021-07-31T10:12:59.000Z</time>
      </trkpt>
      <trkpt lat="49.7676" lon="4.82744">
        <ele>259</ele>
        <time>2021-07-31T10:13:00.000Z</time>
      </trkpt>
      <trkpt lat="49.76756" lon="4.82735">
        <ele>258</ele>
        <time>2021-07-31T10:13:01.000Z</time>
      </trkpt>
      <trkpt lat="49.76753" lon="4.82726">
        <ele>258</ele>
        <time>2021-07-31T10:13:02.000Z</time>
      </trkpt>
      <trkpt lat="49.76749" lon="4.82718">
        <ele>258</ele>
        <time>2021-07-31T10:13:03.000Z</time>
      </trkpt>
      <trkpt lat="49.76746" lon="4.82709">
        <ele>258</ele>
        <time>2021-07-31T10:13:04.000Z</time>
      </trkpt>
      <trkpt lat="49.76742" lon="4.827">
        <ele>257</ele>
        <time>2021-07-31T10:13:05.000Z</time>
      </trkpt>
      <trkpt lat="49.76738" lon="4.82691">
        <ele>257</ele>
        <time>2021-07-31T10:13:06.000Z</time>
      </trkpt>
      <trkpt lat="49.76735" lon="4.82682">
        <ele>257</ele>
        <time>2021-07-31T10:13:07.000Z</time>
      </trkpt>
      <trkpt lat="49.76732" lon="4.82672">
        <ele>257</ele>
        <time>2021-07-31T10:13:08.000Z</time>
      </trkpt>
      <trkpt lat="49.76729" lon="4.82663">
        <ele>257</ele>
        <time>2021-07-31T10:13:09.000Z</time>
      </trkpt>
      <trkpt lat="49.76726" lon="4.82653">
        <ele>257</ele>
        <time>2021-07-31T10:13:10.000Z</time>
      </trkpt>
      <trkpt lat="49.76723" lon="4.82643">
        <ele>257</ele>
        <time>2021-07-31T10:13:11.000Z</time>
      </trkpt>
      <trkpt lat="49.7672" lon="4.82634">
        <ele>256</ele>
        <time>2021-07-31T10:13:12.000Z</time>
      </trkpt>
      <trkpt lat="49.76718" lon="4.82624">
        <ele>256</ele>
        <time>2021-07-31T10:13:13.000Z</time>
      </trkpt>
      <trkpt lat="49.76715" lon="4.82615">
        <ele>256</ele>
        <time>2021-07-31T10:13:14.000Z</time>
      </trkpt>
      <trkpt lat="49.76713" lon="4.82606">
        <ele>256</ele>
        <time>2021-07-31T10:13:15.000Z</time>
      </trkpt>
      <trkpt lat="49.76711" lon="4.82596">
        <ele>256</ele>
        <time>2021-07-31T10:13:16.000Z</time>
      </trkpt>
      <trkpt lat="49.76709" lon="4.82588">
        <ele>255</ele>
        <time>2021-07-31T10:13:17.000Z</time>
      </trkpt>
      <trkpt lat="49.76707" lon="4.8258">
        <ele>255</ele>
        <time>2021-07-31T10:13:18.000Z</time>
      </trkpt>
      <trkpt lat="49.76705" lon="4.82572">
        <ele>255</ele>
        <time>2021-07-31T10:13:19.000Z</time>
      </trkpt>
      <trkpt lat="49.76702" lon="4.82564">
        <ele>255</ele>
        <time>2021-07-31T10:13:20.000Z</time>
      </trkpt>
      <trkpt lat="49.76701" lon="4.82556">
        <ele>255</ele>
        <time>2021-07-31T10:13:21.000Z</time>
      </trkpt>
      <trkpt lat="49.76699" lon="4.82548">
        <ele>255</ele>
        <time>2021-07-31T10:13:22.000Z</time>
      </trkpt>
      <trkpt lat="49.76697" lon="4.8254">
        <ele>255</ele>
        <time>2021-07-31T10:13:23.000Z</time>
      </trkpt>
      <trkpt lat="49.76695" lon="4.82532">
        <ele>254</ele>
        <time>2021-07-31T10:13:24.000Z</time>
      </trkpt>
      <trkpt lat="49.76693" lon="4.82524">
        <ele>254</ele>
        <time>2021-07-31T10:13:25.000Z</time>
      </trkpt>
      <trkpt lat="49.76691" lon="4.82516">
        <ele>254</ele>
        <time>2021-07-31T10:13:26.000Z</time>
      </trkpt>
      <trkpt lat="49.76689" lon="4.82507">
        <ele>254</ele>
        <time>2021-07-31T10:13:27.000Z</time>
      </trkpt>
      <trkpt lat="49.76686" lon="4.82499">
        <ele>254</ele>
        <time>2021-07-31T10:13:28.000Z</time>
      </trkpt>
      <trkpt lat="49.76684" lon="4.82491">
        <ele>254</ele>
        <time>2021-07-31T10:13:29.000Z</time>
      </trkpt>
      <trkpt lat="49.76682" lon="4.82483">
        <ele>254</ele>
        <time>2021-07-31T10:13:30.000Z</time>
      </trkpt>
      <trkpt lat="49.76679" lon="4.82474">
        <ele>254</ele>
        <time>2021-07-31T10:13:31.000Z</time>
      </trkpt>
      <trkpt lat="49.76677" lon="4.82466">
        <ele>254</ele>
        <time>2021-07-31T10:13:32.000Z</time>
      </trkpt>
      <trkpt lat="49.76675" lon="4.82458">
        <ele>254</ele>
        <time>2021-07-31T10:13:33.000Z</time>
      </trkpt>
      <trkpt lat="49.76673" lon="4.8245">
        <ele>254</ele>
        <time>2021-07-31T10:13:34.000Z</time>
      </trkpt>
      <trkpt lat="49.7667" lon="4.82441">
        <ele>253</ele>
        <time>2021-07-31T10:13:35.000Z</time>
      </trkpt>
      <trkpt lat="49.76668" lon="4.82433">
        <ele>253</ele>
        <time>2021-07-31T10:13:36.000Z</time>
      </trkpt>
      <trkpt lat="49.76666" lon="4.82424">
        <ele>253</ele>
        <time>2021-07-31T10:13:37.000Z</time>
      </trkpt>
      <trkpt lat="49.76664" lon="4.82416">
        <ele>253</ele>
        <time>2021-07-31T10:13:38.000Z</time>
      </trkpt>
      <trkpt lat="49.76662" lon="4.82407">
        <ele>253</ele>
        <time>2021-07-31T10:13:39.000Z</time>
      </trkpt>
      <trkpt lat="49.7666" lon="4.82399">
        <ele>253</ele>
        <time>2021-07-31T10:13:40.000Z</time>
      </trkpt>
      <trkpt lat="49.76659" lon="4.8239">
        <ele>253</ele>
        <time>2021-07-31T10:13:41.000Z</time>
      </trkpt>
      <trkpt lat="49.76658" lon="4.82381">
        <ele>253</ele>
        <time>2021-07-31T10:13:42.000Z</time>
      </trkpt>
      <trkpt lat="49.76657" lon="4.82372">
        <ele>252</ele>
        <time>2021-07-31T10:13:43.000Z</time>
      </trkpt>
      <trkpt lat="49.76656" lon="4.82363">
        <ele>252</ele>
        <time>2021-07-31T10:13:44.000Z</time>
      </trkpt>
      <trkpt lat="49.76655" lon="4.82354">
        <ele>252</ele>
        <time>2021-07-31T10:13:45.000Z</time>
      </trkpt>
      <trkpt lat="49.76655" lon="4.82346">
        <ele>252</ele>
        <time>2021-07-31T10:13:46.000Z</time>
      </trkpt>
      <trkpt lat="49.76654" lon="4.82337">
        <ele>252</ele>
        <time>2021-07-31T10:13:47.000Z</time>
      </trkpt>
      <trkpt lat="49.76654" lon="4.82329">
        <ele>252</ele>
        <time>2021-07-31T10:13:48.000Z</time>
      </trkpt>
      <trkpt lat="49.76653" lon="4.8232">
        <ele>252</ele>
        <time>2021-07-31T10:13:49.000Z</time>
      </trkpt>
      <trkpt lat="49.76653" lon="4.82311">
        <ele>252</ele>
        <time>2021-07-31T10:13:50.000Z</time>
      </trkpt>
      <trkpt lat="49.76653" lon="4.82303">
        <ele>252</ele>
        <time>2021-07-31T10:13:51.000Z</time>
      </trkpt>
      <trkpt lat="49.76653" lon="4.82294">
        <ele>251</ele>
        <time>2021-07-31T10:13:52.000Z</time>
      </trkpt>
      <trkpt lat="49.76653" lon="4.82286">
        <ele>251</ele>
        <time>2021-07-31T10:13:53.000Z</time>
      </trkpt>
      <trkpt lat="49.76653" lon="4.82277">
        <ele>251</ele>
        <time>2021-07-31T10:13:54.000Z</time>
      </trkpt>
      <trkpt lat="49.76652" lon="4.82269">
        <ele>251</ele>
        <time>2021-07-31T10:13:55.000Z</time>
      </trkpt>
      <trkpt lat="49.7665" lon="4.8226">
        <ele>251</ele>
        <time>2021-07-31T10:13:56.000Z</time>
      </trkpt>
      <trkpt lat="49.76648" lon="4.82252">
        <ele>251</ele>
        <time>2021-07-31T10:13:57.000Z</time>
      </trkpt>
      <trkpt lat="49.76647" lon="4.82245">
        <ele>251</ele>
        <time>2021-07-31T10:13:58.000Z</time>
      </trkpt>
      <trkpt lat="49.76645" lon="4.82238">
        <ele>251</ele>
        <time>2021-07-31T10:13:59.000Z</time>
      </trkpt>
      <trkpt lat="49.76643" lon="4.82231">
        <ele>251</ele>
        <time>2021-07-31T10:14:00.000Z</time>
      </trkpt>
      <trkpt lat="49.76642" lon="4.82223">
        <ele>251</ele>
        <time>2021-07-31T10:14:01.000Z</time>
      </trkpt>
      <trkpt lat="49.7664" lon="4.82215">
        <ele>251</ele>
        <time>2021-07-31T10:14:02.000Z</time>
      </trkpt>
      <trkpt lat="49.76639" lon="4.82207">
        <ele>251</ele>
        <time>2021-07-31T10:14:03.000Z</time>
      </trkpt>
      <trkpt lat="49.76637" lon="4.82199">
        <ele>251</ele>
        <time>2021-07-31T10:14:04.000Z</time>
      </trkpt>
      <trkpt lat="49.76636" lon="4.82191">
        <ele>251</ele>
        <time>2021-07-31T10:14:05.000Z</time>
      </trkpt>
      <trkpt lat="49.76634" lon="4.82183">
        <ele>251</ele>
        <time>2021-07-31T10:14:06.000Z</time>
      </trkpt>
      <trkpt lat="49.76631" lon="4.82176">
        <ele>251</ele>
        <time>2021-07-31T10:14:07.000Z</time>
      </trkpt>
      <trkpt lat="49.76629" lon="4.82168">
        <ele>251</ele>
        <time>2021-07-31T10:14:08.000Z</time>
      </trkpt>
      <trkpt lat="49.76627" lon="4.8216">
        <ele>251</ele>
        <time>2021-07-31T10:14:09.000Z</time>
      </trkpt>
      <trkpt lat="49.76625" lon="4.82151">
        <ele>251</ele>
        <time>2021-07-31T10:14:10.000Z</time>
      </trkpt>
      <trkpt lat="49.76623" lon="4.82143">
        <ele>251</ele>
        <time>2021-07-31T10:14:11.000Z</time>
      </trkpt>
      <trkpt lat="49.76621" lon="4.82135">
        <ele>251</ele>
        <time>2021-07-31T10:14:12.000Z</time>
      </trkpt>
      <trkpt lat="49.76619" lon="4.82127">
        <ele>251</ele>
        <time>2021-07-31T10:14:13.000Z</time>
      </trkpt>
      <trkpt lat="49.76617" lon="4.82119">
        <ele>251</ele>
        <time>2021-07-31T10:14:14.000Z</time>
      </trkpt>
      <trkpt lat="49.76615" lon="4.82111">
        <ele>251</ele>
        <time>2021-07-31T10:14:15.000Z</time>
      </trkpt>
      <trkpt lat="49.76613" lon="4.82103">
        <ele>251</ele>
        <time>2021-07-31T10:14:16.000Z</time>
      </trkpt>
      <trkpt lat="49.76611" lon="4.82095">
        <ele>251</ele>
        <time>2021-07-31T10:14:17.000Z</time>
      </trkpt>
      <trkpt lat="49.7661" lon="4.82088">
        <ele>251</ele>
        <time>2021-07-31T10:14:18.000Z</time>
      </trkpt>
      <trkpt lat="49.76608" lon="4.82081">
        <ele>252</ele>
        <time>2021-07-31T10:14:19.000Z</time>
      </trkpt>
      <trkpt lat="49.76606" lon="4.82073">
        <ele>252</ele>
        <time>2021-07-31T10:14:20.000Z</time>
      </trkpt>
      <trkpt lat="49.76605" lon="4.82067">
        <ele>252</ele>
        <time>2021-07-31T10:14:21.000Z</time>
      </trkpt>
      <trkpt lat="49.76603" lon="4.8206">
        <ele>252</ele>
        <time>2021-07-31T10:14:22.000Z</time>
      </trkpt>
      <trkpt lat="49.76601" lon="4.82054">
        <ele>252</ele>
        <time>2021-07-31T10:14:23.000Z</time>
      </trkpt>
      <trkpt lat="49.766" lon="4.82047">
        <ele>252</ele>
        <time>2021-07-31T10:14:24.000Z</time>
      </trkpt>
      <trkpt lat="49.76598" lon="4.82041">
        <ele>252</ele>
        <time>2021-07-31T10:14:25.000Z</time>
      </trkpt>
      <trkpt lat="49.76597" lon="4.82034">
        <ele>252</ele>
        <time>2021-07-31T10:14:26.000Z</time>
      </trkpt>
      <trkpt lat="49.76596" lon="4.82027">
        <ele>252</ele>
        <time>2021-07-31T10:14:27.000Z</time>
      </trkpt>
      <trkpt lat="49.76595" lon="4.82019">
        <ele>251</ele>
        <time>2021-07-31T10:14:28.000Z</time>
      </trkpt>
      <trkpt lat="49.76594" lon="4.82012">
        <ele>251</ele>
        <time>2021-07-31T10:14:29.000Z</time>
      </trkpt>
      <trkpt lat="49.76592" lon="4.82007">
        <ele>251</ele>
        <time>2021-07-31T10:14:30.000Z</time>
      </trkpt>
      <trkpt lat="49.7659" lon="4.82003">
        <ele>251</ele>
        <time>2021-07-31T10:14:31.000Z</time>
      </trkpt>
      <trkpt lat="49.76588" lon="4.82001">
        <ele>251</ele>
        <time>2021-07-31T10:14:32.000Z</time>
      </trkpt>
      <trkpt lat="49.76585" lon="4.82">
        <ele>251</ele>
        <time>2021-07-31T10:14:33.000Z</time>
      </trkpt>
      <trkpt lat="49.76582" lon="4.82001">
        <ele>251</ele>
        <time>2021-07-31T10:14:34.000Z</time>
      </trkpt>
      <trkpt lat="49.76579" lon="4.82004">
        <ele>252</ele>
        <time>2021-07-31T10:14:35.000Z</time>
      </trkpt>
      <trkpt lat="49.76575" lon="4.82007">
        <ele>252</ele>
        <time>2021-07-31T10:14:36.000Z</time>
      </trkpt>
      <trkpt lat="49.76571" lon="4.8201">
        <ele>252</ele>
        <time>2021-07-31T10:14:37.000Z</time>
      </trkpt>
      <trkpt lat="49.76567" lon="4.82013">
        <ele>252</ele>
        <time>2021-07-31T10:14:38.000Z</time>
      </trkpt>
      <trkpt lat="49.76564" lon="4.82017">
        <ele>252</ele>
        <time>2021-07-31T10:14:39.000Z</time>
      </trkpt>
      <trkpt lat="49.7656" lon="4.82022">
        <ele>252</ele>
        <time>2021-07-31T10:14:40.000Z</time>
      </trkpt>
      <trkpt lat="49.76556" lon="4.82025">
        <ele>252</ele>
        <time>2021-07-31T10:14:41.000Z</time>
      </trkpt>
      <trkpt lat="49.76551" lon="4.82026">
        <ele>251</ele>
        <time>2021-07-31T10:14:42.000Z</time>
      </trkpt>
      <trkpt lat="49.76547" lon="4.82025">
        <ele>251</ele>
        <time>2021-07-31T10:14:43.000Z</time>
      </trkpt>
      <trkpt lat="49.76543" lon="4.82024">
        <ele>251</ele>
        <time>2021-07-31T10:14:44.000Z</time>
      </trkpt>
      <trkpt lat="49.7654" lon="4.82019">
        <ele>251</ele>
        <time>2021-07-31T10:14:45.000Z</time>
      </trkpt>
      <trkpt lat="49.76538" lon="4.82013">
        <ele>251</ele>
        <time>2021-07-31T10:14:46.000Z</time>
      </trkpt>
      <trkpt lat="49.76536" lon="4.82007">
        <ele>251</ele>
        <time>2021-07-31T10:14:47.000Z</time>
      </trkpt>
      <trkpt lat="49.76534" lon="4.82001">
        <ele>251</ele>
        <time>2021-07-31T10:14:48.000Z</time>
      </trkpt>
      <trkpt lat="49.76532" lon="4.81995">
        <ele>251</ele>
        <time>2021-07-31T10:14:49.000Z</time>
      </trkpt>
      <trkpt lat="49.76529" lon="4.81989">
        <ele>251</ele>
        <time>2021-07-31T10:14:50.000Z</time>
      </trkpt>
      <trkpt lat="49.76528" lon="4.81982">
        <ele>251</ele>
        <time>2021-07-31T10:14:51.000Z</time>
      </trkpt>
      <trkpt lat="49.76526" lon="4.81977">
        <ele>252</ele>
        <time>2021-07-31T10:14:52.000Z</time>
      </trkpt>
      <trkpt lat="49.76524" lon="4.81971">
        <ele>252</ele>
        <time>2021-07-31T10:14:53.000Z</time>
      </trkpt>
      <trkpt lat="49.76522" lon="4.81965">
        <ele>252</ele>
        <time>2021-07-31T10:14:54.000Z</time>
      </trkpt>
      <trkpt lat="49.76521" lon="4.81959">
        <ele>252</ele>
        <time>2021-07-31T10:14:55.000Z</time>
      </trkpt>
      <trkpt lat="49.76519" lon="4.81954">
        <ele>252</ele>
        <time>2021-07-31T10:14:56.000Z</time>
      </trkpt>
      <trkpt lat="49.76517" lon="4.81948">
        <ele>252</ele>
        <time>2021-07-31T10:14:57.000Z</time>
      </trkpt>
      <trkpt lat="49.76515" lon="4.81943">
        <ele>252</ele>
        <time>2021-07-31T10:14:58.000Z</time>
      </trkpt>
      <trkpt lat="49.76514" lon="4.81938">
        <ele>252</ele>
        <time>2021-07-31T10:14:59.000Z</time>
      </trkpt>
      <trkpt lat="49.76512" lon="4.81933">
        <ele>252</ele>
        <time>2021-07-31T10:15:00.000Z</time>
      </trkpt>
      <trkpt lat="49.76511" lon="4.81929">
        <ele>252</ele>
        <time>2021-07-31T10:15:01.000Z</time>
      </trkpt>
      <trkpt lat="49.76511" lon="4.81927">
        <ele>252</ele>
        <time>2021-07-31T10:15:02.000Z</time>
      </trkpt>
      <trkpt lat="49.76511" lon="4.81926">
        <ele>252</ele>
        <time>2021-07-31T10:15:03.000Z</time>
      </trkpt>
      <trkpt lat="49.76511" lon="4.81927">
        <ele>252</ele>
        <time>2021-07-31T10:15:04.000Z</time>
      </trkpt>
      <trkpt lat="49.76511" lon="4.81927">
        <ele>252</ele>
        <time>2021-07-31T10:15:05.000Z</time>
      </trkpt>
      <trkpt lat="49.76511" lon="4.81927">
        <ele>252</ele>
        <time>2021-07-31T10:15:06.000Z</time>
      </trkpt>
      <trkpt lat="49.76511" lon="4.81927">
        <ele>252</ele>
        <time>2021-07-31T10:15:07.000Z</time>
      </trkpt>
      <trkpt lat="49.76511" lon="4.81926">
        <ele>252</ele>
        <time>2021-07-31T10:15:08.000Z</time>
      </trkpt>
      <trkpt lat="49.76511" lon="4.81926">
        <ele>252</ele>
        <time>2021-07-31T10:15:09.000Z</time>
      </trkpt>
      <trkpt lat="49.76511" lon="4.81926">
        <ele>252</ele>
        <time>2021-07-31T10:15:10.000Z</time>
      </trkpt>
      <trkpt lat="49.76511" lon="4.81926">
        <ele>252</ele>
        <time>2021-07-31T10:15:11.000Z</time>
      </trkpt>
      <trkpt lat="49.76511" lon="4.81926">
        <ele>252</ele>
        <time>2021-07-31T10:15:12.000Z</time>
      </trkpt>
      <trkpt lat="49.76511" lon="4.81926">
        <ele>252</ele>
        <time>2021-07-31T10:15:13.000Z</time>
      </trkpt>
      <trkpt lat="49.7651" lon="4.81926">
        <ele>253</ele>
        <time>2021-07-31T10:15:14.000Z</time>
      </trkpt>
      <trkpt lat="49.7651" lon="4.81926">
        <ele>253</ele>
        <time>2021-07-31T10:15:15.000Z</time>
      </trkpt>
      <trkpt lat="49.7651" lon="4.81926">
        <ele>253</ele>
        <time>2021-07-31T10:15:16.000Z</time>
      </trkpt>
      <trkpt lat="49.76511" lon="4.81926">
        <ele>253</ele>
        <time>2021-07-31T10:15:17.000Z</time>
      </trkpt>
      <trkpt lat="49.7651" lon="4.81926">
        <ele>253</ele>
        <time>2021-07-31T10:15:18.000Z</time>
      </trkpt>
      <trkpt lat="49.76509" lon="4.81927">
        <ele>253</ele>
        <time>2021-07-31T10:15:19.000Z</time>
      </trkpt>
      <trkpt lat="49.76509" lon="4.81927">
        <ele>253</ele>
        <time>2021-07-31T10:15:20.000Z</time>
      </trkpt>
      <trkpt lat="49.76509" lon="4.81927">
        <ele>253</ele>
        <time>2021-07-31T10:15:21.000Z</time>
      </trkpt>
      <trkpt lat="49.7651" lon="4.81927">
        <ele>253</ele>
        <time>2021-07-31T10:15:22.000Z</time>
      </trkpt>
      <trkpt lat="49.7651" lon="4.81927">
        <ele>253</ele>
        <time>2021-07-31T10:15:23.000Z</time>
      </trkpt>
      <trkpt lat="49.7651" lon="4.81927">
        <ele>253</ele>
        <time>2021-07-31T10:15:24.000Z</time>
      </trkpt>
      <trkpt lat="49.7651" lon="4.81927">
        <ele>253</ele>
        <time>2021-07-31T10:15:25.000Z</time>
      </trkpt>
      <trkpt lat="49.7651" lon="4.81927">
        <ele>253</ele>
        <time>2021-07-31T10:15:26.000Z</time>
      </trkpt>
      <trkpt lat="49.7651" lon="4.81926">
        <ele>253</ele>
        <time>2021-07-31T10:15:27.000Z</time>
      </trkpt>
      <trkpt lat="49.7651" lon="4.81926">
        <ele>253</ele>
        <time>2021-07-31T10:15:28.000Z</time>
      </trkpt>
      <trkpt lat="49.7651" lon="4.81927">
        <ele>253</ele>
        <time>2021-07-31T10:15:29.000Z</time>
      </trkpt>
      <trkpt lat="49.7651" lon="4.81927">
        <ele>253</ele>
        <time>2021-07-31T10:15:30.000Z</time>
      </trkpt>
      <trkpt lat="49.7651" lon="4.81927">
        <ele>253</ele>
        <time>2021-07-31T10:15:31.000Z</time>
      </trkpt>
      <trkpt lat="49.7651" lon="4.81927">
        <ele>253</ele>
        <time>2021-07-31T10:15:32.000Z</time>
      </trkpt>
      <trkpt lat="49.7651" lon="4.81926">
        <ele>253</ele>
        <time>2021-07-31T10:15:33.000Z</time>
      </trkpt>
      <trkpt lat="49.7651" lon="4.81927">
        <ele>253</ele>
        <time>2021-07-31T10:15:34.000Z</time>
      </trkpt>
      <trkpt lat="49.7651" lon="4.81928">
        <ele>253</ele>
        <time>2021-07-31T10:15:35.000Z</time>
      </trkpt>
      <trkpt lat="49.7651" lon="4.81928">
        <ele>253</ele>
        <time>2021-07-31T10:15:36.000Z</time>
      </trkpt>
      <trkpt lat="49.7651" lon="4.81928">
        <ele>253</ele>
        <time>2021-07-31T10:15:37.000Z</time>
      </trkpt>
      <trkpt lat="49.7651" lon="4.81928">
        <ele>253</ele>
        <time>2021-07-31T10:15:38.000Z</time>
      </trkpt>
      <trkpt lat="49.7651" lon="4.81928">
        <ele>253</ele>
        <time>2021-07-31T10:15:39.000Z</time>
      </trkpt>
      <trkpt lat="49.7651" lon="4.81928">
        <ele>253</ele>
        <time>2021-07-31T10:15:40.000Z</time>
      </trkpt>
      <trkpt lat="49.7651" lon="4.81928">
        <ele>253</ele>
        <time>2021-07-31T10:15:41.000Z</time>
      </trkpt>
      <trkpt lat="49.7651" lon="4.81927">
        <ele>253</ele>
        <time>2021-07-31T10:15:42.000Z</time>
      </trkpt>
      <trkpt lat="49.76509" lon="4.81925">
        <ele>253</ele>
        <time>2021-07-31T10:15:43.000Z</time>
      </trkpt>
      <trkpt lat="49.76509" lon="4.81924">
        <ele>253</ele>
        <time>2021-07-31T10:15:44.000Z</time>
      </trkpt>
      <trkpt lat="49.76509" lon="4.81924">
        <ele>253</ele>
        <time>2021-07-31T10:15:45.000Z</time>
      </trkpt>
      <trkpt lat="49.76509" lon="4.81924">
        <ele>253</ele>
        <time>2021-07-31T10:15:46.000Z</time>
      </trkpt>
      <trkpt lat="49.76509" lon="4.81923">
        <ele>253</ele>
        <time>2021-07-31T10:15:47.000Z</time>
      </trkpt>
      <trkpt lat="49.76509" lon="4.81922">
        <ele>253</ele>
        <time>2021-07-31T10:15:48.000Z</time>
      </trkpt>
      <trkpt lat="49.76508" lon="4.81922">
        <ele>253</ele>
        <time>2021-07-31T10:15:49.000Z</time>
      </trkpt>
      <trkpt lat="49.76508" lon="4.81921">
        <ele>253</ele>
        <time>2021-07-31T10:15:50.000Z</time>
      </trkpt>
      <trkpt lat="49.76508" lon="4.81921">
        <ele>253</ele>
        <time>2021-07-31T10:15:51.000Z</time>
      </trkpt>
      <trkpt lat="49.76508" lon="4.81922">
        <ele>252</ele>
        <time>2021-07-31T10:15:52.000Z</time>
      </trkpt>
      <trkpt lat="49.76508" lon="4.81921">
        <ele>252</ele>
        <time>2021-07-31T10:15:53.000Z</time>
      </trkpt>
      <trkpt lat="49.76508" lon="4.81921">
        <ele>252</ele>
        <time>2021-07-31T10:15:54.000Z</time>
      </trkpt>
      <trkpt lat="49.76508" lon="4.81921">
        <ele>252</ele>
        <time>2021-07-31T10:15:55.000Z</time>
      </trkpt>
      <trkpt lat="49.76508" lon="4.8192">
        <ele>253</ele>
        <time>2021-07-31T10:15:56.000Z</time>
      </trkpt>
      <trkpt lat="49.76508" lon="4.8192">
        <ele>253</ele>
        <time>2021-07-31T10:15:57.000Z</time>
      </trkpt>
      <trkpt lat="49.76508" lon="4.81919">
        <ele>253</ele>
        <time>2021-07-31T10:15:58.000Z</time>
      </trkpt>
      <trkpt lat="49.76507" lon="4.81917">
        <ele>253</ele>
        <time>2021-07-31T10:15:59.000Z</time>
      </trkpt>
      <trkpt lat="49.76507" lon="4.81915">
        <ele>253</ele>
        <time>2021-07-31T10:16:00.000Z</time>
      </trkpt>
      <trkpt lat="49.76506" lon="4.81913">
        <ele>253</ele>
        <time>2021-07-31T10:16:01.000Z</time>
      </trkpt>
      <trkpt lat="49.76505" lon="4.81911">
        <ele>253</ele>
        <time>2021-07-31T10:16:02.000Z</time>
      </trkpt>
      <trkpt lat="49.76505" lon="4.81908">
        <ele>253</ele>
        <time>2021-07-31T10:16:03.000Z</time>
      </trkpt>
      <trkpt lat="49.76504" lon="4.81905">
        <ele>253</ele>
        <time>2021-07-31T10:16:04.000Z</time>
      </trkpt>
      <trkpt lat="49.76503" lon="4.81902">
        <ele>253</ele>
        <time>2021-07-31T10:16:05.000Z</time>
      </trkpt>
      <trkpt lat="49.76502" lon="4.81898">
        <ele>253</ele>
        <time>2021-07-31T10:16:06.000Z</time>
      </trkpt>
      <trkpt lat="49.76501" lon="4.81894">
        <ele>253</ele>
        <time>2021-07-31T10:16:07.000Z</time>
      </trkpt>
      <trkpt lat="49.765" lon="4.8189">
        <ele>253</ele>
        <time>2021-07-31T10:16:08.000Z</time>
      </trkpt>
      <trkpt lat="49.76499" lon="4.81886">
        <ele>254</ele>
        <time>2021-07-31T10:16:09.000Z</time>
      </trkpt>
      <trkpt lat="49.76498" lon="4.81882">
        <ele>254</ele>
        <time>2021-07-31T10:16:10.000Z</time>
      </trkpt>
      <trkpt lat="49.76498" lon="4.81878">
        <ele>254</ele>
        <time>2021-07-31T10:16:11.000Z</time>
      </trkpt>
      <trkpt lat="49.76497" lon="4.81873">
        <ele>254</ele>
        <time>2021-07-31T10:16:12.000Z</time>
      </trkpt>
      <trkpt lat="49.76496" lon="4.81869">
        <ele>254</ele>
        <time>2021-07-31T10:16:13.000Z</time>
      </trkpt>
      <trkpt lat="49.76495" lon="4.81864">
        <ele>254</ele>
        <time>2021-07-31T10:16:14.000Z</time>
      </trkpt>
      <trkpt lat="49.76494" lon="4.81859">
        <ele>254</ele>
        <time>2021-07-31T10:16:15.000Z</time>
      </trkpt>
      <trkpt lat="49.76492" lon="4.81853">
        <ele>254</ele>
        <time>2021-07-31T10:16:16.000Z</time>
      </trkpt>
      <trkpt lat="49.76491" lon="4.81848">
        <ele>254</ele>
        <time>2021-07-31T10:16:17.000Z</time>
      </trkpt>
      <trkpt lat="49.7649" lon="4.81842">
        <ele>254</ele>
        <time>2021-07-31T10:16:18.000Z</time>
      </trkpt>
      <trkpt lat="49.76489" lon="4.81837">
        <ele>254</ele>
        <time>2021-07-31T10:16:19.000Z</time>
      </trkpt>
      <trkpt lat="49.76487" lon="4.81832">
        <ele>254</ele>
        <time>2021-07-31T10:16:20.000Z</time>
      </trkpt>
      <trkpt lat="49.76486" lon="4.81827">
        <ele>255</ele>
        <time>2021-07-31T10:16:21.000Z</time>
      </trkpt>
      <trkpt lat="49.76485" lon="4.81821">
        <ele>255</ele>
        <time>2021-07-31T10:16:22.000Z</time>
      </trkpt>
      <trkpt lat="49.76484" lon="4.81816">
        <ele>255</ele>
        <time>2021-07-31T10:16:23.000Z</time>
      </trkpt>
      <trkpt lat="49.76483" lon="4.8181">
        <ele>255</ele>
        <time>2021-07-31T10:16:24.000Z</time>
      </trkpt>
      <trkpt lat="49.76481" lon="4.81805">
        <ele>255</ele>
        <time>2021-07-31T10:16:25.000Z</time>
      </trkpt>
      <trkpt lat="49.7648" lon="4.81801">
        <ele>255</ele>
        <time>2021-07-31T10:16:26.000Z</time>
      </trkpt>
      <trkpt lat="49.76479" lon="4.81797">
        <ele>255</ele>
        <time>2021-07-31T10:16:27.000Z</time>
      </trkpt>
      <trkpt lat="49.76478" lon="4.81794">
        <ele>256</ele>
        <time>2021-07-31T10:16:28.000Z</time>
      </trkpt>
      <trkpt lat="49.76478" lon="4.81793">
        <ele>256</ele>
        <time>2021-07-31T10:16:29.000Z</time>
      </trkpt>
      <trkpt lat="49.76478" lon="4.81793">
        <ele>256</ele>
        <time>2021-07-31T10:16:30.000Z</time>
      </trkpt>
      <trkpt lat="49.76478" lon="4.81793">
        <ele>256</ele>
        <time>2021-07-31T10:16:31.000Z</time>
      </trkpt>
      <trkpt lat="49.76478" lon="4.81793">
        <ele>256</ele>
        <time>2021-07-31T10:16:32.000Z</time>
      </trkpt>
      <trkpt lat="49.76478" lon="4.81793">
        <ele>256</ele>
        <time>2021-07-31T10:16:33.000Z</time>
      </trkpt>
      <trkpt lat="49.76478" lon="4.81793">
        <ele>256</ele>
        <time>2021-07-31T10:16:34.000Z</time>
      </trkpt>
      <trkpt lat="49.76478" lon="4.81793">
        <ele>256</ele>
        <time>2021-07-31T10:16:35.000Z</time>
      </trkpt>
      <trkpt lat="49.76478" lon="4.81793">
        <ele>256</ele>
        <time>2021-07-31T10:16:36.000Z</time>
      </trkpt>
      <trkpt lat="49.76478" lon="4.81793">
        <ele>256</ele>
        <time>2021-07-31T10:16:37.000Z</time>
      </trkpt>
      <trkpt lat="49.76479" lon="4.81793">
        <ele>256</ele>
        <time>2021-07-31T10:16:38.000Z</time>
      </trkpt>
      <trkpt lat="49.76479" lon="4.81793">
        <ele>256</ele>
        <time>2021-07-31T10:16:39.000Z</time>
      </trkpt>
      <trkpt lat="49.76479" lon="4.81793">
        <ele>256</ele>
        <time>2021-07-31T10:16:40.000Z</time>
      </trkpt>
      <trkpt lat="49.76479" lon="4.81793">
        <ele>256</ele>
        <time>2021-07-31T10:16:41.000Z</time>
      </trkpt>
      <trkpt lat="49.76479" lon="4.81793">
        <ele>256</ele>
        <time>2021-07-31T10:16:42.000Z</time>
      </trkpt>
      <trkpt lat="49.76479" lon="4.81793">
        <ele>256</ele>
        <time>2021-07-31T10:16:43.000Z</time>
      </trkpt>
      <trkpt lat="49.76479" lon="4.81793">
        <ele>256</ele>
        <time>2021-07-31T10:16:44.000Z</time>
      </trkpt>
      <trkpt lat="49.76479" lon="4.81792">
        <ele>257</ele>
        <time>2021-07-31T10:16:45.000Z</time>
      </trkpt>
      <trkpt lat="49.7648" lon="4.81792">
        <ele>257</ele>
        <time>2021-07-31T10:16:46.000Z</time>
      </trkpt>
      <trkpt lat="49.7648" lon="4.81792">
        <ele>257</ele>
        <time>2021-07-31T10:16:47.000Z</time>
      </trkpt>
      <trkpt lat="49.7648" lon="4.81792">
        <ele>257</ele>
        <time>2021-07-31T10:16:48.000Z</time>
      </trkpt>
      <trkpt lat="49.7648" lon="4.81792">
        <ele>257</ele>
        <time>2021-07-31T10:16:49.000Z</time>
      </trkpt>
      <trkpt lat="49.7648" lon="4.81792">
        <ele>257</ele>
        <time>2021-07-31T10:16:50.000Z</time>
      </trkpt>
      <trkpt lat="49.7648" lon="4.81792">
        <ele>257</ele>
        <time>2021-07-31T10:16:51.000Z</time>
      </trkpt>
      <trkpt lat="49.7648" lon="4.81792">
        <ele>257</ele>
        <time>2021-07-31T10:16:52.000Z</time>
      </trkpt>
      <trkpt lat="49.7648" lon="4.81792">
        <ele>257</ele>
        <time>2021-07-31T10:16:53.000Z</time>
      </trkpt>
      <trkpt lat="49.7648" lon="4.81792">
        <ele>257</ele>
        <time>2021-07-31T10:16:54.000Z</time>
      </trkpt>
      <trkpt lat="49.7648" lon="4.81792">
        <ele>257</ele>
        <time>2021-07-31T10:16:55.000Z</time>
      </trkpt>
      <trkpt lat="49.7648" lon="4.81792">
        <ele>257</ele>
        <time>2021-07-31T10:16:56.000Z</time>
      </trkpt>
      <trkpt lat="49.7648" lon="4.81792">
        <ele>257</ele>
        <time>2021-07-31T10:16:57.000Z</time>
      </trkpt>
      <trkpt lat="49.7648" lon="4.81792">
        <ele>257</ele>
        <time>2021-07-31T10:16:58.000Z</time>
      </trkpt>
      <trkpt lat="49.7648" lon="4.81792">
        <ele>257</ele>
        <time>2021-07-31T10:16:59.000Z</time>
      </trkpt>
      <trkpt lat="49.7648" lon="4.81792">
        <ele>257</ele>
        <time>2021-07-31T10:17:00.000Z</time>
      </trkpt>
      <trkpt lat="49.7648" lon="4.81792">
        <ele>257</ele>
        <time>2021-07-31T10:17:01.000Z</time>
      </trkpt>
      <trkpt lat="49.7648" lon="4.81792">
        <ele>257</ele>
        <time>2021-07-31T10:17:02.000Z</time>
      </trkpt>
      <trkpt lat="49.7648" lon="4.81793">
        <ele>257</ele>
        <time>2021-07-31T10:17:03.000Z</time>
      </trkpt>
      <trkpt lat="49.7648" lon="4.81793">
        <ele>257</ele>
        <time>2021-07-31T10:17:04.000Z</time>
      </trkpt>
      <trkpt lat="49.76479" lon="4.81792">
        <ele>257</ele>
        <time>2021-07-31T10:17:05.000Z</time>
      </trkpt>
      <trkpt lat="49.76479" lon="4.81793">
        <ele>257</ele>
        <time>2021-07-31T10:17:06.000Z</time>
      </trkpt>
      <trkpt lat="49.76479" lon="4.81793">
        <ele>257</ele>
        <time>2021-07-31T10:17:07.000Z</time>
      </trkpt>
      <trkpt lat="49.76479" lon="4.81793">
        <ele>257</ele>
        <time>2021-07-31T10:17:08.000Z</time>
      </trkpt>
      <trkpt lat="49.76479" lon="4.81793">
        <ele>256</ele>
        <time>2021-07-31T10:17:09.000Z</time>
      </trkpt>
      <trkpt lat="49.76479" lon="4.81793">
        <ele>256</ele>
        <time>2021-07-31T10:17:10.000Z</time>
      </trkpt>
      <trkpt lat="49.76479" lon="4.81793">
        <ele>256</ele>
        <time>2021-07-31T10:17:11.000Z</time>
      </trkpt>
      <trkpt lat="49.76479" lon="4.81793">
        <ele>256</ele>
        <time>2021-07-31T10:17:12.000Z</time>
      </trkpt>
      <trkpt lat="49.76479" lon="4.81793">
        <ele>256</ele>
        <time>2021-07-31T10:17:13.000Z</time>
      </trkpt>
      <trkpt lat="49.76479" lon="4.81793">
        <ele>256</ele>
        <time>2021-07-31T10:17:14.000Z</time>
      </trkpt>
      <trkpt lat="49.76479" lon="4.81793">
        <ele>256</ele>
        <time>2021-07-31T10:17:15.000Z</time>
      </trkpt>
      <trkpt lat="49.76479" lon="4.81793">
        <ele>256</ele>
        <time>2021-07-31T10:17:16.000Z</time>
      </trkpt>
      <trkpt lat="49.76479" lon="4.81793">
        <ele>256</ele>
        <time>2021-07-31T10:17:17.000Z</time>
      </trkpt>
      <trkpt lat="49.76479" lon="4.81793">
        <ele>256</ele>
        <time>2021-07-31T10:17:18.000Z</time>
      </trkpt>
      <trkpt lat="49.76479" lon="4.81793">
        <ele>256</ele>
        <time>2021-07-31T10:17:19.000Z</time>
      </trkpt>
      <trkpt lat="49.76479" lon="4.81793">
        <ele>256</ele>
        <time>2021-07-31T10:17:20.000Z</time>
      </trkpt>
      <trkpt lat="49.76479" lon="4.81793">
        <ele>256</ele>
        <time>2021-07-31T10:17:21.000Z</time>
      </trkpt>
      <trkpt lat="49.76479" lon="4.81793">
        <ele>256</ele>
        <time>2021-07-31T10:17:22.000Z</time>
      </trkpt>
      <trkpt lat="49.76479" lon="4.81793">
        <ele>256</ele>
        <time>2021-07-31T10:17:23.000Z</time>
      </trkpt>
      <trkpt lat="49.76479" lon="4.81794">
        <ele>256</ele>
        <time>2021-07-31T10:17:24.000Z</time>
      </trkpt>
      <trkpt lat="49.76479" lon="4.81794">
        <ele>256</ele>
        <time>2021-07-31T10:17:25.000Z</time>
      </trkpt>
      <trkpt lat="49.76479" lon="4.81793">
        <ele>256</ele>
        <time>2021-07-31T10:17:26.000Z</time>
      </trkpt>
      <trkpt lat="49.76479" lon="4.81793">
        <ele>256</ele>
        <time>2021-07-31T10:17:27.000Z</time>
      </trkpt>
      <trkpt lat="49.76479" lon="4.81793">
        <ele>256</ele>
        <time>2021-07-31T10:17:28.000Z</time>
      </trkpt>
      <trkpt lat="49.76479" lon="4.81793">
        <ele>256</ele>
        <time>2021-07-31T10:17:29.000Z</time>
      </trkpt>
      <trkpt lat="49.76479" lon="4.81793">
        <ele>256</ele>
        <time>2021-07-31T10:17:30.000Z</time>
      </trkpt>
      <trkpt lat="49.76479" lon="4.81793">
        <ele>256</ele>
        <time>2021-07-31T10:17:31.000Z</time>
      </trkpt>
      <trkpt lat="49.76479" lon="4.81793">
        <ele>256</ele>
        <time>2021-07-31T10:17:32.000Z</time>
      </trkpt>
      <trkpt lat="49.76479" lon="4.81793">
        <ele>256</ele>
        <time>2021-07-31T10:17:33.000Z</time>
      </trkpt>
      <trkpt lat="49.76479" lon="4.81793">
        <ele>256</ele>
        <time>2021-07-31T10:17:34.000Z</time>
      </trkpt>
      <trkpt lat="49.76479" lon="4.81793">
        <ele>256</ele>
        <time>2021-07-31T10:17:35.000Z</time>
      </trkpt>
      <trkpt lat="49.76478" lon="4.81793">
        <ele>256</ele>
        <time>2021-07-31T10:17:36.000Z</time>
      </trkpt>
      <trkpt lat="49.76478" lon="4.81792">
        <ele>256</ele>
        <time>2021-07-31T10:17:37.000Z</time>
      </trkpt>
      <trkpt lat="49.76478" lon="4.81792">
        <ele>256</ele>
        <time>2021-07-31T10:17:38.000Z</time>
      </trkpt>
      <trkpt lat="49.76478" lon="4.81792">
        <ele>256</ele>
        <time>2021-07-31T10:17:39.000Z</time>
      </trkpt>
      <trkpt lat="49.76478" lon="4.81791">
        <ele>256</ele>
        <time>2021-07-31T10:17:40.000Z</time>
      </trkpt>
      <trkpt lat="49.76478" lon="4.81791">
        <ele>256</ele>
        <time>2021-07-31T10:17:41.000Z</time>
      </trkpt>
      <trkpt lat="49.76478" lon="4.8179">
        <ele>256</ele>
        <time>2021-07-31T10:17:42.000Z</time>
      </trkpt>
      <trkpt lat="49.76477" lon="4.81788">
        <ele>256</ele>
        <time>2021-07-31T10:17:43.000Z</time>
      </trkpt>
      <trkpt lat="49.76477" lon="4.81787">
        <ele>256</ele>
        <time>2021-07-31T10:17:44.000Z</time>
      </trkpt>
      <trkpt lat="49.76477" lon="4.81785">
        <ele>257</ele>
        <time>2021-07-31T10:17:45.000Z</time>
      </trkpt>
      <trkpt lat="49.76477" lon="4.81785">
        <ele>257</ele>
        <time>2021-07-31T10:17:46.000Z</time>
      </trkpt>
      <trkpt lat="49.76477" lon="4.81785">
        <ele>257</ele>
        <time>2021-07-31T10:17:47.000Z</time>
      </trkpt>
      <trkpt lat="49.76477" lon="4.81786">
        <ele>257</ele>
        <time>2021-07-31T10:17:48.000Z</time>
      </trkpt>
      <trkpt lat="49.76477" lon="4.81786">
        <ele>257</ele>
        <time>2021-07-31T10:17:49.000Z</time>
      </trkpt>
      <trkpt lat="49.76477" lon="4.81786">
        <ele>257</ele>
        <time>2021-07-31T10:17:50.000Z</time>
      </trkpt>
      <trkpt lat="49.76477" lon="4.81785">
        <ele>257</ele>
        <time>2021-07-31T10:17:51.000Z</time>
      </trkpt>
      <trkpt lat="49.76477" lon="4.81786">
        <ele>257</ele>
        <time>2021-07-31T10:17:52.000Z</time>
      </trkpt>
      <trkpt lat="49.76477" lon="4.81785">
        <ele>257</ele>
        <time>2021-07-31T10:17:53.000Z</time>
      </trkpt>
      <trkpt lat="49.76476" lon="4.81785">
        <ele>257</ele>
        <time>2021-07-31T10:17:54.000Z</time>
      </trkpt>
      <trkpt lat="49.76476" lon="4.81784">
        <ele>257</ele>
        <time>2021-07-31T10:17:55.000Z</time>
      </trkpt>
      <trkpt lat="49.76476" lon="4.81783">
        <ele>257</ele>
        <time>2021-07-31T10:17:56.000Z</time>
      </trkpt>
      <trkpt lat="49.76476" lon="4.81783">
        <ele>257</ele>
        <time>2021-07-31T10:17:57.000Z</time>
      </trkpt>
      <trkpt lat="49.76476" lon="4.81783">
        <ele>257</ele>
        <time>2021-07-31T10:17:58.000Z</time>
      </trkpt>
      <trkpt lat="49.76476" lon="4.81783">
        <ele>257</ele>
        <time>2021-07-31T10:17:59.000Z</time>
      </trkpt>
      <trkpt lat="49.76475" lon="4.81782">
        <ele>257</ele>
        <time>2021-07-31T10:18:00.000Z</time>
      </trkpt>
      <trkpt lat="49.76475" lon="4.81782">
        <ele>257</ele>
        <time>2021-07-31T10:18:01.000Z</time>
      </trkpt>
      <trkpt lat="49.76475" lon="4.8178">
        <ele>257</ele>
        <time>2021-07-31T10:18:02.000Z</time>
      </trkpt>
      <trkpt lat="49.76475" lon="4.81778">
        <ele>257</ele>
        <time>2021-07-31T10:18:03.000Z</time>
      </trkpt>
      <trkpt lat="49.76474" lon="4.81776">
        <ele>257</ele>
        <time>2021-07-31T10:18:04.000Z</time>
      </trkpt>
      <trkpt lat="49.76474" lon="4.81774">
        <ele>257</ele>
        <time>2021-07-31T10:18:05.000Z</time>
      </trkpt>
      <trkpt lat="49.76474" lon="4.81773">
        <ele>257</ele>
        <time>2021-07-31T10:18:06.000Z</time>
      </trkpt>
      <trkpt lat="49.76473" lon="4.81771">
        <ele>257</ele>
        <time>2021-07-31T10:18:07.000Z</time>
      </trkpt>
      <trkpt lat="49.76472" lon="4.81768">
        <ele>257</ele>
        <time>2021-07-31T10:18:08.000Z</time>
      </trkpt>
      <trkpt lat="49.76472" lon="4.81765">
        <ele>257</ele>
        <time>2021-07-31T10:18:09.000Z</time>
      </trkpt>
      <trkpt lat="49.76471" lon="4.81762">
        <ele>257</ele>
        <time>2021-07-31T10:18:10.000Z</time>
      </trkpt>
      <trkpt lat="49.7647" lon="4.81759">
        <ele>257</ele>
        <time>2021-07-31T10:18:11.000Z</time>
      </trkpt>
      <trkpt lat="49.7647" lon="4.81757">
        <ele>257</ele>
        <time>2021-07-31T10:18:12.000Z</time>
      </trkpt>
      <trkpt lat="49.76469" lon="4.81754">
        <ele>257</ele>
        <time>2021-07-31T10:18:13.000Z</time>
      </trkpt>
      <trkpt lat="49.76468" lon="4.81751">
        <ele>257</ele>
        <time>2021-07-31T10:18:14.000Z</time>
      </trkpt>
      <trkpt lat="49.76467" lon="4.81748">
        <ele>258</ele>
        <time>2021-07-31T10:18:15.000Z</time>
      </trkpt>
      <trkpt lat="49.76467" lon="4.81744">
        <ele>258</ele>
        <time>2021-07-31T10:18:16.000Z</time>
      </trkpt>
      <trkpt lat="49.76466" lon="4.8174">
        <ele>258</ele>
        <time>2021-07-31T10:18:17.000Z</time>
      </trkpt>
      <trkpt lat="49.76465" lon="4.81736">
        <ele>258</ele>
        <time>2021-07-31T10:18:18.000Z</time>
      </trkpt>
      <trkpt lat="49.76464" lon="4.81733">
        <ele>258</ele>
        <time>2021-07-31T10:18:19.000Z</time>
      </trkpt>
      <trkpt lat="49.76463" lon="4.81729">
        <ele>258</ele>
        <time>2021-07-31T10:18:20.000Z</time>
      </trkpt>
      <trkpt lat="49.76462" lon="4.81725">
        <ele>258</ele>
        <time>2021-07-31T10:18:21.000Z</time>
      </trkpt>
      <trkpt lat="49.76461" lon="4.81723">
        <ele>258</ele>
        <time>2021-07-31T10:18:22.000Z</time>
      </trkpt>
      <trkpt lat="49.76461" lon="4.81721">
        <ele>258</ele>
        <time>2021-07-31T10:18:23.000Z</time>
      </trkpt>
      <trkpt lat="49.76461" lon="4.81721">
        <ele>259</ele>
        <time>2021-07-31T10:18:24.000Z</time>
      </trkpt>
      <trkpt lat="49.7646" lon="4.81721">
        <ele>259</ele>
        <time>2021-07-31T10:18:25.000Z</time>
      </trkpt>
      <trkpt lat="49.7646" lon="4.81721">
        <ele>259</ele>
        <time>2021-07-31T10:18:26.000Z</time>
      </trkpt>
      <trkpt lat="49.7646" lon="4.81721">
        <ele>259</ele>
        <time>2021-07-31T10:18:27.000Z</time>
      </trkpt>
      <trkpt lat="49.7646" lon="4.8172">
        <ele>259</ele>
        <time>2021-07-31T10:18:28.000Z</time>
      </trkpt>
      <trkpt lat="49.7646" lon="4.8172">
        <ele>259</ele>
        <time>2021-07-31T10:18:29.000Z</time>
      </trkpt>
      <trkpt lat="49.7646" lon="4.8172">
        <ele>259</ele>
        <time>2021-07-31T10:18:30.000Z</time>
      </trkpt>
      <trkpt lat="49.7646" lon="4.8172">
        <ele>259</ele>
        <time>2021-07-31T10:18:31.000Z</time>
      </trkpt>
      <trkpt lat="49.7646" lon="4.8172">
        <ele>259</ele>
        <time>2021-07-31T10:18:32.000Z</time>
      </trkpt>
      <trkpt lat="49.7646" lon="4.8172">
        <ele>259</ele>
        <time>2021-07-31T10:18:33.000Z</time>
      </trkpt>
      <trkpt lat="49.7646" lon="4.8172">
        <ele>259</ele>
        <time>2021-07-31T10:18:34.000Z</time>
      </trkpt>
      <trkpt lat="49.7646" lon="4.8172">
        <ele>259</ele>
        <time>2021-07-31T10:18:35.000Z</time>
      </trkpt>
      <trkpt lat="49.7646" lon="4.8172">
        <ele>259</ele>
        <time>2021-07-31T10:18:36.000Z</time>
      </trkpt>
      <trkpt lat="49.7646" lon="4.8172">
        <ele>259</ele>
        <time>2021-07-31T10:18:37.000Z</time>
      </trkpt>
      <trkpt lat="49.7646" lon="4.8172">
        <ele>259</ele>
        <time>2021-07-31T10:18:38.000Z</time>
      </trkpt>
      <trkpt lat="49.7646" lon="4.81719">
        <ele>259</ele>
        <time>2021-07-31T10:18:39.000Z</time>
      </trkpt>
      <trkpt lat="49.7646" lon="4.81719">
        <ele>259</ele>
        <time>2021-07-31T10:18:40.000Z</time>
      </trkpt>
      <trkpt lat="49.7646" lon="4.8172">
        <ele>259</ele>
        <time>2021-07-31T10:18:41.000Z</time>
      </trkpt>
      <trkpt lat="49.76459" lon="4.8172">
        <ele>259</ele>
        <time>2021-07-31T10:18:42.000Z</time>
      </trkpt>
      <trkpt lat="49.76459" lon="4.81719">
        <ele>259</ele>
        <time>2021-07-31T10:18:43.000Z</time>
      </trkpt>
      <trkpt lat="49.76459" lon="4.81719">
        <ele>259</ele>
        <time>2021-07-31T10:18:44.000Z</time>
      </trkpt>
      <trkpt lat="49.7646" lon="4.8172">
        <ele>259</ele>
        <time>2021-07-31T10:18:45.000Z</time>
      </trkpt>
      <trkpt lat="49.7646" lon="4.81719">
        <ele>259</ele>
        <time>2021-07-31T10:18:46.000Z</time>
      </trkpt>
      <trkpt lat="49.7646" lon="4.81719">
        <ele>259</ele>
        <time>2021-07-31T10:18:47.000Z</time>
      </trkpt>
      <trkpt lat="49.7646" lon="4.81719">
        <ele>259</ele>
        <time>2021-07-31T10:18:48.000Z</time>
      </trkpt>
      <trkpt lat="49.7646" lon="4.81719">
        <ele>259</ele>
        <time>2021-07-31T10:18:49.000Z</time>
      </trkpt>
      <trkpt lat="49.7646" lon="4.81719">
        <ele>259</ele>
        <time>2021-07-31T10:18:50.000Z</time>
      </trkpt>
      <trkpt lat="49.7646" lon="4.81719">
        <ele>259</ele>
        <time>2021-07-31T10:18:51.000Z</time>
      </trkpt>
      <trkpt lat="49.7646" lon="4.81719">
        <ele>259</ele>
        <time>2021-07-31T10:18:52.000Z</time>
      </trkpt>
      <trkpt lat="49.7646" lon="4.81719">
        <ele>259</ele>
        <time>2021-07-31T10:18:53.000Z</time>
      </trkpt>
      <trkpt lat="49.7646" lon="4.81718">
        <ele>260</ele>
        <time>2021-07-31T10:18:54.000Z</time>
      </trkpt>
      <trkpt lat="49.7646" lon="4.81717">
        <ele>260</ele>
        <time>2021-07-31T10:18:55.000Z</time>
      </trkpt>
      <trkpt lat="49.7646" lon="4.81717">
        <ele>260</ele>
        <time>2021-07-31T10:18:56.000Z</time>
      </trkpt>
      <trkpt lat="49.7646" lon="4.81717">
        <ele>260</ele>
        <time>2021-07-31T10:18:57.000Z</time>
      </trkpt>
      <trkpt lat="49.7646" lon="4.81716">
        <ele>260</ele>
        <time>2021-07-31T10:18:58.000Z</time>
      </trkpt>
      <trkpt lat="49.7646" lon="4.81716">
        <ele>260</ele>
        <time>2021-07-31T10:18:59.000Z</time>
      </trkpt>
      <trkpt lat="49.7646" lon="4.81716">
        <ele>260</ele>
        <time>2021-07-31T10:19:00.000Z</time>
      </trkpt>
      <trkpt lat="49.76461" lon="4.81716">
        <ele>260</ele>
        <time>2021-07-31T10:19:01.000Z</time>
      </trkpt>
      <trkpt lat="49.76461" lon="4.81716">
        <ele>260</ele>
        <time>2021-07-31T10:19:02.000Z</time>
      </trkpt>
      <trkpt lat="49.76461" lon="4.81716">
        <ele>260</ele>
        <time>2021-07-31T10:19:03.000Z</time>
      </trkpt>
      <trkpt lat="49.76461" lon="4.81716">
        <ele>260</ele>
        <time>2021-07-31T10:19:04.000Z</time>
      </trkpt>
      <trkpt lat="49.76461" lon="4.81716">
        <ele>260</ele>
        <time>2021-07-31T10:19:05.000Z</time>
      </trkpt>
      <trkpt lat="49.76461" lon="4.81716">
        <ele>260</ele>
        <time>2021-07-31T10:19:06.000Z</time>
      </trkpt>
      <trkpt lat="49.76461" lon="4.81716">
        <ele>260</ele>
        <time>2021-07-31T10:19:07.000Z</time>
      </trkpt>
      <trkpt lat="49.76461" lon="4.81716">
        <ele>260</ele>
        <time>2021-07-31T10:19:08.000Z</time>
      </trkpt>
      <trkpt lat="49.76461" lon="4.81716">
        <ele>260</ele>
        <time>2021-07-31T10:19:09.000Z</time>
      </trkpt>
      <trkpt lat="49.76461" lon="4.81716">
        <ele>260</ele>
        <time>2021-07-31T10:19:10.000Z</time>
      </trkpt>
      <trkpt lat="49.76461" lon="4.81716">
        <ele>260</ele>
        <time>2021-07-31T10:19:11.000Z</time>
      </trkpt>
      <trkpt lat="49.7646" lon="4.81717">
        <ele>260</ele>
        <time>2021-07-31T10:19:12.000Z</time>
      </trkpt>
      <trkpt lat="49.76461" lon="4.81717">
        <ele>260</ele>
        <time>2021-07-31T10:19:13.000Z</time>
      </trkpt>
      <trkpt lat="49.76461" lon="4.81717">
        <ele>260</ele>
        <time>2021-07-31T10:19:14.000Z</time>
      </trkpt>
      <trkpt lat="49.7646" lon="4.81717">
        <ele>260</ele>
        <time>2021-07-31T10:19:15.000Z</time>
      </trkpt>
      <trkpt lat="49.7646" lon="4.81716">
        <ele>260</ele>
        <time>2021-07-31T10:19:16.000Z</time>
      </trkpt>
      <trkpt lat="49.7646" lon="4.81716">
        <ele>260</ele>
        <time>2021-07-31T10:19:17.000Z</time>
      </trkpt>
      <trkpt lat="49.76461" lon="4.81715">
        <ele>260</ele>
        <time>2021-07-31T10:19:18.000Z</time>
      </trkpt>
      <trkpt lat="49.76461" lon="4.81715">
        <ele>260</ele>
        <time>2021-07-31T10:19:19.000Z</time>
      </trkpt>
      <trkpt lat="49.76461" lon="4.81715">
        <ele>260</ele>
        <time>2021-07-31T10:19:20.000Z</time>
      </trkpt>
      <trkpt lat="49.76461" lon="4.81715">
        <ele>260</ele>
        <time>2021-07-31T10:19:21.000Z</time>
      </trkpt>
      <trkpt lat="49.76461" lon="4.81715">
        <ele>261</ele>
        <time>2021-07-31T10:19:22.000Z</time>
      </trkpt>
      <trkpt lat="49.76461" lon="4.81715">
        <ele>261</ele>
        <time>2021-07-31T10:19:23.000Z</time>
      </trkpt>
      <trkpt lat="49.76461" lon="4.81715">
        <ele>261</ele>
        <time>2021-07-31T10:19:24.000Z</time>
      </trkpt>
      <trkpt lat="49.76461" lon="4.81715">
        <ele>261</ele>
        <time>2021-07-31T10:19:25.000Z</time>
      </trkpt>
      <trkpt lat="49.76461" lon="4.81715">
        <ele>261</ele>
        <time>2021-07-31T10:19:26.000Z</time>
      </trkpt>
      <trkpt lat="49.76461" lon="4.81715">
        <ele>261</ele>
        <time>2021-07-31T10:19:27.000Z</time>
      </trkpt>
      <trkpt lat="49.76461" lon="4.81715">
        <ele>261</ele>
        <time>2021-07-31T10:19:28.000Z</time>
      </trkpt>
      <trkpt lat="49.76461" lon="4.81715">
        <ele>261</ele>
        <time>2021-07-31T10:19:29.000Z</time>
      </trkpt>
      <trkpt lat="49.76461" lon="4.81715">
        <ele>261</ele>
        <time>2021-07-31T10:19:30.000Z</time>
      </trkpt>
      <trkpt lat="49.76461" lon="4.81715">
        <ele>261</ele>
        <time>2021-07-31T10:19:31.000Z</time>
      </trkpt>
      <trkpt lat="49.76461" lon="4.81715">
        <ele>261</ele>
        <time>2021-07-31T10:19:32.000Z</time>
      </trkpt>
      <trkpt lat="49.76461" lon="4.81714">
        <ele>261</ele>
        <time>2021-07-31T10:19:33.000Z</time>
      </trkpt>
      <trkpt lat="49.76461" lon="4.81714">
        <ele>261</ele>
        <time>2021-07-31T10:19:34.000Z</time>
      </trkpt>
      <trkpt lat="49.76461" lon="4.81714">
        <ele>261</ele>
        <time>2021-07-31T10:19:35.000Z</time>
      </trkpt>
      <trkpt lat="49.76461" lon="4.81713">
        <ele>261</ele>
        <time>2021-07-31T10:19:36.000Z</time>
      </trkpt>
      <trkpt lat="49.7646" lon="4.81712">
        <ele>261</ele>
        <time>2021-07-31T10:19:37.000Z</time>
      </trkpt>
      <trkpt lat="49.7646" lon="4.81711">
        <ele>261</ele>
        <time>2021-07-31T10:19:38.000Z</time>
      </trkpt>
      <trkpt lat="49.7646" lon="4.81709">
        <ele>261</ele>
        <time>2021-07-31T10:19:39.000Z</time>
      </trkpt>
      <trkpt lat="49.76459" lon="4.81706">
        <ele>261</ele>
        <time>2021-07-31T10:19:40.000Z</time>
      </trkpt>
      <trkpt lat="49.76458" lon="4.81704">
        <ele>261</ele>
        <time>2021-07-31T10:19:41.000Z</time>
      </trkpt>
      <trkpt lat="49.76458" lon="4.81702">
        <ele>261</ele>
        <time>2021-07-31T10:19:42.000Z</time>
      </trkpt>
      <trkpt lat="49.76457" lon="4.817">
        <ele>261</ele>
        <time>2021-07-31T10:19:43.000Z</time>
      </trkpt>
      <trkpt lat="49.76456" lon="4.81697">
        <ele>261</ele>
        <time>2021-07-31T10:19:44.000Z</time>
      </trkpt>
      <trkpt lat="49.76456" lon="4.81695">
        <ele>261</ele>
        <time>2021-07-31T10:19:45.000Z</time>
      </trkpt>
      <trkpt lat="49.76455" lon="4.81693">
        <ele>261</ele>
        <time>2021-07-31T10:19:46.000Z</time>
      </trkpt>
      <trkpt lat="49.76454" lon="4.8169">
        <ele>261</ele>
        <time>2021-07-31T10:19:47.000Z</time>
      </trkpt>
      <trkpt lat="49.76454" lon="4.81688">
        <ele>261</ele>
        <time>2021-07-31T10:19:48.000Z</time>
      </trkpt>
      <trkpt lat="49.76453" lon="4.81685">
        <ele>261</ele>
        <time>2021-07-31T10:19:49.000Z</time>
      </trkpt>
      <trkpt lat="49.76452" lon="4.81683">
        <ele>261</ele>
        <time>2021-07-31T10:19:50.000Z</time>
      </trkpt>
      <trkpt lat="49.76452" lon="4.8168">
        <ele>261</ele>
        <time>2021-07-31T10:19:51.000Z</time>
      </trkpt>
      <trkpt lat="49.76451" lon="4.81678">
        <ele>261</ele>
        <time>2021-07-31T10:19:52.000Z</time>
      </trkpt>
      <trkpt lat="49.7645" lon="4.81675">
        <ele>261</ele>
        <time>2021-07-31T10:19:53.000Z</time>
      </trkpt>
      <trkpt lat="49.7645" lon="4.81673">
        <ele>261</ele>
        <time>2021-07-31T10:19:54.000Z</time>
      </trkpt>
      <trkpt lat="49.76449" lon="4.81671">
        <ele>262</ele>
        <time>2021-07-31T10:19:55.000Z</time>
      </trkpt>
      <trkpt lat="49.7645" lon="4.81671">
        <ele>262</ele>
        <time>2021-07-31T10:19:56.000Z</time>
      </trkpt>
      <trkpt lat="49.76449" lon="4.8167">
        <ele>262</ele>
        <time>2021-07-31T10:19:57.000Z</time>
      </trkpt>
      <trkpt lat="49.76449" lon="4.8167">
        <ele>262</ele>
        <time>2021-07-31T10:19:58.000Z</time>
      </trkpt>
      <trkpt lat="49.76449" lon="4.8167">
        <ele>262</ele>
        <time>2021-07-31T10:19:59.000Z</time>
      </trkpt>
      <trkpt lat="49.76449" lon="4.8167">
        <ele>262</ele>
        <time>2021-07-31T10:20:00.000Z</time>
      </trkpt>
      <trkpt lat="49.76449" lon="4.8167">
        <ele>262</ele>
        <time>2021-07-31T10:20:01.000Z</time>
      </trkpt>
      <trkpt lat="49.76449" lon="4.8167">
        <ele>262</ele>
        <time>2021-07-31T10:20:02.000Z</time>
      </trkpt>
      <trkpt lat="49.76449" lon="4.81669">
        <ele>262</ele>
        <time>2021-07-31T10:20:03.000Z</time>
      </trkpt>
      <trkpt lat="49.76449" lon="4.81669">
        <ele>262</ele>
        <time>2021-07-31T10:20:04.000Z</time>
      </trkpt>
      <trkpt lat="49.76449" lon="4.81669">
        <ele>262</ele>
        <time>2021-07-31T10:20:05.000Z</time>
      </trkpt>
      <trkpt lat="49.76449" lon="4.81668">
        <ele>262</ele>
        <time>2021-07-31T10:20:06.000Z</time>
      </trkpt>
      <trkpt lat="49.76448" lon="4.81666">
        <ele>262</ele>
        <time>2021-07-31T10:20:07.000Z</time>
      </trkpt>
      <trkpt lat="49.76448" lon="4.81664">
        <ele>262</ele>
        <time>2021-07-31T10:20:08.000Z</time>
      </trkpt>
      <trkpt lat="49.76447" lon="4.81662">
        <ele>262</ele>
        <time>2021-07-31T10:20:09.000Z</time>
      </trkpt>
      <trkpt lat="49.76447" lon="4.8166">
        <ele>263</ele>
        <time>2021-07-31T10:20:10.000Z</time>
      </trkpt>
      <trkpt lat="49.76446" lon="4.81658">
        <ele>263</ele>
        <time>2021-07-31T10:20:11.000Z</time>
      </trkpt>
      <trkpt lat="49.76445" lon="4.81655">
        <ele>263</ele>
        <time>2021-07-31T10:20:12.000Z</time>
      </trkpt>
      <trkpt lat="49.76445" lon="4.81653">
        <ele>263</ele>
        <time>2021-07-31T10:20:13.000Z</time>
      </trkpt>
      <trkpt lat="49.76444" lon="4.81651">
        <ele>263</ele>
        <time>2021-07-31T10:20:14.000Z</time>
      </trkpt>
      <trkpt lat="49.76444" lon="4.81649">
        <ele>263</ele>
        <time>2021-07-31T10:20:15.000Z</time>
      </trkpt>
      <trkpt lat="49.76443" lon="4.81647">
        <ele>263</ele>
        <time>2021-07-31T10:20:16.000Z</time>
      </trkpt>
      <trkpt lat="49.76443" lon="4.81644">
        <ele>264</ele>
        <time>2021-07-31T10:20:17.000Z</time>
      </trkpt>
      <trkpt lat="49.76442" lon="4.81642">
        <ele>264</ele>
        <time>2021-07-31T10:20:18.000Z</time>
      </trkpt>
      <trkpt lat="49.76441" lon="4.8164">
        <ele>264</ele>
        <time>2021-07-31T10:20:19.000Z</time>
      </trkpt>
      <trkpt lat="49.76441" lon="4.81638">
        <ele>264</ele>
        <time>2021-07-31T10:20:20.000Z</time>
      </trkpt>
      <trkpt lat="49.7644" lon="4.81636">
        <ele>264</ele>
        <time>2021-07-31T10:20:21.000Z</time>
      </trkpt>
      <trkpt lat="49.7644" lon="4.81634">
        <ele>264</ele>
        <time>2021-07-31T10:20:22.000Z</time>
      </trkpt>
      <trkpt lat="49.76439" lon="4.81632">
        <ele>265</ele>
        <time>2021-07-31T10:20:23.000Z</time>
      </trkpt>
      <trkpt lat="49.76439" lon="4.8163">
        <ele>265</ele>
        <time>2021-07-31T10:20:24.000Z</time>
      </trkpt>
      <trkpt lat="49.76439" lon="4.81628">
        <ele>265</ele>
        <time>2021-07-31T10:20:25.000Z</time>
      </trkpt>
      <trkpt lat="49.7644" lon="4.81626">
        <ele>265</ele>
        <time>2021-07-31T10:20:26.000Z</time>
      </trkpt>
      <trkpt lat="49.7644" lon="4.81624">
        <ele>266</ele>
        <time>2021-07-31T10:20:27.000Z</time>
      </trkpt>
      <trkpt lat="49.7644" lon="4.81622">
        <ele>266</ele>
        <time>2021-07-31T10:20:28.000Z</time>
      </trkpt>
      <trkpt lat="49.7644" lon="4.8162">
        <ele>266</ele>
        <time>2021-07-31T10:20:29.000Z</time>
      </trkpt>
      <trkpt lat="49.7644" lon="4.81618">
        <ele>266</ele>
        <time>2021-07-31T10:20:30.000Z</time>
      </trkpt>
      <trkpt lat="49.76439" lon="4.81616">
        <ele>267</ele>
        <time>2021-07-31T10:20:31.000Z</time>
      </trkpt>
      <trkpt lat="49.76439" lon="4.81614">
        <ele>267</ele>
        <time>2021-07-31T10:20:32.000Z</time>
      </trkpt>
      <trkpt lat="49.76439" lon="4.81612">
        <ele>267</ele>
        <time>2021-07-31T10:20:33.000Z</time>
      </trkpt>
      <trkpt lat="49.76438" lon="4.81611">
        <ele>267</ele>
        <time>2021-07-31T10:20:34.000Z</time>
      </trkpt>
      <trkpt lat="49.76438" lon="4.81609">
        <ele>267</ele>
        <time>2021-07-31T10:20:35.000Z</time>
      </trkpt>
      <trkpt lat="49.76437" lon="4.81607">
        <ele>267</ele>
        <time>2021-07-31T10:20:36.000Z</time>
      </trkpt>
      <trkpt lat="49.76437" lon="4.81605">
        <ele>267</ele>
        <time>2021-07-31T10:20:37.000Z</time>
      </trkpt>
      <trkpt lat="49.76436" lon="4.81603">
        <ele>267</ele>
        <time>2021-07-31T10:20:38.000Z</time>
      </trkpt>
      <trkpt lat="49.76436" lon="4.81601">
        <ele>267</ele>
        <time>2021-07-31T10:20:39.000Z</time>
      </trkpt>
      <trkpt lat="49.76435" lon="4.81599">
        <ele>267</ele>
        <time>2021-07-31T10:20:40.000Z</time>
      </trkpt>
      <trkpt lat="49.76435" lon="4.81597">
        <ele>267</ele>
        <time>2021-07-31T10:20:41.000Z</time>
      </trkpt>
      <trkpt lat="49.76435" lon="4.81595">
        <ele>268</ele>
        <time>2021-07-31T10:20:42.000Z</time>
      </trkpt>
      <trkpt lat="49.76435" lon="4.81593">
        <ele>268</ele>
        <time>2021-07-31T10:20:43.000Z</time>
      </trkpt>
      <trkpt lat="49.76435" lon="4.8159">
        <ele>268</ele>
        <time>2021-07-31T10:20:44.000Z</time>
      </trkpt>
      <trkpt lat="49.76435" lon="4.81588">
        <ele>268</ele>
        <time>2021-07-31T10:20:45.000Z</time>
      </trkpt>
      <trkpt lat="49.76435" lon="4.81586">
        <ele>268</ele>
        <time>2021-07-31T10:20:46.000Z</time>
      </trkpt>
      <trkpt lat="49.76434" lon="4.81584">
        <ele>269</ele>
        <time>2021-07-31T10:20:47.000Z</time>
      </trkpt>
      <trkpt lat="49.76433" lon="4.81582">
        <ele>269</ele>
        <time>2021-07-31T10:20:48.000Z</time>
      </trkpt>
      <trkpt lat="49.76432" lon="4.8158">
        <ele>269</ele>
        <time>2021-07-31T10:20:49.000Z</time>
      </trkpt>
      <trkpt lat="49.76431" lon="4.81577">
        <ele>269</ele>
        <time>2021-07-31T10:20:50.000Z</time>
      </trkpt>
      <trkpt lat="49.76431" lon="4.81575">
        <ele>270</ele>
        <time>2021-07-31T10:20:51.000Z</time>
      </trkpt>
      <trkpt lat="49.7643" lon="4.81573">
        <ele>270</ele>
        <time>2021-07-31T10:20:52.000Z</time>
      </trkpt>
      <trkpt lat="49.76429" lon="4.81571">
        <ele>270</ele>
        <time>2021-07-31T10:20:53.000Z</time>
      </trkpt>
      <trkpt lat="49.76428" lon="4.81569">
        <ele>271</ele>
        <time>2021-07-31T10:20:54.000Z</time>
      </trkpt>
      <trkpt lat="49.76427" lon="4.81567">
        <ele>271</ele>
        <time>2021-07-31T10:20:55.000Z</time>
      </trkpt>
      <trkpt lat="49.76427" lon="4.81565">
        <ele>271</ele>
        <time>2021-07-31T10:20:56.000Z</time>
      </trkpt>
      <trkpt lat="49.76426" lon="4.81563">
        <ele>271</ele>
        <time>2021-07-31T10:20:57.000Z</time>
      </trkpt>
      <trkpt lat="49.76426" lon="4.81561">
        <ele>272</ele>
        <time>2021-07-31T10:20:58.000Z</time>
      </trkpt>
      <trkpt lat="49.76426" lon="4.81559">
        <ele>272</ele>
        <time>2021-07-31T10:20:59.000Z</time>
      </trkpt>
      <trkpt lat="49.76425" lon="4.81557">
        <ele>272</ele>
        <time>2021-07-31T10:21:00.000Z</time>
      </trkpt>
      <trkpt lat="49.76424" lon="4.81555">
        <ele>273</ele>
        <time>2021-07-31T10:21:01.000Z</time>
      </trkpt>
      <trkpt lat="49.76424" lon="4.81552">
        <ele>273</ele>
        <time>2021-07-31T10:21:02.000Z</time>
      </trkpt>
      <trkpt lat="49.76423" lon="4.8155">
        <ele>273</ele>
        <time>2021-07-31T10:21:03.000Z</time>
      </trkpt>
      <trkpt lat="49.76422" lon="4.81548">
        <ele>274</ele>
        <time>2021-07-31T10:21:04.000Z</time>
      </trkpt>
      <trkpt lat="49.76421" lon="4.81546">
        <ele>274</ele>
        <time>2021-07-31T10:21:05.000Z</time>
      </trkpt>
      <trkpt lat="49.7642" lon="4.81544">
        <ele>274</ele>
        <time>2021-07-31T10:21:06.000Z</time>
      </trkpt>
      <trkpt lat="49.76419" lon="4.81542">
        <ele>275</ele>
        <time>2021-07-31T10:21:07.000Z</time>
      </trkpt>
      <trkpt lat="49.76417" lon="4.8154">
        <ele>275</ele>
        <time>2021-07-31T10:21:08.000Z</time>
      </trkpt>
      <trkpt lat="49.76416" lon="4.81538">
        <ele>275</ele>
        <time>2021-07-31T10:21:09.000Z</time>
      </trkpt>
      <trkpt lat="49.76415" lon="4.81536">
        <ele>276</ele>
        <time>2021-07-31T10:21:10.000Z</time>
      </trkpt>
      <trkpt lat="49.76414" lon="4.81534">
        <ele>276</ele>
        <time>2021-07-31T10:21:11.000Z</time>
      </trkpt>
      <trkpt lat="49.76413" lon="4.81533">
        <ele>276</ele>
        <time>2021-07-31T10:21:12.000Z</time>
      </trkpt>
      <trkpt lat="49.76412" lon="4.81531">
        <ele>276</ele>
        <time>2021-07-31T10:21:13.000Z</time>
      </trkpt>
      <trkpt lat="49.76411" lon="4.81529">
        <ele>276</ele>
        <time>2021-07-31T10:21:14.000Z</time>
      </trkpt>
      <trkpt lat="49.7641" lon="4.81527">
        <ele>276</ele>
        <time>2021-07-31T10:21:15.000Z</time>
      </trkpt>
      <trkpt lat="49.76409" lon="4.81525">
        <ele>277</ele>
        <time>2021-07-31T10:21:16.000Z</time>
      </trkpt>
      <trkpt lat="49.76408" lon="4.81523">
        <ele>277</ele>
        <time>2021-07-31T10:21:17.000Z</time>
      </trkpt>
      <trkpt lat="49.76407" lon="4.81522">
        <ele>277</ele>
        <time>2021-07-31T10:21:18.000Z</time>
      </trkpt>
      <trkpt lat="49.76405" lon="4.8152">
        <ele>277</ele>
        <time>2021-07-31T10:21:19.000Z</time>
      </trkpt>
      <trkpt lat="49.76404" lon="4.81518">
        <ele>277</ele>
        <time>2021-07-31T10:21:20.000Z</time>
      </trkpt>
      <trkpt lat="49.76403" lon="4.81516">
        <ele>277</ele>
        <time>2021-07-31T10:21:21.000Z</time>
      </trkpt>
      <trkpt lat="49.76402" lon="4.81514">
        <ele>277</ele>
        <time>2021-07-31T10:21:22.000Z</time>
      </trkpt>
      <trkpt lat="49.76401" lon="4.81512">
        <ele>278</ele>
        <time>2021-07-31T10:21:23.000Z</time>
      </trkpt>
      <trkpt lat="49.764" lon="4.8151">
        <ele>278</ele>
        <time>2021-07-31T10:21:24.000Z</time>
      </trkpt>
      <trkpt lat="49.76398" lon="4.81509">
        <ele>278</ele>
        <time>2021-07-31T10:21:25.000Z</time>
      </trkpt>
      <trkpt lat="49.76397" lon="4.81506">
        <ele>278</ele>
        <time>2021-07-31T10:21:26.000Z</time>
      </trkpt>
      <trkpt lat="49.76396" lon="4.81504">
        <ele>278</ele>
        <time>2021-07-31T10:21:27.000Z</time>
      </trkpt>
      <trkpt lat="49.76395" lon="4.81502">
        <ele>278</ele>
        <time>2021-07-31T10:21:28.000Z</time>
      </trkpt>
      <trkpt lat="49.76394" lon="4.81501">
        <ele>279</ele>
        <time>2021-07-31T10:21:29.000Z</time>
      </trkpt>
      <trkpt lat="49.76392" lon="4.81499">
        <ele>279</ele>
        <time>2021-07-31T10:21:30.000Z</time>
      </trkpt>
      <trkpt lat="49.76391" lon="4.81497">
        <ele>279</ele>
        <time>2021-07-31T10:21:31.000Z</time>
      </trkpt>
      <trkpt lat="49.7639" lon="4.81495">
        <ele>279</ele>
        <time>2021-07-31T10:21:32.000Z</time>
      </trkpt>
      <trkpt lat="49.76389" lon="4.81493">
        <ele>279</ele>
        <time>2021-07-31T10:21:33.000Z</time>
      </trkpt>
      <trkpt lat="49.76387" lon="4.81491">
        <ele>279</ele>
        <time>2021-07-31T10:21:34.000Z</time>
      </trkpt>
      <trkpt lat="49.76386" lon="4.81489">
        <ele>280</ele>
        <time>2021-07-31T10:21:35.000Z</time>
      </trkpt>
      <trkpt lat="49.76385" lon="4.81487">
        <ele>280</ele>
        <time>2021-07-31T10:21:36.000Z</time>
      </trkpt>
      <trkpt lat="49.76384" lon="4.81485">
        <ele>280</ele>
        <time>2021-07-31T10:21:37.000Z</time>
      </trkpt>
      <trkpt lat="49.76383" lon="4.81484">
        <ele>280</ele>
        <time>2021-07-31T10:21:38.000Z</time>
      </trkpt>
      <trkpt lat="49.76381" lon="4.81482">
        <ele>280</ele>
        <time>2021-07-31T10:21:39.000Z</time>
      </trkpt>
      <trkpt lat="49.7638" lon="4.8148">
        <ele>280</ele>
        <time>2021-07-31T10:21:40.000Z</time>
      </trkpt>
      <trkpt lat="49.76379" lon="4.81479">
        <ele>280</ele>
        <time>2021-07-31T10:21:41.000Z</time>
      </trkpt>
      <trkpt lat="49.76377" lon="4.81477">
        <ele>280</ele>
        <time>2021-07-31T10:21:42.000Z</time>
      </trkpt>
      <trkpt lat="49.76376" lon="4.81476">
        <ele>280</ele>
        <time>2021-07-31T10:21:43.000Z</time>
      </trkpt>
      <trkpt lat="49.76375" lon="4.81474">
        <ele>280</ele>
        <time>2021-07-31T10:21:44.000Z</time>
      </trkpt>
      <trkpt lat="49.76374" lon="4.81473">
        <ele>280</ele>
        <time>2021-07-31T10:21:45.000Z</time>
      </trkpt>
      <trkpt lat="49.76372" lon="4.81472">
        <ele>280</ele>
        <time>2021-07-31T10:21:46.000Z</time>
      </trkpt>
      <trkpt lat="49.76371" lon="4.81471">
        <ele>280</ele>
        <time>2021-07-31T10:21:47.000Z</time>
      </trkpt>
      <trkpt lat="49.76369" lon="4.8147">
        <ele>280</ele>
        <time>2021-07-31T10:21:48.000Z</time>
      </trkpt>
      <trkpt lat="49.76368" lon="4.8147">
        <ele>280</ele>
        <time>2021-07-31T10:21:49.000Z</time>
      </trkpt>
      <trkpt lat="49.76367" lon="4.81469">
        <ele>280</ele>
        <time>2021-07-31T10:21:50.000Z</time>
      </trkpt>
      <trkpt lat="49.76365" lon="4.81468">
        <ele>280</ele>
        <time>2021-07-31T10:21:51.000Z</time>
      </trkpt>
      <trkpt lat="49.76365" lon="4.81467">
        <ele>280</ele>
        <time>2021-07-31T10:21:52.000Z</time>
      </trkpt>
      <trkpt lat="49.76363" lon="4.81466">
        <ele>280</ele>
        <time>2021-07-31T10:21:53.000Z</time>
      </trkpt>
      <trkpt lat="49.76362" lon="4.81466">
        <ele>280</ele>
        <time>2021-07-31T10:21:54.000Z</time>
      </trkpt>
      <trkpt lat="49.7636" lon="4.81465">
        <ele>280</ele>
        <time>2021-07-31T10:21:55.000Z</time>
      </trkpt>
      <trkpt lat="49.76358" lon="4.81465">
        <ele>280</ele>
        <time>2021-07-31T10:21:56.000Z</time>
      </trkpt>
      <trkpt lat="49.76356" lon="4.81464">
        <ele>280</ele>
        <time>2021-07-31T10:21:57.000Z</time>
      </trkpt>
      <trkpt lat="49.76355" lon="4.81464">
        <ele>280</ele>
        <time>2021-07-31T10:21:58.000Z</time>
      </trkpt>
      <trkpt lat="49.76354" lon="4.81463">
        <ele>280</ele>
        <time>2021-07-31T10:21:59.000Z</time>
      </trkpt>
      <trkpt lat="49.76352" lon="4.81463">
        <ele>280</ele>
        <time>2021-07-31T10:22:00.000Z</time>
      </trkpt>
      <trkpt lat="49.7635" lon="4.81462">
        <ele>281</ele>
        <time>2021-07-31T10:22:01.000Z</time>
      </trkpt>
      <trkpt lat="49.76349" lon="4.81462">
        <ele>281</ele>
        <time>2021-07-31T10:22:02.000Z</time>
      </trkpt>
      <trkpt lat="49.76347" lon="4.81461">
        <ele>281</ele>
        <time>2021-07-31T10:22:03.000Z</time>
      </trkpt>
      <trkpt lat="49.76346" lon="4.8146">
        <ele>281</ele>
        <time>2021-07-31T10:22:04.000Z</time>
      </trkpt>
      <trkpt lat="49.76344" lon="4.8146">
        <ele>281</ele>
        <time>2021-07-31T10:22:05.000Z</time>
      </trkpt>
      <trkpt lat="49.76343" lon="4.81459">
        <ele>281</ele>
        <time>2021-07-31T10:22:06.000Z</time>
      </trkpt>
      <trkpt lat="49.76341" lon="4.81459">
        <ele>281</ele>
        <time>2021-07-31T10:22:07.000Z</time>
      </trkpt>
      <trkpt lat="49.76341" lon="4.81459">
        <ele>281</ele>
        <time>2021-07-31T10:22:08.000Z</time>
      </trkpt>
      <trkpt lat="49.76341" lon="4.81459">
        <ele>281</ele>
        <time>2021-07-31T10:22:09.000Z</time>
      </trkpt>
      <trkpt lat="49.76339" lon="4.81459">
        <ele>281</ele>
        <time>2021-07-31T10:22:10.000Z</time>
      </trkpt>
      <trkpt lat="49.76337" lon="4.81459">
        <ele>281</ele>
        <time>2021-07-31T10:22:11.000Z</time>
      </trkpt>
      <trkpt lat="49.76335" lon="4.81459">
        <ele>281</ele>
        <time>2021-07-31T10:22:12.000Z</time>
      </trkpt>
      <trkpt lat="49.76333" lon="4.81459">
        <ele>281</ele>
        <time>2021-07-31T10:22:13.000Z</time>
      </trkpt>
      <trkpt lat="49.7633" lon="4.81459">
        <ele>281</ele>
        <time>2021-07-31T10:22:14.000Z</time>
      </trkpt>
      <trkpt lat="49.76327" lon="4.81458">
        <ele>281</ele>
        <time>2021-07-31T10:22:15.000Z</time>
      </trkpt>
      <trkpt lat="49.76324" lon="4.81457">
        <ele>280</ele>
        <time>2021-07-31T10:22:16.000Z</time>
      </trkpt>
      <trkpt lat="49.76321" lon="4.81457">
        <ele>280</ele>
        <time>2021-07-31T10:22:17.000Z</time>
      </trkpt>
      <trkpt lat="49.76318" lon="4.81456">
        <ele>280</ele>
        <time>2021-07-31T10:22:18.000Z</time>
      </trkpt>
      <trkpt lat="49.76314" lon="4.81456">
        <ele>280</ele>
        <time>2021-07-31T10:22:19.000Z</time>
      </trkpt>
      <trkpt lat="49.7631" lon="4.81455">
        <ele>280</ele>
        <time>2021-07-31T10:22:20.000Z</time>
      </trkpt>
      <trkpt lat="49.76306" lon="4.81455">
        <ele>280</ele>
        <time>2021-07-31T10:22:21.000Z</time>
      </trkpt>
      <trkpt lat="49.76302" lon="4.81455">
        <ele>279</ele>
        <time>2021-07-31T10:22:22.000Z</time>
      </trkpt>
      <trkpt lat="49.76297" lon="4.81455">
        <ele>279</ele>
        <time>2021-07-31T10:22:23.000Z</time>
      </trkpt>
      <trkpt lat="49.76292" lon="4.81455">
        <ele>279</ele>
        <time>2021-07-31T10:22:24.000Z</time>
      </trkpt>
      <trkpt lat="49.76286" lon="4.81455">
        <ele>279</ele>
        <time>2021-07-31T10:22:25.000Z</time>
      </trkpt>
      <trkpt lat="49.7628" lon="4.81454">
        <ele>278</ele>
        <time>2021-07-31T10:22:26.000Z</time>
      </trkpt>
      <trkpt lat="49.76274" lon="4.81454">
        <ele>278</ele>
        <time>2021-07-31T10:22:27.000Z</time>
      </trkpt>
      <trkpt lat="49.76268" lon="4.81452">
        <ele>278</ele>
        <time>2021-07-31T10:22:28.000Z</time>
      </trkpt>
      <trkpt lat="49.76262" lon="4.81451">
        <ele>278</ele>
        <time>2021-07-31T10:22:29.000Z</time>
      </trkpt>
      <trkpt lat="49.76256" lon="4.81448">
        <ele>277</ele>
        <time>2021-07-31T10:22:30.000Z</time>
      </trkpt>
      <trkpt lat="49.76249" lon="4.81447">
        <ele>277</ele>
        <time>2021-07-31T10:22:31.000Z</time>
      </trkpt>
      <trkpt lat="49.76243" lon="4.81447">
        <ele>277</ele>
        <time>2021-07-31T10:22:32.000Z</time>
      </trkpt>
      <trkpt lat="49.76236" lon="4.81446">
        <ele>276</ele>
        <time>2021-07-31T10:22:33.000Z</time>
      </trkpt>
      <trkpt lat="49.7623" lon="4.81446">
        <ele>276</ele>
        <time>2021-07-31T10:22:34.000Z</time>
      </trkpt>
      <trkpt lat="49.76224" lon="4.81446">
        <ele>276</ele>
        <time>2021-07-31T10:22:35.000Z</time>
      </trkpt>
      <trkpt lat="49.76218" lon="4.81447">
        <ele>275</ele>
        <time>2021-07-31T10:22:36.000Z</time>
      </trkpt>
      <trkpt lat="49.76212" lon="4.81448">
        <ele>275</ele>
        <time>2021-07-31T10:22:37.000Z</time>
      </trkpt>
      <trkpt lat="49.76206" lon="4.81449">
        <ele>274</ele>
        <time>2021-07-31T10:22:38.000Z</time>
      </trkpt>
      <trkpt lat="49.762" lon="4.81449">
        <ele>274</ele>
        <time>2021-07-31T10:22:39.000Z</time>
      </trkpt>
      <trkpt lat="49.76194" lon="4.81449">
        <ele>274</ele>
        <time>2021-07-31T10:22:40.000Z</time>
      </trkpt>
      <trkpt lat="49.76188" lon="4.81448">
        <ele>273</ele>
        <time>2021-07-31T10:22:41.000Z</time>
      </trkpt>
      <trkpt lat="49.76181" lon="4.81448">
        <ele>273</ele>
        <time>2021-07-31T10:22:42.000Z</time>
      </trkpt>
      <trkpt lat="49.76175" lon="4.81447">
        <ele>273</ele>
        <time>2021-07-31T10:22:43.000Z</time>
      </trkpt>
      <trkpt lat="49.76169" lon="4.81446">
        <ele>273</ele>
        <time>2021-07-31T10:22:44.000Z</time>
      </trkpt>
      <trkpt lat="49.76163" lon="4.81444">
        <ele>273</ele>
        <time>2021-07-31T10:22:45.000Z</time>
      </trkpt>
      <trkpt lat="49.76157" lon="4.81443">
        <ele>272</ele>
        <time>2021-07-31T10:22:46.000Z</time>
      </trkpt>
      <trkpt lat="49.76152" lon="4.81441">
        <ele>272</ele>
        <time>2021-07-31T10:22:47.000Z</time>
      </trkpt>
      <trkpt lat="49.76146" lon="4.8144">
        <ele>272</ele>
        <time>2021-07-31T10:22:48.000Z</time>
      </trkpt>
      <trkpt lat="49.76141" lon="4.81439">
        <ele>272</ele>
        <time>2021-07-31T10:22:49.000Z</time>
      </trkpt>
      <trkpt lat="49.76136" lon="4.81438">
        <ele>272</ele>
        <time>2021-07-31T10:22:50.000Z</time>
      </trkpt>
      <trkpt lat="49.76131" lon="4.81438">
        <ele>272</ele>
        <time>2021-07-31T10:22:51.000Z</time>
      </trkpt>
      <trkpt lat="49.76125" lon="4.81437">
        <ele>272</ele>
        <time>2021-07-31T10:22:52.000Z</time>
      </trkpt>
      <trkpt lat="49.7612" lon="4.81436">
        <ele>272</ele>
        <time>2021-07-31T10:22:53.000Z</time>
      </trkpt>
      <trkpt lat="49.76115" lon="4.81435">
        <ele>271</ele>
        <time>2021-07-31T10:22:54.000Z</time>
      </trkpt>
      <trkpt lat="49.7611" lon="4.81434">
        <ele>271</ele>
        <time>2021-07-31T10:22:55.000Z</time>
      </trkpt>
      <trkpt lat="49.76105" lon="4.81432">
        <ele>271</ele>
        <time>2021-07-31T10:22:56.000Z</time>
      </trkpt>
      <trkpt lat="49.761" lon="4.81429">
        <ele>271</ele>
        <time>2021-07-31T10:22:57.000Z</time>
      </trkpt>
      <trkpt lat="49.76095" lon="4.81426">
        <ele>271</ele>
        <time>2021-07-31T10:22:58.000Z</time>
      </trkpt>
      <trkpt lat="49.76091" lon="4.81423">
        <ele>271</ele>
        <time>2021-07-31T10:22:59.000Z</time>
      </trkpt>
      <trkpt lat="49.76087" lon="4.81419">
        <ele>271</ele>
        <time>2021-07-31T10:23:00.000Z</time>
      </trkpt>
      <trkpt lat="49.76083" lon="4.81417">
        <ele>271</ele>
        <time>2021-07-31T10:23:01.000Z</time>
      </trkpt>
      <trkpt lat="49.76079" lon="4.81415">
        <ele>270</ele>
        <time>2021-07-31T10:23:02.000Z</time>
      </trkpt>
      <trkpt lat="49.76075" lon="4.81412">
        <ele>270</ele>
        <time>2021-07-31T10:23:03.000Z</time>
      </trkpt>
      <trkpt lat="49.76071" lon="4.81409">
        <ele>270</ele>
        <time>2021-07-31T10:23:04.000Z</time>
      </trkpt>
      <trkpt lat="49.76068" lon="4.81406">
        <ele>270</ele>
        <time>2021-07-31T10:23:05.000Z</time>
      </trkpt>
      <trkpt lat="49.76065" lon="4.81403">
        <ele>270</ele>
        <time>2021-07-31T10:23:06.000Z</time>
      </trkpt>
      <trkpt lat="49.76061" lon="4.814">
        <ele>270</ele>
        <time>2021-07-31T10:23:07.000Z</time>
      </trkpt>
      <trkpt lat="49.76057" lon="4.81398">
        <ele>270</ele>
        <time>2021-07-31T10:23:08.000Z</time>
      </trkpt>
      <trkpt lat="49.76054" lon="4.81395">
        <ele>270</ele>
        <time>2021-07-31T10:23:09.000Z</time>
      </trkpt>
      <trkpt lat="49.76051" lon="4.81393">
        <ele>270</ele>
        <time>2021-07-31T10:23:10.000Z</time>
      </trkpt>
      <trkpt lat="49.76048" lon="4.8139">
        <ele>269</ele>
        <time>2021-07-31T10:23:11.000Z</time>
      </trkpt>
      <trkpt lat="49.76044" lon="4.81388">
        <ele>269</ele>
        <time>2021-07-31T10:23:12.000Z</time>
      </trkpt>
      <trkpt lat="49.76042" lon="4.81386">
        <ele>269</ele>
        <time>2021-07-31T10:23:13.000Z</time>
      </trkpt>
      <trkpt lat="49.76039" lon="4.81385">
        <ele>269</ele>
        <time>2021-07-31T10:23:14.000Z</time>
      </trkpt>
      <trkpt lat="49.76036" lon="4.81383">
        <ele>269</ele>
        <time>2021-07-31T10:23:15.000Z</time>
      </trkpt>
      <trkpt lat="49.76033" lon="4.81381">
        <ele>269</ele>
        <time>2021-07-31T10:23:16.000Z</time>
      </trkpt>
      <trkpt lat="49.7603" lon="4.81379">
        <ele>270</ele>
        <time>2021-07-31T10:23:17.000Z</time>
      </trkpt>
      <trkpt lat="49.76027" lon="4.81377">
        <ele>270</ele>
        <time>2021-07-31T10:23:18.000Z</time>
      </trkpt>
      <trkpt lat="49.76024" lon="4.81375">
        <ele>270</ele>
        <time>2021-07-31T10:23:19.000Z</time>
      </trkpt>
      <trkpt lat="49.76021" lon="4.81373">
        <ele>270</ele>
        <time>2021-07-31T10:23:20.000Z</time>
      </trkpt>
      <trkpt lat="49.76018" lon="4.81372">
        <ele>270</ele>
        <time>2021-07-31T10:23:21.000Z</time>
      </trkpt>
      <trkpt lat="49.76015" lon="4.81371">
        <ele>270</ele>
        <time>2021-07-31T10:23:22.000Z</time>
      </trkpt>
      <trkpt lat="49.76013" lon="4.81369">
        <ele>270</ele>
        <time>2021-07-31T10:23:23.000Z</time>
      </trkpt>
      <trkpt lat="49.7601" lon="4.81367">
        <ele>270</ele>
        <time>2021-07-31T10:23:24.000Z</time>
      </trkpt>
      <trkpt lat="49.76008" lon="4.81365">
        <ele>270</ele>
        <time>2021-07-31T10:23:25.000Z</time>
      </trkpt>
      <trkpt lat="49.76005" lon="4.81364">
        <ele>270</ele>
        <time>2021-07-31T10:23:26.000Z</time>
      </trkpt>
      <trkpt lat="49.76002" lon="4.81363">
        <ele>270</ele>
        <time>2021-07-31T10:23:27.000Z</time>
      </trkpt>
      <trkpt lat="49.75999" lon="4.81362">
        <ele>270</ele>
        <time>2021-07-31T10:23:28.000Z</time>
      </trkpt>
      <trkpt lat="49.75997" lon="4.81361">
        <ele>270</ele>
        <time>2021-07-31T10:23:29.000Z</time>
      </trkpt>
      <trkpt lat="49.75995" lon="4.81361">
        <ele>270</ele>
        <time>2021-07-31T10:23:30.000Z</time>
      </trkpt>
      <trkpt lat="49.75994" lon="4.8136">
        <ele>270</ele>
        <time>2021-07-31T10:23:31.000Z</time>
      </trkpt>
      <trkpt lat="49.75991" lon="4.81359">
        <ele>270</ele>
        <time>2021-07-31T10:23:32.000Z</time>
      </trkpt>
      <trkpt lat="49.7599" lon="4.81357">
        <ele>270</ele>
        <time>2021-07-31T10:23:33.000Z</time>
      </trkpt>
      <trkpt lat="49.75987" lon="4.81356">
        <ele>269</ele>
        <time>2021-07-31T10:23:34.000Z</time>
      </trkpt>
      <trkpt lat="49.75985" lon="4.81354">
        <ele>269</ele>
        <time>2021-07-31T10:23:35.000Z</time>
      </trkpt>
      <trkpt lat="49.75982" lon="4.81352">
        <ele>269</ele>
        <time>2021-07-31T10:23:36.000Z</time>
      </trkpt>
      <trkpt lat="49.75979" lon="4.8135">
        <ele>269</ele>
        <time>2021-07-31T10:23:37.000Z</time>
      </trkpt>
      <trkpt lat="49.75976" lon="4.81349">
        <ele>269</ele>
        <time>2021-07-31T10:23:38.000Z</time>
      </trkpt>
      <trkpt lat="49.75974" lon="4.81347">
        <ele>269</ele>
        <time>2021-07-31T10:23:39.000Z</time>
      </trkpt>
      <trkpt lat="49.75971" lon="4.81346">
        <ele>269</ele>
        <time>2021-07-31T10:23:40.000Z</time>
      </trkpt>
      <trkpt lat="49.75968" lon="4.81346">
        <ele>269</ele>
        <time>2021-07-31T10:23:41.000Z</time>
      </trkpt>
      <trkpt lat="49.75965" lon="4.81344">
        <ele>268</ele>
        <time>2021-07-31T10:23:42.000Z</time>
      </trkpt>
      <trkpt lat="49.75962" lon="4.81343">
        <ele>268</ele>
        <time>2021-07-31T10:23:43.000Z</time>
      </trkpt>
      <trkpt lat="49.75959" lon="4.81342">
        <ele>268</ele>
        <time>2021-07-31T10:23:44.000Z</time>
      </trkpt>
      <trkpt lat="49.75956" lon="4.8134">
        <ele>268</ele>
        <time>2021-07-31T10:23:45.000Z</time>
      </trkpt>
      <trkpt lat="49.75953" lon="4.8134">
        <ele>268</ele>
        <time>2021-07-31T10:23:46.000Z</time>
      </trkpt>
      <trkpt lat="49.7595" lon="4.81339">
        <ele>268</ele>
        <time>2021-07-31T10:23:47.000Z</time>
      </trkpt>
      <trkpt lat="49.75947" lon="4.81338">
        <ele>268</ele>
        <time>2021-07-31T10:23:48.000Z</time>
      </trkpt>
      <trkpt lat="49.75945" lon="4.81336">
        <ele>268</ele>
        <time>2021-07-31T10:23:49.000Z</time>
      </trkpt>
      <trkpt lat="49.75943" lon="4.81335">
        <ele>268</ele>
        <time>2021-07-31T10:23:50.000Z</time>
      </trkpt>
      <trkpt lat="49.7594" lon="4.81333">
        <ele>267</ele>
        <time>2021-07-31T10:23:51.000Z</time>
      </trkpt>
      <trkpt lat="49.75938" lon="4.81332">
        <ele>267</ele>
        <time>2021-07-31T10:23:52.000Z</time>
      </trkpt>
      <trkpt lat="49.75935" lon="4.81331">
        <ele>267</ele>
        <time>2021-07-31T10:23:53.000Z</time>
      </trkpt>
      <trkpt lat="49.75932" lon="4.8133">
        <ele>267</ele>
        <time>2021-07-31T10:23:54.000Z</time>
      </trkpt>
      <trkpt lat="49.75929" lon="4.81329">
        <ele>266</ele>
        <time>2021-07-31T10:23:55.000Z</time>
      </trkpt>
      <trkpt lat="49.75926" lon="4.81329">
        <ele>266</ele>
        <time>2021-07-31T10:23:56.000Z</time>
      </trkpt>
      <trkpt lat="49.75922" lon="4.81328">
        <ele>266</ele>
        <time>2021-07-31T10:23:57.000Z</time>
      </trkpt>
      <trkpt lat="49.75919" lon="4.81328">
        <ele>266</ele>
        <time>2021-07-31T10:23:58.000Z</time>
      </trkpt>
      <trkpt lat="49.75916" lon="4.81328">
        <ele>266</ele>
        <time>2021-07-31T10:23:59.000Z</time>
      </trkpt>
      <trkpt lat="49.75913" lon="4.81328">
        <ele>265</ele>
        <time>2021-07-31T10:24:00.000Z</time>
      </trkpt>
      <trkpt lat="49.75909" lon="4.81329">
        <ele>265</ele>
        <time>2021-07-31T10:24:01.000Z</time>
      </trkpt>
      <trkpt lat="49.75906" lon="4.8133">
        <ele>265</ele>
        <time>2021-07-31T10:24:02.000Z</time>
      </trkpt>
      <trkpt lat="49.75903" lon="4.81332">
        <ele>265</ele>
        <time>2021-07-31T10:24:03.000Z</time>
      </trkpt>
      <trkpt lat="49.75899" lon="4.81333">
        <ele>265</ele>
        <time>2021-07-31T10:24:04.000Z</time>
      </trkpt>
      <trkpt lat="49.75896" lon="4.81335">
        <ele>265</ele>
        <time>2021-07-31T10:24:05.000Z</time>
      </trkpt>
      <trkpt lat="49.75892" lon="4.81336">
        <ele>264</ele>
        <time>2021-07-31T10:24:06.000Z</time>
      </trkpt>
      <trkpt lat="49.75889" lon="4.81338">
        <ele>264</ele>
        <time>2021-07-31T10:24:07.000Z</time>
      </trkpt>
      <trkpt lat="49.75885" lon="4.81339">
        <ele>264</ele>
        <time>2021-07-31T10:24:08.000Z</time>
      </trkpt>
      <trkpt lat="49.75881" lon="4.81341">
        <ele>264</ele>
        <time>2021-07-31T10:24:09.000Z</time>
      </trkpt>
      <trkpt lat="49.75878" lon="4.81342">
        <ele>264</ele>
        <time>2021-07-31T10:24:10.000Z</time>
      </trkpt>
      <trkpt lat="49.75874" lon="4.81344">
        <ele>264</ele>
        <time>2021-07-31T10:24:11.000Z</time>
      </trkpt>
      <trkpt lat="49.7587" lon="4.81346">
        <ele>264</ele>
        <time>2021-07-31T10:24:12.000Z</time>
      </trkpt>
      <trkpt lat="49.75867" lon="4.81348">
        <ele>264</ele>
        <time>2021-07-31T10:24:13.000Z</time>
      </trkpt>
      <trkpt lat="49.75863" lon="4.8135">
        <ele>264</ele>
        <time>2021-07-31T10:24:14.000Z</time>
      </trkpt>
      <trkpt lat="49.75859" lon="4.81353">
        <ele>264</ele>
        <time>2021-07-31T10:24:15.000Z</time>
      </trkpt>
      <trkpt lat="49.75855" lon="4.81356">
        <ele>263</ele>
        <time>2021-07-31T10:24:16.000Z</time>
      </trkpt>
      <trkpt lat="49.75852" lon="4.8136">
        <ele>263</ele>
        <time>2021-07-31T10:24:17.000Z</time>
      </trkpt>
      <trkpt lat="49.75847" lon="4.81363">
        <ele>263</ele>
        <time>2021-07-31T10:24:18.000Z</time>
      </trkpt>
      <trkpt lat="49.75843" lon="4.81366">
        <ele>263</ele>
        <time>2021-07-31T10:24:19.000Z</time>
      </trkpt>
      <trkpt lat="49.75839" lon="4.81371">
        <ele>263</ele>
        <time>2021-07-31T10:24:20.000Z</time>
      </trkpt>
      <trkpt lat="49.75835" lon="4.81376">
        <ele>263</ele>
        <time>2021-07-31T10:24:21.000Z</time>
      </trkpt>
      <trkpt lat="49.75832" lon="4.8138">
        <ele>263</ele>
        <time>2021-07-31T10:24:22.000Z</time>
      </trkpt>
      <trkpt lat="49.7583" lon="4.81384">
        <ele>263</ele>
        <time>2021-07-31T10:24:23.000Z</time>
      </trkpt>
      <trkpt lat="49.75829" lon="4.81388">
        <ele>263</ele>
        <time>2021-07-31T10:24:24.000Z</time>
      </trkpt>
      <trkpt lat="49.75829" lon="4.81391">
        <ele>263</ele>
        <time>2021-07-31T10:24:25.000Z</time>
      </trkpt>
      <trkpt lat="49.75828" lon="4.81393">
        <ele>263</ele>
        <time>2021-07-31T10:24:26.000Z</time>
      </trkpt>
      <trkpt lat="49.75828" lon="4.81397">
        <ele>263</ele>
        <time>2021-07-31T10:24:27.000Z</time>
      </trkpt>
      <trkpt lat="49.75828" lon="4.814">
        <ele>263</ele>
        <time>2021-07-31T10:24:28.000Z</time>
      </trkpt>
      <trkpt lat="49.75828" lon="4.81403">
        <ele>263</ele>
        <time>2021-07-31T10:24:29.000Z</time>
      </trkpt>
      <trkpt lat="49.75827" lon="4.81406">
        <ele>263</ele>
        <time>2021-07-31T10:24:30.000Z</time>
      </trkpt>
      <trkpt lat="49.75826" lon="4.8141">
        <ele>263</ele>
        <time>2021-07-31T10:24:31.000Z</time>
      </trkpt>
      <trkpt lat="49.75825" lon="4.81414">
        <ele>263</ele>
        <time>2021-07-31T10:24:32.000Z</time>
      </trkpt>
      <trkpt lat="49.75824" lon="4.81419">
        <ele>263</ele>
        <time>2021-07-31T10:24:33.000Z</time>
      </trkpt>
      <trkpt lat="49.75823" lon="4.81423">
        <ele>262</ele>
        <time>2021-07-31T10:24:34.000Z</time>
      </trkpt>
      <trkpt lat="49.75821" lon="4.81427">
        <ele>262</ele>
        <time>2021-07-31T10:24:35.000Z</time>
      </trkpt>
      <trkpt lat="49.7582" lon="4.81431">
        <ele>262</ele>
        <time>2021-07-31T10:24:36.000Z</time>
      </trkpt>
      <trkpt lat="49.75819" lon="4.81436">
        <ele>262</ele>
        <time>2021-07-31T10:24:37.000Z</time>
      </trkpt>
      <trkpt lat="49.75818" lon="4.81441">
        <ele>262</ele>
        <time>2021-07-31T10:24:38.000Z</time>
      </trkpt>
      <trkpt lat="49.75816" lon="4.81448">
        <ele>262</ele>
        <time>2021-07-31T10:24:39.000Z</time>
      </trkpt>
      <trkpt lat="49.75814" lon="4.81454">
        <ele>262</ele>
        <time>2021-07-31T10:24:40.000Z</time>
      </trkpt>
      <trkpt lat="49.75813" lon="4.81462">
        <ele>261</ele>
        <time>2021-07-31T10:24:41.000Z</time>
      </trkpt>
      <trkpt lat="49.75811" lon="4.81469">
        <ele>261</ele>
        <time>2021-07-31T10:24:42.000Z</time>
      </trkpt>
      <trkpt lat="49.7581" lon="4.81476">
        <ele>261</ele>
        <time>2021-07-31T10:24:43.000Z</time>
      </trkpt>
      <trkpt lat="49.75808" lon="4.81483">
        <ele>261</ele>
        <time>2021-07-31T10:24:44.000Z</time>
      </trkpt>
      <trkpt lat="49.75807" lon="4.81489">
        <ele>261</ele>
        <time>2021-07-31T10:24:45.000Z</time>
      </trkpt>
      <trkpt lat="49.75805" lon="4.81495">
        <ele>260</ele>
        <time>2021-07-31T10:24:46.000Z</time>
      </trkpt>
      <trkpt lat="49.75804" lon="4.815">
        <ele>260</ele>
        <time>2021-07-31T10:24:47.000Z</time>
      </trkpt>
      <trkpt lat="49.75802" lon="4.81506">
        <ele>260</ele>
        <time>2021-07-31T10:24:48.000Z</time>
      </trkpt>
      <trkpt lat="49.75799" lon="4.81511">
        <ele>259</ele>
        <time>2021-07-31T10:24:49.000Z</time>
      </trkpt>
      <trkpt lat="49.75798" lon="4.81516">
        <ele>259</ele>
        <time>2021-07-31T10:24:50.000Z</time>
      </trkpt>
      <trkpt lat="49.75796" lon="4.81521">
        <ele>259</ele>
        <time>2021-07-31T10:24:51.000Z</time>
      </trkpt>
      <trkpt lat="49.75795" lon="4.81524">
        <ele>259</ele>
        <time>2021-07-31T10:24:52.000Z</time>
      </trkpt>
      <trkpt lat="49.75794" lon="4.81526">
        <ele>258</ele>
        <time>2021-07-31T10:24:53.000Z</time>
      </trkpt>
      <trkpt lat="49.75793" lon="4.81527">
        <ele>258</ele>
        <time>2021-07-31T10:24:54.000Z</time>
      </trkpt>
      <trkpt lat="49.75792" lon="4.81528">
        <ele>258</ele>
        <time>2021-07-31T10:24:55.000Z</time>
      </trkpt>
      <trkpt lat="49.75792" lon="4.81529">
        <ele>258</ele>
        <time>2021-07-31T10:24:56.000Z</time>
      </trkpt>
      <trkpt lat="49.75791" lon="4.81531">
        <ele>257</ele>
        <time>2021-07-31T10:24:57.000Z</time>
      </trkpt>
      <trkpt lat="49.75789" lon="4.81533">
        <ele>257</ele>
        <time>2021-07-31T10:24:58.000Z</time>
      </trkpt>
      <trkpt lat="49.75787" lon="4.81536">
        <ele>257</ele>
        <time>2021-07-31T10:24:59.000Z</time>
      </trkpt>
      <trkpt lat="49.75785" lon="4.81539">
        <ele>256</ele>
        <time>2021-07-31T10:25:00.000Z</time>
      </trkpt>
      <trkpt lat="49.75783" lon="4.81542">
        <ele>256</ele>
        <time>2021-07-31T10:25:01.000Z</time>
      </trkpt>
      <trkpt lat="49.75781" lon="4.81544">
        <ele>256</ele>
        <time>2021-07-31T10:25:02.000Z</time>
      </trkpt>
      <trkpt lat="49.75779" lon="4.81549">
        <ele>256</ele>
        <time>2021-07-31T10:25:03.000Z</time>
      </trkpt>
      <trkpt lat="49.75777" lon="4.81553">
        <ele>255</ele>
        <time>2021-07-31T10:25:04.000Z</time>
      </trkpt>
      <trkpt lat="49.75775" lon="4.81557">
        <ele>255</ele>
        <time>2021-07-31T10:25:05.000Z</time>
      </trkpt>
      <trkpt lat="49.75774" lon="4.81561">
        <ele>254</ele>
        <time>2021-07-31T10:25:06.000Z</time>
      </trkpt>
      <trkpt lat="49.75773" lon="4.81563">
        <ele>254</ele>
        <time>2021-07-31T10:25:07.000Z</time>
      </trkpt>
      <trkpt lat="49.75771" lon="4.81566">
        <ele>253</ele>
        <time>2021-07-31T10:25:08.000Z</time>
      </trkpt>
      <trkpt lat="49.75769" lon="4.81569">
        <ele>253</ele>
        <time>2021-07-31T10:25:09.000Z</time>
      </trkpt>
      <trkpt lat="49.75768" lon="4.81572">
        <ele>253</ele>
        <time>2021-07-31T10:25:10.000Z</time>
      </trkpt>
      <trkpt lat="49.75766" lon="4.81575">
        <ele>252</ele>
        <time>2021-07-31T10:25:11.000Z</time>
      </trkpt>
      <trkpt lat="49.75765" lon="4.81578">
        <ele>252</ele>
        <time>2021-07-31T10:25:12.000Z</time>
      </trkpt>
      <trkpt lat="49.75762" lon="4.81582">
        <ele>252</ele>
        <time>2021-07-31T10:25:13.000Z</time>
      </trkpt>
      <trkpt lat="49.7576" lon="4.81587">
        <ele>251</ele>
        <time>2021-07-31T10:25:14.000Z</time>
      </trkpt>
      <trkpt lat="49.75758" lon="4.81592">
        <ele>251</ele>
        <time>2021-07-31T10:25:15.000Z</time>
      </trkpt>
      <trkpt lat="49.75755" lon="4.81598">
        <ele>251</ele>
        <time>2021-07-31T10:25:16.000Z</time>
      </trkpt>
      <trkpt lat="49.75753" lon="4.81605">
        <ele>250</ele>
        <time>2021-07-31T10:25:17.000Z</time>
      </trkpt>
      <trkpt lat="49.7575" lon="4.81611">
        <ele>250</ele>
        <time>2021-07-31T10:25:18.000Z</time>
      </trkpt>
      <trkpt lat="49.75749" lon="4.81614">
        <ele>250</ele>
        <time>2021-07-31T10:25:19.000Z</time>
      </trkpt>
      <trkpt lat="49.75747" lon="4.81616">
        <ele>250</ele>
        <time>2021-07-31T10:25:20.000Z</time>
      </trkpt>
      <trkpt lat="49.75746" lon="4.81618">
        <ele>249</ele>
        <time>2021-07-31T10:25:21.000Z</time>
      </trkpt>
      <trkpt lat="49.75745" lon="4.8162">
        <ele>249</ele>
        <time>2021-07-31T10:25:22.000Z</time>
      </trkpt>
      <trkpt lat="49.75744" lon="4.81622">
        <ele>248</ele>
        <time>2021-07-31T10:25:23.000Z</time>
      </trkpt>
      <trkpt lat="49.75742" lon="4.81625">
        <ele>248</ele>
        <time>2021-07-31T10:25:24.000Z</time>
      </trkpt>
      <trkpt lat="49.75739" lon="4.81626">
        <ele>248</ele>
        <time>2021-07-31T10:25:25.000Z</time>
      </trkpt>
      <trkpt lat="49.75737" lon="4.81627">
        <ele>247</ele>
        <time>2021-07-31T10:25:26.000Z</time>
      </trkpt>
      <trkpt lat="49.75734" lon="4.81628">
        <ele>247</ele>
        <time>2021-07-31T10:25:27.000Z</time>
      </trkpt>
      <trkpt lat="49.75732" lon="4.81631">
        <ele>246</ele>
        <time>2021-07-31T10:25:28.000Z</time>
      </trkpt>
      <trkpt lat="49.75728" lon="4.81634">
        <ele>246</ele>
        <time>2021-07-31T10:25:29.000Z</time>
      </trkpt>
      <trkpt lat="49.75725" lon="4.81638">
        <ele>245</ele>
        <time>2021-07-31T10:25:30.000Z</time>
      </trkpt>
      <trkpt lat="49.7572" lon="4.81642">
        <ele>245</ele>
        <time>2021-07-31T10:25:31.000Z</time>
      </trkpt>
      <trkpt lat="49.75716" lon="4.81646">
        <ele>245</ele>
        <time>2021-07-31T10:25:32.000Z</time>
      </trkpt>
      <trkpt lat="49.75711" lon="4.8165">
        <ele>244</ele>
        <time>2021-07-31T10:25:33.000Z</time>
      </trkpt>
      <trkpt lat="49.75705" lon="4.81655">
        <ele>244</ele>
        <time>2021-07-31T10:25:34.000Z</time>
      </trkpt>
      <trkpt lat="49.757" lon="4.81659">
        <ele>243</ele>
        <time>2021-07-31T10:25:35.000Z</time>
      </trkpt>
      <trkpt lat="49.75696" lon="4.81664">
        <ele>242</ele>
        <time>2021-07-31T10:25:36.000Z</time>
      </trkpt>
      <trkpt lat="49.75691" lon="4.81669">
        <ele>242</ele>
        <time>2021-07-31T10:25:37.000Z</time>
      </trkpt>
      <trkpt lat="49.75687" lon="4.81674">
        <ele>241</ele>
        <time>2021-07-31T10:25:38.000Z</time>
      </trkpt>
      <trkpt lat="49.75682" lon="4.81678">
        <ele>240</ele>
        <time>2021-07-31T10:25:39.000Z</time>
      </trkpt>
      <trkpt lat="49.75679" lon="4.81682">
        <ele>240</ele>
        <time>2021-07-31T10:25:40.000Z</time>
      </trkpt>
      <trkpt lat="49.75676" lon="4.81684">
        <ele>239</ele>
        <time>2021-07-31T10:25:41.000Z</time>
      </trkpt>
      <trkpt lat="49.75673" lon="4.81686">
        <ele>238</ele>
        <time>2021-07-31T10:25:42.000Z</time>
      </trkpt>
      <trkpt lat="49.7567" lon="4.81688">
        <ele>237</ele>
        <time>2021-07-31T10:25:43.000Z</time>
      </trkpt>
      <trkpt lat="49.75667" lon="4.81689">
        <ele>236</ele>
        <time>2021-07-31T10:25:44.000Z</time>
      </trkpt>
      <trkpt lat="49.75665" lon="4.81691">
        <ele>235</ele>
        <time>2021-07-31T10:25:45.000Z</time>
      </trkpt>
      <trkpt lat="49.75664" lon="4.81692">
        <ele>234</ele>
        <time>2021-07-31T10:25:46.000Z</time>
      </trkpt>
      <trkpt lat="49.75663" lon="4.81693">
        <ele>233</ele>
        <time>2021-07-31T10:25:47.000Z</time>
      </trkpt>
      <trkpt lat="49.75663" lon="4.81694">
        <ele>232</ele>
        <time>2021-07-31T10:25:48.000Z</time>
      </trkpt>
      <trkpt lat="49.75663" lon="4.81696">
        <ele>232</ele>
        <time>2021-07-31T10:25:49.000Z</time>
      </trkpt>
      <trkpt lat="49.75662" lon="4.81699">
        <ele>231</ele>
        <time>2021-07-31T10:25:50.000Z</time>
      </trkpt>
      <trkpt lat="49.7566" lon="4.81701">
        <ele>230</ele>
        <time>2021-07-31T10:25:51.000Z</time>
      </trkpt>
      <trkpt lat="49.75659" lon="4.81703">
        <ele>229</ele>
        <time>2021-07-31T10:25:52.000Z</time>
      </trkpt>
      <trkpt lat="49.75657" lon="4.81705">
        <ele>228</ele>
        <time>2021-07-31T10:25:53.000Z</time>
      </trkpt>
      <trkpt lat="49.75655" lon="4.81708">
        <ele>227</ele>
        <time>2021-07-31T10:25:54.000Z</time>
      </trkpt>
      <trkpt lat="49.75652" lon="4.81711">
        <ele>226</ele>
        <time>2021-07-31T10:25:55.000Z</time>
      </trkpt>
      <trkpt lat="49.75649" lon="4.81715">
        <ele>225</ele>
        <time>2021-07-31T10:25:56.000Z</time>
      </trkpt>
      <trkpt lat="49.75646" lon="4.81719">
        <ele>224</ele>
        <time>2021-07-31T10:25:57.000Z</time>
      </trkpt>
      <trkpt lat="49.75642" lon="4.81724">
        <ele>223</ele>
        <time>2021-07-31T10:25:58.000Z</time>
      </trkpt>
      <trkpt lat="49.75638" lon="4.81729">
        <ele>222</ele>
        <time>2021-07-31T10:25:59.000Z</time>
      </trkpt>
      <trkpt lat="49.75634" lon="4.81735">
        <ele>221</ele>
        <time>2021-07-31T10:26:00.000Z</time>
      </trkpt>
      <trkpt lat="49.7563" lon="4.8174">
        <ele>220</ele>
        <time>2021-07-31T10:26:01.000Z</time>
      </trkpt>
      <trkpt lat="49.75625" lon="4.81746">
        <ele>220</ele>
        <time>2021-07-31T10:26:02.000Z</time>
      </trkpt>
      <trkpt lat="49.75621" lon="4.81753">
        <ele>219</ele>
        <time>2021-07-31T10:26:03.000Z</time>
      </trkpt>
      <trkpt lat="49.75617" lon="4.81759">
        <ele>218</ele>
        <time>2021-07-31T10:26:04.000Z</time>
      </trkpt>
      <trkpt lat="49.75613" lon="4.81766">
        <ele>217</ele>
        <time>2021-07-31T10:26:05.000Z</time>
      </trkpt>
      <trkpt lat="49.75609" lon="4.81773">
        <ele>217</ele>
        <time>2021-07-31T10:26:06.000Z</time>
      </trkpt>
      <trkpt lat="49.75605" lon="4.8178">
        <ele>216</ele>
        <time>2021-07-31T10:26:07.000Z</time>
      </trkpt>
      <trkpt lat="49.75601" lon="4.81788">
        <ele>215</ele>
        <time>2021-07-31T10:26:08.000Z</time>
      </trkpt>
      <trkpt lat="49.75598" lon="4.81796">
        <ele>214</ele>
        <time>2021-07-31T10:26:09.000Z</time>
      </trkpt>
      <trkpt lat="49.75593" lon="4.81805">
        <ele>213</ele>
        <time>2021-07-31T10:26:10.000Z</time>
      </trkpt>
      <trkpt lat="49.75589" lon="4.81813">
        <ele>212</ele>
        <time>2021-07-31T10:26:11.000Z</time>
      </trkpt>
      <trkpt lat="49.75585" lon="4.81821">
        <ele>212</ele>
        <time>2021-07-31T10:26:12.000Z</time>
      </trkpt>
      <trkpt lat="49.75581" lon="4.8183">
        <ele>211</ele>
        <time>2021-07-31T10:26:13.000Z</time>
      </trkpt>
      <trkpt lat="49.75577" lon="4.81838">
        <ele>210</ele>
        <time>2021-07-31T10:26:14.000Z</time>
      </trkpt>
      <trkpt lat="49.75572" lon="4.81846">
        <ele>209</ele>
        <time>2021-07-31T10:26:15.000Z</time>
      </trkpt>
      <trkpt lat="49.75568" lon="4.81854">
        <ele>208</ele>
        <time>2021-07-31T10:26:16.000Z</time>
      </trkpt>
      <trkpt lat="49.75564" lon="4.81863">
        <ele>207</ele>
        <time>2021-07-31T10:26:17.000Z</time>
      </trkpt>
      <trkpt lat="49.7556" lon="4.81872">
        <ele>207</ele>
        <time>2021-07-31T10:26:18.000Z</time>
      </trkpt>
      <trkpt lat="49.75556" lon="4.81881">
        <ele>206</ele>
        <time>2021-07-31T10:26:19.000Z</time>
      </trkpt>
      <trkpt lat="49.75552" lon="4.81889">
        <ele>205</ele>
        <time>2021-07-31T10:26:20.000Z</time>
      </trkpt>
      <trkpt lat="49.75548" lon="4.81898">
        <ele>205</ele>
        <time>2021-07-31T10:26:21.000Z</time>
      </trkpt>
      <trkpt lat="49.75545" lon="4.81906">
        <ele>204</ele>
        <time>2021-07-31T10:26:22.000Z</time>
      </trkpt>
      <trkpt lat="49.75541" lon="4.81913">
        <ele>204</ele>
        <time>2021-07-31T10:26:23.000Z</time>
      </trkpt>
      <trkpt lat="49.75537" lon="4.81921">
        <ele>203</ele>
        <time>2021-07-31T10:26:24.000Z</time>
      </trkpt>
      <trkpt lat="49.75533" lon="4.81928">
        <ele>203</ele>
        <time>2021-07-31T10:26:25.000Z</time>
      </trkpt>
      <trkpt lat="49.75529" lon="4.81935">
        <ele>203</ele>
        <time>2021-07-31T10:26:26.000Z</time>
      </trkpt>
      <trkpt lat="49.75525" lon="4.81942">
        <ele>202</ele>
        <time>2021-07-31T10:26:27.000Z</time>
      </trkpt>
      <trkpt lat="49.75522" lon="4.81949">
        <ele>202</ele>
        <time>2021-07-31T10:26:28.000Z</time>
      </trkpt>
      <trkpt lat="49.75518" lon="4.81956">
        <ele>201</ele>
        <time>2021-07-31T10:26:29.000Z</time>
      </trkpt>
      <trkpt lat="49.75514" lon="4.81963">
        <ele>201</ele>
        <time>2021-07-31T10:26:30.000Z</time>
      </trkpt>
      <trkpt lat="49.7551" lon="4.81971">
        <ele>201</ele>
        <time>2021-07-31T10:26:31.000Z</time>
      </trkpt>
      <trkpt lat="49.75506" lon="4.81979">
        <ele>201</ele>
        <time>2021-07-31T10:26:32.000Z</time>
      </trkpt>
      <trkpt lat="49.75502" lon="4.81987">
        <ele>200</ele>
        <time>2021-07-31T10:26:33.000Z</time>
      </trkpt>
      <trkpt lat="49.75497" lon="4.81995">
        <ele>200</ele>
        <time>2021-07-31T10:26:34.000Z</time>
      </trkpt>
      <trkpt lat="49.75493" lon="4.82004">
        <ele>200</ele>
        <time>2021-07-31T10:26:35.000Z</time>
      </trkpt>
      <trkpt lat="49.75489" lon="4.82012">
        <ele>199</ele>
        <time>2021-07-31T10:26:36.000Z</time>
      </trkpt>
      <trkpt lat="49.75484" lon="4.82021">
        <ele>199</ele>
        <time>2021-07-31T10:26:37.000Z</time>
      </trkpt>
      <trkpt lat="49.7548" lon="4.8203">
        <ele>198</ele>
        <time>2021-07-31T10:26:38.000Z</time>
      </trkpt>
      <trkpt lat="49.75475" lon="4.82039">
        <ele>198</ele>
        <time>2021-07-31T10:26:39.000Z</time>
      </trkpt>
      <trkpt lat="49.75471" lon="4.82048">
        <ele>197</ele>
        <time>2021-07-31T10:26:40.000Z</time>
      </trkpt>
      <trkpt lat="49.75467" lon="4.82056">
        <ele>197</ele>
        <time>2021-07-31T10:26:41.000Z</time>
      </trkpt>
      <trkpt lat="49.75463" lon="4.82064">
        <ele>196</ele>
        <time>2021-07-31T10:26:42.000Z</time>
      </trkpt>
      <trkpt lat="49.7546" lon="4.82072">
        <ele>196</ele>
        <time>2021-07-31T10:26:43.000Z</time>
      </trkpt>
      <trkpt lat="49.75457" lon="4.82078">
        <ele>196</ele>
        <time>2021-07-31T10:26:44.000Z</time>
      </trkpt>
      <trkpt lat="49.75456" lon="4.82084">
        <ele>195</ele>
        <time>2021-07-31T10:26:45.000Z</time>
      </trkpt>
      <trkpt lat="49.75457" lon="4.8209">
        <ele>195</ele>
        <time>2021-07-31T10:26:46.000Z</time>
      </trkpt>
      <trkpt lat="49.75459" lon="4.82096">
        <ele>195</ele>
        <time>2021-07-31T10:26:47.000Z</time>
      </trkpt>
      <trkpt lat="49.75461" lon="4.82102">
        <ele>194</ele>
        <time>2021-07-31T10:26:48.000Z</time>
      </trkpt>
      <trkpt lat="49.75465" lon="4.82107">
        <ele>194</ele>
        <time>2021-07-31T10:26:49.000Z</time>
      </trkpt>
      <trkpt lat="49.75469" lon="4.82113">
        <ele>194</ele>
        <time>2021-07-31T10:26:50.000Z</time>
      </trkpt>
      <trkpt lat="49.75472" lon="4.82119">
        <ele>194</ele>
        <time>2021-07-31T10:26:51.000Z</time>
      </trkpt>
      <trkpt lat="49.75476" lon="4.82125">
        <ele>193</ele>
        <time>2021-07-31T10:26:52.000Z</time>
      </trkpt>
      <trkpt lat="49.7548" lon="4.82131">
        <ele>193</ele>
        <time>2021-07-31T10:26:53.000Z</time>
      </trkpt>
      <trkpt lat="49.75484" lon="4.82137">
        <ele>193</ele>
        <time>2021-07-31T10:26:54.000Z</time>
      </trkpt>
      <trkpt lat="49.75488" lon="4.82143">
        <ele>192</ele>
        <time>2021-07-31T10:26:55.000Z</time>
      </trkpt>
      <trkpt lat="49.75492" lon="4.82149">
        <ele>192</ele>
        <time>2021-07-31T10:26:56.000Z</time>
      </trkpt>
      <trkpt lat="49.75496" lon="4.82156">
        <ele>192</ele>
        <time>2021-07-31T10:26:57.000Z</time>
      </trkpt>
      <trkpt lat="49.75499" lon="4.82162">
        <ele>192</ele>
        <time>2021-07-31T10:26:58.000Z</time>
      </trkpt>
      <trkpt lat="49.75503" lon="4.82168">
        <ele>192</ele>
        <time>2021-07-31T10:26:59.000Z</time>
      </trkpt>
      <trkpt lat="49.75506" lon="4.82173">
        <ele>192</ele>
        <time>2021-07-31T10:27:00.000Z</time>
      </trkpt>
      <trkpt lat="49.75508" lon="4.82178">
        <ele>191</ele>
        <time>2021-07-31T10:27:01.000Z</time>
      </trkpt>
      <trkpt lat="49.75507" lon="4.82183">
        <ele>191</ele>
        <time>2021-07-31T10:27:02.000Z</time>
      </trkpt>
      <trkpt lat="49.75506" lon="4.82186">
        <ele>191</ele>
        <time>2021-07-31T10:27:03.000Z</time>
      </trkpt>
      <trkpt lat="49.75502" lon="4.82189">
        <ele>191</ele>
        <time>2021-07-31T10:27:04.000Z</time>
      </trkpt>
      <trkpt lat="49.75499" lon="4.82191">
        <ele>191</ele>
        <time>2021-07-31T10:27:05.000Z</time>
      </trkpt>
      <trkpt lat="49.75495" lon="4.82194">
        <ele>191</ele>
        <time>2021-07-31T10:27:06.000Z</time>
      </trkpt>
      <trkpt lat="49.75492" lon="4.82198">
        <ele>191</ele>
        <time>2021-07-31T10:27:07.000Z</time>
      </trkpt>
      <trkpt lat="49.75489" lon="4.82203">
        <ele>190</ele>
        <time>2021-07-31T10:27:08.000Z</time>
      </trkpt>
      <trkpt lat="49.75485" lon="4.82208">
        <ele>190</ele>
        <time>2021-07-31T10:27:09.000Z</time>
      </trkpt>
      <trkpt lat="49.75481" lon="4.82213">
        <ele>190</ele>
        <time>2021-07-31T10:27:10.000Z</time>
      </trkpt>
      <trkpt lat="49.75476" lon="4.82216">
        <ele>190</ele>
        <time>2021-07-31T10:27:11.000Z</time>
      </trkpt>
      <trkpt lat="49.75471" lon="4.82219">
        <ele>190</ele>
        <time>2021-07-31T10:27:12.000Z</time>
      </trkpt>
      <trkpt lat="49.75467" lon="4.8222">
        <ele>190</ele>
        <time>2021-07-31T10:27:13.000Z</time>
      </trkpt>
      <trkpt lat="49.75462" lon="4.82221">
        <ele>190</ele>
        <time>2021-07-31T10:27:14.000Z</time>
      </trkpt>
      <trkpt lat="49.75458" lon="4.82221">
        <ele>190</ele>
        <time>2021-07-31T10:27:15.000Z</time>
      </trkpt>
      <trkpt lat="49.75454" lon="4.8222">
        <ele>190</ele>
        <time>2021-07-31T10:27:16.000Z</time>
      </trkpt>
      <trkpt lat="49.7545" lon="4.82219">
        <ele>190</ele>
        <time>2021-07-31T10:27:17.000Z</time>
      </trkpt>
      <trkpt lat="49.75447" lon="4.82217">
        <ele>190</ele>
        <time>2021-07-31T10:27:18.000Z</time>
      </trkpt>
      <trkpt lat="49.75443" lon="4.82215">
        <ele>189</ele>
        <time>2021-07-31T10:27:19.000Z</time>
      </trkpt>
      <trkpt lat="49.7544" lon="4.82213">
        <ele>189</ele>
        <time>2021-07-31T10:27:20.000Z</time>
      </trkpt>
      <trkpt lat="49.75437" lon="4.82211">
        <ele>189</ele>
        <time>2021-07-31T10:27:21.000Z</time>
      </trkpt>
      <trkpt lat="49.75434" lon="4.82209">
        <ele>189</ele>
        <time>2021-07-31T10:27:22.000Z</time>
      </trkpt>
      <trkpt lat="49.75431" lon="4.82208">
        <ele>189</ele>
        <time>2021-07-31T10:27:23.000Z</time>
      </trkpt>
      <trkpt lat="49.75428" lon="4.82206">
        <ele>189</ele>
        <time>2021-07-31T10:27:24.000Z</time>
      </trkpt>
      <trkpt lat="49.75425" lon="4.82205">
        <ele>189</ele>
        <time>2021-07-31T10:27:25.000Z</time>
      </trkpt>
      <trkpt lat="49.75422" lon="4.82203">
        <ele>189</ele>
        <time>2021-07-31T10:27:26.000Z</time>
      </trkpt>
      <trkpt lat="49.75419" lon="4.82202">
        <ele>188</ele>
        <time>2021-07-31T10:27:27.000Z</time>
      </trkpt>
      <trkpt lat="49.75416" lon="4.822">
        <ele>188</ele>
        <time>2021-07-31T10:27:28.000Z</time>
      </trkpt>
      <trkpt lat="49.75412" lon="4.82199">
        <ele>188</ele>
        <time>2021-07-31T10:27:29.000Z</time>
      </trkpt>
      <trkpt lat="49.75409" lon="4.82198">
        <ele>188</ele>
        <time>2021-07-31T10:27:30.000Z</time>
      </trkpt>
      <trkpt lat="49.75406" lon="4.82198">
        <ele>188</ele>
        <time>2021-07-31T10:27:31.000Z</time>
      </trkpt>
      <trkpt lat="49.75402" lon="4.82198">
        <ele>188</ele>
        <time>2021-07-31T10:27:32.000Z</time>
      </trkpt>
      <trkpt lat="49.75399" lon="4.82198">
        <ele>188</ele>
        <time>2021-07-31T10:27:33.000Z</time>
      </trkpt>
      <trkpt lat="49.75396" lon="4.82199">
        <ele>188</ele>
        <time>2021-07-31T10:27:34.000Z</time>
      </trkpt>
      <trkpt lat="49.75393" lon="4.822">
        <ele>188</ele>
        <time>2021-07-31T10:27:35.000Z</time>
      </trkpt>
      <trkpt lat="49.7539" lon="4.822">
        <ele>188</ele>
        <time>2021-07-31T10:27:36.000Z</time>
      </trkpt>
      <trkpt lat="49.75387" lon="4.822">
        <ele>188</ele>
        <time>2021-07-31T10:27:37.000Z</time>
      </trkpt>
      <trkpt lat="49.75384" lon="4.82201">
        <ele>188</ele>
        <time>2021-07-31T10:27:38.000Z</time>
      </trkpt>
      <trkpt lat="49.75382" lon="4.82202">
        <ele>188</ele>
        <time>2021-07-31T10:27:39.000Z</time>
      </trkpt>
      <trkpt lat="49.75381" lon="4.82203">
        <ele>188</ele>
        <time>2021-07-31T10:27:40.000Z</time>
      </trkpt>
      <trkpt lat="49.75379" lon="4.82204">
        <ele>188</ele>
        <time>2021-07-31T10:27:41.000Z</time>
      </trkpt>
      <trkpt lat="49.75377" lon="4.82204">
        <ele>188</ele>
        <time>2021-07-31T10:27:42.000Z</time>
      </trkpt>
      <trkpt lat="49.75377" lon="4.82204">
        <ele>188</ele>
        <time>2021-07-31T10:27:43.000Z</time>
      </trkpt>
      <trkpt lat="49.75376" lon="4.82204">
        <ele>188</ele>
        <time>2021-07-31T10:27:44.000Z</time>
      </trkpt>
      <trkpt lat="49.75376" lon="4.82204">
        <ele>189</ele>
        <time>2021-07-31T10:27:45.000Z</time>
      </trkpt>
      <trkpt lat="49.75376" lon="4.82204">
        <ele>189</ele>
        <time>2021-07-31T10:27:46.000Z</time>
      </trkpt>
      <trkpt lat="49.75376" lon="4.82204">
        <ele>189</ele>
        <time>2021-07-31T10:27:47.000Z</time>
      </trkpt>
      <trkpt lat="49.75376" lon="4.82204">
        <ele>189</ele>
        <time>2021-07-31T10:27:48.000Z</time>
      </trkpt>
      <trkpt lat="49.75376" lon="4.82204">
        <ele>189</ele>
        <time>2021-07-31T10:27:49.000Z</time>
      </trkpt>
      <trkpt lat="49.75377" lon="4.82203">
        <ele>189</ele>
        <time>2021-07-31T10:27:50.000Z</time>
      </trkpt>
      <trkpt lat="49.75377" lon="4.82203">
        <ele>189</ele>
        <time>2021-07-31T10:27:51.000Z</time>
      </trkpt>
      <trkpt lat="49.75377" lon="4.82203">
        <ele>189</ele>
        <time>2021-07-31T10:27:52.000Z</time>
      </trkpt>
      <trkpt lat="49.75377" lon="4.82203">
        <ele>189</ele>
        <time>2021-07-31T10:27:53.000Z</time>
      </trkpt>
    </trkseg>
  </trk>
</gpx>